<?xml version="1.0" encoding="UTF-8"?>
<gpx version="1.1" creator="https://www.youtrack.es" xsi:schemaLocation="http://www.topografix.com/GPX/1/1 http://www.topografix.com/GPX/1/1/gpx.xsd http://www.garmin.com/xmlschemas/GpxExtensions/v3 http://www.garmin.com/xmlschemas/GpxExtensionsv3.xsd http://www.garmin.com/xmlschemas/TrackPointExtension/v1 http://www.garmin.com/xmlschemas/TrackPointExtensionv1.xsd" xmlns:gpxtpx="http://www.garmin.com/xmlschemas/TrackPointExtension/v1" xmlns:gpxx="http://www.garmin.com/xmlschemas/GpxExtensions/v3" xmlns:xsi="http://www.w3.org/2001/XMLSchema-instance">
  <metadata>
    <link href="https://www.youtrack.es">
      <text>YouTrack.es</text>
    </link>
    <time>2026-05-10T13:25:27Z</time>
  </metadata>
  <trk>
    <src>https://www.youtrack.es</src>
    <link href="https://www.youtrack.es/ruta/3098-piton">
      <text>YouTrack.es</text>
    </link>
    <trkseg>
      <trkpt lat="42.45839101242095" lon="-7.983306237276917">
        <time>2018-11-30T05:47:17Z</time>
      </trkpt>
      <trkpt lat="42.4585792803535" lon="-7.983058696271113">
        <time>2018-11-30T05:47:17Z</time>
      </trkpt>
      <trkpt lat="42.45874982495297" lon="-7.982757888797064">
        <time>2018-11-30T05:47:17Z</time>
      </trkpt>
      <trkpt lat="42.4588567588303" lon="-7.982177778638344">
        <time>2018-11-30T05:47:17Z</time>
      </trkpt>
      <trkpt lat="42.45885776187225" lon="-7.982152511854709">
        <time>2018-11-30T05:47:17Z</time>
      </trkpt>
      <trkpt lat="42.45900206755717" lon="-7.981716264527846">
        <time>2018-11-30T05:47:17Z</time>
      </trkpt>
      <trkpt lat="42.45916308261366" lon="-7.981172648644767">
        <time>2018-11-30T05:47:17Z</time>
      </trkpt>
      <trkpt lat="42.45931142017738" lon="-7.980775888941007">
        <time>2018-11-30T05:47:17Z</time>
      </trkpt>
      <trkpt lat="42.45941182548015" lon="-7.980381568844891">
        <time>2018-11-30T05:47:17Z</time>
      </trkpt>
      <trkpt lat="42.4594949817477" lon="-7.980088906202281">
        <time>2018-11-30T05:47:17Z</time>
      </trkpt>
      <trkpt lat="42.45953652599013" lon="-7.980006497041675">
        <time>2018-11-30T05:47:17Z</time>
      </trkpt>
      <trkpt lat="42.45985208613289" lon="-7.979438997849217">
        <time>2018-11-30T05:47:17Z</time>
      </trkpt>
      <trkpt lat="42.46007868896284" lon="-7.979541589668217">
        <time>2018-11-30T05:47:17Z</time>
      </trkpt>
      <trkpt lat="42.46033504146391" lon="-7.979508166660275">
        <time>2018-11-30T05:47:17Z</time>
      </trkpt>
      <trkpt lat="42.460584154058" lon="-7.979446087189781">
        <time>2018-11-30T05:47:17Z</time>
      </trkpt>
      <trkpt lat="42.46065493310572" lon="-7.979354638533113">
        <time>2018-11-30T05:47:17Z</time>
      </trkpt>
      <trkpt lat="42.460883675303" lon="-7.979295025587883">
        <time>2018-11-30T05:47:17Z</time>
      </trkpt>
      <trkpt lat="42.4613844564055" lon="-7.97922765419341">
        <time>2018-11-30T05:47:17Z</time>
      </trkpt>
      <trkpt lat="42.46171079849115" lon="-7.979407736717663">
        <time>2018-11-30T05:47:17Z</time>
      </trkpt>
      <trkpt lat="42.46194841057774" lon="-7.979715892485166">
        <time>2018-11-30T05:47:17Z</time>
      </trkpt>
      <trkpt lat="42.46216955291116" lon="-7.980030319991448">
        <time>2018-11-30T05:47:17Z</time>
      </trkpt>
      <trkpt lat="42.46239073622751" lon="-7.980350418902406">
        <time>2018-11-30T05:47:17Z</time>
      </trkpt>
      <trkpt lat="42.46261429664114" lon="-7.980531410596488">
        <time>2018-11-30T05:47:17Z</time>
      </trkpt>
      <trkpt lat="42.46282165089603" lon="-7.980686787117387">
        <time>2018-11-30T05:47:17Z</time>
      </trkpt>
      <trkpt lat="42.46300447834724" lon="-7.980759083360659">
        <time>2018-11-30T05:47:17Z</time>
      </trkpt>
      <trkpt lat="42.46330241238331" lon="-7.980884935614637">
        <time>2018-11-30T05:47:17Z</time>
      </trkpt>
      <trkpt lat="42.46352857763662" lon="-7.980988349255518">
        <time>2018-11-30T05:47:17Z</time>
      </trkpt>
      <trkpt lat="42.46382778750818" lon="-7.980937208976537">
        <time>2018-11-30T05:47:17Z</time>
      </trkpt>
      <trkpt lat="42.46405816611149" lon="-7.980889498390045">
        <time>2018-11-30T05:47:17Z</time>
      </trkpt>
      <trkpt lat="42.46427695624771" lon="-7.980995653644482">
        <time>2018-11-30T05:47:17Z</time>
      </trkpt>
      <trkpt lat="42.46468086716888" lon="-7.981090482434352">
        <time>2018-11-30T05:47:17Z</time>
      </trkpt>
      <trkpt lat="42.4651063722789" lon="-7.980905516008386">
        <time>2018-11-30T05:47:17Z</time>
      </trkpt>
      <trkpt lat="42.46516879378651" lon="-7.980807144526456">
        <time>2018-11-30T05:47:17Z</time>
      </trkpt>
      <trkpt lat="42.46539210365334" lon="-7.980537808915952">
        <time>2018-11-30T05:47:17Z</time>
      </trkpt>
      <trkpt lat="42.46551092087578" lon="-7.980402221482022">
        <time>2018-11-30T05:47:17Z</time>
      </trkpt>
      <trkpt lat="42.46557148407309" lon="-7.980333900760112">
        <time>2018-11-30T05:47:17Z</time>
      </trkpt>
      <trkpt lat="42.46591030785139" lon="-7.979953277393367">
        <time>2018-11-30T05:47:17Z</time>
      </trkpt>
      <trkpt lat="42.46604623936808" lon="-7.979617768201408">
        <time>2018-11-30T05:47:17Z</time>
      </trkpt>
      <trkpt lat="42.46631137529561" lon="-7.979555690851747">
        <time>2018-11-30T05:47:17Z</time>
      </trkpt>
      <trkpt lat="42.46678899520317" lon="-7.979472899358856">
        <time>2018-11-30T05:47:17Z</time>
      </trkpt>
      <trkpt lat="42.46726469780295" lon="-7.97928717459202">
        <time>2018-11-30T05:47:17Z</time>
      </trkpt>
      <trkpt lat="42.46757663814293" lon="-7.979121966184336">
        <time>2018-11-30T05:47:17Z</time>
      </trkpt>
      <trkpt lat="42.46761037849487" lon="-7.979084579140765">
        <time>2018-11-30T05:47:17Z</time>
      </trkpt>
      <trkpt lat="42.46795063368994" lon="-7.978842570950038">
        <time>2018-11-30T05:47:17Z</time>
      </trkpt>
      <trkpt lat="42.46833721258516" lon="-7.978658792934802">
        <time>2018-11-30T05:47:17Z</time>
      </trkpt>
      <trkpt lat="42.46830682683979" lon="-7.97818256655532">
        <time>2018-11-30T05:47:17Z</time>
      </trkpt>
      <trkpt lat="42.46827261776031" lon="-7.977879268758313">
        <time>2018-11-30T05:47:17Z</time>
      </trkpt>
      <trkpt lat="42.46820452044272" lon="-7.977683965131693">
        <time>2018-11-30T05:47:17Z</time>
      </trkpt>
      <trkpt lat="42.46800264226365" lon="-7.977305661659004">
        <time>2018-11-30T05:47:17Z</time>
      </trkpt>
      <trkpt lat="42.46778056274993" lon="-7.977041081491159">
        <time>2018-11-30T05:47:17Z</time>
      </trkpt>
      <trkpt lat="42.46774261564001" lon="-7.976980943034685">
        <time>2018-11-30T05:47:17Z</time>
      </trkpt>
      <trkpt lat="42.46753488578349" lon="-7.976783163402933">
        <time>2018-11-30T05:47:17Z</time>
      </trkpt>
      <trkpt lat="42.46697687458387" lon="-7.976024170328684">
        <time>2018-11-30T05:47:17Z</time>
      </trkpt>
      <trkpt lat="42.46672169196987" lon="-7.975714737341949">
        <time>2018-11-30T05:47:17Z</time>
      </trkpt>
      <trkpt lat="42.46623171630372" lon="-7.97550045661097">
        <time>2018-11-30T05:47:17Z</time>
      </trkpt>
      <trkpt lat="42.46620056809027" lon="-7.975507356920194">
        <time>2018-11-30T05:47:17Z</time>
      </trkpt>
      <trkpt lat="42.46595391903682" lon="-7.975561835179538">
        <time>2018-11-30T05:47:17Z</time>
      </trkpt>
      <trkpt lat="42.46574026065052" lon="-7.975577431632117">
        <time>2018-11-30T05:47:17Z</time>
      </trkpt>
      <trkpt lat="42.46558544684645" lon="-7.975549791449664">
        <time>2018-11-30T05:47:17Z</time>
      </trkpt>
      <trkpt lat="42.46543500353268" lon="-7.975552332591521">
        <time>2018-11-30T05:47:17Z</time>
      </trkpt>
      <trkpt lat="42.46525671577496" lon="-7.975561356723553">
        <time>2018-11-30T05:47:17Z</time>
      </trkpt>
      <trkpt lat="42.4650842904815" lon="-7.9754521102324">
        <time>2018-11-30T05:47:17Z</time>
      </trkpt>
      <trkpt lat="42.46492103048219" lon="-7.975228716607752">
        <time>2018-11-30T05:47:17Z</time>
      </trkpt>
      <trkpt lat="42.46472817582745" lon="-7.975106198612931">
        <time>2018-11-30T05:47:17Z</time>
      </trkpt>
      <trkpt lat="42.46454143528241" lon="-7.974909079016166">
        <time>2018-11-30T05:47:17Z</time>
      </trkpt>
      <trkpt lat="42.46444525900517" lon="-7.974770369738322">
        <time>2018-11-30T05:47:17Z</time>
      </trkpt>
      <trkpt lat="42.46441975263362" lon="-7.974543733081231">
        <time>2018-11-30T05:47:17Z</time>
      </trkpt>
      <trkpt lat="42.46442475097496" lon="-7.974494271445663">
        <time>2018-11-30T05:47:17Z</time>
      </trkpt>
      <trkpt lat="42.46440144077886" lon="-7.974439197281105">
        <time>2018-11-30T05:47:17Z</time>
      </trkpt>
      <trkpt lat="42.46434929566164" lon="-7.974214777748527">
        <time>2018-11-30T05:47:17Z</time>
      </trkpt>
      <trkpt lat="42.46428491499417" lon="-7.973980607229022">
        <time>2018-11-30T05:47:17Z</time>
      </trkpt>
      <trkpt lat="42.46422034625094" lon="-7.973808351794966">
        <time>2018-11-30T05:47:17Z</time>
      </trkpt>
      <trkpt lat="42.46417770684604" lon="-7.973603373944692">
        <time>2018-11-30T05:47:17Z</time>
      </trkpt>
      <trkpt lat="42.46411055899387" lon="-7.973496643010582">
        <time>2018-11-30T05:47:17Z</time>
      </trkpt>
      <trkpt lat="42.46407159492388" lon="-7.973452481442579">
        <time>2018-11-30T05:47:17Z</time>
      </trkpt>
      <trkpt lat="42.46397851787155" lon="-7.973183175844207">
        <time>2018-11-30T05:47:17Z</time>
      </trkpt>
      <trkpt lat="42.46387289016159" lon="-7.972913085717783">
        <time>2018-11-30T05:47:17Z</time>
      </trkpt>
      <trkpt lat="42.46384857615379" lon="-7.972907997919871">
        <time>2018-11-30T05:47:17Z</time>
      </trkpt>
      <trkpt lat="42.46373875925179" lon="-7.97283652229737">
        <time>2018-11-30T05:47:17Z</time>
      </trkpt>
      <trkpt lat="42.46372651978118" lon="-7.97282721309564">
        <time>2018-11-30T05:47:17Z</time>
      </trkpt>
      <trkpt lat="42.46369057134552" lon="-7.972712266942205">
        <time>2018-11-30T05:47:17Z</time>
      </trkpt>
      <trkpt lat="42.46365707128111" lon="-7.972563128603896">
        <time>2018-11-30T05:47:17Z</time>
      </trkpt>
      <trkpt lat="42.46366158244004" lon="-7.972186431949487">
        <time>2018-11-30T05:47:17Z</time>
      </trkpt>
      <trkpt lat="42.46371374881375" lon="-7.971891002186952">
        <time>2018-11-30T05:47:17Z</time>
      </trkpt>
      <trkpt lat="42.46371376704227" lon="-7.971791875162824">
        <time>2018-11-30T05:47:17Z</time>
      </trkpt>
      <trkpt lat="42.46371411487108" lon="-7.971749643254383">
        <time>2018-11-30T05:47:17Z</time>
      </trkpt>
      <trkpt lat="42.46373845544814" lon="-7.971485876563734">
        <time>2018-11-30T05:47:17Z</time>
      </trkpt>
      <trkpt lat="42.46373838691984" lon="-7.971429085811574">
        <time>2018-11-30T05:47:17Z</time>
      </trkpt>
      <trkpt lat="42.46373824948606" lon="-7.971315511443113">
        <time>2018-11-30T05:47:17Z</time>
      </trkpt>
      <trkpt lat="42.46374416653837" lon="-7.971006841686998">
        <time>2018-11-30T05:47:17Z</time>
      </trkpt>
      <trkpt lat="42.46376168413651" lon="-7.970670637044362">
        <time>2018-11-30T05:47:17Z</time>
      </trkpt>
      <trkpt lat="42.46376313453513" lon="-7.97060019575609">
        <time>2018-11-30T05:47:17Z</time>
      </trkpt>
      <trkpt lat="42.46382589995432" lon="-7.970138715055317">
        <time>2018-11-30T05:47:17Z</time>
      </trkpt>
      <trkpt lat="42.46386086158609" lon="-7.969956311826127">
        <time>2018-11-30T05:47:17Z</time>
      </trkpt>
      <trkpt lat="42.46385082718656" lon="-7.969755256624619">
        <time>2018-11-30T05:47:17Z</time>
      </trkpt>
      <trkpt lat="42.46383977792011" lon="-7.969697192047152">
        <time>2018-11-30T05:47:17Z</time>
      </trkpt>
      <trkpt lat="42.46381692329198" lon="-7.969638219465475">
        <time>2018-11-30T05:47:17Z</time>
      </trkpt>
      <trkpt lat="42.4637835329662" lon="-7.969450392824944">
        <time>2018-11-30T05:47:17Z</time>
      </trkpt>
      <trkpt lat="42.46378362308864" lon="-7.969436148615571">
        <time>2018-11-30T05:47:17Z</time>
      </trkpt>
      <trkpt lat="42.46377323397372" lon="-7.969264538366352">
        <time>2018-11-30T05:47:17Z</time>
      </trkpt>
      <trkpt lat="42.46373898830851" lon="-7.969120335555778">
        <time>2018-11-30T05:47:17Z</time>
      </trkpt>
      <trkpt lat="42.46375066861069" lon="-7.969092442172095">
        <time>2018-11-30T05:47:17Z</time>
      </trkpt>
      <trkpt lat="42.46388628009108" lon="-7.968825774881476">
        <time>2018-11-30T05:47:17Z</time>
      </trkpt>
      <trkpt lat="42.46395479401004" lon="-7.968698129036462">
        <time>2018-11-30T05:47:17Z</time>
      </trkpt>
      <trkpt lat="42.46404004864333" lon="-7.968439614633827">
        <time>2018-11-30T05:47:17Z</time>
      </trkpt>
      <trkpt lat="42.46393122892243" lon="-7.968136815019815">
        <time>2018-11-30T05:47:17Z</time>
      </trkpt>
      <trkpt lat="42.46386169834444" lon="-7.967965669524579">
        <time>2018-11-30T05:47:17Z</time>
      </trkpt>
      <trkpt lat="42.4637374113514" lon="-7.967640982025712">
        <time>2018-11-30T05:47:17Z</time>
      </trkpt>
      <trkpt lat="42.46371472692994" lon="-7.967613460508677">
        <time>2018-11-30T05:47:17Z</time>
      </trkpt>
      <trkpt lat="42.46366736401683" lon="-7.967261733979675">
        <time>2018-11-30T05:47:17Z</time>
      </trkpt>
      <trkpt lat="42.4636671659395" lon="-7.967219316917722">
        <time>2018-11-30T05:47:17Z</time>
      </trkpt>
      <trkpt lat="42.46363325091707" lon="-7.967037873254058">
        <time>2018-11-30T05:47:17Z</time>
      </trkpt>
      <trkpt lat="42.46350484660251" lon="-7.966782590860564">
        <time>2018-11-30T05:47:17Z</time>
      </trkpt>
      <trkpt lat="42.46348212950253" lon="-7.966742854824343">
        <time>2018-11-30T05:47:17Z</time>
      </trkpt>
      <trkpt lat="42.4633699408248" lon="-7.966545720693473">
        <time>2018-11-30T05:47:17Z</time>
      </trkpt>
      <trkpt lat="42.46334839791227" lon="-7.966506327731291">
        <time>2018-11-30T05:47:17Z</time>
      </trkpt>
      <trkpt lat="42.46328440412483" lon="-7.966319521938557">
        <time>2018-11-30T05:47:17Z</time>
      </trkpt>
      <trkpt lat="42.46327370050118" lon="-7.966293164922357">
        <time>2018-11-30T05:47:17Z</time>
      </trkpt>
      <trkpt lat="42.46319508768495" lon="-7.966084340048933">
        <time>2018-11-30T05:47:17Z</time>
      </trkpt>
      <trkpt lat="42.46317299348555" lon="-7.966046516200461">
        <time>2018-11-30T05:47:17Z</time>
      </trkpt>
      <trkpt lat="42.46307784985262" lon="-7.965786952365664">
        <time>2018-11-30T05:47:17Z</time>
      </trkpt>
      <trkpt lat="42.46299460605907" lon="-7.965609687775458">
        <time>2018-11-30T05:47:17Z</time>
      </trkpt>
      <trkpt lat="42.46298406567723" lon="-7.965611507379705">
        <time>2018-11-30T05:47:17Z</time>
      </trkpt>
      <trkpt lat="42.4629542633901" lon="-7.965453365940372">
        <time>2018-11-30T05:47:17Z</time>
      </trkpt>
      <trkpt lat="42.4629341322873" lon="-7.965389006637384">
        <time>2018-11-30T05:47:17Z</time>
      </trkpt>
      <trkpt lat="42.46293420461011" lon="-7.965361921385963">
        <time>2018-11-30T05:47:17Z</time>
      </trkpt>
      <trkpt lat="42.46290396891328" lon="-7.965191601001667">
        <time>2018-11-30T05:47:17Z</time>
      </trkpt>
      <trkpt lat="42.46290415527854" lon="-7.965137481359369">
        <time>2018-11-30T05:47:17Z</time>
      </trkpt>
      <trkpt lat="42.46288526729881" lon="-7.964991813146267">
        <time>2018-11-30T05:47:17Z</time>
      </trkpt>
      <trkpt lat="42.46279073731436" lon="-7.964764318223407">
        <time>2018-11-30T05:47:17Z</time>
      </trkpt>
      <trkpt lat="42.46279621614016" lon="-7.964597746744218">
        <time>2018-11-30T05:47:17Z</time>
      </trkpt>
      <trkpt lat="42.46269741349401" lon="-7.964435542046624">
        <time>2018-11-30T05:47:17Z</time>
      </trkpt>
      <trkpt lat="42.46266961752163" lon="-7.964162730370155">
        <time>2018-11-30T05:47:17Z</time>
      </trkpt>
      <trkpt lat="42.46261239710295" lon="-7.963647567061952">
        <time>2018-11-30T05:47:17Z</time>
      </trkpt>
      <trkpt lat="42.46259246202451" lon="-7.963511208894365">
        <time>2018-11-30T05:47:17Z</time>
      </trkpt>
      <trkpt lat="42.46256746533528" lon="-7.963224105978553">
        <time>2018-11-30T05:47:17Z</time>
      </trkpt>
      <trkpt lat="42.46257373660925" lon="-7.962936944063457">
        <time>2018-11-30T05:47:17Z</time>
      </trkpt>
      <trkpt lat="42.46243221095117" lon="-7.962485708587892">
        <time>2018-11-30T05:47:17Z</time>
      </trkpt>
      <trkpt lat="42.46239618936404" lon="-7.96230644611043">
        <time>2018-11-30T05:47:17Z</time>
      </trkpt>
      <trkpt lat="42.46228208095346" lon="-7.96207358661973">
        <time>2018-11-30T05:47:17Z</time>
      </trkpt>
      <trkpt lat="42.4622667121165" lon="-7.961955858818392">
        <time>2018-11-30T05:47:17Z</time>
      </trkpt>
      <trkpt lat="42.46224037136908" lon="-7.961661022808157">
        <time>2018-11-30T05:47:17Z</time>
      </trkpt>
      <trkpt lat="42.46223968525605" lon="-7.961512966294967">
        <time>2018-11-30T05:47:17Z</time>
      </trkpt>
      <trkpt lat="42.46224135963387" lon="-7.961364231041853">
        <time>2018-11-30T05:47:17Z</time>
      </trkpt>
      <trkpt lat="42.46240890194859" lon="-7.961260847874576">
        <time>2018-11-30T05:47:17Z</time>
      </trkpt>
      <trkpt lat="42.46254174931613" lon="-7.96115924306487">
        <time>2018-11-30T05:47:17Z</time>
      </trkpt>
      <trkpt lat="42.46256610744901" lon="-7.961141987671266">
        <time>2018-11-30T05:47:17Z</time>
      </trkpt>
      <trkpt lat="42.46269241135648" lon="-7.96099310235684">
        <time>2018-11-30T05:47:17Z</time>
      </trkpt>
      <trkpt lat="42.46289974634081" lon="-7.960878969057827">
        <time>2018-11-30T05:47:17Z</time>
      </trkpt>
      <trkpt lat="42.46306524311277" lon="-7.960815675305638">
        <time>2018-11-30T05:47:17Z</time>
      </trkpt>
      <trkpt lat="42.46319058643832" lon="-7.960756854344446">
        <time>2018-11-30T05:47:17Z</time>
      </trkpt>
      <trkpt lat="42.46326392890042" lon="-7.96068441477901">
        <time>2018-11-30T05:47:17Z</time>
      </trkpt>
      <trkpt lat="42.46347001009853" lon="-7.960513990858025">
        <time>2018-11-30T05:47:17Z</time>
      </trkpt>
      <trkpt lat="42.46370989696917" lon="-7.960390894744092">
        <time>2018-11-30T05:47:17Z</time>
      </trkpt>
      <trkpt lat="42.46373891564101" lon="-7.960386961051791">
        <time>2018-11-30T05:47:17Z</time>
      </trkpt>
      <trkpt lat="42.46396215562403" lon="-7.960258562542347">
        <time>2018-11-30T05:47:17Z</time>
      </trkpt>
      <trkpt lat="42.46410432080876" lon="-7.960105711610045">
        <time>2018-11-30T05:47:17Z</time>
      </trkpt>
      <trkpt lat="42.46422415278347" lon="-7.959940134201201">
        <time>2018-11-30T05:47:17Z</time>
      </trkpt>
      <trkpt lat="42.46429490906994" lon="-7.959814984840876">
        <time>2018-11-30T05:47:17Z</time>
      </trkpt>
      <trkpt lat="42.46435884560161" lon="-7.959604963693803">
        <time>2018-11-30T05:47:17Z</time>
      </trkpt>
      <trkpt lat="42.46435993942793" lon="-7.959587863132946">
        <time>2018-11-30T05:47:17Z</time>
      </trkpt>
      <trkpt lat="42.46451583163366" lon="-7.959443982106103">
        <time>2018-11-30T05:47:17Z</time>
      </trkpt>
      <trkpt lat="42.46466885283431" lon="-7.959008694473424">
        <time>2018-11-30T05:47:17Z</time>
      </trkpt>
      <trkpt lat="42.46466239108352" lon="-7.958804304065026">
        <time>2018-11-30T05:47:17Z</time>
      </trkpt>
      <trkpt lat="42.46454909624785" lon="-7.958627321154589">
        <time>2018-11-30T05:47:17Z</time>
      </trkpt>
      <trkpt lat="42.46453466907846" lon="-7.958596453428713">
        <time>2018-11-30T05:47:17Z</time>
      </trkpt>
      <trkpt lat="42.46445998177441" lon="-7.958277310416166">
        <time>2018-11-30T05:47:17Z</time>
      </trkpt>
      <trkpt lat="42.46444052709284" lon="-7.95793299846072">
        <time>2018-11-30T05:47:17Z</time>
      </trkpt>
      <trkpt lat="42.46458700999342" lon="-7.957782418555315">
        <time>2018-11-30T05:47:17Z</time>
      </trkpt>
      <trkpt lat="42.46457062853455" lon="-7.957307655751505">
        <time>2018-11-30T05:47:17Z</time>
      </trkpt>
      <trkpt lat="42.46460095636019" lon="-7.956963858291174">
        <time>2018-11-30T05:47:17Z</time>
      </trkpt>
      <trkpt lat="42.46467161525068" lon="-7.956711051473584">
        <time>2018-11-30T05:47:17Z</time>
      </trkpt>
      <trkpt lat="42.46486847297462" lon="-7.95670607066294">
        <time>2018-11-30T05:47:17Z</time>
      </trkpt>
      <trkpt lat="42.4649148723133" lon="-7.956692752137158">
        <time>2018-11-30T05:47:17Z</time>
      </trkpt>
      <trkpt lat="42.46511997477109" lon="-7.956745523905124">
        <time>2018-11-30T05:47:17Z</time>
      </trkpt>
      <trkpt lat="42.46522185499791" lon="-7.956782792134206">
        <time>2018-11-30T05:47:17Z</time>
      </trkpt>
      <trkpt lat="42.46535906091479" lon="-7.95679266339998">
        <time>2018-11-30T05:47:17Z</time>
      </trkpt>
      <trkpt lat="42.46549729567397" lon="-7.956855937726429">
        <time>2018-11-30T05:47:17Z</time>
      </trkpt>
      <trkpt lat="42.46565368109168" lon="-7.956845230575633">
        <time>2018-11-30T05:47:17Z</time>
      </trkpt>
      <trkpt lat="42.46572272965342" lon="-7.956860985126138">
        <time>2018-11-30T05:47:17Z</time>
      </trkpt>
      <trkpt lat="42.46586075125244" lon="-7.956875963180185">
        <time>2018-11-30T05:47:17Z</time>
      </trkpt>
      <trkpt lat="42.46621439351874" lon="-7.956723345658574">
        <time>2018-11-30T05:47:17Z</time>
      </trkpt>
      <trkpt lat="42.46646499085566" lon="-7.956647425532388">
        <time>2018-11-30T05:47:17Z</time>
      </trkpt>
      <trkpt lat="42.46666428836903" lon="-7.956456449958544">
        <time>2018-11-30T05:47:17Z</time>
      </trkpt>
      <trkpt lat="42.46670291521639" lon="-7.956444962789488">
        <time>2018-11-30T05:47:17Z</time>
      </trkpt>
      <trkpt lat="42.4667814856058" lon="-7.956383979022511">
        <time>2018-11-30T05:47:17Z</time>
      </trkpt>
      <trkpt lat="42.46704460399904" lon="-7.956291305503033">
        <time>2018-11-30T05:47:17Z</time>
      </trkpt>
      <trkpt lat="42.46719559645117" lon="-7.956211671529258">
        <time>2018-11-30T05:47:17Z</time>
      </trkpt>
      <trkpt lat="42.46722798147346" lon="-7.955907088754835">
        <time>2018-11-30T05:47:17Z</time>
      </trkpt>
      <trkpt lat="42.46737702477024" lon="-7.955375965897761">
        <time>2018-11-30T05:47:17Z</time>
      </trkpt>
      <trkpt lat="42.46754306205474" lon="-7.955086826698818">
        <time>2018-11-30T05:47:17Z</time>
      </trkpt>
      <trkpt lat="42.46773947001194" lon="-7.954890149335483">
        <time>2018-11-30T05:47:17Z</time>
      </trkpt>
      <trkpt lat="42.46783946977136" lon="-7.954692081763738">
        <time>2018-11-30T05:47:17Z</time>
      </trkpt>
      <trkpt lat="42.46782146987352" lon="-7.95465320126069">
        <time>2018-11-30T05:47:17Z</time>
      </trkpt>
      <trkpt lat="42.46763747980537" lon="-7.954365915640658">
        <time>2018-11-30T05:47:17Z</time>
      </trkpt>
      <trkpt lat="42.46758597208751" lon="-7.954310166334936">
        <time>2018-11-30T05:47:17Z</time>
      </trkpt>
      <trkpt lat="42.46750748247042" lon="-7.954101724472205">
        <time>2018-11-30T05:47:17Z</time>
      </trkpt>
      <trkpt lat="42.46741282754893" lon="-7.953780448890617">
        <time>2018-11-30T05:47:17Z</time>
      </trkpt>
      <trkpt lat="42.46738922542286" lon="-7.953705427192803">
        <time>2018-11-30T05:47:17Z</time>
      </trkpt>
      <trkpt lat="42.46734454711313" lon="-7.953670488053532">
        <time>2018-11-30T05:47:17Z</time>
      </trkpt>
      <trkpt lat="42.46717926892568" lon="-7.953418233010227">
        <time>2018-11-30T05:47:17Z</time>
      </trkpt>
      <trkpt lat="42.46717608184721" lon="-7.953304897989519">
        <time>2018-11-30T05:47:17Z</time>
      </trkpt>
      <trkpt lat="42.46713435002437" lon="-7.953045906634127">
        <time>2018-11-30T05:47:17Z</time>
      </trkpt>
      <trkpt lat="42.46705467734061" lon="-7.952754840623635">
        <time>2018-11-30T05:47:17Z</time>
      </trkpt>
      <trkpt lat="42.46705220378833" lon="-7.952717801600685">
        <time>2018-11-30T05:47:17Z</time>
      </trkpt>
      <trkpt lat="42.46712127437576" lon="-7.95252260033867">
        <time>2018-11-30T05:47:17Z</time>
      </trkpt>
      <trkpt lat="42.46713604400241" lon="-7.952446029524781">
        <time>2018-11-30T05:47:17Z</time>
      </trkpt>
      <trkpt lat="42.46717408964467" lon="-7.952161212210228">
        <time>2018-11-30T05:47:17Z</time>
      </trkpt>
      <trkpt lat="42.46720519741928" lon="-7.951912550804052">
        <time>2018-11-30T05:47:17Z</time>
      </trkpt>
      <trkpt lat="42.46720062527436" lon="-7.951577862667447">
        <time>2018-11-30T05:47:17Z</time>
      </trkpt>
      <trkpt lat="42.46722695110599" lon="-7.951297320805416">
        <time>2018-11-30T05:47:17Z</time>
      </trkpt>
      <trkpt lat="42.4672219094364" lon="-7.951261589484564">
        <time>2018-11-30T05:47:17Z</time>
      </trkpt>
      <trkpt lat="42.46728718801995" lon="-7.95095080384524">
        <time>2018-11-30T05:47:17Z</time>
      </trkpt>
      <trkpt lat="42.46734697729152" lon="-7.95086369388067">
        <time>2018-11-30T05:47:17Z</time>
      </trkpt>
      <trkpt lat="42.4673621586681" lon="-7.9508050550467">
        <time>2018-11-30T05:47:17Z</time>
      </trkpt>
      <trkpt lat="42.46747796283889" lon="-7.950631257075315">
        <time>2018-11-30T05:47:17Z</time>
      </trkpt>
      <trkpt lat="42.46753996479948" lon="-7.950580254965701">
        <time>2018-11-30T05:47:17Z</time>
      </trkpt>
      <trkpt lat="42.46779468413308" lon="-7.950338509006859">
        <time>2018-11-30T05:47:17Z</time>
      </trkpt>
      <trkpt lat="42.46803326387519" lon="-7.950082437099151">
        <time>2018-11-30T05:47:17Z</time>
      </trkpt>
      <trkpt lat="42.46823996142664" lon="-7.949920839353476">
        <time>2018-11-30T05:47:17Z</time>
      </trkpt>
      <trkpt lat="42.46827445928985" lon="-7.949856335558011">
        <time>2018-11-30T05:47:17Z</time>
      </trkpt>
      <trkpt lat="42.46848433928236" lon="-7.949612400666944">
        <time>2018-11-30T05:47:17Z</time>
      </trkpt>
      <trkpt lat="42.46861460583222" lon="-7.94938301410454">
        <time>2018-11-30T05:47:17Z</time>
      </trkpt>
      <trkpt lat="42.46863336229527" lon="-7.949319559305504">
        <time>2018-11-30T05:47:17Z</time>
      </trkpt>
      <trkpt lat="42.46867496981065" lon="-7.949230223319257">
        <time>2018-11-30T05:47:17Z</time>
      </trkpt>
      <trkpt lat="42.46872921810503" lon="-7.949020168379693">
        <time>2018-11-30T05:47:17Z</time>
      </trkpt>
      <trkpt lat="42.46857693818124" lon="-7.948731167870959">
        <time>2018-11-30T05:47:17Z</time>
      </trkpt>
      <trkpt lat="42.46834367920408" lon="-7.948474199152875">
        <time>2018-11-30T05:47:17Z</time>
      </trkpt>
      <trkpt lat="42.46827124233214" lon="-7.94830423216601">
        <time>2018-11-30T05:47:17Z</time>
      </trkpt>
      <trkpt lat="42.46821735664074" lon="-7.948212034831403">
        <time>2018-11-30T05:47:17Z</time>
      </trkpt>
      <trkpt lat="42.4682116696155" lon="-7.94815470353935">
        <time>2018-11-30T05:47:17Z</time>
      </trkpt>
      <trkpt lat="42.4681517354079" lon="-7.94800631305403">
        <time>2018-11-30T05:47:17Z</time>
      </trkpt>
      <trkpt lat="42.46804504753427" lon="-7.947823063433423">
        <time>2018-11-30T05:47:17Z</time>
      </trkpt>
      <trkpt lat="42.46798495014508" lon="-7.947578519969044">
        <time>2018-11-30T05:47:17Z</time>
      </trkpt>
      <trkpt lat="42.46798966092506" lon="-7.947384995104891">
        <time>2018-11-30T05:47:17Z</time>
      </trkpt>
      <trkpt lat="42.46794061640954" lon="-7.947314891038139">
        <time>2018-11-30T05:47:17Z</time>
      </trkpt>
      <trkpt lat="42.46791165298667" lon="-7.947032051659541">
        <time>2018-11-30T05:47:17Z</time>
      </trkpt>
      <trkpt lat="42.46787687597696" lon="-7.946713767446505">
        <time>2018-11-30T05:47:17Z</time>
      </trkpt>
      <trkpt lat="42.46785538479301" lon="-7.94667882907423">
        <time>2018-11-30T05:47:17Z</time>
      </trkpt>
      <trkpt lat="42.46785366898423" lon="-7.946583891059809">
        <time>2018-11-30T05:47:17Z</time>
      </trkpt>
      <trkpt lat="42.46783311508143" lon="-7.946300769384326">
        <time>2018-11-30T05:47:17Z</time>
      </trkpt>
      <trkpt lat="42.46783279128014" lon="-7.946262725543218">
        <time>2018-11-30T05:47:17Z</time>
      </trkpt>
      <trkpt lat="42.46783110051393" lon="-7.946015337238917">
        <time>2018-11-30T05:47:17Z</time>
      </trkpt>
      <trkpt lat="42.46781067952626" lon="-7.945942651758432">
        <time>2018-11-30T05:47:17Z</time>
      </trkpt>
      <trkpt lat="42.4677827033499" lon="-7.945587686401295">
        <time>2018-11-30T05:47:17Z</time>
      </trkpt>
      <trkpt lat="42.46778089113717" lon="-7.945341125379745">
        <time>2018-11-30T05:47:17Z</time>
      </trkpt>
      <trkpt lat="42.46774118290121" lon="-7.944988093242871">
        <time>2018-11-30T05:47:17Z</time>
      </trkpt>
      <trkpt lat="42.4677387814551" lon="-7.944818356199979">
        <time>2018-11-30T05:47:17Z</time>
      </trkpt>
      <trkpt lat="42.46773753156748" lon="-7.944610130724447">
        <time>2018-11-30T05:47:17Z</time>
      </trkpt>
      <trkpt lat="42.46773839347097" lon="-7.944571706154852">
        <time>2018-11-30T05:47:17Z</time>
      </trkpt>
      <trkpt lat="42.46774233557506" lon="-7.944284716444635">
        <time>2018-11-30T05:47:17Z</time>
      </trkpt>
      <trkpt lat="42.46776198900103" lon="-7.944070908967432">
        <time>2018-11-30T05:47:17Z</time>
      </trkpt>
      <trkpt lat="42.46776465492695" lon="-7.943765159206353">
        <time>2018-11-30T05:47:17Z</time>
      </trkpt>
      <trkpt lat="42.46789363532069" lon="-7.943395975715015">
        <time>2018-11-30T05:47:17Z</time>
      </trkpt>
      <trkpt lat="42.46817951338875" lon="-7.943289918857769">
        <time>2018-11-30T05:47:17Z</time>
      </trkpt>
      <trkpt lat="42.46847501184796" lon="-7.943160125165034">
        <time>2018-11-30T05:47:17Z</time>
      </trkpt>
      <trkpt lat="42.46859641747474" lon="-7.943101256699164">
        <time>2018-11-30T05:47:17Z</time>
      </trkpt>
      <trkpt lat="42.46882858429971" lon="-7.94293065699526">
        <time>2018-11-30T05:47:17Z</time>
      </trkpt>
      <trkpt lat="42.46905901735579" lon="-7.942591871525542">
        <time>2018-11-30T05:47:17Z</time>
      </trkpt>
      <trkpt lat="42.46915551585848" lon="-7.942419007432003">
        <time>2018-11-30T05:47:17Z</time>
      </trkpt>
      <trkpt lat="42.46931706880423" lon="-7.942226171600769">
        <time>2018-11-30T05:47:17Z</time>
      </trkpt>
      <trkpt lat="42.4694214839863" lon="-7.942107558435839">
        <time>2018-11-30T05:47:17Z</time>
      </trkpt>
      <trkpt lat="42.46960688825389" lon="-7.941938402629677">
        <time>2018-11-30T05:47:17Z</time>
      </trkpt>
      <trkpt lat="42.4699290376029" lon="-7.941705701482515">
        <time>2018-11-30T05:47:17Z</time>
      </trkpt>
      <trkpt lat="42.47043858973365" lon="-7.94137685543773">
        <time>2018-11-30T05:47:17Z</time>
      </trkpt>
      <trkpt lat="42.47060837891053" lon="-7.940961815102931">
        <time>2018-11-30T05:47:17Z</time>
      </trkpt>
      <trkpt lat="42.4706132510396" lon="-7.940915388955934">
        <time>2018-11-30T05:47:17Z</time>
      </trkpt>
      <trkpt lat="42.47061153377559" lon="-7.940627508282994">
        <time>2018-11-30T05:47:17Z</time>
      </trkpt>
      <trkpt lat="42.47066474567727" lon="-7.940385441922217">
        <time>2018-11-30T05:47:17Z</time>
      </trkpt>
      <trkpt lat="42.47064078805284" lon="-7.93982328635686">
        <time>2018-11-30T05:47:17Z</time>
      </trkpt>
      <trkpt lat="42.47062818212486" lon="-7.939563906448008">
        <time>2018-11-30T05:47:17Z</time>
      </trkpt>
      <trkpt lat="42.47062910024655" lon="-7.939520505980458">
        <time>2018-11-30T05:47:17Z</time>
      </trkpt>
      <trkpt lat="42.47059902145341" lon="-7.939194557718208">
        <time>2018-11-30T05:47:17Z</time>
      </trkpt>
      <trkpt lat="42.4705850326449" lon="-7.939086709058445">
        <time>2018-11-30T05:47:17Z</time>
      </trkpt>
      <trkpt lat="42.47069815430952" lon="-7.938722064262977">
        <time>2018-11-30T05:47:17Z</time>
      </trkpt>
      <trkpt lat="42.47070156307713" lon="-7.938655965174414">
        <time>2018-11-30T05:47:17Z</time>
      </trkpt>
      <trkpt lat="42.47086917049018" lon="-7.938344862019436">
        <time>2018-11-30T05:47:17Z</time>
      </trkpt>
      <trkpt lat="42.47094118761547" lon="-7.938244275772255">
        <time>2018-11-30T05:47:17Z</time>
      </trkpt>
      <trkpt lat="42.47107724501013" lon="-7.938110170768953">
        <time>2018-11-30T05:47:17Z</time>
      </trkpt>
      <trkpt lat="42.47126028062232" lon="-7.93785340880786">
        <time>2018-11-30T05:47:17Z</time>
      </trkpt>
      <trkpt lat="42.47129464850594" lon="-7.937779978644381">
        <time>2018-11-30T05:47:17Z</time>
      </trkpt>
      <trkpt lat="42.471452347549" lon="-7.93750457778839">
        <time>2018-11-30T05:47:17Z</time>
      </trkpt>
      <trkpt lat="42.47163986877537" lon="-7.93703938676245">
        <time>2018-11-30T05:47:17Z</time>
      </trkpt>
      <trkpt lat="42.47182445139547" lon="-7.936820375441771">
        <time>2018-11-30T05:47:17Z</time>
      </trkpt>
      <trkpt lat="42.47189214027458" lon="-7.936622559083167">
        <time>2018-11-30T05:47:17Z</time>
      </trkpt>
      <trkpt lat="42.47209859039871" lon="-7.936299005614871">
        <time>2018-11-30T05:47:17Z</time>
      </trkpt>
      <trkpt lat="42.47213578271276" lon="-7.936220464877247">
        <time>2018-11-30T05:47:17Z</time>
      </trkpt>
      <trkpt lat="42.47258680371377" lon="-7.936142779957799">
        <time>2018-11-30T05:47:17Z</time>
      </trkpt>
      <trkpt lat="42.47294729458602" lon="-7.936033792887001">
        <time>2018-11-30T05:47:17Z</time>
      </trkpt>
      <trkpt lat="42.47302055305618" lon="-7.93601643670457">
        <time>2018-11-30T05:47:17Z</time>
      </trkpt>
      <trkpt lat="42.47343660337813" lon="-7.935965734787414">
        <time>2018-11-30T05:47:17Z</time>
      </trkpt>
      <trkpt lat="42.47357627810035" lon="-7.935826723140341">
        <time>2018-11-30T05:47:17Z</time>
      </trkpt>
      <trkpt lat="42.47377106299023" lon="-7.935374587251174">
        <time>2018-11-30T05:47:17Z</time>
      </trkpt>
      <trkpt lat="42.47381284380635" lon="-7.935233020656126">
        <time>2018-11-30T05:47:17Z</time>
      </trkpt>
      <trkpt lat="42.47394666979394" lon="-7.935011885898751">
        <time>2018-11-30T05:47:17Z</time>
      </trkpt>
      <trkpt lat="42.47401339541473" lon="-7.934925230252103">
        <time>2018-11-30T05:47:17Z</time>
      </trkpt>
      <trkpt lat="42.47405666554388" lon="-7.934782229625582">
        <time>2018-11-30T05:47:17Z</time>
      </trkpt>
      <trkpt lat="42.47405620462845" lon="-7.934731476629786">
        <time>2018-11-30T05:47:17Z</time>
      </trkpt>
      <trkpt lat="42.47407822658477" lon="-7.93455896466795">
        <time>2018-11-30T05:47:17Z</time>
      </trkpt>
      <trkpt lat="42.47412207106792" lon="-7.934061206027845">
        <time>2018-11-30T05:47:17Z</time>
      </trkpt>
      <trkpt lat="42.47412264085941" lon="-7.933580913965903">
        <time>2018-11-30T05:47:17Z</time>
      </trkpt>
      <trkpt lat="42.47411502540957" lon="-7.933071866777991">
        <time>2018-11-30T05:47:17Z</time>
      </trkpt>
      <trkpt lat="42.47411452302924" lon="-7.93281895698843">
        <time>2018-11-30T05:47:17Z</time>
      </trkpt>
      <trkpt lat="42.47418093463497" lon="-7.932463315637362">
        <time>2018-11-30T05:47:17Z</time>
      </trkpt>
      <trkpt lat="42.47436448793942" lon="-7.931942661553425">
        <time>2018-11-30T05:47:17Z</time>
      </trkpt>
      <trkpt lat="42.47461729380978" lon="-7.931588550785627">
        <time>2018-11-30T05:47:17Z</time>
      </trkpt>
      <trkpt lat="42.4748357485915" lon="-7.931284479942612">
        <time>2018-11-30T05:47:17Z</time>
      </trkpt>
      <trkpt lat="42.47485539920687" lon="-7.93124509375604">
        <time>2018-11-30T05:47:17Z</time>
      </trkpt>
      <trkpt lat="42.47499830043346" lon="-7.931028197184067">
        <time>2018-11-30T05:47:17Z</time>
      </trkpt>
      <trkpt lat="42.47503590633923" lon="-7.930989770086942">
        <time>2018-11-30T05:47:17Z</time>
      </trkpt>
      <trkpt lat="42.47524874892038" lon="-7.930717061548731">
        <time>2018-11-30T05:47:17Z</time>
      </trkpt>
      <trkpt lat="42.47526859621966" lon="-7.930211599883168">
        <time>2018-11-30T05:47:17Z</time>
      </trkpt>
      <trkpt lat="42.4753807154954" lon="-7.929965234191591">
        <time>2018-11-30T05:47:17Z</time>
      </trkpt>
      <trkpt lat="42.47546092869273" lon="-7.929905640579087">
        <time>2018-11-30T05:47:17Z</time>
      </trkpt>
      <trkpt lat="42.47576648475025" lon="-7.929727390497891">
        <time>2018-11-30T05:47:17Z</time>
      </trkpt>
      <trkpt lat="42.47596551923274" lon="-7.929389321334018">
        <time>2018-11-30T05:47:17Z</time>
      </trkpt>
      <trkpt lat="42.47604763202433" lon="-7.929086641500151">
        <time>2018-11-30T05:47:17Z</time>
      </trkpt>
      <trkpt lat="42.47609383412458" lon="-7.929043990228606">
        <time>2018-11-30T05:47:17Z</time>
      </trkpt>
      <trkpt lat="42.47620624309445" lon="-7.928892613062724">
        <time>2018-11-30T05:47:17Z</time>
      </trkpt>
      <trkpt lat="42.47630973473001" lon="-7.928695661093141">
        <time>2018-11-30T05:47:17Z</time>
      </trkpt>
      <trkpt lat="42.47642936031539" lon="-7.928497271424627">
        <time>2018-11-30T05:47:17Z</time>
      </trkpt>
      <trkpt lat="42.47660870322778" lon="-7.928141293914628">
        <time>2018-11-30T05:47:17Z</time>
      </trkpt>
      <trkpt lat="42.47675628176688" lon="-7.927982811676555">
        <time>2018-11-30T05:47:17Z</time>
      </trkpt>
      <trkpt lat="42.47694621309427" lon="-7.927844279763534">
        <time>2018-11-30T05:47:17Z</time>
      </trkpt>
      <trkpt lat="42.47737729561408" lon="-7.927787499524175">
        <time>2018-11-30T05:47:17Z</time>
      </trkpt>
      <trkpt lat="42.47740281549113" lon="-7.927786697079423">
        <time>2018-11-30T05:47:17Z</time>
      </trkpt>
      <trkpt lat="42.47765354017251" lon="-7.927756009350775">
        <time>2018-11-30T05:47:17Z</time>
      </trkpt>
      <trkpt lat="42.47772512752751" lon="-7.927707679156418">
        <time>2018-11-30T05:47:17Z</time>
      </trkpt>
      <trkpt lat="42.47815890089755" lon="-7.927458445610487">
        <time>2018-11-30T05:47:17Z</time>
      </trkpt>
      <trkpt lat="42.47841693562393" lon="-7.927281837486442">
        <time>2018-11-30T05:47:17Z</time>
      </trkpt>
      <trkpt lat="42.47865199263074" lon="-7.927079475272446">
        <time>2018-11-30T05:47:17Z</time>
      </trkpt>
      <trkpt lat="42.47873208091149" lon="-7.92700315136675">
        <time>2018-11-30T05:47:17Z</time>
      </trkpt>
      <trkpt lat="42.47892199281557" lon="-7.926871511433906">
        <time>2018-11-30T05:47:17Z</time>
      </trkpt>
      <trkpt lat="42.479316167027" lon="-7.926626290981433">
        <time>2018-11-30T05:47:17Z</time>
      </trkpt>
      <trkpt lat="42.47944693475618" lon="-7.926347169886875">
        <time>2018-11-30T05:47:17Z</time>
      </trkpt>
      <trkpt lat="42.47942243491517" lon="-7.926176498874941">
        <time>2018-11-30T05:47:17Z</time>
      </trkpt>
      <trkpt lat="42.47923375617887" lon="-7.925803525672938">
        <time>2018-11-30T05:47:17Z</time>
      </trkpt>
      <trkpt lat="42.47919855865615" lon="-7.925759020191069">
        <time>2018-11-30T05:47:17Z</time>
      </trkpt>
      <trkpt lat="42.47894084152432" lon="-7.925592691557933">
        <time>2018-11-30T05:47:17Z</time>
      </trkpt>
      <trkpt lat="42.47864212268541" lon="-7.925549796809859">
        <time>2018-11-30T05:47:17Z</time>
      </trkpt>
      <trkpt lat="42.47857158165598" lon="-7.92553246152587">
        <time>2018-11-30T05:47:17Z</time>
      </trkpt>
      <trkpt lat="42.47832410637187" lon="-7.925534063990702">
        <time>2018-11-30T05:47:17Z</time>
      </trkpt>
      <trkpt lat="42.47813482755016" lon="-7.925435106365667">
        <time>2018-11-30T05:47:17Z</time>
      </trkpt>
      <trkpt lat="42.47795965091606" lon="-7.925337969213455">
        <time>2018-11-30T05:47:17Z</time>
      </trkpt>
      <trkpt lat="42.47780688137861" lon="-7.925026989913285">
        <time>2018-11-30T05:47:17Z</time>
      </trkpt>
      <trkpt lat="42.47740625141413" lon="-7.924704925553902">
        <time>2018-11-30T05:47:17Z</time>
      </trkpt>
      <trkpt lat="42.47726756973499" lon="-7.924444662446857">
        <time>2018-11-30T05:47:17Z</time>
      </trkpt>
      <trkpt lat="42.47724334970733" lon="-7.924448476221283">
        <time>2018-11-30T05:47:17Z</time>
      </trkpt>
      <trkpt lat="42.47710436474027" lon="-7.92435551332871">
        <time>2018-11-30T05:47:17Z</time>
      </trkpt>
      <trkpt lat="42.47690201186816" lon="-7.924272876335051">
        <time>2018-11-30T05:47:17Z</time>
      </trkpt>
      <trkpt lat="42.47643897317283" lon="-7.923894538635902">
        <time>2018-11-30T05:47:17Z</time>
      </trkpt>
      <trkpt lat="42.47599231714484" lon="-7.92370176974757">
        <time>2018-11-30T05:47:17Z</time>
      </trkpt>
      <trkpt lat="42.47594761060796" lon="-7.923551157909868">
        <time>2018-11-30T05:47:17Z</time>
      </trkpt>
      <trkpt lat="42.4758196765353" lon="-7.92308964102409">
        <time>2018-11-30T05:47:17Z</time>
      </trkpt>
      <trkpt lat="42.47558673494582" lon="-7.922721293555044">
        <time>2018-11-30T05:47:17Z</time>
      </trkpt>
      <trkpt lat="42.47526270713595" lon="-7.922643597113374">
        <time>2018-11-30T05:47:17Z</time>
      </trkpt>
      <trkpt lat="42.47522006945666" lon="-7.92263306415291">
        <time>2018-11-30T05:47:17Z</time>
      </trkpt>
      <trkpt lat="42.47487938245372" lon="-7.922574593295874">
        <time>2018-11-30T05:47:17Z</time>
      </trkpt>
      <trkpt lat="42.47477509283326" lon="-7.922602357455746">
        <time>2018-11-30T05:47:17Z</time>
      </trkpt>
      <trkpt lat="42.47449373692464" lon="-7.922666450029063">
        <time>2018-11-30T05:47:17Z</time>
      </trkpt>
      <trkpt lat="42.47426331702123" lon="-7.922539080373271">
        <time>2018-11-30T05:47:17Z</time>
      </trkpt>
      <trkpt lat="42.47416049155461" lon="-7.922385675294491">
        <time>2018-11-30T05:47:17Z</time>
      </trkpt>
      <trkpt lat="42.47395460210034" lon="-7.922177367875778">
        <time>2018-11-30T05:47:17Z</time>
      </trkpt>
      <trkpt lat="42.47373973344897" lon="-7.922033269315523">
        <time>2018-11-30T05:47:17Z</time>
      </trkpt>
      <trkpt lat="42.47354290965798" lon="-7.922008737632308">
        <time>2018-11-30T05:47:17Z</time>
      </trkpt>
      <trkpt lat="42.47350755193466" lon="-7.922018679526586">
        <time>2018-11-30T05:47:17Z</time>
      </trkpt>
      <trkpt lat="42.47326159688142" lon="-7.922088686439462">
        <time>2018-11-30T05:47:17Z</time>
      </trkpt>
      <trkpt lat="42.4732089434787" lon="-7.922104049652694">
        <time>2018-11-30T05:47:17Z</time>
      </trkpt>
      <trkpt lat="42.47288828243327" lon="-7.92213533329566">
        <time>2018-11-30T05:47:17Z</time>
      </trkpt>
      <trkpt lat="42.47272562970885" lon="-7.922179295457811">
        <time>2018-11-30T05:47:17Z</time>
      </trkpt>
      <trkpt lat="42.4726932533823" lon="-7.92218812088575">
        <time>2018-11-30T05:47:17Z</time>
      </trkpt>
      <trkpt lat="42.47254866162654" lon="-7.922227534037932">
        <time>2018-11-30T05:47:17Z</time>
      </trkpt>
      <trkpt lat="42.47248497086768" lon="-7.922244895293914">
        <time>2018-11-30T05:47:17Z</time>
      </trkpt>
      <trkpt lat="42.47232588328297" lon="-7.922251550326039">
        <time>2018-11-30T05:47:17Z</time>
      </trkpt>
      <trkpt lat="42.472246197953" lon="-7.922255809199323">
        <time>2018-11-30T05:47:17Z</time>
      </trkpt>
      <trkpt lat="42.47187226357415" lon="-7.922341432692189">
        <time>2018-11-30T05:47:17Z</time>
      </trkpt>
      <trkpt lat="42.47117890791301" lon="-7.922267006682904">
        <time>2018-11-30T05:47:17Z</time>
      </trkpt>
      <trkpt lat="42.47103846668789" lon="-7.922577532411874">
        <time>2018-11-30T05:47:17Z</time>
      </trkpt>
      <trkpt lat="42.47082567060737" lon="-7.922872906513642">
        <time>2018-11-30T05:47:17Z</time>
      </trkpt>
      <trkpt lat="42.47061380451356" lon="-7.923072886869306">
        <time>2018-11-30T05:47:17Z</time>
      </trkpt>
      <trkpt lat="42.46983398383409" lon="-7.923253042014389">
        <time>2018-11-30T05:47:17Z</time>
      </trkpt>
      <trkpt lat="42.46951776589526" lon="-7.923097958325638">
        <time>2018-11-30T05:47:17Z</time>
      </trkpt>
      <trkpt lat="42.4691688937994" lon="-7.922659396618598">
        <time>2018-11-30T05:47:17Z</time>
      </trkpt>
      <trkpt lat="42.46902862055427" lon="-7.922214977185663">
        <time>2018-11-30T05:47:17Z</time>
      </trkpt>
      <trkpt lat="42.4688613092748" lon="-7.922353130777889">
        <time>2018-11-30T05:47:17Z</time>
      </trkpt>
      <trkpt lat="42.46872428319875" lon="-7.922463944618693">
        <time>2018-11-30T05:47:17Z</time>
      </trkpt>
      <trkpt lat="42.46853710366916" lon="-7.92254040061202">
        <time>2018-11-30T05:47:17Z</time>
      </trkpt>
      <trkpt lat="42.46840088577929" lon="-7.92260165430163">
        <time>2018-11-30T05:47:17Z</time>
      </trkpt>
      <trkpt lat="42.4683500450403" lon="-7.922613119882055">
        <time>2018-11-30T05:47:17Z</time>
      </trkpt>
      <trkpt lat="42.46823091841156" lon="-7.922652859234524">
        <time>2018-11-30T05:47:17Z</time>
      </trkpt>
      <trkpt lat="42.46803027429204" lon="-7.922720427849416">
        <time>2018-11-30T05:47:17Z</time>
      </trkpt>
      <trkpt lat="42.46779830056766" lon="-7.922733523560812">
        <time>2018-11-30T05:47:17Z</time>
      </trkpt>
      <trkpt lat="42.4677319403583" lon="-7.922716727219415">
        <time>2018-11-30T05:47:17Z</time>
      </trkpt>
      <trkpt lat="42.46753560977446" lon="-7.92273581867526">
        <time>2018-11-30T05:47:17Z</time>
      </trkpt>
      <trkpt lat="42.46748700507859" lon="-7.922746375240183">
        <time>2018-11-30T05:47:17Z</time>
      </trkpt>
      <trkpt lat="42.46721618437361" lon="-7.92290603616996">
        <time>2018-11-30T05:47:17Z</time>
      </trkpt>
      <trkpt lat="42.46702429676967" lon="-7.922854583364724">
        <time>2018-11-30T05:47:17Z</time>
      </trkpt>
      <trkpt lat="42.46688210957347" lon="-7.922816925742273">
        <time>2018-11-30T05:47:17Z</time>
      </trkpt>
      <trkpt lat="42.46674169019295" lon="-7.922716052408617">
        <time>2018-11-30T05:47:17Z</time>
      </trkpt>
      <trkpt lat="42.46655513406174" lon="-7.922363922875835">
        <time>2018-11-30T05:47:17Z</time>
      </trkpt>
      <trkpt lat="42.46639090302538" lon="-7.922013080901732">
        <time>2018-11-30T05:47:17Z</time>
      </trkpt>
      <trkpt lat="42.4661677439551" lon="-7.921843380403468">
        <time>2018-11-30T05:47:17Z</time>
      </trkpt>
      <trkpt lat="42.4659903066965" lon="-7.92182961146337">
        <time>2018-11-30T05:47:17Z</time>
      </trkpt>
      <trkpt lat="42.4656701120983" lon="-7.921811289199304">
        <time>2018-11-30T05:47:17Z</time>
      </trkpt>
      <trkpt lat="42.46552655203546" lon="-7.921848000678251">
        <time>2018-11-30T05:47:17Z</time>
      </trkpt>
      <trkpt lat="42.46539849318745" lon="-7.921972089327407">
        <time>2018-11-30T05:47:17Z</time>
      </trkpt>
      <trkpt lat="42.46522993814043" lon="-7.922197836005689">
        <time>2018-11-30T05:47:17Z</time>
      </trkpt>
      <trkpt lat="42.46517418742423" lon="-7.922378139309945">
        <time>2018-11-30T05:47:17Z</time>
      </trkpt>
      <trkpt lat="42.46514601998434" lon="-7.922413937406931">
        <time>2018-11-30T05:47:17Z</time>
      </trkpt>
      <trkpt lat="42.46506151638204" lon="-7.922623089597748">
        <time>2018-11-30T05:47:17Z</time>
      </trkpt>
      <trkpt lat="42.46490755280671" lon="-7.922689322877049">
        <time>2018-11-30T05:47:17Z</time>
      </trkpt>
      <trkpt lat="42.46476905678307" lon="-7.922740315543429">
        <time>2018-11-30T05:47:17Z</time>
      </trkpt>
      <trkpt lat="42.46458671383513" lon="-7.922765603182861">
        <time>2018-11-30T05:47:17Z</time>
      </trkpt>
      <trkpt lat="42.46442228794689" lon="-7.922539513447897">
        <time>2018-11-30T05:47:17Z</time>
      </trkpt>
      <trkpt lat="42.46415057933183" lon="-7.921700859201108">
        <time>2018-11-30T05:47:17Z</time>
      </trkpt>
      <trkpt lat="42.46404217584718" lon="-7.921537465766257">
        <time>2018-11-30T05:47:17Z</time>
      </trkpt>
      <trkpt lat="42.46376874914645" lon="-7.921382587772756">
        <time>2018-11-30T05:47:17Z</time>
      </trkpt>
      <trkpt lat="42.46364252333567" lon="-7.921330980454208">
        <time>2018-11-30T05:47:17Z</time>
      </trkpt>
      <trkpt lat="42.4634706879786" lon="-7.921231729368458">
        <time>2018-11-30T05:47:17Z</time>
      </trkpt>
      <trkpt lat="42.46326908500955" lon="-7.921154643439068">
        <time>2018-11-30T05:47:17Z</time>
      </trkpt>
      <trkpt lat="42.46313403706343" lon="-7.921085681951717">
        <time>2018-11-30T05:47:17Z</time>
      </trkpt>
      <trkpt lat="42.46243662343208" lon="-7.920511074122569">
        <time>2018-11-30T05:47:17Z</time>
      </trkpt>
      <trkpt lat="42.4623568295948" lon="-7.920410345899487">
        <time>2018-11-30T05:47:17Z</time>
      </trkpt>
      <trkpt lat="42.46255582129617" lon="-7.920225251284142">
        <time>2018-11-30T05:47:17Z</time>
      </trkpt>
      <trkpt lat="42.46279222683143" lon="-7.920252671370205">
        <time>2018-11-30T05:47:17Z</time>
      </trkpt>
      <trkpt lat="42.46293331615763" lon="-7.920146222145249">
        <time>2018-11-30T05:47:17Z</time>
      </trkpt>
      <trkpt lat="42.46296183491734" lon="-7.92008775287918">
        <time>2018-11-30T05:47:17Z</time>
      </trkpt>
      <trkpt lat="42.46300472943049" lon="-7.920031327962241">
        <time>2018-11-30T05:47:17Z</time>
      </trkpt>
      <trkpt lat="42.46323501354421" lon="-7.919810232571406">
        <time>2018-11-30T05:47:17Z</time>
      </trkpt>
      <trkpt lat="42.4632785489327" lon="-7.919731338732404">
        <time>2018-11-30T05:47:17Z</time>
      </trkpt>
      <trkpt lat="42.46348320785392" lon="-7.919459309602702">
        <time>2018-11-30T05:47:17Z</time>
      </trkpt>
      <trkpt lat="42.46370391265048" lon="-7.919353863909246">
        <time>2018-11-30T05:47:17Z</time>
      </trkpt>
      <trkpt lat="42.4638531824659" lon="-7.919111915312108">
        <time>2018-11-30T05:47:17Z</time>
      </trkpt>
      <trkpt lat="42.46386860154409" lon="-7.919049561532469">
        <time>2018-11-30T05:47:17Z</time>
      </trkpt>
      <trkpt lat="42.46397607447337" lon="-7.918760671411063">
        <time>2018-11-30T05:47:17Z</time>
      </trkpt>
      <trkpt lat="42.46406895525725" lon="-7.918511259576029">
        <time>2018-11-30T05:47:17Z</time>
      </trkpt>
      <trkpt lat="42.46408463208759" lon="-7.918469677956291">
        <time>2018-11-30T05:47:17Z</time>
      </trkpt>
      <trkpt lat="42.46411693304208" lon="-7.918343915881967">
        <time>2018-11-30T05:47:17Z</time>
      </trkpt>
      <trkpt lat="42.46419668799259" lon="-7.918157072869844">
        <time>2018-11-30T05:47:17Z</time>
      </trkpt>
      <trkpt lat="42.4642785458985" lon="-7.917751317166358">
        <time>2018-11-30T05:47:17Z</time>
      </trkpt>
      <trkpt lat="42.46427911003502" lon="-7.917686079148081">
        <time>2018-11-30T05:47:17Z</time>
      </trkpt>
      <trkpt lat="42.46430927628993" lon="-7.917533863899945">
        <time>2018-11-30T05:47:17Z</time>
      </trkpt>
      <trkpt lat="42.46432365156986" lon="-7.917402431969226">
        <time>2018-11-30T05:47:17Z</time>
      </trkpt>
      <trkpt lat="42.46435230361563" lon="-7.917205243066779">
        <time>2018-11-30T05:47:17Z</time>
      </trkpt>
      <trkpt lat="42.46449011067819" lon="-7.91710010455788">
        <time>2018-11-30T05:47:17Z</time>
      </trkpt>
      <trkpt lat="42.46462742306596" lon="-7.916905540996129">
        <time>2018-11-30T05:47:17Z</time>
      </trkpt>
      <trkpt lat="42.46464301691174" lon="-7.916906017840683">
        <time>2018-11-30T05:47:17Z</time>
      </trkpt>
      <trkpt lat="42.46476806784085" lon="-7.916909789333191">
        <time>2018-11-30T05:47:17Z</time>
      </trkpt>
      <trkpt lat="42.46506572909004" lon="-7.916873395970377">
        <time>2018-11-30T05:47:17Z</time>
      </trkpt>
      <trkpt lat="42.46532156398666" lon="-7.91685829844207">
        <time>2018-11-30T05:47:17Z</time>
      </trkpt>
      <trkpt lat="42.46538581409909" lon="-7.916792702735613">
        <time>2018-11-30T05:47:17Z</time>
      </trkpt>
      <trkpt lat="42.465582927958" lon="-7.916663098654016">
        <time>2018-11-30T05:47:17Z</time>
      </trkpt>
      <trkpt lat="42.46584109572535" lon="-7.916329867438645">
        <time>2018-11-30T05:47:17Z</time>
      </trkpt>
      <trkpt lat="42.46590867707938" lon="-7.916239745426262">
        <time>2018-11-30T05:47:17Z</time>
      </trkpt>
      <trkpt lat="42.46594240792558" lon="-7.916194538406625">
        <time>2018-11-30T05:47:17Z</time>
      </trkpt>
      <trkpt lat="42.46609416545671" lon="-7.91605881173779">
        <time>2018-11-30T05:47:17Z</time>
      </trkpt>
      <trkpt lat="42.46611082896941" lon="-7.916058938120675">
        <time>2018-11-30T05:47:17Z</time>
      </trkpt>
      <trkpt lat="42.46624821541683" lon="-7.915922033414803">
        <time>2018-11-30T05:47:17Z</time>
      </trkpt>
      <trkpt lat="42.46626519492593" lon="-7.915922114371124">
        <time>2018-11-30T05:47:17Z</time>
      </trkpt>
      <trkpt lat="42.46645307787885" lon="-7.915807294263953">
        <time>2018-11-30T05:47:17Z</time>
      </trkpt>
      <trkpt lat="42.46682753293868" lon="-7.915714634261361">
        <time>2018-11-30T05:47:17Z</time>
      </trkpt>
      <trkpt lat="42.46686155721272" lon="-7.915644584203458">
        <time>2018-11-30T05:47:17Z</time>
      </trkpt>
      <trkpt lat="42.46715708172069" lon="-7.915479504968086">
        <time>2018-11-30T05:47:17Z</time>
      </trkpt>
      <trkpt lat="42.46719358050019" lon="-7.915432172532634">
        <time>2018-11-30T05:47:17Z</time>
      </trkpt>
      <trkpt lat="42.46742577483496" lon="-7.915312159857088">
        <time>2018-11-30T05:47:17Z</time>
      </trkpt>
      <trkpt lat="42.46750201798644" lon="-7.915287358031834">
        <time>2018-11-30T05:47:17Z</time>
      </trkpt>
      <trkpt lat="42.46780346720327" lon="-7.9151876164751">
        <time>2018-11-30T05:47:17Z</time>
      </trkpt>
      <trkpt lat="42.46784283769621" lon="-7.915138948419285">
        <time>2018-11-30T05:47:17Z</time>
      </trkpt>
      <trkpt lat="42.46846406382171" lon="-7.9149328459039">
        <time>2018-11-30T05:47:17Z</time>
      </trkpt>
      <trkpt lat="42.46886068918939" lon="-7.914825299218053">
        <time>2018-11-30T05:47:17Z</time>
      </trkpt>
      <trkpt lat="42.46933716619693" lon="-7.91473960188932">
        <time>2018-11-30T05:47:17Z</time>
      </trkpt>
      <trkpt lat="42.46935760336884" lon="-7.914689113820264">
        <time>2018-11-30T05:47:17Z</time>
      </trkpt>
      <trkpt lat="42.46961407990752" lon="-7.914507454387408">
        <time>2018-11-30T05:47:17Z</time>
      </trkpt>
      <trkpt lat="42.46979513747958" lon="-7.914552826507689">
        <time>2018-11-30T05:47:17Z</time>
      </trkpt>
      <trkpt lat="42.46993446742518" lon="-7.914802328921988">
        <time>2018-11-30T05:47:17Z</time>
      </trkpt>
      <trkpt lat="42.47015479477904" lon="-7.915179234655492">
        <time>2018-11-30T05:47:17Z</time>
      </trkpt>
      <trkpt lat="42.47029941909782" lon="-7.915330362026439">
        <time>2018-11-30T05:47:17Z</time>
      </trkpt>
      <trkpt lat="42.47067552861655" lon="-7.915275496486128">
        <time>2018-11-30T05:47:17Z</time>
      </trkpt>
      <trkpt lat="42.47088967272111" lon="-7.915169813404762">
        <time>2018-11-30T05:47:17Z</time>
      </trkpt>
      <trkpt lat="42.47095762892884" lon="-7.915065178775781">
        <time>2018-11-30T05:47:17Z</time>
      </trkpt>
      <trkpt lat="42.47115224372999" lon="-7.914854112279">
        <time>2018-11-30T05:47:17Z</time>
      </trkpt>
      <trkpt lat="42.47123874188073" lon="-7.91480028749554">
        <time>2018-11-30T05:47:17Z</time>
      </trkpt>
      <trkpt lat="42.4713444378953" lon="-7.914746083960791">
        <time>2018-11-30T05:47:17Z</time>
      </trkpt>
      <trkpt lat="42.47142446128884" lon="-7.914744926344687">
        <time>2018-11-30T05:47:17Z</time>
      </trkpt>
      <trkpt lat="42.47147281769897" lon="-7.914664916839236">
        <time>2018-11-30T05:47:17Z</time>
      </trkpt>
      <trkpt lat="42.47182531707431" lon="-7.914310955499737">
        <time>2018-11-30T05:47:17Z</time>
      </trkpt>
      <trkpt lat="42.47207698632192" lon="-7.914196054539032">
        <time>2018-11-30T05:47:17Z</time>
      </trkpt>
      <trkpt lat="42.47209968504748" lon="-7.914195266257971">
        <time>2018-11-30T05:47:17Z</time>
      </trkpt>
      <trkpt lat="42.47233447320531" lon="-7.914186357159252">
        <time>2018-11-30T05:47:17Z</time>
      </trkpt>
      <trkpt lat="42.47240522371146" lon="-7.914183696452247">
        <time>2018-11-30T05:47:17Z</time>
      </trkpt>
      <trkpt lat="42.47264225652023" lon="-7.914174845618611">
        <time>2018-11-30T05:47:17Z</time>
      </trkpt>
      <trkpt lat="42.47288630673277" lon="-7.914219514203122">
        <time>2018-11-30T05:47:17Z</time>
      </trkpt>
      <trkpt lat="42.47303688312154" lon="-7.914458604415731">
        <time>2018-11-30T05:47:17Z</time>
      </trkpt>
      <trkpt lat="42.47327156429888" lon="-7.914671245433454">
        <time>2018-11-30T05:47:17Z</time>
      </trkpt>
      <trkpt lat="42.47351370954752" lon="-7.914500435795051">
        <time>2018-11-30T05:47:17Z</time>
      </trkpt>
      <trkpt lat="42.47371764481958" lon="-7.914300636684905">
        <time>2018-11-30T05:47:17Z</time>
      </trkpt>
      <trkpt lat="42.47379750881615" lon="-7.914214431598586">
        <time>2018-11-30T05:47:17Z</time>
      </trkpt>
      <trkpt lat="42.47408390280952" lon="-7.91400823577479">
        <time>2018-11-30T05:47:17Z</time>
      </trkpt>
      <trkpt lat="42.47441828256397" lon="-7.914079247189378">
        <time>2018-11-30T05:47:17Z</time>
      </trkpt>
      <trkpt lat="42.47444428660263" lon="-7.914078252147899">
        <time>2018-11-30T05:47:17Z</time>
      </trkpt>
      <trkpt lat="42.47493253142956" lon="-7.914115162336526">
        <time>2018-11-30T05:47:17Z</time>
      </trkpt>
      <trkpt lat="42.47496006630274" lon="-7.914114064387963">
        <time>2018-11-30T05:47:17Z</time>
      </trkpt>
      <trkpt lat="42.47537501138836" lon="-7.914241656882133">
        <time>2018-11-30T05:47:17Z</time>
      </trkpt>
      <trkpt lat="42.47583170888121" lon="-7.914457751114881">
        <time>2018-11-30T05:47:17Z</time>
      </trkpt>
      <trkpt lat="42.47614105139014" lon="-7.914712584417321">
        <time>2018-11-30T05:47:17Z</time>
      </trkpt>
      <trkpt lat="42.47641750522506" lon="-7.91514885503881">
        <time>2018-11-30T05:47:17Z</time>
      </trkpt>
      <trkpt lat="42.47685385404536" lon="-7.915530414492862">
        <time>2018-11-30T05:47:17Z</time>
      </trkpt>
      <trkpt lat="42.47691185113306" lon="-7.915589694540712">
        <time>2018-11-30T05:47:17Z</time>
      </trkpt>
      <trkpt lat="42.47707828113675" lon="-7.915947640676924">
        <time>2018-11-30T05:47:17Z</time>
      </trkpt>
      <trkpt lat="42.47719339935783" lon="-7.916153516348664">
        <time>2018-11-30T05:47:17Z</time>
      </trkpt>
      <trkpt lat="42.47743253868917" lon="-7.916322191987131">
        <time>2018-11-30T05:47:17Z</time>
      </trkpt>
      <trkpt lat="42.47776213038112" lon="-7.916320520311123">
        <time>2018-11-30T05:47:17Z</time>
      </trkpt>
      <trkpt lat="42.47783238500744" lon="-7.916260661208419">
        <time>2018-11-30T05:47:17Z</time>
      </trkpt>
      <trkpt lat="42.47804617225746" lon="-7.916220823253734">
        <time>2018-11-30T05:47:17Z</time>
      </trkpt>
      <trkpt lat="42.47811778256522" lon="-7.916230593029572">
        <time>2018-11-30T05:47:17Z</time>
      </trkpt>
      <trkpt lat="42.47844413019438" lon="-7.916346262160316">
        <time>2018-11-30T05:47:17Z</time>
      </trkpt>
      <trkpt lat="42.47863746505878" lon="-7.916333021636868">
        <time>2018-11-30T05:47:17Z</time>
      </trkpt>
      <trkpt lat="42.47880705739502" lon="-7.916334594498668">
        <time>2018-11-30T05:47:17Z</time>
      </trkpt>
      <trkpt lat="42.47888249482138" lon="-7.916274079616983">
        <time>2018-11-30T05:47:17Z</time>
      </trkpt>
      <trkpt lat="42.47903553473199" lon="-7.916105480929872">
        <time>2018-11-30T05:47:17Z</time>
      </trkpt>
      <trkpt lat="42.47922938160442" lon="-7.915953924900765">
        <time>2018-11-30T05:47:17Z</time>
      </trkpt>
      <trkpt lat="42.47953082199389" lon="-7.915771922666302">
        <time>2018-11-30T05:47:17Z</time>
      </trkpt>
      <trkpt lat="42.47960806124389" lon="-7.915636093818113">
        <time>2018-11-30T05:47:17Z</time>
      </trkpt>
      <trkpt lat="42.47983126506743" lon="-7.915180009259623">
        <time>2018-11-30T05:47:17Z</time>
      </trkpt>
      <trkpt lat="42.47981355707873" lon="-7.914984211324177">
        <time>2018-11-30T05:47:17Z</time>
      </trkpt>
      <trkpt lat="42.4797950286416" lon="-7.914934115775079">
        <time>2018-11-30T05:47:17Z</time>
      </trkpt>
      <trkpt lat="42.47973933980551" lon="-7.914686685954586">
        <time>2018-11-30T05:47:17Z</time>
      </trkpt>
      <trkpt lat="42.47970318366485" lon="-7.914441465440851">
        <time>2018-11-30T05:47:17Z</time>
      </trkpt>
      <trkpt lat="42.47968634584215" lon="-7.914149452802332">
        <time>2018-11-30T05:47:17Z</time>
      </trkpt>
      <trkpt lat="42.4796679772473" lon="-7.91390547732569">
        <time>2018-11-30T05:47:17Z</time>
      </trkpt>
      <trkpt lat="42.47967002350628" lon="-7.913517596096874">
        <time>2018-11-30T05:47:17Z</time>
      </trkpt>
      <trkpt lat="42.47962448734945" lon="-7.912983708125112">
        <time>2018-11-30T05:47:17Z</time>
      </trkpt>
      <trkpt lat="42.47962590766321" lon="-7.91276535882646">
        <time>2018-11-30T05:47:17Z</time>
      </trkpt>
      <trkpt lat="42.47962369337962" lon="-7.912497515966948">
        <time>2018-11-30T05:47:17Z</time>
      </trkpt>
      <trkpt lat="42.47962696690175" lon="-7.912157905198352">
        <time>2018-11-30T05:47:17Z</time>
      </trkpt>
      <trkpt lat="42.47972225205974" lon="-7.911845969173791">
        <time>2018-11-30T05:47:17Z</time>
      </trkpt>
      <trkpt lat="42.47983103599901" lon="-7.911604614886105">
        <time>2018-11-30T05:47:17Z</time>
      </trkpt>
      <trkpt lat="42.47987144315407" lon="-7.911531820789374">
        <time>2018-11-30T05:47:17Z</time>
      </trkpt>
      <trkpt lat="42.47999581210289" lon="-7.91123875589938">
        <time>2018-11-30T05:47:17Z</time>
      </trkpt>
      <trkpt lat="42.48005701711527" lon="-7.911042069746774">
        <time>2018-11-30T05:47:17Z</time>
      </trkpt>
      <trkpt lat="42.48009668455421" lon="-7.910943496059881">
        <time>2018-11-30T05:47:17Z</time>
      </trkpt>
      <trkpt lat="42.480135716226" lon="-7.910622393311161">
        <time>2018-11-30T05:47:17Z</time>
      </trkpt>
      <trkpt lat="42.48015822765176" lon="-7.910276034546422">
        <time>2018-11-30T05:47:17Z</time>
      </trkpt>
      <trkpt lat="42.48028972490725" lon="-7.910049959289297">
        <time>2018-11-30T05:47:17Z</time>
      </trkpt>
      <trkpt lat="42.48032270781592" lon="-7.909625191207129">
        <time>2018-11-30T05:47:17Z</time>
      </trkpt>
      <trkpt lat="42.48028485239139" lon="-7.909253001463014">
        <time>2018-11-30T05:47:17Z</time>
      </trkpt>
      <trkpt lat="42.4802197863714" lon="-7.908933709328303">
        <time>2018-11-30T05:47:17Z</time>
      </trkpt>
      <trkpt lat="42.48019577058837" lon="-7.908861249185637">
        <time>2018-11-30T05:47:17Z</time>
      </trkpt>
      <trkpt lat="42.48013544569581" lon="-7.908542403211314">
        <time>2018-11-30T05:47:17Z</time>
      </trkpt>
      <trkpt lat="42.48006531864249" lon="-7.908346023322304">
        <time>2018-11-30T05:47:17Z</time>
      </trkpt>
      <trkpt lat="42.47987848120187" lon="-7.90805826826676">
        <time>2018-11-30T05:47:17Z</time>
      </trkpt>
      <trkpt lat="42.47990524882057" lon="-7.907807404696643">
        <time>2018-11-30T05:47:17Z</time>
      </trkpt>
      <trkpt lat="42.4799350810498" lon="-7.907554532914469">
        <time>2018-11-30T05:47:17Z</time>
      </trkpt>
      <trkpt lat="42.47993835730807" lon="-7.907478860557909">
        <time>2018-11-30T05:47:17Z</time>
      </trkpt>
      <trkpt lat="42.47993690371163" lon="-7.907058917490399">
        <time>2018-11-30T05:47:17Z</time>
      </trkpt>
      <trkpt lat="42.47981495404614" lon="-7.906923412318955">
        <time>2018-11-30T05:47:17Z</time>
      </trkpt>
      <trkpt lat="42.47965482052074" lon="-7.906556481205541">
        <time>2018-11-30T05:47:17Z</time>
      </trkpt>
      <trkpt lat="42.47982781054297" lon="-7.906146630129864">
        <time>2018-11-30T05:47:17Z</time>
      </trkpt>
      <trkpt lat="42.4799640769368" lon="-7.905786791757045">
        <time>2018-11-30T05:47:17Z</time>
      </trkpt>
      <trkpt lat="42.47998407573044" lon="-7.905685527298967">
        <time>2018-11-30T05:47:17Z</time>
      </trkpt>
      <trkpt lat="42.48012288362912" lon="-7.905396158226302">
        <time>2018-11-30T05:47:17Z</time>
      </trkpt>
      <trkpt lat="42.48016107774683" lon="-7.905317832254784">
        <time>2018-11-30T05:47:17Z</time>
      </trkpt>
      <trkpt lat="42.480312458546" lon="-7.904930275285577">
        <time>2018-11-30T05:47:17Z</time>
      </trkpt>
      <trkpt lat="42.48032804308992" lon="-7.904732045272722">
        <time>2018-11-30T05:47:17Z</time>
      </trkpt>
      <trkpt lat="42.48037757059933" lon="-7.904408560880649">
        <time>2018-11-30T05:47:17Z</time>
      </trkpt>
      <trkpt lat="42.48039235434092" lon="-7.904285565890946">
        <time>2018-11-30T05:47:17Z</time>
      </trkpt>
      <trkpt lat="42.48044882336667" lon="-7.904030764214678">
        <time>2018-11-30T05:47:17Z</time>
      </trkpt>
      <trkpt lat="42.48044350833364" lon="-7.903861289184139">
        <time>2018-11-30T05:47:17Z</time>
      </trkpt>
      <trkpt lat="42.48043266594835" lon="-7.903647300992712">
        <time>2018-11-30T05:47:17Z</time>
      </trkpt>
      <trkpt lat="42.48008925801421" lon="-7.903351547930582">
        <time>2018-11-30T05:47:17Z</time>
      </trkpt>
      <trkpt lat="42.47978191181552" lon="-7.903237416924846">
        <time>2018-11-30T05:47:17Z</time>
      </trkpt>
      <trkpt lat="42.47949369968447" lon="-7.902979393052657">
        <time>2018-11-30T05:47:17Z</time>
      </trkpt>
      <trkpt lat="42.47931652574803" lon="-7.902861970933049">
        <time>2018-11-30T05:47:17Z</time>
      </trkpt>
      <trkpt lat="42.47901200778441" lon="-7.902605648965128">
        <time>2018-11-30T05:47:17Z</time>
      </trkpt>
      <trkpt lat="42.47885461226733" lon="-7.902538663456729">
        <time>2018-11-30T05:47:17Z</time>
      </trkpt>
      <trkpt lat="42.47864564962244" lon="-7.902421208614706">
        <time>2018-11-30T05:47:17Z</time>
      </trkpt>
      <trkpt lat="42.47841147509133" lon="-7.902213435000183">
        <time>2018-11-30T05:47:17Z</time>
      </trkpt>
      <trkpt lat="42.47817416758971" lon="-7.901990080395491">
        <time>2018-11-30T05:47:17Z</time>
      </trkpt>
      <trkpt lat="42.47779880972605" lon="-7.901527101093425">
        <time>2018-11-30T05:47:17Z</time>
      </trkpt>
      <trkpt lat="42.47767696976617" lon="-7.901472559242869">
        <time>2018-11-30T05:47:17Z</time>
      </trkpt>
      <trkpt lat="42.47739895564222" lon="-7.901178100641698">
        <time>2018-11-30T05:47:17Z</time>
      </trkpt>
      <trkpt lat="42.47720885667669" lon="-7.901119655426969">
        <time>2018-11-30T05:47:17Z</time>
      </trkpt>
      <trkpt lat="42.47707516603891" lon="-7.90102148517822">
        <time>2018-11-30T05:47:17Z</time>
      </trkpt>
      <trkpt lat="42.47719689524945" lon="-7.900506615893153">
        <time>2018-11-30T05:47:17Z</time>
      </trkpt>
      <trkpt lat="42.47721950935353" lon="-7.900258757337343">
        <time>2018-11-30T05:47:17Z</time>
      </trkpt>
      <trkpt lat="42.47721966830458" lon="-7.900190421696717">
        <time>2018-11-30T05:47:17Z</time>
      </trkpt>
      <trkpt lat="42.47730834600664" lon="-7.899897558493678">
        <time>2018-11-30T05:47:17Z</time>
      </trkpt>
      <trkpt lat="42.47732584571296" lon="-7.899829573189452">
        <time>2018-11-30T05:47:17Z</time>
      </trkpt>
      <trkpt lat="42.47743491156356" lon="-7.899443719266968">
        <time>2018-11-30T05:47:17Z</time>
      </trkpt>
      <trkpt lat="42.47758087987582" lon="-7.899239961880705">
        <time>2018-11-30T05:47:17Z</time>
      </trkpt>
      <trkpt lat="42.47759962703747" lon="-7.899194195820324">
        <time>2018-11-30T05:47:17Z</time>
      </trkpt>
      <trkpt lat="42.47772962201988" lon="-7.898918370818095">
        <time>2018-11-30T05:47:17Z</time>
      </trkpt>
      <trkpt lat="42.47787941320407" lon="-7.898709982060145">
        <time>2018-11-30T05:47:17Z</time>
      </trkpt>
      <trkpt lat="42.47797533028037" lon="-7.898476328234358">
        <time>2018-11-30T05:47:17Z</time>
      </trkpt>
      <trkpt lat="42.47811023326768" lon="-7.898123038646874">
        <time>2018-11-30T05:47:17Z</time>
      </trkpt>
      <trkpt lat="42.47822453771534" lon="-7.89795599277306">
        <time>2018-11-30T05:47:17Z</time>
      </trkpt>
      <trkpt lat="42.47832866447202" lon="-7.897644899163177">
        <time>2018-11-30T05:47:17Z</time>
      </trkpt>
      <trkpt lat="42.47841141832092" lon="-7.897403777867877">
        <time>2018-11-30T05:47:17Z</time>
      </trkpt>
      <trkpt lat="42.47855483775883" lon="-7.897014455734936">
        <time>2018-11-30T05:47:17Z</time>
      </trkpt>
      <trkpt lat="42.47858307993412" lon="-7.896747715762525">
        <time>2018-11-30T05:47:17Z</time>
      </trkpt>
      <trkpt lat="42.47860814336171" lon="-7.896481047423695">
        <time>2018-11-30T05:47:17Z</time>
      </trkpt>
      <trkpt lat="42.47873959611111" lon="-7.89606474780118">
        <time>2018-11-30T05:47:17Z</time>
      </trkpt>
      <trkpt lat="42.478832928571" lon="-7.895817854685708">
        <time>2018-11-30T05:47:17Z</time>
      </trkpt>
      <trkpt lat="42.47882778424225" lon="-7.895530930890305">
        <time>2018-11-30T05:47:17Z</time>
      </trkpt>
      <trkpt lat="42.47886582851863" lon="-7.895262527848004">
        <time>2018-11-30T05:47:17Z</time>
      </trkpt>
      <trkpt lat="42.47888622426587" lon="-7.895139472765401">
        <time>2018-11-30T05:47:17Z</time>
      </trkpt>
      <trkpt lat="42.47890415187458" lon="-7.894679583559893">
        <time>2018-11-30T05:47:17Z</time>
      </trkpt>
      <trkpt lat="42.47888917688632" lon="-7.894461709520173">
        <time>2018-11-30T05:47:17Z</time>
      </trkpt>
      <trkpt lat="42.47905826246693" lon="-7.894372433764865">
        <time>2018-11-30T05:47:17Z</time>
      </trkpt>
      <trkpt lat="42.47909707294697" lon="-7.894319468151789">
        <time>2018-11-30T05:47:17Z</time>
      </trkpt>
      <trkpt lat="42.47938904524285" lon="-7.894091013536055">
        <time>2018-11-30T05:47:17Z</time>
      </trkpt>
      <trkpt lat="42.4796225822282" lon="-7.893942281872739">
        <time>2018-11-30T05:47:17Z</time>
      </trkpt>
      <trkpt lat="42.47989735333834" lon="-7.893738419938925">
        <time>2018-11-30T05:47:17Z</time>
      </trkpt>
      <trkpt lat="42.47995815130057" lon="-7.893656257176492">
        <time>2018-11-30T05:47:17Z</time>
      </trkpt>
      <trkpt lat="42.48023777539612" lon="-7.893362757750548">
        <time>2018-11-30T05:47:17Z</time>
      </trkpt>
      <trkpt lat="42.48039683058267" lon="-7.892981590122238">
        <time>2018-11-30T05:47:17Z</time>
      </trkpt>
      <trkpt lat="42.48050166401227" lon="-7.892890404097007">
        <time>2018-11-30T05:47:17Z</time>
      </trkpt>
      <trkpt lat="42.48062631000762" lon="-7.892720976541392">
        <time>2018-11-30T05:47:17Z</time>
      </trkpt>
      <trkpt lat="42.48068867500322" lon="-7.892636048212572">
        <time>2018-11-30T05:47:17Z</time>
      </trkpt>
      <trkpt lat="42.48095899129912" lon="-7.892317593413312">
        <time>2018-11-30T05:47:17Z</time>
      </trkpt>
      <trkpt lat="42.48077370553023" lon="-7.891926494330193">
        <time>2018-11-30T05:47:17Z</time>
      </trkpt>
      <trkpt lat="42.48064711436519" lon="-7.891532500020765">
        <time>2018-11-30T05:47:17Z</time>
      </trkpt>
      <trkpt lat="42.48054366051529" lon="-7.891295046534841">
        <time>2018-11-30T05:47:17Z</time>
      </trkpt>
      <trkpt lat="42.48025634996426" lon="-7.891067131764874">
        <time>2018-11-30T05:47:17Z</time>
      </trkpt>
      <trkpt lat="42.47999274120562" lon="-7.890744381383903">
        <time>2018-11-30T05:47:17Z</time>
      </trkpt>
      <trkpt lat="42.47998035011694" lon="-7.890397494184837">
        <time>2018-11-30T05:47:17Z</time>
      </trkpt>
      <trkpt lat="42.47998147993132" lon="-7.89032322835744">
        <time>2018-11-30T05:47:17Z</time>
      </trkpt>
      <trkpt lat="42.48001206144984" lon="-7.889929512025034">
        <time>2018-11-30T05:47:17Z</time>
      </trkpt>
      <trkpt lat="42.47990344486361" lon="-7.889303026510208">
        <time>2018-11-30T05:47:17Z</time>
      </trkpt>
      <trkpt lat="42.47982140597475" lon="-7.889174394161356">
        <time>2018-11-30T05:47:17Z</time>
      </trkpt>
      <trkpt lat="42.47964450592238" lon="-7.889166895274174">
        <time>2018-11-30T05:47:17Z</time>
      </trkpt>
      <trkpt lat="42.47937347750289" lon="-7.889012860656953">
        <time>2018-11-30T05:47:17Z</time>
      </trkpt>
      <trkpt lat="42.47921827850386" lon="-7.888950078374171">
        <time>2018-11-30T05:47:17Z</time>
      </trkpt>
      <trkpt lat="42.47904397526328" lon="-7.888787786371793">
        <time>2018-11-30T05:47:17Z</time>
      </trkpt>
      <trkpt lat="42.47896634977337" lon="-7.888634563416979">
        <time>2018-11-30T05:47:17Z</time>
      </trkpt>
      <trkpt lat="42.47888586728963" lon="-7.888334786634612">
        <time>2018-11-30T05:47:17Z</time>
      </trkpt>
      <trkpt lat="42.47888004922807" lon="-7.887919475941915">
        <time>2018-11-30T05:47:17Z</time>
      </trkpt>
      <trkpt lat="42.47887438867837" lon="-7.887674892722409">
        <time>2018-11-30T05:47:17Z</time>
      </trkpt>
      <trkpt lat="42.478884213665" lon="-7.887430735944003">
        <time>2018-11-30T05:47:17Z</time>
      </trkpt>
      <trkpt lat="42.47889636855494" lon="-7.886969527548208">
        <time>2018-11-30T05:47:17Z</time>
      </trkpt>
      <trkpt lat="42.47896939048804" lon="-7.886728665510784">
        <time>2018-11-30T05:47:17Z</time>
      </trkpt>
      <trkpt lat="42.47904111348708" lon="-7.886340990008394">
        <time>2018-11-30T05:47:17Z</time>
      </trkpt>
      <trkpt lat="42.47903809464369" lon="-7.885976388644443">
        <time>2018-11-30T05:47:17Z</time>
      </trkpt>
      <trkpt lat="42.4790366308059" lon="-7.885344900054564">
        <time>2018-11-30T05:47:17Z</time>
      </trkpt>
      <trkpt lat="42.47901524844956" lon="-7.884787355561811">
        <time>2018-11-30T05:47:17Z</time>
      </trkpt>
      <trkpt lat="42.47901627011881" lon="-7.884495923719301">
        <time>2018-11-30T05:47:17Z</time>
      </trkpt>
      <trkpt lat="42.47902130075713" lon="-7.884130350539853">
        <time>2018-11-30T05:47:17Z</time>
      </trkpt>
      <trkpt lat="42.47907977686845" lon="-7.883932304698397">
        <time>2018-11-30T05:47:17Z</time>
      </trkpt>
      <trkpt lat="42.47912201257262" lon="-7.883660606105354">
        <time>2018-11-30T05:47:17Z</time>
      </trkpt>
      <trkpt lat="42.47919634252918" lon="-7.883314567212013">
        <time>2018-11-30T05:47:17Z</time>
      </trkpt>
      <trkpt lat="42.47875088644513" lon="-7.882621769454201">
        <time>2018-11-30T05:47:17Z</time>
      </trkpt>
      <trkpt lat="42.47775560292748" lon="-7.882209626111347">
        <time>2018-11-30T05:47:17Z</time>
      </trkpt>
      <trkpt lat="42.47710712196799" lon="-7.881999905048601">
        <time>2018-11-30T05:47:17Z</time>
      </trkpt>
      <trkpt lat="42.47693425396344" lon="-7.881990674438115">
        <time>2018-11-30T05:47:17Z</time>
      </trkpt>
      <trkpt lat="42.47652528437916" lon="-7.881796138862916">
        <time>2018-11-30T05:47:17Z</time>
      </trkpt>
      <trkpt lat="42.47570527678219" lon="-7.8815187891133">
        <time>2018-11-30T05:47:17Z</time>
      </trkpt>
      <trkpt lat="42.47549866580719" lon="-7.881309776163562">
        <time>2018-11-30T05:47:06Z</time>
      </trkpt>
      <trkpt lat="42.47573839459079" lon="-7.881446782188837">
        <time>2018-11-30T05:47:06Z</time>
      </trkpt>
      <trkpt lat="42.47569850671715" lon="-7.881308987023779">
        <time>2018-11-30T05:47:06Z</time>
      </trkpt>
      <trkpt lat="42.47556898621226" lon="-7.881265550057225">
        <time>2018-11-30T05:47:06Z</time>
      </trkpt>
      <trkpt lat="42.47554482530138" lon="-7.881256936104274">
        <time>2018-11-30T05:47:06Z</time>
      </trkpt>
      <trkpt lat="42.47546311434329" lon="-7.881228950383243">
        <time>2018-11-30T05:47:06Z</time>
      </trkpt>
      <trkpt lat="42.47541177198326" lon="-7.88099529062697">
        <time>2018-11-30T05:47:06Z</time>
      </trkpt>
      <trkpt lat="42.47548753712374" lon="-7.880918622377161">
        <time>2018-11-30T05:47:06Z</time>
      </trkpt>
      <trkpt lat="42.47554982720442" lon="-7.880825149276392">
        <time>2018-11-30T05:47:06Z</time>
      </trkpt>
      <trkpt lat="42.47554547357557" lon="-7.88080098528922">
        <time>2018-11-30T05:47:06Z</time>
      </trkpt>
      <trkpt lat="42.47562941276291" lon="-7.880701482988392">
        <time>2018-11-30T05:47:06Z</time>
      </trkpt>
      <trkpt lat="42.47565356520554" lon="-7.880551967135613">
        <time>2018-11-30T05:47:06Z</time>
      </trkpt>
      <trkpt lat="42.47563564101935" lon="-7.88043488613305">
        <time>2018-11-30T05:47:06Z</time>
      </trkpt>
      <trkpt lat="42.47553639168667" lon="-7.880281692256526">
        <time>2018-11-30T05:47:06Z</time>
      </trkpt>
      <trkpt lat="42.47536053825676" lon="-7.880112154910314">
        <time>2018-11-30T05:47:06Z</time>
      </trkpt>
      <trkpt lat="42.47534160634906" lon="-7.880013149221027">
        <time>2018-11-30T05:47:06Z</time>
      </trkpt>
      <trkpt lat="42.47532231548436" lon="-7.879894047330137">
        <time>2018-11-30T05:47:06Z</time>
      </trkpt>
      <trkpt lat="42.47526026085041" lon="-7.879746317264067">
        <time>2018-11-30T05:47:06Z</time>
      </trkpt>
      <trkpt lat="42.47522448338614" lon="-7.879707189716725">
        <time>2018-11-30T05:47:06Z</time>
      </trkpt>
      <trkpt lat="42.47516381515457" lon="-7.879621628488932">
        <time>2018-11-30T05:47:06Z</time>
      </trkpt>
      <trkpt lat="42.47498124859138" lon="-7.879533349924563">
        <time>2018-11-30T05:47:06Z</time>
      </trkpt>
      <trkpt lat="42.47485511350923" lon="-7.879428892271107">
        <time>2018-11-30T05:47:06Z</time>
      </trkpt>
      <trkpt lat="42.47472554279928" lon="-7.879355957163583">
        <time>2018-11-30T05:47:06Z</time>
      </trkpt>
      <trkpt lat="42.47471571003174" lon="-7.879354113425681">
        <time>2018-11-30T05:47:06Z</time>
      </trkpt>
      <trkpt lat="42.47454654062982" lon="-7.879230093179928">
        <time>2018-11-30T05:47:06Z</time>
      </trkpt>
      <trkpt lat="42.47452767666721" lon="-7.879226805702847">
        <time>2018-11-30T05:47:06Z</time>
      </trkpt>
      <trkpt lat="42.47445350493153" lon="-7.879186009276729">
        <time>2018-11-30T05:47:06Z</time>
      </trkpt>
      <trkpt lat="42.47434352217526" lon="-7.879092882722602">
        <time>2018-11-30T05:47:06Z</time>
      </trkpt>
      <trkpt lat="42.47421573734014" lon="-7.878997404228101">
        <time>2018-11-30T05:47:06Z</time>
      </trkpt>
      <trkpt lat="42.47415090252535" lon="-7.878940044128541">
        <time>2018-11-30T05:47:06Z</time>
      </trkpt>
      <trkpt lat="42.4740342512976" lon="-7.878753281494413">
        <time>2018-11-30T05:47:06Z</time>
      </trkpt>
      <trkpt lat="42.47392483199474" lon="-7.878609129782915">
        <time>2018-11-30T05:47:06Z</time>
      </trkpt>
      <trkpt lat="42.47384554459296" lon="-7.87849911682676">
        <time>2018-11-30T05:47:06Z</time>
      </trkpt>
      <trkpt lat="42.47378350368733" lon="-7.878281955037959">
        <time>2018-11-30T05:47:06Z</time>
      </trkpt>
      <trkpt lat="42.47369196602929" lon="-7.878109993200769">
        <time>2018-11-30T05:47:06Z</time>
      </trkpt>
      <trkpt lat="42.47368049875818" lon="-7.878054737419109">
        <time>2018-11-30T05:47:06Z</time>
      </trkpt>
      <trkpt lat="42.47367132888471" lon="-7.878035947045921">
        <time>2018-11-30T05:47:06Z</time>
      </trkpt>
      <trkpt lat="42.47362637105789" lon="-7.877951560661611">
        <time>2018-11-30T05:47:06Z</time>
      </trkpt>
      <trkpt lat="42.47360946624423" lon="-7.877932478114159">
        <time>2018-11-30T05:47:06Z</time>
      </trkpt>
      <trkpt lat="42.47353066036406" lon="-7.877784817636594">
        <time>2018-11-30T05:47:06Z</time>
      </trkpt>
      <trkpt lat="42.47349860241354" lon="-7.877765410440624">
        <time>2018-11-30T05:47:06Z</time>
      </trkpt>
      <trkpt lat="42.47347391330094" lon="-7.877737589893378">
        <time>2018-11-30T05:47:06Z</time>
      </trkpt>
      <trkpt lat="42.47345700886774" lon="-7.877710237240205">
        <time>2018-11-30T05:47:06Z</time>
      </trkpt>
      <trkpt lat="42.47336000758767" lon="-7.877592104785038">
        <time>2018-11-30T05:47:06Z</time>
      </trkpt>
      <trkpt lat="42.47328961909605" lon="-7.877511668204122">
        <time>2018-11-30T05:47:06Z</time>
      </trkpt>
      <trkpt lat="42.47325092673844" lon="-7.877484536098319">
        <time>2018-11-30T05:47:06Z</time>
      </trkpt>
      <trkpt lat="42.47320819754997" lon="-7.877379649200362">
        <time>2018-11-30T05:47:06Z</time>
      </trkpt>
      <trkpt lat="42.47310840932628" lon="-7.877258516920146">
        <time>2018-11-30T05:47:06Z</time>
      </trkpt>
      <trkpt lat="42.47310060349732" lon="-7.877241433574488">
        <time>2018-11-30T05:47:06Z</time>
      </trkpt>
      <trkpt lat="42.47304059491818" lon="-7.87719022953346">
        <time>2018-11-30T05:47:06Z</time>
      </trkpt>
      <trkpt lat="42.47296497554407" lon="-7.877097475325437">
        <time>2018-11-30T05:47:06Z</time>
      </trkpt>
      <trkpt lat="42.47295660201588" lon="-7.877072236293152">
        <time>2018-11-30T05:47:06Z</time>
      </trkpt>
      <trkpt lat="42.47288757083888" lon="-7.876997339319739">
        <time>2018-11-30T05:47:06Z</time>
      </trkpt>
      <trkpt lat="42.47281461245675" lon="-7.876923951481992">
        <time>2018-11-30T05:47:06Z</time>
      </trkpt>
      <trkpt lat="42.47274409878652" lon="-7.876835305722639">
        <time>2018-11-30T05:47:06Z</time>
      </trkpt>
      <trkpt lat="42.47272301753355" lon="-7.876811384851585">
        <time>2018-11-30T05:47:06Z</time>
      </trkpt>
      <trkpt lat="42.47270934022757" lon="-7.876803706629967">
        <time>2018-11-30T05:47:06Z</time>
      </trkpt>
      <trkpt lat="42.47267407332215" lon="-7.876780445425904">
        <time>2018-11-30T05:47:06Z</time>
      </trkpt>
      <trkpt lat="42.47257369942421" lon="-7.876678956107135">
        <time>2018-11-30T05:47:06Z</time>
      </trkpt>
      <trkpt lat="42.47249602212609" lon="-7.876562329746286">
        <time>2018-11-30T05:47:06Z</time>
      </trkpt>
      <trkpt lat="42.47243334848746" lon="-7.876462487632959">
        <time>2018-11-30T05:47:06Z</time>
      </trkpt>
      <trkpt lat="42.47241917601146" lon="-7.876439627159325">
        <time>2018-11-30T05:47:06Z</time>
      </trkpt>
      <trkpt lat="42.4723644718048" lon="-7.876372561313549">
        <time>2018-11-30T05:47:06Z</time>
      </trkpt>
      <trkpt lat="42.47235766030262" lon="-7.876365233043607">
        <time>2018-11-30T05:47:06Z</time>
      </trkpt>
      <trkpt lat="42.47230306862758" lon="-7.876275428855052">
        <time>2018-11-30T05:47:06Z</time>
      </trkpt>
      <trkpt lat="42.47222431676014" lon="-7.876173657864917">
        <time>2018-11-30T05:47:06Z</time>
      </trkpt>
      <trkpt lat="42.47221788141027" lon="-7.876166546970113">
        <time>2018-11-30T05:47:06Z</time>
      </trkpt>
      <trkpt lat="42.47215461551674" lon="-7.876103607941295">
        <time>2018-11-30T05:47:06Z</time>
      </trkpt>
      <trkpt lat="42.47213612354087" lon="-7.876090256797714">
        <time>2018-11-30T05:47:06Z</time>
      </trkpt>
      <trkpt lat="42.47208541987114" lon="-7.876019164758858">
        <time>2018-11-30T05:47:06Z</time>
      </trkpt>
      <trkpt lat="42.47206134311189" lon="-7.87600681956619">
        <time>2018-11-30T05:47:06Z</time>
      </trkpt>
      <trkpt lat="42.47205516381333" lon="-7.875999925049123">
        <time>2018-11-30T05:47:06Z</time>
      </trkpt>
      <trkpt lat="42.47200096974024" lon="-7.875961043820126">
        <time>2018-11-30T05:47:06Z</time>
      </trkpt>
      <trkpt lat="42.47197766814847" lon="-7.875956524039437">
        <time>2018-11-30T05:47:06Z</time>
      </trkpt>
      <trkpt lat="42.47193444149603" lon="-7.875894119653858">
        <time>2018-11-30T05:47:06Z</time>
      </trkpt>
      <trkpt lat="42.47189026184392" lon="-7.875809994210776">
        <time>2018-11-30T05:47:06Z</time>
      </trkpt>
      <trkpt lat="42.47187153849551" lon="-7.875775247610899">
        <time>2018-11-30T05:47:06Z</time>
      </trkpt>
      <trkpt lat="42.47186552883444" lon="-7.875768688497267">
        <time>2018-11-30T05:47:06Z</time>
      </trkpt>
      <trkpt lat="42.47176066996403" lon="-7.875692707123584">
        <time>2018-11-30T05:47:06Z</time>
      </trkpt>
      <trkpt lat="42.4716994233761" lon="-7.875588978711474">
        <time>2018-11-30T05:47:06Z</time>
      </trkpt>
      <trkpt lat="42.47167118864128" lon="-7.875513004698734">
        <time>2018-11-30T05:47:06Z</time>
      </trkpt>
      <trkpt lat="42.47166461122124" lon="-7.875506073006423">
        <time>2018-11-30T05:47:06Z</time>
      </trkpt>
      <trkpt lat="42.47161873843123" lon="-7.87544964360701">
        <time>2018-11-30T05:47:06Z</time>
      </trkpt>
      <trkpt lat="42.47151616009118" lon="-7.875148347809469">
        <time>2018-11-30T05:47:06Z</time>
      </trkpt>
      <trkpt lat="42.47157114972631" lon="-7.875120644386263">
        <time>2018-11-30T05:47:06Z</time>
      </trkpt>
      <trkpt lat="42.47164451162199" lon="-7.87508120069502">
        <time>2018-11-30T05:47:06Z</time>
      </trkpt>
      <trkpt lat="42.47165661224813" lon="-7.87507062138792">
        <time>2018-11-30T05:47:06Z</time>
      </trkpt>
      <trkpt lat="42.47172979217194" lon="-7.875006641599912">
        <time>2018-11-30T05:47:06Z</time>
      </trkpt>
      <trkpt lat="42.47175478105616" lon="-7.874993162173967">
        <time>2018-11-30T05:47:06Z</time>
      </trkpt>
      <trkpt lat="42.47177266658233" lon="-7.874964960053148">
        <time>2018-11-30T05:47:06Z</time>
      </trkpt>
      <trkpt lat="42.4718022190936" lon="-7.874934828523027">
        <time>2018-11-30T05:47:06Z</time>
      </trkpt>
      <trkpt lat="42.4718329002458" lon="-7.874895347831092">
        <time>2018-11-30T05:47:06Z</time>
      </trkpt>
      <trkpt lat="42.4719164769304" lon="-7.874868772137535">
        <time>2018-11-30T05:47:06Z</time>
      </trkpt>
      <trkpt lat="42.47202167536461" lon="-7.874794315083373">
        <time>2018-11-30T05:47:06Z</time>
      </trkpt>
      <trkpt lat="42.47204154975479" lon="-7.874755636615554">
        <time>2018-11-30T05:47:06Z</time>
      </trkpt>
      <trkpt lat="42.47218877170798" lon="-7.874522948220553">
        <time>2018-11-30T05:47:06Z</time>
      </trkpt>
      <trkpt lat="42.47224913119607" lon="-7.874456588183727">
        <time>2018-11-30T05:47:06Z</time>
      </trkpt>
      <trkpt lat="42.47226865274578" lon="-7.874426166250324">
        <time>2018-11-30T05:47:06Z</time>
      </trkpt>
      <trkpt lat="42.47230003483848" lon="-7.874332325787584">
        <time>2018-11-30T05:47:06Z</time>
      </trkpt>
      <trkpt lat="42.4723059109442" lon="-7.874296225151264">
        <time>2018-11-30T05:47:06Z</time>
      </trkpt>
      <trkpt lat="42.47231118099852" lon="-7.874234130781408">
        <time>2018-11-30T05:47:06Z</time>
      </trkpt>
      <trkpt lat="42.47234228994785" lon="-7.874104316465601">
        <time>2018-11-30T05:47:06Z</time>
      </trkpt>
      <trkpt lat="42.47236208921252" lon="-7.874064178053118">
        <time>2018-11-30T05:47:06Z</time>
      </trkpt>
      <trkpt lat="42.47240188959013" lon="-7.873956668339076">
        <time>2018-11-30T05:47:06Z</time>
      </trkpt>
      <trkpt lat="42.47244102202435" lon="-7.873822348944179">
        <time>2018-11-30T05:47:06Z</time>
      </trkpt>
      <trkpt lat="42.47248820972239" lon="-7.873620842689747">
        <time>2018-11-30T05:47:06Z</time>
      </trkpt>
      <trkpt lat="42.47257056956516" lon="-7.873443771866263">
        <time>2018-11-30T05:47:06Z</time>
      </trkpt>
      <trkpt lat="42.47258480551555" lon="-7.873402893522004">
        <time>2018-11-30T05:47:06Z</time>
      </trkpt>
      <trkpt lat="42.47267193722487" lon="-7.87311701117333">
        <time>2018-11-30T05:47:06Z</time>
      </trkpt>
      <trkpt lat="42.47267192638734" lon="-7.873033565692015">
        <time>2018-11-30T05:47:06Z</time>
      </trkpt>
      <trkpt lat="42.47270505326048" lon="-7.87288853671174">
        <time>2018-11-30T05:47:06Z</time>
      </trkpt>
      <trkpt lat="42.47270468132462" lon="-7.872870601597326">
        <time>2018-11-30T05:47:06Z</time>
      </trkpt>
      <trkpt lat="42.47271682932514" lon="-7.8727515436686">
        <time>2018-11-30T05:47:06Z</time>
      </trkpt>
      <trkpt lat="42.4727314722804" lon="-7.872721854561227">
        <time>2018-11-30T05:47:06Z</time>
      </trkpt>
      <trkpt lat="42.47274513059077" lon="-7.872656150208669">
        <time>2018-11-30T05:47:06Z</time>
      </trkpt>
      <trkpt lat="42.47277841590996" lon="-7.872541949051159">
        <time>2018-11-30T05:47:06Z</time>
      </trkpt>
      <trkpt lat="42.4728234979186" lon="-7.872478538052406">
        <time>2018-11-30T05:47:06Z</time>
      </trkpt>
      <trkpt lat="42.47283971147668" lon="-7.872465887449051">
        <time>2018-11-30T05:47:06Z</time>
      </trkpt>
      <trkpt lat="42.47294680507874" lon="-7.872334082938916">
        <time>2018-11-30T05:47:06Z</time>
      </trkpt>
      <trkpt lat="42.47295387325814" lon="-7.872314314932034">
        <time>2018-11-30T05:47:06Z</time>
      </trkpt>
      <trkpt lat="42.47304298857674" lon="-7.87215183763246">
        <time>2018-11-30T05:47:06Z</time>
      </trkpt>
      <trkpt lat="42.47295264008352" lon="-7.87182964883272">
        <time>2018-11-30T05:47:06Z</time>
      </trkpt>
      <trkpt lat="42.47292581637382" lon="-7.871390858972024">
        <time>2018-11-30T05:47:06Z</time>
      </trkpt>
      <trkpt lat="42.47293425107866" lon="-7.871259504265642">
        <time>2018-11-30T05:47:06Z</time>
      </trkpt>
      <trkpt lat="42.47296734051612" lon="-7.87099458564664">
        <time>2018-11-30T05:47:06Z</time>
      </trkpt>
      <trkpt lat="42.47296073931302" lon="-7.870831539403084">
        <time>2018-11-30T05:47:06Z</time>
      </trkpt>
      <trkpt lat="42.47294687786879" lon="-7.870489186027415">
        <time>2018-11-30T05:47:06Z</time>
      </trkpt>
      <trkpt lat="42.47294489785458" lon="-7.870440283026027">
        <time>2018-11-30T05:47:06Z</time>
      </trkpt>
      <trkpt lat="42.47292703089609" lon="-7.870360725168545">
        <time>2018-11-30T05:47:06Z</time>
      </trkpt>
      <trkpt lat="42.4729230198365" lon="-7.870246519267939">
        <time>2018-11-30T05:47:06Z</time>
      </trkpt>
      <trkpt lat="42.47291360161918" lon="-7.870018537906809">
        <time>2018-11-30T05:47:06Z</time>
      </trkpt>
      <trkpt lat="42.47290592092804" lon="-7.869773396376393">
        <time>2018-11-30T05:47:06Z</time>
      </trkpt>
      <trkpt lat="42.4729189402503" lon="-7.869506415617783">
        <time>2018-11-30T05:47:06Z</time>
      </trkpt>
      <trkpt lat="42.4729139542083" lon="-7.869425534031934">
        <time>2018-11-30T05:47:06Z</time>
      </trkpt>
      <trkpt lat="42.47290860185696" lon="-7.869344866474989">
        <time>2018-11-30T05:47:06Z</time>
      </trkpt>
      <trkpt lat="42.47288855819186" lon="-7.869055327013143">
        <time>2018-11-30T05:47:06Z</time>
      </trkpt>
      <trkpt lat="42.47290015668931" lon="-7.869004098435064">
        <time>2018-11-30T05:47:06Z</time>
      </trkpt>
      <trkpt lat="42.47294886705448" lon="-7.868847540541545">
        <time>2018-11-30T05:47:06Z</time>
      </trkpt>
      <trkpt lat="42.47300640763744" lon="-7.868623660316397">
        <time>2018-11-30T05:47:06Z</time>
      </trkpt>
      <trkpt lat="42.47301921019284" lon="-7.868588103451344">
        <time>2018-11-30T05:47:06Z</time>
      </trkpt>
      <trkpt lat="42.47304140706466" lon="-7.868255849972984">
        <time>2018-11-30T05:47:06Z</time>
      </trkpt>
      <trkpt lat="42.4731380057605" lon="-7.868118345825855">
        <time>2018-11-30T05:47:06Z</time>
      </trkpt>
      <trkpt lat="42.4731992807136" lon="-7.867940032206465">
        <time>2018-11-30T05:47:06Z</time>
      </trkpt>
      <trkpt lat="42.47325334576154" lon="-7.867861458683137">
        <time>2018-11-30T05:47:06Z</time>
      </trkpt>
      <trkpt lat="42.47326604059202" lon="-7.867825348127202">
        <time>2018-11-30T05:47:06Z</time>
      </trkpt>
      <trkpt lat="42.47336770390719" lon="-7.86768253382256">
        <time>2018-11-30T05:47:06Z</time>
      </trkpt>
      <trkpt lat="42.47339699793452" lon="-7.867641429912524">
        <time>2018-11-30T05:47:06Z</time>
      </trkpt>
      <trkpt lat="42.47348934524924" lon="-7.867452555618689">
        <time>2018-11-30T05:47:06Z</time>
      </trkpt>
      <trkpt lat="42.4735306889291" lon="-7.867392214985659">
        <time>2018-11-30T05:47:06Z</time>
      </trkpt>
      <trkpt lat="42.47364164155582" lon="-7.867230301797182">
        <time>2018-11-30T05:47:06Z</time>
      </trkpt>
      <trkpt lat="42.47368709183252" lon="-7.867183983675695">
        <time>2018-11-30T05:47:06Z</time>
      </trkpt>
      <trkpt lat="42.47380263895709" lon="-7.867052611779043">
        <time>2018-11-30T05:47:06Z</time>
      </trkpt>
      <trkpt lat="42.47394737835489" lon="-7.866941830142938">
        <time>2018-11-30T05:47:06Z</time>
      </trkpt>
      <trkpt lat="42.4740416513768" lon="-7.866810817011834">
        <time>2018-11-30T05:47:06Z</time>
      </trkpt>
      <trkpt lat="42.47410598397831" lon="-7.866722077947578">
        <time>2018-11-30T05:47:06Z</time>
      </trkpt>
      <trkpt lat="42.47417789931885" lon="-7.866546121612585">
        <time>2018-11-30T05:47:06Z</time>
      </trkpt>
      <trkpt lat="42.47416222565111" lon="-7.866495657887737">
        <time>2018-11-30T05:47:06Z</time>
      </trkpt>
      <trkpt lat="42.47418142871252" lon="-7.866487274661893">
        <time>2018-11-30T05:47:06Z</time>
      </trkpt>
      <trkpt lat="42.47419940109598" lon="-7.866461449245527">
        <time>2018-11-30T05:47:06Z</time>
      </trkpt>
      <trkpt lat="42.47425883840248" lon="-7.866382567319007">
        <time>2018-11-30T05:47:06Z</time>
      </trkpt>
      <trkpt lat="42.47426797870245" lon="-7.866369439709108">
        <time>2018-11-30T05:47:06Z</time>
      </trkpt>
      <trkpt lat="42.47429545008784" lon="-7.866264951018658">
        <time>2018-11-30T05:47:06Z</time>
      </trkpt>
      <trkpt lat="42.47429972346697" lon="-7.86625241001869">
        <time>2018-11-30T05:47:06Z</time>
      </trkpt>
      <trkpt lat="42.47434873572716" lon="-7.866131005959884">
        <time>2018-11-30T05:47:06Z</time>
      </trkpt>
      <trkpt lat="42.47436805139519" lon="-7.866109684329912">
        <time>2018-11-30T05:47:06Z</time>
      </trkpt>
      <trkpt lat="42.47438703431592" lon="-7.866082364620027">
        <time>2018-11-30T05:47:06Z</time>
      </trkpt>
      <trkpt lat="42.4744139498783" lon="-7.866017524103361">
        <time>2018-11-30T05:47:06Z</time>
      </trkpt>
      <trkpt lat="42.47451503250325" lon="-7.865864981895546">
        <time>2018-11-30T05:47:06Z</time>
      </trkpt>
      <trkpt lat="42.47454348417732" lon="-7.865816855119502">
        <time>2018-11-30T05:47:06Z</time>
      </trkpt>
      <trkpt lat="42.47456187135956" lon="-7.865776693007216">
        <time>2018-11-30T05:47:06Z</time>
      </trkpt>
      <trkpt lat="42.47458363907544" lon="-7.86571146333791">
        <time>2018-11-30T05:47:06Z</time>
      </trkpt>
      <trkpt lat="42.47459236875974" lon="-7.865685303874445">
        <time>2018-11-30T05:47:06Z</time>
      </trkpt>
      <trkpt lat="42.47460163616778" lon="-7.86566503583151">
        <time>2018-11-30T05:47:06Z</time>
      </trkpt>
      <trkpt lat="42.47461286872752" lon="-7.865601794527527">
        <time>2018-11-30T05:47:06Z</time>
      </trkpt>
      <trkpt lat="42.47462188238341" lon="-7.865575297818451">
        <time>2018-11-30T05:47:06Z</time>
      </trkpt>
      <trkpt lat="42.47463784375633" lon="-7.865498457866289">
        <time>2018-11-30T05:47:06Z</time>
      </trkpt>
      <trkpt lat="42.47465611284584" lon="-7.865457776387274">
        <time>2018-11-30T05:47:06Z</time>
      </trkpt>
      <trkpt lat="42.47466904498956" lon="-7.865418296778431">
        <time>2018-11-30T05:47:06Z</time>
      </trkpt>
      <trkpt lat="42.47467876019064" lon="-7.865403781397554">
        <time>2018-11-30T05:47:06Z</time>
      </trkpt>
      <trkpt lat="42.4746879516489" lon="-7.865383311447199">
        <time>2018-11-30T05:47:06Z</time>
      </trkpt>
      <trkpt lat="42.47470748223977" lon="-7.865347702076587">
        <time>2018-11-30T05:47:06Z</time>
      </trkpt>
      <trkpt lat="42.47475010819095" lon="-7.865305301653224">
        <time>2018-11-30T05:47:06Z</time>
      </trkpt>
      <trkpt lat="42.47480146907109" lon="-7.865210119633349">
        <time>2018-11-30T05:47:06Z</time>
      </trkpt>
      <trkpt lat="42.47481952337347" lon="-7.865123366208316">
        <time>2018-11-30T05:47:06Z</time>
      </trkpt>
      <trkpt lat="42.47481846627201" lon="-7.865104809316982">
        <time>2018-11-30T05:47:06Z</time>
      </trkpt>
      <trkpt lat="42.47482804008087" lon="-7.865070577555606">
        <time>2018-11-30T05:47:06Z</time>
      </trkpt>
      <trkpt lat="42.47485367579663" lon="-7.864999449093427">
        <time>2018-11-30T05:47:06Z</time>
      </trkpt>
      <trkpt lat="42.4748856600051" lon="-7.864938832169895">
        <time>2018-11-30T05:47:06Z</time>
      </trkpt>
      <trkpt lat="42.47490135478888" lon="-7.864902138606857">
        <time>2018-11-30T05:47:06Z</time>
      </trkpt>
      <trkpt lat="42.47493638387348" lon="-7.864851282451081">
        <time>2018-11-30T05:47:06Z</time>
      </trkpt>
      <trkpt lat="42.47495445328709" lon="-7.864825222134796">
        <time>2018-11-30T05:47:06Z</time>
      </trkpt>
      <trkpt lat="42.47500798011188" lon="-7.864740809697835">
        <time>2018-11-30T05:47:06Z</time>
      </trkpt>
      <trkpt lat="42.47501932295621" lon="-7.864730798175874">
        <time>2018-11-30T05:47:06Z</time>
      </trkpt>
      <trkpt lat="42.47506073731289" lon="-7.864701702875995">
        <time>2018-11-30T05:47:06Z</time>
      </trkpt>
      <trkpt lat="42.47510335836083" lon="-7.864684969407184">
        <time>2018-11-30T05:47:06Z</time>
      </trkpt>
      <trkpt lat="42.47517852912216" lon="-7.86466741232012">
        <time>2018-11-30T05:47:06Z</time>
      </trkpt>
      <trkpt lat="42.4752014796642" lon="-7.864681456856254">
        <time>2018-11-30T05:47:06Z</time>
      </trkpt>
      <trkpt lat="42.47526894042704" lon="-7.864677893861884">
        <time>2018-11-30T05:47:06Z</time>
      </trkpt>
      <trkpt lat="42.47529247593928" lon="-7.864684978569056">
        <time>2018-11-30T05:47:06Z</time>
      </trkpt>
      <trkpt lat="42.47546744998125" lon="-7.864697856886298">
        <time>2018-11-30T05:47:06Z</time>
      </trkpt>
      <trkpt lat="42.47552297791528" lon="-7.864696353849563">
        <time>2018-11-30T05:47:06Z</time>
      </trkpt>
      <trkpt lat="42.47561400917824" lon="-7.864665753914927">
        <time>2018-11-30T05:47:06Z</time>
      </trkpt>
      <trkpt lat="42.47560994842768" lon="-7.86461469292602">
        <time>2018-11-30T05:47:06Z</time>
      </trkpt>
      <trkpt lat="42.47566356475907" lon="-7.864511910696282">
        <time>2018-11-30T05:47:06Z</time>
      </trkpt>
      <trkpt lat="42.4757025895512" lon="-7.864411730474014">
        <time>2018-11-30T05:47:06Z</time>
      </trkpt>
      <trkpt lat="42.47575687390835" lon="-7.864366378296431">
        <time>2018-11-30T05:47:06Z</time>
      </trkpt>
      <trkpt lat="42.47576471379955" lon="-7.864347473860125">
        <time>2018-11-30T05:47:06Z</time>
      </trkpt>
      <trkpt lat="42.47580397588074" lon="-7.864252813196558">
        <time>2018-11-30T05:47:06Z</time>
      </trkpt>
      <trkpt lat="42.47584713809125" lon="-7.864139185046598">
        <time>2018-11-30T05:47:06Z</time>
      </trkpt>
      <trkpt lat="42.47585091074071" lon="-7.864126721328061">
        <time>2018-11-30T05:47:06Z</time>
      </trkpt>
      <trkpt lat="42.47585845795579" lon="-7.864101787649079">
        <time>2018-11-30T05:47:06Z</time>
      </trkpt>
      <trkpt lat="42.4758993224539" lon="-7.864017690217551">
        <time>2018-11-30T05:47:06Z</time>
      </trkpt>
      <trkpt lat="42.47589781686857" lon="-7.864006701799045">
        <time>2018-11-30T05:47:06Z</time>
      </trkpt>
      <trkpt lat="42.4759273989426" lon="-7.863959921293886">
        <time>2018-11-30T05:47:06Z</time>
      </trkpt>
      <trkpt lat="42.4759344803543" lon="-7.863935420592019">
        <time>2018-11-30T05:47:06Z</time>
      </trkpt>
      <trkpt lat="42.47594210924373" lon="-7.863910338885387">
        <time>2018-11-30T05:47:06Z</time>
      </trkpt>
      <trkpt lat="42.47596713288215" lon="-7.86385792294344">
        <time>2018-11-30T05:47:06Z</time>
      </trkpt>
      <trkpt lat="42.47598037456213" lon="-7.863837201775908">
        <time>2018-11-30T05:47:06Z</time>
      </trkpt>
      <trkpt lat="42.47598879602043" lon="-7.863817513249879">
        <time>2018-11-30T05:47:06Z</time>
      </trkpt>
      <trkpt lat="42.47602530776023" lon="-7.863773506497077">
        <time>2018-11-30T05:47:06Z</time>
      </trkpt>
      <trkpt lat="42.47602977664413" lon="-7.863766525365794">
        <time>2018-11-30T05:47:06Z</time>
      </trkpt>
      <trkpt lat="42.47605641852992" lon="-7.863718453852584">
        <time>2018-11-30T05:47:06Z</time>
      </trkpt>
      <trkpt lat="42.47606994509903" lon="-7.863697339678405">
        <time>2018-11-30T05:47:06Z</time>
      </trkpt>
      <trkpt lat="42.47612116386839" lon="-7.863637146637843">
        <time>2018-11-30T05:47:06Z</time>
      </trkpt>
      <trkpt lat="42.47624563882241" lon="-7.863509714798022">
        <time>2018-11-30T05:47:06Z</time>
      </trkpt>
      <trkpt lat="42.47632818127342" lon="-7.863488738748245">
        <time>2018-11-30T05:47:06Z</time>
      </trkpt>
      <trkpt lat="42.47643689466126" lon="-7.863429597679444">
        <time>2018-11-30T05:47:06Z</time>
      </trkpt>
      <trkpt lat="42.47646863531263" lon="-7.863401880428189">
        <time>2018-11-30T05:47:06Z</time>
      </trkpt>
      <trkpt lat="42.47647383956089" lon="-7.863394072778013">
        <time>2018-11-30T05:47:06Z</time>
      </trkpt>
      <trkpt lat="42.4765374975754" lon="-7.863358340254613">
        <time>2018-11-30T05:47:06Z</time>
      </trkpt>
      <trkpt lat="42.47655858051227" lon="-7.863346644926097">
        <time>2018-11-30T05:47:06Z</time>
      </trkpt>
      <trkpt lat="42.47662282820052" lon="-7.863310750609788">
        <time>2018-11-30T05:47:06Z</time>
      </trkpt>
      <trkpt lat="42.47665006908967" lon="-7.863297078007477">
        <time>2018-11-30T05:47:06Z</time>
      </trkpt>
      <trkpt lat="42.47665512064918" lon="-7.863289425599181">
        <time>2018-11-30T05:47:06Z</time>
      </trkpt>
      <trkpt lat="42.47669943686918" lon="-7.863264279867294">
        <time>2018-11-30T05:47:06Z</time>
      </trkpt>
      <trkpt lat="42.47678725905873" lon="-7.863188318161009">
        <time>2018-11-30T05:47:06Z</time>
      </trkpt>
      <trkpt lat="42.47680319516488" lon="-7.86316450942039">
        <time>2018-11-30T05:47:06Z</time>
      </trkpt>
      <trkpt lat="42.47681917447596" lon="-7.863140635638368">
        <time>2018-11-30T05:47:06Z</time>
      </trkpt>
      <trkpt lat="42.47688267977955" lon="-7.863045350269053">
        <time>2018-11-30T05:47:06Z</time>
      </trkpt>
      <trkpt lat="42.47689345810809" lon="-7.863029241207319">
        <time>2018-11-30T05:47:06Z</time>
      </trkpt>
      <trkpt lat="42.47699684256891" lon="-7.862959633079777">
        <time>2018-11-30T05:47:06Z</time>
      </trkpt>
      <trkpt lat="42.47700221366942" lon="-7.862861343778879">
        <time>2018-11-30T05:47:06Z</time>
      </trkpt>
      <trkpt lat="42.47700069391561" lon="-7.86284280799587">
        <time>2018-11-30T05:47:06Z</time>
      </trkpt>
      <trkpt lat="42.47698461664081" lon="-7.862683879372389">
        <time>2018-11-30T05:47:06Z</time>
      </trkpt>
      <trkpt lat="42.47697287237407" lon="-7.862574901106338">
        <time>2018-11-30T05:47:06Z</time>
      </trkpt>
      <trkpt lat="42.47696184185119" lon="-7.862455083445744">
        <time>2018-11-30T05:47:06Z</time>
      </trkpt>
      <trkpt lat="42.47695626213622" lon="-7.862359221337253">
        <time>2018-11-30T05:47:06Z</time>
      </trkpt>
      <trkpt lat="42.47693967582781" lon="-7.862251276339382">
        <time>2018-11-30T05:47:06Z</time>
      </trkpt>
      <trkpt lat="42.47692482489509" lon="-7.862144457395893">
        <time>2018-11-30T05:47:06Z</time>
      </trkpt>
      <trkpt lat="42.4768959396029" lon="-7.86206150484886">
        <time>2018-11-30T05:47:06Z</time>
      </trkpt>
      <trkpt lat="42.47688205272663" lon="-7.861990601347141">
        <time>2018-11-30T05:47:06Z</time>
      </trkpt>
      <trkpt lat="42.47682834053874" lon="-7.861874078146103">
        <time>2018-11-30T05:47:06Z</time>
      </trkpt>
      <trkpt lat="42.47681207289845" lon="-7.861768869599378">
        <time>2018-11-30T05:47:06Z</time>
      </trkpt>
      <trkpt lat="42.47680576936585" lon="-7.86167539713462">
        <time>2018-11-30T05:47:06Z</time>
      </trkpt>
      <trkpt lat="42.47680192485132" lon="-7.861622939544098">
        <time>2018-11-30T05:47:06Z</time>
      </trkpt>
      <trkpt lat="42.47680757991434" lon="-7.861511708373644">
        <time>2018-11-30T05:47:06Z</time>
      </trkpt>
      <trkpt lat="42.47684155288938" lon="-7.861381158069127">
        <time>2018-11-30T05:47:06Z</time>
      </trkpt>
      <trkpt lat="42.4769615823887" lon="-7.861183864084768">
        <time>2018-11-30T05:47:06Z</time>
      </trkpt>
      <trkpt lat="42.47697408947229" lon="-7.861100623758386">
        <time>2018-11-30T05:47:06Z</time>
      </trkpt>
      <trkpt lat="42.47698818459459" lon="-7.861034760158832">
        <time>2018-11-30T05:47:06Z</time>
      </trkpt>
      <trkpt lat="42.47698743413522" lon="-7.861023104023294">
        <time>2018-11-30T05:47:06Z</time>
      </trkpt>
      <trkpt lat="42.4770016402791" lon="-7.860939326195999">
        <time>2018-11-30T05:47:06Z</time>
      </trkpt>
      <trkpt lat="42.47701400939292" lon="-7.860902620568382">
        <time>2018-11-30T05:47:06Z</time>
      </trkpt>
      <trkpt lat="42.4770297787461" lon="-7.860841912126738">
        <time>2018-11-30T05:47:06Z</time>
      </trkpt>
      <trkpt lat="42.47702412701278" lon="-7.860830884856681">
        <time>2018-11-30T05:47:06Z</time>
      </trkpt>
      <trkpt lat="42.47700759106236" lon="-7.860803699239853">
        <time>2018-11-30T05:47:06Z</time>
      </trkpt>
      <trkpt lat="42.47700172540152" lon="-7.8607928251437">
        <time>2018-11-30T05:47:06Z</time>
      </trkpt>
      <trkpt lat="42.47695565168945" lon="-7.860769974148644">
        <time>2018-11-30T05:47:06Z</time>
      </trkpt>
      <trkpt lat="42.47693290731793" lon="-7.860726764231619">
        <time>2018-11-30T05:47:06Z</time>
      </trkpt>
      <trkpt lat="42.47694557038361" lon="-7.860701838230946">
        <time>2018-11-30T05:47:06Z</time>
      </trkpt>
      <trkpt lat="42.47695531532215" lon="-7.860624853633019">
        <time>2018-11-30T05:47:06Z</time>
      </trkpt>
      <trkpt lat="42.47691696753797" lon="-7.860486276699032">
        <time>2018-11-30T05:47:06Z</time>
      </trkpt>
      <trkpt lat="42.47691129465797" lon="-7.860400831426734">
        <time>2018-11-30T05:47:06Z</time>
      </trkpt>
      <trkpt lat="42.4769030762333" lon="-7.860350567799014">
        <time>2018-11-30T05:47:06Z</time>
      </trkpt>
      <trkpt lat="42.47686996922987" lon="-7.860207646815156">
        <time>2018-11-30T05:47:06Z</time>
      </trkpt>
      <trkpt lat="42.47687098706567" lon="-7.860146040689985">
        <time>2018-11-30T05:47:06Z</time>
      </trkpt>
      <trkpt lat="42.4768195525949" lon="-7.860013532006739">
        <time>2018-11-30T05:47:06Z</time>
      </trkpt>
      <trkpt lat="42.47675400071455" lon="-7.859950562165128">
        <time>2018-11-30T05:47:06Z</time>
      </trkpt>
      <trkpt lat="42.47668207367498" lon="-7.859837033669463">
        <time>2018-11-30T05:47:06Z</time>
      </trkpt>
      <trkpt lat="42.47662605782917" lon="-7.859732220452788">
        <time>2018-11-30T05:47:06Z</time>
      </trkpt>
      <trkpt lat="42.47659554260282" lon="-7.859652725358071">
        <time>2018-11-30T05:47:06Z</time>
      </trkpt>
      <trkpt lat="42.47656689476379" lon="-7.859523348025613">
        <time>2018-11-30T05:47:06Z</time>
      </trkpt>
      <trkpt lat="42.47656155932418" lon="-7.859506467492492">
        <time>2018-11-30T05:47:06Z</time>
      </trkpt>
      <trkpt lat="42.4765252301255" lon="-7.859405558073341">
        <time>2018-11-30T05:47:06Z</time>
      </trkpt>
      <trkpt lat="42.47651518265215" lon="-7.859383206009351">
        <time>2018-11-30T05:47:06Z</time>
      </trkpt>
      <trkpt lat="42.47647935436011" lon="-7.859294202909101">
        <time>2018-11-30T05:47:06Z</time>
      </trkpt>
      <trkpt lat="42.47647872069864" lon="-7.85928312051401">
        <time>2018-11-30T05:47:06Z</time>
      </trkpt>
      <trkpt lat="42.47644841588932" lon="-7.859211408382167">
        <time>2018-11-30T05:47:06Z</time>
      </trkpt>
      <trkpt lat="42.47641783482727" lon="-7.859123896378764">
        <time>2018-11-30T05:47:06Z</time>
      </trkpt>
      <trkpt lat="42.47640129461252" lon="-7.859026084879494">
        <time>2018-11-30T05:47:06Z</time>
      </trkpt>
      <trkpt lat="42.47639197149297" lon="-7.858988373825544">
        <time>2018-11-30T05:47:06Z</time>
      </trkpt>
      <trkpt lat="42.47638991118139" lon="-7.858944710352387">
        <time>2018-11-30T05:47:06Z</time>
      </trkpt>
      <trkpt lat="42.47637061485965" lon="-7.858890969983651">
        <time>2018-11-30T05:47:06Z</time>
      </trkpt>
      <trkpt lat="42.47634209916084" lon="-7.858826962541655">
        <time>2018-11-30T05:47:06Z</time>
      </trkpt>
      <trkpt lat="42.47632884023386" lon="-7.858811368092803">
        <time>2018-11-30T05:47:06Z</time>
      </trkpt>
      <trkpt lat="42.47630679573551" lon="-7.858741914897128">
        <time>2018-11-30T05:47:06Z</time>
      </trkpt>
      <trkpt lat="42.47629765789124" lon="-7.858677521050144">
        <time>2018-11-30T05:47:06Z</time>
      </trkpt>
      <trkpt lat="42.47628757521394" lon="-7.858656608106987">
        <time>2018-11-30T05:47:06Z</time>
      </trkpt>
      <trkpt lat="42.47625989992535" lon="-7.858561922335952">
        <time>2018-11-30T05:47:06Z</time>
      </trkpt>
      <trkpt lat="42.47624951740843" lon="-7.858525274997419">
        <time>2018-11-30T05:47:06Z</time>
      </trkpt>
      <trkpt lat="42.47622535832769" lon="-7.858463258261802">
        <time>2018-11-30T05:47:06Z</time>
      </trkpt>
      <trkpt lat="42.47622065693586" lon="-7.858453021602662">
        <time>2018-11-30T05:47:06Z</time>
      </trkpt>
      <trkpt lat="42.47620160434626" lon="-7.858406911764813">
        <time>2018-11-30T05:47:06Z</time>
      </trkpt>
      <trkpt lat="42.47619693074606" lon="-7.858396738382687">
        <time>2018-11-30T05:47:06Z</time>
      </trkpt>
      <trkpt lat="42.476193860473" lon="-7.858338656800413">
        <time>2018-11-30T05:47:06Z</time>
      </trkpt>
      <trkpt lat="42.47619153435602" lon="-7.858291127558221">
        <time>2018-11-30T05:47:06Z</time>
      </trkpt>
      <trkpt lat="42.47618975680441" lon="-7.858259559259096">
        <time>2018-11-30T05:47:06Z</time>
      </trkpt>
      <trkpt lat="42.47617610831641" lon="-7.85808152077621">
        <time>2018-11-30T05:47:06Z</time>
      </trkpt>
      <trkpt lat="42.4761645708967" lon="-7.857976552533422">
        <time>2018-11-30T05:47:06Z</time>
      </trkpt>
      <trkpt lat="42.47613690901184" lon="-7.85786860398794">
        <time>2018-11-30T05:47:06Z</time>
      </trkpt>
      <trkpt lat="42.47612311285039" lon="-7.857765996049004">
        <time>2018-11-30T05:47:06Z</time>
      </trkpt>
      <trkpt lat="42.47612255754348" lon="-7.857649666135003">
        <time>2018-11-30T05:47:06Z</time>
      </trkpt>
      <trkpt lat="42.47611061246642" lon="-7.857545729345288">
        <time>2018-11-30T05:47:06Z</time>
      </trkpt>
      <trkpt lat="42.47610965844944" lon="-7.857519359342796">
        <time>2018-11-30T05:47:06Z</time>
      </trkpt>
      <trkpt lat="42.47610876740008" lon="-7.857492908838269">
        <time>2018-11-30T05:47:06Z</time>
      </trkpt>
      <trkpt lat="42.47610429192425" lon="-7.857338398455511">
        <time>2018-11-30T05:47:06Z</time>
      </trkpt>
      <trkpt lat="42.47610406568431" lon="-7.857333161416409">
        <time>2018-11-30T05:47:06Z</time>
      </trkpt>
      <trkpt lat="42.47609807833945" lon="-7.857225085507047">
        <time>2018-11-30T05:47:06Z</time>
      </trkpt>
      <trkpt lat="42.47609164304119" lon="-7.857185150762106">
        <time>2018-11-30T05:47:06Z</time>
      </trkpt>
      <trkpt lat="42.47609095992734" lon="-7.85716950668827">
        <time>2018-11-30T05:47:06Z</time>
      </trkpt>
      <trkpt lat="42.4760881928824" lon="-7.857101426902061">
        <time>2018-11-30T05:47:06Z</time>
      </trkpt>
      <trkpt lat="42.47608735452396" lon="-7.857080460528854">
        <time>2018-11-30T05:47:06Z</time>
      </trkpt>
      <trkpt lat="42.4760803243924" lon="-7.857008234497278">
        <time>2018-11-30T05:47:06Z</time>
      </trkpt>
      <trkpt lat="42.47607126204505" lon="-7.856989681334982">
        <time>2018-11-30T05:47:06Z</time>
      </trkpt>
      <trkpt lat="42.47605976298498" lon="-7.856858739862247">
        <time>2018-11-30T05:47:06Z</time>
      </trkpt>
      <trkpt lat="42.4760583992522" lon="-7.856816399181735">
        <time>2018-11-30T05:47:06Z</time>
      </trkpt>
      <trkpt lat="42.47605467377185" lon="-7.856699779651662">
        <time>2018-11-30T05:47:06Z</time>
      </trkpt>
      <trkpt lat="42.47605280863451" lon="-7.856641400019964">
        <time>2018-11-30T05:47:06Z</time>
      </trkpt>
      <trkpt lat="42.47604255941003" lon="-7.856574885975562">
        <time>2018-11-30T05:47:06Z</time>
      </trkpt>
      <trkpt lat="42.47604185644126" lon="-7.856553699530303">
        <time>2018-11-30T05:47:06Z</time>
      </trkpt>
      <trkpt lat="42.47602374887163" lon="-7.856495228705471">
        <time>2018-11-30T05:47:06Z</time>
      </trkpt>
      <trkpt lat="42.47601902581273" lon="-7.856475418041092">
        <time>2018-11-30T05:47:06Z</time>
      </trkpt>
      <trkpt lat="42.4760182974116" lon="-7.856454315161818">
        <time>2018-11-30T05:47:06Z</time>
      </trkpt>
      <trkpt lat="42.47600684833935" lon="-7.856385475980923">
        <time>2018-11-30T05:47:06Z</time>
      </trkpt>
      <trkpt lat="42.47600596541397" lon="-7.856370541192077">
        <time>2018-11-30T05:47:06Z</time>
      </trkpt>
      <trkpt lat="42.47600051476152" lon="-7.856341292403267">
        <time>2018-11-30T05:47:06Z</time>
      </trkpt>
      <trkpt lat="42.47597509493785" lon="-7.85630791010533">
        <time>2018-11-30T05:47:06Z</time>
      </trkpt>
      <trkpt lat="42.47597033835047" lon="-7.856294259173765">
        <time>2018-11-30T05:47:06Z</time>
      </trkpt>
      <trkpt lat="42.47596956151874" lon="-7.856279163300963">
        <time>2018-11-30T05:47:06Z</time>
      </trkpt>
      <trkpt lat="42.47592976619423" lon="-7.856166260322687">
        <time>2018-11-30T05:47:06Z</time>
      </trkpt>
      <trkpt lat="42.47592004217696" lon="-7.856117107603891">
        <time>2018-11-30T05:47:06Z</time>
      </trkpt>
      <trkpt lat="42.475919230357" lon="-7.85609645939413">
        <time>2018-11-30T05:47:06Z</time>
      </trkpt>
      <trkpt lat="42.47591355607383" lon="-7.856051304526135">
        <time>2018-11-30T05:47:06Z</time>
      </trkpt>
      <trkpt lat="42.47588361469189" lon="-7.856010185537731">
        <time>2018-11-30T05:47:06Z</time>
      </trkpt>
      <trkpt lat="42.47584728153582" lon="-7.855875847761667">
        <time>2018-11-30T05:47:06Z</time>
      </trkpt>
      <trkpt lat="42.47584620630349" lon="-7.855853972290722">
        <time>2018-11-30T05:47:06Z</time>
      </trkpt>
      <trkpt lat="42.47583663894544" lon="-7.855832962568061">
        <time>2018-11-30T05:47:06Z</time>
      </trkpt>
      <trkpt lat="42.47582361137836" lon="-7.855741076698828">
        <time>2018-11-30T05:47:06Z</time>
      </trkpt>
      <trkpt lat="42.47579087577655" lon="-7.855684597544984">
        <time>2018-11-30T05:47:06Z</time>
      </trkpt>
      <trkpt lat="42.47578583945946" lon="-7.855668796953898">
        <time>2018-11-30T05:47:06Z</time>
      </trkpt>
      <trkpt lat="42.47578054830507" lon="-7.855647581892291">
        <time>2018-11-30T05:47:06Z</time>
      </trkpt>
      <trkpt lat="42.47574567423526" lon="-7.855526297749153">
        <time>2018-11-30T05:47:06Z</time>
      </trkpt>
      <trkpt lat="42.47574050250555" lon="-7.855499620517579">
        <time>2018-11-30T05:47:06Z</time>
      </trkpt>
      <trkpt lat="42.47570810248174" lon="-7.85541655611837">
        <time>2018-11-30T05:47:06Z</time>
      </trkpt>
      <trkpt lat="42.47570766231048" lon="-7.855405724215535">
        <time>2018-11-30T05:47:06Z</time>
      </trkpt>
      <trkpt lat="42.4756893430686" lon="-7.855308966149206">
        <time>2018-11-30T05:47:06Z</time>
      </trkpt>
      <trkpt lat="42.47568910317251" lon="-7.855297979292732">
        <time>2018-11-30T05:47:06Z</time>
      </trkpt>
      <trkpt lat="42.47568420864776" lon="-7.855260046125554">
        <time>2018-11-30T05:47:06Z</time>
      </trkpt>
      <trkpt lat="42.47567979420058" lon="-7.855244097109616">
        <time>2018-11-30T05:47:06Z</time>
      </trkpt>
      <trkpt lat="42.47567678152579" lon="-7.855173805835975">
        <time>2018-11-30T05:47:06Z</time>
      </trkpt>
      <trkpt lat="42.47564817446476" lon="-7.855074639230317">
        <time>2018-11-30T05:47:06Z</time>
      </trkpt>
      <trkpt lat="42.47564400246818" lon="-7.855069747436198">
        <time>2018-11-30T05:47:06Z</time>
      </trkpt>
      <trkpt lat="42.47563638927612" lon="-7.854983981223715">
        <time>2018-11-30T05:47:06Z</time>
      </trkpt>
      <trkpt lat="42.47563570087721" lon="-7.854967810253612">
        <time>2018-11-30T05:47:06Z</time>
      </trkpt>
      <trkpt lat="42.47562935143921" lon="-7.854892000334031">
        <time>2018-11-30T05:47:06Z</time>
      </trkpt>
      <trkpt lat="42.47562479386382" lon="-7.854876293792613">
        <time>2018-11-30T05:47:06Z</time>
      </trkpt>
      <trkpt lat="42.4756109634161" lon="-7.854823750609708">
        <time>2018-11-30T05:47:06Z</time>
      </trkpt>
      <trkpt lat="42.47560219980436" lon="-7.854803305518939">
        <time>2018-11-30T05:47:06Z</time>
      </trkpt>
      <trkpt lat="42.47558858463051" lon="-7.854756277843045">
        <time>2018-11-30T05:47:06Z</time>
      </trkpt>
      <trkpt lat="42.47557543677975" lon="-7.854697327982551">
        <time>2018-11-30T05:47:06Z</time>
      </trkpt>
      <trkpt lat="42.47557101262767" lon="-7.854675830705483">
        <time>2018-11-30T05:47:06Z</time>
      </trkpt>
      <trkpt lat="42.47557064974964" lon="-7.854659248020129">
        <time>2018-11-30T05:47:06Z</time>
      </trkpt>
      <trkpt lat="42.47556630560916" lon="-7.854597664152763">
        <time>2018-11-30T05:47:06Z</time>
      </trkpt>
      <trkpt lat="42.47556018930305" lon="-7.854458151208416">
        <time>2018-11-30T05:47:06Z</time>
      </trkpt>
      <trkpt lat="42.4755920778107" lon="-7.854362021799562">
        <time>2018-11-30T05:47:06Z</time>
      </trkpt>
      <trkpt lat="42.47566530767594" lon="-7.854221728762995">
        <time>2018-11-30T05:47:06Z</time>
      </trkpt>
      <trkpt lat="42.47567392856364" lon="-7.854215178583885">
        <time>2018-11-30T05:47:06Z</time>
      </trkpt>
      <trkpt lat="42.47568610468984" lon="-7.85419161011423">
        <time>2018-11-30T05:47:06Z</time>
      </trkpt>
      <trkpt lat="42.47576761604005" lon="-7.854126229983461">
        <time>2018-11-30T05:47:06Z</time>
      </trkpt>
      <trkpt lat="42.47578508552574" lon="-7.854112868169565">
        <time>2018-11-30T05:47:06Z</time>
      </trkpt>
      <trkpt lat="42.47582724331106" lon="-7.85404012969572">
        <time>2018-11-30T05:47:06Z</time>
      </trkpt>
      <trkpt lat="42.47584986202124" lon="-7.854002858849452">
        <time>2018-11-30T05:47:06Z</time>
      </trkpt>
      <trkpt lat="42.47588435771834" lon="-7.853895357507573">
        <time>2018-11-30T05:47:06Z</time>
      </trkpt>
      <trkpt lat="42.47589265653522" lon="-7.853877185954921">
        <time>2018-11-30T05:47:06Z</time>
      </trkpt>
      <trkpt lat="42.47589981653574" lon="-7.853842284467191">
        <time>2018-11-30T05:47:06Z</time>
      </trkpt>
      <trkpt lat="42.47594920183357" lon="-7.853771573620493">
        <time>2018-11-30T05:47:06Z</time>
      </trkpt>
      <trkpt lat="42.47595848092203" lon="-7.853764315411799">
        <time>2018-11-30T05:47:06Z</time>
      </trkpt>
      <trkpt lat="42.47597207460556" lon="-7.853744860926666">
        <time>2018-11-30T05:47:06Z</time>
      </trkpt>
      <trkpt lat="42.47603238418646" lon="-7.853682814905855">
        <time>2018-11-30T05:47:06Z</time>
      </trkpt>
      <trkpt lat="42.47604147015615" lon="-7.853657964443956">
        <time>2018-11-30T05:47:06Z</time>
      </trkpt>
      <trkpt lat="42.47609325511198" lon="-7.853560816361328">
        <time>2018-11-30T05:47:06Z</time>
      </trkpt>
      <trkpt lat="42.4761078048402" lon="-7.853546327249927">
        <time>2018-11-30T05:47:06Z</time>
      </trkpt>
      <trkpt lat="42.47614129005417" lon="-7.853504802557433">
        <time>2018-11-30T05:47:06Z</time>
      </trkpt>
      <trkpt lat="42.4762200571914" lon="-7.853438654694966">
        <time>2018-11-30T05:47:06Z</time>
      </trkpt>
      <trkpt lat="42.47622968551414" lon="-7.853436989112294">
        <time>2018-11-30T05:47:06Z</time>
      </trkpt>
      <trkpt lat="42.47629862103354" lon="-7.853372471912831">
        <time>2018-11-30T05:47:06Z</time>
      </trkpt>
      <trkpt lat="42.47630309942078" lon="-7.853365821902458">
        <time>2018-11-30T05:47:06Z</time>
      </trkpt>
      <trkpt lat="42.47634733518611" lon="-7.853269170597169">
        <time>2018-11-30T05:47:06Z</time>
      </trkpt>
      <trkpt lat="42.4763565794394" lon="-7.853255588320476">
        <time>2018-11-30T05:47:06Z</time>
      </trkpt>
      <trkpt lat="42.47642666198615" lon="-7.853152826878739">
        <time>2018-11-30T05:47:06Z</time>
      </trkpt>
      <trkpt lat="42.47645568175195" lon="-7.853123110784424">
        <time>2018-11-30T05:47:06Z</time>
      </trkpt>
      <trkpt lat="42.47651186315787" lon="-7.853111616262081">
        <time>2018-11-30T05:47:06Z</time>
      </trkpt>
      <trkpt lat="42.47652157041916" lon="-7.853097565562447">
        <time>2018-11-30T05:47:06Z</time>
      </trkpt>
      <trkpt lat="42.47654133152759" lon="-7.853075366396272">
        <time>2018-11-30T05:47:06Z</time>
      </trkpt>
      <trkpt lat="42.47656669812405" lon="-7.853045532099239">
        <time>2018-11-30T05:47:06Z</time>
      </trkpt>
      <trkpt lat="42.47663746730797" lon="-7.853000670521436">
        <time>2018-11-30T05:47:06Z</time>
      </trkpt>
      <trkpt lat="42.47665277666247" lon="-7.852997665667091">
        <time>2018-11-30T05:47:06Z</time>
      </trkpt>
      <trkpt lat="42.47668284213216" lon="-7.852967039453746">
        <time>2018-11-30T05:47:06Z</time>
      </trkpt>
      <trkpt lat="42.47674475705098" lon="-7.852954765838941">
        <time>2018-11-30T05:47:06Z</time>
      </trkpt>
      <trkpt lat="42.476760165382" lon="-7.85294549119306">
        <time>2018-11-30T05:47:06Z</time>
      </trkpt>
      <trkpt lat="42.47678554809674" lon="-7.852915511639989">
        <time>2018-11-30T05:47:06Z</time>
      </trkpt>
      <trkpt lat="42.47685674692068" lon="-7.852880594789519">
        <time>2018-11-30T05:47:06Z</time>
      </trkpt>
      <trkpt lat="42.47687889663342" lon="-7.852862853447164">
        <time>2018-11-30T05:47:06Z</time>
      </trkpt>
      <trkpt lat="42.47689543958122" lon="-7.852840009004036">
        <time>2018-11-30T05:47:06Z</time>
      </trkpt>
      <trkpt lat="42.47694623336844" lon="-7.85277681733292">
        <time>2018-11-30T05:47:06Z</time>
      </trkpt>
      <trkpt lat="42.47699225643132" lon="-7.85270755198894">
        <time>2018-11-30T05:47:06Z</time>
      </trkpt>
      <trkpt lat="42.47699117362244" lon="-7.852637216226216">
        <time>2018-11-30T05:47:06Z</time>
      </trkpt>
      <trkpt lat="42.47697917621543" lon="-7.852608147301458">
        <time>2018-11-30T05:47:06Z</time>
      </trkpt>
      <trkpt lat="42.47697309083325" lon="-7.852590469478713">
        <time>2018-11-30T05:47:06Z</time>
      </trkpt>
      <trkpt lat="42.4769548472169" lon="-7.852544003906463">
        <time>2018-11-30T05:47:06Z</time>
      </trkpt>
      <trkpt lat="42.47691379245015" lon="-7.852490877117825">
        <time>2018-11-30T05:47:06Z</time>
      </trkpt>
      <trkpt lat="42.47689668071356" lon="-7.852476159930446">
        <time>2018-11-30T05:47:06Z</time>
      </trkpt>
      <trkpt lat="42.4768907332432" lon="-7.85246503596191">
        <time>2018-11-30T05:47:06Z</time>
      </trkpt>
      <trkpt lat="42.47684490766371" lon="-7.852413599091207">
        <time>2018-11-30T05:47:06Z</time>
      </trkpt>
      <trkpt lat="42.47682802709095" lon="-7.852399026482397">
        <time>2018-11-30T05:47:06Z</time>
      </trkpt>
      <trkpt lat="42.47681775935152" lon="-7.852382011798776">
        <time>2018-11-30T05:47:06Z</time>
      </trkpt>
      <trkpt lat="42.47672582338517" lon="-7.852297569165519">
        <time>2018-11-30T05:47:06Z</time>
      </trkpt>
      <trkpt lat="42.47670934286649" lon="-7.852283164925209">
        <time>2018-11-30T05:47:06Z</time>
      </trkpt>
      <trkpt lat="42.47666603995658" lon="-7.852270009834632">
        <time>2018-11-30T05:47:06Z</time>
      </trkpt>
      <trkpt lat="42.47662943717359" lon="-7.852311571847873">
        <time>2018-11-30T05:47:06Z</time>
      </trkpt>
      <trkpt lat="42.47659793649974" lon="-7.85233915845714">
        <time>2018-11-30T05:47:06Z</time>
      </trkpt>
      <trkpt lat="42.47657132073854" lon="-7.852365712795098">
        <time>2018-11-30T05:47:06Z</time>
      </trkpt>
      <trkpt lat="42.47656092867028" lon="-7.852374809378975">
        <time>2018-11-30T05:47:06Z</time>
      </trkpt>
      <trkpt lat="42.47646507882026" lon="-7.852453022279361">
        <time>2018-11-30T05:47:06Z</time>
      </trkpt>
      <trkpt lat="42.47643360325579" lon="-7.852474546138476">
        <time>2018-11-30T05:47:06Z</time>
      </trkpt>
      <trkpt lat="42.47641286030024" lon="-7.852499044858768">
        <time>2018-11-30T05:47:06Z</time>
      </trkpt>
      <trkpt lat="42.4763871516272" lon="-7.85250617284566">
        <time>2018-11-30T05:47:06Z</time>
      </trkpt>
      <trkpt lat="42.47630165552283" lon="-7.852553723718528">
        <time>2018-11-30T05:47:06Z</time>
      </trkpt>
      <trkpt lat="42.47628751378879" lon="-7.85257526517129">
        <time>2018-11-30T05:47:06Z</time>
      </trkpt>
      <trkpt lat="42.47627798954839" lon="-7.852583581712375">
        <time>2018-11-30T05:47:06Z</time>
      </trkpt>
      <trkpt lat="42.47605417538852" lon="-7.852736821096907">
        <time>2018-11-30T05:47:06Z</time>
      </trkpt>
      <trkpt lat="42.47603051415498" lon="-7.852754783731547">
        <time>2018-11-30T05:47:06Z</time>
      </trkpt>
      <trkpt lat="42.47600691277838" lon="-7.852778727339933">
        <time>2018-11-30T05:47:06Z</time>
      </trkpt>
      <trkpt lat="42.47586242136788" lon="-7.852951408808897">
        <time>2018-11-30T05:47:06Z</time>
      </trkpt>
      <trkpt lat="42.47584837350578" lon="-7.852972734578118">
        <time>2018-11-30T05:47:06Z</time>
      </trkpt>
      <trkpt lat="42.4758389758198" lon="-7.852981098834415">
        <time>2018-11-30T05:47:06Z</time>
      </trkpt>
      <trkpt lat="42.47577678314787" lon="-7.85306488891368">
        <time>2018-11-30T05:47:06Z</time>
      </trkpt>
      <trkpt lat="42.47576414211183" lon="-7.853090368112451">
        <time>2018-11-30T05:47:06Z</time>
      </trkpt>
      <trkpt lat="42.4757510037196" lon="-7.853098924182044">
        <time>2018-11-30T05:47:06Z</time>
      </trkpt>
      <trkpt lat="42.47573843261753" lon="-7.853124287543775">
        <time>2018-11-30T05:47:06Z</time>
      </trkpt>
      <trkpt lat="42.47572200283845" lon="-7.853167345786586">
        <time>2018-11-30T05:47:06Z</time>
      </trkpt>
      <trkpt lat="42.47551601047698" lon="-7.853391991070032">
        <time>2018-11-30T05:47:06Z</time>
      </trkpt>
      <trkpt lat="42.47549932706091" lon="-7.853412065003287">
        <time>2018-11-30T05:47:06Z</time>
      </trkpt>
      <trkpt lat="42.47547877779683" lon="-7.853438218741022">
        <time>2018-11-30T05:47:06Z</time>
      </trkpt>
      <trkpt lat="42.47547471127851" lon="-7.853444524393073">
        <time>2018-11-30T05:47:06Z</time>
      </trkpt>
      <trkpt lat="42.47538414922082" lon="-7.853511675881443">
        <time>2018-11-30T05:47:06Z</time>
      </trkpt>
      <trkpt lat="42.47537594996778" lon="-7.853518789583371">
        <time>2018-11-30T05:47:06Z</time>
      </trkpt>
      <trkpt lat="42.47535163441118" lon="-7.853550934142735">
        <time>2018-11-30T05:47:06Z</time>
      </trkpt>
      <trkpt lat="42.47532331384245" lon="-7.853578212906652">
        <time>2018-11-30T05:47:06Z</time>
      </trkpt>
      <trkpt lat="42.47522120538853" lon="-7.853682575395833">
        <time>2018-11-30T05:47:06Z</time>
      </trkpt>
      <trkpt lat="42.47520580269616" lon="-7.85369579093027">
        <time>2018-11-30T05:47:06Z</time>
      </trkpt>
      <trkpt lat="42.47519028416847" lon="-7.853709153505196">
        <time>2018-11-30T05:47:06Z</time>
      </trkpt>
      <trkpt lat="42.47516729297019" lon="-7.85373432929315">
        <time>2018-11-30T05:47:06Z</time>
      </trkpt>
      <trkpt lat="42.47515610400742" lon="-7.853751992132442">
        <time>2018-11-30T05:47:06Z</time>
      </trkpt>
      <trkpt lat="42.47514474361024" lon="-7.85376442212095">
        <time>2018-11-30T05:47:06Z</time>
      </trkpt>
      <trkpt lat="42.47500954332287" lon="-7.853880414303909">
        <time>2018-11-30T05:47:06Z</time>
      </trkpt>
      <trkpt lat="42.4749948675931" lon="-7.853892974485893">
        <time>2018-11-30T05:47:06Z</time>
      </trkpt>
      <trkpt lat="42.47498395568208" lon="-7.853904955833287">
        <time>2018-11-30T05:47:06Z</time>
      </trkpt>
      <trkpt lat="42.47496208223706" lon="-7.853923669960585">
        <time>2018-11-30T05:47:06Z</time>
      </trkpt>
      <trkpt lat="42.47495111841288" lon="-7.853930417184605">
        <time>2018-11-30T05:47:06Z</time>
      </trkpt>
      <trkpt lat="42.47487737093403" lon="-7.853967876602562">
        <time>2018-11-30T05:47:06Z</time>
      </trkpt>
      <trkpt lat="42.47486656784671" lon="-7.853979844149746">
        <time>2018-11-30T05:47:06Z</time>
      </trkpt>
      <trkpt lat="42.47479890742812" lon="-7.854040837947488">
        <time>2018-11-30T05:47:06Z</time>
      </trkpt>
      <trkpt lat="42.47478838108159" lon="-7.854052507651921">
        <time>2018-11-30T05:47:06Z</time>
      </trkpt>
      <trkpt lat="42.47477460598424" lon="-7.854074687490057">
        <time>2018-11-30T05:47:06Z</time>
      </trkpt>
      <trkpt lat="42.47475356268868" lon="-7.854092829820624">
        <time>2018-11-30T05:47:06Z</time>
      </trkpt>
      <trkpt lat="42.47464013280505" lon="-7.854193031014627">
        <time>2018-11-30T05:47:06Z</time>
      </trkpt>
      <trkpt lat="42.47451367482069" lon="-7.854326061866291">
        <time>2018-11-30T05:47:06Z</time>
      </trkpt>
      <trkpt lat="42.47438321128414" lon="-7.854444804752426">
        <time>2018-11-30T05:47:06Z</time>
      </trkpt>
      <trkpt lat="42.4742648647268" lon="-7.854542488206221">
        <time>2018-11-30T05:47:06Z</time>
      </trkpt>
      <trkpt lat="42.47424626891768" lon="-7.854561306769099">
        <time>2018-11-30T05:47:06Z</time>
      </trkpt>
      <trkpt lat="42.47419066566123" lon="-7.854611671332159">
        <time>2018-11-30T05:47:06Z</time>
      </trkpt>
      <trkpt lat="42.4741675585561" lon="-7.854624952164553">
        <time>2018-11-30T05:47:06Z</time>
      </trkpt>
      <trkpt lat="42.47415847377243" lon="-7.854637009736754">
        <time>2018-11-30T05:47:06Z</time>
      </trkpt>
      <trkpt lat="42.47408093080679" lon="-7.854682650410384">
        <time>2018-11-30T05:47:06Z</time>
      </trkpt>
      <trkpt lat="42.47397972342187" lon="-7.854779177154752">
        <time>2018-11-30T05:47:06Z</time>
      </trkpt>
      <trkpt lat="42.47396697248237" lon="-7.854796633532025">
        <time>2018-11-30T05:47:06Z</time>
      </trkpt>
      <trkpt lat="42.47393667875172" lon="-7.854815223183743">
        <time>2018-11-30T05:47:06Z</time>
      </trkpt>
      <trkpt lat="42.47387715191794" lon="-7.854868429485338">
        <time>2018-11-30T05:47:06Z</time>
      </trkpt>
      <trkpt lat="42.47386882921529" lon="-7.854879869445647">
        <time>2018-11-30T05:47:06Z</time>
      </trkpt>
      <trkpt lat="42.47381323572874" lon="-7.854926613531379">
        <time>2018-11-30T05:47:06Z</time>
      </trkpt>
      <trkpt lat="42.47375469497495" lon="-7.854994476131538">
        <time>2018-11-30T05:47:06Z</time>
      </trkpt>
      <trkpt lat="42.47373474953837" lon="-7.855017039808685">
        <time>2018-11-30T05:47:06Z</time>
      </trkpt>
      <trkpt lat="42.47372667443431" lon="-7.855022824965159">
        <time>2018-11-30T05:47:06Z</time>
      </trkpt>
      <trkpt lat="42.4736589246493" lon="-7.855095550344987">
        <time>2018-11-30T05:47:06Z</time>
      </trkpt>
      <trkpt lat="42.47364254167901" lon="-7.855101544421073">
        <time>2018-11-30T05:47:06Z</time>
      </trkpt>
      <trkpt lat="42.47361819687853" lon="-7.855113155390029">
        <time>2018-11-30T05:47:06Z</time>
      </trkpt>
      <trkpt lat="42.47353416165111" lon="-7.855153400665431">
        <time>2018-11-30T05:47:06Z</time>
      </trkpt>
      <trkpt lat="42.47351847914362" lon="-7.855164498529229">
        <time>2018-11-30T05:47:06Z</time>
      </trkpt>
      <trkpt lat="42.4735029697735" lon="-7.855180782611631">
        <time>2018-11-30T05:47:06Z</time>
      </trkpt>
      <trkpt lat="42.47349488749074" lon="-7.855181033992357">
        <time>2018-11-30T05:47:06Z</time>
      </trkpt>
      <trkpt lat="42.47346428951324" lon="-7.855218640162455">
        <time>2018-11-30T05:47:06Z</time>
      </trkpt>
      <trkpt lat="42.47345266950072" lon="-7.855229395099826">
        <time>2018-11-30T05:47:06Z</time>
      </trkpt>
      <trkpt lat="42.47344883551281" lon="-7.855234699375785">
        <time>2018-11-30T05:47:06Z</time>
      </trkpt>
      <trkpt lat="42.47340985415303" lon="-7.855261595947225">
        <time>2018-11-30T05:47:06Z</time>
      </trkpt>
      <trkpt lat="42.47339452613301" lon="-7.855277453997798">
        <time>2018-11-30T05:47:06Z</time>
      </trkpt>
      <trkpt lat="42.47337908596597" lon="-7.85528809820919">
        <time>2018-11-30T05:47:06Z</time>
      </trkpt>
      <trkpt lat="42.47332198833227" lon="-7.855345458968913">
        <time>2018-11-30T05:47:06Z</time>
      </trkpt>
      <trkpt lat="42.47330705855381" lon="-7.855361042018273">
        <time>2018-11-30T05:47:06Z</time>
      </trkpt>
      <trkpt lat="42.47328461796541" lon="-7.855376739465624">
        <time>2018-11-30T05:47:06Z</time>
      </trkpt>
      <trkpt lat="42.473273336559" lon="-7.855382005585065">
        <time>2018-11-30T05:47:06Z</time>
      </trkpt>
      <trkpt lat="42.47319477659455" lon="-7.855423211970819">
        <time>2018-11-30T05:47:06Z</time>
      </trkpt>
      <trkpt lat="42.47317258530964" lon="-7.855438350393395">
        <time>2018-11-30T05:47:06Z</time>
      </trkpt>
      <trkpt lat="42.47315785820281" lon="-7.855448396904547">
        <time>2018-11-30T05:47:06Z</time>
      </trkpt>
      <trkpt lat="42.47309946311844" lon="-7.855459199555851">
        <time>2018-11-30T05:47:06Z</time>
      </trkpt>
      <trkpt lat="42.47307782716096" lon="-7.85546451386927">
        <time>2018-11-30T05:47:06Z</time>
      </trkpt>
      <trkpt lat="42.4730021826002" lon="-7.855494213990703">
        <time>2018-11-30T05:47:06Z</time>
      </trkpt>
      <trkpt lat="42.47297081325681" lon="-7.855537818179972">
        <time>2018-11-30T05:47:06Z</time>
      </trkpt>
      <trkpt lat="42.47294989359338" lon="-7.85556642519334">
        <time>2018-11-30T05:47:06Z</time>
      </trkpt>
      <trkpt lat="42.47292537797194" lon="-7.855580620326768">
        <time>2018-11-30T05:47:06Z</time>
      </trkpt>
      <trkpt lat="42.47289093085392" lon="-7.855622794823054">
        <time>2018-11-30T05:47:06Z</time>
      </trkpt>
      <trkpt lat="42.47282130349042" lon="-7.855616050953701">
        <time>2018-11-30T05:47:06Z</time>
      </trkpt>
      <trkpt lat="42.4728086278102" lon="-7.855621504707909">
        <time>2018-11-30T05:47:06Z</time>
      </trkpt>
      <trkpt lat="42.47279176955988" lon="-7.855632310226289">
        <time>2018-11-30T05:47:06Z</time>
      </trkpt>
      <trkpt lat="42.4727121000811" lon="-7.855675031934021">
        <time>2018-11-30T05:47:06Z</time>
      </trkpt>
      <trkpt lat="42.47262119423969" lon="-7.85571171386969">
        <time>2018-11-30T05:47:06Z</time>
      </trkpt>
      <trkpt lat="42.47259668498888" lon="-7.855727276686745">
        <time>2018-11-30T05:47:06Z</time>
      </trkpt>
      <trkpt lat="42.47256820524891" lon="-7.855737533852471">
        <time>2018-11-30T05:47:06Z</time>
      </trkpt>
      <trkpt lat="42.47254822390491" lon="-7.855758277598782">
        <time>2018-11-30T05:47:06Z</time>
      </trkpt>
      <trkpt lat="42.47252513057682" lon="-7.855779478477435">
        <time>2018-11-30T05:47:06Z</time>
      </trkpt>
      <trkpt lat="42.47244076695709" lon="-7.855837534484287">
        <time>2018-11-30T05:47:06Z</time>
      </trkpt>
      <trkpt lat="42.47239477716826" lon="-7.855873547047418">
        <time>2018-11-30T05:47:06Z</time>
      </trkpt>
      <trkpt lat="42.47231810857962" lon="-7.855933676454002">
        <time>2018-11-30T05:47:06Z</time>
      </trkpt>
      <trkpt lat="42.47231079787412" lon="-7.855953874769872">
        <time>2018-11-30T05:47:06Z</time>
      </trkpt>
      <trkpt lat="42.47229973550015" lon="-7.855978994559141">
        <time>2018-11-30T05:47:06Z</time>
      </trkpt>
      <trkpt lat="42.4722885806865" lon="-7.855998950365488">
        <time>2018-11-30T05:47:06Z</time>
      </trkpt>
      <trkpt lat="42.47222930120614" lon="-7.856058464239197">
        <time>2018-11-30T05:47:06Z</time>
      </trkpt>
      <trkpt lat="42.47215893667435" lon="-7.856096843037946">
        <time>2018-11-30T05:47:06Z</time>
      </trkpt>
      <trkpt lat="42.47213309239051" lon="-7.856106083215769">
        <time>2018-11-30T05:47:06Z</time>
      </trkpt>
      <trkpt lat="42.4721258254702" lon="-7.856110912418987">
        <time>2018-11-30T05:47:06Z</time>
      </trkpt>
      <trkpt lat="42.4721150504434" lon="-7.856115919030222">
        <time>2018-11-30T05:47:06Z</time>
      </trkpt>
      <trkpt lat="42.472054020778" lon="-7.856145282077086">
        <time>2018-11-30T05:47:06Z</time>
      </trkpt>
      <trkpt lat="42.47203936945255" lon="-7.856149556887601">
        <time>2018-11-30T05:47:06Z</time>
      </trkpt>
      <trkpt lat="42.47195861898182" lon="-7.856150146984953">
        <time>2018-11-30T05:47:06Z</time>
      </trkpt>
      <trkpt lat="42.47186414232662" lon="-7.856326842674263">
        <time>2018-11-30T05:47:06Z</time>
      </trkpt>
      <trkpt lat="42.4717607763352" lon="-7.856290813927637">
        <time>2018-11-30T05:47:06Z</time>
      </trkpt>
      <trkpt lat="42.47175043703561" lon="-7.856294828543477">
        <time>2018-11-30T05:47:06Z</time>
      </trkpt>
      <trkpt lat="42.4716691645604" lon="-7.85633311221449">
        <time>2018-11-30T05:47:06Z</time>
      </trkpt>
      <trkpt lat="42.47157341239223" lon="-7.85640571526732">
        <time>2018-11-30T05:47:06Z</time>
      </trkpt>
      <trkpt lat="42.4714833814908" lon="-7.856471671500715">
        <time>2018-11-30T05:47:06Z</time>
      </trkpt>
      <trkpt lat="42.47147485875097" lon="-7.856476600244088">
        <time>2018-11-30T05:47:06Z</time>
      </trkpt>
      <trkpt lat="42.4714406586594" lon="-7.856485404588361">
        <time>2018-11-30T05:47:06Z</time>
      </trkpt>
      <trkpt lat="42.47134326624197" lon="-7.856542824641873">
        <time>2018-11-30T05:47:06Z</time>
      </trkpt>
      <trkpt lat="42.47132170886987" lon="-7.856561665585189">
        <time>2018-11-30T05:47:06Z</time>
      </trkpt>
      <trkpt lat="42.47125000566112" lon="-7.856612455288571">
        <time>2018-11-30T05:47:06Z</time>
      </trkpt>
      <trkpt lat="42.47123787368645" lon="-7.856617005771672">
        <time>2018-11-30T05:47:06Z</time>
      </trkpt>
      <trkpt lat="42.47111665306053" lon="-7.856685273270896">
        <time>2018-11-30T05:47:06Z</time>
      </trkpt>
      <trkpt lat="42.4710968131761" lon="-7.856699096677775">
        <time>2018-11-30T05:47:06Z</time>
      </trkpt>
      <trkpt lat="42.47108096394291" lon="-7.856708064281754">
        <time>2018-11-30T05:47:06Z</time>
      </trkpt>
      <trkpt lat="42.47104967010638" lon="-7.856741172717658">
        <time>2018-11-30T05:47:06Z</time>
      </trkpt>
      <trkpt lat="42.47101841505597" lon="-7.856763899742799">
        <time>2018-11-30T05:47:06Z</time>
      </trkpt>
      <trkpt lat="42.47100291260016" lon="-7.856777738366077">
        <time>2018-11-30T05:47:06Z</time>
      </trkpt>
      <trkpt lat="42.47094143337429" lon="-7.856832618993449">
        <time>2018-11-30T05:47:06Z</time>
      </trkpt>
      <trkpt lat="42.47090693612576" lon="-7.856849405239862">
        <time>2018-11-30T05:47:06Z</time>
      </trkpt>
      <trkpt lat="42.47086511456963" lon="-7.856870314355501">
        <time>2018-11-30T05:47:06Z</time>
      </trkpt>
      <trkpt lat="42.47084990710788" lon="-7.856873805539053">
        <time>2018-11-30T05:47:06Z</time>
      </trkpt>
      <trkpt lat="42.47075959796957" lon="-7.856889894490594">
        <time>2018-11-30T05:47:06Z</time>
      </trkpt>
      <trkpt lat="42.47074120229486" lon="-7.856902820610079">
        <time>2018-11-30T05:47:06Z</time>
      </trkpt>
      <trkpt lat="42.47073024156087" lon="-7.856911577567997">
        <time>2018-11-30T05:47:06Z</time>
      </trkpt>
      <trkpt lat="42.47071935886442" lon="-7.856920447442563">
        <time>2018-11-30T05:47:06Z</time>
      </trkpt>
      <trkpt lat="42.47068302269028" lon="-7.85694165481516">
        <time>2018-11-30T05:47:06Z</time>
      </trkpt>
      <trkpt lat="42.47066854872367" lon="-7.856950060455694">
        <time>2018-11-30T05:47:06Z</time>
      </trkpt>
      <trkpt lat="42.4706507856017" lon="-7.856972548877979">
        <time>2018-11-30T05:47:06Z</time>
      </trkpt>
      <trkpt lat="42.47059737836443" lon="-7.857015597729761">
        <time>2018-11-30T05:47:06Z</time>
      </trkpt>
      <trkpt lat="42.470526456408" lon="-7.857047002333029">
        <time>2018-11-30T05:47:06Z</time>
      </trkpt>
      <trkpt lat="42.47048118789737" lon="-7.857075985102404">
        <time>2018-11-30T05:47:06Z</time>
      </trkpt>
      <trkpt lat="42.47047426678832" lon="-7.857080129926338">
        <time>2018-11-30T05:47:06Z</time>
      </trkpt>
      <trkpt lat="42.47042950657049" lon="-7.857104961685916">
        <time>2018-11-30T05:47:06Z</time>
      </trkpt>
      <trkpt lat="42.47035019991045" lon="-7.857162280132156">
        <time>2018-11-30T05:47:06Z</time>
      </trkpt>
      <trkpt lat="42.47026884094721" lon="-7.857200269014966">
        <time>2018-11-30T05:47:06Z</time>
      </trkpt>
      <trkpt lat="42.47025538232712" lon="-7.857205615809912">
        <time>2018-11-30T05:47:06Z</time>
      </trkpt>
      <trkpt lat="42.47023753154103" lon="-7.857210898876747">
        <time>2018-11-30T05:47:06Z</time>
      </trkpt>
      <trkpt lat="42.4701712554716" lon="-7.857254247828115">
        <time>2018-11-30T05:47:06Z</time>
      </trkpt>
      <trkpt lat="42.47014917134916" lon="-7.857259278259116">
        <time>2018-11-30T05:47:06Z</time>
      </trkpt>
      <trkpt lat="42.47008731963412" lon="-7.85728500636838">
        <time>2018-11-30T05:47:06Z</time>
      </trkpt>
      <trkpt lat="42.47000960322178" lon="-7.857348560210228">
        <time>2018-11-30T05:47:06Z</time>
      </trkpt>
      <trkpt lat="42.46999667451113" lon="-7.857358989528778">
        <time>2018-11-30T05:47:06Z</time>
      </trkpt>
      <trkpt lat="42.46997491973557" lon="-7.857368876660341">
        <time>2018-11-30T05:47:06Z</time>
      </trkpt>
      <trkpt lat="42.46995373614539" lon="-7.857379147421662">
        <time>2018-11-30T05:47:06Z</time>
      </trkpt>
      <trkpt lat="42.4698952959534" lon="-7.857410300647242">
        <time>2018-11-30T05:47:06Z</time>
      </trkpt>
      <trkpt lat="42.4698744775981" lon="-7.857425847661338">
        <time>2018-11-30T05:47:06Z</time>
      </trkpt>
      <trkpt lat="42.46980263794119" lon="-7.857459674300658">
        <time>2018-11-30T05:47:06Z</time>
      </trkpt>
      <trkpt lat="42.46976912568354" lon="-7.857473829500011">
        <time>2018-11-30T05:47:06Z</time>
      </trkpt>
      <trkpt lat="42.46966954840747" lon="-7.857530817903217">
        <time>2018-11-30T05:47:06Z</time>
      </trkpt>
      <trkpt lat="42.46965708455747" lon="-7.857535075234345">
        <time>2018-11-30T05:47:06Z</time>
      </trkpt>
      <trkpt lat="42.46963643942988" lon="-7.857543923142081">
        <time>2018-11-30T05:47:06Z</time>
      </trkpt>
      <trkpt lat="42.46961604690414" lon="-7.857558052639733">
        <time>2018-11-30T05:47:06Z</time>
      </trkpt>
      <trkpt lat="42.46961188502996" lon="-7.85755767902872">
        <time>2018-11-30T05:47:06Z</time>
      </trkpt>
      <trkpt lat="42.46955147954068" lon="-7.857599874180853">
        <time>2018-11-30T05:47:06Z</time>
      </trkpt>
      <trkpt lat="42.46953539238029" lon="-7.857603806868758">
        <time>2018-11-30T05:47:06Z</time>
      </trkpt>
      <trkpt lat="42.46951550783582" lon="-7.85761771131857">
        <time>2018-11-30T05:47:06Z</time>
      </trkpt>
      <trkpt lat="42.46949975429241" lon="-7.857631928247264">
        <time>2018-11-30T05:47:06Z</time>
      </trkpt>
      <trkpt lat="42.469456856279" lon="-7.857669728309954">
        <time>2018-11-30T05:47:06Z</time>
      </trkpt>
      <trkpt lat="42.46944151576886" lon="-7.857689031231755">
        <time>2018-11-30T05:47:06Z</time>
      </trkpt>
      <trkpt lat="42.46943372356456" lon="-7.857693484039517">
        <time>2018-11-30T05:47:06Z</time>
      </trkpt>
      <trkpt lat="42.46939566035688" lon="-7.85773644914535">
        <time>2018-11-30T05:47:06Z</time>
      </trkpt>
      <trkpt lat="42.4693727351095" lon="-7.857754783903102">
        <time>2018-11-30T05:47:06Z</time>
      </trkpt>
      <trkpt lat="42.46935758206921" lon="-7.857768694715665">
        <time>2018-11-30T05:47:06Z</time>
      </trkpt>
      <trkpt lat="42.4692928280205" lon="-7.857802676892667">
        <time>2018-11-30T05:47:06Z</time>
      </trkpt>
      <trkpt lat="42.46927376922488" lon="-7.857810481613226">
        <time>2018-11-30T05:47:06Z</time>
      </trkpt>
      <trkpt lat="42.46927391129633" lon="-7.857815532285517">
        <time>2018-11-30T05:47:06Z</time>
      </trkpt>
      <trkpt lat="42.46923992380716" lon="-7.857831583321847">
        <time>2018-11-30T05:47:06Z</time>
      </trkpt>
      <trkpt lat="42.46922860702755" lon="-7.857835231292692">
        <time>2018-11-30T05:47:06Z</time>
      </trkpt>
      <trkpt lat="42.46920256057368" lon="-7.857852047360031">
        <time>2018-11-30T05:47:06Z</time>
      </trkpt>
      <trkpt lat="42.46914706606381" lon="-7.857879916689755">
        <time>2018-11-30T05:47:06Z</time>
      </trkpt>
      <trkpt lat="42.46912868123619" lon="-7.857887471714001">
        <time>2018-11-30T05:47:06Z</time>
      </trkpt>
      <trkpt lat="42.46910673818288" lon="-7.857899221096448">
        <time>2018-11-30T05:47:06Z</time>
      </trkpt>
      <trkpt lat="42.46907082445238" lon="-7.857924337667821">
        <time>2018-11-30T05:47:06Z</time>
      </trkpt>
      <trkpt lat="42.46906025703072" lon="-7.857937591271585">
        <time>2018-11-30T05:47:06Z</time>
      </trkpt>
      <trkpt lat="42.46904244871298" lon="-7.85794996820932">
        <time>2018-11-30T05:47:06Z</time>
      </trkpt>
      <trkpt lat="42.46901096058164" lon="-7.857984648765167">
        <time>2018-11-30T05:47:06Z</time>
      </trkpt>
      <trkpt lat="42.46900412353731" lon="-7.857998002801524">
        <time>2018-11-30T05:47:06Z</time>
      </trkpt>
      <trkpt lat="42.46893439230053" lon="-7.858046463750008">
        <time>2018-11-30T05:47:06Z</time>
      </trkpt>
      <trkpt lat="42.4689134129619" lon="-7.858033994375335">
        <time>2018-11-30T05:47:06Z</time>
      </trkpt>
      <trkpt lat="42.46882777296391" lon="-7.858109186646835">
        <time>2018-11-30T05:47:06Z</time>
      </trkpt>
      <trkpt lat="42.4688043743741" lon="-7.858119332016899">
        <time>2018-11-30T05:47:06Z</time>
      </trkpt>
      <trkpt lat="42.46879013444674" lon="-7.858124115563168">
        <time>2018-11-30T05:47:06Z</time>
      </trkpt>
      <trkpt lat="42.46871122847631" lon="-7.858164448287408">
        <time>2018-11-30T05:47:06Z</time>
      </trkpt>
      <trkpt lat="42.46868847638734" lon="-7.858179872072427">
        <time>2018-11-30T05:47:06Z</time>
      </trkpt>
      <trkpt lat="42.46862564989765" lon="-7.858237003629113">
        <time>2018-11-30T05:47:06Z</time>
      </trkpt>
      <trkpt lat="42.46859896424265" lon="-7.85825192861497">
        <time>2018-11-30T05:47:06Z</time>
      </trkpt>
      <trkpt lat="42.46853337551574" lon="-7.858302689776534">
        <time>2018-11-30T05:47:06Z</time>
      </trkpt>
      <trkpt lat="42.46851600354116" lon="-7.858307155497547">
        <time>2018-11-30T05:47:06Z</time>
      </trkpt>
      <trkpt lat="42.46843087413377" lon="-7.858351264850697">
        <time>2018-11-30T05:47:06Z</time>
      </trkpt>
      <trkpt lat="42.46841842828482" lon="-7.858361451028038">
        <time>2018-11-30T05:47:06Z</time>
      </trkpt>
      <trkpt lat="42.46831400703665" lon="-7.858408660634283">
        <time>2018-11-30T05:47:06Z</time>
      </trkpt>
      <trkpt lat="42.46830120086149" lon="-7.858412745923929">
        <time>2018-11-30T05:47:06Z</time>
      </trkpt>
      <trkpt lat="42.46822632058601" lon="-7.858464009197665">
        <time>2018-11-30T05:47:06Z</time>
      </trkpt>
      <trkpt lat="42.46819727620864" lon="-7.858476822766331">
        <time>2018-11-30T05:47:06Z</time>
      </trkpt>
      <trkpt lat="42.46817662293401" lon="-7.858485154282659">
        <time>2018-11-30T05:47:06Z</time>
      </trkpt>
      <trkpt lat="42.46813322713984" lon="-7.858528837823712">
        <time>2018-11-30T05:47:06Z</time>
      </trkpt>
      <trkpt lat="42.46811700246101" lon="-7.858532436155945">
        <time>2018-11-30T05:47:06Z</time>
      </trkpt>
      <trkpt lat="42.46810094494978" lon="-7.858536182609782">
        <time>2018-11-30T05:47:06Z</time>
      </trkpt>
      <trkpt lat="42.46808514587281" lon="-7.858545205745081">
        <time>2018-11-30T05:47:06Z</time>
      </trkpt>
      <trkpt lat="42.46806134823851" lon="-7.858553413707162">
        <time>2018-11-30T05:47:06Z</time>
      </trkpt>
      <trkpt lat="42.46801896852539" lon="-7.858581377894007">
        <time>2018-11-30T05:47:06Z</time>
      </trkpt>
      <trkpt lat="42.46799988518141" lon="-7.858595458169463">
        <time>2018-11-30T05:47:06Z</time>
      </trkpt>
      <trkpt lat="42.46795409733917" lon="-7.858642095930646">
        <time>2018-11-30T05:47:06Z</time>
      </trkpt>
      <trkpt lat="42.46790460253303" lon="-7.858677598929607">
        <time>2018-11-30T05:47:06Z</time>
      </trkpt>
      <trkpt lat="42.46784755594086" lon="-7.858706157747777">
        <time>2018-11-30T05:47:06Z</time>
      </trkpt>
      <trkpt lat="42.46782869387989" lon="-7.858713987923145">
        <time>2018-11-30T05:47:06Z</time>
      </trkpt>
      <trkpt lat="42.46781761656387" lon="-7.858722871158472">
        <time>2018-11-30T05:47:06Z</time>
      </trkpt>
      <trkpt lat="42.46780272411971" lon="-7.858731185024348">
        <time>2018-11-30T05:47:06Z</time>
      </trkpt>
      <trkpt lat="42.46779171211088" lon="-7.858740020244873">
        <time>2018-11-30T05:47:06Z</time>
      </trkpt>
      <trkpt lat="42.46775535810696" lon="-7.858771238532098">
        <time>2018-11-30T05:47:06Z</time>
      </trkpt>
      <trkpt lat="42.46774495568164" lon="-7.858790418623883">
        <time>2018-11-30T05:47:06Z</time>
      </trkpt>
      <trkpt lat="42.46773765868912" lon="-7.858794578182211">
        <time>2018-11-30T05:47:06Z</time>
      </trkpt>
      <trkpt lat="42.46767202861612" lon="-7.858839161234881">
        <time>2018-11-30T05:47:06Z</time>
      </trkpt>
      <trkpt lat="42.46765748995596" lon="-7.858846662574431">
        <time>2018-11-30T05:47:06Z</time>
      </trkpt>
      <trkpt lat="42.46746033552009" lon="-7.858913460487152">
        <time>2018-11-30T05:47:06Z</time>
      </trkpt>
      <trkpt lat="42.46743848177693" lon="-7.858929109332621">
        <time>2018-11-30T05:47:06Z</time>
      </trkpt>
      <trkpt lat="42.46736256806677" lon="-7.859014380619392">
        <time>2018-11-30T05:47:06Z</time>
      </trkpt>
      <trkpt lat="42.46733723744439" lon="-7.859029829314995">
        <time>2018-11-30T05:47:06Z</time>
      </trkpt>
      <trkpt lat="42.46722901962986" lon="-7.859122522776062">
        <time>2018-11-30T05:47:06Z</time>
      </trkpt>
      <trkpt lat="42.46708200431476" lon="-7.859185990001177">
        <time>2018-11-30T05:47:06Z</time>
      </trkpt>
      <trkpt lat="42.46697971890377" lon="-7.859235007869701">
        <time>2018-11-30T05:47:06Z</time>
      </trkpt>
      <trkpt lat="42.46695537553611" lon="-7.859243190978402">
        <time>2018-11-30T05:47:06Z</time>
      </trkpt>
      <trkpt lat="42.46692294931805" lon="-7.859255444451229">
        <time>2018-11-30T05:47:06Z</time>
      </trkpt>
      <trkpt lat="42.46678379421878" lon="-7.85930209666563">
        <time>2018-11-30T05:47:06Z</time>
      </trkpt>
      <trkpt lat="42.46676836987378" lon="-7.859310682807878">
        <time>2018-11-30T05:47:06Z</time>
      </trkpt>
      <trkpt lat="42.46674606048639" lon="-7.859334422129156">
        <time>2018-11-30T05:47:06Z</time>
      </trkpt>
      <trkpt lat="42.46673071921209" lon="-7.859338020534469">
        <time>2018-11-30T05:47:06Z</time>
      </trkpt>
      <trkpt lat="42.4666456341521" lon="-7.859406450864393">
        <time>2018-11-30T05:47:06Z</time>
      </trkpt>
      <trkpt lat="42.46660901944158" lon="-7.859433150446687">
        <time>2018-11-30T05:47:06Z</time>
      </trkpt>
      <trkpt lat="42.4665361950086" lon="-7.859475631764411">
        <time>2018-11-30T05:47:06Z</time>
      </trkpt>
      <trkpt lat="42.46651844832108" lon="-7.859493674411278">
        <time>2018-11-30T05:47:06Z</time>
      </trkpt>
      <trkpt lat="42.4665077504715" lon="-7.859502432994896">
        <time>2018-11-30T05:47:06Z</time>
      </trkpt>
      <trkpt lat="42.46650077293674" lon="-7.859511644401033">
        <time>2018-11-30T05:47:06Z</time>
      </trkpt>
      <trkpt lat="42.46642528307361" lon="-7.859536997940202">
        <time>2018-11-30T05:47:06Z</time>
      </trkpt>
      <trkpt lat="42.46639332583403" lon="-7.859547730830149">
        <time>2018-11-30T05:47:06Z</time>
      </trkpt>
      <trkpt lat="42.46638632408659" lon="-7.859551775608481">
        <time>2018-11-30T05:47:06Z</time>
      </trkpt>
      <trkpt lat="42.46631639318898" lon="-7.859581383254046">
        <time>2018-11-30T05:47:06Z</time>
      </trkpt>
      <trkpt lat="42.46624837429354" lon="-7.85964681779702">
        <time>2018-11-30T05:47:06Z</time>
      </trkpt>
      <trkpt lat="42.466235160514" lon="-7.859663375334471">
        <time>2018-11-30T05:47:06Z</time>
      </trkpt>
      <trkpt lat="42.46616900602243" lon="-7.859728654113154">
        <time>2018-11-30T05:47:06Z</time>
      </trkpt>
      <trkpt lat="42.46615148774468" lon="-7.859744807926331">
        <time>2018-11-30T05:47:06Z</time>
      </trkpt>
      <trkpt lat="42.46613402983903" lon="-7.8597609061072">
        <time>2018-11-30T05:47:06Z</time>
      </trkpt>
      <trkpt lat="42.46597808403228" lon="-7.859813230145352">
        <time>2018-11-30T05:47:06Z</time>
      </trkpt>
      <trkpt lat="42.46593068396022" lon="-7.859827346244211">
        <time>2018-11-30T05:47:06Z</time>
      </trkpt>
      <trkpt lat="42.46591822460996" lon="-7.859843078440926">
        <time>2018-11-30T05:47:06Z</time>
      </trkpt>
      <trkpt lat="42.46590166347099" lon="-7.859863989577419">
        <time>2018-11-30T05:47:06Z</time>
      </trkpt>
      <trkpt lat="42.46589322568148" lon="-7.859868976179321">
        <time>2018-11-30T05:47:06Z</time>
      </trkpt>
      <trkpt lat="42.46580196414474" lon="-7.859949913327064">
        <time>2018-11-30T05:47:06Z</time>
      </trkpt>
      <trkpt lat="42.46578954764629" lon="-7.859954576081886">
        <time>2018-11-30T05:47:06Z</time>
      </trkpt>
      <trkpt lat="42.46577372428386" lon="-7.859970127133344">
        <time>2018-11-30T05:47:06Z</time>
      </trkpt>
      <trkpt lat="42.46568069872785" lon="-7.860054032677796">
        <time>2018-11-30T05:47:06Z</time>
      </trkpt>
      <trkpt lat="42.46566048270145" lon="-7.860068216656507">
        <time>2018-11-30T05:47:06Z</time>
      </trkpt>
      <trkpt lat="42.4656524013546" lon="-7.860072831546107">
        <time>2018-11-30T05:47:06Z</time>
      </trkpt>
      <trkpt lat="42.465624588734" lon="-7.860096955355558">
        <time>2018-11-30T05:47:06Z</time>
      </trkpt>
      <trkpt lat="42.46560445240014" lon="-7.860105694722568">
        <time>2018-11-30T05:47:06Z</time>
      </trkpt>
      <trkpt lat="42.46554533782197" lon="-7.86014272067732">
        <time>2018-11-30T05:47:06Z</time>
      </trkpt>
      <trkpt lat="42.46552992739046" lon="-7.86015714984539">
        <time>2018-11-30T05:47:06Z</time>
      </trkpt>
      <trkpt lat="42.4655178701197" lon="-7.860156008124402">
        <time>2018-11-30T05:47:06Z</time>
      </trkpt>
      <trkpt lat="42.46549455481261" lon="-7.860169602680963">
        <time>2018-11-30T05:47:06Z</time>
      </trkpt>
      <trkpt lat="42.46537572246164" lon="-7.86024082158173">
        <time>2018-11-30T05:47:06Z</time>
      </trkpt>
      <trkpt lat="42.46536076874867" lon="-7.860254643568325">
        <time>2018-11-30T05:47:06Z</time>
      </trkpt>
      <trkpt lat="42.46534952171171" lon="-7.860263659850237">
        <time>2018-11-30T05:47:06Z</time>
      </trkpt>
      <trkpt lat="42.46532659747882" lon="-7.860271097442928">
        <time>2018-11-30T05:47:06Z</time>
      </trkpt>
      <trkpt lat="42.46531527501312" lon="-7.860274989416432">
        <time>2018-11-30T05:47:06Z</time>
      </trkpt>
      <trkpt lat="42.46518895446436" lon="-7.860326142581256">
        <time>2018-11-30T05:47:06Z</time>
      </trkpt>
      <trkpt lat="42.46517398679703" lon="-7.860324216719295">
        <time>2018-11-30T05:47:06Z</time>
      </trkpt>
      <trkpt lat="42.46516279582487" lon="-7.860322776800311">
        <time>2018-11-30T05:47:06Z</time>
      </trkpt>
      <trkpt lat="42.46514813699856" lon="-7.860325955875354">
        <time>2018-11-30T05:47:06Z</time>
      </trkpt>
      <trkpt lat="42.46506108803627" lon="-7.860335570205816">
        <time>2018-11-30T05:47:06Z</time>
      </trkpt>
      <trkpt lat="42.46505410690621" lon="-7.860339897956185">
        <time>2018-11-30T05:47:06Z</time>
      </trkpt>
      <trkpt lat="42.46503789823229" lon="-7.860378520803435">
        <time>2018-11-30T05:47:06Z</time>
      </trkpt>
      <trkpt lat="42.46496920472398" lon="-7.860406068093814">
        <time>2018-11-30T05:47:06Z</time>
      </trkpt>
      <trkpt lat="42.46495527118368" lon="-7.860423185787017">
        <time>2018-11-30T05:47:06Z</time>
      </trkpt>
      <trkpt lat="42.46485218070113" lon="-7.860490084221588">
        <time>2018-11-30T05:47:06Z</time>
      </trkpt>
      <trkpt lat="42.46483833443506" lon="-7.860501155439341">
        <time>2018-11-30T05:47:06Z</time>
      </trkpt>
      <trkpt lat="42.46481076264912" lon="-7.860523201108341">
        <time>2018-11-30T05:47:06Z</time>
      </trkpt>
      <trkpt lat="42.46471992952445" lon="-7.860593889498123">
        <time>2018-11-30T05:47:06Z</time>
      </trkpt>
      <trkpt lat="42.46470161275445" lon="-7.860598858824374">
        <time>2018-11-30T05:47:06Z</time>
      </trkpt>
      <trkpt lat="42.46462540568894" lon="-7.860640719266626">
        <time>2018-11-30T05:47:06Z</time>
      </trkpt>
      <trkpt lat="42.46461200446825" lon="-7.860645747386847">
        <time>2018-11-30T05:47:06Z</time>
      </trkpt>
      <trkpt lat="42.46459432143462" lon="-7.860656125623317">
        <time>2018-11-30T05:47:06Z</time>
      </trkpt>
      <trkpt lat="42.46449396564081" lon="-7.860701698687639">
        <time>2018-11-30T05:47:06Z</time>
      </trkpt>
      <trkpt lat="42.46447630938955" lon="-7.860700870167507">
        <time>2018-11-30T05:47:06Z</time>
      </trkpt>
      <trkpt lat="42.46445892731379" lon="-7.860705524116243">
        <time>2018-11-30T05:47:06Z</time>
      </trkpt>
      <trkpt lat="42.46435240928423" lon="-7.860743956930034">
        <time>2018-11-30T05:47:06Z</time>
      </trkpt>
      <trkpt lat="42.46427581240889" lon="-7.860831744528895">
        <time>2018-11-30T05:47:06Z</time>
      </trkpt>
      <trkpt lat="42.46425134065803" lon="-7.860846423236274">
        <time>2018-11-30T05:47:06Z</time>
      </trkpt>
      <trkpt lat="42.4642350964622" lon="-7.860856166874201">
        <time>2018-11-30T05:47:06Z</time>
      </trkpt>
      <trkpt lat="42.46418646604459" lon="-7.860884945250902">
        <time>2018-11-30T05:47:06Z</time>
      </trkpt>
      <trkpt lat="42.46418231403575" lon="-7.860884647056553">
        <time>2018-11-30T05:47:06Z</time>
      </trkpt>
      <trkpt lat="42.46415497627395" lon="-7.860914834242953">
        <time>2018-11-30T05:47:06Z</time>
      </trkpt>
      <trkpt lat="42.4641431637077" lon="-7.860924658027999">
        <time>2018-11-30T05:47:06Z</time>
      </trkpt>
      <trkpt lat="42.46410013938738" lon="-7.860963858142943">
        <time>2018-11-30T05:47:06Z</time>
      </trkpt>
      <trkpt lat="42.46408104565198" lon="-7.860988798710334">
        <time>2018-11-30T05:47:06Z</time>
      </trkpt>
      <trkpt lat="42.46406532079834" lon="-7.860998034506802">
        <time>2018-11-30T05:47:06Z</time>
      </trkpt>
      <trkpt lat="42.46405773204155" lon="-7.861007956475708">
        <time>2018-11-30T05:47:06Z</time>
      </trkpt>
      <trkpt lat="42.46401973782441" lon="-7.861047104471743">
        <time>2018-11-30T05:47:06Z</time>
      </trkpt>
      <trkpt lat="42.46400058483545" lon="-7.861061245613041">
        <time>2018-11-30T05:47:06Z</time>
      </trkpt>
      <trkpt lat="42.46398151022952" lon="-7.861075329228785">
        <time>2018-11-30T05:47:06Z</time>
      </trkpt>
      <trkpt lat="42.46396251336449" lon="-7.861089355347262">
        <time>2018-11-30T05:47:06Z</time>
      </trkpt>
      <trkpt lat="42.46395456400843" lon="-7.861088509650889">
        <time>2018-11-30T05:47:06Z</time>
      </trkpt>
      <trkpt lat="42.46391235852857" lon="-7.861110125239658">
        <time>2018-11-30T05:47:06Z</time>
      </trkpt>
      <trkpt lat="42.46389273213094" lon="-7.861107945019973">
        <time>2018-11-30T05:47:06Z</time>
      </trkpt>
      <trkpt lat="42.4638576417216" lon="-7.86110404699458">
        <time>2018-11-30T05:47:06Z</time>
      </trkpt>
      <trkpt lat="42.46383471252513" lon="-7.861106767971454">
        <time>2018-11-30T05:47:06Z</time>
      </trkpt>
      <trkpt lat="42.46379877227457" lon="-7.861154431440966">
        <time>2018-11-30T05:47:06Z</time>
      </trkpt>
      <trkpt lat="42.46379230588887" lon="-7.861179389851694">
        <time>2018-11-30T05:47:06Z</time>
      </trkpt>
      <trkpt lat="42.46375506571975" lon="-7.861272552330934">
        <time>2018-11-30T05:47:06Z</time>
      </trkpt>
      <trkpt lat="42.46375302419471" lon="-7.861308419628596">
        <time>2018-11-30T05:47:06Z</time>
      </trkpt>
      <trkpt lat="42.344280" lon="-7.869577">
        <ele>118.058</ele>
        <time>1970-01-11T01:59:54Z</time>
      </trkpt>
      <trkpt lat="42.344280" lon="-7.869577">
        <ele>118.052</ele>
        <time>1970-01-11T01:59:54Z</time>
      </trkpt>
      <trkpt lat="42.344280" lon="-7.869577">
        <ele>118.217</ele>
        <time>1970-01-11T01:59:54Z</time>
      </trkpt>
      <trkpt lat="42.344270" lon="-7.869568">
        <ele>117.808</ele>
        <time>1970-01-11T01:59:54Z</time>
      </trkpt>
      <trkpt lat="42.344252" lon="-7.869552">
        <ele>117.646</ele>
        <time>1970-01-11T01:59:54Z</time>
      </trkpt>
      <trkpt lat="42.344236" lon="-7.869551">
        <ele>117.683</ele>
        <time>1970-01-11T01:59:54Z</time>
      </trkpt>
      <trkpt lat="42.344215" lon="-7.869585">
        <ele>117.279</ele>
        <time>1970-01-11T01:59:54Z</time>
      </trkpt>
      <trkpt lat="42.344214" lon="-7.869614">
        <ele>117.087</ele>
        <time>1970-01-11T01:59:54Z</time>
      </trkpt>
      <trkpt lat="42.344217" lon="-7.869669">
        <ele>117.016</ele>
        <time>1970-01-11T01:59:54Z</time>
      </trkpt>
      <trkpt lat="42.344203" lon="-7.869771">
        <ele>117.651</ele>
        <time>1970-01-11T01:59:54Z</time>
      </trkpt>
      <trkpt lat="42.344198" lon="-7.869794">
        <ele>117.629</ele>
        <time>1970-01-11T01:59:54Z</time>
      </trkpt>
      <trkpt lat="42.344169" lon="-7.869864">
        <ele>117.618</ele>
        <time>1970-01-11T01:59:54Z</time>
      </trkpt>
      <trkpt lat="42.344154" lon="-7.869867">
        <ele>117.866</ele>
        <time>1970-01-11T01:59:54Z</time>
      </trkpt>
      <trkpt lat="42.344095" lon="-7.869857">
        <ele>117.829</ele>
        <time>1970-01-11T01:59:54Z</time>
      </trkpt>
      <trkpt lat="42.344071" lon="-7.869849">
        <ele>117.621</ele>
        <time>1970-01-11T01:59:54Z</time>
      </trkpt>
      <trkpt lat="42.344042" lon="-7.869806">
        <ele>117.208</ele>
        <time>1970-01-11T01:59:54Z</time>
      </trkpt>
      <trkpt lat="42.344035" lon="-7.869790">
        <ele>117.277</ele>
        <time>1970-01-11T01:59:54Z</time>
      </trkpt>
      <trkpt lat="42.344025" lon="-7.869750">
        <ele>117.414</ele>
        <time>1970-01-11T01:59:54Z</time>
      </trkpt>
      <trkpt lat="42.344020" lon="-7.869731">
        <ele>117.410</ele>
        <time>1970-01-11T01:59:54Z</time>
      </trkpt>
      <trkpt lat="42.344015" lon="-7.869682">
        <ele>117.468</ele>
        <time>1970-01-11T01:59:54Z</time>
      </trkpt>
      <trkpt lat="42.344015" lon="-7.869682">
        <ele>117.437</ele>
        <time>1970-01-11T01:59:54Z</time>
      </trkpt>
      <trkpt lat="42.344015" lon="-7.869682">
        <ele>118.082</ele>
        <time>1970-01-11T01:59:54Z</time>
      </trkpt>
      <trkpt lat="42.344015" lon="-7.869682">
        <ele>118.090</ele>
        <time>1970-01-11T01:59:54Z</time>
      </trkpt>
      <trkpt lat="42.344015" lon="-7.869682">
        <ele>118.039</ele>
        <time>1970-01-11T01:59:54Z</time>
      </trkpt>
      <trkpt lat="42.344015" lon="-7.869682">
        <ele>118.059</ele>
        <time>1970-01-11T01:59:54Z</time>
      </trkpt>
      <trkpt lat="42.344015" lon="-7.869682">
        <ele>118.003</ele>
        <time>1970-01-11T01:59:54Z</time>
      </trkpt>
      <trkpt lat="42.344015" lon="-7.869682">
        <ele>117.823</ele>
        <time>1970-01-11T01:59:54Z</time>
      </trkpt>
      <trkpt lat="42.344013" lon="-7.869673">
        <ele>117.408</ele>
        <time>1970-01-11T01:59:54Z</time>
      </trkpt>
      <trkpt lat="42.344013" lon="-7.869673">
        <ele>117.646</ele>
        <time>1970-01-11T01:59:54Z</time>
      </trkpt>
      <trkpt lat="42.344013" lon="-7.869673">
        <ele>117.813</ele>
        <time>1970-01-11T01:59:54Z</time>
      </trkpt>
      <trkpt lat="42.344013" lon="-7.869673">
        <ele>117.899</ele>
        <time>1970-01-11T01:59:54Z</time>
      </trkpt>
      <trkpt lat="42.344013" lon="-7.869673">
        <ele>117.837</ele>
        <time>1970-01-11T01:59:54Z</time>
      </trkpt>
      <trkpt lat="42.344013" lon="-7.869673">
        <ele>117.896</ele>
        <time>1970-01-11T01:59:54Z</time>
      </trkpt>
      <trkpt lat="42.343996" lon="-7.869649">
        <ele>117.441</ele>
        <time>1970-01-11T01:59:54Z</time>
      </trkpt>
      <trkpt lat="42.343996" lon="-7.869649">
        <ele>117.459</ele>
        <time>1970-01-11T01:59:54Z</time>
      </trkpt>
      <trkpt lat="42.343996" lon="-7.869649">
        <ele>117.428</ele>
        <time>1970-01-11T01:59:54Z</time>
      </trkpt>
      <trkpt lat="42.343996" lon="-7.869649">
        <ele>117.496</ele>
        <time>1970-01-11T01:59:54Z</time>
      </trkpt>
      <trkpt lat="42.343996" lon="-7.869649">
        <ele>117.431</ele>
        <time>1970-01-11T01:59:54Z</time>
      </trkpt>
      <trkpt lat="42.343996" lon="-7.869649">
        <ele>117.424</ele>
        <time>1970-01-11T01:59:54Z</time>
      </trkpt>
      <trkpt lat="42.343996" lon="-7.869649">
        <ele>117.408</ele>
        <time>1970-01-11T01:59:54Z</time>
      </trkpt>
      <trkpt lat="42.343996" lon="-7.869649">
        <ele>117.680</ele>
        <time>1970-01-11T01:59:54Z</time>
      </trkpt>
      <trkpt lat="42.343996" lon="-7.869649">
        <ele>117.617</ele>
        <time>1970-01-11T01:59:54Z</time>
      </trkpt>
      <trkpt lat="42.343996" lon="-7.869649">
        <ele>117.633</ele>
        <time>1970-01-11T01:59:54Z</time>
      </trkpt>
      <trkpt lat="42.343994" lon="-7.869702">
        <ele>117.221</ele>
        <time>1970-01-11T01:59:54Z</time>
      </trkpt>
      <trkpt lat="42.343994" lon="-7.869702">
        <ele>117.260</ele>
        <time>1970-01-11T01:59:54Z</time>
      </trkpt>
      <trkpt lat="42.343994" lon="-7.869702">
        <ele>117.235</ele>
        <time>1970-01-11T01:59:54Z</time>
      </trkpt>
      <trkpt lat="42.343994" lon="-7.869702">
        <ele>117.413</ele>
        <time>1970-01-11T01:59:54Z</time>
      </trkpt>
      <trkpt lat="42.344002" lon="-7.869724">
        <ele>117.452</ele>
        <time>1970-01-11T01:59:54Z</time>
      </trkpt>
      <trkpt lat="42.344011" lon="-7.869747">
        <ele>117.477</ele>
        <time>1970-01-11T01:59:54Z</time>
      </trkpt>
      <trkpt lat="42.344015" lon="-7.869770">
        <ele>117.461</ele>
        <time>1970-01-11T01:59:54Z</time>
      </trkpt>
      <trkpt lat="42.344014" lon="-7.869782">
        <ele>117.427</ele>
        <time>1970-01-11T01:59:54Z</time>
      </trkpt>
      <trkpt lat="42.344014" lon="-7.869800">
        <ele>117.408</ele>
        <time>1970-01-11T01:59:54Z</time>
      </trkpt>
      <trkpt lat="42.344013" lon="-7.869807">
        <ele>117.478</ele>
        <time>1970-01-11T01:59:54Z</time>
      </trkpt>
      <trkpt lat="42.344014" lon="-7.869811">
        <ele>117.455</ele>
        <time>1970-01-11T01:59:54Z</time>
      </trkpt>
      <trkpt lat="42.344014" lon="-7.869811">
        <ele>117.661</ele>
        <time>1970-01-11T01:59:54Z</time>
      </trkpt>
      <trkpt lat="42.344014" lon="-7.869811">
        <ele>117.659</ele>
        <time>1970-01-11T01:59:54Z</time>
      </trkpt>
      <trkpt lat="42.344014" lon="-7.869811">
        <ele>117.688</ele>
        <time>1970-01-11T01:59:54Z</time>
      </trkpt>
      <trkpt lat="42.344014" lon="-7.869811">
        <ele>117.623</ele>
        <time>1970-01-11T01:59:54Z</time>
      </trkpt>
      <trkpt lat="42.344019" lon="-7.869786">
        <ele>117.841</ele>
        <time>1970-01-11T01:59:54Z</time>
      </trkpt>
      <trkpt lat="42.344035" lon="-7.869806">
        <ele>117.890</ele>
        <time>1970-01-11T01:59:54Z</time>
      </trkpt>
      <trkpt lat="42.344045" lon="-7.869822">
        <ele>117.815</ele>
        <time>1970-01-11T01:59:54Z</time>
      </trkpt>
      <trkpt lat="42.344057" lon="-7.869831">
        <ele>117.865</ele>
        <time>1970-01-11T01:59:54Z</time>
      </trkpt>
      <trkpt lat="42.344070" lon="-7.869833">
        <ele>117.811</ele>
        <time>1970-01-11T01:59:54Z</time>
      </trkpt>
      <trkpt lat="42.344085" lon="-7.869842">
        <ele>117.608</ele>
        <time>1970-01-11T01:59:54Z</time>
      </trkpt>
      <trkpt lat="42.344103" lon="-7.869852">
        <ele>117.612</ele>
        <time>1970-01-11T01:59:54Z</time>
      </trkpt>
      <trkpt lat="42.344148" lon="-7.869864">
        <ele>117.699</ele>
        <time>1970-01-11T01:59:54Z</time>
      </trkpt>
      <trkpt lat="42.344172" lon="-7.869861">
        <ele>117.635</ele>
        <time>1970-01-11T01:59:54Z</time>
      </trkpt>
      <trkpt lat="42.344207" lon="-7.869873">
        <ele>117.673</ele>
        <time>1970-01-11T01:59:54Z</time>
      </trkpt>
      <trkpt lat="42.344224" lon="-7.869884">
        <ele>117.642</ele>
        <time>1970-01-11T01:59:54Z</time>
      </trkpt>
      <trkpt lat="42.344286" lon="-7.869883">
        <ele>117.617</ele>
        <time>1970-01-11T01:59:54Z</time>
      </trkpt>
      <trkpt lat="42.344324" lon="-7.869896">
        <ele>117.615</ele>
        <time>1970-01-11T01:59:54Z</time>
      </trkpt>
      <trkpt lat="42.344328" lon="-7.869895">
        <ele>117.654</ele>
        <time>1970-01-11T01:59:54Z</time>
      </trkpt>
      <trkpt lat="42.344308" lon="-7.869898">
        <ele>117.636</ele>
        <time>1970-01-11T01:59:54Z</time>
      </trkpt>
      <trkpt lat="42.344264" lon="-7.869882">
        <ele>117.817</ele>
        <time>1970-01-11T01:59:54Z</time>
      </trkpt>
      <trkpt lat="42.344228" lon="-7.869870">
        <ele>118.018</ele>
        <time>1970-01-11T01:59:54Z</time>
      </trkpt>
      <trkpt lat="42.344217" lon="-7.869860">
        <ele>118.008</ele>
        <time>1970-01-11T01:59:54Z</time>
      </trkpt>
      <trkpt lat="42.344214" lon="-7.869756">
        <ele>118.024</ele>
        <time>1970-01-11T01:59:54Z</time>
      </trkpt>
      <trkpt lat="42.344207" lon="-7.869677">
        <ele>118.031</ele>
        <time>1970-01-11T01:59:54Z</time>
      </trkpt>
      <trkpt lat="42.344196" lon="-7.869544">
        <ele>117.877</ele>
        <time>1970-01-11T01:59:54Z</time>
      </trkpt>
      <trkpt lat="42.344225" lon="-7.869401">
        <ele>117.825</ele>
        <time>1970-01-11T01:59:54Z</time>
      </trkpt>
      <trkpt lat="42.344239" lon="-7.869370">
        <ele>117.894</ele>
        <time>1970-01-11T01:59:54Z</time>
      </trkpt>
      <trkpt lat="42.344244" lon="-7.869319">
        <ele>117.679</ele>
        <time>1970-01-11T01:59:54Z</time>
      </trkpt>
      <trkpt lat="42.344243" lon="-7.869276">
        <ele>117.427</ele>
        <time>1970-01-11T01:59:54Z</time>
      </trkpt>
      <trkpt lat="42.344244" lon="-7.869226">
        <ele>117.296</ele>
        <time>1970-01-11T01:59:54Z</time>
      </trkpt>
      <trkpt lat="42.344276" lon="-7.869210">
        <ele>117.213</ele>
        <time>1970-01-11T01:59:54Z</time>
      </trkpt>
      <trkpt lat="42.344349" lon="-7.869193">
        <ele>117.243</ele>
        <time>1970-01-11T01:59:54Z</time>
      </trkpt>
      <trkpt lat="42.344435" lon="-7.869273">
        <ele>117.007</ele>
        <time>1970-01-11T01:59:54Z</time>
      </trkpt>
      <trkpt lat="42.344472" lon="-7.869318">
        <ele>116.808</ele>
        <time>1970-01-11T01:59:54Z</time>
      </trkpt>
      <trkpt lat="42.344525" lon="-7.869408">
        <ele>116.232</ele>
        <time>1970-01-11T01:59:54Z</time>
      </trkpt>
      <trkpt lat="42.344543" lon="-7.869455">
        <ele>116.039</ele>
        <time>1970-01-11T01:59:54Z</time>
      </trkpt>
      <trkpt lat="42.344555" lon="-7.869487">
        <ele>115.435</ele>
        <time>1970-01-11T01:59:54Z</time>
      </trkpt>
      <trkpt lat="42.344566" lon="-7.869516">
        <ele>114.843</ele>
        <time>1970-01-11T01:59:54Z</time>
      </trkpt>
      <trkpt lat="42.344596" lon="-7.869581">
        <ele>113.422</ele>
        <time>1970-01-11T01:59:54Z</time>
      </trkpt>
      <trkpt lat="42.344635" lon="-7.869622">
        <ele>112.277</ele>
        <time>1970-01-11T01:59:54Z</time>
      </trkpt>
      <trkpt lat="42.344664" lon="-7.869618">
        <ele>111.865</ele>
        <time>1970-01-11T01:59:54Z</time>
      </trkpt>
      <trkpt lat="42.344694" lon="-7.869607">
        <ele>111.054</ele>
        <time>1970-01-11T01:59:54Z</time>
      </trkpt>
      <trkpt lat="42.344788" lon="-7.869438">
        <ele>110.017</ele>
        <time>1970-01-11T01:59:54Z</time>
      </trkpt>
      <trkpt lat="42.344811" lon="-7.869367">
        <ele>110.087</ele>
        <time>1970-01-11T01:59:54Z</time>
      </trkpt>
      <trkpt lat="42.344824" lon="-7.869231">
        <ele>110.015</ele>
        <time>1970-01-11T01:59:54Z</time>
      </trkpt>
      <trkpt lat="42.344829" lon="-7.869158">
        <ele>110.008</ele>
        <time>1970-01-11T01:59:54Z</time>
      </trkpt>
      <trkpt lat="42.344834" lon="-7.869085">
        <ele>110.062</ele>
        <time>1970-01-11T01:59:54Z</time>
      </trkpt>
      <trkpt lat="42.344847" lon="-7.869018">
        <ele>109.829</ele>
        <time>1970-01-11T01:59:54Z</time>
      </trkpt>
      <trkpt lat="42.344856" lon="-7.868804">
        <ele>109.645</ele>
        <time>1970-01-11T01:59:54Z</time>
      </trkpt>
      <trkpt lat="42.344865" lon="-7.868557">
        <ele>109.633</ele>
        <time>1970-01-11T01:59:54Z</time>
      </trkpt>
      <trkpt lat="42.344866" lon="-7.868327">
        <ele>109.882</ele>
        <time>1970-01-11T01:59:54Z</time>
      </trkpt>
      <trkpt lat="42.344853" lon="-7.867958">
        <ele>109.847</ele>
        <time>1970-01-11T01:59:54Z</time>
      </trkpt>
      <trkpt lat="42.344857" lon="-7.867880">
        <ele>109.895</ele>
        <time>1970-01-11T01:59:54Z</time>
      </trkpt>
      <trkpt lat="42.344914" lon="-7.867496">
        <ele>109.864</ele>
        <time>1970-01-11T01:59:54Z</time>
      </trkpt>
      <trkpt lat="42.344927" lon="-7.867369">
        <ele>109.855</ele>
        <time>1970-01-11T01:59:54Z</time>
      </trkpt>
      <trkpt lat="42.344960" lon="-7.867181">
        <ele>109.607</ele>
        <time>1970-01-11T01:59:54Z</time>
      </trkpt>
      <trkpt lat="42.344974" lon="-7.867120">
        <ele>109.617</ele>
        <time>1970-01-11T01:59:54Z</time>
      </trkpt>
      <trkpt lat="42.345050" lon="-7.866837">
        <ele>109.608</ele>
        <time>1970-01-11T01:59:54Z</time>
      </trkpt>
      <trkpt lat="42.345067" lon="-7.866782">
        <ele>109.616</ele>
        <time>1970-01-11T01:59:54Z</time>
      </trkpt>
      <trkpt lat="42.345083" lon="-7.866723">
        <ele>109.673</ele>
        <time>1970-01-11T01:59:54Z</time>
      </trkpt>
      <trkpt lat="42.345233" lon="-7.866296">
        <ele>109.489</ele>
        <time>1970-01-11T01:59:54Z</time>
      </trkpt>
      <trkpt lat="42.345327" lon="-7.866129">
        <ele>109.677</ele>
        <time>1970-01-11T01:59:54Z</time>
      </trkpt>
      <trkpt lat="42.345399" lon="-7.866015">
        <ele>109.616</ele>
        <time>1970-01-11T01:59:54Z</time>
      </trkpt>
      <trkpt lat="42.345466" lon="-7.865891">
        <ele>109.671</ele>
        <time>1970-01-11T01:59:54Z</time>
      </trkpt>
      <trkpt lat="42.345643" lon="-7.865568">
        <ele>109.449</ele>
        <time>1970-01-11T01:59:54Z</time>
      </trkpt>
      <trkpt lat="42.345680" lon="-7.865543">
        <ele>109.478</ele>
        <time>1970-01-11T01:59:54Z</time>
      </trkpt>
      <trkpt lat="42.345854" lon="-7.865385">
        <ele>109.457</ele>
        <time>1970-01-11T01:59:54Z</time>
      </trkpt>
      <trkpt lat="42.345936" lon="-7.865230">
        <ele>109.200</ele>
        <time>1970-01-11T01:59:54Z</time>
      </trkpt>
      <trkpt lat="42.345922" lon="-7.865019">
        <ele>109.020</ele>
        <time>1970-01-11T01:59:54Z</time>
      </trkpt>
      <trkpt lat="42.345922" lon="-7.864872">
        <ele>109.208</ele>
        <time>1970-01-11T01:59:54Z</time>
      </trkpt>
      <trkpt lat="42.345958" lon="-7.864713">
        <ele>110.856</ele>
        <time>1970-01-11T01:59:54Z</time>
      </trkpt>
      <trkpt lat="42.345975" lon="-7.864662">
        <ele>111.253</ele>
        <time>1970-01-11T01:59:54Z</time>
      </trkpt>
      <trkpt lat="42.346042" lon="-7.864500">
        <ele>112.219</ele>
        <time>1970-01-11T01:59:54Z</time>
      </trkpt>
      <trkpt lat="42.346120" lon="-7.864326">
        <ele>112.857</ele>
        <time>1970-01-11T01:59:54Z</time>
      </trkpt>
      <trkpt lat="42.346184" lon="-7.864149">
        <ele>113.496</ele>
        <time>1970-01-11T01:59:54Z</time>
      </trkpt>
      <trkpt lat="42.346288" lon="-7.863920">
        <ele>114.261</ele>
        <time>1970-01-11T01:59:54Z</time>
      </trkpt>
      <trkpt lat="42.346319" lon="-7.863861">
        <ele>114.469</ele>
        <time>1970-01-11T01:59:54Z</time>
      </trkpt>
      <trkpt lat="42.346492" lon="-7.863521">
        <ele>114.898</ele>
        <time>1970-01-11T01:59:54Z</time>
      </trkpt>
      <trkpt lat="42.346597" lon="-7.863356">
        <ele>114.868</ele>
        <time>1970-01-11T01:59:54Z</time>
      </trkpt>
      <trkpt lat="42.346720" lon="-7.863140">
        <ele>114.842</ele>
        <time>1970-01-11T01:59:54Z</time>
      </trkpt>
      <trkpt lat="42.346922" lon="-7.862719">
        <ele>115.026</ele>
        <time>1970-01-11T01:59:54Z</time>
      </trkpt>
      <trkpt lat="42.346976" lon="-7.862597">
        <ele>115.008</ele>
        <time>1970-01-11T01:59:54Z</time>
      </trkpt>
      <trkpt lat="42.347054" lon="-7.862423">
        <ele>115.087</ele>
        <time>1970-01-11T01:59:54Z</time>
      </trkpt>
      <trkpt lat="42.347105" lon="-7.862312">
        <ele>115.094</ele>
        <time>1970-01-11T01:59:54Z</time>
      </trkpt>
      <trkpt lat="42.347272" lon="-7.861952">
        <ele>115.280</ele>
        <time>1970-01-11T01:59:54Z</time>
      </trkpt>
      <trkpt lat="42.347303" lon="-7.861901">
        <ele>115.258</ele>
        <time>1970-01-11T01:59:54Z</time>
      </trkpt>
      <trkpt lat="42.347311" lon="-7.861880">
        <ele>115.277</ele>
        <time>1970-01-11T01:59:54Z</time>
      </trkpt>
      <trkpt lat="42.347335" lon="-7.861813">
        <ele>115.252</ele>
        <time>1970-01-11T01:59:54Z</time>
      </trkpt>
      <trkpt lat="42.347409" lon="-7.861694">
        <ele>115.040</ele>
        <time>1970-01-11T01:59:54Z</time>
      </trkpt>
      <trkpt lat="42.347520" lon="-7.861537">
        <ele>115.259</ele>
        <time>1970-01-11T01:59:54Z</time>
      </trkpt>
      <trkpt lat="42.347613" lon="-7.861462">
        <ele>115.265</ele>
        <time>1970-01-11T01:59:54Z</time>
      </trkpt>
      <trkpt lat="42.347703" lon="-7.861396">
        <ele>115.268</ele>
        <time>1970-01-11T01:59:54Z</time>
      </trkpt>
      <trkpt lat="42.347769" lon="-7.861259">
        <ele>115.414</ele>
        <time>1970-01-11T01:59:54Z</time>
      </trkpt>
      <trkpt lat="42.347768" lon="-7.861096">
        <ele>115.408</ele>
        <time>1970-01-11T01:59:54Z</time>
      </trkpt>
      <trkpt lat="42.347769" lon="-7.861014">
        <ele>115.487</ele>
        <time>1970-01-11T01:59:54Z</time>
      </trkpt>
      <trkpt lat="42.347814" lon="-7.860852">
        <ele>115.284</ele>
        <time>1970-01-11T01:59:54Z</time>
      </trkpt>
      <trkpt lat="42.347848" lon="-7.860780">
        <ele>115.210</ele>
        <time>1970-01-11T01:59:54Z</time>
      </trkpt>
      <trkpt lat="42.347885" lon="-7.860709">
        <ele>115.278</ele>
        <time>1970-01-11T01:59:54Z</time>
      </trkpt>
      <trkpt lat="42.347990" lon="-7.860483">
        <ele>115.287</ele>
        <time>1970-01-11T01:59:54Z</time>
      </trkpt>
      <trkpt lat="42.348090" lon="-7.860244">
        <ele>115.422</ele>
        <time>1970-01-11T01:59:54Z</time>
      </trkpt>
      <trkpt lat="42.348294" lon="-7.859747">
        <ele>116.080</ele>
        <time>1970-01-11T01:59:54Z</time>
      </trkpt>
      <trkpt lat="42.348515" lon="-7.859200">
        <ele>116.099</ele>
        <time>1970-01-11T01:59:54Z</time>
      </trkpt>
      <trkpt lat="42.348722" lon="-7.858603">
        <ele>115.621</ele>
        <time>1970-01-11T01:59:54Z</time>
      </trkpt>
      <trkpt lat="42.348771" lon="-7.858465">
        <ele>115.641</ele>
        <time>1970-01-11T01:59:54Z</time>
      </trkpt>
      <trkpt lat="42.348879" lon="-7.858199">
        <ele>115.805</ele>
        <time>1970-01-11T01:59:54Z</time>
      </trkpt>
      <trkpt lat="42.348958" lon="-7.858064">
        <ele>116.008</ele>
        <time>1970-01-11T01:59:54Z</time>
      </trkpt>
      <trkpt lat="42.349021" lon="-7.857912">
        <ele>116.043</ele>
        <time>1970-01-11T01:59:54Z</time>
      </trkpt>
      <trkpt lat="42.349094" lon="-7.857771">
        <ele>116.060</ele>
        <time>1970-01-11T01:59:54Z</time>
      </trkpt>
      <trkpt lat="42.349189" lon="-7.857657">
        <ele>116.026</ele>
        <time>1970-01-11T01:59:54Z</time>
      </trkpt>
      <trkpt lat="42.349339" lon="-7.857491">
        <ele>116.074</ele>
        <time>1970-01-11T01:59:54Z</time>
      </trkpt>
      <trkpt lat="42.349595" lon="-7.857149">
        <ele>116.013</ele>
        <time>1970-01-11T01:59:54Z</time>
      </trkpt>
      <trkpt lat="42.349613" lon="-7.857073">
        <ele>116.038</ele>
        <time>1970-01-11T01:59:54Z</time>
      </trkpt>
      <trkpt lat="42.349588" lon="-7.856832">
        <ele>116.246</ele>
        <time>1970-01-11T01:59:54Z</time>
      </trkpt>
      <trkpt lat="42.349569" lon="-7.856754">
        <ele>116.285</ele>
        <time>1970-01-11T01:59:54Z</time>
      </trkpt>
      <trkpt lat="42.349506" lon="-7.856438">
        <ele>116.236</ele>
        <time>1970-01-11T01:59:54Z</time>
      </trkpt>
      <trkpt lat="42.349514" lon="-7.856358">
        <ele>116.417</ele>
        <time>1970-01-11T01:59:54Z</time>
      </trkpt>
      <trkpt lat="42.349532" lon="-7.856200">
        <ele>116.418</ele>
        <time>1970-01-11T01:59:54Z</time>
      </trkpt>
      <trkpt lat="42.349554" lon="-7.855946">
        <ele>116.408</ele>
        <time>1970-01-11T01:59:54Z</time>
      </trkpt>
      <trkpt lat="42.349665" lon="-7.855561">
        <ele>116.264</ele>
        <time>1970-01-11T01:59:54Z</time>
      </trkpt>
      <trkpt lat="42.349768" lon="-7.855205">
        <ele>115.851</ele>
        <time>1970-01-11T01:59:55Z</time>
      </trkpt>
      <trkpt lat="42.349819" lon="-7.855003">
        <ele>115.857</ele>
        <time>1970-01-11T01:59:55Z</time>
      </trkpt>
      <trkpt lat="42.349852" lon="-7.854890">
        <ele>115.815</ele>
        <time>1970-01-11T01:59:55Z</time>
      </trkpt>
      <trkpt lat="42.349849" lon="-7.854840">
        <ele>115.634</ele>
        <time>1970-01-11T01:59:55Z</time>
      </trkpt>
      <trkpt lat="42.349829" lon="-7.854809">
        <ele>115.699</ele>
        <time>1970-01-11T01:59:55Z</time>
      </trkpt>
      <trkpt lat="42.349776" lon="-7.854641">
        <ele>115.287</ele>
        <time>1970-01-11T01:59:55Z</time>
      </trkpt>
      <trkpt lat="42.349795" lon="-7.854593">
        <ele>115.256</ele>
        <time>1970-01-11T01:59:55Z</time>
      </trkpt>
      <trkpt lat="42.349817" lon="-7.854542">
        <ele>115.237</ele>
        <time>1970-01-11T01:59:55Z</time>
      </trkpt>
      <trkpt lat="42.349844" lon="-7.854495">
        <ele>115.249</ele>
        <time>1970-01-11T01:59:55Z</time>
      </trkpt>
      <trkpt lat="42.349876" lon="-7.854451">
        <ele>115.213</ele>
        <time>1970-01-11T01:59:55Z</time>
      </trkpt>
      <trkpt lat="42.349949" lon="-7.854367">
        <ele>115.608</ele>
        <time>1970-01-11T01:59:55Z</time>
      </trkpt>
      <trkpt lat="42.349980" lon="-7.854322">
        <ele>115.874</ele>
        <time>1970-01-11T01:59:55Z</time>
      </trkpt>
      <trkpt lat="42.350025" lon="-7.854225">
        <ele>116.471</ele>
        <time>1970-01-11T01:59:55Z</time>
      </trkpt>
      <trkpt lat="42.350044" lon="-7.854171">
        <ele>116.617</ele>
        <time>1970-01-11T01:59:55Z</time>
      </trkpt>
      <trkpt lat="42.350064" lon="-7.854114">
        <ele>116.875</ele>
        <time>1970-01-11T01:59:55Z</time>
      </trkpt>
      <trkpt lat="42.350154" lon="-7.853904">
        <ele>117.444</ele>
        <time>1970-01-11T01:59:55Z</time>
      </trkpt>
      <trkpt lat="42.350211" lon="-7.853803">
        <ele>117.699</ele>
        <time>1970-01-11T01:59:55Z</time>
      </trkpt>
      <trkpt lat="42.350303" lon="-7.853651">
        <ele>117.827</ele>
        <time>1970-01-11T01:59:55Z</time>
      </trkpt>
      <trkpt lat="42.350349" lon="-7.853544">
        <ele>117.856</ele>
        <time>1970-01-11T01:59:55Z</time>
      </trkpt>
      <trkpt lat="42.350392" lon="-7.853443">
        <ele>117.898</ele>
        <time>1970-01-11T01:59:55Z</time>
      </trkpt>
      <trkpt lat="42.350520" lon="-7.853268">
        <ele>118.415</ele>
        <time>1970-01-11T01:59:55Z</time>
      </trkpt>
      <trkpt lat="42.350827" lon="-7.852918">
        <ele>118.426</ele>
        <time>1970-01-11T01:59:55Z</time>
      </trkpt>
      <trkpt lat="42.350954" lon="-7.852783">
        <ele>118.408</ele>
        <time>1970-01-11T01:59:55Z</time>
      </trkpt>
      <trkpt lat="42.351055" lon="-7.852711">
        <ele>118.430</ele>
        <time>1970-01-11T01:59:55Z</time>
      </trkpt>
      <trkpt lat="42.351261" lon="-7.852710">
        <ele>118.497</ele>
        <time>1970-01-11T01:59:55Z</time>
      </trkpt>
      <trkpt lat="42.351309" lon="-7.852735">
        <ele>118.443</ele>
        <time>1970-01-11T01:59:55Z</time>
      </trkpt>
      <trkpt lat="42.351410" lon="-7.852791">
        <ele>118.811</ele>
        <time>1970-01-11T01:59:55Z</time>
      </trkpt>
      <trkpt lat="42.351511" lon="-7.852860">
        <ele>119.260</ele>
        <time>1970-01-11T01:59:55Z</time>
      </trkpt>
      <trkpt lat="42.351714" lon="-7.853138">
        <ele>119.685</ele>
        <time>1970-01-11T01:59:55Z</time>
      </trkpt>
      <trkpt lat="42.351837" lon="-7.853519">
        <ele>119.493</ele>
        <time>1970-01-11T01:59:55Z</time>
      </trkpt>
      <trkpt lat="42.351897" lon="-7.853668">
        <ele>119.212</ele>
        <time>1970-01-11T01:59:55Z</time>
      </trkpt>
      <trkpt lat="42.352017" lon="-7.853859">
        <ele>119.056</ele>
        <time>1970-01-11T01:59:55Z</time>
      </trkpt>
      <trkpt lat="42.352174" lon="-7.853987">
        <ele>118.859</ele>
        <time>1970-01-11T01:59:55Z</time>
      </trkpt>
      <trkpt lat="42.352228" lon="-7.854020">
        <ele>118.814</ele>
        <time>1970-01-11T01:59:55Z</time>
      </trkpt>
      <trkpt lat="42.352285" lon="-7.854043">
        <ele>119.008</ele>
        <time>1970-01-11T01:59:55Z</time>
      </trkpt>
      <trkpt lat="42.352367" lon="-7.854101">
        <ele>119.066</ele>
        <time>1970-01-11T01:59:55Z</time>
      </trkpt>
      <trkpt lat="42.352373" lon="-7.854144">
        <ele>119.073</ele>
        <time>1970-01-11T01:59:55Z</time>
      </trkpt>
      <trkpt lat="42.352309" lon="-7.854231">
        <ele>118.889</ele>
        <time>1970-01-11T01:59:55Z</time>
      </trkpt>
      <trkpt lat="42.352268" lon="-7.854282">
        <ele>118.887</ele>
        <time>1970-01-11T01:59:55Z</time>
      </trkpt>
      <trkpt lat="42.352080" lon="-7.854524">
        <ele>117.896</ele>
        <time>1970-01-11T01:59:55Z</time>
      </trkpt>
      <trkpt lat="42.352026" lon="-7.854598">
        <ele>117.411</ele>
        <time>1970-01-11T01:59:55Z</time>
      </trkpt>
      <trkpt lat="42.351811" lon="-7.854893">
        <ele>116.489</ele>
        <time>1970-01-11T01:59:55Z</time>
      </trkpt>
      <trkpt lat="42.351778" lon="-7.854941">
        <ele>116.018</ele>
        <time>1970-01-11T01:59:55Z</time>
      </trkpt>
      <trkpt lat="42.351769" lon="-7.855013">
        <ele>114.881</ele>
        <time>1970-01-11T01:59:55Z</time>
      </trkpt>
      <trkpt lat="42.351796" lon="-7.855037">
        <ele>113.461</ele>
        <time>1970-01-11T01:59:55Z</time>
      </trkpt>
      <trkpt lat="42.351807" lon="-7.855031">
        <ele>112.817</ele>
        <time>1970-01-11T01:59:55Z</time>
      </trkpt>
      <trkpt lat="42.351814" lon="-7.855015">
        <ele>112.408</ele>
        <time>1970-01-11T01:59:55Z</time>
      </trkpt>
      <trkpt lat="42.351881" lon="-7.854906">
        <ele>112.049</ele>
        <time>1970-01-11T01:59:55Z</time>
      </trkpt>
      <trkpt lat="42.351972" lon="-7.854791">
        <ele>112.026</ele>
        <time>1970-01-11T01:59:55Z</time>
      </trkpt>
      <trkpt lat="42.352110" lon="-7.854655">
        <ele>112.282</ele>
        <time>1970-01-11T01:59:55Z</time>
      </trkpt>
      <trkpt lat="42.352201" lon="-7.854556">
        <ele>112.230</ele>
        <time>1970-01-11T01:59:55Z</time>
      </trkpt>
      <trkpt lat="42.352282" lon="-7.854455">
        <ele>112.229</ele>
        <time>1970-01-11T01:59:55Z</time>
      </trkpt>
      <trkpt lat="42.352325" lon="-7.854416">
        <ele>112.294</ele>
        <time>1970-01-11T01:59:55Z</time>
      </trkpt>
      <trkpt lat="42.352368" lon="-7.854377">
        <ele>112.042</ele>
        <time>1970-01-11T01:59:55Z</time>
      </trkpt>
      <trkpt lat="42.352624" lon="-7.854107">
        <ele>111.851</ele>
        <time>1970-01-11T01:59:55Z</time>
      </trkpt>
      <trkpt lat="42.352673" lon="-7.854083">
        <ele>111.897</ele>
        <time>1970-01-11T01:59:55Z</time>
      </trkpt>
      <trkpt lat="42.352770" lon="-7.854096">
        <ele>111.623</ele>
        <time>1970-01-11T01:59:55Z</time>
      </trkpt>
      <trkpt lat="42.352850" lon="-7.854164">
        <ele>111.625</ele>
        <time>1970-01-11T01:59:55Z</time>
      </trkpt>
      <trkpt lat="42.352928" lon="-7.854177">
        <ele>111.808</ele>
        <time>1970-01-11T01:59:55Z</time>
      </trkpt>
      <trkpt lat="42.352995" lon="-7.854111">
        <ele>112.010</ele>
        <time>1970-01-11T01:59:55Z</time>
      </trkpt>
      <trkpt lat="42.353030" lon="-7.854073">
        <ele>112.257</ele>
        <time>1970-01-11T01:59:55Z</time>
      </trkpt>
      <trkpt lat="42.353221" lon="-7.853898">
        <ele>112.653</ele>
        <time>1970-01-11T01:59:55Z</time>
      </trkpt>
      <trkpt lat="42.353316" lon="-7.853891">
        <ele>112.641</ele>
        <time>1970-01-11T01:59:55Z</time>
      </trkpt>
      <trkpt lat="42.353431" lon="-7.853975">
        <ele>113.030</ele>
        <time>1970-01-11T01:59:55Z</time>
      </trkpt>
      <trkpt lat="42.353490" lon="-7.854042">
        <ele>113.245</ele>
        <time>1970-01-11T01:59:55Z</time>
      </trkpt>
      <trkpt lat="42.353521" lon="-7.854044">
        <ele>113.223</ele>
        <time>1970-01-11T01:59:55Z</time>
      </trkpt>
      <trkpt lat="42.353545" lon="-7.854011">
        <ele>113.492</ele>
        <time>1970-01-11T01:59:55Z</time>
      </trkpt>
      <trkpt lat="42.353557" lon="-7.853960">
        <ele>113.644</ele>
        <time>1970-01-11T01:59:55Z</time>
      </trkpt>
      <trkpt lat="42.353576" lon="-7.853845">
        <ele>114.005</ele>
        <time>1970-01-11T01:59:55Z</time>
      </trkpt>
      <trkpt lat="42.353598" lon="-7.853788">
        <ele>114.215</ele>
        <time>1970-01-11T01:59:55Z</time>
      </trkpt>
      <trkpt lat="42.353656" lon="-7.853677">
        <ele>114.208</ele>
        <time>1970-01-11T01:59:55Z</time>
      </trkpt>
      <trkpt lat="42.353834" lon="-7.853506">
        <ele>114.265</ele>
        <time>1970-01-11T01:59:55Z</time>
      </trkpt>
      <trkpt lat="42.354206" lon="-7.853272">
        <ele>114.052</ele>
        <time>1970-01-11T01:59:55Z</time>
      </trkpt>
      <trkpt lat="42.354376" lon="-7.853191">
        <ele>113.838</ele>
        <time>1970-01-11T01:59:55Z</time>
      </trkpt>
      <trkpt lat="42.354554" lon="-7.853137">
        <ele>114.046</ele>
        <time>1970-01-11T01:59:55Z</time>
      </trkpt>
      <trkpt lat="42.354675" lon="-7.853104">
        <ele>114.035</ele>
        <time>1970-01-11T01:59:55Z</time>
      </trkpt>
      <trkpt lat="42.354849" lon="-7.853019">
        <ele>114.010</ele>
        <time>1970-01-11T01:59:55Z</time>
      </trkpt>
      <trkpt lat="42.355256" lon="-7.852827">
        <ele>114.658</ele>
        <time>1970-01-11T01:59:55Z</time>
      </trkpt>
      <trkpt lat="42.355429" lon="-7.852746">
        <ele>115.097</ele>
        <time>1970-01-11T01:59:55Z</time>
      </trkpt>
      <trkpt lat="42.355851" lon="-7.852525">
        <ele>115.037</ele>
        <time>1970-01-11T01:59:55Z</time>
      </trkpt>
      <trkpt lat="42.355912" lon="-7.852487">
        <ele>114.849</ele>
        <time>1970-01-11T01:59:55Z</time>
      </trkpt>
      <trkpt lat="42.356157" lon="-7.852336">
        <ele>115.013</ele>
        <time>1970-01-11T01:59:55Z</time>
      </trkpt>
      <trkpt lat="42.356340" lon="-7.852245">
        <ele>115.208</ele>
        <time>1970-01-11T01:59:55Z</time>
      </trkpt>
      <trkpt lat="42.356398" lon="-7.852254">
        <ele>115.224</ele>
        <time>1970-01-11T01:59:55Z</time>
      </trkpt>
      <trkpt lat="42.356560" lon="-7.852393">
        <ele>115.431</ele>
        <time>1970-01-11T01:59:55Z</time>
      </trkpt>
      <trkpt lat="42.356648" lon="-7.852509">
        <ele>115.617</ele>
        <time>1970-01-11T01:59:55Z</time>
      </trkpt>
      <trkpt lat="42.356684" lon="-7.852570">
        <ele>115.645</ele>
        <time>1970-01-11T01:59:55Z</time>
      </trkpt>
      <trkpt lat="42.356716" lon="-7.852633">
        <ele>115.814</ele>
        <time>1970-01-11T01:59:55Z</time>
      </trkpt>
      <trkpt lat="42.356763" lon="-7.852801">
        <ele>117.059</ele>
        <time>1970-01-11T01:59:55Z</time>
      </trkpt>
      <trkpt lat="42.356754" lon="-7.852855">
        <ele>117.627</ele>
        <time>1970-01-11T01:59:55Z</time>
      </trkpt>
      <trkpt lat="42.356737" lon="-7.852909">
        <ele>118.036</ele>
        <time>1970-01-11T01:59:55Z</time>
      </trkpt>
      <trkpt lat="42.356681" lon="-7.852991">
        <ele>119.296</ele>
        <time>1970-01-11T01:59:55Z</time>
      </trkpt>
      <trkpt lat="42.356638" lon="-7.853028">
        <ele>119.831</ele>
        <time>1970-01-11T01:59:55Z</time>
      </trkpt>
      <trkpt lat="42.356594" lon="-7.853068">
        <ele>120.224</ele>
        <time>1970-01-11T01:59:55Z</time>
      </trkpt>
      <trkpt lat="42.356485" lon="-7.853194">
        <ele>121.408</ele>
        <time>1970-01-11T01:59:55Z</time>
      </trkpt>
      <trkpt lat="42.356455" lon="-7.853252">
        <ele>122.040</ele>
        <time>1970-01-11T01:59:55Z</time>
      </trkpt>
      <trkpt lat="42.356461" lon="-7.853300">
        <ele>122.867</ele>
        <time>1970-01-11T01:59:55Z</time>
      </trkpt>
      <trkpt lat="42.356489" lon="-7.853295">
        <ele>123.433</ele>
        <time>1970-01-11T01:59:55Z</time>
      </trkpt>
      <trkpt lat="42.356527" lon="-7.853300">
        <ele>123.861</ele>
        <time>1970-01-11T01:59:55Z</time>
      </trkpt>
      <trkpt lat="42.356543" lon="-7.853317">
        <ele>124.280</ele>
        <time>1970-01-11T01:59:55Z</time>
      </trkpt>
      <trkpt lat="42.356557" lon="-7.853336">
        <ele>124.415</ele>
        <time>1970-01-11T01:59:55Z</time>
      </trkpt>
      <trkpt lat="42.356589" lon="-7.853379">
        <ele>124.823</ele>
        <time>1970-01-11T01:59:55Z</time>
      </trkpt>
      <trkpt lat="42.356614" lon="-7.853425">
        <ele>126.222</ele>
        <time>1970-01-11T01:59:55Z</time>
      </trkpt>
      <trkpt lat="42.356643" lon="-7.853457">
        <ele>127.627</ele>
        <time>1970-01-11T01:59:55Z</time>
      </trkpt>
      <trkpt lat="42.356671" lon="-7.853465">
        <ele>128.468</ele>
        <time>1970-01-11T01:59:55Z</time>
      </trkpt>
      <trkpt lat="42.356687" lon="-7.853462">
        <ele>128.614</ele>
        <time>1970-01-11T01:59:55Z</time>
      </trkpt>
      <trkpt lat="42.356707" lon="-7.853455">
        <ele>128.808</ele>
        <time>1970-01-11T01:59:55Z</time>
      </trkpt>
      <trkpt lat="42.356810" lon="-7.853421">
        <ele>129.833</ele>
        <time>1970-01-11T01:59:55Z</time>
      </trkpt>
      <trkpt lat="42.356830" lon="-7.853417">
        <ele>130.010</ele>
        <time>1970-01-11T01:59:55Z</time>
      </trkpt>
      <trkpt lat="42.356938" lon="-7.853344">
        <ele>131.096</ele>
        <time>1970-01-11T01:59:55Z</time>
      </trkpt>
      <trkpt lat="42.356947" lon="-7.853331">
        <ele>131.294</ele>
        <time>1970-01-11T01:59:55Z</time>
      </trkpt>
      <trkpt lat="42.356974" lon="-7.853259">
        <ele>132.253</ele>
        <time>1970-01-11T01:59:55Z</time>
      </trkpt>
      <trkpt lat="42.356996" lon="-7.853183">
        <ele>132.818</ele>
        <time>1970-01-11T01:59:55Z</time>
      </trkpt>
      <trkpt lat="42.357039" lon="-7.853121">
        <ele>133.216</ele>
        <time>1970-01-11T01:59:55Z</time>
      </trkpt>
      <trkpt lat="42.357063" lon="-7.853102">
        <ele>133.415</ele>
        <time>1970-01-11T01:59:55Z</time>
      </trkpt>
      <trkpt lat="42.357085" lon="-7.853083">
        <ele>133.485</ele>
        <time>1970-01-11T01:59:55Z</time>
      </trkpt>
      <trkpt lat="42.357141" lon="-7.852988">
        <ele>134.089</ele>
        <time>1970-01-11T01:59:55Z</time>
      </trkpt>
      <trkpt lat="42.357172" lon="-7.852955">
        <ele>134.217</ele>
        <time>1970-01-11T01:59:55Z</time>
      </trkpt>
      <trkpt lat="42.357210" lon="-7.852935">
        <ele>134.408</ele>
        <time>1970-01-11T01:59:55Z</time>
      </trkpt>
      <trkpt lat="42.357314" lon="-7.852914">
        <ele>134.629</ele>
        <time>1970-01-11T01:59:55Z</time>
      </trkpt>
      <trkpt lat="42.357454" lon="-7.852946">
        <ele>135.236</ele>
        <time>1970-01-11T01:59:55Z</time>
      </trkpt>
      <trkpt lat="42.357473" lon="-7.852946">
        <ele>135.442</ele>
        <time>1970-01-11T01:59:55Z</time>
      </trkpt>
      <trkpt lat="42.357542" lon="-7.852949">
        <ele>136.610</ele>
        <time>1970-01-11T01:59:55Z</time>
      </trkpt>
      <trkpt lat="42.357566" lon="-7.852958">
        <ele>136.849</ele>
        <time>1970-01-11T01:59:55Z</time>
      </trkpt>
      <trkpt lat="42.357608" lon="-7.852986">
        <ele>137.884</ele>
        <time>1970-01-11T01:59:55Z</time>
      </trkpt>
      <trkpt lat="42.357640" lon="-7.853011">
        <ele>138.882</ele>
        <time>1970-01-11T01:59:55Z</time>
      </trkpt>
      <trkpt lat="42.357653" lon="-7.853016">
        <ele>139.221</ele>
        <time>1970-01-11T01:59:55Z</time>
      </trkpt>
      <trkpt lat="42.357704" lon="-7.853022">
        <ele>140.684</ele>
        <time>1970-01-11T01:59:55Z</time>
      </trkpt>
      <trkpt lat="42.357723" lon="-7.853018">
        <ele>141.007</ele>
        <time>1970-01-11T01:59:55Z</time>
      </trkpt>
      <trkpt lat="42.357768" lon="-7.853006">
        <ele>142.017</ele>
        <time>1970-01-11T01:59:55Z</time>
      </trkpt>
      <trkpt lat="42.357819" lon="-7.852993">
        <ele>143.208</ele>
        <time>1970-01-11T01:59:55Z</time>
      </trkpt>
      <trkpt lat="42.357859" lon="-7.852991">
        <ele>144.419</ele>
        <time>1970-01-11T01:59:55Z</time>
      </trkpt>
      <trkpt lat="42.357953" lon="-7.853035">
        <ele>145.686</ele>
        <time>1970-01-11T01:59:55Z</time>
      </trkpt>
      <trkpt lat="42.357971" lon="-7.853054">
        <ele>145.662</ele>
        <time>1970-01-11T01:59:55Z</time>
      </trkpt>
      <trkpt lat="42.358036" lon="-7.853094">
        <ele>145.840</ele>
        <time>1970-01-11T01:59:55Z</time>
      </trkpt>
      <trkpt lat="42.358076" lon="-7.853111">
        <ele>145.879</ele>
        <time>1970-01-11T01:59:55Z</time>
      </trkpt>
      <trkpt lat="42.358099" lon="-7.853122">
        <ele>146.084</ele>
        <time>1970-01-11T01:59:55Z</time>
      </trkpt>
      <trkpt lat="42.358189" lon="-7.853210">
        <ele>146.472</ele>
        <time>1970-01-11T01:59:55Z</time>
      </trkpt>
      <trkpt lat="42.358203" lon="-7.853233">
        <ele>146.681</ele>
        <time>1970-01-11T01:59:55Z</time>
      </trkpt>
      <trkpt lat="42.358216" lon="-7.853256">
        <ele>146.848</ele>
        <time>1970-01-11T01:59:55Z</time>
      </trkpt>
      <trkpt lat="42.358261" lon="-7.853409">
        <ele>147.461</ele>
        <time>1970-01-11T01:59:55Z</time>
      </trkpt>
      <trkpt lat="42.358273" lon="-7.853519">
        <ele>147.617</ele>
        <time>1970-01-11T01:59:55Z</time>
      </trkpt>
      <trkpt lat="42.358246" lon="-7.853684">
        <ele>147.608</ele>
        <time>1970-01-11T01:59:55Z</time>
      </trkpt>
      <trkpt lat="42.358231" lon="-7.853768">
        <ele>147.635</ele>
        <time>1970-01-11T01:59:55Z</time>
      </trkpt>
      <trkpt lat="42.358204" lon="-7.854050">
        <ele>148.092</ele>
        <time>1970-01-11T01:59:55Z</time>
      </trkpt>
      <trkpt lat="42.358202" lon="-7.854101">
        <ele>148.038</ele>
        <time>1970-01-11T01:59:55Z</time>
      </trkpt>
      <trkpt lat="42.358240" lon="-7.854340">
        <ele>148.456</ele>
        <time>1970-01-11T01:59:55Z</time>
      </trkpt>
      <trkpt lat="42.358256" lon="-7.854379">
        <ele>148.625</ele>
        <time>1970-01-11T01:59:55Z</time>
      </trkpt>
      <trkpt lat="42.358275" lon="-7.854419">
        <ele>148.620</ele>
        <time>1970-01-11T01:59:55Z</time>
      </trkpt>
      <trkpt lat="42.358382" lon="-7.854610">
        <ele>149.228</ele>
        <time>1970-01-11T01:59:55Z</time>
      </trkpt>
      <trkpt lat="42.358449" lon="-7.854722">
        <ele>149.637</ele>
        <time>1970-01-11T01:59:55Z</time>
      </trkpt>
      <trkpt lat="42.358469" lon="-7.854760">
        <ele>149.839</ele>
        <time>1970-01-11T01:59:55Z</time>
      </trkpt>
      <trkpt lat="42.358568" lon="-7.854953">
        <ele>150.201</ele>
        <time>1970-01-11T01:59:55Z</time>
      </trkpt>
      <trkpt lat="42.358745" lon="-7.855140">
        <ele>150.821</ele>
        <time>1970-01-11T01:59:55Z</time>
      </trkpt>
      <trkpt lat="42.358787" lon="-7.855168">
        <ele>150.808</ele>
        <time>1970-01-11T01:59:55Z</time>
      </trkpt>
      <trkpt lat="42.358830" lon="-7.855173">
        <ele>150.844</ele>
        <time>1970-01-11T01:59:55Z</time>
      </trkpt>
      <trkpt lat="42.358900" lon="-7.855158">
        <ele>150.841</ele>
        <time>1970-01-11T01:59:55Z</time>
      </trkpt>
      <trkpt lat="42.358980" lon="-7.855119">
        <ele>150.297</ele>
        <time>1970-01-11T01:59:55Z</time>
      </trkpt>
      <trkpt lat="42.359101" lon="-7.855096">
        <ele>150.225</ele>
        <time>1970-01-11T01:59:55Z</time>
      </trkpt>
      <trkpt lat="42.359258" lon="-7.855188">
        <ele>150.444</ele>
        <time>1970-01-11T01:59:55Z</time>
      </trkpt>
      <trkpt lat="42.359303" lon="-7.855178">
        <ele>150.499</ele>
        <time>1970-01-11T01:59:55Z</time>
      </trkpt>
      <trkpt lat="42.359328" lon="-7.855147">
        <ele>150.637</ele>
        <time>1970-01-11T01:59:55Z</time>
      </trkpt>
      <trkpt lat="42.359542" lon="-7.854889">
        <ele>151.676</ele>
        <time>1970-01-11T01:59:55Z</time>
      </trkpt>
      <trkpt lat="42.359620" lon="-7.854810">
        <ele>151.855</ele>
        <time>1970-01-11T01:59:55Z</time>
      </trkpt>
      <trkpt lat="42.359713" lon="-7.854732">
        <ele>152.007</ele>
        <time>1970-01-11T01:59:55Z</time>
      </trkpt>
      <trkpt lat="42.359747" lon="-7.854696">
        <ele>152.017</ele>
        <time>1970-01-11T01:59:55Z</time>
      </trkpt>
      <trkpt lat="42.359910" lon="-7.854482">
        <ele>152.608</ele>
        <time>1970-01-11T01:59:55Z</time>
      </trkpt>
      <trkpt lat="42.360001" lon="-7.854379">
        <ele>153.026</ele>
        <time>1970-01-11T01:59:55Z</time>
      </trkpt>
      <trkpt lat="42.360152" lon="-7.854255">
        <ele>153.423</ele>
        <time>1970-01-11T01:59:55Z</time>
      </trkpt>
      <trkpt lat="42.360433" lon="-7.854051">
        <ele>153.839</ele>
        <time>1970-01-11T01:59:55Z</time>
      </trkpt>
      <trkpt lat="42.360492" lon="-7.854030">
        <ele>153.697</ele>
        <time>1970-01-11T01:59:55Z</time>
      </trkpt>
      <trkpt lat="42.360688" lon="-7.853922">
        <ele>153.436</ele>
        <time>1970-01-11T01:59:55Z</time>
      </trkpt>
      <trkpt lat="42.360762" lon="-7.853894">
        <ele>153.271</ele>
        <time>1970-01-11T01:59:55Z</time>
      </trkpt>
      <trkpt lat="42.360920" lon="-7.853935">
        <ele>152.689</ele>
        <time>1970-01-11T01:59:55Z</time>
      </trkpt>
      <trkpt lat="42.361052" lon="-7.854059">
        <ele>151.818</ele>
        <time>1970-01-11T01:59:55Z</time>
      </trkpt>
      <trkpt lat="42.361098" lon="-7.854137">
        <ele>151.479</ele>
        <time>1970-01-11T01:59:55Z</time>
      </trkpt>
      <trkpt lat="42.361171" lon="-7.854303">
        <ele>151.005</ele>
        <time>1970-01-11T01:59:55Z</time>
      </trkpt>
      <trkpt lat="42.361207" lon="-7.854388">
        <ele>150.625</ele>
        <time>1970-01-11T01:59:55Z</time>
      </trkpt>
      <trkpt lat="42.361280" lon="-7.854555">
        <ele>150.408</ele>
        <time>1970-01-11T01:59:55Z</time>
      </trkpt>
      <trkpt lat="42.361380" lon="-7.854783">
        <ele>150.258</ele>
        <time>1970-01-11T01:59:55Z</time>
      </trkpt>
      <trkpt lat="42.361421" lon="-7.854881">
        <ele>150.655</ele>
        <time>1970-01-11T01:59:55Z</time>
      </trkpt>
      <trkpt lat="42.361452" lon="-7.854951">
        <ele>151.441</ele>
        <time>1970-01-11T01:59:55Z</time>
      </trkpt>
      <trkpt lat="42.361469" lon="-7.854980">
        <ele>152.069</ele>
        <time>1970-01-11T01:59:55Z</time>
      </trkpt>
      <trkpt lat="42.361493" lon="-7.855053">
        <ele>153.258</ele>
        <time>1970-01-11T01:59:55Z</time>
      </trkpt>
      <trkpt lat="42.361482" lon="-7.855126">
        <ele>154.673</ele>
        <time>1970-01-11T01:59:55Z</time>
      </trkpt>
      <trkpt lat="42.361449" lon="-7.855193">
        <ele>155.441</ele>
        <time>1970-01-11T01:59:55Z</time>
      </trkpt>
      <trkpt lat="42.361432" lon="-7.855226">
        <ele>155.830</ele>
        <time>1970-01-11T01:59:55Z</time>
      </trkpt>
      <trkpt lat="42.361379" lon="-7.855315">
        <ele>157.046</ele>
        <time>1970-01-11T01:59:55Z</time>
      </trkpt>
      <trkpt lat="42.361330" lon="-7.855398">
        <ele>158.088</ele>
        <time>1970-01-11T01:59:55Z</time>
      </trkpt>
      <trkpt lat="42.361317" lon="-7.855427">
        <ele>158.216</ele>
        <time>1970-01-11T01:59:55Z</time>
      </trkpt>
      <trkpt lat="42.361245" lon="-7.855510">
        <ele>159.408</ele>
        <time>1970-01-11T01:59:55Z</time>
      </trkpt>
      <trkpt lat="42.361211" lon="-7.855596">
        <ele>160.085</ele>
        <time>1970-01-11T01:59:55Z</time>
      </trkpt>
      <trkpt lat="42.361188" lon="-7.855656">
        <ele>160.272</ele>
        <time>1970-01-11T01:59:55Z</time>
      </trkpt>
      <trkpt lat="42.361173" lon="-7.855694">
        <ele>160.418</ele>
        <time>1970-01-11T01:59:55Z</time>
      </trkpt>
      <trkpt lat="42.361138" lon="-7.855879">
        <ele>160.836</ele>
        <time>1970-01-11T01:59:55Z</time>
      </trkpt>
      <trkpt lat="42.361160" lon="-7.856184">
        <ele>160.825</ele>
        <time>1970-01-11T01:59:55Z</time>
      </trkpt>
      <trkpt lat="42.361237" lon="-7.856418">
        <ele>161.460</ele>
        <time>1970-01-11T01:59:55Z</time>
      </trkpt>
      <trkpt lat="42.361281" lon="-7.856552">
        <ele>162.098</ele>
        <time>1970-01-11T01:59:55Z</time>
      </trkpt>
      <trkpt lat="42.361389" lon="-7.856865">
        <ele>162.617</ele>
        <time>1970-01-11T01:59:55Z</time>
      </trkpt>
      <trkpt lat="42.361422" lon="-7.856952">
        <ele>162.826</ele>
        <time>1970-01-11T01:59:55Z</time>
      </trkpt>
      <trkpt lat="42.361591" lon="-7.857267">
        <ele>163.647</ele>
        <time>1970-01-11T01:59:55Z</time>
      </trkpt>
      <trkpt lat="42.361796" lon="-7.857370">
        <ele>164.611</ele>
        <time>1970-01-11T01:59:55Z</time>
      </trkpt>
      <trkpt lat="42.361827" lon="-7.857392">
        <ele>164.808</ele>
        <time>1970-01-11T01:59:55Z</time>
      </trkpt>
      <trkpt lat="42.361972" lon="-7.857596">
        <ele>165.843</ele>
        <time>1970-01-11T01:59:55Z</time>
      </trkpt>
      <trkpt lat="42.361975" lon="-7.857638">
        <ele>165.840</ele>
        <time>1970-01-11T01:59:55Z</time>
      </trkpt>
      <trkpt lat="42.361968" lon="-7.857676">
        <ele>166.086</ele>
        <time>1970-01-11T01:59:55Z</time>
      </trkpt>
      <trkpt lat="42.361910" lon="-7.857749">
        <ele>165.674</ele>
        <time>1970-01-11T01:59:55Z</time>
      </trkpt>
      <trkpt lat="42.361833" lon="-7.857942">
        <ele>165.093</ele>
        <time>1970-01-11T01:59:55Z</time>
      </trkpt>
      <trkpt lat="42.361815" lon="-7.857990">
        <ele>165.298</ele>
        <time>1970-01-11T01:59:55Z</time>
      </trkpt>
      <trkpt lat="42.361733" lon="-7.858114">
        <ele>165.436</ele>
        <time>1970-01-11T01:59:55Z</time>
      </trkpt>
      <trkpt lat="42.361691" lon="-7.858143">
        <ele>165.455</ele>
        <time>1970-01-11T01:59:55Z</time>
      </trkpt>
      <trkpt lat="42.361536" lon="-7.858146">
        <ele>165.494</ele>
        <time>1970-01-11T01:59:55Z</time>
      </trkpt>
      <trkpt lat="42.361483" lon="-7.858130">
        <ele>165.657</ele>
        <time>1970-01-11T01:59:55Z</time>
      </trkpt>
      <trkpt lat="42.361372" lon="-7.858129">
        <ele>165.822</ele>
        <time>1970-01-11T01:59:55Z</time>
      </trkpt>
      <trkpt lat="42.361337" lon="-7.858184">
        <ele>166.008</ele>
        <time>1970-01-11T01:59:55Z</time>
      </trkpt>
      <trkpt lat="42.361344" lon="-7.858325">
        <ele>166.050</ele>
        <time>1970-01-11T01:59:55Z</time>
      </trkpt>
      <trkpt lat="42.361440" lon="-7.858479">
        <ele>166.297</ele>
        <time>1970-01-11T01:59:55Z</time>
      </trkpt>
      <trkpt lat="42.361524" lon="-7.858555">
        <ele>166.613</ele>
        <time>1970-01-11T01:59:55Z</time>
      </trkpt>
      <trkpt lat="42.361575" lon="-7.858583">
        <ele>166.621</ele>
        <time>1970-01-11T01:59:55Z</time>
      </trkpt>
      <trkpt lat="42.361673" lon="-7.858651">
        <ele>166.670</ele>
        <time>1970-01-11T01:59:55Z</time>
      </trkpt>
      <trkpt lat="42.361715" lon="-7.858697">
        <ele>166.655</ele>
        <time>1970-01-11T01:59:55Z</time>
      </trkpt>
      <trkpt lat="42.361814" lon="-7.858871">
        <ele>166.613</ele>
        <time>1970-01-11T01:59:55Z</time>
      </trkpt>
      <trkpt lat="42.361841" lon="-7.858934">
        <ele>166.632</ele>
        <time>1970-01-11T01:59:55Z</time>
      </trkpt>
      <trkpt lat="42.362000" lon="-7.859385">
        <ele>166.652</ele>
        <time>1970-01-11T01:59:55Z</time>
      </trkpt>
      <trkpt lat="42.362134" lon="-7.859740">
        <ele>166.853</ele>
        <time>1970-01-11T01:59:55Z</time>
      </trkpt>
      <trkpt lat="42.362156" lon="-7.859800">
        <ele>167.008</ele>
        <time>1970-01-11T01:59:55Z</time>
      </trkpt>
      <trkpt lat="42.362177" lon="-7.859861">
        <ele>167.208</ele>
        <time>1970-01-11T01:59:55Z</time>
      </trkpt>
      <trkpt lat="42.362217" lon="-7.859988">
        <ele>168.066</ele>
        <time>1970-01-11T01:59:55Z</time>
      </trkpt>
      <trkpt lat="42.362290" lon="-7.860248">
        <ele>169.083</ele>
        <time>1970-01-11T01:59:55Z</time>
      </trkpt>
      <trkpt lat="42.362346" lon="-7.860440">
        <ele>169.499</ele>
        <time>1970-01-11T01:59:55Z</time>
      </trkpt>
      <trkpt lat="42.362403" lon="-7.860778">
        <ele>170.057</ele>
        <time>1970-01-11T01:59:55Z</time>
      </trkpt>
      <trkpt lat="42.362409" lon="-7.860825">
        <ele>170.216</ele>
        <time>1970-01-11T01:59:55Z</time>
      </trkpt>
      <trkpt lat="42.362432" lon="-7.861033">
        <ele>171.211</ele>
        <time>1970-01-11T01:59:55Z</time>
      </trkpt>
      <trkpt lat="42.362432" lon="-7.861082">
        <ele>171.449</ele>
        <time>1970-01-11T01:59:55Z</time>
      </trkpt>
      <trkpt lat="42.362422" lon="-7.861184">
        <ele>172.248</ele>
        <time>1970-01-11T01:59:55Z</time>
      </trkpt>
      <trkpt lat="42.362420" lon="-7.861283">
        <ele>173.266</ele>
        <time>1970-01-11T01:59:55Z</time>
      </trkpt>
      <trkpt lat="42.362413" lon="-7.861380">
        <ele>173.829</ele>
        <time>1970-01-11T01:59:55Z</time>
      </trkpt>
      <trkpt lat="42.362414" lon="-7.861491">
        <ele>174.421</ele>
        <time>1970-01-11T01:59:55Z</time>
      </trkpt>
      <trkpt lat="42.362404" lon="-7.861583">
        <ele>174.808</ele>
        <time>1970-01-11T01:59:55Z</time>
      </trkpt>
      <trkpt lat="42.362355" lon="-7.861870">
        <ele>174.887</ele>
        <time>1970-01-11T01:59:55Z</time>
      </trkpt>
      <trkpt lat="42.362306" lon="-7.862118">
        <ele>174.264</ele>
        <time>1970-01-11T01:59:55Z</time>
      </trkpt>
      <trkpt lat="42.362303" lon="-7.862228">
        <ele>174.080</ele>
        <time>1970-01-11T01:59:55Z</time>
      </trkpt>
      <trkpt lat="42.362315" lon="-7.862495">
        <ele>173.628</ele>
        <time>1970-01-11T01:59:55Z</time>
      </trkpt>
      <trkpt lat="42.362315" lon="-7.862574">
        <ele>173.087</ele>
        <time>1970-01-11T01:59:55Z</time>
      </trkpt>
      <trkpt lat="42.362336" lon="-7.862723">
        <ele>172.022</ele>
        <time>1970-01-11T01:59:55Z</time>
      </trkpt>
      <trkpt lat="42.362361" lon="-7.862770">
        <ele>171.670</ele>
        <time>1970-01-11T01:59:55Z</time>
      </trkpt>
      <trkpt lat="42.362382" lon="-7.862798">
        <ele>171.249</ele>
        <time>1970-01-11T01:59:55Z</time>
      </trkpt>
      <trkpt lat="42.362442" lon="-7.862815">
        <ele>170.433</ele>
        <time>1970-01-11T01:59:55Z</time>
      </trkpt>
      <trkpt lat="42.362484" lon="-7.862808">
        <ele>170.223</ele>
        <time>1970-01-11T01:59:55Z</time>
      </trkpt>
      <trkpt lat="42.362527" lon="-7.862788">
        <ele>170.015</ele>
        <time>1970-01-11T01:59:55Z</time>
      </trkpt>
      <trkpt lat="42.362617" lon="-7.862762">
        <ele>170.008</ele>
        <time>1970-01-11T01:59:55Z</time>
      </trkpt>
      <trkpt lat="42.362638" lon="-7.862751">
        <ele>170.054</ele>
        <time>1970-01-11T01:59:55Z</time>
      </trkpt>
      <trkpt lat="42.362764" lon="-7.862667">
        <ele>171.611</ele>
        <time>1970-01-11T01:59:55Z</time>
      </trkpt>
      <trkpt lat="42.362809" lon="-7.862630">
        <ele>172.437</ele>
        <time>1970-01-11T01:59:55Z</time>
      </trkpt>
      <trkpt lat="42.362829" lon="-7.862605">
        <ele>172.865</ele>
        <time>1970-01-11T01:59:55Z</time>
      </trkpt>
      <trkpt lat="42.362917" lon="-7.862522">
        <ele>173.664</ele>
        <time>1970-01-11T01:59:55Z</time>
      </trkpt>
      <trkpt lat="42.362940" lon="-7.862498">
        <ele>173.859</ele>
        <time>1970-01-11T01:59:55Z</time>
      </trkpt>
      <trkpt lat="42.363028" lon="-7.862416">
        <ele>175.037</ele>
        <time>1970-01-11T01:59:55Z</time>
      </trkpt>
      <trkpt lat="42.363051" lon="-7.862393">
        <ele>175.226</ele>
        <time>1970-01-11T01:59:55Z</time>
      </trkpt>
      <trkpt lat="42.363149" lon="-7.862298">
        <ele>176.039</ele>
        <time>1970-01-11T01:59:55Z</time>
      </trkpt>
      <trkpt lat="42.363240" lon="-7.862202">
        <ele>176.801</ele>
        <time>1970-01-11T01:59:55Z</time>
      </trkpt>
      <trkpt lat="42.363285" lon="-7.862155">
        <ele>177.221</ele>
        <time>1970-01-11T01:59:55Z</time>
      </trkpt>
      <trkpt lat="42.363403" lon="-7.862085">
        <ele>177.808</ele>
        <time>1970-01-11T01:59:55Z</time>
      </trkpt>
      <trkpt lat="42.363460" lon="-7.862101">
        <ele>178.434</ele>
        <time>1970-01-11T01:59:55Z</time>
      </trkpt>
      <trkpt lat="42.363569" lon="-7.862153">
        <ele>179.461</ele>
        <time>1970-01-11T01:59:55Z</time>
      </trkpt>
      <trkpt lat="42.363597" lon="-7.862163">
        <ele>179.647</ele>
        <time>1970-01-11T01:59:55Z</time>
      </trkpt>
      <trkpt lat="42.363799" lon="-7.862212">
        <ele>180.665</ele>
        <time>1970-01-11T01:59:55Z</time>
      </trkpt>
      <trkpt lat="42.363919" lon="-7.862220">
        <ele>181.874</ele>
        <time>1970-01-11T01:59:55Z</time>
      </trkpt>
      <trkpt lat="42.364013" lon="-7.862231">
        <ele>182.479</ele>
        <time>1970-01-11T01:59:55Z</time>
      </trkpt>
      <trkpt lat="42.364173" lon="-7.862237">
        <ele>183.027</ele>
        <time>1970-01-11T01:59:55Z</time>
      </trkpt>
      <trkpt lat="42.364231" lon="-7.862235">
        <ele>183.426</ele>
        <time>1970-01-11T01:59:55Z</time>
      </trkpt>
      <trkpt lat="42.364342" lon="-7.862230">
        <ele>184.219</ele>
        <time>1970-01-11T01:59:55Z</time>
      </trkpt>
      <trkpt lat="42.364469" lon="-7.862219">
        <ele>185.009</ele>
        <time>1970-01-11T01:59:55Z</time>
      </trkpt>
      <trkpt lat="42.364500" lon="-7.862219">
        <ele>185.219</ele>
        <time>1970-01-11T01:59:55Z</time>
      </trkpt>
      <trkpt lat="42.364669" lon="-7.862147">
        <ele>186.408</ele>
        <time>1970-01-11T01:59:55Z</time>
      </trkpt>
      <trkpt lat="42.364816" lon="-7.862027">
        <ele>187.662</ele>
        <time>1970-01-11T01:59:55Z</time>
      </trkpt>
      <trkpt lat="42.364856" lon="-7.861993">
        <ele>188.049</ele>
        <time>1970-01-11T01:59:55Z</time>
      </trkpt>
      <trkpt lat="42.364918" lon="-7.861942">
        <ele>188.625</ele>
        <time>1970-01-11T01:59:55Z</time>
      </trkpt>
      <trkpt lat="42.365014" lon="-7.861909">
        <ele>189.883</ele>
        <time>1970-01-11T01:59:55Z</time>
      </trkpt>
      <trkpt lat="42.365037" lon="-7.861906">
        <ele>190.072</ele>
        <time>1970-01-11T01:59:55Z</time>
      </trkpt>
      <trkpt lat="42.365117" lon="-7.861897">
        <ele>191.047</ele>
        <time>1970-01-11T01:59:55Z</time>
      </trkpt>
      <trkpt lat="42.365150" lon="-7.861885">
        <ele>191.425</ele>
        <time>1970-01-11T01:59:55Z</time>
      </trkpt>
      <trkpt lat="42.365197" lon="-7.861879">
        <ele>192.094</ele>
        <time>1970-01-11T01:59:55Z</time>
      </trkpt>
      <trkpt lat="42.365280" lon="-7.861902">
        <ele>193.477</ele>
        <time>1970-01-11T01:59:55Z</time>
      </trkpt>
      <trkpt lat="42.365344" lon="-7.861929">
        <ele>194.461</ele>
        <time>1970-01-11T01:59:55Z</time>
      </trkpt>
      <trkpt lat="42.365418" lon="-7.861974">
        <ele>195.827</ele>
        <time>1970-01-11T01:59:55Z</time>
      </trkpt>
      <trkpt lat="42.365437" lon="-7.861991">
        <ele>196.208</ele>
        <time>1970-01-11T01:59:55Z</time>
      </trkpt>
      <trkpt lat="42.365476" lon="-7.862024">
        <ele>197.258</ele>
        <time>1970-01-11T01:59:55Z</time>
      </trkpt>
      <trkpt lat="42.365521" lon="-7.862062">
        <ele>198.475</ele>
        <time>1970-01-11T01:59:55Z</time>
      </trkpt>
      <trkpt lat="42.365554" lon="-7.862080">
        <ele>199.091</ele>
        <time>1970-01-11T01:59:55Z</time>
      </trkpt>
      <trkpt lat="42.365587" lon="-7.862097">
        <ele>199.889</ele>
        <time>1970-01-11T01:59:55Z</time>
      </trkpt>
      <trkpt lat="42.365659" lon="-7.862083">
        <ele>200.838</ele>
        <time>1970-01-11T01:59:55Z</time>
      </trkpt>
      <trkpt lat="42.365675" lon="-7.862062">
        <ele>201.033</ele>
        <time>1970-01-11T01:59:55Z</time>
      </trkpt>
      <trkpt lat="42.365754" lon="-7.861945">
        <ele>202.481</ele>
        <time>1970-01-11T01:59:55Z</time>
      </trkpt>
      <trkpt lat="42.365788" lon="-7.861921">
        <ele>203.070</ele>
        <time>1970-01-11T01:59:55Z</time>
      </trkpt>
      <trkpt lat="42.365835" lon="-7.861898">
        <ele>203.481</ele>
        <time>1970-01-11T01:59:55Z</time>
      </trkpt>
      <trkpt lat="42.365908" lon="-7.861909">
        <ele>204.261</ele>
        <time>1970-01-11T01:59:55Z</time>
      </trkpt>
      <trkpt lat="42.365953" lon="-7.861913">
        <ele>204.617</ele>
        <time>1970-01-11T01:59:55Z</time>
      </trkpt>
      <trkpt lat="42.366135" lon="-7.861932">
        <ele>205.408</ele>
        <time>1970-01-11T01:59:55Z</time>
      </trkpt>
      <trkpt lat="42.366183" lon="-7.861931">
        <ele>205.859</ele>
        <time>1970-01-11T01:59:55Z</time>
      </trkpt>
      <trkpt lat="42.366291" lon="-7.861893">
        <ele>206.846</ele>
        <time>1970-01-11T01:59:55Z</time>
      </trkpt>
      <trkpt lat="42.366310" lon="-7.861877">
        <ele>207.032</ele>
        <time>1970-01-11T01:59:55Z</time>
      </trkpt>
      <trkpt lat="42.366392" lon="-7.861789">
        <ele>208.220</ele>
        <time>1970-01-11T01:59:55Z</time>
      </trkpt>
      <trkpt lat="42.366406" lon="-7.861766">
        <ele>208.449</ele>
        <time>1970-01-11T01:59:55Z</time>
      </trkpt>
      <trkpt lat="42.366469" lon="-7.861684">
        <ele>209.274</ele>
        <time>1970-01-11T01:59:55Z</time>
      </trkpt>
      <trkpt lat="42.366514" lon="-7.861635">
        <ele>210.212</ele>
        <time>1970-01-11T01:59:55Z</time>
      </trkpt>
      <trkpt lat="42.366532" lon="-7.861622">
        <ele>210.611</ele>
        <time>1970-01-11T01:59:55Z</time>
      </trkpt>
      <trkpt lat="42.366649" lon="-7.861554">
        <ele>211.687</ele>
        <time>1970-01-11T01:59:55Z</time>
      </trkpt>
      <trkpt lat="42.366755" lon="-7.861531">
        <ele>212.642</ele>
        <time>1970-01-11T01:59:55Z</time>
      </trkpt>
      <trkpt lat="42.366821" lon="-7.861514">
        <ele>213.026</ele>
        <time>1970-01-11T01:59:55Z</time>
      </trkpt>
      <trkpt lat="42.366931" lon="-7.861491">
        <ele>213.608</ele>
        <time>1970-01-11T01:59:55Z</time>
      </trkpt>
      <trkpt lat="42.366971" lon="-7.861479">
        <ele>214.069</ele>
        <time>1970-01-11T01:59:55Z</time>
      </trkpt>
      <trkpt lat="42.367036" lon="-7.861455">
        <ele>214.846</ele>
        <time>1970-01-11T01:59:55Z</time>
      </trkpt>
      <trkpt lat="42.367063" lon="-7.861444">
        <ele>215.272</ele>
        <time>1970-01-11T01:59:55Z</time>
      </trkpt>
      <trkpt lat="42.367099" lon="-7.861442">
        <ele>215.830</ele>
        <time>1970-01-11T01:59:55Z</time>
      </trkpt>
      <trkpt lat="42.367112" lon="-7.861445">
        <ele>216.259</ele>
        <time>1970-01-11T01:59:55Z</time>
      </trkpt>
      <trkpt lat="42.367173" lon="-7.861444">
        <ele>216.644</ele>
        <time>1970-01-11T01:59:55Z</time>
      </trkpt>
      <trkpt lat="42.367214" lon="-7.861425">
        <ele>217.252</ele>
        <time>1970-01-11T01:59:55Z</time>
      </trkpt>
      <trkpt lat="42.367244" lon="-7.861406">
        <ele>217.661</ele>
        <time>1970-01-11T01:59:55Z</time>
      </trkpt>
      <trkpt lat="42.367275" lon="-7.861382">
        <ele>217.865</ele>
        <time>1970-01-11T01:59:55Z</time>
      </trkpt>
      <trkpt lat="42.367308" lon="-7.861366">
        <ele>218.268</ele>
        <time>1970-01-11T01:59:55Z</time>
      </trkpt>
      <trkpt lat="42.367356" lon="-7.861333">
        <ele>219.414</ele>
        <time>1970-01-11T01:59:55Z</time>
      </trkpt>
      <trkpt lat="42.367405" lon="-7.861305">
        <ele>220.408</ele>
        <time>1970-01-11T01:59:55Z</time>
      </trkpt>
      <trkpt lat="42.367423" lon="-7.861296">
        <ele>220.827</ele>
        <time>1970-01-11T01:59:55Z</time>
      </trkpt>
      <trkpt lat="42.367475" lon="-7.861254">
        <ele>222.084</ele>
        <time>1970-01-11T01:59:55Z</time>
      </trkpt>
      <trkpt lat="42.367532" lon="-7.861208">
        <ele>223.610</ele>
        <time>1970-01-11T01:59:55Z</time>
      </trkpt>
      <trkpt lat="42.367561" lon="-7.861183">
        <ele>224.288</ele>
        <time>1970-01-11T01:59:55Z</time>
      </trkpt>
      <trkpt lat="42.367584" lon="-7.861165">
        <ele>224.687</ele>
        <time>1970-01-11T01:59:55Z</time>
      </trkpt>
      <trkpt lat="42.367639" lon="-7.861136">
        <ele>226.042</ele>
        <time>1970-01-11T01:59:55Z</time>
      </trkpt>
      <trkpt lat="42.367657" lon="-7.861122">
        <ele>226.230</ele>
        <time>1970-01-11T01:59:55Z</time>
      </trkpt>
      <trkpt lat="42.367744" lon="-7.861053">
        <ele>227.099</ele>
        <time>1970-01-11T01:59:55Z</time>
      </trkpt>
      <trkpt lat="42.367820" lon="-7.861000">
        <ele>228.095</ele>
        <time>1970-01-11T01:59:55Z</time>
      </trkpt>
      <trkpt lat="42.367859" lon="-7.860975">
        <ele>229.249</ele>
        <time>1970-01-11T01:59:55Z</time>
      </trkpt>
      <trkpt lat="42.367936" lon="-7.860931">
        <ele>230.023</ele>
        <time>1970-01-11T01:59:55Z</time>
      </trkpt>
      <trkpt lat="42.367955" lon="-7.860916">
        <ele>230.208</ele>
        <time>1970-01-11T01:59:55Z</time>
      </trkpt>
      <trkpt lat="42.368011" lon="-7.860853">
        <ele>231.280</ele>
        <time>1970-01-11T01:59:55Z</time>
      </trkpt>
      <trkpt lat="42.368040" lon="-7.860827">
        <ele>232.037</ele>
        <time>1970-01-11T01:59:55Z</time>
      </trkpt>
      <trkpt lat="42.368055" lon="-7.860818">
        <ele>232.433</ele>
        <time>1970-01-11T01:59:55Z</time>
      </trkpt>
      <trkpt lat="42.368093" lon="-7.860785">
        <ele>233.461</ele>
        <time>1970-01-11T01:59:55Z</time>
      </trkpt>
      <trkpt lat="42.368129" lon="-7.860741">
        <ele>234.640</ele>
        <time>1970-01-11T01:59:55Z</time>
      </trkpt>
      <trkpt lat="42.368131" lon="-7.860705">
        <ele>235.295</ele>
        <time>1970-01-11T01:59:55Z</time>
      </trkpt>
      <trkpt lat="42.368133" lon="-7.860682">
        <ele>235.683</ele>
        <time>1970-01-11T01:59:55Z</time>
      </trkpt>
      <trkpt lat="42.368146" lon="-7.860631">
        <ele>236.272</ele>
        <time>1970-01-11T01:59:55Z</time>
      </trkpt>
      <trkpt lat="42.368154" lon="-7.860610">
        <ele>236.653</ele>
        <time>1970-01-11T01:59:55Z</time>
      </trkpt>
      <trkpt lat="42.368180" lon="-7.860576">
        <ele>237.604</ele>
        <time>1970-01-11T01:59:55Z</time>
      </trkpt>
      <trkpt lat="42.368198" lon="-7.860568">
        <ele>237.814</ele>
        <time>1970-01-11T01:59:55Z</time>
      </trkpt>
      <trkpt lat="42.368225" lon="-7.860566">
        <ele>238.008</ele>
        <time>1970-01-11T01:59:55Z</time>
      </trkpt>
      <trkpt lat="42.368265" lon="-7.860577">
        <ele>238.216</ele>
        <time>1970-01-11T01:59:55Z</time>
      </trkpt>
      <trkpt lat="42.368279" lon="-7.860582">
        <ele>238.273</ele>
        <time>1970-01-11T01:59:55Z</time>
      </trkpt>
      <trkpt lat="42.368300" lon="-7.860606">
        <ele>238.489</ele>
        <time>1970-01-11T01:59:55Z</time>
      </trkpt>
      <trkpt lat="42.368325" lon="-7.860630">
        <ele>239.067</ele>
        <time>1970-01-11T01:59:55Z</time>
      </trkpt>
      <trkpt lat="42.368393" lon="-7.860695">
        <ele>240.246</ele>
        <time>1970-01-11T01:59:55Z</time>
      </trkpt>
      <trkpt lat="42.368409" lon="-7.860724">
        <ele>240.411</ele>
        <time>1970-01-11T01:59:55Z</time>
      </trkpt>
      <trkpt lat="42.368452" lon="-7.860776">
        <ele>241.489</ele>
        <time>1970-01-11T01:59:55Z</time>
      </trkpt>
      <trkpt lat="42.368496" lon="-7.860824">
        <ele>242.628</ele>
        <time>1970-01-11T01:59:55Z</time>
      </trkpt>
      <trkpt lat="42.368505" lon="-7.860835">
        <ele>243.029</ele>
        <time>1970-01-11T01:59:55Z</time>
      </trkpt>
      <trkpt lat="42.368558" lon="-7.860862">
        <ele>243.800</ele>
        <time>1970-01-11T01:59:55Z</time>
      </trkpt>
      <trkpt lat="42.368620" lon="-7.860844">
        <ele>244.620</ele>
        <time>1970-01-11T01:59:55Z</time>
      </trkpt>
      <trkpt lat="42.368699" lon="-7.860817">
        <ele>245.008</ele>
        <time>1970-01-11T01:59:55Z</time>
      </trkpt>
      <trkpt lat="42.368708" lon="-7.860806">
        <ele>245.233</ele>
        <time>1970-01-11T01:59:55Z</time>
      </trkpt>
      <trkpt lat="42.368716" lon="-7.860793">
        <ele>245.860</ele>
        <time>1970-01-11T01:59:55Z</time>
      </trkpt>
      <trkpt lat="42.368724" lon="-7.860780">
        <ele>246.446</ele>
        <time>1970-01-11T01:59:55Z</time>
      </trkpt>
      <trkpt lat="42.368763" lon="-7.860720">
        <ele>247.654</ele>
        <time>1970-01-11T01:59:55Z</time>
      </trkpt>
      <trkpt lat="42.368776" lon="-7.860691">
        <ele>248.093</ele>
        <time>1970-01-11T01:59:55Z</time>
      </trkpt>
      <trkpt lat="42.368782" lon="-7.860674">
        <ele>248.878</ele>
        <time>1970-01-11T01:59:55Z</time>
      </trkpt>
      <trkpt lat="42.368798" lon="-7.860625">
        <ele>249.866</ele>
        <time>1970-01-11T01:59:55Z</time>
      </trkpt>
      <trkpt lat="42.368817" lon="-7.860574">
        <ele>251.085</ele>
        <time>1970-01-11T01:59:55Z</time>
      </trkpt>
      <trkpt lat="42.368832" lon="-7.860542">
        <ele>251.646</ele>
        <time>1970-01-11T01:59:55Z</time>
      </trkpt>
      <trkpt lat="42.368856" lon="-7.860510">
        <ele>252.288</ele>
        <time>1970-01-11T01:59:55Z</time>
      </trkpt>
      <trkpt lat="42.368893" lon="-7.860444">
        <ele>253.416</ele>
        <time>1970-01-11T01:59:55Z</time>
      </trkpt>
      <trkpt lat="42.368902" lon="-7.860429">
        <ele>253.608</ele>
        <time>1970-01-11T01:59:55Z</time>
      </trkpt>
      <trkpt lat="42.368919" lon="-7.860370">
        <ele>254.695</ele>
        <time>1970-01-11T01:59:55Z</time>
      </trkpt>
      <trkpt lat="42.368936" lon="-7.860288">
        <ele>255.622</ele>
        <time>1970-01-11T01:59:55Z</time>
      </trkpt>
      <trkpt lat="42.368943" lon="-7.860266">
        <ele>255.858</ele>
        <time>1970-01-11T01:59:55Z</time>
      </trkpt>
      <trkpt lat="42.368957" lon="-7.860223">
        <ele>256.686</ele>
        <time>1970-01-11T01:59:55Z</time>
      </trkpt>
      <trkpt lat="42.368999" lon="-7.860125">
        <ele>257.825</ele>
        <time>1970-01-11T01:59:55Z</time>
      </trkpt>
      <trkpt lat="42.369012" lon="-7.860078">
        <ele>258.470</ele>
        <time>1970-01-11T01:59:55Z</time>
      </trkpt>
      <trkpt lat="42.369044" lon="-7.859970">
        <ele>258.868</ele>
        <time>1970-01-11T01:59:55Z</time>
      </trkpt>
      <trkpt lat="42.369070" lon="-7.859931">
        <ele>259.097</ele>
        <time>1970-01-11T01:59:55Z</time>
      </trkpt>
      <trkpt lat="42.369138" lon="-7.859855">
        <ele>260.083</ele>
        <time>1970-01-11T01:59:55Z</time>
      </trkpt>
      <trkpt lat="42.369179" lon="-7.859842">
        <ele>260.625</ele>
        <time>1970-01-11T01:59:55Z</time>
      </trkpt>
      <trkpt lat="42.369209" lon="-7.859837">
        <ele>261.017</ele>
        <time>1970-01-11T01:59:55Z</time>
      </trkpt>
      <trkpt lat="42.369266" lon="-7.859845">
        <ele>261.608</ele>
        <time>1970-01-11T01:59:56Z</time>
      </trkpt>
      <trkpt lat="42.369295" lon="-7.859858">
        <ele>262.299</ele>
        <time>1970-01-11T01:59:56Z</time>
      </trkpt>
      <trkpt lat="42.369368" lon="-7.859860">
        <ele>263.416</ele>
        <time>1970-01-11T01:59:56Z</time>
      </trkpt>
      <trkpt lat="42.369440" lon="-7.859868">
        <ele>264.672</ele>
        <time>1970-01-11T01:59:56Z</time>
      </trkpt>
      <trkpt lat="42.369497" lon="-7.859870">
        <ele>265.680</ele>
        <time>1970-01-11T01:59:56Z</time>
      </trkpt>
      <trkpt lat="42.369520" lon="-7.859871">
        <ele>266.049</ele>
        <time>1970-01-11T01:59:56Z</time>
      </trkpt>
      <trkpt lat="42.369595" lon="-7.859888">
        <ele>267.094</ele>
        <time>1970-01-11T01:59:56Z</time>
      </trkpt>
      <trkpt lat="42.369628" lon="-7.859897">
        <ele>267.692</ele>
        <time>1970-01-11T01:59:56Z</time>
      </trkpt>
      <trkpt lat="42.369695" lon="-7.859902">
        <ele>268.081</ele>
        <time>1970-01-11T01:59:56Z</time>
      </trkpt>
      <trkpt lat="42.369746" lon="-7.859899">
        <ele>268.652</ele>
        <time>1970-01-11T01:59:56Z</time>
      </trkpt>
      <trkpt lat="42.369799" lon="-7.859916">
        <ele>269.253</ele>
        <time>1970-01-11T01:59:56Z</time>
      </trkpt>
      <trkpt lat="42.369867" lon="-7.859946">
        <ele>269.808</ele>
        <time>1970-01-11T01:59:56Z</time>
      </trkpt>
      <trkpt lat="42.369941" lon="-7.859976">
        <ele>270.408</ele>
        <time>1970-01-11T01:59:56Z</time>
      </trkpt>
      <trkpt lat="42.369999" lon="-7.860005">
        <ele>271.026</ele>
        <time>1970-01-11T01:59:56Z</time>
      </trkpt>
      <trkpt lat="42.370030" lon="-7.860020">
        <ele>271.433</ele>
        <time>1970-01-11T01:59:56Z</time>
      </trkpt>
      <trkpt lat="42.370093" lon="-7.860061">
        <ele>272.449</ele>
        <time>1970-01-11T01:59:56Z</time>
      </trkpt>
      <trkpt lat="42.370133" lon="-7.860092">
        <ele>273.267</ele>
        <time>1970-01-11T01:59:56Z</time>
      </trkpt>
      <trkpt lat="42.370148" lon="-7.860102">
        <ele>273.696</ele>
        <time>1970-01-11T01:59:56Z</time>
      </trkpt>
      <trkpt lat="42.370209" lon="-7.860109">
        <ele>275.041</ele>
        <time>1970-01-11T01:59:56Z</time>
      </trkpt>
      <trkpt lat="42.370238" lon="-7.860110">
        <ele>275.649</ele>
        <time>1970-01-11T01:59:56Z</time>
      </trkpt>
      <trkpt lat="42.370255" lon="-7.860100">
        <ele>276.078</ele>
        <time>1970-01-11T01:59:56Z</time>
      </trkpt>
      <trkpt lat="42.370275" lon="-7.860095">
        <ele>276.265</ele>
        <time>1970-01-11T01:59:56Z</time>
      </trkpt>
      <trkpt lat="42.370320" lon="-7.860053">
        <ele>277.268</ele>
        <time>1970-01-11T01:59:56Z</time>
      </trkpt>
      <trkpt lat="42.370360" lon="-7.859979">
        <ele>278.414</ele>
        <time>1970-01-11T01:59:56Z</time>
      </trkpt>
      <trkpt lat="42.370380" lon="-7.859917">
        <ele>279.208</ele>
        <time>1970-01-11T01:59:56Z</time>
      </trkpt>
      <trkpt lat="42.370383" lon="-7.859872">
        <ele>279.657</ele>
        <time>1970-01-11T01:59:56Z</time>
      </trkpt>
      <trkpt lat="42.370383" lon="-7.859785">
        <ele>280.224</ele>
        <time>1970-01-11T01:59:56Z</time>
      </trkpt>
      <trkpt lat="42.370384" lon="-7.859762">
        <ele>280.430</ele>
        <time>1970-01-11T01:59:56Z</time>
      </trkpt>
      <trkpt lat="42.370386" lon="-7.859715">
        <ele>280.628</ele>
        <time>1970-01-11T01:59:56Z</time>
      </trkpt>
      <trkpt lat="42.370387" lon="-7.859585">
        <ele>281.437</ele>
        <time>1970-01-11T01:59:56Z</time>
      </trkpt>
      <trkpt lat="42.370391" lon="-7.859563">
        <ele>281.632</ele>
        <time>1970-01-11T01:59:56Z</time>
      </trkpt>
      <trkpt lat="42.370394" lon="-7.859541">
        <ele>281.810</ele>
        <time>1970-01-11T01:59:56Z</time>
      </trkpt>
      <trkpt lat="42.370421" lon="-7.859451">
        <ele>283.459</ele>
        <time>1970-01-11T01:59:56Z</time>
      </trkpt>
      <trkpt lat="42.370458" lon="-7.859363">
        <ele>284.297</ele>
        <time>1970-01-11T01:59:56Z</time>
      </trkpt>
      <trkpt lat="42.370485" lon="-7.859325">
        <ele>284.423</ele>
        <time>1970-01-11T01:59:56Z</time>
      </trkpt>
      <trkpt lat="42.370543" lon="-7.859304">
        <ele>284.625</ele>
        <time>1970-01-11T01:59:56Z</time>
      </trkpt>
      <trkpt lat="42.370603" lon="-7.859384">
        <ele>284.808</ele>
        <time>1970-01-11T01:59:56Z</time>
      </trkpt>
      <trkpt lat="42.370610" lon="-7.859513">
        <ele>285.620</ele>
        <time>1970-01-11T01:59:56Z</time>
      </trkpt>
      <trkpt lat="42.370603" lon="-7.859633">
        <ele>286.637</ele>
        <time>1970-01-11T01:59:56Z</time>
      </trkpt>
      <trkpt lat="42.370599" lon="-7.859704">
        <ele>287.863</ele>
        <time>1970-01-11T01:59:56Z</time>
      </trkpt>
      <trkpt lat="42.370611" lon="-7.859827">
        <ele>289.081</ele>
        <time>1970-01-11T01:59:56Z</time>
      </trkpt>
      <trkpt lat="42.370631" lon="-7.859894">
        <ele>289.680</ele>
        <time>1970-01-11T01:59:56Z</time>
      </trkpt>
      <trkpt lat="42.370648" lon="-7.859935">
        <ele>290.025</ele>
        <time>1970-01-11T01:59:56Z</time>
      </trkpt>
      <trkpt lat="42.370715" lon="-7.860044">
        <ele>290.813</ele>
        <time>1970-01-11T01:59:56Z</time>
      </trkpt>
      <trkpt lat="42.370729" lon="-7.860062">
        <ele>291.292</ele>
        <time>1970-01-11T01:59:56Z</time>
      </trkpt>
      <trkpt lat="42.370766" lon="-7.860128">
        <ele>292.277</ele>
        <time>1970-01-11T01:59:56Z</time>
      </trkpt>
      <trkpt lat="42.370786" lon="-7.860163">
        <ele>293.261</ele>
        <time>1970-01-11T01:59:56Z</time>
      </trkpt>
      <trkpt lat="42.370798" lon="-7.860180">
        <ele>293.427</ele>
        <time>1970-01-11T01:59:56Z</time>
      </trkpt>
      <trkpt lat="42.370856" lon="-7.860263">
        <ele>294.608</ele>
        <time>1970-01-11T01:59:56Z</time>
      </trkpt>
      <trkpt lat="42.370881" lon="-7.860284">
        <ele>294.838</ele>
        <time>1970-01-11T01:59:56Z</time>
      </trkpt>
      <trkpt lat="42.370927" lon="-7.860312">
        <ele>295.675</ele>
        <time>1970-01-11T01:59:56Z</time>
      </trkpt>
      <trkpt lat="42.371001" lon="-7.860360">
        <ele>296.491</ele>
        <time>1970-01-11T01:59:56Z</time>
      </trkpt>
      <trkpt lat="42.371015" lon="-7.860369">
        <ele>296.649</ele>
        <time>1970-01-11T01:59:56Z</time>
      </trkpt>
      <trkpt lat="42.371089" lon="-7.860418">
        <ele>297.828</ele>
        <time>1970-01-11T01:59:56Z</time>
      </trkpt>
      <trkpt lat="42.371120" lon="-7.860433">
        <ele>298.033</ele>
        <time>1970-01-11T01:59:56Z</time>
      </trkpt>
      <trkpt lat="42.371163" lon="-7.860446">
        <ele>299.031</ele>
        <time>1970-01-11T01:59:56Z</time>
      </trkpt>
      <trkpt lat="42.371214" lon="-7.860454">
        <ele>300.270</ele>
        <time>1970-01-11T01:59:56Z</time>
      </trkpt>
      <trkpt lat="42.371252" lon="-7.860453">
        <ele>301.043</ele>
        <time>1970-01-11T01:59:56Z</time>
      </trkpt>
      <trkpt lat="42.371269" lon="-7.860451">
        <ele>301.264</ele>
        <time>1970-01-11T01:59:56Z</time>
      </trkpt>
      <trkpt lat="42.371361" lon="-7.860399">
        <ele>302.210</ele>
        <time>1970-01-11T01:59:56Z</time>
      </trkpt>
      <trkpt lat="42.371375" lon="-7.860391">
        <ele>302.408</ele>
        <time>1970-01-11T01:59:56Z</time>
      </trkpt>
      <trkpt lat="42.371510" lon="-7.860306">
        <ele>303.465</ele>
        <time>1970-01-11T01:59:56Z</time>
      </trkpt>
      <trkpt lat="42.371608" lon="-7.860248">
        <ele>304.482</ele>
        <time>1970-01-11T01:59:56Z</time>
      </trkpt>
      <trkpt lat="42.371661" lon="-7.860231">
        <ele>305.218</ele>
        <time>1970-01-11T01:59:56Z</time>
      </trkpt>
      <trkpt lat="42.371691" lon="-7.860213">
        <ele>305.626</ele>
        <time>1970-01-11T01:59:56Z</time>
      </trkpt>
      <trkpt lat="42.371787" lon="-7.860190">
        <ele>306.425</ele>
        <time>1970-01-11T01:59:56Z</time>
      </trkpt>
      <trkpt lat="42.371805" lon="-7.860182">
        <ele>306.640</ele>
        <time>1970-01-11T01:59:56Z</time>
      </trkpt>
      <trkpt lat="42.371929" lon="-7.860178">
        <ele>307.858</ele>
        <time>1970-01-11T01:59:56Z</time>
      </trkpt>
      <trkpt lat="42.372051" lon="-7.860182">
        <ele>308.897</ele>
        <time>1970-01-11T01:59:56Z</time>
      </trkpt>
      <trkpt lat="42.372169" lon="-7.860228">
        <ele>310.269</ele>
        <time>1970-01-11T01:59:56Z</time>
      </trkpt>
      <trkpt lat="42.372186" lon="-7.860241">
        <ele>310.404</ele>
        <time>1970-01-11T01:59:56Z</time>
      </trkpt>
      <trkpt lat="42.372204" lon="-7.860248">
        <ele>310.624</ele>
        <time>1970-01-11T01:59:56Z</time>
      </trkpt>
      <trkpt lat="42.372247" lon="-7.860291">
        <ele>311.208</ele>
        <time>1970-01-11T01:59:56Z</time>
      </trkpt>
      <trkpt lat="42.372295" lon="-7.860321">
        <ele>312.097</ele>
        <time>1970-01-11T01:59:56Z</time>
      </trkpt>
      <trkpt lat="42.372321" lon="-7.860348">
        <ele>312.454</ele>
        <time>1970-01-11T01:59:56Z</time>
      </trkpt>
      <trkpt lat="42.372423" lon="-7.860436">
        <ele>313.660</ele>
        <time>1970-01-11T01:59:56Z</time>
      </trkpt>
      <trkpt lat="42.372534" lon="-7.860497">
        <ele>314.868</ele>
        <time>1970-01-11T01:59:56Z</time>
      </trkpt>
      <trkpt lat="42.372564" lon="-7.860511">
        <ele>315.267</ele>
        <time>1970-01-11T01:59:56Z</time>
      </trkpt>
      <trkpt lat="42.372615" lon="-7.860526">
        <ele>315.832</ele>
        <time>1970-01-11T01:59:56Z</time>
      </trkpt>
      <trkpt lat="42.372706" lon="-7.860558">
        <ele>317.030</ele>
        <time>1970-01-11T01:59:56Z</time>
      </trkpt>
      <trkpt lat="42.372790" lon="-7.860586">
        <ele>318.249</ele>
        <time>1970-01-11T01:59:56Z</time>
      </trkpt>
      <trkpt lat="42.372843" lon="-7.860615">
        <ele>318.871</ele>
        <time>1970-01-11T01:59:56Z</time>
      </trkpt>
      <trkpt lat="42.372878" lon="-7.860640">
        <ele>319.241</ele>
        <time>1970-01-11T01:59:56Z</time>
      </trkpt>
      <trkpt lat="42.372978" lon="-7.860694">
        <ele>320.215</ele>
        <time>1970-01-11T01:59:56Z</time>
      </trkpt>
      <trkpt lat="42.373104" lon="-7.860755">
        <ele>321.408</ele>
        <time>1970-01-11T01:59:56Z</time>
      </trkpt>
      <trkpt lat="42.373140" lon="-7.860767">
        <ele>322.088</ele>
        <time>1970-01-11T01:59:56Z</time>
      </trkpt>
      <trkpt lat="42.373176" lon="-7.860781">
        <ele>322.425</ele>
        <time>1970-01-11T01:59:56Z</time>
      </trkpt>
      <trkpt lat="42.373260" lon="-7.860817">
        <ele>323.271</ele>
        <time>1970-01-11T01:59:56Z</time>
      </trkpt>
      <trkpt lat="42.373300" lon="-7.860824">
        <ele>323.689</ele>
        <time>1970-01-11T01:59:56Z</time>
      </trkpt>
      <trkpt lat="42.373395" lon="-7.860859">
        <ele>324.828</ele>
        <time>1970-01-11T01:59:56Z</time>
      </trkpt>
      <trkpt lat="42.373412" lon="-7.860864">
        <ele>325.013</ele>
        <time>1970-01-11T01:59:56Z</time>
      </trkpt>
      <trkpt lat="42.373460" lon="-7.860883">
        <ele>326.051</ele>
        <time>1970-01-11T01:59:56Z</time>
      </trkpt>
      <trkpt lat="42.373533" lon="-7.860919">
        <ele>326.630</ele>
        <time>1970-01-11T01:59:56Z</time>
      </trkpt>
      <trkpt lat="42.373554" lon="-7.860921">
        <ele>327.027</ele>
        <time>1970-01-11T01:59:56Z</time>
      </trkpt>
      <trkpt lat="42.373681" lon="-7.860958">
        <ele>328.068</ele>
        <time>1970-01-11T01:59:56Z</time>
      </trkpt>
      <trkpt lat="42.373700" lon="-7.860961">
        <ele>328.214</ele>
        <time>1970-01-11T01:59:56Z</time>
      </trkpt>
      <trkpt lat="42.373816" lon="-7.860971">
        <ele>329.208</ele>
        <time>1970-01-11T01:59:56Z</time>
      </trkpt>
      <trkpt lat="42.373869" lon="-7.860969">
        <ele>329.693</ele>
        <time>1970-01-11T01:59:56Z</time>
      </trkpt>
      <trkpt lat="42.373912" lon="-7.860968">
        <ele>330.240</ele>
        <time>1970-01-11T01:59:56Z</time>
      </trkpt>
      <trkpt lat="42.373970" lon="-7.860970">
        <ele>331.486</ele>
        <time>1970-01-11T01:59:56Z</time>
      </trkpt>
      <trkpt lat="42.374033" lon="-7.860978">
        <ele>332.494</ele>
        <time>1970-01-11T01:59:56Z</time>
      </trkpt>
      <trkpt lat="42.374117" lon="-7.860995">
        <ele>333.633</ele>
        <time>1970-01-11T01:59:56Z</time>
      </trkpt>
      <trkpt lat="42.374214" lon="-7.861043">
        <ele>334.858</ele>
        <time>1970-01-11T01:59:56Z</time>
      </trkpt>
      <trkpt lat="42.374232" lon="-7.861050">
        <ele>335.096</ele>
        <time>1970-01-11T01:59:56Z</time>
      </trkpt>
      <trkpt lat="42.374307" lon="-7.861089">
        <ele>335.825</ele>
        <time>1970-01-11T01:59:56Z</time>
      </trkpt>
      <trkpt lat="42.374368" lon="-7.861129">
        <ele>337.069</ele>
        <time>1970-01-11T01:59:56Z</time>
      </trkpt>
      <trkpt lat="42.374401" lon="-7.861158">
        <ele>337.604</ele>
        <time>1970-01-11T01:59:56Z</time>
      </trkpt>
      <trkpt lat="42.374417" lon="-7.861171">
        <ele>338.024</ele>
        <time>1970-01-11T01:59:56Z</time>
      </trkpt>
      <trkpt lat="42.374504" lon="-7.861228">
        <ele>339.208</ele>
        <time>1970-01-11T01:59:56Z</time>
      </trkpt>
      <trkpt lat="42.374555" lon="-7.861269">
        <ele>340.287</ele>
        <time>1970-01-11T01:59:56Z</time>
      </trkpt>
      <trkpt lat="42.374569" lon="-7.861281">
        <ele>340.434</ele>
        <time>1970-01-11T01:59:56Z</time>
      </trkpt>
      <trkpt lat="42.374646" lon="-7.861355">
        <ele>341.670</ele>
        <time>1970-01-11T01:59:56Z</time>
      </trkpt>
      <trkpt lat="42.374679" lon="-7.861382">
        <ele>342.068</ele>
        <time>1970-01-11T01:59:56Z</time>
      </trkpt>
      <trkpt lat="42.374726" lon="-7.861430">
        <ele>342.627</ele>
        <time>1970-01-11T01:59:56Z</time>
      </trkpt>
      <trkpt lat="42.374784" lon="-7.861507">
        <ele>343.272</ele>
        <time>1970-01-11T01:59:56Z</time>
      </trkpt>
      <trkpt lat="42.374814" lon="-7.861542">
        <ele>343.440</ele>
        <time>1970-01-11T01:59:56Z</time>
      </trkpt>
      <trkpt lat="42.374845" lon="-7.861580">
        <ele>343.819</ele>
        <time>1970-01-11T01:59:56Z</time>
      </trkpt>
      <trkpt lat="42.374888" lon="-7.861631">
        <ele>344.471</ele>
        <time>1970-01-11T01:59:56Z</time>
      </trkpt>
      <trkpt lat="42.374926" lon="-7.861657">
        <ele>344.841</ele>
        <time>1970-01-11T01:59:56Z</time>
      </trkpt>
      <trkpt lat="42.374988" lon="-7.861721">
        <ele>345.415</ele>
        <time>1970-01-11T01:59:56Z</time>
      </trkpt>
      <trkpt lat="42.375064" lon="-7.861806">
        <ele>346.008</ele>
        <time>1970-01-11T01:59:56Z</time>
      </trkpt>
      <trkpt lat="42.375107" lon="-7.861852">
        <ele>346.898</ele>
        <time>1970-01-11T01:59:56Z</time>
      </trkpt>
      <trkpt lat="42.375138" lon="-7.861883">
        <ele>347.245</ele>
        <time>1970-01-11T01:59:56Z</time>
      </trkpt>
      <trkpt lat="42.375190" lon="-7.861947">
        <ele>348.261</ele>
        <time>1970-01-11T01:59:56Z</time>
      </trkpt>
      <trkpt lat="42.375236" lon="-7.861986">
        <ele>348.879</ele>
        <time>1970-01-11T01:59:56Z</time>
      </trkpt>
      <trkpt lat="42.375274" lon="-7.862005">
        <ele>349.268</ele>
        <time>1970-01-11T01:59:56Z</time>
      </trkpt>
      <trkpt lat="42.375388" lon="-7.862075">
        <ele>350.013</ele>
        <time>1970-01-11T01:59:56Z</time>
      </trkpt>
      <trkpt lat="42.375441" lon="-7.862100">
        <ele>350.481</ele>
        <time>1970-01-11T01:59:56Z</time>
      </trkpt>
      <trkpt lat="42.375517" lon="-7.862120">
        <ele>351.670</ele>
        <time>1970-01-11T01:59:56Z</time>
      </trkpt>
      <trkpt lat="42.375537" lon="-7.862125">
        <ele>352.093</ele>
        <time>1970-01-11T01:59:56Z</time>
      </trkpt>
      <trkpt lat="42.375590" lon="-7.862147">
        <ele>353.065</ele>
        <time>1970-01-11T01:59:56Z</time>
      </trkpt>
      <trkpt lat="42.375693" lon="-7.862177">
        <ele>354.021</ele>
        <time>1970-01-11T01:59:56Z</time>
      </trkpt>
      <trkpt lat="42.375840" lon="-7.862195">
        <ele>354.808</ele>
        <time>1970-01-11T01:59:56Z</time>
      </trkpt>
      <trkpt lat="42.375900" lon="-7.862214">
        <ele>355.050</ele>
        <time>1970-01-11T01:59:56Z</time>
      </trkpt>
      <trkpt lat="42.375985" lon="-7.862248">
        <ele>356.017</ele>
        <time>1970-01-11T01:59:56Z</time>
      </trkpt>
      <trkpt lat="42.376002" lon="-7.862253">
        <ele>356.263</ele>
        <time>1970-01-11T01:59:56Z</time>
      </trkpt>
      <trkpt lat="42.376131" lon="-7.862310">
        <ele>357.221</ele>
        <time>1970-01-11T01:59:56Z</time>
      </trkpt>
      <trkpt lat="42.376241" lon="-7.862342">
        <ele>358.470</ele>
        <time>1970-01-11T01:59:56Z</time>
      </trkpt>
      <trkpt lat="42.376329" lon="-7.862355">
        <ele>359.615</ele>
        <time>1970-01-11T01:59:56Z</time>
      </trkpt>
      <trkpt lat="42.376352" lon="-7.862357">
        <ele>359.853</ele>
        <time>1970-01-11T01:59:56Z</time>
      </trkpt>
      <trkpt lat="42.376448" lon="-7.862398">
        <ele>360.652</ele>
        <time>1970-01-11T01:59:56Z</time>
      </trkpt>
      <trkpt lat="42.376484" lon="-7.862430">
        <ele>361.485</ele>
        <time>1970-01-11T01:59:56Z</time>
      </trkpt>
      <trkpt lat="42.376506" lon="-7.862441">
        <ele>361.889</ele>
        <time>1970-01-11T01:59:56Z</time>
      </trkpt>
      <trkpt lat="42.376549" lon="-7.862483">
        <ele>362.817</ele>
        <time>1970-01-11T01:59:56Z</time>
      </trkpt>
      <trkpt lat="42.376595" lon="-7.862527">
        <ele>363.408</ele>
        <time>1970-01-11T01:59:56Z</time>
      </trkpt>
      <trkpt lat="42.376639" lon="-7.862548">
        <ele>364.019</ele>
        <time>1970-01-11T01:59:56Z</time>
      </trkpt>
      <trkpt lat="42.376713" lon="-7.862578">
        <ele>364.676</ele>
        <time>1970-01-11T01:59:56Z</time>
      </trkpt>
      <trkpt lat="42.376788" lon="-7.862607">
        <ele>365.092</ele>
        <time>1970-01-11T01:59:56Z</time>
      </trkpt>
      <trkpt lat="42.376843" lon="-7.862637">
        <ele>365.610</ele>
        <time>1970-01-11T01:59:56Z</time>
      </trkpt>
      <trkpt lat="42.376881" lon="-7.862651">
        <ele>366.499</ele>
        <time>1970-01-11T01:59:56Z</time>
      </trkpt>
      <trkpt lat="42.376936" lon="-7.862668">
        <ele>368.284</ele>
        <time>1970-01-11T01:59:56Z</time>
      </trkpt>
      <trkpt lat="42.377004" lon="-7.862701">
        <ele>369.412</ele>
        <time>1970-01-11T01:59:56Z</time>
      </trkpt>
      <trkpt lat="42.377079" lon="-7.862727">
        <ele>370.621</ele>
        <time>1970-01-11T01:59:56Z</time>
      </trkpt>
      <trkpt lat="42.377126" lon="-7.862767">
        <ele>371.661</ele>
        <time>1970-01-11T01:59:56Z</time>
      </trkpt>
      <trkpt lat="42.377173" lon="-7.862791">
        <ele>372.821</ele>
        <time>1970-01-11T01:59:56Z</time>
      </trkpt>
      <trkpt lat="42.377220" lon="-7.862776">
        <ele>373.613</ele>
        <time>1970-01-11T01:59:56Z</time>
      </trkpt>
      <trkpt lat="42.377236" lon="-7.862773">
        <ele>373.808</ele>
        <time>1970-01-11T01:59:56Z</time>
      </trkpt>
      <trkpt lat="42.377322" lon="-7.862738">
        <ele>375.017</ele>
        <time>1970-01-11T01:59:56Z</time>
      </trkpt>
      <trkpt lat="42.377339" lon="-7.862715">
        <ele>375.294</ele>
        <time>1970-01-11T01:59:56Z</time>
      </trkpt>
      <trkpt lat="42.377399" lon="-7.862687">
        <ele>376.220</ele>
        <time>1970-01-11T01:59:56Z</time>
      </trkpt>
      <trkpt lat="42.377460" lon="-7.862677">
        <ele>377.068</ele>
        <time>1970-01-11T01:59:56Z</time>
      </trkpt>
      <trkpt lat="42.377481" lon="-7.862672">
        <ele>377.457</ele>
        <time>1970-01-11T01:59:56Z</time>
      </trkpt>
      <trkpt lat="42.377566" lon="-7.862672">
        <ele>378.412</ele>
        <time>1970-01-11T01:59:56Z</time>
      </trkpt>
      <trkpt lat="42.377635" lon="-7.862675">
        <ele>379.060</ele>
        <time>1970-01-11T01:59:56Z</time>
      </trkpt>
      <trkpt lat="42.377678" lon="-7.862690">
        <ele>379.679</ele>
        <time>1970-01-11T01:59:56Z</time>
      </trkpt>
      <trkpt lat="42.377754" lon="-7.862721">
        <ele>380.048</ele>
        <time>1970-01-11T01:59:56Z</time>
      </trkpt>
      <trkpt lat="42.377854" lon="-7.862790">
        <ele>380.861</ele>
        <time>1970-01-11T01:59:56Z</time>
      </trkpt>
      <trkpt lat="42.377913" lon="-7.862828">
        <ele>381.417</ele>
        <time>1970-01-11T01:59:56Z</time>
      </trkpt>
      <trkpt lat="42.377951" lon="-7.862856">
        <ele>382.008</ele>
        <time>1970-01-11T01:59:56Z</time>
      </trkpt>
      <trkpt lat="42.378058" lon="-7.862964">
        <ele>383.255</ele>
        <time>1970-01-11T01:59:56Z</time>
      </trkpt>
      <trkpt lat="42.378078" lon="-7.862976">
        <ele>383.472</ele>
        <time>1970-01-11T01:59:56Z</time>
      </trkpt>
      <trkpt lat="42.378209" lon="-7.863106">
        <ele>384.298</ele>
        <time>1970-01-11T01:59:56Z</time>
      </trkpt>
      <trkpt lat="42.378234" lon="-7.863123">
        <ele>384.276</ele>
        <time>1970-01-11T01:59:56Z</time>
      </trkpt>
      <trkpt lat="42.378328" lon="-7.863191">
        <ele>385.645</ele>
        <time>1970-01-11T01:59:56Z</time>
      </trkpt>
      <trkpt lat="42.378388" lon="-7.863253">
        <ele>386.270</ele>
        <time>1970-01-11T01:59:56Z</time>
      </trkpt>
      <trkpt lat="42.378471" lon="-7.863366">
        <ele>386.678</ele>
        <time>1970-01-11T01:59:56Z</time>
      </trkpt>
      <trkpt lat="42.378573" lon="-7.863503">
        <ele>386.647</ele>
        <time>1970-01-11T01:59:56Z</time>
      </trkpt>
      <trkpt lat="42.378723" lon="-7.863661">
        <ele>386.275</ele>
        <time>1970-01-11T01:59:56Z</time>
      </trkpt>
      <trkpt lat="42.378788" lon="-7.863713">
        <ele>385.828</ele>
        <time>1970-01-11T01:59:56Z</time>
      </trkpt>
      <trkpt lat="42.378920" lon="-7.863815">
        <ele>385.620</ele>
        <time>1970-01-11T01:59:56Z</time>
      </trkpt>
      <trkpt lat="42.379061" lon="-7.863875">
        <ele>385.608</ele>
        <time>1970-01-11T01:59:56Z</time>
      </trkpt>
      <trkpt lat="42.379248" lon="-7.864006">
        <ele>385.618</ele>
        <time>1970-01-11T01:59:56Z</time>
      </trkpt>
      <trkpt lat="42.379290" lon="-7.864038">
        <ele>385.665</ele>
        <time>1970-01-11T01:59:56Z</time>
      </trkpt>
      <trkpt lat="42.379466" lon="-7.864128">
        <ele>385.261</ele>
        <time>1970-01-11T01:59:56Z</time>
      </trkpt>
      <trkpt lat="42.379603" lon="-7.864166">
        <ele>385.289</ele>
        <time>1970-01-11T01:59:56Z</time>
      </trkpt>
      <trkpt lat="42.379938" lon="-7.864287">
        <ele>385.678</ele>
        <time>1970-01-11T01:59:56Z</time>
      </trkpt>
      <trkpt lat="42.380230" lon="-7.864374">
        <ele>385.633</ele>
        <time>1970-01-11T01:59:56Z</time>
      </trkpt>
      <trkpt lat="42.380529" lon="-7.864493">
        <ele>386.071</ele>
        <time>1970-01-11T01:59:56Z</time>
      </trkpt>
      <trkpt lat="42.380850" lon="-7.864629">
        <ele>386.270</ele>
        <time>1970-01-11T01:59:56Z</time>
      </trkpt>
      <trkpt lat="42.380892" lon="-7.864646">
        <ele>386.438</ele>
        <time>1970-01-11T01:59:56Z</time>
      </trkpt>
      <trkpt lat="42.380940" lon="-7.864673">
        <ele>386.670</ele>
        <time>1970-01-11T01:59:56Z</time>
      </trkpt>
      <trkpt lat="42.381099" lon="-7.864795">
        <ele>387.217</ele>
        <time>1970-01-11T01:59:56Z</time>
      </trkpt>
      <trkpt lat="42.381140" lon="-7.864817">
        <ele>387.408</ele>
        <time>1970-01-11T01:59:56Z</time>
      </trkpt>
      <trkpt lat="42.381218" lon="-7.864847">
        <ele>387.874</ele>
        <time>1970-01-11T01:59:56Z</time>
      </trkpt>
      <trkpt lat="42.381254" lon="-7.864870">
        <ele>388.231</ele>
        <time>1970-01-11T01:59:56Z</time>
      </trkpt>
      <trkpt lat="42.381293" lon="-7.864891">
        <ele>388.487</ele>
        <time>1970-01-11T01:59:56Z</time>
      </trkpt>
      <trkpt lat="42.381371" lon="-7.864923">
        <ele>389.065</ele>
        <time>1970-01-11T01:59:56Z</time>
      </trkpt>
      <trkpt lat="42.381498" lon="-7.864996">
        <ele>389.824</ele>
        <time>1970-01-11T01:59:56Z</time>
      </trkpt>
      <trkpt lat="42.381532" lon="-7.865009">
        <ele>390.059</ele>
        <time>1970-01-11T01:59:56Z</time>
      </trkpt>
      <trkpt lat="42.381769" lon="-7.865095">
        <ele>390.457</ele>
        <time>1970-01-11T01:59:56Z</time>
      </trkpt>
      <trkpt lat="42.381980" lon="-7.865196">
        <ele>391.286</ele>
        <time>1970-01-11T01:59:56Z</time>
      </trkpt>
      <trkpt lat="42.382035" lon="-7.865245">
        <ele>391.469</ele>
        <time>1970-01-11T01:59:56Z</time>
      </trkpt>
      <trkpt lat="42.382119" lon="-7.865432">
        <ele>392.004</ele>
        <time>1970-01-11T01:59:56Z</time>
      </trkpt>
      <trkpt lat="42.382142" lon="-7.865518">
        <ele>392.224</ele>
        <time>1970-01-11T01:59:56Z</time>
      </trkpt>
      <trkpt lat="42.382156" lon="-7.865680">
        <ele>392.608</ele>
        <time>1970-01-11T01:59:56Z</time>
      </trkpt>
      <trkpt lat="42.382160" lon="-7.865809">
        <ele>393.247</ele>
        <time>1970-01-11T01:59:56Z</time>
      </trkpt>
      <trkpt lat="42.382176" lon="-7.865983">
        <ele>394.264</ele>
        <time>1970-01-11T01:59:56Z</time>
      </trkpt>
      <trkpt lat="42.382185" lon="-7.866015">
        <ele>394.610</ele>
        <time>1970-01-11T01:59:56Z</time>
      </trkpt>
      <trkpt lat="42.382231" lon="-7.866202">
        <ele>395.878</ele>
        <time>1970-01-11T01:59:56Z</time>
      </trkpt>
      <trkpt lat="42.382238" lon="-7.866265">
        <ele>396.477</ele>
        <time>1970-01-11T01:59:56Z</time>
      </trkpt>
      <trkpt lat="42.382255" lon="-7.866333">
        <ele>397.082</ele>
        <time>1970-01-11T01:59:56Z</time>
      </trkpt>
      <trkpt lat="42.382285" lon="-7.866425">
        <ele>398.230</ele>
        <time>1970-01-11T01:59:56Z</time>
      </trkpt>
      <trkpt lat="42.382300" lon="-7.866487">
        <ele>399.099</ele>
        <time>1970-01-11T01:59:56Z</time>
      </trkpt>
      <trkpt lat="42.382311" lon="-7.866517">
        <ele>399.476</ele>
        <time>1970-01-11T01:59:56Z</time>
      </trkpt>
      <trkpt lat="42.382340" lon="-7.866641">
        <ele>400.490</ele>
        <time>1970-01-11T01:59:56Z</time>
      </trkpt>
      <trkpt lat="42.382365" lon="-7.866731">
        <ele>401.619</ele>
        <time>1970-01-11T01:59:56Z</time>
      </trkpt>
      <trkpt lat="42.382379" lon="-7.866824">
        <ele>402.808</ele>
        <time>1970-01-11T01:59:56Z</time>
      </trkpt>
      <trkpt lat="42.382399" lon="-7.866943">
        <ele>404.088</ele>
        <time>1970-01-11T01:59:56Z</time>
      </trkpt>
      <trkpt lat="42.382457" lon="-7.867080">
        <ele>405.245</ele>
        <time>1970-01-11T01:59:56Z</time>
      </trkpt>
      <trkpt lat="42.382471" lon="-7.867105">
        <ele>405.481</ele>
        <time>1970-01-11T01:59:56Z</time>
      </trkpt>
      <trkpt lat="42.382523" lon="-7.867170">
        <ele>406.279</ele>
        <time>1970-01-11T01:59:56Z</time>
      </trkpt>
      <trkpt lat="42.382611" lon="-7.867222">
        <ele>407.258</ele>
        <time>1970-01-11T01:59:56Z</time>
      </trkpt>
      <trkpt lat="42.382739" lon="-7.867278">
        <ele>408.673</ele>
        <time>1970-01-11T01:59:56Z</time>
      </trkpt>
      <trkpt lat="42.382761" lon="-7.867287">
        <ele>408.691</ele>
        <time>1970-01-11T01:59:56Z</time>
      </trkpt>
      <trkpt lat="42.382950" lon="-7.867345">
        <ele>409.680</ele>
        <time>1970-01-11T01:59:56Z</time>
      </trkpt>
      <trkpt lat="42.383076" lon="-7.867375">
        <ele>410.675</ele>
        <time>1970-01-11T01:59:56Z</time>
      </trkpt>
      <trkpt lat="42.383128" lon="-7.867383">
        <ele>411.028</ele>
        <time>1970-01-11T01:59:56Z</time>
      </trkpt>
      <trkpt lat="42.383232" lon="-7.867423">
        <ele>411.820</ele>
        <time>1970-01-11T01:59:56Z</time>
      </trkpt>
      <trkpt lat="42.383313" lon="-7.867462">
        <ele>412.208</ele>
        <time>1970-01-11T01:59:56Z</time>
      </trkpt>
      <trkpt lat="42.383508" lon="-7.867530">
        <ele>412.878</ele>
        <time>1970-01-11T01:59:56Z</time>
      </trkpt>
      <trkpt lat="42.383762" lon="-7.867581">
        <ele>412.815</ele>
        <time>1970-01-11T01:59:56Z</time>
      </trkpt>
      <trkpt lat="42.383829" lon="-7.867591">
        <ele>413.041</ele>
        <time>1970-01-11T01:59:56Z</time>
      </trkpt>
      <trkpt lat="42.384017" lon="-7.867674">
        <ele>413.219</ele>
        <time>1970-01-11T01:59:56Z</time>
      </trkpt>
      <trkpt lat="42.384058" lon="-7.867684">
        <ele>413.228</ele>
        <time>1970-01-11T01:59:56Z</time>
      </trkpt>
      <trkpt lat="42.384284" lon="-7.867762">
        <ele>413.013</ele>
        <time>1970-01-11T01:59:56Z</time>
      </trkpt>
      <trkpt lat="42.384481" lon="-7.867860">
        <ele>413.051</ele>
        <time>1970-01-11T01:59:56Z</time>
      </trkpt>
      <trkpt lat="42.384555" lon="-7.867905">
        <ele>413.010</ele>
        <time>1970-01-11T01:59:56Z</time>
      </trkpt>
      <trkpt lat="42.384711" lon="-7.867982">
        <ele>413.046</ele>
        <time>1970-01-11T01:59:56Z</time>
      </trkpt>
      <trkpt lat="42.384865" lon="-7.868084">
        <ele>413.888</ele>
        <time>1970-01-11T01:59:56Z</time>
      </trkpt>
      <trkpt lat="42.385059" lon="-7.868246">
        <ele>414.616</ele>
        <time>1970-01-11T01:59:56Z</time>
      </trkpt>
      <trkpt lat="42.385113" lon="-7.868300">
        <ele>415.008</ele>
        <time>1970-01-11T01:59:56Z</time>
      </trkpt>
      <trkpt lat="42.385280" lon="-7.868453">
        <ele>415.835</ele>
        <time>1970-01-11T01:59:56Z</time>
      </trkpt>
      <trkpt lat="42.385309" lon="-7.868474">
        <ele>416.222</ele>
        <time>1970-01-11T01:59:56Z</time>
      </trkpt>
      <trkpt lat="42.385427" lon="-7.868559">
        <ele>417.428</ele>
        <time>1970-01-11T01:59:56Z</time>
      </trkpt>
      <trkpt lat="42.385480" lon="-7.868595">
        <ele>418.046</ele>
        <time>1970-01-11T01:59:56Z</time>
      </trkpt>
      <trkpt lat="42.385536" lon="-7.868626">
        <ele>418.825</ele>
        <time>1970-01-11T01:59:56Z</time>
      </trkpt>
      <trkpt lat="42.385647" lon="-7.868694">
        <ele>420.020</ele>
        <time>1970-01-11T01:59:56Z</time>
      </trkpt>
      <trkpt lat="42.385730" lon="-7.868753">
        <ele>420.238</ele>
        <time>1970-01-11T01:59:56Z</time>
      </trkpt>
      <trkpt lat="42.385909" lon="-7.868916">
        <ele>420.857</ele>
        <time>1970-01-11T01:59:56Z</time>
      </trkpt>
      <trkpt lat="42.386023" lon="-7.869013">
        <ele>421.088</ele>
        <time>1970-01-11T01:59:56Z</time>
      </trkpt>
      <trkpt lat="42.386153" lon="-7.869087">
        <ele>421.624</ele>
        <time>1970-01-11T01:59:56Z</time>
      </trkpt>
      <trkpt lat="42.386343" lon="-7.869211">
        <ele>422.026</ele>
        <time>1970-01-11T01:59:56Z</time>
      </trkpt>
      <trkpt lat="42.386527" lon="-7.869351">
        <ele>422.208</ele>
        <time>1970-01-11T01:59:56Z</time>
      </trkpt>
      <trkpt lat="42.386554" lon="-7.869380">
        <ele>422.229</ele>
        <time>1970-01-11T01:59:56Z</time>
      </trkpt>
      <trkpt lat="42.386721" lon="-7.869579">
        <ele>423.256</ele>
        <time>1970-01-11T01:59:56Z</time>
      </trkpt>
      <trkpt lat="42.386888" lon="-7.869796">
        <ele>424.242</ele>
        <time>1970-01-11T01:59:56Z</time>
      </trkpt>
      <trkpt lat="42.386912" lon="-7.869827">
        <ele>424.430</ele>
        <time>1970-01-11T01:59:56Z</time>
      </trkpt>
      <trkpt lat="42.387019" lon="-7.869937">
        <ele>425.479</ele>
        <time>1970-01-11T01:59:56Z</time>
      </trkpt>
      <trkpt lat="42.387160" lon="-7.870057">
        <ele>426.414</ele>
        <time>1970-01-11T01:59:56Z</time>
      </trkpt>
      <trkpt lat="42.387189" lon="-7.870087">
        <ele>426.622</ele>
        <time>1970-01-11T01:59:56Z</time>
      </trkpt>
      <trkpt lat="42.387312" lon="-7.870279">
        <ele>427.671</ele>
        <time>1970-01-11T01:59:56Z</time>
      </trkpt>
      <trkpt lat="42.387490" lon="-7.870614">
        <ele>428.052</ele>
        <time>1970-01-11T01:59:56Z</time>
      </trkpt>
      <trkpt lat="42.387646" lon="-7.870954">
        <ele>427.653</ele>
        <time>1970-01-11T01:59:56Z</time>
      </trkpt>
      <trkpt lat="42.387860" lon="-7.871281">
        <ele>427.808</ele>
        <time>1970-01-11T01:59:56Z</time>
      </trkpt>
      <trkpt lat="42.388051" lon="-7.871451">
        <ele>428.008</ele>
        <time>1970-01-11T01:59:56Z</time>
      </trkpt>
      <trkpt lat="42.388155" lon="-7.871518">
        <ele>428.656</ele>
        <time>1970-01-11T01:59:56Z</time>
      </trkpt>
      <trkpt lat="42.388193" lon="-7.871535">
        <ele>429.053</ele>
        <time>1970-01-11T01:59:56Z</time>
      </trkpt>
      <trkpt lat="42.388279" lon="-7.871558">
        <ele>429.269</ele>
        <time>1970-01-11T01:59:56Z</time>
      </trkpt>
      <trkpt lat="42.388510" lon="-7.871590">
        <ele>429.217</ele>
        <time>1970-01-11T01:59:56Z</time>
      </trkpt>
      <trkpt lat="42.388553" lon="-7.871607">
        <ele>429.436</ele>
        <time>1970-01-11T01:59:56Z</time>
      </trkpt>
      <trkpt lat="42.388679" lon="-7.871692">
        <ele>429.441</ele>
        <time>1970-01-11T01:59:56Z</time>
      </trkpt>
      <trkpt lat="42.388797" lon="-7.871805">
        <ele>429.029</ele>
        <time>1970-01-11T01:59:56Z</time>
      </trkpt>
      <trkpt lat="42.389009" lon="-7.872119">
        <ele>428.628</ele>
        <time>1970-01-11T01:59:56Z</time>
      </trkpt>
      <trkpt lat="42.389034" lon="-7.872166">
        <ele>428.678</ele>
        <time>1970-01-11T01:59:56Z</time>
      </trkpt>
      <trkpt lat="42.389102" lon="-7.872316">
        <ele>428.833</ele>
        <time>1970-01-11T01:59:56Z</time>
      </trkpt>
      <trkpt lat="42.389163" lon="-7.872471">
        <ele>429.426</ele>
        <time>1970-01-11T01:59:56Z</time>
      </trkpt>
      <trkpt lat="42.389213" lon="-7.872620">
        <ele>429.808</ele>
        <time>1970-01-11T01:59:56Z</time>
      </trkpt>
      <trkpt lat="42.389245" lon="-7.872770">
        <ele>429.848</ele>
        <time>1970-01-11T01:59:56Z</time>
      </trkpt>
      <trkpt lat="42.389307" lon="-7.872940">
        <ele>430.645</ele>
        <time>1970-01-11T01:59:56Z</time>
      </trkpt>
      <trkpt lat="42.389333" lon="-7.872957">
        <ele>430.891</ele>
        <time>1970-01-11T01:59:56Z</time>
      </trkpt>
      <trkpt lat="42.389446" lon="-7.872977">
        <ele>431.639</ele>
        <time>1970-01-11T01:59:56Z</time>
      </trkpt>
      <trkpt lat="42.389479" lon="-7.872971">
        <ele>432.028</ele>
        <time>1970-01-11T01:59:56Z</time>
      </trkpt>
      <trkpt lat="42.389607" lon="-7.872967">
        <ele>433.223</ele>
        <time>1970-01-11T01:59:56Z</time>
      </trkpt>
      <trkpt lat="42.389637" lon="-7.872971">
        <ele>433.621</ele>
        <time>1970-01-11T01:59:56Z</time>
      </trkpt>
      <trkpt lat="42.389760" lon="-7.872991">
        <ele>434.250</ele>
        <time>1970-01-11T01:59:56Z</time>
      </trkpt>
      <trkpt lat="42.389912" lon="-7.873000">
        <ele>434.487</ele>
        <time>1970-01-11T01:59:56Z</time>
      </trkpt>
      <trkpt lat="42.390171" lon="-7.872949">
        <ele>433.642</ele>
        <time>1970-01-11T01:59:56Z</time>
      </trkpt>
      <trkpt lat="42.390310" lon="-7.872927">
        <ele>433.226</ele>
        <time>1970-01-11T01:59:56Z</time>
      </trkpt>
      <trkpt lat="42.390441" lon="-7.872935">
        <ele>433.208</ele>
        <time>1970-01-11T01:59:57Z</time>
      </trkpt>
      <trkpt lat="42.390484" lon="-7.872948">
        <ele>433.019</ele>
        <time>1970-01-11T01:59:57Z</time>
      </trkpt>
      <trkpt lat="42.390589" lon="-7.873026">
        <ele>432.886</ele>
        <time>1970-01-11T01:59:57Z</time>
      </trkpt>
      <trkpt lat="42.390661" lon="-7.873035">
        <ele>432.632</ele>
        <time>1970-01-11T01:59:57Z</time>
      </trkpt>
      <trkpt lat="42.390744" lon="-7.873036">
        <ele>432.090</ele>
        <time>1970-01-11T01:59:57Z</time>
      </trkpt>
      <trkpt lat="42.390829" lon="-7.873049">
        <ele>431.839</ele>
        <time>1970-01-11T01:59:57Z</time>
      </trkpt>
      <trkpt lat="42.391108" lon="-7.873138">
        <ele>430.854</ele>
        <time>1970-01-11T01:59:57Z</time>
      </trkpt>
      <trkpt lat="42.391157" lon="-7.873139">
        <ele>430.872</ele>
        <time>1970-01-11T01:59:57Z</time>
      </trkpt>
      <trkpt lat="42.391284" lon="-7.873073">
        <ele>430.221</ele>
        <time>1970-01-11T01:59:57Z</time>
      </trkpt>
      <trkpt lat="42.391490" lon="-7.873036">
        <ele>430.082</ele>
        <time>1970-01-11T01:59:57Z</time>
      </trkpt>
      <trkpt lat="42.391537" lon="-7.873019">
        <ele>429.843</ele>
        <time>1970-01-11T01:59:57Z</time>
      </trkpt>
      <trkpt lat="42.391745" lon="-7.872946">
        <ele>429.017</ele>
        <time>1970-01-11T01:59:57Z</time>
      </trkpt>
      <trkpt lat="42.391802" lon="-7.872934">
        <ele>428.808</ele>
        <time>1970-01-11T01:59:57Z</time>
      </trkpt>
      <trkpt lat="42.391862" lon="-7.872924">
        <ele>428.679</ele>
        <time>1970-01-11T01:59:57Z</time>
      </trkpt>
      <trkpt lat="42.392171" lon="-7.872884">
        <ele>427.266</ele>
        <time>1970-01-11T01:59:57Z</time>
      </trkpt>
      <trkpt lat="42.392496" lon="-7.872858">
        <ele>426.442</ele>
        <time>1970-01-11T01:59:57Z</time>
      </trkpt>
      <trkpt lat="42.392538" lon="-7.872860">
        <ele>426.260</ele>
        <time>1970-01-11T01:59:57Z</time>
      </trkpt>
      <trkpt lat="42.392682" lon="-7.872866">
        <ele>426.049</ele>
        <time>1970-01-11T01:59:57Z</time>
      </trkpt>
      <trkpt lat="42.392877" lon="-7.872867">
        <ele>426.044</ele>
        <time>1970-01-11T01:59:57Z</time>
      </trkpt>
      <trkpt lat="42.392921" lon="-7.872867">
        <ele>426.022</ele>
        <time>1970-01-11T01:59:57Z</time>
      </trkpt>
      <trkpt lat="42.393015" lon="-7.872886">
        <ele>426.051</ele>
        <time>1970-01-11T01:59:57Z</time>
      </trkpt>
      <trkpt lat="42.393069" lon="-7.872893">
        <ele>426.453</ele>
        <time>1970-01-11T01:59:57Z</time>
      </trkpt>
      <trkpt lat="42.393169" lon="-7.872929">
        <ele>426.604</ele>
        <time>1970-01-11T01:59:57Z</time>
      </trkpt>
      <trkpt lat="42.393275" lon="-7.872927">
        <ele>426.814</ele>
        <time>1970-01-11T01:59:57Z</time>
      </trkpt>
      <trkpt lat="42.393386" lon="-7.872946">
        <ele>427.008</ele>
        <time>1970-01-11T01:59:57Z</time>
      </trkpt>
      <trkpt lat="42.393455" lon="-7.872952">
        <ele>427.216</ele>
        <time>1970-01-11T01:59:57Z</time>
      </trkpt>
      <trkpt lat="42.393531" lon="-7.872949">
        <ele>427.443</ele>
        <time>1970-01-11T01:59:57Z</time>
      </trkpt>
      <trkpt lat="42.393639" lon="-7.872947">
        <ele>427.649</ele>
        <time>1970-01-11T01:59:57Z</time>
      </trkpt>
      <trkpt lat="42.393701" lon="-7.872956">
        <ele>428.227</ele>
        <time>1970-01-11T01:59:57Z</time>
      </trkpt>
      <trkpt lat="42.393728" lon="-7.872959">
        <ele>428.446</ele>
        <time>1970-01-11T01:59:57Z</time>
      </trkpt>
      <trkpt lat="42.393801" lon="-7.872980">
        <ele>429.651</ele>
        <time>1970-01-11T01:59:57Z</time>
      </trkpt>
      <trkpt lat="42.393845" lon="-7.873006">
        <ele>430.479</ele>
        <time>1970-01-11T01:59:57Z</time>
      </trkpt>
      <trkpt lat="42.393862" lon="-7.873018">
        <ele>430.888</ele>
        <time>1970-01-11T01:59:57Z</time>
      </trkpt>
      <trkpt lat="42.393943" lon="-7.873052">
        <ele>432.076</ele>
        <time>1970-01-11T01:59:57Z</time>
      </trkpt>
      <trkpt lat="42.393966" lon="-7.873056">
        <ele>432.290</ele>
        <time>1970-01-11T01:59:57Z</time>
      </trkpt>
      <trkpt lat="42.394055" lon="-7.873053">
        <ele>433.219</ele>
        <time>1970-01-11T01:59:57Z</time>
      </trkpt>
      <trkpt lat="42.394099" lon="-7.873053">
        <ele>433.808</ele>
        <time>1970-01-11T01:59:57Z</time>
      </trkpt>
      <trkpt lat="42.394118" lon="-7.873054">
        <ele>434.468</ele>
        <time>1970-01-11T01:59:57Z</time>
      </trkpt>
      <trkpt lat="42.394168" lon="-7.873046">
        <ele>435.415</ele>
        <time>1970-01-11T01:59:57Z</time>
      </trkpt>
      <trkpt lat="42.394196" lon="-7.873022">
        <ele>436.041</ele>
        <time>1970-01-11T01:59:57Z</time>
      </trkpt>
      <trkpt lat="42.394226" lon="-7.873012">
        <ele>436.669</ele>
        <time>1970-01-11T01:59:57Z</time>
      </trkpt>
      <trkpt lat="42.394256" lon="-7.873015">
        <ele>436.838</ele>
        <time>1970-01-11T01:59:57Z</time>
      </trkpt>
      <trkpt lat="42.394268" lon="-7.873012">
        <ele>437.053</ele>
        <time>1970-01-11T01:59:57Z</time>
      </trkpt>
      <trkpt lat="42.394294" lon="-7.873013">
        <ele>437.871</ele>
        <time>1970-01-11T01:59:57Z</time>
      </trkpt>
      <trkpt lat="42.394337" lon="-7.872996">
        <ele>438.810</ele>
        <time>1970-01-11T01:59:57Z</time>
      </trkpt>
      <trkpt lat="42.394414" lon="-7.872956">
        <ele>440.015</ele>
        <time>1970-01-11T01:59:57Z</time>
      </trkpt>
      <trkpt lat="42.394434" lon="-7.872950">
        <ele>440.265</ele>
        <time>1970-01-11T01:59:57Z</time>
      </trkpt>
      <trkpt lat="42.394456" lon="-7.872941">
        <ele>440.411</ele>
        <time>1970-01-11T01:59:57Z</time>
      </trkpt>
      <trkpt lat="42.394555" lon="-7.872894">
        <ele>441.208</ele>
        <time>1970-01-11T01:59:57Z</time>
      </trkpt>
      <trkpt lat="42.394596" lon="-7.872867">
        <ele>441.612</ele>
        <time>1970-01-11T01:59:57Z</time>
      </trkpt>
      <trkpt lat="42.394675" lon="-7.872829">
        <ele>442.289</ele>
        <time>1970-01-11T01:59:57Z</time>
      </trkpt>
      <trkpt lat="42.394725" lon="-7.872806">
        <ele>442.885</ele>
        <time>1970-01-11T01:59:57Z</time>
      </trkpt>
      <trkpt lat="42.394775" lon="-7.872786">
        <ele>443.443</ele>
        <time>1970-01-11T01:59:57Z</time>
      </trkpt>
      <trkpt lat="42.394847" lon="-7.872756">
        <ele>444.272</ele>
        <time>1970-01-11T01:59:57Z</time>
      </trkpt>
      <trkpt lat="42.394869" lon="-7.872758">
        <ele>444.667</ele>
        <time>1970-01-11T01:59:57Z</time>
      </trkpt>
      <trkpt lat="42.394890" lon="-7.872761">
        <ele>444.835</ele>
        <time>1970-01-11T01:59:57Z</time>
      </trkpt>
      <trkpt lat="42.394954" lon="-7.872774">
        <ele>445.684</ele>
        <time>1970-01-11T01:59:57Z</time>
      </trkpt>
      <trkpt lat="42.394974" lon="-7.872772">
        <ele>445.831</ele>
        <time>1970-01-11T01:59:57Z</time>
      </trkpt>
      <trkpt lat="42.395067" lon="-7.872738">
        <ele>446.661</ele>
        <time>1970-01-11T01:59:57Z</time>
      </trkpt>
      <trkpt lat="42.395099" lon="-7.872723">
        <ele>446.807</ele>
        <time>1970-01-11T01:59:57Z</time>
      </trkpt>
      <trkpt lat="42.395178" lon="-7.872678">
        <ele>447.608</ele>
        <time>1970-01-11T01:59:57Z</time>
      </trkpt>
      <trkpt lat="42.395197" lon="-7.872665">
        <ele>448.094</ele>
        <time>1970-01-11T01:59:57Z</time>
      </trkpt>
      <trkpt lat="42.395281" lon="-7.872621">
        <ele>448.861</ele>
        <time>1970-01-11T01:59:57Z</time>
      </trkpt>
      <trkpt lat="42.395300" lon="-7.872613">
        <ele>449.287</ele>
        <time>1970-01-11T01:59:57Z</time>
      </trkpt>
      <trkpt lat="42.395415" lon="-7.872602">
        <ele>450.495</ele>
        <time>1970-01-11T01:59:57Z</time>
      </trkpt>
      <trkpt lat="42.395502" lon="-7.872595">
        <ele>451.494</ele>
        <time>1970-01-11T01:59:57Z</time>
      </trkpt>
      <trkpt lat="42.395520" lon="-7.872593">
        <ele>451.849</ele>
        <time>1970-01-11T01:59:57Z</time>
      </trkpt>
      <trkpt lat="42.395574" lon="-7.872608">
        <ele>452.677</ele>
        <time>1970-01-11T01:59:57Z</time>
      </trkpt>
      <trkpt lat="42.395646" lon="-7.872616">
        <ele>453.226</ele>
        <time>1970-01-11T01:59:57Z</time>
      </trkpt>
      <trkpt lat="42.395708" lon="-7.872626">
        <ele>453.861</ele>
        <time>1970-01-11T01:59:57Z</time>
      </trkpt>
      <trkpt lat="42.395842" lon="-7.872664">
        <ele>454.221</ele>
        <time>1970-01-11T01:59:57Z</time>
      </trkpt>
      <trkpt lat="42.396077" lon="-7.872672">
        <ele>453.813</ele>
        <time>1970-01-11T01:59:57Z</time>
      </trkpt>
      <trkpt lat="42.396351" lon="-7.872681">
        <ele>454.208</ele>
        <time>1970-01-11T01:59:57Z</time>
      </trkpt>
      <trkpt lat="42.396509" lon="-7.872659">
        <ele>455.097</ele>
        <time>1970-01-11T01:59:57Z</time>
      </trkpt>
      <trkpt lat="42.396597" lon="-7.872641">
        <ele>455.454</ele>
        <time>1970-01-11T01:59:57Z</time>
      </trkpt>
      <trkpt lat="42.396687" lon="-7.872627">
        <ele>456.070</ele>
        <time>1970-01-11T01:59:57Z</time>
      </trkpt>
      <trkpt lat="42.396790" lon="-7.872643">
        <ele>457.078</ele>
        <time>1970-01-11T01:59:57Z</time>
      </trkpt>
      <trkpt lat="42.396814" lon="-7.872646">
        <ele>457.247</ele>
        <time>1970-01-11T01:59:57Z</time>
      </trkpt>
      <trkpt lat="42.396951" lon="-7.872655">
        <ele>458.412</ele>
        <time>1970-01-11T01:59:57Z</time>
      </trkpt>
      <trkpt lat="42.396978" lon="-7.872656">
        <ele>458.680</ele>
        <time>1970-01-11T01:59:57Z</time>
      </trkpt>
      <trkpt lat="42.397056" lon="-7.872664">
        <ele>459.459</ele>
        <time>1970-01-11T01:59:57Z</time>
      </trkpt>
      <trkpt lat="42.397189" lon="-7.872660">
        <ele>460.495</ele>
        <time>1970-01-11T01:59:57Z</time>
      </trkpt>
      <trkpt lat="42.397298" lon="-7.872675">
        <ele>461.849</ele>
        <time>1970-01-11T01:59:57Z</time>
      </trkpt>
      <trkpt lat="42.397366" lon="-7.872702">
        <ele>462.623</ele>
        <time>1970-01-11T01:59:57Z</time>
      </trkpt>
      <trkpt lat="42.397387" lon="-7.872717">
        <ele>463.008</ele>
        <time>1970-01-11T01:59:57Z</time>
      </trkpt>
      <trkpt lat="42.397431" lon="-7.872826">
        <ele>464.260</ele>
        <time>1970-01-11T01:59:57Z</time>
      </trkpt>
      <trkpt lat="42.397426" lon="-7.872924">
        <ele>465.217</ele>
        <time>1970-01-11T01:59:57Z</time>
      </trkpt>
      <trkpt lat="42.397417" lon="-7.873007">
        <ele>465.883</ele>
        <time>1970-01-11T01:59:57Z</time>
      </trkpt>
      <trkpt lat="42.397414" lon="-7.873064">
        <ele>466.231</ele>
        <time>1970-01-11T01:59:57Z</time>
      </trkpt>
      <trkpt lat="42.397422" lon="-7.873185">
        <ele>467.670</ele>
        <time>1970-01-11T01:59:57Z</time>
      </trkpt>
      <trkpt lat="42.397426" lon="-7.873218">
        <ele>468.065</ele>
        <time>1970-01-11T01:59:57Z</time>
      </trkpt>
      <trkpt lat="42.397430" lon="-7.873287">
        <ele>468.663</ele>
        <time>1970-01-11T01:59:57Z</time>
      </trkpt>
      <trkpt lat="42.397430" lon="-7.873391">
        <ele>469.212</ele>
        <time>1970-01-11T01:59:57Z</time>
      </trkpt>
      <trkpt lat="42.397434" lon="-7.873453">
        <ele>469.628</ele>
        <time>1970-01-11T01:59:57Z</time>
      </trkpt>
      <trkpt lat="42.397438" lon="-7.873484">
        <ele>469.889</ele>
        <time>1970-01-11T01:59:57Z</time>
      </trkpt>
      <trkpt lat="42.397495" lon="-7.873675">
        <ele>470.817</ele>
        <time>1970-01-11T01:59:57Z</time>
      </trkpt>
      <trkpt lat="42.397568" lon="-7.873827">
        <ele>472.008</ele>
        <time>1970-01-11T01:59:57Z</time>
      </trkpt>
      <trkpt lat="42.397603" lon="-7.873878">
        <ele>472.483</ele>
        <time>1970-01-11T01:59:57Z</time>
      </trkpt>
      <trkpt lat="42.397641" lon="-7.873925">
        <ele>473.060</ele>
        <time>1970-01-11T01:59:57Z</time>
      </trkpt>
      <trkpt lat="42.397750" lon="-7.874074">
        <ele>473.866</ele>
        <time>1970-01-11T01:59:57Z</time>
      </trkpt>
      <trkpt lat="42.397793" lon="-7.874175">
        <ele>474.244</ele>
        <time>1970-01-11T01:59:57Z</time>
      </trkpt>
      <trkpt lat="42.397822" lon="-7.874291">
        <ele>474.833</ele>
        <time>1970-01-11T01:59:57Z</time>
      </trkpt>
      <trkpt lat="42.397840" lon="-7.874366">
        <ele>475.278</ele>
        <time>1970-01-11T01:59:57Z</time>
      </trkpt>
      <trkpt lat="42.397869" lon="-7.874517">
        <ele>475.866</ele>
        <time>1970-01-11T01:59:57Z</time>
      </trkpt>
      <trkpt lat="42.397886" lon="-7.874590">
        <ele>476.245</ele>
        <time>1970-01-11T01:59:57Z</time>
      </trkpt>
      <trkpt lat="42.397940" lon="-7.874738">
        <ele>477.414</ele>
        <time>1970-01-11T01:59:57Z</time>
      </trkpt>
      <trkpt lat="42.397969" lon="-7.874808">
        <ele>477.854</ele>
        <time>1970-01-11T01:59:57Z</time>
      </trkpt>
      <trkpt lat="42.398016" lon="-7.874907">
        <ele>478.409</ele>
        <time>1970-01-11T01:59:57Z</time>
      </trkpt>
      <trkpt lat="42.398087" lon="-7.875026">
        <ele>479.208</ele>
        <time>1970-01-11T01:59:57Z</time>
      </trkpt>
      <trkpt lat="42.398130" lon="-7.875083">
        <ele>479.672</ele>
        <time>1970-01-11T01:59:57Z</time>
      </trkpt>
      <trkpt lat="42.398274" lon="-7.875257">
        <ele>480.299</ele>
        <time>1970-01-11T01:59:57Z</time>
      </trkpt>
      <trkpt lat="42.398487" lon="-7.875446">
        <ele>480.655</ele>
        <time>1970-01-11T01:59:57Z</time>
      </trkpt>
      <trkpt lat="42.398621" lon="-7.875587">
        <ele>480.673</ele>
        <time>1970-01-11T01:59:57Z</time>
      </trkpt>
      <trkpt lat="42.398759" lon="-7.875735">
        <ele>480.672</ele>
        <time>1970-01-11T01:59:57Z</time>
      </trkpt>
      <trkpt lat="42.398841" lon="-7.875855">
        <ele>480.067</ele>
        <time>1970-01-11T01:59:57Z</time>
      </trkpt>
      <trkpt lat="42.398931" lon="-7.875968">
        <ele>479.615</ele>
        <time>1970-01-11T01:59:57Z</time>
      </trkpt>
      <trkpt lat="42.398964" lon="-7.876002">
        <ele>479.474</ele>
        <time>1970-01-11T01:59:57Z</time>
      </trkpt>
      <trkpt lat="42.399061" lon="-7.876126">
        <ele>479.299</ele>
        <time>1970-01-11T01:59:57Z</time>
      </trkpt>
      <trkpt lat="42.399154" lon="-7.876281">
        <ele>478.807</ele>
        <time>1970-01-11T01:59:57Z</time>
      </trkpt>
      <trkpt lat="42.399187" lon="-7.876322">
        <ele>478.627</ele>
        <time>1970-01-11T01:59:57Z</time>
      </trkpt>
      <trkpt lat="42.399219" lon="-7.876376">
        <ele>478.608</ele>
        <time>1970-01-11T01:59:57Z</time>
      </trkpt>
      <trkpt lat="42.399204" lon="-7.876388">
        <ele>478.440</ele>
        <time>1970-01-11T01:59:57Z</time>
      </trkpt>
      <trkpt lat="42.399163" lon="-7.876413">
        <ele>477.897</ele>
        <time>1970-01-11T01:59:57Z</time>
      </trkpt>
      <trkpt lat="42.399142" lon="-7.876432">
        <ele>477.493</ele>
        <time>1970-01-11T01:59:57Z</time>
      </trkpt>
      <trkpt lat="42.399124" lon="-7.876459">
        <ele>477.271</ele>
        <time>1970-01-11T01:59:57Z</time>
      </trkpt>
      <trkpt lat="42.399094" lon="-7.876532">
        <ele>476.860</ele>
        <time>1970-01-11T01:59:57Z</time>
      </trkpt>
      <trkpt lat="42.399022" lon="-7.876749">
        <ele>476.695</ele>
        <time>1970-01-11T01:59:57Z</time>
      </trkpt>
      <trkpt lat="42.398982" lon="-7.876892">
        <ele>477.033</ele>
        <time>1970-01-11T01:59:57Z</time>
      </trkpt>
      <trkpt lat="42.398923" lon="-7.877107">
        <ele>477.272</ele>
        <time>1970-01-11T01:59:57Z</time>
      </trkpt>
      <trkpt lat="42.398848" lon="-7.877334">
        <ele>477.223</ele>
        <time>1970-01-11T01:59:57Z</time>
      </trkpt>
      <trkpt lat="42.398823" lon="-7.877384">
        <ele>477.283</ele>
        <time>1970-01-11T01:59:57Z</time>
      </trkpt>
      <trkpt lat="42.398783" lon="-7.877564">
        <ele>476.811</ele>
        <time>1970-01-11T01:59:57Z</time>
      </trkpt>
      <trkpt lat="42.398787" lon="-7.877632">
        <ele>476.608</ele>
        <time>1970-01-11T01:59:57Z</time>
      </trkpt>
      <trkpt lat="42.398804" lon="-7.877704">
        <ele>476.473</ele>
        <time>1970-01-11T01:59:57Z</time>
      </trkpt>
      <trkpt lat="42.398859" lon="-7.877856">
        <ele>476.030</ele>
        <time>1970-01-11T01:59:57Z</time>
      </trkpt>
      <trkpt lat="42.398978" lon="-7.878203">
        <ele>474.646</ele>
        <time>1970-01-11T01:59:57Z</time>
      </trkpt>
      <trkpt lat="42.399022" lon="-7.878386">
        <ele>473.474</ele>
        <time>1970-01-11T01:59:57Z</time>
      </trkpt>
      <trkpt lat="42.399056" lon="-7.878579">
        <ele>472.043</ele>
        <time>1970-01-11T01:59:57Z</time>
      </trkpt>
      <trkpt lat="42.399084" lon="-7.878755">
        <ele>470.458</ele>
        <time>1970-01-11T01:59:57Z</time>
      </trkpt>
      <trkpt lat="42.399099" lon="-7.878839">
        <ele>469.496</ele>
        <time>1970-01-11T01:59:57Z</time>
      </trkpt>
      <trkpt lat="42.399116" lon="-7.878922">
        <ele>468.495</ele>
        <time>1970-01-11T01:59:57Z</time>
      </trkpt>
      <trkpt lat="42.399144" lon="-7.879086">
        <ele>465.884</ele>
        <time>1970-01-11T01:59:57Z</time>
      </trkpt>
      <trkpt lat="42.399189" lon="-7.879310">
        <ele>464.607</ele>
        <time>1970-01-11T01:59:57Z</time>
      </trkpt>
      <trkpt lat="42.399208" lon="-7.879443">
        <ele>463.417</ele>
        <time>1970-01-11T01:59:57Z</time>
      </trkpt>
      <trkpt lat="42.399216" lon="-7.879519">
        <ele>462.008</ele>
        <time>1970-01-11T01:59:57Z</time>
      </trkpt>
      <trkpt lat="42.399241" lon="-7.879625">
        <ele>461.239</ele>
        <time>1970-01-11T01:59:57Z</time>
      </trkpt>
      <trkpt lat="42.399260" lon="-7.879717">
        <ele>460.866</ele>
        <time>1970-01-11T01:59:57Z</time>
      </trkpt>
      <trkpt lat="42.399256" lon="-7.879818">
        <ele>460.452</ele>
        <time>1970-01-11T01:59:57Z</time>
      </trkpt>
      <trkpt lat="42.399244" lon="-7.879871">
        <ele>460.490</ele>
        <time>1970-01-11T01:59:57Z</time>
      </trkpt>
      <trkpt lat="42.399198" lon="-7.879981">
        <ele>460.249</ele>
        <time>1970-01-11T01:59:57Z</time>
      </trkpt>
      <trkpt lat="42.399165" lon="-7.880163">
        <ele>460.084</ele>
        <time>1970-01-11T01:59:57Z</time>
      </trkpt>
      <trkpt lat="42.399234" lon="-7.880349">
        <ele>459.872</ele>
        <time>1970-01-11T01:59:57Z</time>
      </trkpt>
      <trkpt lat="42.399259" lon="-7.880382">
        <ele>459.891</ele>
        <time>1970-01-11T01:59:57Z</time>
      </trkpt>
      <trkpt lat="42.399289" lon="-7.880413">
        <ele>459.831</ele>
        <time>1970-01-11T01:59:57Z</time>
      </trkpt>
      <trkpt lat="42.399414" lon="-7.880533">
        <ele>459.661</ele>
        <time>1970-01-11T01:59:57Z</time>
      </trkpt>
      <trkpt lat="42.399604" lon="-7.880786">
        <ele>459.807</ele>
        <time>1970-01-11T01:59:57Z</time>
      </trkpt>
      <trkpt lat="42.399760" lon="-7.881046">
        <ele>460.608</ele>
        <time>1970-01-11T01:59:57Z</time>
      </trkpt>
      <trkpt lat="42.399776" lon="-7.881062">
        <ele>460.814</ele>
        <time>1970-01-11T01:59:57Z</time>
      </trkpt>
      <trkpt lat="42.399791" lon="-7.881073">
        <ele>460.841</ele>
        <time>1970-01-11T01:59:57Z</time>
      </trkpt>
      <trkpt lat="42.399800" lon="-7.881116">
        <ele>461.057</ele>
        <time>1970-01-11T01:59:57Z</time>
      </trkpt>
      <trkpt lat="42.399792" lon="-7.881109">
        <ele>461.025</ele>
        <time>1970-01-11T01:59:57Z</time>
      </trkpt>
      <trkpt lat="42.399782" lon="-7.881103">
        <ele>461.054</ele>
        <time>1970-01-11T01:59:57Z</time>
      </trkpt>
      <trkpt lat="42.399762" lon="-7.881084">
        <ele>461.039</ele>
        <time>1970-01-11T01:59:57Z</time>
      </trkpt>
      <trkpt lat="42.399745" lon="-7.881020">
        <ele>461.087</ele>
        <time>1970-01-11T01:59:57Z</time>
      </trkpt>
      <trkpt lat="42.399752" lon="-7.881012">
        <ele>461.026</ele>
        <time>1970-01-11T01:59:57Z</time>
      </trkpt>
      <trkpt lat="42.399796" lon="-7.881084">
        <ele>461.082</ele>
        <time>1970-01-11T01:59:57Z</time>
      </trkpt>
      <trkpt lat="42.399827" lon="-7.881182">
        <ele>461.243</ele>
        <time>1970-01-11T01:59:57Z</time>
      </trkpt>
      <trkpt lat="42.399838" lon="-7.881203">
        <ele>461.017</ele>
        <time>1970-01-11T01:59:57Z</time>
      </trkpt>
      <trkpt lat="42.399891" lon="-7.881266">
        <ele>461.008</ele>
        <time>1970-01-11T01:59:57Z</time>
      </trkpt>
      <trkpt lat="42.399923" lon="-7.881304">
        <ele>461.099</ele>
        <time>1970-01-11T01:59:57Z</time>
      </trkpt>
      <trkpt lat="42.399982" lon="-7.881389">
        <ele>461.046</ele>
        <time>1970-01-11T01:59:57Z</time>
      </trkpt>
      <trkpt lat="42.400024" lon="-7.881463">
        <ele>460.842</ele>
        <time>1970-01-11T01:59:57Z</time>
      </trkpt>
      <trkpt lat="42.400062" lon="-7.881554">
        <ele>460.480</ele>
        <time>1970-01-11T01:59:57Z</time>
      </trkpt>
      <trkpt lat="42.400098" lon="-7.881672">
        <ele>459.819</ele>
        <time>1970-01-11T01:59:57Z</time>
      </trkpt>
      <trkpt lat="42.400124" lon="-7.881766">
        <ele>459.674</ele>
        <time>1970-01-11T01:59:57Z</time>
      </trkpt>
      <trkpt lat="42.400153" lon="-7.881841">
        <ele>459.422</ele>
        <time>1970-01-11T01:59:57Z</time>
      </trkpt>
      <trkpt lat="42.400261" lon="-7.882068">
        <ele>458.421</ele>
        <time>1970-01-11T01:59:57Z</time>
      </trkpt>
      <trkpt lat="42.400300" lon="-7.882145">
        <ele>458.064</ele>
        <time>1970-01-11T01:59:57Z</time>
      </trkpt>
      <trkpt lat="42.400373" lon="-7.882297">
        <ele>457.406</ele>
        <time>1970-01-11T01:59:57Z</time>
      </trkpt>
      <trkpt lat="42.400411" lon="-7.882373">
        <ele>456.616</ele>
        <time>1970-01-11T01:59:57Z</time>
      </trkpt>
      <trkpt lat="42.400453" lon="-7.882449">
        <ele>456.008</ele>
        <time>1970-01-11T01:59:57Z</time>
      </trkpt>
      <trkpt lat="42.400552" lon="-7.882595">
        <ele>455.077</ele>
        <time>1970-01-11T01:59:57Z</time>
      </trkpt>
      <trkpt lat="42.400607" lon="-7.882668">
        <ele>454.664</ele>
        <time>1970-01-11T01:59:57Z</time>
      </trkpt>
      <trkpt lat="42.400729" lon="-7.882812">
        <ele>453.670</ele>
        <time>1970-01-11T01:59:57Z</time>
      </trkpt>
      <trkpt lat="42.400847" lon="-7.882964">
        <ele>452.838</ele>
        <time>1970-01-11T01:59:57Z</time>
      </trkpt>
      <trkpt lat="42.400901" lon="-7.883041">
        <ele>452.497</ele>
        <time>1970-01-11T01:59:57Z</time>
      </trkpt>
      <trkpt lat="42.401050" lon="-7.883291">
        <ele>451.892</ele>
        <time>1970-01-11T01:59:57Z</time>
      </trkpt>
      <trkpt lat="42.401102" lon="-7.883376">
        <ele>451.450</ele>
        <time>1970-01-11T01:59:57Z</time>
      </trkpt>
      <trkpt lat="42.401156" lon="-7.883456">
        <ele>451.079</ele>
        <time>1970-01-11T01:59:57Z</time>
      </trkpt>
      <trkpt lat="42.401216" lon="-7.883529">
        <ele>450.641</ele>
        <time>1970-01-11T01:59:57Z</time>
      </trkpt>
      <trkpt lat="42.401283" lon="-7.883598">
        <ele>450.281</ele>
        <time>1970-01-11T01:59:57Z</time>
      </trkpt>
      <trkpt lat="42.401419" lon="-7.883726">
        <ele>449.609</ele>
        <time>1970-01-11T01:59:57Z</time>
      </trkpt>
      <trkpt lat="42.401551" lon="-7.883851">
        <ele>449.008</ele>
        <time>1970-01-11T01:59:57Z</time>
      </trkpt>
      <trkpt lat="42.401610" lon="-7.883917">
        <ele>448.865</ele>
        <time>1970-01-11T01:59:57Z</time>
      </trkpt>
      <trkpt lat="42.401685" lon="-7.884073">
        <ele>448.052</ele>
        <time>1970-01-11T01:59:57Z</time>
      </trkpt>
      <trkpt lat="42.401703" lon="-7.884156">
        <ele>447.488</ele>
        <time>1970-01-11T01:59:57Z</time>
      </trkpt>
      <trkpt lat="42.401717" lon="-7.884419">
        <ele>447.036</ele>
        <time>1970-01-11T01:59:57Z</time>
      </trkpt>
      <trkpt lat="42.401764" lon="-7.884829">
        <ele>447.065</ele>
        <time>1970-01-11T01:59:57Z</time>
      </trkpt>
      <trkpt lat="42.401801" lon="-7.884976">
        <ele>446.880</ele>
        <time>1970-01-11T01:59:57Z</time>
      </trkpt>
      <trkpt lat="42.401816" lon="-7.885020">
        <ele>446.868</ele>
        <time>1970-01-11T01:59:57Z</time>
      </trkpt>
      <trkpt lat="42.401900" lon="-7.885311">
        <ele>447.477</ele>
        <time>1970-01-11T01:59:57Z</time>
      </trkpt>
      <trkpt lat="42.401898" lon="-7.885349">
        <ele>448.237</ele>
        <time>1970-01-11T01:59:57Z</time>
      </trkpt>
      <trkpt lat="42.401898" lon="-7.885349">
        <ele>448.449</ele>
        <time>1970-01-11T01:59:57Z</time>
      </trkpt>
      <trkpt lat="42.401898" lon="-7.885349">
        <ele>448.413</ele>
        <time>1970-01-11T01:59:57Z</time>
      </trkpt>
      <trkpt lat="42.401898" lon="-7.885349">
        <ele>448.408</ele>
        <time>1970-01-11T01:59:57Z</time>
      </trkpt>
      <trkpt lat="42.401898" lon="-7.885349">
        <ele>448.244</ele>
        <time>1970-01-11T01:59:57Z</time>
      </trkpt>
      <trkpt lat="42.401898" lon="-7.885349">
        <ele>448.411</ele>
        <time>1970-01-11T01:59:57Z</time>
      </trkpt>
      <trkpt lat="42.401898" lon="-7.885349">
        <ele>448.497</ele>
        <time>1970-01-11T01:59:57Z</time>
      </trkpt>
      <trkpt lat="42.401898" lon="-7.885349">
        <ele>448.475</ele>
        <time>1970-01-11T01:59:57Z</time>
      </trkpt>
      <trkpt lat="42.401898" lon="-7.885349">
        <ele>448.424</ele>
        <time>1970-01-11T01:59:57Z</time>
      </trkpt>
      <trkpt lat="42.401934" lon="-7.885367">
        <ele>448.469</ele>
        <time>1970-01-11T01:59:57Z</time>
      </trkpt>
      <trkpt lat="42.401950" lon="-7.885412">
        <ele>448.467</ele>
        <time>1970-01-11T01:59:57Z</time>
      </trkpt>
      <trkpt lat="42.401960" lon="-7.885430">
        <ele>448.426</ele>
        <time>1970-01-11T01:59:57Z</time>
      </trkpt>
      <trkpt lat="42.401967" lon="-7.885457">
        <ele>448.635</ele>
        <time>1970-01-11T01:59:57Z</time>
      </trkpt>
      <trkpt lat="42.401972" lon="-7.885488">
        <ele>448.686</ele>
        <time>1970-01-11T01:59:57Z</time>
      </trkpt>
      <trkpt lat="42.402019" lon="-7.885640">
        <ele>449.214</ele>
        <time>1970-01-11T01:59:57Z</time>
      </trkpt>
      <trkpt lat="42.402047" lon="-7.885796">
        <ele>449.408</ele>
        <time>1970-01-11T01:59:57Z</time>
      </trkpt>
      <trkpt lat="42.402078" lon="-7.885888">
        <ele>449.424</ele>
        <time>1970-01-11T01:59:57Z</time>
      </trkpt>
      <trkpt lat="42.402064" lon="-7.885841">
        <ele>449.481</ele>
        <time>1970-01-11T01:59:57Z</time>
      </trkpt>
      <trkpt lat="42.402050" lon="-7.885679">
        <ele>449.227</ele>
        <time>1970-01-11T01:59:57Z</time>
      </trkpt>
      <trkpt lat="42.402009" lon="-7.885566">
        <ele>449.015</ele>
        <time>1970-01-11T01:59:57Z</time>
      </trkpt>
      <trkpt lat="42.401981" lon="-7.885466">
        <ele>448.834</ele>
        <time>1970-01-11T01:59:57Z</time>
      </trkpt>
      <trkpt lat="42.401945" lon="-7.885348">
        <ele>448.859</ele>
        <time>1970-01-11T01:59:57Z</time>
      </trkpt>
      <trkpt lat="42.401939" lon="-7.885340">
        <ele>448.687</ele>
        <time>1970-01-11T01:59:57Z</time>
      </trkpt>
      <trkpt lat="42.401939" lon="-7.885340">
        <ele>448.226</ele>
        <time>1970-01-11T01:59:57Z</time>
      </trkpt>
      <trkpt lat="42.401939" lon="-7.885340">
        <ele>448.432</ele>
        <time>1970-01-11T01:59:57Z</time>
      </trkpt>
      <trkpt lat="42.401939" lon="-7.885340">
        <ele>448.492</ele>
        <time>1970-01-11T01:59:57Z</time>
      </trkpt>
      <trkpt lat="42.401939" lon="-7.885340">
        <ele>448.211</ele>
        <time>1970-01-11T01:59:57Z</time>
      </trkpt>
      <trkpt lat="42.401939" lon="-7.885340">
        <ele>448.008</ele>
        <time>1970-01-11T01:59:57Z</time>
      </trkpt>
      <trkpt lat="42.401937" lon="-7.885338">
        <ele>448.234</ele>
        <time>1970-01-11T01:59:57Z</time>
      </trkpt>
      <trkpt lat="42.401937" lon="-7.885338">
        <ele>448.281</ele>
        <time>1970-01-11T01:59:57Z</time>
      </trkpt>
      <trkpt lat="42.401937" lon="-7.885338">
        <ele>448.277</ele>
        <time>1970-01-11T01:59:57Z</time>
      </trkpt>
      <trkpt lat="42.401937" lon="-7.885338">
        <ele>448.445</ele>
        <time>1970-01-11T01:59:57Z</time>
      </trkpt>
      <trkpt lat="42.401941" lon="-7.885333">
        <ele>448.414</ele>
        <time>1970-01-11T01:59:57Z</time>
      </trkpt>
      <trkpt lat="42.401941" lon="-7.885333">
        <ele>448.439</ele>
        <time>1970-01-11T01:59:57Z</time>
      </trkpt>
      <trkpt lat="42.401941" lon="-7.885333">
        <ele>448.267</ele>
        <time>1970-01-11T01:59:57Z</time>
      </trkpt>
      <trkpt lat="42.401941" lon="-7.885333">
        <ele>448.026</ele>
        <time>1970-01-11T01:59:57Z</time>
      </trkpt>
      <trkpt lat="42.401941" lon="-7.885333">
        <ele>447.825</ele>
        <time>1970-01-11T01:59:57Z</time>
      </trkpt>
      <trkpt lat="42.401941" lon="-7.885333">
        <ele>447.826</ele>
        <time>1970-01-11T01:59:57Z</time>
      </trkpt>
      <trkpt lat="42.401941" lon="-7.885333">
        <ele>447.808</ele>
        <time>1970-01-11T01:59:57Z</time>
      </trkpt>
      <trkpt lat="42.401941" lon="-7.885333">
        <ele>448.008</ele>
        <time>1970-01-11T01:59:57Z</time>
      </trkpt>
      <trkpt lat="42.401941" lon="-7.885333">
        <ele>448.023</ele>
        <time>1970-01-11T01:59:57Z</time>
      </trkpt>
      <trkpt lat="42.401941" lon="-7.885333">
        <ele>447.860</ele>
        <time>1970-01-11T01:59:57Z</time>
      </trkpt>
      <trkpt lat="42.401939" lon="-7.885329">
        <ele>447.896</ele>
        <time>1970-01-11T01:59:57Z</time>
      </trkpt>
      <trkpt lat="42.401939" lon="-7.885329">
        <ele>447.894</ele>
        <time>1970-01-11T01:59:57Z</time>
      </trkpt>
      <trkpt lat="42.401939" lon="-7.885329">
        <ele>448.053</ele>
        <time>1970-01-11T01:59:57Z</time>
      </trkpt>
      <trkpt lat="42.401939" lon="-7.885329">
        <ele>448.068</ele>
        <time>1970-01-11T01:59:57Z</time>
      </trkpt>
      <trkpt lat="42.401939" lon="-7.885329">
        <ele>448.226</ele>
        <time>1970-01-11T01:59:57Z</time>
      </trkpt>
      <trkpt lat="42.401939" lon="-7.885329">
        <ele>447.845</ele>
        <time>1970-01-11T01:59:57Z</time>
      </trkpt>
      <trkpt lat="42.401939" lon="-7.885329">
        <ele>447.884</ele>
        <time>1970-01-11T01:59:57Z</time>
      </trkpt>
      <trkpt lat="42.401939" lon="-7.885329">
        <ele>447.807</ele>
        <time>1970-01-11T01:59:57Z</time>
      </trkpt>
      <trkpt lat="42.401939" lon="-7.885329">
        <ele>447.817</ele>
        <time>1970-01-11T01:59:57Z</time>
      </trkpt>
      <trkpt lat="42.401939" lon="-7.885329">
        <ele>447.608</ele>
        <time>1970-01-11T01:59:57Z</time>
      </trkpt>
      <trkpt lat="42.401939" lon="-7.885329">
        <ele>447.689</ele>
        <time>1970-01-11T01:59:57Z</time>
      </trkpt>
      <trkpt lat="42.401939" lon="-7.885329">
        <ele>447.626</ele>
        <time>1970-01-11T01:59:57Z</time>
      </trkpt>
      <trkpt lat="42.401939" lon="-7.885329">
        <ele>447.442</ele>
        <time>1970-01-11T01:59:57Z</time>
      </trkpt>
      <trkpt lat="42.401939" lon="-7.885329">
        <ele>447.440</ele>
        <time>1970-01-11T01:59:57Z</time>
      </trkpt>
      <trkpt lat="42.401939" lon="-7.885329">
        <ele>447.459</ele>
        <time>1970-01-11T01:59:57Z</time>
      </trkpt>
      <trkpt lat="42.401939" lon="-7.885329">
        <ele>447.864</ele>
        <time>1970-01-11T01:59:57Z</time>
      </trkpt>
      <trkpt lat="42.401939" lon="-7.885329">
        <ele>447.842</ele>
        <time>1970-01-11T01:59:57Z</time>
      </trkpt>
      <trkpt lat="42.401939" lon="-7.885329">
        <ele>447.891</ele>
        <time>1970-01-11T01:59:57Z</time>
      </trkpt>
      <trkpt lat="42.401944" lon="-7.885314">
        <ele>447.685</ele>
        <time>1970-01-11T01:59:57Z</time>
      </trkpt>
      <trkpt lat="42.401944" lon="-7.885314">
        <ele>447.689</ele>
        <time>1970-01-11T01:59:57Z</time>
      </trkpt>
      <trkpt lat="42.401944" lon="-7.885314">
        <ele>448.017</ele>
        <time>1970-01-11T01:59:57Z</time>
      </trkpt>
      <trkpt lat="42.401944" lon="-7.885314">
        <ele>448.008</ele>
        <time>1970-01-11T01:59:57Z</time>
      </trkpt>
      <trkpt lat="42.401944" lon="-7.885314">
        <ele>447.659</ele>
        <time>1970-01-11T01:59:57Z</time>
      </trkpt>
      <trkpt lat="42.401944" lon="-7.885314">
        <ele>448.436</ele>
        <time>1970-01-11T01:59:57Z</time>
      </trkpt>
      <trkpt lat="42.401944" lon="-7.885314">
        <ele>448.642</ele>
        <time>1970-01-11T01:59:57Z</time>
      </trkpt>
      <trkpt lat="42.401944" lon="-7.885314">
        <ele>448.670</ele>
        <time>1970-01-11T01:59:57Z</time>
      </trkpt>
      <trkpt lat="42.401944" lon="-7.885314">
        <ele>448.049</ele>
        <time>1970-01-11T01:59:57Z</time>
      </trkpt>
      <trkpt lat="42.401943" lon="-7.885303">
        <ele>447.614</ele>
        <time>1970-01-11T01:59:57Z</time>
      </trkpt>
      <trkpt lat="42.401943" lon="-7.885303">
        <ele>447.432</ele>
        <time>1970-01-11T01:59:57Z</time>
      </trkpt>
      <trkpt lat="42.401943" lon="-7.885303">
        <ele>447.481</ele>
        <time>1970-01-11T01:59:57Z</time>
      </trkpt>
      <trkpt lat="42.401943" lon="-7.885303">
        <ele>447.678</ele>
        <time>1970-01-11T01:59:57Z</time>
      </trkpt>
      <trkpt lat="42.401943" lon="-7.885303">
        <ele>447.833</ele>
        <time>1970-01-11T01:59:57Z</time>
      </trkpt>
      <trkpt lat="42.401943" lon="-7.885303">
        <ele>448.226</ele>
        <time>1970-01-11T01:59:57Z</time>
      </trkpt>
      <trkpt lat="42.401943" lon="-7.885303">
        <ele>447.608</ele>
        <time>1970-01-11T01:59:57Z</time>
      </trkpt>
      <trkpt lat="42.401943" lon="-7.885303">
        <ele>448.258</ele>
        <time>1970-01-11T01:59:57Z</time>
      </trkpt>
      <trkpt lat="42.401943" lon="-7.885303">
        <ele>447.835</ele>
        <time>1970-01-11T01:59:57Z</time>
      </trkpt>
      <trkpt lat="42.401941" lon="-7.885304">
        <ele>447.891</ele>
        <time>1970-01-11T01:59:57Z</time>
      </trkpt>
      <trkpt lat="42.401941" lon="-7.885304">
        <ele>447.689</ele>
        <time>1970-01-11T01:59:57Z</time>
      </trkpt>
      <trkpt lat="42.401941" lon="-7.885304">
        <ele>447.668</ele>
        <time>1970-01-11T01:59:57Z</time>
      </trkpt>
      <trkpt lat="42.401941" lon="-7.885304">
        <ele>447.893</ele>
        <time>1970-01-11T01:59:57Z</time>
      </trkpt>
      <trkpt lat="42.401941" lon="-7.885304">
        <ele>448.081</ele>
        <time>1970-01-11T01:59:57Z</time>
      </trkpt>
      <trkpt lat="42.401941" lon="-7.885304">
        <ele>447.850</ele>
        <time>1970-01-11T01:59:57Z</time>
      </trkpt>
      <trkpt lat="42.401941" lon="-7.885304">
        <ele>447.887</ele>
        <time>1970-01-11T01:59:57Z</time>
      </trkpt>
      <trkpt lat="42.401943" lon="-7.885312">
        <ele>447.642</ele>
        <time>1970-01-11T01:59:57Z</time>
      </trkpt>
      <trkpt lat="42.401943" lon="-7.885312">
        <ele>447.426</ele>
        <time>1970-01-11T01:59:57Z</time>
      </trkpt>
      <trkpt lat="42.401943" lon="-7.885312">
        <ele>447.608</ele>
        <time>1970-01-11T01:59:57Z</time>
      </trkpt>
      <trkpt lat="42.401943" lon="-7.885312">
        <ele>447.699</ele>
        <time>1970-01-11T01:59:57Z</time>
      </trkpt>
      <trkpt lat="42.401943" lon="-7.885312">
        <ele>447.616</ele>
        <time>1970-01-11T01:59:57Z</time>
      </trkpt>
      <trkpt lat="42.401943" lon="-7.885312">
        <ele>447.672</ele>
        <time>1970-01-11T01:59:57Z</time>
      </trkpt>
      <trkpt lat="42.401943" lon="-7.885312">
        <ele>447.690</ele>
        <time>1970-01-11T01:59:57Z</time>
      </trkpt>
      <trkpt lat="42.401943" lon="-7.885312">
        <ele>447.429</ele>
        <time>1970-01-11T01:59:57Z</time>
      </trkpt>
      <trkpt lat="42.401943" lon="-7.885312">
        <ele>447.614</ele>
        <time>1970-01-11T01:59:57Z</time>
      </trkpt>
      <trkpt lat="42.401943" lon="-7.885312">
        <ele>447.872</ele>
        <time>1970-01-11T01:59:57Z</time>
      </trkpt>
      <trkpt lat="42.401943" lon="-7.885312">
        <ele>447.691</ele>
        <time>1970-01-11T01:59:57Z</time>
      </trkpt>
      <trkpt lat="42.401943" lon="-7.885312">
        <ele>447.686</ele>
        <time>1970-01-11T01:59:57Z</time>
      </trkpt>
      <trkpt lat="42.401943" lon="-7.885312">
        <ele>447.460</ele>
        <time>1970-01-11T01:59:57Z</time>
      </trkpt>
      <trkpt lat="42.401943" lon="-7.885312">
        <ele>447.626</ele>
        <time>1970-01-11T01:59:57Z</time>
      </trkpt>
      <trkpt lat="42.401935" lon="-7.885307">
        <ele>447.608</ele>
        <time>1970-01-11T01:59:57Z</time>
      </trkpt>
      <trkpt lat="42.401935" lon="-7.885307">
        <ele>447.669</ele>
        <time>1970-01-11T01:59:57Z</time>
      </trkpt>
      <trkpt lat="42.401935" lon="-7.885307">
        <ele>447.686</ele>
        <time>1970-01-11T01:59:57Z</time>
      </trkpt>
      <trkpt lat="42.401935" lon="-7.885307">
        <ele>447.672</ele>
        <time>1970-01-11T01:59:57Z</time>
      </trkpt>
      <trkpt lat="42.401935" lon="-7.885307">
        <ele>447.620</ele>
        <time>1970-01-11T01:59:57Z</time>
      </trkpt>
      <trkpt lat="42.401935" lon="-7.885307">
        <ele>447.639</ele>
        <time>1970-01-11T01:59:57Z</time>
      </trkpt>
      <trkpt lat="42.401935" lon="-7.885307">
        <ele>447.674</ele>
        <time>1970-01-11T01:59:57Z</time>
      </trkpt>
      <trkpt lat="42.401935" lon="-7.885307">
        <ele>447.622</ele>
        <time>1970-01-11T01:59:57Z</time>
      </trkpt>
      <trkpt lat="42.401935" lon="-7.885307">
        <ele>447.671</ele>
        <time>1970-01-11T01:59:57Z</time>
      </trkpt>
      <trkpt lat="42.401935" lon="-7.885307">
        <ele>447.228</ele>
        <time>1970-01-11T01:59:57Z</time>
      </trkpt>
      <trkpt lat="42.401935" lon="-7.885307">
        <ele>447.889</ele>
        <time>1970-01-11T01:59:57Z</time>
      </trkpt>
      <trkpt lat="42.401935" lon="-7.885307">
        <ele>448.017</ele>
        <time>1970-01-11T01:59:57Z</time>
      </trkpt>
      <trkpt lat="42.401935" lon="-7.885307">
        <ele>448.008</ele>
        <time>1970-01-11T01:59:57Z</time>
      </trkpt>
      <trkpt lat="42.401935" lon="-7.885307">
        <ele>447.653</ele>
        <time>1970-01-11T01:59:57Z</time>
      </trkpt>
      <trkpt lat="42.401932" lon="-7.885306">
        <ele>447.690</ele>
        <time>1970-01-11T01:59:57Z</time>
      </trkpt>
      <trkpt lat="42.401932" lon="-7.885306">
        <ele>447.486</ele>
        <time>1970-01-11T01:59:57Z</time>
      </trkpt>
      <trkpt lat="42.401932" lon="-7.885306">
        <ele>447.444</ele>
        <time>1970-01-11T01:59:57Z</time>
      </trkpt>
      <trkpt lat="42.401932" lon="-7.885306">
        <ele>447.433</ele>
        <time>1970-01-11T01:59:58Z</time>
      </trkpt>
      <trkpt lat="42.401927" lon="-7.885314">
        <ele>447.418</ele>
        <time>1970-01-11T01:59:58Z</time>
      </trkpt>
      <trkpt lat="42.401921" lon="-7.885329">
        <ele>447.496</ele>
        <time>1970-01-11T01:59:58Z</time>
      </trkpt>
      <trkpt lat="42.401921" lon="-7.885329">
        <ele>447.675</ele>
        <time>1970-01-11T01:59:58Z</time>
      </trkpt>
      <trkpt lat="42.401919" lon="-7.885376">
        <ele>447.678</ele>
        <time>1970-01-11T01:59:58Z</time>
      </trkpt>
      <trkpt lat="42.401924" lon="-7.885392">
        <ele>447.833</ele>
        <time>1970-01-11T01:59:58Z</time>
      </trkpt>
      <trkpt lat="42.401936" lon="-7.885403">
        <ele>447.826</ele>
        <time>1970-01-11T01:59:58Z</time>
      </trkpt>
      <trkpt lat="42.401942" lon="-7.885415">
        <ele>448.008</ele>
        <time>1970-01-11T01:59:58Z</time>
      </trkpt>
      <trkpt lat="42.401947" lon="-7.885428">
        <ele>448.058</ele>
        <time>1970-01-11T01:59:58Z</time>
      </trkpt>
      <trkpt lat="42.401953" lon="-7.885448">
        <ele>448.085</ele>
        <time>1970-01-11T01:59:58Z</time>
      </trkpt>
      <trkpt lat="42.401980" lon="-7.885569">
        <ele>448.451</ele>
        <time>1970-01-11T01:59:58Z</time>
      </trkpt>
      <trkpt lat="42.401985" lon="-7.885593">
        <ele>448.469</ele>
        <time>1970-01-11T01:59:58Z</time>
      </trkpt>
      <trkpt lat="42.402014" lon="-7.885727">
        <ele>448.458</ele>
        <time>1970-01-11T01:59:58Z</time>
      </trkpt>
      <trkpt lat="42.402024" lon="-7.885767">
        <ele>448.653</ele>
        <time>1970-01-11T01:59:58Z</time>
      </trkpt>
      <trkpt lat="42.402038" lon="-7.885835">
        <ele>448.851</ele>
        <time>1970-01-11T01:59:58Z</time>
      </trkpt>
      <trkpt lat="42.402053" lon="-7.885895">
        <ele>449.090</ele>
        <time>1970-01-11T01:59:58Z</time>
      </trkpt>
      <trkpt lat="42.402062" lon="-7.885931">
        <ele>449.015</ele>
        <time>1970-01-11T01:59:58Z</time>
      </trkpt>
      <trkpt lat="42.402094" lon="-7.886054">
        <ele>449.465</ele>
        <time>1970-01-11T01:59:58Z</time>
      </trkpt>
      <trkpt lat="42.402108" lon="-7.886136">
        <ele>449.411</ele>
        <time>1970-01-11T01:59:58Z</time>
      </trkpt>
      <trkpt lat="42.402143" lon="-7.886408">
        <ele>449.408</ele>
        <time>1970-01-11T01:59:58Z</time>
      </trkpt>
      <trkpt lat="42.402144" lon="-7.886486">
        <ele>449.642</ele>
        <time>1970-01-11T01:59:58Z</time>
      </trkpt>
      <trkpt lat="42.402139" lon="-7.886634">
        <ele>449.869</ele>
        <time>1970-01-11T01:59:58Z</time>
      </trkpt>
      <trkpt lat="42.402128" lon="-7.886862">
        <ele>449.685</ele>
        <time>1970-01-11T01:59:58Z</time>
      </trkpt>
      <trkpt lat="42.402114" lon="-7.887157">
        <ele>449.453</ele>
        <time>1970-01-11T01:59:58Z</time>
      </trkpt>
      <trkpt lat="42.402127" lon="-7.887367">
        <ele>449.612</ele>
        <time>1970-01-11T01:59:58Z</time>
      </trkpt>
      <trkpt lat="42.402150" lon="-7.887525">
        <ele>449.667</ele>
        <time>1970-01-11T01:59:58Z</time>
      </trkpt>
      <trkpt lat="42.402167" lon="-7.887630">
        <ele>449.645</ele>
        <time>1970-01-11T01:59:58Z</time>
      </trkpt>
      <trkpt lat="42.402202" lon="-7.887856">
        <ele>449.254</ele>
        <time>1970-01-11T01:59:58Z</time>
      </trkpt>
      <trkpt lat="42.402246" lon="-7.888082">
        <ele>449.068</ele>
        <time>1970-01-11T01:59:58Z</time>
      </trkpt>
      <trkpt lat="42.402317" lon="-7.888423">
        <ele>448.842</ele>
        <time>1970-01-11T01:59:58Z</time>
      </trkpt>
      <trkpt lat="42.402329" lon="-7.888555">
        <ele>448.826</ele>
        <time>1970-01-11T01:59:58Z</time>
      </trkpt>
      <trkpt lat="42.402355" lon="-7.888867">
        <ele>448.408</ele>
        <time>1970-01-11T01:59:58Z</time>
      </trkpt>
      <trkpt lat="42.402365" lon="-7.889046">
        <ele>448.017</ele>
        <time>1970-01-11T01:59:58Z</time>
      </trkpt>
      <trkpt lat="42.402388" lon="-7.889319">
        <ele>447.484</ele>
        <time>1970-01-11T01:59:58Z</time>
      </trkpt>
      <trkpt lat="42.402407" lon="-7.889501">
        <ele>446.470</ele>
        <time>1970-01-11T01:59:58Z</time>
      </trkpt>
      <trkpt lat="42.402410" lon="-7.889585">
        <ele>445.848</ele>
        <time>1970-01-11T01:59:58Z</time>
      </trkpt>
      <trkpt lat="42.402410" lon="-7.889832">
        <ele>444.617</ele>
        <time>1970-01-11T01:59:58Z</time>
      </trkpt>
      <trkpt lat="42.402399" lon="-7.889917">
        <ele>444.222</ele>
        <time>1970-01-11T01:59:58Z</time>
      </trkpt>
      <trkpt lat="42.402353" lon="-7.890068">
        <ele>443.490</ele>
        <time>1970-01-11T01:59:58Z</time>
      </trkpt>
      <trkpt lat="42.402314" lon="-7.890143">
        <ele>443.299</ele>
        <time>1970-01-11T01:59:58Z</time>
      </trkpt>
      <trkpt lat="42.402270" lon="-7.890214">
        <ele>443.042</ele>
        <time>1970-01-11T01:59:58Z</time>
      </trkpt>
      <trkpt lat="42.402170" lon="-7.890341">
        <ele>442.222</ele>
        <time>1970-01-11T01:59:58Z</time>
      </trkpt>
      <trkpt lat="42.402107" lon="-7.890375">
        <ele>441.814</ele>
        <time>1970-01-11T01:59:58Z</time>
      </trkpt>
      <trkpt lat="42.402001" lon="-7.890441">
        <ele>441.208</ele>
        <time>1970-01-11T01:59:58Z</time>
      </trkpt>
      <trkpt lat="42.401961" lon="-7.890486">
        <ele>441.015</ele>
        <time>1970-01-11T01:59:58Z</time>
      </trkpt>
      <trkpt lat="42.401912" lon="-7.890668">
        <ele>440.492</ele>
        <time>1970-01-11T01:59:58Z</time>
      </trkpt>
      <trkpt lat="42.401929" lon="-7.890841">
        <ele>440.438</ele>
        <time>1970-01-11T01:59:58Z</time>
      </trkpt>
      <trkpt lat="42.401941" lon="-7.890951">
        <ele>440.476</ele>
        <time>1970-01-11T01:59:58Z</time>
      </trkpt>
      <trkpt lat="42.401950" lon="-7.891058">
        <ele>440.495</ele>
        <time>1970-01-11T01:59:58Z</time>
      </trkpt>
      <trkpt lat="42.401952" lon="-7.891170">
        <ele>440.440</ele>
        <time>1970-01-11T01:59:58Z</time>
      </trkpt>
      <trkpt lat="42.401947" lon="-7.891234">
        <ele>440.678</ele>
        <time>1970-01-11T01:59:58Z</time>
      </trkpt>
      <trkpt lat="42.401939" lon="-7.891297">
        <ele>440.647</ele>
        <time>1970-01-11T01:59:58Z</time>
      </trkpt>
      <trkpt lat="42.401914" lon="-7.891415">
        <ele>441.072</ele>
        <time>1970-01-11T01:59:58Z</time>
      </trkpt>
      <trkpt lat="42.401896" lon="-7.891469">
        <ele>441.213</ele>
        <time>1970-01-11T01:59:58Z</time>
      </trkpt>
      <trkpt lat="42.401876" lon="-7.891520">
        <ele>441.414</ele>
        <time>1970-01-11T01:59:58Z</time>
      </trkpt>
      <trkpt lat="42.401855" lon="-7.891569">
        <ele>441.608</ele>
        <time>1970-01-11T01:59:58Z</time>
      </trkpt>
      <trkpt lat="42.401789" lon="-7.891704">
        <ele>442.238</ele>
        <time>1970-01-11T01:59:58Z</time>
      </trkpt>
      <trkpt lat="42.401720" lon="-7.891882">
        <ele>443.285</ele>
        <time>1970-01-11T01:59:58Z</time>
      </trkpt>
      <trkpt lat="42.401686" lon="-7.891917">
        <ele>443.281</ele>
        <time>1970-01-11T01:59:58Z</time>
      </trkpt>
      <trkpt lat="42.401582" lon="-7.892054">
        <ele>443.249</ele>
        <time>1970-01-11T01:59:58Z</time>
      </trkpt>
      <trkpt lat="42.401374" lon="-7.892400">
        <ele>441.428</ele>
        <time>1970-01-11T01:59:58Z</time>
      </trkpt>
      <trkpt lat="42.401305" lon="-7.892516">
        <ele>441.243</ele>
        <time>1970-01-11T01:59:58Z</time>
      </trkpt>
      <trkpt lat="42.401121" lon="-7.892833">
        <ele>440.891</ele>
        <time>1970-01-11T01:59:58Z</time>
      </trkpt>
      <trkpt lat="42.400956" lon="-7.892951">
        <ele>440.420</ele>
        <time>1970-01-11T01:59:58Z</time>
      </trkpt>
      <trkpt lat="42.400898" lon="-7.892974">
        <ele>440.297</ele>
        <time>1970-01-11T01:59:58Z</time>
      </trkpt>
      <trkpt lat="42.400839" lon="-7.892995">
        <ele>440.023</ele>
        <time>1970-01-11T01:59:58Z</time>
      </trkpt>
      <trkpt lat="42.400587" lon="-7.893092">
        <ele>439.425</ele>
        <time>1970-01-11T01:59:58Z</time>
      </trkpt>
      <trkpt lat="42.400404" lon="-7.893146">
        <ele>439.008</ele>
        <time>1970-01-11T01:59:58Z</time>
      </trkpt>
      <trkpt lat="42.400345" lon="-7.893173">
        <ele>438.810</ele>
        <time>1970-01-11T01:59:58Z</time>
      </trkpt>
      <trkpt lat="42.400160" lon="-7.893263">
        <ele>437.877</ele>
        <time>1970-01-11T01:59:58Z</time>
      </trkpt>
      <trkpt lat="42.400090" lon="-7.893330">
        <ele>437.633</ele>
        <time>1970-01-11T01:59:58Z</time>
      </trkpt>
      <trkpt lat="42.399974" lon="-7.893495">
        <ele>437.061</ele>
        <time>1970-01-11T01:59:58Z</time>
      </trkpt>
      <trkpt lat="42.399930" lon="-7.893582">
        <ele>436.610</ele>
        <time>1970-01-11T01:59:58Z</time>
      </trkpt>
      <trkpt lat="42.399863" lon="-7.893763">
        <ele>436.495</ele>
        <time>1970-01-11T01:59:58Z</time>
      </trkpt>
      <trkpt lat="42.399833" lon="-7.893855">
        <ele>436.213</ele>
        <time>1970-01-11T01:59:58Z</time>
      </trkpt>
      <trkpt lat="42.399693" lon="-7.894279">
        <ele>435.412</ele>
        <time>1970-01-11T01:59:58Z</time>
      </trkpt>
      <trkpt lat="42.399636" lon="-7.894435">
        <ele>435.048</ele>
        <time>1970-01-11T01:59:58Z</time>
      </trkpt>
      <trkpt lat="42.399543" lon="-7.894706">
        <ele>435.061</ele>
        <time>1970-01-11T01:59:58Z</time>
      </trkpt>
      <trkpt lat="42.399497" lon="-7.894830">
        <ele>435.017</ele>
        <time>1970-01-11T01:59:58Z</time>
      </trkpt>
      <trkpt lat="42.399495" lon="-7.894943">
        <ele>435.208</ele>
        <time>1970-01-11T01:59:58Z</time>
      </trkpt>
      <trkpt lat="42.399512" lon="-7.894994">
        <ele>435.275</ele>
        <time>1970-01-11T01:59:58Z</time>
      </trkpt>
      <trkpt lat="42.399602" lon="-7.895095">
        <ele>435.442</ele>
        <time>1970-01-11T01:59:58Z</time>
      </trkpt>
      <trkpt lat="42.399638" lon="-7.895126">
        <ele>435.438</ele>
        <time>1970-01-11T01:59:58Z</time>
      </trkpt>
      <trkpt lat="42.399678" lon="-7.895168">
        <ele>435.446</ele>
        <time>1970-01-11T01:59:58Z</time>
      </trkpt>
      <trkpt lat="42.399713" lon="-7.895208">
        <ele>435.615</ele>
        <time>1970-01-11T01:59:58Z</time>
      </trkpt>
      <trkpt lat="42.399778" lon="-7.895292">
        <ele>435.650</ele>
        <time>1970-01-11T01:59:58Z</time>
      </trkpt>
      <trkpt lat="42.399807" lon="-7.895332">
        <ele>435.698</ele>
        <time>1970-01-11T01:59:58Z</time>
      </trkpt>
      <trkpt lat="42.399862" lon="-7.895406">
        <ele>435.827</ele>
        <time>1970-01-11T01:59:58Z</time>
      </trkpt>
      <trkpt lat="42.399945" lon="-7.895530">
        <ele>436.419</ele>
        <time>1970-01-11T01:59:58Z</time>
      </trkpt>
      <trkpt lat="42.400008" lon="-7.895612">
        <ele>437.209</ele>
        <time>1970-01-11T01:59:58Z</time>
      </trkpt>
      <trkpt lat="42.400143" lon="-7.895738">
        <ele>437.619</ele>
        <time>1970-01-11T01:59:58Z</time>
      </trkpt>
      <trkpt lat="42.400302" lon="-7.895854">
        <ele>438.408</ele>
        <time>1970-01-11T01:59:58Z</time>
      </trkpt>
      <trkpt lat="42.400332" lon="-7.895882">
        <ele>438.452</ele>
        <time>1970-01-11T01:59:58Z</time>
      </trkpt>
      <trkpt lat="42.400362" lon="-7.895908">
        <ele>438.669</ele>
        <time>1970-01-11T01:59:58Z</time>
      </trkpt>
      <trkpt lat="42.400561" lon="-7.896072">
        <ele>439.235</ele>
        <time>1970-01-11T01:59:58Z</time>
      </trkpt>
      <trkpt lat="42.400618" lon="-7.896111">
        <ele>439.823</ele>
        <time>1970-01-11T01:59:58Z</time>
      </trkpt>
      <trkpt lat="42.400730" lon="-7.896183">
        <ele>440.672</ele>
        <time>1970-01-11T01:59:58Z</time>
      </trkpt>
      <trkpt lat="42.400776" lon="-7.896224">
        <ele>440.827</ele>
        <time>1970-01-11T01:59:58Z</time>
      </trkpt>
      <trkpt lat="42.400886" lon="-7.896286">
        <ele>441.825</ele>
        <time>1970-01-11T01:59:58Z</time>
      </trkpt>
      <trkpt lat="42.400908" lon="-7.896305">
        <ele>442.024</ele>
        <time>1970-01-11T01:59:58Z</time>
      </trkpt>
      <trkpt lat="42.401027" lon="-7.896414">
        <ele>442.847</ele>
        <time>1970-01-11T01:59:58Z</time>
      </trkpt>
      <trkpt lat="42.401054" lon="-7.896433">
        <ele>443.029</ele>
        <time>1970-01-11T01:59:58Z</time>
      </trkpt>
      <trkpt lat="42.401083" lon="-7.896446">
        <ele>443.221</ele>
        <time>1970-01-11T01:59:58Z</time>
      </trkpt>
      <trkpt lat="42.401161" lon="-7.896444">
        <ele>443.608</ele>
        <time>1970-01-11T01:59:58Z</time>
      </trkpt>
      <trkpt lat="42.401247" lon="-7.896399">
        <ele>444.235</ele>
        <time>1970-01-11T01:59:58Z</time>
      </trkpt>
      <trkpt lat="42.401335" lon="-7.896340">
        <ele>444.292</ele>
        <time>1970-01-11T01:59:58Z</time>
      </trkpt>
      <trkpt lat="42.401498" lon="-7.896208">
        <ele>445.048</ele>
        <time>1970-01-11T01:59:58Z</time>
      </trkpt>
      <trkpt lat="42.401735" lon="-7.896081">
        <ele>445.096</ele>
        <time>1970-01-11T01:59:58Z</time>
      </trkpt>
      <trkpt lat="42.401819" lon="-7.896066">
        <ele>445.275</ele>
        <time>1970-01-11T01:59:58Z</time>
      </trkpt>
      <trkpt lat="42.402010" lon="-7.896075">
        <ele>446.030</ele>
        <time>1970-01-11T01:59:58Z</time>
      </trkpt>
      <trkpt lat="42.402207" lon="-7.896090">
        <ele>446.218</ele>
        <time>1970-01-11T01:59:58Z</time>
      </trkpt>
      <trkpt lat="42.402246" lon="-7.896089">
        <ele>446.267</ele>
        <time>1970-01-11T01:59:58Z</time>
      </trkpt>
      <trkpt lat="42.402462" lon="-7.896102">
        <ele>446.689</ele>
        <time>1970-01-11T01:59:58Z</time>
      </trkpt>
      <trkpt lat="42.402651" lon="-7.896119">
        <ele>447.406</ele>
        <time>1970-01-11T01:59:58Z</time>
      </trkpt>
      <trkpt lat="42.402678" lon="-7.896118">
        <ele>447.826</ele>
        <time>1970-01-11T01:59:58Z</time>
      </trkpt>
      <trkpt lat="42.402757" lon="-7.896134">
        <ele>448.608</ele>
        <time>1970-01-11T01:59:58Z</time>
      </trkpt>
      <trkpt lat="42.402840" lon="-7.896171">
        <ele>448.879</ele>
        <time>1970-01-11T01:59:58Z</time>
      </trkpt>
      <trkpt lat="42.403022" lon="-7.896276">
        <ele>449.686</ele>
        <time>1970-01-11T01:59:58Z</time>
      </trkpt>
      <trkpt lat="42.403196" lon="-7.896404">
        <ele>450.082</ele>
        <time>1970-01-11T01:59:58Z</time>
      </trkpt>
      <trkpt lat="42.403425" lon="-7.896435">
        <ele>450.450</ele>
        <time>1970-01-11T01:59:58Z</time>
      </trkpt>
      <trkpt lat="42.403588" lon="-7.896456">
        <ele>450.659</ele>
        <time>1970-01-11T01:59:58Z</time>
      </trkpt>
      <trkpt lat="42.403755" lon="-7.896487">
        <ele>451.494</ele>
        <time>1970-01-11T01:59:58Z</time>
      </trkpt>
      <trkpt lat="42.403867" lon="-7.896503">
        <ele>451.682</ele>
        <time>1970-01-11T01:59:58Z</time>
      </trkpt>
      <trkpt lat="42.403997" lon="-7.896512">
        <ele>452.221</ele>
        <time>1970-01-11T01:59:58Z</time>
      </trkpt>
      <trkpt lat="42.404134" lon="-7.896490">
        <ele>452.824</ele>
        <time>1970-01-11T01:59:58Z</time>
      </trkpt>
      <trkpt lat="42.404209" lon="-7.896469">
        <ele>453.004</ele>
        <time>1970-01-11T01:59:58Z</time>
      </trkpt>
      <trkpt lat="42.404494" lon="-7.896404">
        <ele>453.214</ele>
        <time>1970-01-11T01:59:58Z</time>
      </trkpt>
      <trkpt lat="42.404766" lon="-7.896297">
        <ele>453.608</ele>
        <time>1970-01-11T01:59:58Z</time>
      </trkpt>
      <trkpt lat="42.404972" lon="-7.896225">
        <ele>454.093</ele>
        <time>1970-01-11T01:59:58Z</time>
      </trkpt>
      <trkpt lat="42.405063" lon="-7.896195">
        <ele>454.820</ele>
        <time>1970-01-11T01:59:58Z</time>
      </trkpt>
      <trkpt lat="42.405149" lon="-7.896172">
        <ele>455.016</ele>
        <time>1970-01-11T01:59:58Z</time>
      </trkpt>
      <trkpt lat="42.405328" lon="-7.896167">
        <ele>455.884</ele>
        <time>1970-01-11T01:59:58Z</time>
      </trkpt>
      <trkpt lat="42.405366" lon="-7.896178">
        <ele>456.013</ele>
        <time>1970-01-11T01:59:58Z</time>
      </trkpt>
      <trkpt lat="42.405521" lon="-7.896251">
        <ele>457.238</ele>
        <time>1970-01-11T01:59:58Z</time>
      </trkpt>
      <trkpt lat="42.405560" lon="-7.896271">
        <ele>457.286</ele>
        <time>1970-01-11T01:59:58Z</time>
      </trkpt>
      <trkpt lat="42.405975" lon="-7.896464">
        <ele>458.065</ele>
        <time>1970-01-11T01:59:58Z</time>
      </trkpt>
      <trkpt lat="42.406015" lon="-7.896482">
        <ele>458.274</ele>
        <time>1970-01-11T01:59:58Z</time>
      </trkpt>
      <trkpt lat="42.406275" lon="-7.896603">
        <ele>458.856</ele>
        <time>1970-01-11T01:59:58Z</time>
      </trkpt>
      <trkpt lat="42.406355" lon="-7.896647">
        <ele>459.021</ele>
        <time>1970-01-11T01:59:58Z</time>
      </trkpt>
      <trkpt lat="42.406471" lon="-7.896733">
        <ele>459.208</ele>
        <time>1970-01-11T01:59:58Z</time>
      </trkpt>
      <trkpt lat="42.406624" lon="-7.896902">
        <ele>459.478</ele>
        <time>1970-01-11T01:59:58Z</time>
      </trkpt>
      <trkpt lat="42.406820" lon="-7.897146">
        <ele>458.655</ele>
        <time>1970-01-11T01:59:58Z</time>
      </trkpt>
      <trkpt lat="42.406898" lon="-7.897238">
        <ele>458.231</ele>
        <time>1970-01-11T01:59:58Z</time>
      </trkpt>
      <trkpt lat="42.406937" lon="-7.897285">
        <ele>458.069</ele>
        <time>1970-01-11T01:59:58Z</time>
      </trkpt>
      <trkpt lat="42.407145" lon="-7.897524">
        <ele>457.498</ele>
        <time>1970-01-11T01:59:58Z</time>
      </trkpt>
      <trkpt lat="42.407234" lon="-7.897621">
        <ele>457.233</ele>
        <time>1970-01-11T01:59:58Z</time>
      </trkpt>
      <trkpt lat="42.407277" lon="-7.897671">
        <ele>457.051</ele>
        <time>1970-01-11T01:59:58Z</time>
      </trkpt>
      <trkpt lat="42.407320" lon="-7.897722">
        <ele>457.080</ele>
        <time>1970-01-11T01:59:58Z</time>
      </trkpt>
      <trkpt lat="42.407409" lon="-7.897823">
        <ele>456.845</ele>
        <time>1970-01-11T01:59:58Z</time>
      </trkpt>
      <trkpt lat="42.407498" lon="-7.897928">
        <ele>456.447</ele>
        <time>1970-01-11T01:59:58Z</time>
      </trkpt>
      <trkpt lat="42.407587" lon="-7.898032">
        <ele>456.211</ele>
        <time>1970-01-11T01:59:58Z</time>
      </trkpt>
      <trkpt lat="42.407674" lon="-7.898144">
        <ele>456.008</ele>
        <time>1970-01-11T01:59:58Z</time>
      </trkpt>
      <trkpt lat="42.407720" lon="-7.898201">
        <ele>456.045</ele>
        <time>1970-01-11T01:59:58Z</time>
      </trkpt>
      <trkpt lat="42.407858" lon="-7.898374">
        <ele>455.662</ele>
        <time>1970-01-11T01:59:58Z</time>
      </trkpt>
      <trkpt lat="42.407955" lon="-7.898484">
        <ele>455.458</ele>
        <time>1970-01-11T01:59:58Z</time>
      </trkpt>
      <trkpt lat="42.408003" lon="-7.898539">
        <ele>455.236</ele>
        <time>1970-01-11T01:59:58Z</time>
      </trkpt>
      <trkpt lat="42.408097" lon="-7.898645">
        <ele>455.055</ele>
        <time>1970-01-11T01:59:58Z</time>
      </trkpt>
      <trkpt lat="42.408195" lon="-7.898753">
        <ele>454.650</ele>
        <time>1970-01-11T01:59:58Z</time>
      </trkpt>
      <trkpt lat="42.408437" lon="-7.899020">
        <ele>454.048</ele>
        <time>1970-01-11T01:59:58Z</time>
      </trkpt>
      <trkpt lat="42.408624" lon="-7.899233">
        <ele>454.687</ele>
        <time>1970-01-11T01:59:58Z</time>
      </trkpt>
      <trkpt lat="42.408704" lon="-7.899345">
        <ele>454.695</ele>
        <time>1970-01-11T01:59:58Z</time>
      </trkpt>
      <trkpt lat="42.408734" lon="-7.899408">
        <ele>454.649</ele>
        <time>1970-01-11T01:59:58Z</time>
      </trkpt>
      <trkpt lat="42.408778" lon="-7.899553">
        <ele>454.223</ele>
        <time>1970-01-11T01:59:58Z</time>
      </trkpt>
      <trkpt lat="42.408781" lon="-7.899693">
        <ele>454.208</ele>
        <time>1970-01-11T01:59:58Z</time>
      </trkpt>
      <trkpt lat="42.408781" lon="-7.899763">
        <ele>454.220</ele>
        <time>1970-01-11T01:59:58Z</time>
      </trkpt>
      <trkpt lat="42.408773" lon="-7.899898">
        <ele>454.287</ele>
        <time>1970-01-11T01:59:58Z</time>
      </trkpt>
      <trkpt lat="42.408750" lon="-7.900083">
        <ele>454.423</ele>
        <time>1970-01-11T01:59:58Z</time>
      </trkpt>
      <trkpt lat="42.408747" lon="-7.900151">
        <ele>454.481</ele>
        <time>1970-01-11T01:59:58Z</time>
      </trkpt>
      <trkpt lat="42.408720" lon="-7.900486">
        <ele>454.630</ele>
        <time>1970-01-11T01:59:58Z</time>
      </trkpt>
      <trkpt lat="42.408698" lon="-7.900901">
        <ele>453.875</ele>
        <time>1970-01-11T01:59:58Z</time>
      </trkpt>
      <trkpt lat="42.408692" lon="-7.900972">
        <ele>453.843</ele>
        <time>1970-01-11T01:59:58Z</time>
      </trkpt>
      <trkpt lat="42.408680" lon="-7.901200">
        <ele>453.622</ele>
        <time>1970-01-11T01:59:58Z</time>
      </trkpt>
      <trkpt lat="42.408670" lon="-7.901451">
        <ele>453.068</ele>
        <time>1970-01-11T01:59:58Z</time>
      </trkpt>
      <trkpt lat="42.408668" lon="-7.901538">
        <ele>452.842</ele>
        <time>1970-01-11T01:59:58Z</time>
      </trkpt>
      <trkpt lat="42.408647" lon="-7.901892">
        <ele>451.826</ele>
        <time>1970-01-11T01:59:58Z</time>
      </trkpt>
      <trkpt lat="42.408642" lon="-7.902168">
        <ele>450.408</ele>
        <time>1970-01-11T01:59:58Z</time>
      </trkpt>
      <trkpt lat="42.408639" lon="-7.902367">
        <ele>449.637</ele>
        <time>1970-01-11T01:59:58Z</time>
      </trkpt>
      <trkpt lat="42.408635" lon="-7.902467">
        <ele>449.234</ele>
        <time>1970-01-11T01:59:58Z</time>
      </trkpt>
      <trkpt lat="42.408632" lon="-7.902681">
        <ele>448.480</ele>
        <time>1970-01-11T01:59:58Z</time>
      </trkpt>
      <trkpt lat="42.408643" lon="-7.902793">
        <ele>448.238</ele>
        <time>1970-01-11T01:59:58Z</time>
      </trkpt>
      <trkpt lat="42.408724" lon="-7.903128">
        <ele>446.087</ele>
        <time>1970-01-11T01:59:58Z</time>
      </trkpt>
      <trkpt lat="42.408755" lon="-7.903239">
        <ele>445.692</ele>
        <time>1970-01-11T01:59:58Z</time>
      </trkpt>
      <trkpt lat="42.408813" lon="-7.903458">
        <ele>445.080</ele>
        <time>1970-01-11T01:59:58Z</time>
      </trkpt>
      <trkpt lat="42.408832" lon="-7.903568">
        <ele>444.619</ele>
        <time>1970-01-11T01:59:58Z</time>
      </trkpt>
      <trkpt lat="42.408839" lon="-7.903677">
        <ele>444.078</ele>
        <time>1970-01-11T01:59:58Z</time>
      </trkpt>
      <trkpt lat="42.408831" lon="-7.903788">
        <ele>443.633</ele>
        <time>1970-01-11T01:59:58Z</time>
      </trkpt>
      <trkpt lat="42.408742" lon="-7.904179">
        <ele>442.426</ele>
        <time>1970-01-11T01:59:58Z</time>
      </trkpt>
      <trkpt lat="42.408716" lon="-7.904272">
        <ele>441.808</ele>
        <time>1970-01-11T01:59:58Z</time>
      </trkpt>
      <trkpt lat="42.408691" lon="-7.904364">
        <ele>441.678</ele>
        <time>1970-01-11T01:59:58Z</time>
      </trkpt>
      <trkpt lat="42.408665" lon="-7.904452">
        <ele>441.285</ele>
        <time>1970-01-11T01:59:58Z</time>
      </trkpt>
      <trkpt lat="42.408637" lon="-7.904597">
        <ele>441.081</ele>
        <time>1970-01-11T01:59:58Z</time>
      </trkpt>
      <trkpt lat="42.408687" lon="-7.904717">
        <ele>440.839</ele>
        <time>1970-01-11T01:59:58Z</time>
      </trkpt>
      <trkpt lat="42.408726" lon="-7.904759">
        <ele>440.658</ele>
        <time>1970-01-11T01:59:58Z</time>
      </trkpt>
      <trkpt lat="42.408814" lon="-7.904826">
        <ele>440.243</ele>
        <time>1970-01-11T01:59:58Z</time>
      </trkpt>
      <trkpt lat="42.408921" lon="-7.904887">
        <ele>439.861</ele>
        <time>1970-01-11T01:59:58Z</time>
      </trkpt>
      <trkpt lat="42.408983" lon="-7.904919">
        <ele>439.410</ele>
        <time>1970-01-11T01:59:58Z</time>
      </trkpt>
      <trkpt lat="42.409048" lon="-7.904944">
        <ele>438.482</ele>
        <time>1970-01-11T01:59:58Z</time>
      </trkpt>
      <trkpt lat="42.409286" lon="-7.904997">
        <ele>437.243</ele>
        <time>1970-01-11T01:59:58Z</time>
      </trkpt>
      <trkpt lat="42.409465" lon="-7.904992">
        <ele>436.217</ele>
        <time>1970-01-11T01:59:58Z</time>
      </trkpt>
      <trkpt lat="42.409641" lon="-7.905004">
        <ele>435.008</ele>
        <time>1970-01-11T01:59:58Z</time>
      </trkpt>
      <trkpt lat="42.409722" lon="-7.905013">
        <ele>434.619</ele>
        <time>1970-01-11T01:59:58Z</time>
      </trkpt>
      <trkpt lat="42.409795" lon="-7.905024">
        <ele>433.696</ele>
        <time>1970-01-11T01:59:58Z</time>
      </trkpt>
      <trkpt lat="42.409821" lon="-7.905035">
        <ele>432.022</ele>
        <time>1970-01-11T01:59:58Z</time>
      </trkpt>
      <trkpt lat="42.409829" lon="-7.905042">
        <ele>430.840</ele>
        <time>1970-01-11T01:59:58Z</time>
      </trkpt>
      <trkpt lat="42.409830" lon="-7.905047">
        <ele>429.869</ele>
        <time>1970-01-11T01:59:58Z</time>
      </trkpt>
      <trkpt lat="42.409821" lon="-7.905053">
        <ele>428.844</ele>
        <time>1970-01-11T01:59:58Z</time>
      </trkpt>
      <trkpt lat="42.409806" lon="-7.905051">
        <ele>428.292</ele>
        <time>1970-01-11T01:59:58Z</time>
      </trkpt>
      <trkpt lat="42.409792" lon="-7.905068">
        <ele>427.811</ele>
        <time>1970-01-11T01:59:58Z</time>
      </trkpt>
      <trkpt lat="42.409768" lon="-7.905112">
        <ele>427.665</ele>
        <time>1970-01-11T01:59:58Z</time>
      </trkpt>
      <trkpt lat="42.409760" lon="-7.905146">
        <ele>427.668</ele>
        <time>1970-01-11T01:59:58Z</time>
      </trkpt>
      <trkpt lat="42.409738" lon="-7.905224">
        <ele>427.814</ele>
        <time>1970-01-11T01:59:58Z</time>
      </trkpt>
      <trkpt lat="42.409728" lon="-7.905271">
        <ele>427.808</ele>
        <time>1970-01-11T01:59:58Z</time>
      </trkpt>
      <trkpt lat="42.409709" lon="-7.905363">
        <ele>428.097</ele>
        <time>1970-01-11T01:59:58Z</time>
      </trkpt>
      <trkpt lat="42.409683" lon="-7.905521">
        <ele>428.444</ele>
        <time>1970-01-11T01:59:58Z</time>
      </trkpt>
      <trkpt lat="42.409654" lon="-7.905706">
        <ele>428.640</ele>
        <time>1970-01-11T01:59:58Z</time>
      </trkpt>
      <trkpt lat="42.409613" lon="-7.905882">
        <ele>429.068</ele>
        <time>1970-01-11T01:59:58Z</time>
      </trkpt>
      <trkpt lat="42.409557" lon="-7.906058">
        <ele>429.097</ele>
        <time>1970-01-11T01:59:58Z</time>
      </trkpt>
      <trkpt lat="42.409483" lon="-7.906230">
        <ele>428.842</ele>
        <time>1970-01-11T01:59:58Z</time>
      </trkpt>
      <trkpt lat="42.409461" lon="-7.906288">
        <ele>428.650</ele>
        <time>1970-01-11T01:59:58Z</time>
      </trkpt>
      <trkpt lat="42.409344" lon="-7.906661">
        <ele>427.689</ele>
        <time>1970-01-11T01:59:58Z</time>
      </trkpt>
      <trkpt lat="42.409328" lon="-7.906727">
        <ele>427.499</ele>
        <time>1970-01-11T01:59:58Z</time>
      </trkpt>
      <trkpt lat="42.409310" lon="-7.906859">
        <ele>427.207</ele>
        <time>1970-01-11T01:59:58Z</time>
      </trkpt>
      <trkpt lat="42.409306" lon="-7.906995">
        <ele>426.827</ele>
        <time>1970-01-11T01:59:58Z</time>
      </trkpt>
      <trkpt lat="42.409314" lon="-7.907063">
        <ele>426.808</ele>
        <time>1970-01-11T01:59:58Z</time>
      </trkpt>
      <trkpt lat="42.409365" lon="-7.907267">
        <ele>426.460</ele>
        <time>1970-01-11T01:59:58Z</time>
      </trkpt>
      <trkpt lat="42.409400" lon="-7.907428">
        <ele>426.257</ele>
        <time>1970-01-11T01:59:58Z</time>
      </trkpt>
      <trkpt lat="42.409491" lon="-7.907877">
        <ele>425.213</ele>
        <time>1970-01-11T01:59:58Z</time>
      </trkpt>
      <trkpt lat="42.409517" lon="-7.908049">
        <ele>424.631</ele>
        <time>1970-01-11T01:59:58Z</time>
      </trkpt>
      <trkpt lat="42.409524" lon="-7.908298">
        <ele>423.830</ele>
        <time>1970-01-11T01:59:58Z</time>
      </trkpt>
      <trkpt lat="42.409500" lon="-7.908464">
        <ele>423.035</ele>
        <time>1970-01-11T01:59:58Z</time>
      </trkpt>
      <trkpt lat="42.409485" lon="-7.908545">
        <ele>422.863</ele>
        <time>1970-01-11T01:59:58Z</time>
      </trkpt>
      <trkpt lat="42.409465" lon="-7.908717">
        <ele>422.252</ele>
        <time>1970-01-11T01:59:58Z</time>
      </trkpt>
      <trkpt lat="42.409490" lon="-7.908893">
        <ele>422.065</ele>
        <time>1970-01-11T01:59:58Z</time>
      </trkpt>
      <trkpt lat="42.409512" lon="-7.908975">
        <ele>421.668</ele>
        <time>1970-01-11T01:59:58Z</time>
      </trkpt>
      <trkpt lat="42.409536" lon="-7.909058">
        <ele>421.414</ele>
        <time>1970-01-11T01:59:58Z</time>
      </trkpt>
      <trkpt lat="42.409587" lon="-7.909217">
        <ele>421.008</ele>
        <time>1970-01-11T01:59:58Z</time>
      </trkpt>
      <trkpt lat="42.409612" lon="-7.909296">
        <ele>421.027</ele>
        <time>1970-01-11T01:59:58Z</time>
      </trkpt>
      <trkpt lat="42.409631" lon="-7.909374">
        <ele>420.824</ele>
        <time>1970-01-11T01:59:58Z</time>
      </trkpt>
      <trkpt lat="42.409649" lon="-7.909526">
        <ele>420.420</ele>
        <time>1970-01-11T01:59:58Z</time>
      </trkpt>
      <trkpt lat="42.409642" lon="-7.909601">
        <ele>420.248</ele>
        <time>1970-01-11T01:59:58Z</time>
      </trkpt>
      <trkpt lat="42.409622" lon="-7.909684">
        <ele>420.227</ele>
        <time>1970-01-11T01:59:58Z</time>
      </trkpt>
      <trkpt lat="42.409567" lon="-7.909952">
        <ele>419.672</ele>
        <time>1970-01-11T01:59:58Z</time>
      </trkpt>
      <trkpt lat="42.409553" lon="-7.910139">
        <ele>419.460</ele>
        <time>1970-01-11T01:59:58Z</time>
      </trkpt>
      <trkpt lat="42.409554" lon="-7.910346">
        <ele>419.499</ele>
        <time>1970-01-11T01:59:58Z</time>
      </trkpt>
      <trkpt lat="42.409549" lon="-7.910543">
        <ele>419.496</ele>
        <time>1970-01-11T01:59:58Z</time>
      </trkpt>
      <trkpt lat="42.409546" lon="-7.910728">
        <ele>419.231</ele>
        <time>1970-01-11T01:59:58Z</time>
      </trkpt>
      <trkpt lat="42.409559" lon="-7.910917">
        <ele>419.224</ele>
        <time>1970-01-11T01:59:58Z</time>
      </trkpt>
      <trkpt lat="42.409596" lon="-7.911201">
        <ele>419.208</ele>
        <time>1970-01-11T01:59:58Z</time>
      </trkpt>
      <trkpt lat="42.409607" lon="-7.911293">
        <ele>419.220</ele>
        <time>1970-01-11T01:59:58Z</time>
      </trkpt>
      <trkpt lat="42.409633" lon="-7.911461">
        <ele>419.097</ele>
        <time>1970-01-11T01:59:58Z</time>
      </trkpt>
      <trkpt lat="42.409697" lon="-7.911563">
        <ele>419.073</ele>
        <time>1970-01-11T01:59:58Z</time>
      </trkpt>
      <trkpt lat="42.409839" lon="-7.911621">
        <ele>418.851</ele>
        <time>1970-01-11T01:59:58Z</time>
      </trkpt>
      <trkpt lat="42.409944" lon="-7.911677">
        <ele>418.850</ele>
        <time>1970-01-11T01:59:58Z</time>
      </trkpt>
      <trkpt lat="42.410130" lon="-7.911768">
        <ele>418.455</ele>
        <time>1970-01-11T01:59:58Z</time>
      </trkpt>
      <trkpt lat="42.410322" lon="-7.911912">
        <ele>417.833</ele>
        <time>1970-01-11T01:59:58Z</time>
      </trkpt>
      <trkpt lat="42.410373" lon="-7.911992">
        <ele>417.472</ele>
        <time>1970-01-11T01:59:58Z</time>
      </trkpt>
      <trkpt lat="42.410419" lon="-7.912079">
        <ele>417.011</ele>
        <time>1970-01-11T01:59:58Z</time>
      </trkpt>
      <trkpt lat="42.410507" lon="-7.912254">
        <ele>415.821</ele>
        <time>1970-01-11T01:59:58Z</time>
      </trkpt>
      <trkpt lat="42.410594" lon="-7.912432">
        <ele>415.003</ele>
        <time>1970-01-11T01:59:58Z</time>
      </trkpt>
      <trkpt lat="42.410633" lon="-7.912534">
        <ele>414.608</ele>
        <time>1970-01-11T01:59:58Z</time>
      </trkpt>
      <trkpt lat="42.410704" lon="-7.912765">
        <ele>414.082</ele>
        <time>1970-01-11T01:59:58Z</time>
      </trkpt>
      <trkpt lat="42.410744" lon="-7.912878">
        <ele>413.469</ele>
        <time>1970-01-11T01:59:58Z</time>
      </trkpt>
      <trkpt lat="42.410825" lon="-7.913114">
        <ele>412.065</ele>
        <time>1970-01-11T01:59:58Z</time>
      </trkpt>
      <trkpt lat="42.410911" lon="-7.913345">
        <ele>411.083</ele>
        <time>1970-01-11T01:59:58Z</time>
      </trkpt>
      <trkpt lat="42.410971" lon="-7.913452">
        <ele>410.492</ele>
        <time>1970-01-11T01:59:58Z</time>
      </trkpt>
      <trkpt lat="42.411031" lon="-7.913551">
        <ele>409.697</ele>
        <time>1970-01-11T01:59:58Z</time>
      </trkpt>
      <trkpt lat="42.411158" lon="-7.913767">
        <ele>408.465</ele>
        <time>1970-01-11T01:59:58Z</time>
      </trkpt>
      <trkpt lat="42.411291" lon="-7.914004">
        <ele>407.044</ele>
        <time>1970-01-11T01:59:58Z</time>
      </trkpt>
      <trkpt lat="42.411427" lon="-7.914261">
        <ele>405.261</ele>
        <time>1970-01-11T01:59:58Z</time>
      </trkpt>
      <trkpt lat="42.411560" lon="-7.914508">
        <ele>403.421</ele>
        <time>1970-01-11T01:59:58Z</time>
      </trkpt>
      <trkpt lat="42.411621" lon="-7.914630">
        <ele>402.613</ele>
        <time>1970-01-11T01:59:58Z</time>
      </trkpt>
      <trkpt lat="42.411661" lon="-7.914754">
        <ele>401.408</ele>
        <time>1970-01-11T01:59:58Z</time>
      </trkpt>
      <trkpt lat="42.411694" lon="-7.914868">
        <ele>398.847</ele>
        <time>1970-01-11T01:59:58Z</time>
      </trkpt>
      <trkpt lat="42.411724" lon="-7.914973">
        <ele>397.884</ele>
        <time>1970-01-11T01:59:58Z</time>
      </trkpt>
      <trkpt lat="42.411770" lon="-7.915173">
        <ele>395.810</ele>
        <time>1970-01-11T01:59:58Z</time>
      </trkpt>
      <trkpt lat="42.411812" lon="-7.915349">
        <ele>394.278</ele>
        <time>1970-01-11T01:59:58Z</time>
      </trkpt>
      <trkpt lat="42.411835" lon="-7.915429">
        <ele>393.277</ele>
        <time>1970-01-11T01:59:58Z</time>
      </trkpt>
      <trkpt lat="42.411868" lon="-7.915507">
        <ele>392.262</ele>
        <time>1970-01-11T01:59:58Z</time>
      </trkpt>
      <trkpt lat="42.411918" lon="-7.915615">
        <ele>390.440</ele>
        <time>1970-01-11T01:59:58Z</time>
      </trkpt>
      <trkpt lat="42.411929" lon="-7.915638">
        <ele>389.679</ele>
        <time>1970-01-11T01:59:58Z</time>
      </trkpt>
      <trkpt lat="42.411939" lon="-7.915654">
        <ele>389.068</ele>
        <time>1970-01-11T01:59:58Z</time>
      </trkpt>
      <trkpt lat="42.411963" lon="-7.915682">
        <ele>388.242</ele>
        <time>1970-01-11T01:59:58Z</time>
      </trkpt>
      <trkpt lat="42.411972" lon="-7.915697">
        <ele>388.226</ele>
        <time>1970-01-11T01:59:58Z</time>
      </trkpt>
      <trkpt lat="42.411971" lon="-7.915701">
        <ele>388.208</ele>
        <time>1970-01-11T01:59:58Z</time>
      </trkpt>
      <trkpt lat="42.411977" lon="-7.915731">
        <ele>388.257</ele>
        <time>1970-01-11T01:59:58Z</time>
      </trkpt>
      <trkpt lat="42.411981" lon="-7.915750">
        <ele>388.464</ele>
        <time>1970-01-11T01:59:58Z</time>
      </trkpt>
      <trkpt lat="42.411987" lon="-7.915772">
        <ele>388.640</ele>
        <time>1970-01-11T01:59:58Z</time>
      </trkpt>
      <trkpt lat="42.411994" lon="-7.915802">
        <ele>388.878</ele>
        <time>1970-01-11T01:59:58Z</time>
      </trkpt>
      <trkpt lat="42.412008" lon="-7.915893">
        <ele>389.467</ele>
        <time>1970-01-11T01:59:58Z</time>
      </trkpt>
      <trkpt lat="42.412017" lon="-7.915932">
        <ele>389.862</ele>
        <time>1970-01-11T01:59:58Z</time>
      </trkpt>
      <trkpt lat="42.412047" lon="-7.916042">
        <ele>390.060</ele>
        <time>1970-01-11T01:59:58Z</time>
      </trkpt>
      <trkpt lat="42.412064" lon="-7.916105">
        <ele>390.639</ele>
        <time>1970-01-11T01:59:58Z</time>
      </trkpt>
      <trkpt lat="42.412072" lon="-7.916130">
        <ele>391.021</ele>
        <time>1970-01-11T01:59:58Z</time>
      </trkpt>
      <trkpt lat="42.412077" lon="-7.916154">
        <ele>391.241</ele>
        <time>1970-01-11T01:59:58Z</time>
      </trkpt>
      <trkpt lat="42.412087" lon="-7.916208">
        <ele>391.805</ele>
        <time>1970-01-11T01:59:58Z</time>
      </trkpt>
      <trkpt lat="42.412094" lon="-7.916267">
        <ele>392.608</ele>
        <time>1970-01-11T01:59:58Z</time>
      </trkpt>
      <trkpt lat="42.412093" lon="-7.916334">
        <ele>393.413</ele>
        <time>1970-01-11T01:59:58Z</time>
      </trkpt>
      <trkpt lat="42.412093" lon="-7.916367">
        <ele>393.870</ele>
        <time>1970-01-11T01:59:58Z</time>
      </trkpt>
      <trkpt lat="42.412081" lon="-7.916459">
        <ele>394.886</ele>
        <time>1970-01-11T01:59:58Z</time>
      </trkpt>
      <trkpt lat="42.412060" lon="-7.916566">
        <ele>395.834</ele>
        <time>1970-01-11T01:59:58Z</time>
      </trkpt>
      <trkpt lat="42.412053" lon="-7.916597">
        <ele>396.233</ele>
        <time>1970-01-11T01:59:58Z</time>
      </trkpt>
      <trkpt lat="42.412029" lon="-7.916692">
        <ele>397.278</ele>
        <time>1970-01-11T01:59:58Z</time>
      </trkpt>
      <trkpt lat="42.412004" lon="-7.916790">
        <ele>397.486</ele>
        <time>1970-01-11T01:59:58Z</time>
      </trkpt>
      <trkpt lat="42.411944" lon="-7.916994">
        <ele>398.235</ele>
        <time>1970-01-11T01:59:58Z</time>
      </trkpt>
      <trkpt lat="42.411925" lon="-7.917061">
        <ele>398.616</ele>
        <time>1970-01-11T01:59:58Z</time>
      </trkpt>
      <trkpt lat="42.411857" lon="-7.917279">
        <ele>399.276</ele>
        <time>1970-01-11T01:59:58Z</time>
      </trkpt>
      <trkpt lat="42.411835" lon="-7.917348">
        <ele>399.413</ele>
        <time>1970-01-11T01:59:58Z</time>
      </trkpt>
      <trkpt lat="42.411807" lon="-7.917527">
        <ele>399.808</ele>
        <time>1970-01-11T01:59:58Z</time>
      </trkpt>
      <trkpt lat="42.411790" lon="-7.917640">
        <ele>400.052</ele>
        <time>1970-01-11T01:59:58Z</time>
      </trkpt>
      <trkpt lat="42.411766" lon="-7.917750">
        <ele>400.479</ele>
        <time>1970-01-11T01:59:58Z</time>
      </trkpt>
      <trkpt lat="42.411746" lon="-7.917843">
        <ele>400.665</ele>
        <time>1970-01-11T01:59:58Z</time>
      </trkpt>
      <trkpt lat="42.411731" lon="-7.917933">
        <ele>401.623</ele>
        <time>1970-01-11T01:59:58Z</time>
      </trkpt>
      <trkpt lat="42.411721" lon="-7.918041">
        <ele>402.412</ele>
        <time>1970-01-11T01:59:58Z</time>
      </trkpt>
      <trkpt lat="42.411722" lon="-7.918076">
        <ele>402.677</ele>
        <time>1970-01-11T01:59:58Z</time>
      </trkpt>
      <trkpt lat="42.411740" lon="-7.918175">
        <ele>404.045</ele>
        <time>1970-01-11T01:59:58Z</time>
      </trkpt>
      <trkpt lat="42.411756" lon="-7.918237">
        <ele>404.614</ele>
        <time>1970-01-11T01:59:58Z</time>
      </trkpt>
      <trkpt lat="42.411769" lon="-7.918301">
        <ele>405.253</ele>
        <time>1970-01-11T01:59:58Z</time>
      </trkpt>
      <trkpt lat="42.411804" lon="-7.918404">
        <ele>406.204</ele>
        <time>1970-01-11T01:59:58Z</time>
      </trkpt>
      <trkpt lat="42.411827" lon="-7.918467">
        <ele>406.814</ele>
        <time>1970-01-11T01:59:58Z</time>
      </trkpt>
      <trkpt lat="42.411851" lon="-7.918568">
        <ele>407.208</ele>
        <time>1970-01-11T01:59:58Z</time>
      </trkpt>
      <trkpt lat="42.411864" lon="-7.918707">
        <ele>407.816</ele>
        <time>1970-01-11T01:59:58Z</time>
      </trkpt>
      <trkpt lat="42.411853" lon="-7.918735">
        <ele>408.013</ele>
        <time>1970-01-11T01:59:58Z</time>
      </trkpt>
      <trkpt lat="42.411839" lon="-7.918863">
        <ele>408.269</ele>
        <time>1970-01-11T01:59:58Z</time>
      </trkpt>
      <trkpt lat="42.411842" lon="-7.918893">
        <ele>408.287</ele>
        <time>1970-01-11T01:59:58Z</time>
      </trkpt>
      <trkpt lat="42.411868" lon="-7.919057">
        <ele>409.076</ele>
        <time>1970-01-11T01:59:58Z</time>
      </trkpt>
      <trkpt lat="42.411878" lon="-7.919091">
        <ele>409.261</ele>
        <time>1970-01-11T01:59:58Z</time>
      </trkpt>
      <trkpt lat="42.411923" lon="-7.919232">
        <ele>410.649</ele>
        <time>1970-01-11T01:59:58Z</time>
      </trkpt>
      <trkpt lat="42.411956" lon="-7.919307">
        <ele>411.888</ele>
        <time>1970-01-11T01:59:58Z</time>
      </trkpt>
      <trkpt lat="42.411970" lon="-7.919333">
        <ele>412.299</ele>
        <time>1970-01-11T01:59:58Z</time>
      </trkpt>
      <trkpt lat="42.412000" lon="-7.919415">
        <ele>413.207</ele>
        <time>1970-01-11T01:59:58Z</time>
      </trkpt>
      <trkpt lat="42.412016" lon="-7.919504">
        <ele>414.427</ele>
        <time>1970-01-11T01:59:58Z</time>
      </trkpt>
      <trkpt lat="42.412019" lon="-7.919607">
        <ele>415.408</ele>
        <time>1970-01-11T01:59:58Z</time>
      </trkpt>
      <trkpt lat="42.412020" lon="-7.919638">
        <ele>415.670</ele>
        <time>1970-01-11T01:59:58Z</time>
      </trkpt>
      <trkpt lat="42.411995" lon="-7.919812">
        <ele>416.087</ele>
        <time>1970-01-11T01:59:58Z</time>
      </trkpt>
      <trkpt lat="42.411968" lon="-7.919988">
        <ele>415.693</ele>
        <time>1970-01-11T01:59:58Z</time>
      </trkpt>
      <trkpt lat="42.411955" lon="-7.920080">
        <ele>415.431</ele>
        <time>1970-01-11T01:59:58Z</time>
      </trkpt>
      <trkpt lat="42.411952" lon="-7.920194">
        <ele>414.670</ele>
        <time>1970-01-11T01:59:58Z</time>
      </trkpt>
      <trkpt lat="42.411957" lon="-7.920217">
        <ele>414.465</ele>
        <time>1970-01-11T01:59:58Z</time>
      </trkpt>
      <trkpt lat="42.411960" lon="-7.920310">
        <ele>414.463</ele>
        <time>1970-01-11T01:59:58Z</time>
      </trkpt>
      <trkpt lat="42.411964" lon="-7.920331">
        <ele>414.492</ele>
        <time>1970-01-11T01:59:58Z</time>
      </trkpt>
      <trkpt lat="42.411980" lon="-7.920399">
        <ele>414.271</ele>
        <time>1970-01-11T01:59:58Z</time>
      </trkpt>
      <trkpt lat="42.411991" lon="-7.920460">
        <ele>413.841</ele>
        <time>1970-01-11T01:59:58Z</time>
      </trkpt>
      <trkpt lat="42.412022" lon="-7.920527">
        <ele>413.415</ele>
        <time>1970-01-11T01:59:58Z</time>
      </trkpt>
      <trkpt lat="42.412061" lon="-7.920583">
        <ele>412.808</ele>
        <time>1970-01-11T01:59:58Z</time>
      </trkpt>
      <trkpt lat="42.412085" lon="-7.920618">
        <ele>412.868</ele>
        <time>1970-01-11T01:59:58Z</time>
      </trkpt>
      <trkpt lat="42.412100" lon="-7.920654">
        <ele>412.695</ele>
        <time>1970-01-11T01:59:58Z</time>
      </trkpt>
      <trkpt lat="42.412114" lon="-7.920690">
        <ele>412.661</ele>
        <time>1970-01-11T01:59:58Z</time>
      </trkpt>
      <trkpt lat="42.412150" lon="-7.920756">
        <ele>412.249</ele>
        <time>1970-01-11T01:59:58Z</time>
      </trkpt>
      <trkpt lat="42.412199" lon="-7.920853">
        <ele>411.478</ele>
        <time>1970-01-11T01:59:58Z</time>
      </trkpt>
      <trkpt lat="42.412217" lon="-7.920889">
        <ele>411.263</ele>
        <time>1970-01-11T01:59:58Z</time>
      </trkpt>
      <trkpt lat="42.412246" lon="-7.920968">
        <ele>411.061</ele>
        <time>1970-01-11T01:59:58Z</time>
      </trkpt>
      <trkpt lat="42.412255" lon="-7.921006">
        <ele>410.820</ele>
        <time>1970-01-11T01:59:58Z</time>
      </trkpt>
      <trkpt lat="42.412260" lon="-7.921042">
        <ele>410.859</ele>
        <time>1970-01-11T01:59:58Z</time>
      </trkpt>
      <trkpt lat="42.412274" lon="-7.921120">
        <ele>410.803</ele>
        <time>1970-01-11T01:59:58Z</time>
      </trkpt>
      <trkpt lat="42.412310" lon="-7.921287">
        <ele>410.823</ele>
        <time>1970-01-11T01:59:58Z</time>
      </trkpt>
      <trkpt lat="42.412346" lon="-7.921468">
        <ele>411.408</ele>
        <time>1970-01-11T01:59:58Z</time>
      </trkpt>
      <trkpt lat="42.412377" lon="-7.921602">
        <ele>411.426</ele>
        <time>1970-01-11T01:59:58Z</time>
      </trkpt>
      <trkpt lat="42.412391" lon="-7.921641">
        <ele>411.493</ele>
        <time>1970-01-11T01:59:58Z</time>
      </trkpt>
      <trkpt lat="42.412423" lon="-7.921697">
        <ele>411.899</ele>
        <time>1970-01-11T01:59:58Z</time>
      </trkpt>
      <trkpt lat="42.412442" lon="-7.921754">
        <ele>412.447</ele>
        <time>1970-01-11T01:59:58Z</time>
      </trkpt>
      <trkpt lat="42.412453" lon="-7.921785">
        <ele>412.866</ele>
        <time>1970-01-11T01:59:58Z</time>
      </trkpt>
      <trkpt lat="42.412462" lon="-7.921817">
        <ele>413.251</ele>
        <time>1970-01-11T01:59:58Z</time>
      </trkpt>
      <trkpt lat="42.412468" lon="-7.921853">
        <ele>413.429</ele>
        <time>1970-01-11T01:59:58Z</time>
      </trkpt>
      <trkpt lat="42.412470" lon="-7.921888">
        <ele>413.858</ele>
        <time>1970-01-11T01:59:58Z</time>
      </trkpt>
      <trkpt lat="42.412478" lon="-7.921948">
        <ele>414.455</ele>
        <time>1970-01-11T01:59:58Z</time>
      </trkpt>
      <trkpt lat="42.412480" lon="-7.921970">
        <ele>414.607</ele>
        <time>1970-01-11T01:59:58Z</time>
      </trkpt>
      <trkpt lat="42.412510" lon="-7.922145">
        <ele>415.617</ele>
        <time>1970-01-11T01:59:58Z</time>
      </trkpt>
      <trkpt lat="42.412544" lon="-7.922367">
        <ele>416.808</ele>
        <time>1970-01-11T01:59:58Z</time>
      </trkpt>
      <trkpt lat="42.412551" lon="-7.922399">
        <ele>417.046</ele>
        <time>1970-01-11T01:59:58Z</time>
      </trkpt>
      <trkpt lat="42.412573" lon="-7.922535">
        <ele>418.013</ele>
        <time>1970-01-11T01:59:58Z</time>
      </trkpt>
      <trkpt lat="42.412590" lon="-7.922637">
        <ele>418.839</ele>
        <time>1970-01-11T01:59:58Z</time>
      </trkpt>
      <trkpt lat="42.412605" lon="-7.922698">
        <ele>419.247</ele>
        <time>1970-01-11T01:59:58Z</time>
      </trkpt>
      <trkpt lat="42.412657" lon="-7.922808">
        <ele>419.676</ele>
        <time>1970-01-11T01:59:58Z</time>
      </trkpt>
      <trkpt lat="42.412715" lon="-7.922891">
        <ele>420.231</ele>
        <time>1970-01-11T01:59:58Z</time>
      </trkpt>
      <trkpt lat="42.412772" lon="-7.922971">
        <ele>420.639</ele>
        <time>1970-01-11T01:59:58Z</time>
      </trkpt>
      <trkpt lat="42.412826" lon="-7.923073">
        <ele>421.428</ele>
        <time>1970-01-11T01:59:58Z</time>
      </trkpt>
      <trkpt lat="42.412833" lon="-7.923127">
        <ele>422.235</ele>
        <time>1970-01-11T01:59:58Z</time>
      </trkpt>
      <trkpt lat="42.412835" lon="-7.923156">
        <ele>422.686</ele>
        <time>1970-01-11T01:59:58Z</time>
      </trkpt>
      <trkpt lat="42.412835" lon="-7.923291">
        <ele>423.614</ele>
        <time>1970-01-11T01:59:58Z</time>
      </trkpt>
      <trkpt lat="42.412835" lon="-7.923326">
        <ele>424.008</ele>
        <time>1970-01-11T01:59:58Z</time>
      </trkpt>
      <trkpt lat="42.412842" lon="-7.923431">
        <ele>425.084</ele>
        <time>1970-01-11T01:59:58Z</time>
      </trkpt>
      <trkpt lat="42.412849" lon="-7.923615">
        <ele>426.011</ele>
        <time>1970-01-11T01:59:58Z</time>
      </trkpt>
      <trkpt lat="42.412851" lon="-7.923645">
        <ele>426.067</ele>
        <time>1970-01-11T01:59:58Z</time>
      </trkpt>
      <trkpt lat="42.412895" lon="-7.923917">
        <ele>427.095</ele>
        <time>1970-01-11T01:59:58Z</time>
      </trkpt>
      <trkpt lat="42.412903" lon="-7.923954">
        <ele>427.054</ele>
        <time>1970-01-11T01:59:58Z</time>
      </trkpt>
      <trkpt lat="42.412977" lon="-7.924201">
        <ele>427.819</ele>
        <time>1970-01-11T01:59:58Z</time>
      </trkpt>
      <trkpt lat="42.413033" lon="-7.924333">
        <ele>428.047</ele>
        <time>1970-01-11T01:59:58Z</time>
      </trkpt>
      <trkpt lat="42.413072" lon="-7.924427">
        <ele>428.466</ele>
        <time>1970-01-11T01:59:58Z</time>
      </trkpt>
      <trkpt lat="42.413131" lon="-7.924581">
        <ele>429.084</ele>
        <time>1970-01-11T01:59:58Z</time>
      </trkpt>
      <trkpt lat="42.413145" lon="-7.924610">
        <ele>429.407</ele>
        <time>1970-01-11T01:59:58Z</time>
      </trkpt>
      <trkpt lat="42.413195" lon="-7.924694">
        <ele>430.217</ele>
        <time>1970-01-11T01:59:58Z</time>
      </trkpt>
      <trkpt lat="42.413252" lon="-7.924809">
        <ele>431.008</ele>
        <time>1970-01-11T01:59:58Z</time>
      </trkpt>
      <trkpt lat="42.413276" lon="-7.924870">
        <ele>431.299</ele>
        <time>1970-01-11T01:59:58Z</time>
      </trkpt>
      <trkpt lat="42.413326" lon="-7.925009">
        <ele>431.866</ele>
        <time>1970-01-11T01:59:58Z</time>
      </trkpt>
      <trkpt lat="42.413365" lon="-7.925106">
        <ele>432.212</ele>
        <time>1970-01-11T01:59:58Z</time>
      </trkpt>
      <trkpt lat="42.413404" lon="-7.925278">
        <ele>433.020</ele>
        <time>1970-01-11T01:59:58Z</time>
      </trkpt>
      <trkpt lat="42.413412" lon="-7.925310">
        <ele>433.279</ele>
        <time>1970-01-11T01:59:58Z</time>
      </trkpt>
      <trkpt lat="42.413429" lon="-7.925375">
        <ele>433.454</ele>
        <time>1970-01-11T01:59:58Z</time>
      </trkpt>
      <trkpt lat="42.413497" lon="-7.925584">
        <ele>434.422</ele>
        <time>1970-01-11T01:59:58Z</time>
      </trkpt>
      <trkpt lat="42.413584" lon="-7.925851">
        <ele>434.851</ele>
        <time>1970-01-11T01:59:58Z</time>
      </trkpt>
      <trkpt lat="42.413628" lon="-7.926053">
        <ele>435.299</ele>
        <time>1970-01-11T01:59:58Z</time>
      </trkpt>
      <trkpt lat="42.413683" lon="-7.926173">
        <ele>435.207</ele>
        <time>1970-01-11T01:59:59Z</time>
      </trkpt>
      <trkpt lat="42.413763" lon="-7.926262">
        <ele>435.027</ele>
        <time>1970-01-11T01:59:59Z</time>
      </trkpt>
      <trkpt lat="42.413959" lon="-7.926388">
        <ele>434.808</ele>
        <time>1970-01-11T01:59:59Z</time>
      </trkpt>
      <trkpt lat="42.414046" lon="-7.926388">
        <ele>434.610</ele>
        <time>1970-01-11T01:59:59Z</time>
      </trkpt>
      <trkpt lat="42.414163" lon="-7.926358">
        <ele>434.017</ele>
        <time>1970-01-11T01:59:59Z</time>
      </trkpt>
      <trkpt lat="42.414304" lon="-7.926320">
        <ele>433.683</ele>
        <time>1970-01-11T01:59:59Z</time>
      </trkpt>
      <trkpt lat="42.414438" lon="-7.926261">
        <ele>433.481</ele>
        <time>1970-01-11T01:59:59Z</time>
      </trkpt>
      <trkpt lat="42.414616" lon="-7.926217">
        <ele>433.220</ele>
        <time>1970-01-11T01:59:59Z</time>
      </trkpt>
      <trkpt lat="42.414672" lon="-7.926223">
        <ele>433.245</ele>
        <time>1970-01-11T01:59:59Z</time>
      </trkpt>
      <trkpt lat="42.414782" lon="-7.926274">
        <ele>433.443</ele>
        <time>1970-01-11T01:59:59Z</time>
      </trkpt>
      <trkpt lat="42.414896" lon="-7.926335">
        <ele>433.412</ele>
        <time>1970-01-11T01:59:59Z</time>
      </trkpt>
      <trkpt lat="42.415123" lon="-7.926345">
        <ele>432.664</ele>
        <time>1970-01-11T01:59:59Z</time>
      </trkpt>
      <trkpt lat="42.415230" lon="-7.926339">
        <ele>432.206</ele>
        <time>1970-01-11T01:59:59Z</time>
      </trkpt>
      <trkpt lat="42.415382" lon="-7.926339">
        <ele>432.016</ele>
        <time>1970-01-11T01:59:59Z</time>
      </trkpt>
      <trkpt lat="42.415429" lon="-7.926329">
        <ele>432.008</ele>
        <time>1970-01-11T01:59:59Z</time>
      </trkpt>
      <trkpt lat="42.415567" lon="-7.926299">
        <ele>432.287</ele>
        <time>1970-01-11T01:59:59Z</time>
      </trkpt>
      <trkpt lat="42.415653" lon="-7.926293">
        <ele>432.224</ele>
        <time>1970-01-11T01:59:59Z</time>
      </trkpt>
      <trkpt lat="42.415679" lon="-7.926323">
        <ele>432.490</ele>
        <time>1970-01-11T01:59:59Z</time>
      </trkpt>
      <trkpt lat="42.415714" lon="-7.926455">
        <ele>433.038</ele>
        <time>1970-01-11T01:59:59Z</time>
      </trkpt>
      <trkpt lat="42.415712" lon="-7.926571">
        <ele>433.477</ele>
        <time>1970-01-11T01:59:59Z</time>
      </trkpt>
      <trkpt lat="42.415718" lon="-7.926694">
        <ele>433.842</ele>
        <time>1970-01-11T01:59:59Z</time>
      </trkpt>
      <trkpt lat="42.415727" lon="-7.926763">
        <ele>434.010</ele>
        <time>1970-01-11T01:59:59Z</time>
      </trkpt>
      <trkpt lat="42.415756" lon="-7.927079">
        <ele>433.889</ele>
        <time>1970-01-11T01:59:59Z</time>
      </trkpt>
      <trkpt lat="42.415776" lon="-7.927222">
        <ele>433.452</ele>
        <time>1970-01-11T01:59:59Z</time>
      </trkpt>
      <trkpt lat="42.415797" lon="-7.927350">
        <ele>433.253</ele>
        <time>1970-01-11T01:59:59Z</time>
      </trkpt>
      <trkpt lat="42.415853" lon="-7.927511">
        <ele>433.408</ele>
        <time>1970-01-11T01:59:59Z</time>
      </trkpt>
      <trkpt lat="42.415872" lon="-7.927561">
        <ele>433.408</ele>
        <time>1970-01-11T01:59:59Z</time>
      </trkpt>
      <trkpt lat="42.415925" lon="-7.927693">
        <ele>434.056</ele>
        <time>1970-01-11T01:59:59Z</time>
      </trkpt>
      <trkpt lat="42.415948" lon="-7.927785">
        <ele>434.623</ele>
        <time>1970-01-11T01:59:59Z</time>
      </trkpt>
      <trkpt lat="42.415958" lon="-7.927829">
        <ele>434.839</ele>
        <time>1970-01-11T01:59:59Z</time>
      </trkpt>
      <trkpt lat="42.415994" lon="-7.927977">
        <ele>435.877</ele>
        <time>1970-01-11T01:59:59Z</time>
      </trkpt>
      <trkpt lat="42.416034" lon="-7.928116">
        <ele>436.836</ele>
        <time>1970-01-11T01:59:59Z</time>
      </trkpt>
      <trkpt lat="42.416045" lon="-7.928164">
        <ele>437.011</ele>
        <time>1970-01-11T01:59:59Z</time>
      </trkpt>
      <trkpt lat="42.416133" lon="-7.928438">
        <ele>437.899</ele>
        <time>1970-01-11T01:59:59Z</time>
      </trkpt>
      <trkpt lat="42.416171" lon="-7.928531">
        <ele>438.248</ele>
        <time>1970-01-11T01:59:59Z</time>
      </trkpt>
      <trkpt lat="42.416232" lon="-7.928650">
        <ele>439.087</ele>
        <time>1970-01-11T01:59:59Z</time>
      </trkpt>
      <trkpt lat="42.416346" lon="-7.928771">
        <ele>439.842</ele>
        <time>1970-01-11T01:59:59Z</time>
      </trkpt>
      <trkpt lat="42.416439" lon="-7.928865">
        <ele>440.026</ele>
        <time>1970-01-11T01:59:59Z</time>
      </trkpt>
      <trkpt lat="42.416465" lon="-7.928901">
        <ele>440.008</ele>
        <time>1970-01-11T01:59:59Z</time>
      </trkpt>
      <trkpt lat="42.416519" lon="-7.929031">
        <ele>440.829</ele>
        <time>1970-01-11T01:59:59Z</time>
      </trkpt>
      <trkpt lat="42.416543" lon="-7.929134">
        <ele>441.226</ele>
        <time>1970-01-11T01:59:59Z</time>
      </trkpt>
      <trkpt lat="42.416577" lon="-7.929356">
        <ele>442.012</ele>
        <time>1970-01-11T01:59:59Z</time>
      </trkpt>
      <trkpt lat="42.416582" lon="-7.929414">
        <ele>442.460</ele>
        <time>1970-01-11T01:59:59Z</time>
      </trkpt>
      <trkpt lat="42.416594" lon="-7.929527">
        <ele>442.829</ele>
        <time>1970-01-11T01:59:59Z</time>
      </trkpt>
      <trkpt lat="42.416614" lon="-7.929699">
        <ele>443.414</ele>
        <time>1970-01-11T01:59:59Z</time>
      </trkpt>
      <trkpt lat="42.416620" lon="-7.929758">
        <ele>443.412</ele>
        <time>1970-01-11T01:59:59Z</time>
      </trkpt>
      <trkpt lat="42.416660" lon="-7.930138">
        <ele>444.081</ele>
        <time>1970-01-11T01:59:59Z</time>
      </trkpt>
      <trkpt lat="42.416691" lon="-7.930355">
        <ele>444.458</ele>
        <time>1970-01-11T01:59:59Z</time>
      </trkpt>
      <trkpt lat="42.416727" lon="-7.930447">
        <ele>444.852</ele>
        <time>1970-01-11T01:59:59Z</time>
      </trkpt>
      <trkpt lat="42.416774" lon="-7.930530">
        <ele>445.017</ele>
        <time>1970-01-11T01:59:59Z</time>
      </trkpt>
      <trkpt lat="42.416899" lon="-7.930690">
        <ele>445.008</ele>
        <time>1970-01-11T01:59:59Z</time>
      </trkpt>
      <trkpt lat="42.416939" lon="-7.930713">
        <ele>445.076</ele>
        <time>1970-01-11T01:59:59Z</time>
      </trkpt>
      <trkpt lat="42.417088" lon="-7.930789">
        <ele>445.073</ele>
        <time>1970-01-11T01:59:59Z</time>
      </trkpt>
      <trkpt lat="42.417260" lon="-7.930917">
        <ele>444.879</ele>
        <time>1970-01-11T01:59:59Z</time>
      </trkpt>
      <trkpt lat="42.417309" lon="-7.930970">
        <ele>444.837</ele>
        <time>1970-01-11T01:59:59Z</time>
      </trkpt>
      <trkpt lat="42.417361" lon="-7.931023">
        <ele>444.496</ele>
        <time>1970-01-11T01:59:59Z</time>
      </trkpt>
      <trkpt lat="42.417469" lon="-7.931137">
        <ele>443.871</ele>
        <time>1970-01-11T01:59:59Z</time>
      </trkpt>
      <trkpt lat="42.417553" lon="-7.931233">
        <ele>442.879</ele>
        <time>1970-01-11T01:59:59Z</time>
      </trkpt>
      <trkpt lat="42.417606" lon="-7.931300">
        <ele>441.878</ele>
        <time>1970-01-11T01:59:59Z</time>
      </trkpt>
      <trkpt lat="42.417616" lon="-7.931342">
        <ele>441.221</ele>
        <time>1970-01-11T01:59:59Z</time>
      </trkpt>
      <trkpt lat="42.417609" lon="-7.931385">
        <ele>440.641</ele>
        <time>1970-01-11T01:59:59Z</time>
      </trkpt>
      <trkpt lat="42.417575" lon="-7.931537">
        <ele>439.605</ele>
        <time>1970-01-11T01:59:59Z</time>
      </trkpt>
      <trkpt lat="42.417556" lon="-7.931585">
        <ele>439.408</ele>
        <time>1970-01-11T01:59:59Z</time>
      </trkpt>
      <trkpt lat="42.417537" lon="-7.931635">
        <ele>439.433</ele>
        <time>1970-01-11T01:59:59Z</time>
      </trkpt>
      <trkpt lat="42.417411" lon="-7.931872">
        <ele>439.870</ele>
        <time>1970-01-11T01:59:59Z</time>
      </trkpt>
      <trkpt lat="42.417363" lon="-7.931978">
        <ele>439.636</ele>
        <time>1970-01-11T01:59:59Z</time>
      </trkpt>
      <trkpt lat="42.417315" lon="-7.932091">
        <ele>439.224</ele>
        <time>1970-01-11T01:59:59Z</time>
      </trkpt>
      <trkpt lat="42.417264" lon="-7.932211">
        <ele>438.473</ele>
        <time>1970-01-11T01:59:59Z</time>
      </trkpt>
      <trkpt lat="42.417184" lon="-7.932393">
        <ele>437.428</ele>
        <time>1970-01-11T01:59:59Z</time>
      </trkpt>
      <trkpt lat="42.417155" lon="-7.932456">
        <ele>437.216</ele>
        <time>1970-01-11T01:59:59Z</time>
      </trkpt>
      <trkpt lat="42.417075" lon="-7.932644">
        <ele>436.625</ele>
        <time>1970-01-11T01:59:59Z</time>
      </trkpt>
      <trkpt lat="42.417019" lon="-7.932767">
        <ele>436.053</ele>
        <time>1970-01-11T01:59:59Z</time>
      </trkpt>
      <trkpt lat="42.416959" lon="-7.932896">
        <ele>435.604</ele>
        <time>1970-01-11T01:59:59Z</time>
      </trkpt>
      <trkpt lat="42.416896" lon="-7.933030">
        <ele>435.414</ele>
        <time>1970-01-11T01:59:59Z</time>
      </trkpt>
      <trkpt lat="42.416828" lon="-7.933168">
        <ele>435.008</ele>
        <time>1970-01-11T01:59:59Z</time>
      </trkpt>
      <trkpt lat="42.416760" lon="-7.933317">
        <ele>434.656</ele>
        <time>1970-01-11T01:59:59Z</time>
      </trkpt>
      <trkpt lat="42.416688" lon="-7.933477">
        <ele>434.283</ele>
        <time>1970-01-11T01:59:59Z</time>
      </trkpt>
      <trkpt lat="42.416654" lon="-7.933558">
        <ele>434.049</ele>
        <time>1970-01-11T01:59:59Z</time>
      </trkpt>
      <trkpt lat="42.416477" lon="-7.933988">
        <ele>433.297</ele>
        <time>1970-01-11T01:59:59Z</time>
      </trkpt>
      <trkpt lat="42.416444" lon="-7.934082">
        <ele>433.016</ele>
        <time>1970-01-11T01:59:59Z</time>
      </trkpt>
      <trkpt lat="42.416417" lon="-7.934181">
        <ele>432.671</ele>
        <time>1970-01-11T01:59:59Z</time>
      </trkpt>
      <trkpt lat="42.416376" lon="-7.934382">
        <ele>431.479</ele>
        <time>1970-01-11T01:59:59Z</time>
      </trkpt>
      <trkpt lat="42.416350" lon="-7.934571">
        <ele>430.848</ele>
        <time>1970-01-11T01:59:59Z</time>
      </trkpt>
      <trkpt lat="42.416348" lon="-7.934699">
        <ele>430.425</ele>
        <time>1970-01-11T01:59:59Z</time>
      </trkpt>
      <trkpt lat="42.416366" lon="-7.934744">
        <ele>430.426</ele>
        <time>1970-01-11T01:59:59Z</time>
      </trkpt>
      <trkpt lat="42.416431" lon="-7.934812">
        <ele>430.208</ele>
        <time>1970-01-11T01:59:59Z</time>
      </trkpt>
      <trkpt lat="42.416477" lon="-7.934844">
        <ele>430.008</ele>
        <time>1970-01-11T01:59:59Z</time>
      </trkpt>
      <trkpt lat="42.416529" lon="-7.934877">
        <ele>429.843</ele>
        <time>1970-01-11T01:59:59Z</time>
      </trkpt>
      <trkpt lat="42.416638" lon="-7.934960">
        <ele>429.290</ele>
        <time>1970-01-11T01:59:59Z</time>
      </trkpt>
      <trkpt lat="42.416702" lon="-7.935012">
        <ele>428.886</ele>
        <time>1970-01-11T01:59:59Z</time>
      </trkpt>
      <trkpt lat="42.416766" lon="-7.935066">
        <ele>428.234</ele>
        <time>1970-01-11T01:59:59Z</time>
      </trkpt>
      <trkpt lat="42.416909" lon="-7.935169">
        <ele>427.463</ele>
        <time>1970-01-11T01:59:59Z</time>
      </trkpt>
      <trkpt lat="42.417143" lon="-7.935343">
        <ele>426.058</ele>
        <time>1970-01-11T01:59:59Z</time>
      </trkpt>
      <trkpt lat="42.417224" lon="-7.935404">
        <ele>425.426</ele>
        <time>1970-01-11T01:59:59Z</time>
      </trkpt>
      <trkpt lat="42.417305" lon="-7.935466">
        <ele>424.645</ele>
        <time>1970-01-11T01:59:59Z</time>
      </trkpt>
      <trkpt lat="42.417461" lon="-7.935585">
        <ele>423.035</ele>
        <time>1970-01-11T01:59:59Z</time>
      </trkpt>
      <trkpt lat="42.417612" lon="-7.935691">
        <ele>421.886</ele>
        <time>1970-01-11T01:59:59Z</time>
      </trkpt>
      <trkpt lat="42.417684" lon="-7.935749">
        <ele>421.214</ele>
        <time>1970-01-11T01:59:59Z</time>
      </trkpt>
      <trkpt lat="42.417757" lon="-7.935800">
        <ele>420.808</ele>
        <time>1970-01-11T01:59:59Z</time>
      </trkpt>
      <trkpt lat="42.417831" lon="-7.935857">
        <ele>420.454</ele>
        <time>1970-01-11T01:59:59Z</time>
      </trkpt>
      <trkpt lat="42.417985" lon="-7.935978">
        <ele>419.871</ele>
        <time>1970-01-11T01:59:59Z</time>
      </trkpt>
      <trkpt lat="42.418230" lon="-7.936138">
        <ele>419.467</ele>
        <time>1970-01-11T01:59:59Z</time>
      </trkpt>
      <trkpt lat="42.418311" lon="-7.936186">
        <ele>419.465</ele>
        <time>1970-01-11T01:59:59Z</time>
      </trkpt>
      <trkpt lat="42.418604" lon="-7.936394">
        <ele>419.234</ele>
        <time>1970-01-11T01:59:59Z</time>
      </trkpt>
      <trkpt lat="42.418749" lon="-7.936491">
        <ele>419.499</ele>
        <time>1970-01-11T01:59:59Z</time>
      </trkpt>
      <trkpt lat="42.418881" lon="-7.936580">
        <ele>419.497</ele>
        <time>1970-01-11T01:59:59Z</time>
      </trkpt>
      <trkpt lat="42.418939" lon="-7.936628">
        <ele>419.676</ele>
        <time>1970-01-11T01:59:59Z</time>
      </trkpt>
      <trkpt lat="42.419051" lon="-7.936731">
        <ele>420.088</ele>
        <time>1970-01-11T01:59:59Z</time>
      </trkpt>
      <trkpt lat="42.419112" lon="-7.936775">
        <ele>420.224</ele>
        <time>1970-01-11T01:59:59Z</time>
      </trkpt>
      <trkpt lat="42.419176" lon="-7.936824">
        <ele>420.426</ele>
        <time>1970-01-11T01:59:59Z</time>
      </trkpt>
      <trkpt lat="42.419446" lon="-7.937061">
        <ele>421.008</ele>
        <time>1970-01-11T01:59:59Z</time>
      </trkpt>
      <trkpt lat="42.419786" lon="-7.937405">
        <ele>419.299</ele>
        <time>1970-01-11T01:59:59Z</time>
      </trkpt>
      <trkpt lat="42.420026" lon="-7.937627">
        <ele>418.066</ele>
        <time>1970-01-11T01:59:59Z</time>
      </trkpt>
      <trkpt lat="42.420145" lon="-7.937741">
        <ele>417.682</ele>
        <time>1970-01-11T01:59:59Z</time>
      </trkpt>
      <trkpt lat="42.420262" lon="-7.937863">
        <ele>417.070</ele>
        <time>1970-01-11T01:59:59Z</time>
      </trkpt>
      <trkpt lat="42.420454" lon="-7.938043">
        <ele>416.069</ele>
        <time>1970-01-11T01:59:59Z</time>
      </trkpt>
      <trkpt lat="42.420527" lon="-7.938098">
        <ele>415.644</ele>
        <time>1970-01-11T01:59:59Z</time>
      </trkpt>
      <trkpt lat="42.420675" lon="-7.938216">
        <ele>414.622</ele>
        <time>1970-01-11T01:59:59Z</time>
      </trkpt>
      <trkpt lat="42.420841" lon="-7.938354">
        <ele>413.821</ele>
        <time>1970-01-11T01:59:59Z</time>
      </trkpt>
      <trkpt lat="42.420933" lon="-7.938424">
        <ele>413.261</ele>
        <time>1970-01-11T01:59:59Z</time>
      </trkpt>
      <trkpt lat="42.421025" lon="-7.938493">
        <ele>412.421</ele>
        <time>1970-01-11T01:59:59Z</time>
      </trkpt>
      <trkpt lat="42.421115" lon="-7.938566">
        <ele>411.613</ele>
        <time>1970-01-11T01:59:59Z</time>
      </trkpt>
      <trkpt lat="42.421285" lon="-7.938727">
        <ele>410.008</ele>
        <time>1970-01-11T01:59:59Z</time>
      </trkpt>
      <trkpt lat="42.421483" lon="-7.938858">
        <ele>408.617</ele>
        <time>1970-01-11T01:59:59Z</time>
      </trkpt>
      <trkpt lat="42.421678" lon="-7.938985">
        <ele>407.494</ele>
        <time>1970-01-11T01:59:59Z</time>
      </trkpt>
      <trkpt lat="42.421881" lon="-7.939112">
        <ele>406.020</ele>
        <time>1970-01-11T01:59:59Z</time>
      </trkpt>
      <trkpt lat="42.421983" lon="-7.939188">
        <ele>405.228</ele>
        <time>1970-01-11T01:59:59Z</time>
      </trkpt>
      <trkpt lat="42.422079" lon="-7.939261">
        <ele>404.457</ele>
        <time>1970-01-11T01:59:59Z</time>
      </trkpt>
      <trkpt lat="42.422272" lon="-7.939397">
        <ele>402.822</ele>
        <time>1970-01-11T01:59:59Z</time>
      </trkpt>
      <trkpt lat="42.422471" lon="-7.939517">
        <ele>401.460</ele>
        <time>1970-01-11T01:59:59Z</time>
      </trkpt>
      <trkpt lat="42.422672" lon="-7.939647">
        <ele>400.279</ele>
        <time>1970-01-11T01:59:59Z</time>
      </trkpt>
      <trkpt lat="42.422890" lon="-7.939773">
        <ele>399.643</ele>
        <time>1970-01-11T01:59:59Z</time>
      </trkpt>
      <trkpt lat="42.423100" lon="-7.939882">
        <ele>399.464</ele>
        <time>1970-01-11T01:59:59Z</time>
      </trkpt>
      <trkpt lat="42.423435" lon="-7.939992">
        <ele>399.610</ele>
        <time>1970-01-11T01:59:59Z</time>
      </trkpt>
      <trkpt lat="42.423530" lon="-7.940028">
        <ele>399.808</ele>
        <time>1970-01-11T01:59:59Z</time>
      </trkpt>
      <trkpt lat="42.423624" lon="-7.940072">
        <ele>400.055</ele>
        <time>1970-01-11T01:59:59Z</time>
      </trkpt>
      <trkpt lat="42.423756" lon="-7.940171">
        <ele>400.622</ele>
        <time>1970-01-11T01:59:59Z</time>
      </trkpt>
      <trkpt lat="42.423674" lon="-7.940223">
        <ele>401.098</ele>
        <time>1970-01-11T01:59:59Z</time>
      </trkpt>
      <trkpt lat="42.423639" lon="-7.940263">
        <ele>401.496</ele>
        <time>1970-01-11T01:59:59Z</time>
      </trkpt>
      <trkpt lat="42.423671" lon="-7.940362">
        <ele>402.695</ele>
        <time>1970-01-11T01:59:59Z</time>
      </trkpt>
      <trkpt lat="42.423769" lon="-7.940457">
        <ele>403.060</ele>
        <time>1970-01-11T01:59:59Z</time>
      </trkpt>
      <trkpt lat="42.423828" lon="-7.940543">
        <ele>403.418</ele>
        <time>1970-01-11T01:59:59Z</time>
      </trkpt>
      <trkpt lat="42.423847" lon="-7.940568">
        <ele>403.667</ele>
        <time>1970-01-11T01:59:59Z</time>
      </trkpt>
      <trkpt lat="42.423889" lon="-7.940626">
        <ele>404.023</ele>
        <time>1970-01-11T01:59:59Z</time>
      </trkpt>
      <trkpt lat="42.424024" lon="-7.940770">
        <ele>404.483</ele>
        <time>1970-01-11T01:59:59Z</time>
      </trkpt>
      <trkpt lat="42.424095" lon="-7.940821">
        <ele>404.611</ele>
        <time>1970-01-11T01:59:59Z</time>
      </trkpt>
      <trkpt lat="42.424137" lon="-7.940863">
        <ele>404.608</ele>
        <time>1970-01-11T01:59:59Z</time>
      </trkpt>
      <trkpt lat="42.424235" lon="-7.940972">
        <ele>405.023</ele>
        <time>1970-01-11T01:59:59Z</time>
      </trkpt>
      <trkpt lat="42.424370" lon="-7.941093">
        <ele>405.670</ele>
        <time>1970-01-11T01:59:59Z</time>
      </trkpt>
      <trkpt lat="42.424447" lon="-7.941148">
        <ele>405.886</ele>
        <time>1970-01-11T01:59:59Z</time>
      </trkpt>
      <trkpt lat="42.424486" lon="-7.941189">
        <ele>405.834</ele>
        <time>1970-01-11T01:59:59Z</time>
      </trkpt>
      <trkpt lat="42.424635" lon="-7.941349">
        <ele>404.863</ele>
        <time>1970-01-11T01:59:59Z</time>
      </trkpt>
      <trkpt lat="42.424677" lon="-7.941414">
        <ele>404.658</ele>
        <time>1970-01-11T01:59:59Z</time>
      </trkpt>
      <trkpt lat="42.424767" lon="-7.941520">
        <ele>404.416</ele>
        <time>1970-01-11T01:59:59Z</time>
      </trkpt>
      <trkpt lat="42.424892" lon="-7.941650">
        <ele>404.055</ele>
        <time>1970-01-11T01:59:59Z</time>
      </trkpt>
      <trkpt lat="42.424924" lon="-7.941699">
        <ele>403.864</ele>
        <time>1970-01-11T01:59:59Z</time>
      </trkpt>
      <trkpt lat="42.425040" lon="-7.941925">
        <ele>403.606</ele>
        <time>1970-01-11T01:59:59Z</time>
      </trkpt>
      <trkpt lat="42.425103" lon="-7.942069">
        <ele>403.616</ele>
        <time>1970-01-11T01:59:59Z</time>
      </trkpt>
      <trkpt lat="42.425282" lon="-7.942326">
        <ele>403.608</ele>
        <time>1970-01-11T01:59:59Z</time>
      </trkpt>
      <trkpt lat="42.425344" lon="-7.942374">
        <ele>403.287</ele>
        <time>1970-01-11T01:59:59Z</time>
      </trkpt>
      <trkpt lat="42.425402" lon="-7.942429">
        <ele>402.444</ele>
        <time>1970-01-11T01:59:59Z</time>
      </trkpt>
      <trkpt lat="42.425464" lon="-7.942468">
        <ele>401.690</ele>
        <time>1970-01-11T01:59:59Z</time>
      </trkpt>
      <trkpt lat="42.425525" lon="-7.942494">
        <ele>401.048</ele>
        <time>1970-01-11T01:59:59Z</time>
      </trkpt>
      <trkpt lat="42.425560" lon="-7.942472">
        <ele>400.697</ele>
        <time>1970-01-11T01:59:59Z</time>
      </trkpt>
      <trkpt lat="42.425667" lon="-7.942376">
        <ele>399.612</ele>
        <time>1970-01-11T01:59:59Z</time>
      </trkpt>
      <trkpt lat="42.425742" lon="-7.942349">
        <ele>398.280</ele>
        <time>1970-01-11T01:59:59Z</time>
      </trkpt>
      <trkpt lat="42.425804" lon="-7.942333">
        <ele>396.689</ele>
        <time>1970-01-11T01:59:59Z</time>
      </trkpt>
      <trkpt lat="42.425851" lon="-7.942335">
        <ele>396.258</ele>
        <time>1970-01-11T01:59:59Z</time>
      </trkpt>
      <trkpt lat="42.425937" lon="-7.942327">
        <ele>395.452</ele>
        <time>1970-01-11T01:59:59Z</time>
      </trkpt>
      <trkpt lat="42.426036" lon="-7.942330">
        <ele>394.017</ele>
        <time>1970-01-11T01:59:59Z</time>
      </trkpt>
      <trkpt lat="42.426155" lon="-7.942339">
        <ele>392.808</ele>
        <time>1970-01-11T01:59:59Z</time>
      </trkpt>
      <trkpt lat="42.426277" lon="-7.942348">
        <ele>391.436</ele>
        <time>1970-01-11T01:59:59Z</time>
      </trkpt>
      <trkpt lat="42.426399" lon="-7.942367">
        <ele>390.473</ele>
        <time>1970-01-11T01:59:59Z</time>
      </trkpt>
      <trkpt lat="42.426576" lon="-7.942387">
        <ele>389.269</ele>
        <time>1970-01-11T01:59:59Z</time>
      </trkpt>
      <trkpt lat="42.426693" lon="-7.942395">
        <ele>388.887</ele>
        <time>1970-01-11T01:59:59Z</time>
      </trkpt>
      <trkpt lat="42.426863" lon="-7.942410">
        <ele>388.616</ele>
        <time>1970-01-11T01:59:59Z</time>
      </trkpt>
      <trkpt lat="42.427032" lon="-7.942417">
        <ele>388.641</ele>
        <time>1970-01-11T01:59:59Z</time>
      </trkpt>
      <trkpt lat="42.427083" lon="-7.942413">
        <ele>388.899</ele>
        <time>1970-01-11T01:59:59Z</time>
      </trkpt>
      <trkpt lat="42.427183" lon="-7.942418">
        <ele>388.848</ele>
        <time>1970-01-11T01:59:59Z</time>
      </trkpt>
      <trkpt lat="42.427310" lon="-7.942425">
        <ele>388.881</ele>
        <time>1970-01-11T01:59:59Z</time>
      </trkpt>
      <trkpt lat="42.427398" lon="-7.942440">
        <ele>388.861</ele>
        <time>1970-01-11T01:59:59Z</time>
      </trkpt>
      <trkpt lat="42.427523" lon="-7.942448">
        <ele>389.217</ele>
        <time>1970-01-11T01:59:59Z</time>
      </trkpt>
      <trkpt lat="42.427726" lon="-7.942451">
        <ele>390.208</ele>
        <time>1970-01-11T01:59:59Z</time>
      </trkpt>
      <trkpt lat="42.427786" lon="-7.942447">
        <ele>390.229</ele>
        <time>1970-01-11T01:59:59Z</time>
      </trkpt>
      <trkpt lat="42.427845" lon="-7.942444">
        <ele>390.456</ele>
        <time>1970-01-11T01:59:59Z</time>
      </trkpt>
      <trkpt lat="42.427940" lon="-7.942451">
        <ele>391.052</ele>
        <time>1970-01-11T01:59:59Z</time>
      </trkpt>
      <trkpt lat="42.427973" lon="-7.942460">
        <ele>391.250</ele>
        <time>1970-01-11T01:59:59Z</time>
      </trkpt>
      <trkpt lat="42.428007" lon="-7.942466">
        <ele>391.619</ele>
        <time>1970-01-11T01:59:59Z</time>
      </trkpt>
      <trkpt lat="42.428129" lon="-7.942489">
        <ele>392.494</ele>
        <time>1970-01-11T01:59:59Z</time>
      </trkpt>
      <trkpt lat="42.428193" lon="-7.942507">
        <ele>392.682</ele>
        <time>1970-01-11T01:59:59Z</time>
      </trkpt>
      <trkpt lat="42.428429" lon="-7.942571">
        <ele>393.281</ele>
        <time>1970-01-11T01:59:59Z</time>
      </trkpt>
      <trkpt lat="42.428503" lon="-7.942611">
        <ele>393.436</ele>
        <time>1970-01-11T01:59:59Z</time>
      </trkpt>
      <trkpt lat="42.428690" lon="-7.942692">
        <ele>394.017</ele>
        <time>1970-01-11T01:59:59Z</time>
      </trkpt>
      <trkpt lat="42.428770" lon="-7.942713">
        <ele>394.418</ele>
        <time>1970-01-11T01:59:59Z</time>
      </trkpt>
      <trkpt lat="42.428877" lon="-7.942771">
        <ele>395.008</ele>
        <time>1970-01-11T01:59:59Z</time>
      </trkpt>
      <trkpt lat="42.429106" lon="-7.942926">
        <ele>395.624</ele>
        <time>1970-01-11T01:59:59Z</time>
      </trkpt>
      <trkpt lat="42.429149" lon="-7.942983">
        <ele>395.831</ele>
        <time>1970-01-11T01:59:59Z</time>
      </trkpt>
      <trkpt lat="42.429206" lon="-7.943084">
        <ele>396.847</ele>
        <time>1970-01-11T01:59:59Z</time>
      </trkpt>
      <trkpt lat="42.429231" lon="-7.943118">
        <ele>397.035</ele>
        <time>1970-01-11T01:59:59Z</time>
      </trkpt>
      <trkpt lat="42.429408" lon="-7.943299">
        <ele>397.034</ele>
        <time>1970-01-11T01:59:59Z</time>
      </trkpt>
      <trkpt lat="42.429555" lon="-7.943407">
        <ele>395.849</ele>
        <time>1970-01-11T01:59:59Z</time>
      </trkpt>
      <trkpt lat="42.429658" lon="-7.943458">
        <ele>395.057</ele>
        <time>1970-01-11T01:59:59Z</time>
      </trkpt>
      <trkpt lat="42.429924" lon="-7.943638">
        <ele>395.456</ele>
        <time>1970-01-11T01:59:59Z</time>
      </trkpt>
      <trkpt lat="42.430013" lon="-7.943705">
        <ele>395.415</ele>
        <time>1970-01-11T01:59:59Z</time>
      </trkpt>
      <trkpt lat="42.430106" lon="-7.943778">
        <ele>395.065</ele>
        <time>1970-01-11T01:59:59Z</time>
      </trkpt>
      <trkpt lat="42.430162" lon="-7.943818">
        <ele>394.811</ele>
        <time>1970-01-11T01:59:59Z</time>
      </trkpt>
      <trkpt lat="42.430221" lon="-7.943859">
        <ele>394.608</ele>
        <time>1970-01-11T01:59:59Z</time>
      </trkpt>
      <trkpt lat="42.430388" lon="-7.943986">
        <ele>393.682</ele>
        <time>1970-01-11T01:59:59Z</time>
      </trkpt>
      <trkpt lat="42.430518" lon="-7.944070">
        <ele>392.639</ele>
        <time>1970-01-11T01:59:59Z</time>
      </trkpt>
      <trkpt lat="42.430582" lon="-7.944108">
        <ele>392.265</ele>
        <time>1970-01-11T01:59:59Z</time>
      </trkpt>
      <trkpt lat="42.430760" lon="-7.944231">
        <ele>391.073</ele>
        <time>1970-01-11T01:59:59Z</time>
      </trkpt>
      <trkpt lat="42.430810" lon="-7.944281">
        <ele>390.652</ele>
        <time>1970-01-11T01:59:59Z</time>
      </trkpt>
      <trkpt lat="42.430861" lon="-7.944330">
        <ele>390.277</ele>
        <time>1970-01-11T01:59:59Z</time>
      </trkpt>
      <trkpt lat="42.430986" lon="-7.944465">
        <ele>390.025</ele>
        <time>1970-01-11T01:59:59Z</time>
      </trkpt>
      <trkpt lat="42.431057" lon="-7.944554">
        <ele>389.464</ele>
        <time>1970-01-11T01:59:59Z</time>
      </trkpt>
      <trkpt lat="42.431095" lon="-7.944608">
        <ele>389.041</ele>
        <time>1970-01-11T01:59:59Z</time>
      </trkpt>
      <trkpt lat="42.431133" lon="-7.944658">
        <ele>388.681</ele>
        <time>1970-01-11T01:59:59Z</time>
      </trkpt>
      <trkpt lat="42.431205" lon="-7.944740">
        <ele>388.009</ele>
        <time>1970-01-11T01:59:59Z</time>
      </trkpt>
      <trkpt lat="42.431243" lon="-7.944780">
        <ele>387.608</ele>
        <time>1970-01-11T01:59:59Z</time>
      </trkpt>
      <trkpt lat="42.431359" lon="-7.944912">
        <ele>386.645</ele>
        <time>1970-01-11T01:59:59Z</time>
      </trkpt>
      <trkpt lat="42.431405" lon="-7.944977">
        <ele>386.472</ele>
        <time>1970-01-11T01:59:59Z</time>
      </trkpt>
      <trkpt lat="42.431532" lon="-7.945146">
        <ele>385.288</ele>
        <time>1970-01-11T01:59:59Z</time>
      </trkpt>
      <trkpt lat="42.431612" lon="-7.945264">
        <ele>384.286</ele>
        <time>1970-01-11T01:59:59Z</time>
      </trkpt>
      <trkpt lat="42.431649" lon="-7.945322">
        <ele>384.045</ele>
        <time>1970-01-11T01:59:59Z</time>
      </trkpt>
      <trkpt lat="42.431752" lon="-7.945511">
        <ele>383.230</ele>
        <time>1970-01-11T01:59:59Z</time>
      </trkpt>
      <trkpt lat="42.431768" lon="-7.945587">
        <ele>382.678</ele>
        <time>1970-01-11T01:59:59Z</time>
      </trkpt>
      <trkpt lat="42.431844" lon="-7.945933">
        <ele>381.497</ele>
        <time>1970-01-11T01:59:59Z</time>
      </trkpt>
      <trkpt lat="42.431874" lon="-7.946207">
        <ele>380.257</ele>
        <time>1970-01-11T01:59:59Z</time>
      </trkpt>
      <trkpt lat="42.431891" lon="-7.946297">
        <ele>380.000</ele>
        <time>1970-01-11T01:59:59Z</time>
      </trkpt>
      <trkpt lat="42.431910" lon="-7.946400">
        <ele>379.820</ele>
        <time>1970-01-11T01:59:59Z</time>
      </trkpt>
      <trkpt lat="42.431920" lon="-7.946494">
        <ele>379.608</ele>
        <time>1970-01-11T01:59:59Z</time>
      </trkpt>
      <trkpt lat="42.431936" lon="-7.946584">
        <ele>379.456</ele>
        <time>1970-01-11T01:59:59Z</time>
      </trkpt>
      <trkpt lat="42.431946" lon="-7.946615">
        <ele>379.253</ele>
        <time>1970-01-11T01:59:59Z</time>
      </trkpt>
      <trkpt lat="42.431969" lon="-7.946706">
        <ele>378.899</ele>
        <time>1970-01-11T01:59:59Z</time>
      </trkpt>
      <trkpt lat="42.431964" lon="-7.946704">
        <ele>378.497</ele>
        <time>1970-01-11T01:59:59Z</time>
      </trkpt>
      <trkpt lat="42.431962" lon="-7.946711">
        <ele>378.486</ele>
        <time>1970-01-11T01:59:59Z</time>
      </trkpt>
      <trkpt lat="42.431959" lon="-7.946717">
        <ele>378.221</ele>
        <time>1970-01-11T01:59:59Z</time>
      </trkpt>
      <trkpt lat="42.431959" lon="-7.946717">
        <ele>377.899</ele>
        <time>1970-01-11T01:59:59Z</time>
      </trkpt>
      <trkpt lat="42.431967" lon="-7.946823">
        <ele>378.078</ele>
        <time>1970-01-11T01:59:59Z</time>
      </trkpt>
      <trkpt lat="42.431960" lon="-7.946843">
        <ele>377.845</ele>
        <time>1970-01-11T01:59:59Z</time>
      </trkpt>
      <trkpt lat="42.431960" lon="-7.946843">
        <ele>377.447</ele>
        <time>1970-01-11T01:59:59Z</time>
      </trkpt>
      <trkpt lat="42.431960" lon="-7.946843">
        <ele>377.411</ele>
        <time>1970-01-11T01:59:59Z</time>
      </trkpt>
      <trkpt lat="42.431960" lon="-7.946843">
        <ele>377.408</ele>
        <time>1970-01-11T01:59:59Z</time>
      </trkpt>
      <trkpt lat="42.431960" lon="-7.946843">
        <ele>377.265</ele>
        <time>1970-01-11T01:59:59Z</time>
      </trkpt>
      <trkpt lat="42.431960" lon="-7.946843">
        <ele>377.292</ele>
        <time>1970-01-11T01:59:59Z</time>
      </trkpt>
      <trkpt lat="42.431960" lon="-7.946843">
        <ele>377.288</ele>
        <time>1970-01-11T01:59:59Z</time>
      </trkpt>
      <trkpt lat="42.431960" lon="-7.946843">
        <ele>377.436</ele>
        <time>1970-01-11T01:59:59Z</time>
      </trkpt>
      <trkpt lat="42.431960" lon="-7.946843">
        <ele>377.455</ele>
        <time>1970-01-11T01:59:59Z</time>
      </trkpt>
      <trkpt lat="42.431960" lon="-7.946843">
        <ele>377.430</ele>
        <time>1970-01-11T01:59:59Z</time>
      </trkpt>
      <trkpt lat="42.431960" lon="-7.946843">
        <ele>377.238</ele>
        <time>1970-01-11T01:59:59Z</time>
      </trkpt>
      <trkpt lat="42.431960" lon="-7.946843">
        <ele>377.227</ele>
        <time>1970-01-11T01:59:59Z</time>
      </trkpt>
      <trkpt lat="42.431960" lon="-7.946843">
        <ele>377.258</ele>
        <time>1970-01-11T01:59:59Z</time>
      </trkpt>
      <trkpt lat="42.431960" lon="-7.946843">
        <ele>377.252</ele>
        <time>1970-01-11T01:59:59Z</time>
      </trkpt>
      <trkpt lat="42.431960" lon="-7.946843">
        <ele>377.217</ele>
        <time>1970-01-11T01:59:59Z</time>
      </trkpt>
      <trkpt lat="42.431960" lon="-7.946843">
        <ele>377.208</ele>
        <time>1970-01-11T01:59:59Z</time>
      </trkpt>
      <trkpt lat="42.431958" lon="-7.946846">
        <ele>377.276</ele>
        <time>1970-01-11T01:59:59Z</time>
      </trkpt>
      <trkpt lat="42.431958" lon="-7.946846">
        <ele>377.263</ele>
        <time>1970-01-11T01:59:59Z</time>
      </trkpt>
      <trkpt lat="42.431958" lon="-7.946846">
        <ele>377.079</ele>
        <time>1970-01-11T01:59:59Z</time>
      </trkpt>
      <trkpt lat="42.431958" lon="-7.946846">
        <ele>377.097</ele>
        <time>1970-01-11T01:59:59Z</time>
      </trkpt>
      <trkpt lat="42.431958" lon="-7.946846">
        <ele>377.046</ele>
        <time>1970-01-11T01:59:59Z</time>
      </trkpt>
      <trkpt lat="42.431958" lon="-7.946846">
        <ele>377.091</ele>
        <time>1970-01-11T01:59:59Z</time>
      </trkpt>
      <trkpt lat="42.431958" lon="-7.946846">
        <ele>377.069</ele>
        <time>1970-01-11T01:59:59Z</time>
      </trkpt>
      <trkpt lat="42.431957" lon="-7.946851">
        <ele>377.028</ele>
        <time>1970-01-11T01:59:59Z</time>
      </trkpt>
      <trkpt lat="42.431957" lon="-7.946851">
        <ele>376.811</ele>
        <time>1970-01-11T01:59:59Z</time>
      </trkpt>
      <trkpt lat="42.431957" lon="-7.946851">
        <ele>376.821</ele>
        <time>1970-01-11T01:59:59Z</time>
      </trkpt>
      <trkpt lat="42.431957" lon="-7.946851">
        <ele>376.803</ele>
        <time>1970-01-11T01:59:59Z</time>
      </trkpt>
      <trkpt lat="42.431957" lon="-7.946851">
        <ele>376.808</ele>
        <time>1970-01-11T01:59:59Z</time>
      </trkpt>
      <trkpt lat="42.431957" lon="-7.946851">
        <ele>376.852</ele>
        <time>1970-01-11T01:59:59Z</time>
      </trkpt>
      <trkpt lat="42.431957" lon="-7.946851">
        <ele>377.019</ele>
        <time>1970-01-11T01:59:59Z</time>
      </trkpt>
      <trkpt lat="42.431957" lon="-7.946851">
        <ele>377.065</ele>
        <time>1970-01-11T01:59:59Z</time>
      </trkpt>
      <trkpt lat="42.431957" lon="-7.946851">
        <ele>377.033</ele>
        <time>1970-01-11T01:59:59Z</time>
      </trkpt>
      <trkpt lat="42.431957" lon="-7.946851">
        <ele>376.812</ele>
        <time>1970-01-11T01:59:59Z</time>
      </trkpt>
      <trkpt lat="42.431957" lon="-7.946851">
        <ele>376.887</ele>
        <time>1970-01-11T01:59:59Z</time>
      </trkpt>
      <trkpt lat="42.431955" lon="-7.946854">
        <ele>376.815</ele>
        <time>1970-01-11T01:59:59Z</time>
      </trkpt>
      <trkpt lat="42.431955" lon="-7.946854">
        <ele>377.094</ele>
        <time>1970-01-11T01:59:59Z</time>
      </trkpt>
      <trkpt lat="42.431955" lon="-7.946854">
        <ele>377.079</ele>
        <time>1970-01-11T01:59:59Z</time>
      </trkpt>
      <trkpt lat="42.431955" lon="-7.946854">
        <ele>377.005</ele>
        <time>1970-01-11T01:59:59Z</time>
      </trkpt>
      <trkpt lat="42.431955" lon="-7.946854">
        <ele>377.025</ele>
        <time>1970-01-11T01:59:59Z</time>
      </trkpt>
      <trkpt lat="42.431955" lon="-7.946854">
        <ele>376.808</ele>
        <time>1970-01-11T01:59:59Z</time>
      </trkpt>
      <trkpt lat="42.431955" lon="-7.946854">
        <ele>376.688</ele>
        <time>1970-01-11T01:59:59Z</time>
      </trkpt>
      <trkpt lat="42.431955" lon="-7.946854">
        <ele>376.665</ele>
        <time>1970-01-11T01:59:59Z</time>
      </trkpt>
      <trkpt lat="42.431955" lon="-7.946854">
        <ele>376.651</ele>
        <time>1970-01-11T01:59:59Z</time>
      </trkpt>
      <trkpt lat="42.431955" lon="-7.946855">
        <ele>376.469</ele>
        <time>1970-01-11T01:59:59Z</time>
      </trkpt>
      <trkpt lat="42.431955" lon="-7.946855">
        <ele>376.478</ele>
        <time>1970-01-11T01:59:59Z</time>
      </trkpt>
      <trkpt lat="42.431955" lon="-7.946855">
        <ele>376.423</ele>
        <time>1970-01-11T01:59:59Z</time>
      </trkpt>
      <trkpt lat="42.431955" lon="-7.946855">
        <ele>376.491</ele>
        <time>1970-01-11T01:59:59Z</time>
      </trkpt>
      <trkpt lat="42.431955" lon="-7.946855">
        <ele>376.410</ele>
        <time>1970-01-11T01:59:59Z</time>
      </trkpt>
      <trkpt lat="42.431955" lon="-7.946855">
        <ele>376.482</ele>
        <time>1970-01-11T01:59:59Z</time>
      </trkpt>
      <trkpt lat="42.431955" lon="-7.946855">
        <ele>376.443</ele>
        <time>1970-01-11T01:59:59Z</time>
      </trkpt>
      <trkpt lat="42.431955" lon="-7.946855">
        <ele>376.417</ele>
        <time>1970-01-11T01:59:59Z</time>
      </trkpt>
      <trkpt lat="42.431955" lon="-7.946855">
        <ele>376.408</ele>
        <time>1970-01-11T01:59:59Z</time>
      </trkpt>
      <trkpt lat="42.431955" lon="-7.946855">
        <ele>376.449</ele>
        <time>1970-01-11T01:59:59Z</time>
      </trkpt>
      <trkpt lat="42.431955" lon="-7.946855">
        <ele>376.436</ele>
        <time>1970-01-11T01:59:59Z</time>
      </trkpt>
      <trkpt lat="42.431955" lon="-7.946855">
        <ele>376.662</ele>
        <time>1970-01-11T01:59:59Z</time>
      </trkpt>
      <trkpt lat="42.431955" lon="-7.946855">
        <ele>376.650</ele>
        <time>1970-01-11T01:59:59Z</time>
      </trkpt>
      <trkpt lat="42.431955" lon="-7.946855">
        <ele>376.649</ele>
        <time>1970-01-11T01:59:59Z</time>
      </trkpt>
      <trkpt lat="42.431955" lon="-7.946855">
        <ele>376.654</ele>
        <time>1970-01-11T01:59:59Z</time>
      </trkpt>
      <trkpt lat="42.431955" lon="-7.946855">
        <ele>376.832</ele>
        <time>1970-01-11T01:59:59Z</time>
      </trkpt>
      <trkpt lat="42.431955" lon="-7.946855">
        <ele>377.021</ele>
        <time>1970-01-11T01:59:59Z</time>
      </trkpt>
      <trkpt lat="42.431955" lon="-7.946855">
        <ele>377.051</ele>
        <time>1970-01-11T01:59:59Z</time>
      </trkpt>
      <trkpt lat="42.431955" lon="-7.946855">
        <ele>376.801</ele>
        <time>1970-01-11T01:59:59Z</time>
      </trkpt>
      <trkpt lat="42.431955" lon="-7.946855">
        <ele>376.811</ele>
        <time>1970-01-11T01:59:59Z</time>
      </trkpt>
      <trkpt lat="42.431951" lon="-7.946865">
        <ele>376.808</ele>
        <time>1970-01-11T01:59:59Z</time>
      </trkpt>
      <trkpt lat="42.431951" lon="-7.946865">
        <ele>376.616</ele>
        <time>1970-01-11T01:59:59Z</time>
      </trkpt>
      <trkpt lat="42.431951" lon="-7.946865">
        <ele>376.683</ele>
        <time>1970-01-11T01:59:59Z</time>
      </trkpt>
      <trkpt lat="42.431951" lon="-7.946865">
        <ele>376.619</ele>
        <time>1970-01-11T01:59:59Z</time>
      </trkpt>
      <trkpt lat="42.431951" lon="-7.946865">
        <ele>376.697</ele>
        <time>1970-01-11T01:59:59Z</time>
      </trkpt>
      <trkpt lat="42.431951" lon="-7.946865">
        <ele>376.836</ele>
        <time>1970-01-11T01:59:59Z</time>
      </trkpt>
      <trkpt lat="42.431951" lon="-7.946865">
        <ele>376.881</ele>
        <time>1970-01-11T01:59:59Z</time>
      </trkpt>
      <trkpt lat="42.431951" lon="-7.946865">
        <ele>376.849</ele>
        <time>1970-01-11T01:59:59Z</time>
      </trkpt>
      <trkpt lat="42.431953" lon="-7.946866">
        <ele>376.858</ele>
        <time>1970-01-11T01:59:59Z</time>
      </trkpt>
      <trkpt lat="42.431953" lon="-7.946866">
        <ele>377.049</ele>
        <time>1970-01-11T01:59:59Z</time>
      </trkpt>
      <trkpt lat="42.431953" lon="-7.946866">
        <ele>377.002</ele>
        <time>1970-01-11T01:59:59Z</time>
      </trkpt>
      <trkpt lat="42.431953" lon="-7.946866">
        <ele>377.022</ele>
        <time>1970-01-11T01:59:59Z</time>
      </trkpt>
      <trkpt lat="42.431953" lon="-7.946866">
        <ele>376.808</ele>
        <time>1970-01-11T01:59:59Z</time>
      </trkpt>
      <trkpt lat="42.431949" lon="-7.946868">
        <ele>376.635</ele>
        <time>1970-01-11T01:59:59Z</time>
      </trkpt>
      <trkpt lat="42.431949" lon="-7.946868">
        <ele>376.632</ele>
        <time>1970-01-11T01:59:59Z</time>
      </trkpt>
      <trkpt lat="42.431949" lon="-7.946868">
        <ele>376.628</ele>
        <time>1970-01-11T01:59:59Z</time>
      </trkpt>
      <trkpt lat="42.431949" lon="-7.946868">
        <ele>376.636</ele>
        <time>1970-01-11T01:59:59Z</time>
      </trkpt>
      <trkpt lat="42.431949" lon="-7.946868">
        <ele>376.655</ele>
        <time>1970-01-11T01:59:59Z</time>
      </trkpt>
      <trkpt lat="42.431950" lon="-7.946873">
        <ele>377.080</ele>
        <time>1970-01-11T01:59:59Z</time>
      </trkpt>
      <trkpt lat="42.431950" lon="-7.946873">
        <ele>377.058</ele>
        <time>1970-01-11T01:59:59Z</time>
      </trkpt>
      <trkpt lat="42.431950" lon="-7.946873">
        <ele>376.677</ele>
        <time>1970-01-11T01:59:59Z</time>
      </trkpt>
      <trkpt lat="42.431950" lon="-7.946873">
        <ele>376.277</ele>
        <time>1970-01-11T01:59:59Z</time>
      </trkpt>
      <trkpt lat="42.431950" lon="-7.946873">
        <ele>376.061</ele>
        <time>1970-01-11T01:59:59Z</time>
      </trkpt>
      <trkpt lat="42.431950" lon="-7.946873">
        <ele>376.027</ele>
        <time>1970-01-11T01:59:59Z</time>
      </trkpt>
      <trkpt lat="42.431950" lon="-7.946873">
        <ele>376.008</ele>
        <time>1970-01-11T01:59:59Z</time>
      </trkpt>
      <trkpt lat="42.431950" lon="-7.946873">
        <ele>375.838</ele>
        <time>1970-01-11T01:59:59Z</time>
      </trkpt>
      <trkpt lat="42.431950" lon="-7.946873">
        <ele>375.815</ele>
        <time>1970-01-11T01:59:59Z</time>
      </trkpt>
      <trkpt lat="42.431950" lon="-7.946873">
        <ele>375.861</ele>
        <time>1970-01-11T01:59:59Z</time>
      </trkpt>
      <trkpt lat="42.431950" lon="-7.946873">
        <ele>375.869</ele>
        <time>1970-01-11T01:59:59Z</time>
      </trkpt>
      <trkpt lat="42.431950" lon="-7.946879">
        <ele>375.838</ele>
        <time>1970-01-11T01:59:59Z</time>
      </trkpt>
      <trkpt lat="42.431950" lon="-7.946879">
        <ele>375.823</ele>
        <time>1970-01-11T01:59:59Z</time>
      </trkpt>
      <trkpt lat="42.431950" lon="-7.946879">
        <ele>375.831</ele>
        <time>1970-01-11T01:59:59Z</time>
      </trkpt>
      <trkpt lat="42.431950" lon="-7.946879">
        <ele>376.030</ele>
        <time>1970-01-11T01:59:59Z</time>
      </trkpt>
      <trkpt lat="42.431950" lon="-7.946879">
        <ele>376.076</ele>
        <time>1970-01-11T01:59:59Z</time>
      </trkpt>
      <trkpt lat="42.431950" lon="-7.946879">
        <ele>376.090</ele>
        <time>1970-01-11T01:59:59Z</time>
      </trkpt>
      <trkpt lat="42.431950" lon="-7.946879">
        <ele>376.019</ele>
        <time>1970-01-11T01:59:59Z</time>
      </trkpt>
      <trkpt lat="42.431950" lon="-7.946879">
        <ele>376.008</ele>
        <time>1970-01-11T01:59:59Z</time>
      </trkpt>
      <trkpt lat="42.431950" lon="-7.946879">
        <ele>376.088</ele>
        <time>1970-01-11T01:59:59Z</time>
      </trkpt>
      <trkpt lat="42.431950" lon="-7.946879">
        <ele>375.855</ele>
        <time>1970-01-11T01:59:59Z</time>
      </trkpt>
      <trkpt lat="42.431956" lon="-7.946875">
        <ele>375.611</ele>
        <time>1970-01-11T01:59:59Z</time>
      </trkpt>
      <trkpt lat="42.431956" lon="-7.946875">
        <ele>375.859</ele>
        <time>1970-01-11T01:59:59Z</time>
      </trkpt>
      <trkpt lat="42.431965" lon="-7.946872">
        <ele>375.478</ele>
        <time>1970-01-11T01:59:59Z</time>
      </trkpt>
      <trkpt lat="42.431978" lon="-7.946871">
        <ele>375.443</ele>
        <time>1970-01-11T01:59:59Z</time>
      </trkpt>
      <trkpt lat="42.431988" lon="-7.946870">
        <ele>375.441</ele>
        <time>1970-01-11T01:59:59Z</time>
      </trkpt>
      <trkpt lat="42.431991" lon="-7.946868">
        <ele>375.460</ele>
        <time>1970-01-11T01:59:59Z</time>
      </trkpt>
      <trkpt lat="42.431993" lon="-7.946867">
        <ele>375.456</ele>
        <time>1970-01-11T01:59:59Z</time>
      </trkpt>
      <trkpt lat="42.431993" lon="-7.946867">
        <ele>375.459</ele>
        <time>1970-01-11T01:59:59Z</time>
      </trkpt>
      <trkpt lat="42.431993" lon="-7.946867">
        <ele>375.414</ele>
        <time>1970-01-11T01:59:59Z</time>
      </trkpt>
      <trkpt lat="42.431993" lon="-7.946867">
        <ele>375.408</ele>
        <time>1970-01-11T01:59:59Z</time>
      </trkpt>
      <trkpt lat="42.431993" lon="-7.946867">
        <ele>375.456</ele>
        <time>1970-01-11T01:59:59Z</time>
      </trkpt>
      <trkpt lat="42.431993" lon="-7.946867">
        <ele>375.493</ele>
        <time>1970-01-11T01:59:59Z</time>
      </trkpt>
      <trkpt lat="42.431993" lon="-7.946867">
        <ele>375.299</ele>
        <time>1970-01-11T01:59:59Z</time>
      </trkpt>
      <trkpt lat="42.431993" lon="-7.946867">
        <ele>375.237</ele>
        <time>1970-01-11T01:59:59Z</time>
      </trkpt>
      <trkpt lat="42.431993" lon="-7.946867">
        <ele>375.016</ele>
        <time>1970-01-11T01:59:59Z</time>
      </trkpt>
      <trkpt lat="42.431993" lon="-7.946867">
        <ele>375.021</ele>
        <time>1970-01-11T01:59:59Z</time>
      </trkpt>
      <trkpt lat="42.431993" lon="-7.946867">
        <ele>375.099</ele>
        <time>1970-01-11T01:59:59Z</time>
      </trkpt>
      <trkpt lat="42.431993" lon="-7.946866">
        <ele>374.828</ele>
        <time>1970-01-11T01:59:59Z</time>
      </trkpt>
      <trkpt lat="42.431993" lon="-7.946866">
        <ele>374.856</ele>
        <time>1970-01-11T01:59:59Z</time>
      </trkpt>
      <trkpt lat="42.431993" lon="-7.946866">
        <ele>375.259</ele>
        <time>1970-01-11T01:59:59Z</time>
      </trkpt>
      <trkpt lat="42.431993" lon="-7.946866">
        <ele>375.214</ele>
        <time>1970-01-11T01:59:59Z</time>
      </trkpt>
      <trkpt lat="42.431993" lon="-7.946866">
        <ele>375.208</ele>
        <time>1970-01-11T01:59:59Z</time>
      </trkpt>
      <trkpt lat="42.431993" lon="-7.946866">
        <ele>375.236</ele>
        <time>1970-01-11T01:59:59Z</time>
      </trkpt>
      <trkpt lat="42.431993" lon="-7.946866">
        <ele>375.443</ele>
        <time>1970-01-11T01:59:59Z</time>
      </trkpt>
      <trkpt lat="42.431993" lon="-7.946866">
        <ele>375.429</ele>
        <time>1970-01-11T01:59:59Z</time>
      </trkpt>
      <trkpt lat="42.431993" lon="-7.946866">
        <ele>375.467</ele>
        <time>1970-01-11T01:59:59Z</time>
      </trkpt>
      <trkpt lat="42.431993" lon="-7.946866">
        <ele>375.296</ele>
        <time>1970-01-11T01:59:59Z</time>
      </trkpt>
      <trkpt lat="42.431993" lon="-7.946866">
        <ele>375.011</ele>
        <time>1970-01-11T01:59:59Z</time>
      </trkpt>
      <trkpt lat="42.431991" lon="-7.946864">
        <ele>375.019</ele>
        <time>1970-01-11T01:59:59Z</time>
      </trkpt>
      <trkpt lat="42.431991" lon="-7.946864">
        <ele>375.098</ele>
        <time>1970-01-11T01:59:59Z</time>
      </trkpt>
      <trkpt lat="42.431991" lon="-7.946864">
        <ele>375.075</ele>
        <time>1970-01-11T01:59:59Z</time>
      </trkpt>
      <trkpt lat="42.431991" lon="-7.946864">
        <ele>375.028</ele>
        <time>1970-01-11T01:59:59Z</time>
      </trkpt>
      <trkpt lat="42.431991" lon="-7.946864">
        <ele>375.020</ele>
        <time>1970-01-11T01:59:59Z</time>
      </trkpt>
      <trkpt lat="42.431991" lon="-7.946864">
        <ele>375.008</ele>
        <time>1970-01-11T01:59:59Z</time>
      </trkpt>
      <trkpt lat="42.431984" lon="-7.946844">
        <ele>375.038</ele>
        <time>1970-01-11T01:59:59Z</time>
      </trkpt>
      <trkpt lat="42.431982" lon="-7.946840">
        <ele>375.035</ele>
        <time>1970-01-11T01:59:59Z</time>
      </trkpt>
      <trkpt lat="42.431982" lon="-7.946840">
        <ele>375.051</ele>
        <time>1970-01-11T01:59:59Z</time>
      </trkpt>
      <trkpt lat="42.431982" lon="-7.946840">
        <ele>375.039</ele>
        <time>1970-01-11T01:59:59Z</time>
      </trkpt>
      <trkpt lat="42.431982" lon="-7.946840">
        <ele>375.288</ele>
        <time>1970-01-11T01:59:59Z</time>
      </trkpt>
      <trkpt lat="42.431982" lon="-7.946840">
        <ele>375.243</ele>
        <time>1970-01-11T02:00:00Z</time>
      </trkpt>
      <trkpt lat="42.431982" lon="-7.946840">
        <ele>375.231</ele>
        <time>1970-01-11T02:00:00Z</time>
      </trkpt>
      <trkpt lat="42.431982" lon="-7.946840">
        <ele>375.270</ele>
        <time>1970-01-11T02:00:00Z</time>
      </trkpt>
      <trkpt lat="42.431982" lon="-7.946840">
        <ele>375.282</ele>
        <time>1970-01-11T02:00:00Z</time>
      </trkpt>
      <trkpt lat="42.431982" lon="-7.946840">
        <ele>375.043</ele>
        <time>1970-01-11T02:00:00Z</time>
      </trkpt>
      <trkpt lat="42.431982" lon="-7.946840">
        <ele>375.017</ele>
        <time>1970-01-11T02:00:00Z</time>
      </trkpt>
      <trkpt lat="42.431982" lon="-7.946840">
        <ele>375.008</ele>
        <time>1970-01-11T02:00:00Z</time>
      </trkpt>
      <trkpt lat="42.431982" lon="-7.946840">
        <ele>375.049</ele>
        <time>1970-01-11T02:00:00Z</time>
      </trkpt>
      <trkpt lat="42.431982" lon="-7.946840">
        <ele>375.066</ele>
        <time>1970-01-11T02:00:00Z</time>
      </trkpt>
      <trkpt lat="42.431982" lon="-7.946840">
        <ele>375.262</ele>
        <time>1970-01-11T02:00:00Z</time>
      </trkpt>
      <trkpt lat="42.431982" lon="-7.946840">
        <ele>375.420</ele>
        <time>1970-01-11T02:00:00Z</time>
      </trkpt>
      <trkpt lat="42.431982" lon="-7.946840">
        <ele>375.459</ele>
        <time>1970-01-11T02:00:00Z</time>
      </trkpt>
      <trkpt lat="42.431982" lon="-7.946840">
        <ele>375.244</ele>
        <time>1970-01-11T02:00:00Z</time>
      </trkpt>
      <trkpt lat="42.431980" lon="-7.946844">
        <ele>375.292</ele>
        <time>1970-01-11T02:00:00Z</time>
      </trkpt>
      <trkpt lat="42.431980" lon="-7.946844">
        <ele>375.211</ele>
        <time>1970-01-11T02:00:00Z</time>
      </trkpt>
      <trkpt lat="42.431979" lon="-7.946841">
        <ele>375.242</ele>
        <time>1970-01-11T02:00:00Z</time>
      </trkpt>
      <trkpt lat="42.431975" lon="-7.946849">
        <ele>375.422</ele>
        <time>1970-01-11T02:00:00Z</time>
      </trkpt>
      <trkpt lat="42.432019" lon="-7.946869">
        <ele>375.414</ele>
        <time>1970-01-11T02:00:00Z</time>
      </trkpt>
      <trkpt lat="42.432040" lon="-7.946869">
        <ele>375.208</ele>
        <time>1970-01-11T02:00:00Z</time>
      </trkpt>
      <trkpt lat="42.432062" lon="-7.946868">
        <ele>375.235</ele>
        <time>1970-01-11T02:00:00Z</time>
      </trkpt>
      <trkpt lat="42.432071" lon="-7.946869">
        <ele>375.442</ele>
        <time>1970-01-11T02:00:00Z</time>
      </trkpt>
      <trkpt lat="42.432071" lon="-7.946869">
        <ele>375.438</ele>
        <time>1970-01-11T02:00:00Z</time>
      </trkpt>
      <trkpt lat="42.432079" lon="-7.946865">
        <ele>375.036</ele>
        <time>1970-01-11T02:00:00Z</time>
      </trkpt>
      <trkpt lat="42.432088" lon="-7.946862">
        <ele>375.075</ele>
        <time>1970-01-11T02:00:00Z</time>
      </trkpt>
      <trkpt lat="42.432110" lon="-7.946861">
        <ele>375.070</ele>
        <time>1970-01-11T02:00:00Z</time>
      </trkpt>
      <trkpt lat="42.432124" lon="-7.946861">
        <ele>374.858</ele>
        <time>1970-01-11T02:00:00Z</time>
      </trkpt>
      <trkpt lat="42.432136" lon="-7.946858">
        <ele>374.857</ele>
        <time>1970-01-11T02:00:00Z</time>
      </trkpt>
      <trkpt lat="42.432136" lon="-7.946858">
        <ele>374.663</ele>
        <time>1970-01-11T02:00:00Z</time>
      </trkpt>
      <trkpt lat="42.432136" lon="-7.946858">
        <ele>374.644</ele>
        <time>1970-01-11T02:00:00Z</time>
      </trkpt>
      <trkpt lat="42.432136" lon="-7.946858">
        <ele>374.618</ele>
        <time>1970-01-11T02:00:00Z</time>
      </trkpt>
      <trkpt lat="42.432136" lon="-7.946858">
        <ele>374.608</ele>
        <time>1970-01-11T02:00:00Z</time>
      </trkpt>
      <trkpt lat="42.432136" lon="-7.946858">
        <ele>374.647</ele>
        <time>1970-01-11T02:00:00Z</time>
      </trkpt>
      <trkpt lat="42.432136" lon="-7.946858">
        <ele>374.614</ele>
        <time>1970-01-11T02:00:00Z</time>
      </trkpt>
      <trkpt lat="42.432136" lon="-7.946858">
        <ele>374.880</ele>
        <time>1970-01-11T02:00:00Z</time>
      </trkpt>
      <trkpt lat="42.432136" lon="-7.946858">
        <ele>374.858</ele>
        <time>1970-01-11T02:00:00Z</time>
      </trkpt>
      <trkpt lat="42.432136" lon="-7.946858">
        <ele>374.817</ele>
        <time>1970-01-11T02:00:00Z</time>
      </trkpt>
      <trkpt lat="42.432136" lon="-7.946858">
        <ele>374.832</ele>
        <time>1970-01-11T02:00:00Z</time>
      </trkpt>
      <trkpt lat="42.432100" lon="-7.946815">
        <ele>374.810</ele>
        <time>1970-01-11T02:00:00Z</time>
      </trkpt>
      <trkpt lat="42.432096" lon="-7.946803">
        <ele>374.859</ele>
        <time>1970-01-11T02:00:00Z</time>
      </trkpt>
      <trkpt lat="42.432098" lon="-7.946797">
        <ele>374.895</ele>
        <time>1970-01-11T02:00:00Z</time>
      </trkpt>
      <trkpt lat="42.432105" lon="-7.946794">
        <ele>374.449</ele>
        <time>1970-01-11T02:00:00Z</time>
      </trkpt>
      <trkpt lat="42.432105" lon="-7.946794">
        <ele>374.423</ele>
        <time>1970-01-11T02:00:00Z</time>
      </trkpt>
      <trkpt lat="42.432105" lon="-7.946794">
        <ele>374.408</ele>
        <time>1970-01-11T02:00:00Z</time>
      </trkpt>
      <trkpt lat="42.432105" lon="-7.946794">
        <ele>374.610</ele>
        <time>1970-01-11T02:00:00Z</time>
      </trkpt>
      <trkpt lat="42.432105" lon="-7.946794">
        <ele>374.817</ele>
        <time>1970-01-11T02:00:00Z</time>
      </trkpt>
      <trkpt lat="42.432105" lon="-7.946794">
        <ele>374.863</ele>
        <time>1970-01-11T02:00:00Z</time>
      </trkpt>
      <trkpt lat="42.432105" lon="-7.946794">
        <ele>374.661</ele>
        <time>1970-01-11T02:00:00Z</time>
      </trkpt>
      <trkpt lat="42.432105" lon="-7.946794">
        <ele>374.670</ele>
        <time>1970-01-11T02:00:00Z</time>
      </trkpt>
      <trkpt lat="42.432105" lon="-7.946794">
        <ele>374.685</ele>
        <time>1970-01-11T02:00:00Z</time>
      </trkpt>
      <trkpt lat="42.432105" lon="-7.946794">
        <ele>374.653</ele>
        <time>1970-01-11T02:00:00Z</time>
      </trkpt>
      <trkpt lat="42.432105" lon="-7.946794">
        <ele>374.842</ele>
        <time>1970-01-11T02:00:00Z</time>
      </trkpt>
      <trkpt lat="42.432105" lon="-7.946794">
        <ele>374.899</ele>
        <time>1970-01-11T02:00:00Z</time>
      </trkpt>
      <trkpt lat="42.432105" lon="-7.946794">
        <ele>374.807</ele>
        <time>1970-01-11T02:00:00Z</time>
      </trkpt>
      <trkpt lat="42.432098" lon="-7.946794">
        <ele>374.627</ele>
        <time>1970-01-11T02:00:00Z</time>
      </trkpt>
      <trkpt lat="42.432098" lon="-7.946794">
        <ele>374.608</ele>
        <time>1970-01-11T02:00:00Z</time>
      </trkpt>
      <trkpt lat="42.432098" lon="-7.946794">
        <ele>374.660</ele>
        <time>1970-01-11T02:00:00Z</time>
      </trkpt>
      <trkpt lat="42.432098" lon="-7.946794">
        <ele>374.877</ele>
        <time>1970-01-11T02:00:00Z</time>
      </trkpt>
      <trkpt lat="42.432098" lon="-7.946794">
        <ele>374.833</ele>
        <time>1970-01-11T02:00:00Z</time>
      </trkpt>
      <trkpt lat="42.432098" lon="-7.946794">
        <ele>375.031</ele>
        <time>1970-01-11T02:00:00Z</time>
      </trkpt>
      <trkpt lat="42.432098" lon="-7.946794">
        <ele>375.060</ele>
        <time>1970-01-11T02:00:00Z</time>
      </trkpt>
      <trkpt lat="42.432098" lon="-7.946794">
        <ele>375.025</ele>
        <time>1970-01-11T02:00:00Z</time>
      </trkpt>
      <trkpt lat="42.432098" lon="-7.946794">
        <ele>375.053</ele>
        <time>1970-01-11T02:00:00Z</time>
      </trkpt>
      <trkpt lat="42.432098" lon="-7.946794">
        <ele>375.042</ele>
        <time>1970-01-11T02:00:00Z</time>
      </trkpt>
      <trkpt lat="42.432098" lon="-7.946794">
        <ele>375.067</ele>
        <time>1970-01-11T02:00:00Z</time>
      </trkpt>
      <trkpt lat="42.432098" lon="-7.946794">
        <ele>375.081</ele>
        <time>1970-01-11T02:00:00Z</time>
      </trkpt>
      <trkpt lat="42.432098" lon="-7.946794">
        <ele>375.019</ele>
        <time>1970-01-11T02:00:00Z</time>
      </trkpt>
      <trkpt lat="42.432098" lon="-7.946794">
        <ele>375.208</ele>
        <time>1970-01-11T02:00:00Z</time>
      </trkpt>
      <trkpt lat="42.432090" lon="-7.946794">
        <ele>375.027</ele>
        <time>1970-01-11T02:00:00Z</time>
      </trkpt>
      <trkpt lat="42.432090" lon="-7.946794">
        <ele>375.094</ele>
        <time>1970-01-11T02:00:00Z</time>
      </trkpt>
      <trkpt lat="42.432090" lon="-7.946794">
        <ele>375.080</ele>
        <time>1970-01-11T02:00:00Z</time>
      </trkpt>
      <trkpt lat="42.432090" lon="-7.946794">
        <ele>375.018</ele>
        <time>1970-01-11T02:00:00Z</time>
      </trkpt>
      <trkpt lat="42.432090" lon="-7.946794">
        <ele>375.017</ele>
        <time>1970-01-11T02:00:00Z</time>
      </trkpt>
      <trkpt lat="42.432090" lon="-7.946794">
        <ele>374.852</ele>
        <time>1970-01-11T02:00:00Z</time>
      </trkpt>
      <trkpt lat="42.432090" lon="-7.946794">
        <ele>374.870</ele>
        <time>1970-01-11T02:00:00Z</time>
      </trkpt>
      <trkpt lat="42.432090" lon="-7.946794">
        <ele>374.499</ele>
        <time>1970-01-11T02:00:00Z</time>
      </trkpt>
      <trkpt lat="42.432090" lon="-7.946794">
        <ele>374.492</ele>
        <time>1970-01-11T02:00:00Z</time>
      </trkpt>
      <trkpt lat="42.432090" lon="-7.946794">
        <ele>374.473</ele>
        <time>1970-01-11T02:00:00Z</time>
      </trkpt>
      <trkpt lat="42.432090" lon="-7.946794">
        <ele>374.620</ele>
        <time>1970-01-11T02:00:00Z</time>
      </trkpt>
      <trkpt lat="42.432090" lon="-7.946794">
        <ele>374.608</ele>
        <time>1970-01-11T02:00:00Z</time>
      </trkpt>
      <trkpt lat="42.432090" lon="-7.946794">
        <ele>374.860</ele>
        <time>1970-01-11T02:00:00Z</time>
      </trkpt>
      <trkpt lat="42.432090" lon="-7.946794">
        <ele>375.057</ele>
        <time>1970-01-11T02:00:00Z</time>
      </trkpt>
      <trkpt lat="42.432090" lon="-7.946794">
        <ele>375.013</ele>
        <time>1970-01-11T02:00:00Z</time>
      </trkpt>
      <trkpt lat="42.432090" lon="-7.946794">
        <ele>375.041</ele>
        <time>1970-01-11T02:00:00Z</time>
      </trkpt>
      <trkpt lat="42.432086" lon="-7.946794">
        <ele>374.810</ele>
        <time>1970-01-11T02:00:00Z</time>
      </trkpt>
      <trkpt lat="42.432086" lon="-7.946794">
        <ele>374.685</ele>
        <time>1970-01-11T02:00:00Z</time>
      </trkpt>
      <trkpt lat="42.432086" lon="-7.946794">
        <ele>374.633</ele>
        <time>1970-01-11T02:00:00Z</time>
      </trkpt>
      <trkpt lat="42.432086" lon="-7.946794">
        <ele>374.612</ele>
        <time>1970-01-11T02:00:00Z</time>
      </trkpt>
      <trkpt lat="42.432086" lon="-7.946794">
        <ele>374.623</ele>
        <time>1970-01-11T02:00:00Z</time>
      </trkpt>
      <trkpt lat="42.432086" lon="-7.946794">
        <ele>374.683</ele>
        <time>1970-01-11T02:00:00Z</time>
      </trkpt>
      <trkpt lat="42.432086" lon="-7.946794">
        <ele>374.411</ele>
        <time>1970-01-11T02:00:00Z</time>
      </trkpt>
      <trkpt lat="42.432086" lon="-7.946794">
        <ele>374.408</ele>
        <time>1970-01-11T02:00:00Z</time>
      </trkpt>
      <trkpt lat="42.432084" lon="-7.946792">
        <ele>374.243</ele>
        <time>1970-01-11T02:00:00Z</time>
      </trkpt>
      <trkpt lat="42.432084" lon="-7.946792">
        <ele>374.210</ele>
        <time>1970-01-11T02:00:00Z</time>
      </trkpt>
      <trkpt lat="42.432084" lon="-7.946792">
        <ele>374.676</ele>
        <time>1970-01-11T02:00:00Z</time>
      </trkpt>
      <trkpt lat="42.432084" lon="-7.946792">
        <ele>374.884</ele>
        <time>1970-01-11T02:00:00Z</time>
      </trkpt>
      <trkpt lat="42.432084" lon="-7.946792">
        <ele>374.873</ele>
        <time>1970-01-11T02:00:00Z</time>
      </trkpt>
      <trkpt lat="42.432084" lon="-7.946792">
        <ele>374.868</ele>
        <time>1970-01-11T02:00:00Z</time>
      </trkpt>
      <trkpt lat="42.432084" lon="-7.946792">
        <ele>374.846</ele>
        <time>1970-01-11T02:00:00Z</time>
      </trkpt>
      <trkpt lat="42.432084" lon="-7.946792">
        <ele>374.655</ele>
        <time>1970-01-11T02:00:00Z</time>
      </trkpt>
      <trkpt lat="42.432084" lon="-7.946792">
        <ele>374.678</ele>
        <time>1970-01-11T02:00:00Z</time>
      </trkpt>
      <trkpt lat="42.432084" lon="-7.946792">
        <ele>374.633</ele>
        <time>1970-01-11T02:00:00Z</time>
      </trkpt>
      <trkpt lat="42.432084" lon="-7.946792">
        <ele>374.426</ele>
        <time>1970-01-11T02:00:00Z</time>
      </trkpt>
      <trkpt lat="42.432084" lon="-7.946792">
        <ele>374.408</ele>
        <time>1970-01-11T02:00:00Z</time>
      </trkpt>
      <trkpt lat="42.432084" lon="-7.946792">
        <ele>374.428</ele>
        <time>1970-01-11T02:00:00Z</time>
      </trkpt>
      <trkpt lat="42.432080" lon="-7.946793">
        <ele>374.435</ele>
        <time>1970-01-11T02:00:00Z</time>
      </trkpt>
      <trkpt lat="42.432080" lon="-7.946793">
        <ele>374.421</ele>
        <time>1970-01-11T02:00:00Z</time>
      </trkpt>
      <trkpt lat="42.432080" lon="-7.946793">
        <ele>374.439</ele>
        <time>1970-01-11T02:00:00Z</time>
      </trkpt>
      <trkpt lat="42.432080" lon="-7.946793">
        <ele>374.448</ele>
        <time>1970-01-11T02:00:00Z</time>
      </trkpt>
      <trkpt lat="42.432080" lon="-7.946793">
        <ele>374.493</ele>
        <time>1970-01-11T02:00:00Z</time>
      </trkpt>
      <trkpt lat="42.432080" lon="-7.946793">
        <ele>374.291</ele>
        <time>1970-01-11T02:00:00Z</time>
      </trkpt>
      <trkpt lat="42.432080" lon="-7.946793">
        <ele>374.210</ele>
        <time>1970-01-11T02:00:00Z</time>
      </trkpt>
      <trkpt lat="42.432080" lon="-7.946793">
        <ele>374.251</ele>
        <time>1970-01-11T02:00:00Z</time>
      </trkpt>
      <trkpt lat="42.432080" lon="-7.946793">
        <ele>374.201</ele>
        <time>1970-01-11T02:00:00Z</time>
      </trkpt>
      <trkpt lat="42.432080" lon="-7.946793">
        <ele>374.011</ele>
        <time>1970-01-11T02:00:00Z</time>
      </trkpt>
      <trkpt lat="42.432080" lon="-7.946793">
        <ele>374.008</ele>
        <time>1970-01-11T02:00:00Z</time>
      </trkpt>
      <trkpt lat="42.432080" lon="-7.946793">
        <ele>374.036</ele>
        <time>1970-01-11T02:00:00Z</time>
      </trkpt>
      <trkpt lat="42.432080" lon="-7.946793">
        <ele>374.093</ele>
        <time>1970-01-11T02:00:00Z</time>
      </trkpt>
      <trkpt lat="42.432080" lon="-7.946793">
        <ele>374.039</ele>
        <time>1970-01-11T02:00:00Z</time>
      </trkpt>
      <trkpt lat="42.432080" lon="-7.946793">
        <ele>374.087</ele>
        <time>1970-01-11T02:00:00Z</time>
      </trkpt>
      <trkpt lat="42.432080" lon="-7.946793">
        <ele>374.226</ele>
        <time>1970-01-11T02:00:00Z</time>
      </trkpt>
      <trkpt lat="42.432079" lon="-7.946794">
        <ele>374.041</ele>
        <time>1970-01-11T02:00:00Z</time>
      </trkpt>
      <trkpt lat="42.432079" lon="-7.946794">
        <ele>374.019</ele>
        <time>1970-01-11T02:00:00Z</time>
      </trkpt>
      <trkpt lat="42.432079" lon="-7.946794">
        <ele>374.078</ele>
        <time>1970-01-11T02:00:00Z</time>
      </trkpt>
      <trkpt lat="42.432079" lon="-7.946794">
        <ele>374.086</ele>
        <time>1970-01-11T02:00:00Z</time>
      </trkpt>
      <trkpt lat="42.432079" lon="-7.946794">
        <ele>373.860</ele>
        <time>1970-01-11T02:00:00Z</time>
      </trkpt>
      <trkpt lat="42.432079" lon="-7.946794">
        <ele>373.826</ele>
        <time>1970-01-11T02:00:00Z</time>
      </trkpt>
      <trkpt lat="42.432079" lon="-7.946794">
        <ele>373.808</ele>
        <time>1970-01-11T02:00:00Z</time>
      </trkpt>
      <trkpt lat="42.432079" lon="-7.946794">
        <ele>373.639</ele>
        <time>1970-01-11T02:00:00Z</time>
      </trkpt>
      <trkpt lat="42.432079" lon="-7.946794">
        <ele>373.696</ele>
        <time>1970-01-11T02:00:00Z</time>
      </trkpt>
      <trkpt lat="42.432079" lon="-7.946794">
        <ele>373.452</ele>
        <time>1970-01-11T02:00:00Z</time>
      </trkpt>
      <trkpt lat="42.432080" lon="-7.946796">
        <ele>373.680</ele>
        <time>1970-01-11T02:00:00Z</time>
      </trkpt>
      <trkpt lat="42.432080" lon="-7.946796">
        <ele>373.699</ele>
        <time>1970-01-11T02:00:00Z</time>
      </trkpt>
      <trkpt lat="42.432080" lon="-7.946796">
        <ele>373.854</ele>
        <time>1970-01-11T02:00:00Z</time>
      </trkpt>
      <trkpt lat="42.432080" lon="-7.946796">
        <ele>373.822</ele>
        <time>1970-01-11T02:00:00Z</time>
      </trkpt>
      <trkpt lat="42.432080" lon="-7.946796">
        <ele>373.841</ele>
        <time>1970-01-11T02:00:00Z</time>
      </trkpt>
      <trkpt lat="42.432080" lon="-7.946796">
        <ele>373.634</ele>
        <time>1970-01-11T02:00:00Z</time>
      </trkpt>
      <trkpt lat="42.432080" lon="-7.946796">
        <ele>373.655</ele>
        <time>1970-01-11T02:00:00Z</time>
      </trkpt>
      <trkpt lat="42.432080" lon="-7.946796">
        <ele>373.610</ele>
        <time>1970-01-11T02:00:00Z</time>
      </trkpt>
      <trkpt lat="42.432080" lon="-7.946796">
        <ele>373.608</ele>
        <time>1970-01-11T02:00:00Z</time>
      </trkpt>
      <trkpt lat="42.432080" lon="-7.946796">
        <ele>373.684</ele>
        <time>1970-01-11T02:00:00Z</time>
      </trkpt>
      <trkpt lat="42.432080" lon="-7.946796">
        <ele>373.621</ele>
        <time>1970-01-11T02:00:00Z</time>
      </trkpt>
      <trkpt lat="42.432063" lon="-7.946796">
        <ele>373.497</ele>
        <time>1970-01-11T02:00:00Z</time>
      </trkpt>
      <trkpt lat="42.432052" lon="-7.946799">
        <ele>373.425</ele>
        <time>1970-01-11T02:00:00Z</time>
      </trkpt>
      <trkpt lat="42.432035" lon="-7.946805">
        <ele>373.494</ele>
        <time>1970-01-11T02:00:00Z</time>
      </trkpt>
      <trkpt lat="42.432031" lon="-7.946811">
        <ele>373.249</ele>
        <time>1970-01-11T02:00:00Z</time>
      </trkpt>
      <trkpt lat="42.432031" lon="-7.946811">
        <ele>373.217</ele>
        <time>1970-01-11T02:00:00Z</time>
      </trkpt>
      <trkpt lat="42.432031" lon="-7.946811">
        <ele>373.266</ele>
        <time>1970-01-11T02:00:00Z</time>
      </trkpt>
      <trkpt lat="42.432031" lon="-7.946811">
        <ele>373.213</ele>
        <time>1970-01-11T02:00:00Z</time>
      </trkpt>
      <trkpt lat="42.432031" lon="-7.946811">
        <ele>373.243</ele>
        <time>1970-01-11T02:00:00Z</time>
      </trkpt>
      <trkpt lat="42.432031" lon="-7.946811">
        <ele>373.207</ele>
        <time>1970-01-11T02:00:00Z</time>
      </trkpt>
      <trkpt lat="42.432017" lon="-7.946825">
        <ele>373.208</ele>
        <time>1970-01-11T02:00:00Z</time>
      </trkpt>
      <trkpt lat="42.432013" lon="-7.946833">
        <ele>373.252</ele>
        <time>1970-01-11T02:00:00Z</time>
      </trkpt>
      <trkpt lat="42.432013" lon="-7.946837">
        <ele>373.489</ele>
        <time>1970-01-11T02:00:00Z</time>
      </trkpt>
      <trkpt lat="42.432013" lon="-7.946837">
        <ele>373.445</ele>
        <time>1970-01-11T02:00:00Z</time>
      </trkpt>
      <trkpt lat="42.432013" lon="-7.946837">
        <ele>373.643</ele>
        <time>1970-01-11T02:00:00Z</time>
      </trkpt>
      <trkpt lat="42.432013" lon="-7.946837">
        <ele>373.842</ele>
        <time>1970-01-11T02:00:00Z</time>
      </trkpt>
      <trkpt lat="42.432013" lon="-7.946837">
        <ele>374.017</ele>
        <time>1970-01-11T02:00:00Z</time>
      </trkpt>
      <trkpt lat="42.432013" lon="-7.946837">
        <ele>373.855</ele>
        <time>1970-01-11T02:00:00Z</time>
      </trkpt>
      <trkpt lat="42.432013" lon="-7.946837">
        <ele>373.844</ele>
        <time>1970-01-11T02:00:00Z</time>
      </trkpt>
      <trkpt lat="42.432013" lon="-7.946837">
        <ele>373.835</ele>
        <time>1970-01-11T02:00:00Z</time>
      </trkpt>
      <trkpt lat="42.432013" lon="-7.946837">
        <ele>373.886</ele>
        <time>1970-01-11T02:00:00Z</time>
      </trkpt>
      <trkpt lat="42.432006" lon="-7.946838">
        <ele>373.414</ele>
        <time>1970-01-11T02:00:00Z</time>
      </trkpt>
      <trkpt lat="42.432000" lon="-7.946840">
        <ele>373.208</ele>
        <time>1970-01-11T02:00:00Z</time>
      </trkpt>
      <trkpt lat="42.432000" lon="-7.946840">
        <ele>373.824</ele>
        <time>1970-01-11T02:00:00Z</time>
      </trkpt>
      <trkpt lat="42.432000" lon="-7.946840">
        <ele>374.011</ele>
        <time>1970-01-11T02:00:00Z</time>
      </trkpt>
      <trkpt lat="42.432000" lon="-7.946840">
        <ele>374.097</ele>
        <time>1970-01-11T02:00:00Z</time>
      </trkpt>
      <trkpt lat="42.432000" lon="-7.946840">
        <ele>374.295</ele>
        <time>1970-01-11T02:00:00Z</time>
      </trkpt>
      <trkpt lat="42.432000" lon="-7.946840">
        <ele>374.274</ele>
        <time>1970-01-11T02:00:00Z</time>
      </trkpt>
      <trkpt lat="42.432000" lon="-7.946840">
        <ele>374.289</ele>
        <time>1970-01-11T02:00:00Z</time>
      </trkpt>
      <trkpt lat="42.432000" lon="-7.946840">
        <ele>374.297</ele>
        <time>1970-01-11T02:00:00Z</time>
      </trkpt>
      <trkpt lat="42.432000" lon="-7.946840">
        <ele>374.256</ele>
        <time>1970-01-11T02:00:00Z</time>
      </trkpt>
      <trkpt lat="42.432000" lon="-7.946840">
        <ele>374.251</ele>
        <time>1970-01-11T02:00:00Z</time>
      </trkpt>
      <trkpt lat="42.432000" lon="-7.946840">
        <ele>374.201</ele>
        <time>1970-01-11T02:00:00Z</time>
      </trkpt>
      <trkpt lat="42.432000" lon="-7.946840">
        <ele>374.211</ele>
        <time>1970-01-11T02:00:00Z</time>
      </trkpt>
      <trkpt lat="42.432000" lon="-7.946840">
        <ele>374.208</ele>
        <time>1970-01-11T02:00:00Z</time>
      </trkpt>
      <trkpt lat="42.432003" lon="-7.946837">
        <ele>374.216</ele>
        <time>1970-01-11T02:00:00Z</time>
      </trkpt>
      <trkpt lat="42.432003" lon="-7.946837">
        <ele>374.283</ele>
        <time>1970-01-11T02:00:00Z</time>
      </trkpt>
      <trkpt lat="42.432003" lon="-7.946837">
        <ele>374.229</ele>
        <time>1970-01-11T02:00:00Z</time>
      </trkpt>
      <trkpt lat="42.432003" lon="-7.946837">
        <ele>374.227</ele>
        <time>1970-01-11T02:00:00Z</time>
      </trkpt>
      <trkpt lat="42.432003" lon="-7.946837">
        <ele>374.266</ele>
        <time>1970-01-11T02:00:00Z</time>
      </trkpt>
      <trkpt lat="42.432003" lon="-7.946837">
        <ele>374.051</ele>
        <time>1970-01-11T02:00:00Z</time>
      </trkpt>
      <trkpt lat="42.432003" lon="-7.946837">
        <ele>374.029</ele>
        <time>1970-01-11T02:00:00Z</time>
      </trkpt>
      <trkpt lat="42.432003" lon="-7.946837">
        <ele>374.018</ele>
        <time>1970-01-11T02:00:00Z</time>
      </trkpt>
      <trkpt lat="42.432003" lon="-7.946837">
        <ele>374.089</ele>
        <time>1970-01-11T02:00:00Z</time>
      </trkpt>
      <trkpt lat="42.432003" lon="-7.946837">
        <ele>374.006</ele>
        <time>1970-01-11T02:00:00Z</time>
      </trkpt>
      <trkpt lat="42.432003" lon="-7.946837">
        <ele>374.026</ele>
        <time>1970-01-11T02:00:00Z</time>
      </trkpt>
      <trkpt lat="42.432003" lon="-7.946837">
        <ele>374.008</ele>
        <time>1970-01-11T02:00:00Z</time>
      </trkpt>
      <trkpt lat="42.432003" lon="-7.946837">
        <ele>374.079</ele>
        <time>1970-01-11T02:00:00Z</time>
      </trkpt>
      <trkpt lat="42.432003" lon="-7.946837">
        <ele>374.036</ele>
        <time>1970-01-11T02:00:00Z</time>
      </trkpt>
      <trkpt lat="42.432002" lon="-7.946842">
        <ele>374.082</ele>
        <time>1970-01-11T02:00:00Z</time>
      </trkpt>
      <trkpt lat="42.432002" lon="-7.946842">
        <ele>374.020</ele>
        <time>1970-01-11T02:00:00Z</time>
      </trkpt>
      <trkpt lat="42.432002" lon="-7.946842">
        <ele>374.059</ele>
        <time>1970-01-11T02:00:00Z</time>
      </trkpt>
      <trkpt lat="42.432002" lon="-7.946842">
        <ele>374.084</ele>
        <time>1970-01-11T02:00:00Z</time>
      </trkpt>
      <trkpt lat="42.432002" lon="-7.946842">
        <ele>374.072</ele>
        <time>1970-01-11T02:00:00Z</time>
      </trkpt>
      <trkpt lat="42.432002" lon="-7.946842">
        <ele>374.081</ele>
        <time>1970-01-11T02:00:00Z</time>
      </trkpt>
      <trkpt lat="42.432002" lon="-7.946842">
        <ele>373.825</ele>
        <time>1970-01-11T02:00:00Z</time>
      </trkpt>
      <trkpt lat="42.432002" lon="-7.946842">
        <ele>373.826</ele>
        <time>1970-01-11T02:00:00Z</time>
      </trkpt>
      <trkpt lat="42.432002" lon="-7.946842">
        <ele>373.608</ele>
        <time>1970-01-11T02:00:00Z</time>
      </trkpt>
      <trkpt lat="42.432002" lon="-7.946842">
        <ele>373.408</ele>
        <time>1970-01-11T02:00:00Z</time>
      </trkpt>
      <trkpt lat="42.432002" lon="-7.946842">
        <ele>373.463</ele>
        <time>1970-01-11T02:00:00Z</time>
      </trkpt>
      <trkpt lat="42.432002" lon="-7.946842">
        <ele>373.480</ele>
        <time>1970-01-11T02:00:00Z</time>
      </trkpt>
      <trkpt lat="42.432002" lon="-7.946842">
        <ele>373.626</ele>
        <time>1970-01-11T02:00:00Z</time>
      </trkpt>
      <trkpt lat="42.432001" lon="-7.946848">
        <ele>373.844</ele>
        <time>1970-01-11T02:00:00Z</time>
      </trkpt>
      <trkpt lat="42.432001" lon="-7.946848">
        <ele>374.033</ele>
        <time>1970-01-11T02:00:00Z</time>
      </trkpt>
      <trkpt lat="42.432001" lon="-7.946848">
        <ele>374.258</ele>
        <time>1970-01-11T02:00:00Z</time>
      </trkpt>
      <trkpt lat="42.432001" lon="-7.946848">
        <ele>374.016</ele>
        <time>1970-01-11T02:00:00Z</time>
      </trkpt>
      <trkpt lat="42.432001" lon="-7.946848">
        <ele>374.075</ele>
        <time>1970-01-11T02:00:00Z</time>
      </trkpt>
      <trkpt lat="42.432001" lon="-7.946848">
        <ele>373.887</ele>
        <time>1970-01-11T02:00:00Z</time>
      </trkpt>
      <trkpt lat="42.432001" lon="-7.946848">
        <ele>373.642</ele>
        <time>1970-01-11T02:00:00Z</time>
      </trkpt>
      <trkpt lat="42.432001" lon="-7.946848">
        <ele>373.626</ele>
        <time>1970-01-11T02:00:00Z</time>
      </trkpt>
      <trkpt lat="42.432001" lon="-7.946848">
        <ele>373.608</ele>
        <time>1970-01-11T02:00:00Z</time>
      </trkpt>
      <trkpt lat="42.432001" lon="-7.946848">
        <ele>373.829</ele>
        <time>1970-01-11T02:00:00Z</time>
      </trkpt>
      <trkpt lat="42.432001" lon="-7.946848">
        <ele>373.866</ele>
        <time>1970-01-11T02:00:00Z</time>
      </trkpt>
      <trkpt lat="42.432024" lon="-7.946961">
        <ele>373.692</ele>
        <time>1970-01-11T02:00:00Z</time>
      </trkpt>
      <trkpt lat="42.432050" lon="-7.947077">
        <ele>373.040</ele>
        <time>1970-01-11T02:00:00Z</time>
      </trkpt>
      <trkpt lat="42.432053" lon="-7.947107">
        <ele>372.849</ele>
        <time>1970-01-11T02:00:00Z</time>
      </trkpt>
      <trkpt lat="42.432063" lon="-7.947338">
        <ele>372.284</ele>
        <time>1970-01-11T02:00:00Z</time>
      </trkpt>
      <trkpt lat="42.432069" lon="-7.947374">
        <ele>372.092</ele>
        <time>1970-01-11T02:00:00Z</time>
      </trkpt>
      <trkpt lat="42.432091" lon="-7.947449">
        <ele>371.611</ele>
        <time>1970-01-11T02:00:00Z</time>
      </trkpt>
      <trkpt lat="42.432134" lon="-7.947557">
        <ele>371.084</ele>
        <time>1970-01-11T02:00:00Z</time>
      </trkpt>
      <trkpt lat="42.432148" lon="-7.947593">
        <ele>370.807</ele>
        <time>1970-01-11T02:00:00Z</time>
      </trkpt>
      <trkpt lat="42.432157" lon="-7.947643">
        <ele>370.617</ele>
        <time>1970-01-11T02:00:00Z</time>
      </trkpt>
      <trkpt lat="42.432174" lon="-7.947843">
        <ele>369.808</ele>
        <time>1970-01-11T02:00:00Z</time>
      </trkpt>
      <trkpt lat="42.432211" lon="-7.948142">
        <ele>368.669</ele>
        <time>1970-01-11T02:00:00Z</time>
      </trkpt>
      <trkpt lat="42.432223" lon="-7.948287">
        <ele>367.456</ele>
        <time>1970-01-11T02:00:00Z</time>
      </trkpt>
      <trkpt lat="42.432235" lon="-7.948374">
        <ele>366.412</ele>
        <time>1970-01-11T02:00:00Z</time>
      </trkpt>
      <trkpt lat="42.432260" lon="-7.948500">
        <ele>365.220</ele>
        <time>1970-01-11T02:00:00Z</time>
      </trkpt>
      <trkpt lat="42.432272" lon="-7.948606">
        <ele>364.279</ele>
        <time>1970-01-11T02:00:00Z</time>
      </trkpt>
      <trkpt lat="42.432275" lon="-7.948644">
        <ele>363.684</ele>
        <time>1970-01-11T02:00:00Z</time>
      </trkpt>
      <trkpt lat="42.432285" lon="-7.948725">
        <ele>362.412</ele>
        <time>1970-01-11T02:00:00Z</time>
      </trkpt>
      <trkpt lat="42.432313" lon="-7.948813">
        <ele>360.881</ele>
        <time>1970-01-11T02:00:00Z</time>
      </trkpt>
      <trkpt lat="42.432328" lon="-7.948857">
        <ele>360.254</ele>
        <time>1970-01-11T02:00:00Z</time>
      </trkpt>
      <trkpt lat="42.432345" lon="-7.948911">
        <ele>359.456</ele>
        <time>1970-01-11T02:00:00Z</time>
      </trkpt>
      <trkpt lat="42.432374" lon="-7.949024">
        <ele>358.011</ele>
        <time>1970-01-11T02:00:00Z</time>
      </trkpt>
      <trkpt lat="42.432390" lon="-7.949085">
        <ele>356.608</ele>
        <time>1970-01-11T02:00:00Z</time>
      </trkpt>
      <trkpt lat="42.432409" lon="-7.949151">
        <ele>356.066</ele>
        <time>1970-01-11T02:00:00Z</time>
      </trkpt>
      <trkpt lat="42.432427" lon="-7.949223">
        <ele>355.453</ele>
        <time>1970-01-11T02:00:00Z</time>
      </trkpt>
      <trkpt lat="42.432459" lon="-7.949372">
        <ele>354.019</ele>
        <time>1970-01-11T02:00:00Z</time>
      </trkpt>
      <trkpt lat="42.432509" lon="-7.949600">
        <ele>352.857</ele>
        <time>1970-01-11T02:00:00Z</time>
      </trkpt>
      <trkpt lat="42.432527" lon="-7.949668">
        <ele>352.466</ele>
        <time>1970-01-11T02:00:00Z</time>
      </trkpt>
      <trkpt lat="42.432574" lon="-7.949812">
        <ele>351.611</ele>
        <time>1970-01-11T02:00:00Z</time>
      </trkpt>
      <trkpt lat="42.432603" lon="-7.949879">
        <ele>351.019</ele>
        <time>1970-01-11T02:00:00Z</time>
      </trkpt>
      <trkpt lat="42.432646" lon="-7.950012">
        <ele>350.058</ele>
        <time>1970-01-11T02:00:00Z</time>
      </trkpt>
      <trkpt lat="42.432660" lon="-7.950137">
        <ele>349.275</ele>
        <time>1970-01-11T02:00:00Z</time>
      </trkpt>
      <trkpt lat="42.432667" lon="-7.950191">
        <ele>349.028</ele>
        <time>1970-01-11T02:00:00Z</time>
      </trkpt>
      <trkpt lat="42.432676" lon="-7.950243">
        <ele>349.020</ele>
        <time>1970-01-11T02:00:00Z</time>
      </trkpt>
      <trkpt lat="42.432684" lon="-7.950306">
        <ele>348.808</ele>
        <time>1970-01-11T02:00:00Z</time>
      </trkpt>
      <trkpt lat="42.432744" lon="-7.950589">
        <ele>349.458</ele>
        <time>1970-01-11T02:00:00Z</time>
      </trkpt>
      <trkpt lat="42.432770" lon="-7.950649">
        <ele>349.695</ele>
        <time>1970-01-11T02:00:00Z</time>
      </trkpt>
      <trkpt lat="42.432817" lon="-7.950770">
        <ele>349.441</ele>
        <time>1970-01-11T02:00:00Z</time>
      </trkpt>
      <trkpt lat="42.432915" lon="-7.951008">
        <ele>349.469</ele>
        <time>1970-01-11T02:00:00Z</time>
      </trkpt>
      <trkpt lat="42.432934" lon="-7.951068">
        <ele>349.688</ele>
        <time>1970-01-11T02:00:00Z</time>
      </trkpt>
      <trkpt lat="42.433028" lon="-7.951283">
        <ele>350.023</ele>
        <time>1970-01-11T02:00:00Z</time>
      </trkpt>
      <trkpt lat="42.433064" lon="-7.951300">
        <ele>350.271</ele>
        <time>1970-01-11T02:00:00Z</time>
      </trkpt>
      <trkpt lat="42.433190" lon="-7.951319">
        <ele>350.680</ele>
        <time>1970-01-11T02:00:00Z</time>
      </trkpt>
      <trkpt lat="42.433230" lon="-7.951335">
        <ele>350.893</ele>
        <time>1970-01-11T02:00:00Z</time>
      </trkpt>
      <trkpt lat="42.433259" lon="-7.951365">
        <ele>351.265</ele>
        <time>1970-01-11T02:00:00Z</time>
      </trkpt>
      <trkpt lat="42.433295" lon="-7.951432">
        <ele>351.621</ele>
        <time>1970-01-11T02:00:00Z</time>
      </trkpt>
      <trkpt lat="42.433316" lon="-7.951504">
        <ele>352.208</ele>
        <time>1970-01-11T02:00:00Z</time>
      </trkpt>
      <trkpt lat="42.433321" lon="-7.951591">
        <ele>353.490</ele>
        <time>1970-01-11T02:00:00Z</time>
      </trkpt>
      <trkpt lat="42.433316" lon="-7.951642">
        <ele>354.477</ele>
        <time>1970-01-11T02:00:00Z</time>
      </trkpt>
      <trkpt lat="42.433319" lon="-7.951720">
        <ele>355.443</ele>
        <time>1970-01-11T02:00:00Z</time>
      </trkpt>
      <trkpt lat="42.433319" lon="-7.951745">
        <ele>355.691</ele>
        <time>1970-01-11T02:00:00Z</time>
      </trkpt>
      <trkpt lat="42.433325" lon="-7.951845">
        <ele>356.820</ele>
        <time>1970-01-11T02:00:00Z</time>
      </trkpt>
      <trkpt lat="42.433323" lon="-7.951934">
        <ele>357.655</ele>
        <time>1970-01-11T02:00:00Z</time>
      </trkpt>
      <trkpt lat="42.433319" lon="-7.951965">
        <ele>357.843</ele>
        <time>1970-01-11T02:00:00Z</time>
      </trkpt>
      <trkpt lat="42.433305" lon="-7.952083">
        <ele>358.682</ele>
        <time>1970-01-11T02:00:00Z</time>
      </trkpt>
      <trkpt lat="42.433301" lon="-7.952110">
        <ele>359.063</ele>
        <time>1970-01-11T02:00:00Z</time>
      </trkpt>
      <trkpt lat="42.433295" lon="-7.952138">
        <ele>359.244</ele>
        <time>1970-01-11T02:00:00Z</time>
      </trkpt>
      <trkpt lat="42.433301" lon="-7.952253">
        <ele>360.018</ele>
        <time>1970-01-11T02:00:00Z</time>
      </trkpt>
      <trkpt lat="42.433301" lon="-7.952283">
        <ele>360.608</ele>
        <time>1970-01-11T02:00:00Z</time>
      </trkpt>
      <trkpt lat="42.433308" lon="-7.952342">
        <ele>361.467</ele>
        <time>1970-01-11T02:00:00Z</time>
      </trkpt>
      <trkpt lat="42.433323" lon="-7.952425">
        <ele>362.684</ele>
        <time>1970-01-11T02:00:00Z</time>
      </trkpt>
      <trkpt lat="42.433330" lon="-7.952481">
        <ele>363.610</ele>
        <time>1970-01-11T02:00:00Z</time>
      </trkpt>
      <trkpt lat="42.433331" lon="-7.952509">
        <ele>363.868</ele>
        <time>1970-01-11T02:00:00Z</time>
      </trkpt>
      <trkpt lat="42.433342" lon="-7.952584">
        <ele>365.077</ele>
        <time>1970-01-11T02:00:00Z</time>
      </trkpt>
      <trkpt lat="42.433353" lon="-7.952638">
        <ele>365.672</ele>
        <time>1970-01-11T02:00:00Z</time>
      </trkpt>
      <trkpt lat="42.433367" lon="-7.952692">
        <ele>366.060</ele>
        <time>1970-01-11T02:00:00Z</time>
      </trkpt>
      <trkpt lat="42.433395" lon="-7.952813">
        <ele>367.079</ele>
        <time>1970-01-11T02:00:00Z</time>
      </trkpt>
      <trkpt lat="42.433406" lon="-7.952867">
        <ele>367.693</ele>
        <time>1970-01-11T02:00:00Z</time>
      </trkpt>
      <trkpt lat="42.433423" lon="-7.952949">
        <ele>368.665</ele>
        <time>1970-01-11T02:00:00Z</time>
      </trkpt>
      <trkpt lat="42.433476" lon="-7.953105">
        <ele>369.821</ele>
        <time>1970-01-11T02:00:00Z</time>
      </trkpt>
      <trkpt lat="42.433483" lon="-7.953131">
        <ele>370.208</ele>
        <time>1970-01-11T02:00:00Z</time>
      </trkpt>
      <trkpt lat="42.433495" lon="-7.953187">
        <ele>371.090</ele>
        <time>1970-01-11T02:00:00Z</time>
      </trkpt>
      <trkpt lat="42.433531" lon="-7.953306">
        <ele>371.437</ele>
        <time>1970-01-11T02:00:00Z</time>
      </trkpt>
      <trkpt lat="42.433563" lon="-7.953431">
        <ele>372.043</ele>
        <time>1970-01-11T02:00:00Z</time>
      </trkpt>
      <trkpt lat="42.433590" lon="-7.953523">
        <ele>372.641</ele>
        <time>1970-01-11T02:00:00Z</time>
      </trkpt>
      <trkpt lat="42.433597" lon="-7.953553">
        <ele>373.040</ele>
        <time>1970-01-11T02:00:00Z</time>
      </trkpt>
      <trkpt lat="42.433630" lon="-7.953673">
        <ele>374.095</ele>
        <time>1970-01-11T02:00:00Z</time>
      </trkpt>
      <trkpt lat="42.433672" lon="-7.953787">
        <ele>375.063</ele>
        <time>1970-01-11T02:00:00Z</time>
      </trkpt>
      <trkpt lat="42.433712" lon="-7.953898">
        <ele>376.072</ele>
        <time>1970-01-11T02:00:00Z</time>
      </trkpt>
      <trkpt lat="42.433753" lon="-7.953978">
        <ele>376.685</ele>
        <time>1970-01-11T02:00:00Z</time>
      </trkpt>
      <trkpt lat="42.433800" lon="-7.954056">
        <ele>377.289</ele>
        <time>1970-01-11T02:00:00Z</time>
      </trkpt>
      <trkpt lat="42.433902" lon="-7.954168">
        <ele>378.017</ele>
        <time>1970-01-11T02:00:00Z</time>
      </trkpt>
      <trkpt lat="42.433974" lon="-7.954209">
        <ele>378.208</ele>
        <time>1970-01-11T02:00:00Z</time>
      </trkpt>
      <trkpt lat="42.434069" lon="-7.954276">
        <ele>378.619</ele>
        <time>1970-01-11T02:00:00Z</time>
      </trkpt>
      <trkpt lat="42.434170" lon="-7.954338">
        <ele>379.416</ele>
        <time>1970-01-11T02:00:00Z</time>
      </trkpt>
      <trkpt lat="42.434276" lon="-7.954388">
        <ele>380.082</ele>
        <time>1970-01-11T02:00:00Z</time>
      </trkpt>
      <trkpt lat="42.434330" lon="-7.954414">
        <ele>380.450</ele>
        <time>1970-01-11T02:00:00Z</time>
      </trkpt>
      <trkpt lat="42.434493" lon="-7.954499">
        <ele>381.219</ele>
        <time>1970-01-11T02:00:00Z</time>
      </trkpt>
      <trkpt lat="42.434547" lon="-7.954531">
        <ele>381.434</ele>
        <time>1970-01-11T02:00:00Z</time>
      </trkpt>
      <trkpt lat="42.434601" lon="-7.954558">
        <ele>382.482</ele>
        <time>1970-01-11T02:00:00Z</time>
      </trkpt>
      <trkpt lat="42.434686" lon="-7.954597">
        <ele>383.861</ele>
        <time>1970-01-11T02:00:00Z</time>
      </trkpt>
      <trkpt lat="42.434740" lon="-7.954626">
        <ele>384.455</ele>
        <time>1970-01-11T02:00:00Z</time>
      </trkpt>
      <trkpt lat="42.434812" lon="-7.954662">
        <ele>384.807</ele>
        <time>1970-01-11T02:00:00Z</time>
      </trkpt>
      <trkpt lat="42.434881" lon="-7.954694">
        <ele>385.817</ele>
        <time>1970-01-11T02:00:00Z</time>
      </trkpt>
      <trkpt lat="42.434908" lon="-7.954702">
        <ele>386.008</ele>
        <time>1970-01-11T02:00:00Z</time>
      </trkpt>
      <trkpt lat="42.435070" lon="-7.954724">
        <ele>387.276</ele>
        <time>1970-01-11T02:00:00Z</time>
      </trkpt>
      <trkpt lat="42.435283" lon="-7.954777">
        <ele>388.043</ele>
        <time>1970-01-11T02:00:00Z</time>
      </trkpt>
      <trkpt lat="42.435341" lon="-7.954806">
        <ele>388.269</ele>
        <time>1970-01-11T02:00:00Z</time>
      </trkpt>
      <trkpt lat="42.435490" lon="-7.954867">
        <ele>389.217</ele>
        <time>1970-01-11T02:00:00Z</time>
      </trkpt>
      <trkpt lat="42.435667" lon="-7.954966">
        <ele>390.226</ele>
        <time>1970-01-11T02:00:00Z</time>
      </trkpt>
      <trkpt lat="42.435700" lon="-7.954983">
        <ele>390.481</ele>
        <time>1970-01-11T02:00:00Z</time>
      </trkpt>
      <trkpt lat="42.435919" lon="-7.955070">
        <ele>391.059</ele>
        <time>1970-01-11T02:00:00Z</time>
      </trkpt>
      <trkpt lat="42.436063" lon="-7.955135">
        <ele>391.438</ele>
        <time>1970-01-11T02:00:00Z</time>
      </trkpt>
      <trkpt lat="42.436169" lon="-7.955185">
        <ele>391.879</ele>
        <time>1970-01-11T02:00:00Z</time>
      </trkpt>
      <trkpt lat="42.436503" lon="-7.955348">
        <ele>392.405</ele>
        <time>1970-01-11T02:00:00Z</time>
      </trkpt>
      <trkpt lat="42.436721" lon="-7.955450">
        <ele>392.225</ele>
        <time>1970-01-11T02:00:00Z</time>
      </trkpt>
      <trkpt lat="42.436810" lon="-7.955486">
        <ele>392.408</ele>
        <time>1970-01-11T02:00:00Z</time>
      </trkpt>
      <trkpt lat="42.436905" lon="-7.955521">
        <ele>392.418</ele>
        <time>1970-01-11T02:00:00Z</time>
      </trkpt>
      <trkpt lat="42.437195" lon="-7.955645">
        <ele>392.895</ele>
        <time>1970-01-11T02:00:00Z</time>
      </trkpt>
      <trkpt lat="42.437458" lon="-7.955776">
        <ele>393.661</ele>
        <time>1970-01-11T02:00:00Z</time>
      </trkpt>
      <trkpt lat="42.437537" lon="-7.955825">
        <ele>394.029</ele>
        <time>1970-01-11T02:00:00Z</time>
      </trkpt>
      <trkpt lat="42.437665" lon="-7.955886">
        <ele>394.658</ele>
        <time>1970-01-11T02:00:00Z</time>
      </trkpt>
      <trkpt lat="42.437780" lon="-7.955952">
        <ele>395.273</ele>
        <time>1970-01-11T02:00:00Z</time>
      </trkpt>
      <trkpt lat="42.437971" lon="-7.956011">
        <ele>395.891</ele>
        <time>1970-01-11T02:00:00Z</time>
      </trkpt>
      <trkpt lat="42.438267" lon="-7.956116">
        <ele>396.630</ele>
        <time>1970-01-11T02:00:00Z</time>
      </trkpt>
      <trkpt lat="42.438308" lon="-7.956137">
        <ele>396.677</ele>
        <time>1970-01-11T02:00:00Z</time>
      </trkpt>
      <trkpt lat="42.438349" lon="-7.956156">
        <ele>396.861</ele>
        <time>1970-01-11T02:00:00Z</time>
      </trkpt>
      <trkpt lat="42.438434" lon="-7.956197">
        <ele>397.027</ele>
        <time>1970-01-11T02:00:00Z</time>
      </trkpt>
      <trkpt lat="42.438619" lon="-7.956288">
        <ele>397.408</ele>
        <time>1970-01-11T02:00:00Z</time>
      </trkpt>
      <trkpt lat="42.438857" lon="-7.956409">
        <ele>397.818</ele>
        <time>1970-01-11T02:00:00Z</time>
      </trkpt>
      <trkpt lat="42.438946" lon="-7.956457">
        <ele>398.245</ele>
        <time>1970-01-11T02:00:00Z</time>
      </trkpt>
      <trkpt lat="42.439098" lon="-7.956535">
        <ele>398.681</ele>
        <time>1970-01-11T02:00:00Z</time>
      </trkpt>
      <trkpt lat="42.439297" lon="-7.956619">
        <ele>399.019</ele>
        <time>1970-01-11T02:00:00Z</time>
      </trkpt>
      <trkpt lat="42.439401" lon="-7.956663">
        <ele>399.248</ele>
        <time>1970-01-11T02:00:00Z</time>
      </trkpt>
      <trkpt lat="42.439495" lon="-7.956699">
        <ele>399.483</ele>
        <time>1970-01-11T02:00:00Z</time>
      </trkpt>
      <trkpt lat="42.439580" lon="-7.956746">
        <ele>399.421</ele>
        <time>1970-01-11T02:00:00Z</time>
      </trkpt>
      <trkpt lat="42.439620" lon="-7.956763">
        <ele>399.450</ele>
        <time>1970-01-11T02:00:00Z</time>
      </trkpt>
      <trkpt lat="42.439851" lon="-7.956898">
        <ele>399.238</ele>
        <time>1970-01-11T02:00:00Z</time>
      </trkpt>
      <trkpt lat="42.440060" lon="-7.957001">
        <ele>400.070</ele>
        <time>1970-01-11T02:00:00Z</time>
      </trkpt>
      <trkpt lat="42.440259" lon="-7.957074">
        <ele>400.817</ele>
        <time>1970-01-11T02:00:00Z</time>
      </trkpt>
      <trkpt lat="42.440414" lon="-7.957149">
        <ele>400.808</ele>
        <time>1970-01-11T02:00:00Z</time>
      </trkpt>
      <trkpt lat="42.440598" lon="-7.957228">
        <ele>400.694</ele>
        <time>1970-01-11T02:00:00Z</time>
      </trkpt>
      <trkpt lat="42.440869" lon="-7.957354">
        <ele>400.611</ele>
        <time>1970-01-11T02:00:00Z</time>
      </trkpt>
      <trkpt lat="42.440917" lon="-7.957373">
        <ele>400.647</ele>
        <time>1970-01-11T02:00:00Z</time>
      </trkpt>
      <trkpt lat="42.441086" lon="-7.957412">
        <ele>400.835</ele>
        <time>1970-01-11T02:00:01Z</time>
      </trkpt>
      <trkpt lat="42.441334" lon="-7.957520">
        <ele>400.844</ele>
        <time>1970-01-11T02:00:01Z</time>
      </trkpt>
      <trkpt lat="42.441466" lon="-7.957582">
        <ele>400.819</ele>
        <time>1970-01-11T02:00:01Z</time>
      </trkpt>
      <trkpt lat="42.441558" lon="-7.957616">
        <ele>401.057</ele>
        <time>1970-01-11T02:00:01Z</time>
      </trkpt>
      <trkpt lat="42.441602" lon="-7.957637">
        <ele>401.256</ele>
        <time>1970-01-11T02:00:01Z</time>
      </trkpt>
      <trkpt lat="42.441730" lon="-7.957699">
        <ele>401.665</ele>
        <time>1970-01-11T02:00:01Z</time>
      </trkpt>
      <trkpt lat="42.441807" lon="-7.957746">
        <ele>402.068</ele>
        <time>1970-01-11T02:00:01Z</time>
      </trkpt>
      <trkpt lat="42.441848" lon="-7.957767">
        <ele>402.214</ele>
        <time>1970-01-11T02:00:01Z</time>
      </trkpt>
      <trkpt lat="42.442030" lon="-7.957852">
        <ele>403.008</ele>
        <time>1970-01-11T02:00:01Z</time>
      </trkpt>
      <trkpt lat="42.442257" lon="-7.957964">
        <ele>402.877</ele>
        <time>1970-01-11T02:00:01Z</time>
      </trkpt>
      <trkpt lat="42.442602" lon="-7.958106">
        <ele>402.044</ele>
        <time>1970-01-11T02:00:01Z</time>
      </trkpt>
      <trkpt lat="42.442938" lon="-7.958245">
        <ele>401.220</ele>
        <time>1970-01-11T02:00:01Z</time>
      </trkpt>
      <trkpt lat="42.442991" lon="-7.958279">
        <ele>401.238</ele>
        <time>1970-01-11T02:00:01Z</time>
      </trkpt>
      <trkpt lat="42.443089" lon="-7.958321">
        <ele>401.067</ele>
        <time>1970-01-11T02:00:01Z</time>
      </trkpt>
      <trkpt lat="42.443173" lon="-7.958345">
        <ele>400.822</ele>
        <time>1970-01-11T02:00:01Z</time>
      </trkpt>
      <trkpt lat="42.443490" lon="-7.958501">
        <ele>400.850</ele>
        <time>1970-01-11T02:00:01Z</time>
      </trkpt>
      <trkpt lat="42.443544" lon="-7.958533">
        <ele>400.869</ele>
        <time>1970-01-11T02:00:01Z</time>
      </trkpt>
      <trkpt lat="42.443699" lon="-7.958610">
        <ele>400.411</ele>
        <time>1970-01-11T02:00:01Z</time>
      </trkpt>
      <trkpt lat="42.443752" lon="-7.958625">
        <ele>400.221</ele>
        <time>1970-01-11T02:00:01Z</time>
      </trkpt>
      <trkpt lat="42.443854" lon="-7.958678">
        <ele>400.203</ele>
        <time>1970-01-11T02:00:01Z</time>
      </trkpt>
      <trkpt lat="42.443984" lon="-7.958772">
        <ele>400.208</ele>
        <time>1970-01-11T02:00:01Z</time>
      </trkpt>
      <trkpt lat="42.444027" lon="-7.958787">
        <ele>400.262</ele>
        <time>1970-01-11T02:00:01Z</time>
      </trkpt>
      <trkpt lat="42.444159" lon="-7.958830">
        <ele>400.249</ele>
        <time>1970-01-11T02:00:01Z</time>
      </trkpt>
      <trkpt lat="42.444211" lon="-7.958854">
        <ele>400.225</ele>
        <time>1970-01-11T02:00:01Z</time>
      </trkpt>
      <trkpt lat="42.444391" lon="-7.958939">
        <ele>400.213</ele>
        <time>1970-01-11T02:00:01Z</time>
      </trkpt>
      <trkpt lat="42.444656" lon="-7.959073">
        <ele>399.282</ele>
        <time>1970-01-11T02:00:01Z</time>
      </trkpt>
      <trkpt lat="42.444797" lon="-7.959135">
        <ele>397.627</ele>
        <time>1970-01-11T02:00:01Z</time>
      </trkpt>
      <trkpt lat="42.444869" lon="-7.959168">
        <ele>396.845</ele>
        <time>1970-01-11T02:00:01Z</time>
      </trkpt>
      <trkpt lat="42.444941" lon="-7.959200">
        <ele>396.224</ele>
        <time>1970-01-11T02:00:01Z</time>
      </trkpt>
      <trkpt lat="42.445215" lon="-7.959328">
        <ele>395.273</ele>
        <time>1970-01-11T02:00:01Z</time>
      </trkpt>
      <trkpt lat="42.445274" lon="-7.959354">
        <ele>395.085</ele>
        <time>1970-01-11T02:00:01Z</time>
      </trkpt>
      <trkpt lat="42.445451" lon="-7.959422">
        <ele>394.213</ele>
        <time>1970-01-11T02:00:01Z</time>
      </trkpt>
      <trkpt lat="42.445654" lon="-7.959481">
        <ele>393.408</ele>
        <time>1970-01-11T02:00:01Z</time>
      </trkpt>
      <trkpt lat="42.445789" lon="-7.959502">
        <ele>393.248</ele>
        <time>1970-01-11T02:00:01Z</time>
      </trkpt>
      <trkpt lat="42.446038" lon="-7.959535">
        <ele>392.415</ele>
        <time>1970-01-11T02:00:01Z</time>
      </trkpt>
      <trkpt lat="42.446228" lon="-7.959612">
        <ele>392.091</ele>
        <time>1970-01-11T02:00:01Z</time>
      </trkpt>
      <trkpt lat="42.446342" lon="-7.959705">
        <ele>392.289</ele>
        <time>1970-01-11T02:00:01Z</time>
      </trkpt>
      <trkpt lat="42.446434" lon="-7.959796">
        <ele>392.838</ele>
        <time>1970-01-11T02:00:01Z</time>
      </trkpt>
      <trkpt lat="42.446449" lon="-7.959818">
        <ele>393.073</ele>
        <time>1970-01-11T02:00:01Z</time>
      </trkpt>
      <trkpt lat="42.446464" lon="-7.959846">
        <ele>393.281</ele>
        <time>1970-01-11T02:00:01Z</time>
      </trkpt>
      <trkpt lat="42.446536" lon="-7.959922">
        <ele>394.010</ele>
        <time>1970-01-11T02:00:01Z</time>
      </trkpt>
      <trkpt lat="42.446574" lon="-7.959946">
        <ele>394.663</ele>
        <time>1970-01-11T02:00:01Z</time>
      </trkpt>
      <trkpt lat="42.446592" lon="-7.959956">
        <ele>394.844</ele>
        <time>1970-01-11T02:00:01Z</time>
      </trkpt>
      <trkpt lat="42.446606" lon="-7.959956">
        <ele>395.218</ele>
        <time>1970-01-11T02:00:01Z</time>
      </trkpt>
      <trkpt lat="42.446628" lon="-7.959960">
        <ele>395.408</ele>
        <time>1970-01-11T02:00:01Z</time>
      </trkpt>
      <trkpt lat="42.446638" lon="-7.959964">
        <ele>395.647</ele>
        <time>1970-01-11T02:00:01Z</time>
      </trkpt>
      <trkpt lat="42.446650" lon="-7.959971">
        <ele>395.834</ele>
        <time>1970-01-11T02:00:01Z</time>
      </trkpt>
      <trkpt lat="42.446709" lon="-7.959973">
        <ele>396.460</ele>
        <time>1970-01-11T02:00:01Z</time>
      </trkpt>
      <trkpt lat="42.446739" lon="-7.959988">
        <ele>396.828</ele>
        <time>1970-01-11T02:00:01Z</time>
      </trkpt>
      <trkpt lat="42.446814" lon="-7.960004">
        <ele>397.687</ele>
        <time>1970-01-11T02:00:01Z</time>
      </trkpt>
      <trkpt lat="42.446855" lon="-7.960020">
        <ele>397.832</ele>
        <time>1970-01-11T02:00:01Z</time>
      </trkpt>
      <trkpt lat="42.446918" lon="-7.960026">
        <ele>398.230</ele>
        <time>1970-01-11T02:00:01Z</time>
      </trkpt>
      <trkpt lat="42.446972" lon="-7.960058">
        <ele>399.029</ele>
        <time>1970-01-11T02:00:01Z</time>
      </trkpt>
      <trkpt lat="42.446989" lon="-7.960065">
        <ele>399.275</ele>
        <time>1970-01-11T02:00:01Z</time>
      </trkpt>
      <trkpt lat="42.447069" lon="-7.960102">
        <ele>400.028</ele>
        <time>1970-01-11T02:00:01Z</time>
      </trkpt>
      <trkpt lat="42.447097" lon="-7.960124">
        <ele>400.620</ele>
        <time>1970-01-11T02:00:01Z</time>
      </trkpt>
      <trkpt lat="42.447108" lon="-7.960125">
        <ele>400.808</ele>
        <time>1970-01-11T02:00:01Z</time>
      </trkpt>
      <trkpt lat="42.447131" lon="-7.960143">
        <ele>401.228</ele>
        <time>1970-01-11T02:00:01Z</time>
      </trkpt>
      <trkpt lat="42.447158" lon="-7.960164">
        <ele>401.685</ele>
        <time>1970-01-11T02:00:01Z</time>
      </trkpt>
      <trkpt lat="42.447239" lon="-7.960201">
        <ele>402.481</ele>
        <time>1970-01-11T02:00:01Z</time>
      </trkpt>
      <trkpt lat="42.447266" lon="-7.960210">
        <ele>402.679</ele>
        <time>1970-01-11T02:00:01Z</time>
      </trkpt>
      <trkpt lat="42.447291" lon="-7.960221">
        <ele>402.688</ele>
        <time>1970-01-11T02:00:01Z</time>
      </trkpt>
      <trkpt lat="42.447387" lon="-7.960262">
        <ele>403.243</ele>
        <time>1970-01-11T02:00:01Z</time>
      </trkpt>
      <trkpt lat="42.447424" lon="-7.960270">
        <ele>403.451</ele>
        <time>1970-01-11T02:00:01Z</time>
      </trkpt>
      <trkpt lat="42.447499" lon="-7.960285">
        <ele>403.840</ele>
        <time>1970-01-11T02:00:01Z</time>
      </trkpt>
      <trkpt lat="42.447623" lon="-7.960322">
        <ele>404.679</ele>
        <time>1970-01-11T02:00:01Z</time>
      </trkpt>
      <trkpt lat="42.447644" lon="-7.960332">
        <ele>404.605</ele>
        <time>1970-01-11T02:00:01Z</time>
      </trkpt>
      <trkpt lat="42.447762" lon="-7.960377">
        <ele>405.625</ele>
        <time>1970-01-11T02:00:01Z</time>
      </trkpt>
      <trkpt lat="42.447786" lon="-7.960388">
        <ele>405.808</ele>
        <time>1970-01-11T02:00:01Z</time>
      </trkpt>
      <trkpt lat="42.447909" lon="-7.960447">
        <ele>406.678</ele>
        <time>1970-01-11T02:00:01Z</time>
      </trkpt>
      <trkpt lat="42.447936" lon="-7.960464">
        <ele>406.865</ele>
        <time>1970-01-11T02:00:01Z</time>
      </trkpt>
      <trkpt lat="42.448127" lon="-7.960517">
        <ele>407.051</ele>
        <time>1970-01-11T02:00:01Z</time>
      </trkpt>
      <trkpt lat="42.448367" lon="-7.960534">
        <ele>407.299</ele>
        <time>1970-01-11T02:00:01Z</time>
      </trkpt>
      <trkpt lat="42.448682" lon="-7.960558">
        <ele>407.058</ele>
        <time>1970-01-11T02:00:01Z</time>
      </trkpt>
      <trkpt lat="42.448883" lon="-7.960677">
        <ele>407.413</ele>
        <time>1970-01-11T02:00:01Z</time>
      </trkpt>
      <trkpt lat="42.449111" lon="-7.960965">
        <ele>407.251</ele>
        <time>1970-01-11T02:00:01Z</time>
      </trkpt>
      <trkpt lat="42.449201" lon="-7.961086">
        <ele>407.620</ele>
        <time>1970-01-11T02:00:01Z</time>
      </trkpt>
      <trkpt lat="42.449221" lon="-7.961110">
        <ele>407.873</ele>
        <time>1970-01-11T02:00:01Z</time>
      </trkpt>
      <trkpt lat="42.449291" lon="-7.961208">
        <ele>408.885</ele>
        <time>1970-01-11T02:00:01Z</time>
      </trkpt>
      <trkpt lat="42.449305" lon="-7.961231">
        <ele>409.013</ele>
        <time>1970-01-11T02:00:01Z</time>
      </trkpt>
      <trkpt lat="42.449391" lon="-7.961399">
        <ele>410.008</ele>
        <time>1970-01-11T02:00:01Z</time>
      </trkpt>
      <trkpt lat="42.449521" lon="-7.961678">
        <ele>410.828</ele>
        <time>1970-01-11T02:00:01Z</time>
      </trkpt>
      <trkpt lat="42.449556" lon="-7.961763">
        <ele>411.285</ele>
        <time>1970-01-11T02:00:01Z</time>
      </trkpt>
      <trkpt lat="42.449605" lon="-7.961867">
        <ele>411.871</ele>
        <time>1970-01-11T02:00:01Z</time>
      </trkpt>
      <trkpt lat="42.449636" lon="-7.961920">
        <ele>412.259</ele>
        <time>1970-01-11T02:00:01Z</time>
      </trkpt>
      <trkpt lat="42.449660" lon="-7.961963">
        <ele>413.098</ele>
        <time>1970-01-11T02:00:01Z</time>
      </trkpt>
      <trkpt lat="42.449671" lon="-7.961980">
        <ele>413.223</ele>
        <time>1970-01-11T02:00:01Z</time>
      </trkpt>
      <trkpt lat="42.449726" lon="-7.962074">
        <ele>414.421</ele>
        <time>1970-01-11T02:00:01Z</time>
      </trkpt>
      <trkpt lat="42.449739" lon="-7.962113">
        <ele>414.660</ele>
        <time>1970-01-11T02:00:01Z</time>
      </trkpt>
      <trkpt lat="42.449780" lon="-7.962227">
        <ele>415.452</ele>
        <time>1970-01-11T02:00:01Z</time>
      </trkpt>
      <trkpt lat="42.449803" lon="-7.962290">
        <ele>415.853</ele>
        <time>1970-01-11T02:00:01Z</time>
      </trkpt>
      <trkpt lat="42.449833" lon="-7.962364">
        <ele>416.408</ele>
        <time>1970-01-11T02:00:01Z</time>
      </trkpt>
      <trkpt lat="42.449857" lon="-7.962467">
        <ele>417.408</ele>
        <time>1970-01-11T02:00:01Z</time>
      </trkpt>
      <trkpt lat="42.449859" lon="-7.962491">
        <ele>417.656</ele>
        <time>1970-01-11T02:00:01Z</time>
      </trkpt>
      <trkpt lat="42.449870" lon="-7.962560">
        <ele>419.063</ele>
        <time>1970-01-11T02:00:01Z</time>
      </trkpt>
      <trkpt lat="42.449888" lon="-7.962608">
        <ele>419.879</ele>
        <time>1970-01-11T02:00:01Z</time>
      </trkpt>
      <trkpt lat="42.449895" lon="-7.962618">
        <ele>420.067</ele>
        <time>1970-01-11T02:00:01Z</time>
      </trkpt>
      <trkpt lat="42.449954" lon="-7.962690">
        <ele>421.266</ele>
        <time>1970-01-11T02:00:01Z</time>
      </trkpt>
      <trkpt lat="42.449970" lon="-7.962704">
        <ele>421.411</ele>
        <time>1970-01-11T02:00:01Z</time>
      </trkpt>
      <trkpt lat="42.450023" lon="-7.962756">
        <ele>422.289</ele>
        <time>1970-01-11T02:00:01Z</time>
      </trkpt>
      <trkpt lat="42.450042" lon="-7.962780">
        <ele>422.648</ele>
        <time>1970-01-11T02:00:01Z</time>
      </trkpt>
      <trkpt lat="42.450102" lon="-7.962859">
        <ele>423.479</ele>
        <time>1970-01-11T02:00:01Z</time>
      </trkpt>
      <trkpt lat="42.450145" lon="-7.962911">
        <ele>423.805</ele>
        <time>1970-01-11T02:00:01Z</time>
      </trkpt>
      <trkpt lat="42.450177" lon="-7.962944">
        <ele>424.425</ele>
        <time>1970-01-11T02:00:01Z</time>
      </trkpt>
      <trkpt lat="42.450214" lon="-7.963005">
        <ele>425.408</ele>
        <time>1970-01-11T02:00:01Z</time>
      </trkpt>
      <trkpt lat="42.450285" lon="-7.963120">
        <ele>426.618</ele>
        <time>1970-01-11T02:00:01Z</time>
      </trkpt>
      <trkpt lat="42.450297" lon="-7.963140">
        <ele>426.815</ele>
        <time>1970-01-11T02:00:01Z</time>
      </trkpt>
      <trkpt lat="42.450345" lon="-7.963291">
        <ele>427.651</ele>
        <time>1970-01-11T02:00:01Z</time>
      </trkpt>
      <trkpt lat="42.450354" lon="-7.963316">
        <ele>427.639</ele>
        <time>1970-01-11T02:00:01Z</time>
      </trkpt>
      <trkpt lat="42.450420" lon="-7.963474">
        <ele>428.678</ele>
        <time>1970-01-11T02:00:01Z</time>
      </trkpt>
      <trkpt lat="42.450466" lon="-7.963589">
        <ele>429.653</ele>
        <time>1970-01-11T02:00:01Z</time>
      </trkpt>
      <trkpt lat="42.450479" lon="-7.963614">
        <ele>429.891</ele>
        <time>1970-01-11T02:00:01Z</time>
      </trkpt>
      <trkpt lat="42.450537" lon="-7.963813">
        <ele>430.230</ele>
        <time>1970-01-11T02:00:01Z</time>
      </trkpt>
      <trkpt lat="42.450616" lon="-7.964003">
        <ele>430.424</ele>
        <time>1970-01-11T02:00:01Z</time>
      </trkpt>
      <trkpt lat="42.450628" lon="-7.964027">
        <ele>430.604</ele>
        <time>1970-01-11T02:00:01Z</time>
      </trkpt>
      <trkpt lat="42.450691" lon="-7.964179">
        <ele>431.814</ele>
        <time>1970-01-11T02:00:01Z</time>
      </trkpt>
      <trkpt lat="42.450735" lon="-7.964277">
        <ele>432.808</ele>
        <time>1970-01-11T02:00:01Z</time>
      </trkpt>
      <trkpt lat="42.450751" lon="-7.964407">
        <ele>434.043</ele>
        <time>1970-01-11T02:00:01Z</time>
      </trkpt>
      <trkpt lat="42.450761" lon="-7.964447">
        <ele>434.280</ele>
        <time>1970-01-11T02:00:01Z</time>
      </trkpt>
      <trkpt lat="42.450791" lon="-7.964534">
        <ele>434.876</ele>
        <time>1970-01-11T02:00:01Z</time>
      </trkpt>
      <trkpt lat="42.450795" lon="-7.964544">
        <ele>434.854</ele>
        <time>1970-01-11T02:00:01Z</time>
      </trkpt>
      <trkpt lat="42.450803" lon="-7.964615">
        <ele>435.093</ele>
        <time>1970-01-11T02:00:01Z</time>
      </trkpt>
      <trkpt lat="42.450810" lon="-7.964634">
        <ele>435.048</ele>
        <time>1970-01-11T02:00:01Z</time>
      </trkpt>
      <trkpt lat="42.450827" lon="-7.964701">
        <ele>435.296</ele>
        <time>1970-01-11T02:00:01Z</time>
      </trkpt>
      <trkpt lat="42.450836" lon="-7.964739">
        <ele>435.425</ele>
        <time>1970-01-11T02:00:01Z</time>
      </trkpt>
      <trkpt lat="42.450857" lon="-7.964830">
        <ele>436.072</ele>
        <time>1970-01-11T02:00:01Z</time>
      </trkpt>
      <trkpt lat="42.450864" lon="-7.964857">
        <ele>436.213</ele>
        <time>1970-01-11T02:00:01Z</time>
      </trkpt>
      <trkpt lat="42.450934" lon="-7.964996">
        <ele>437.014</ele>
        <time>1970-01-11T02:00:01Z</time>
      </trkpt>
      <trkpt lat="42.450945" lon="-7.965022">
        <ele>437.208</ele>
        <time>1970-01-11T02:00:01Z</time>
      </trkpt>
      <trkpt lat="42.451049" lon="-7.965272">
        <ele>437.898</ele>
        <time>1970-01-11T02:00:01Z</time>
      </trkpt>
      <trkpt lat="42.451129" lon="-7.965435">
        <ele>438.295</ele>
        <time>1970-01-11T02:00:01Z</time>
      </trkpt>
      <trkpt lat="42.451151" lon="-7.965475">
        <ele>438.221</ele>
        <time>1970-01-11T02:00:01Z</time>
      </trkpt>
      <trkpt lat="42.451321" lon="-7.965792">
        <ele>437.839</ele>
        <time>1970-01-11T02:00:01Z</time>
      </trkpt>
      <trkpt lat="42.451462" lon="-7.966053">
        <ele>436.858</ele>
        <time>1970-01-11T02:00:01Z</time>
      </trkpt>
      <trkpt lat="42.451491" lon="-7.966101">
        <ele>436.693</ele>
        <time>1970-01-11T02:00:01Z</time>
      </trkpt>
      <trkpt lat="42.451550" lon="-7.966199">
        <ele>436.071</ele>
        <time>1970-01-11T02:00:01Z</time>
      </trkpt>
      <trkpt lat="42.451582" lon="-7.966244">
        <ele>435.810</ele>
        <time>1970-01-11T02:00:01Z</time>
      </trkpt>
      <trkpt lat="42.451668" lon="-7.966426">
        <ele>435.471</ele>
        <time>1970-01-11T02:00:01Z</time>
      </trkpt>
      <trkpt lat="42.451716" lon="-7.966502">
        <ele>434.841</ele>
        <time>1970-01-11T02:00:01Z</time>
      </trkpt>
      <trkpt lat="42.451795" lon="-7.966593">
        <ele>433.615</ele>
        <time>1970-01-11T02:00:01Z</time>
      </trkpt>
      <trkpt lat="42.451817" lon="-7.966614">
        <ele>433.408</ele>
        <time>1970-01-11T02:00:01Z</time>
      </trkpt>
      <trkpt lat="42.451913" lon="-7.966704">
        <ele>433.858</ele>
        <time>1970-01-11T02:00:01Z</time>
      </trkpt>
      <trkpt lat="42.451973" lon="-7.966768">
        <ele>434.855</ele>
        <time>1970-01-11T02:00:01Z</time>
      </trkpt>
      <trkpt lat="42.452031" lon="-7.966828">
        <ele>435.811</ele>
        <time>1970-01-11T02:00:01Z</time>
      </trkpt>
      <trkpt lat="42.452047" lon="-7.966846">
        <ele>436.219</ele>
        <time>1970-01-11T02:00:01Z</time>
      </trkpt>
      <trkpt lat="42.452139" lon="-7.966934">
        <ele>437.298</ele>
        <time>1970-01-11T02:00:01Z</time>
      </trkpt>
      <trkpt lat="42.452203" lon="-7.967015">
        <ele>438.223</ele>
        <time>1970-01-11T02:00:01Z</time>
      </trkpt>
      <trkpt lat="42.452208" lon="-7.967018">
        <ele>438.451</ele>
        <time>1970-01-11T02:00:01Z</time>
      </trkpt>
      <trkpt lat="42.452220" lon="-7.967027">
        <ele>438.410</ele>
        <time>1970-01-11T02:00:01Z</time>
      </trkpt>
      <trkpt lat="42.452317" lon="-7.967103">
        <ele>439.474</ele>
        <time>1970-01-11T02:00:01Z</time>
      </trkpt>
      <trkpt lat="42.452340" lon="-7.967127">
        <ele>439.456</ele>
        <time>1970-01-11T02:00:01Z</time>
      </trkpt>
      <trkpt lat="42.452489" lon="-7.967405">
        <ele>440.021</ele>
        <time>1970-01-11T02:00:01Z</time>
      </trkpt>
      <trkpt lat="42.452659" lon="-7.967692">
        <ele>439.808</ele>
        <time>1970-01-11T02:00:01Z</time>
      </trkpt>
      <trkpt lat="42.452809" lon="-7.967910">
        <ele>440.418</ele>
        <time>1970-01-11T02:00:01Z</time>
      </trkpt>
      <trkpt lat="42.452834" lon="-7.967944">
        <ele>440.485</ele>
        <time>1970-01-11T02:00:01Z</time>
      </trkpt>
      <trkpt lat="42.452947" lon="-7.968104">
        <ele>441.481</ele>
        <time>1970-01-11T02:00:01Z</time>
      </trkpt>
      <trkpt lat="42.453020" lon="-7.968202">
        <ele>442.039</ele>
        <time>1970-01-11T02:00:01Z</time>
      </trkpt>
      <trkpt lat="42.453058" lon="-7.968262">
        <ele>442.218</ele>
        <time>1970-01-11T02:00:01Z</time>
      </trkpt>
      <trkpt lat="42.453104" lon="-7.968318">
        <ele>442.483</ele>
        <time>1970-01-11T02:00:01Z</time>
      </trkpt>
      <trkpt lat="42.453119" lon="-7.968322">
        <ele>442.451</ele>
        <time>1970-01-11T02:00:01Z</time>
      </trkpt>
      <trkpt lat="42.453152" lon="-7.968342">
        <ele>442.480</ele>
        <time>1970-01-11T02:00:01Z</time>
      </trkpt>
      <trkpt lat="42.453156" lon="-7.968369">
        <ele>442.632</ele>
        <time>1970-01-11T02:00:01Z</time>
      </trkpt>
      <trkpt lat="42.453157" lon="-7.968419">
        <ele>442.692</ele>
        <time>1970-01-11T02:00:01Z</time>
      </trkpt>
      <trkpt lat="42.453174" lon="-7.968429">
        <ele>442.611</ele>
        <time>1970-01-11T02:00:01Z</time>
      </trkpt>
      <trkpt lat="42.453193" lon="-7.968361">
        <ele>442.808</ele>
        <time>1970-01-11T02:00:01Z</time>
      </trkpt>
      <trkpt lat="42.453164" lon="-7.968308">
        <ele>443.044</ele>
        <time>1970-01-11T02:00:01Z</time>
      </trkpt>
      <trkpt lat="42.453149" lon="-7.968302">
        <ele>443.081</ele>
        <time>1970-01-11T02:00:01Z</time>
      </trkpt>
      <trkpt lat="42.453117" lon="-7.968318">
        <ele>443.087</ele>
        <time>1970-01-11T02:00:01Z</time>
      </trkpt>
      <trkpt lat="42.453114" lon="-7.968337">
        <ele>442.865</ele>
        <time>1970-01-11T02:00:01Z</time>
      </trkpt>
      <trkpt lat="42.453131" lon="-7.968366">
        <ele>442.844</ele>
        <time>1970-01-11T02:00:01Z</time>
      </trkpt>
      <trkpt lat="42.453159" lon="-7.968387">
        <ele>442.879</ele>
        <time>1970-01-11T02:00:01Z</time>
      </trkpt>
      <trkpt lat="42.453167" lon="-7.968394">
        <ele>442.827</ele>
        <time>1970-01-11T02:00:01Z</time>
      </trkpt>
      <trkpt lat="42.453169" lon="-7.968420">
        <ele>442.836</ele>
        <time>1970-01-11T02:00:01Z</time>
      </trkpt>
      <trkpt lat="42.453160" lon="-7.968469">
        <ele>443.042</ele>
        <time>1970-01-11T02:00:01Z</time>
      </trkpt>
      <trkpt lat="42.453170" lon="-7.968477">
        <ele>443.022</ele>
        <time>1970-01-11T02:00:01Z</time>
      </trkpt>
      <trkpt lat="42.453188" lon="-7.968469">
        <ele>443.014</ele>
        <time>1970-01-11T02:00:01Z</time>
      </trkpt>
      <trkpt lat="42.453183" lon="-7.968451">
        <ele>443.008</ele>
        <time>1970-01-11T02:00:01Z</time>
      </trkpt>
      <trkpt lat="42.453169" lon="-7.968422">
        <ele>443.065</ele>
        <time>1970-01-11T02:00:01Z</time>
      </trkpt>
      <trkpt lat="42.453136" lon="-7.968404">
        <ele>443.062</ele>
        <time>1970-01-11T02:00:01Z</time>
      </trkpt>
      <trkpt lat="42.453131" lon="-7.968401">
        <ele>443.088</ele>
        <time>1970-01-11T02:00:01Z</time>
      </trkpt>
      <trkpt lat="42.453132" lon="-7.968398">
        <ele>442.626</ele>
        <time>1970-01-11T02:00:01Z</time>
      </trkpt>
      <trkpt lat="42.453132" lon="-7.968398">
        <ele>442.665</ele>
        <time>1970-01-11T02:00:01Z</time>
      </trkpt>
      <trkpt lat="42.453132" lon="-7.968398">
        <ele>442.860</ele>
        <time>1970-01-11T02:00:01Z</time>
      </trkpt>
      <trkpt lat="42.453132" lon="-7.968398">
        <ele>442.828</ele>
        <time>1970-01-11T02:00:01Z</time>
      </trkpt>
      <trkpt lat="42.453132" lon="-7.968398">
        <ele>442.887</ele>
        <time>1970-01-11T02:00:01Z</time>
      </trkpt>
      <trkpt lat="42.453132" lon="-7.968398">
        <ele>442.856</ele>
        <time>1970-01-11T02:00:01Z</time>
      </trkpt>
      <trkpt lat="42.453132" lon="-7.968398">
        <ele>442.859</ele>
        <time>1970-01-11T02:00:01Z</time>
      </trkpt>
      <trkpt lat="42.453132" lon="-7.968400">
        <ele>442.814</ele>
        <time>1970-01-11T02:00:01Z</time>
      </trkpt>
      <trkpt lat="42.453132" lon="-7.968400">
        <ele>442.608</ele>
        <time>1970-01-11T02:00:01Z</time>
      </trkpt>
      <trkpt lat="42.453132" lon="-7.968400">
        <ele>442.466</ele>
        <time>1970-01-11T02:00:01Z</time>
      </trkpt>
      <trkpt lat="42.453138" lon="-7.968359">
        <ele>442.433</ele>
        <time>1970-01-11T02:00:01Z</time>
      </trkpt>
      <trkpt lat="42.453148" lon="-7.968344">
        <ele>442.449</ele>
        <time>1970-01-11T02:00:01Z</time>
      </trkpt>
      <trkpt lat="42.453187" lon="-7.968362">
        <ele>442.627</ele>
        <time>1970-01-11T02:00:01Z</time>
      </trkpt>
      <trkpt lat="42.453191" lon="-7.968382">
        <ele>442.676</ele>
        <time>1970-01-11T02:00:01Z</time>
      </trkpt>
      <trkpt lat="42.453194" lon="-7.968409">
        <ele>442.651</ele>
        <time>1970-01-11T02:00:01Z</time>
      </trkpt>
      <trkpt lat="42.453202" lon="-7.968472">
        <ele>442.489</ele>
        <time>1970-01-11T02:00:01Z</time>
      </trkpt>
      <trkpt lat="42.453243" lon="-7.968566">
        <ele>442.468</ele>
        <time>1970-01-11T02:00:01Z</time>
      </trkpt>
      <trkpt lat="42.453290" lon="-7.968629">
        <ele>442.645</ele>
        <time>1970-01-11T02:00:01Z</time>
      </trkpt>
      <trkpt lat="42.453291" lon="-7.968630">
        <ele>442.647</ele>
        <time>1970-01-11T02:00:01Z</time>
      </trkpt>
      <trkpt lat="42.453291" lon="-7.968630">
        <ele>443.011</ele>
        <time>1970-01-11T02:00:01Z</time>
      </trkpt>
      <trkpt lat="42.453291" lon="-7.968630">
        <ele>442.808</ele>
        <time>1970-01-11T02:00:01Z</time>
      </trkpt>
      <trkpt lat="42.453298" lon="-7.968652">
        <ele>442.635</ele>
        <time>1970-01-11T02:00:01Z</time>
      </trkpt>
      <trkpt lat="42.453371" lon="-7.968789">
        <ele>442.832</ele>
        <time>1970-01-11T02:00:01Z</time>
      </trkpt>
      <trkpt lat="42.453438" lon="-7.968939">
        <ele>443.098</ele>
        <time>1970-01-11T02:00:01Z</time>
      </trkpt>
      <trkpt lat="42.453485" lon="-7.969050">
        <ele>443.496</ele>
        <time>1970-01-11T02:00:01Z</time>
      </trkpt>
      <trkpt lat="42.453499" lon="-7.969089">
        <ele>443.665</ele>
        <time>1970-01-11T02:00:01Z</time>
      </trkpt>
      <trkpt lat="42.453618" lon="-7.969387">
        <ele>444.440</ele>
        <time>1970-01-11T02:00:01Z</time>
      </trkpt>
      <trkpt lat="42.453628" lon="-7.969419">
        <ele>444.638</ele>
        <time>1970-01-11T02:00:01Z</time>
      </trkpt>
      <trkpt lat="42.453672" lon="-7.969553">
        <ele>445.857</ele>
        <time>1970-01-11T02:00:01Z</time>
      </trkpt>
      <trkpt lat="42.453694" lon="-7.969619">
        <ele>445.817</ele>
        <time>1970-01-11T02:00:01Z</time>
      </trkpt>
      <trkpt lat="42.453717" lon="-7.969688">
        <ele>446.087</ele>
        <time>1970-01-11T02:00:01Z</time>
      </trkpt>
      <trkpt lat="42.453765" lon="-7.969830">
        <ele>446.815</ele>
        <time>1970-01-11T02:00:01Z</time>
      </trkpt>
      <trkpt lat="42.453824" lon="-7.969972">
        <ele>446.808</ele>
        <time>1970-01-11T02:00:01Z</time>
      </trkpt>
      <trkpt lat="42.453887" lon="-7.970107">
        <ele>446.842</ele>
        <time>1970-01-11T02:00:01Z</time>
      </trkpt>
      <trkpt lat="42.453996" lon="-7.970325">
        <ele>447.469</ele>
        <time>1970-01-11T02:00:01Z</time>
      </trkpt>
      <trkpt lat="42.454081" lon="-7.970455">
        <ele>448.035</ele>
        <time>1970-01-11T02:00:01Z</time>
      </trkpt>
      <trkpt lat="42.454137" lon="-7.970552">
        <ele>448.483</ele>
        <time>1970-01-11T02:00:01Z</time>
      </trkpt>
      <trkpt lat="42.454187" lon="-7.970664">
        <ele>449.492</ele>
        <time>1970-01-11T02:00:01Z</time>
      </trkpt>
      <trkpt lat="42.454263" lon="-7.970835">
        <ele>450.447</ele>
        <time>1970-01-11T02:00:01Z</time>
      </trkpt>
      <trkpt lat="42.454356" lon="-7.971027">
        <ele>451.425</ele>
        <time>1970-01-11T02:00:01Z</time>
      </trkpt>
      <trkpt lat="42.454373" lon="-7.971072">
        <ele>451.684</ele>
        <time>1970-01-11T02:00:01Z</time>
      </trkpt>
      <trkpt lat="42.454388" lon="-7.971116">
        <ele>451.656</ele>
        <time>1970-01-11T02:00:01Z</time>
      </trkpt>
      <trkpt lat="42.454531" lon="-7.971470">
        <ele>452.059</ele>
        <time>1970-01-11T02:00:01Z</time>
      </trkpt>
      <trkpt lat="42.454654" lon="-7.971572">
        <ele>452.614</ele>
        <time>1970-01-11T02:00:01Z</time>
      </trkpt>
      <trkpt lat="42.454688" lon="-7.971593">
        <ele>452.608</ele>
        <time>1970-01-11T02:00:01Z</time>
      </trkpt>
      <trkpt lat="42.454960" lon="-7.971754">
        <ele>453.086</ele>
        <time>1970-01-11T02:00:01Z</time>
      </trkpt>
      <trkpt lat="42.455134" lon="-7.972002">
        <ele>453.223</ele>
        <time>1970-01-11T02:00:01Z</time>
      </trkpt>
      <trkpt lat="42.455194" lon="-7.972147">
        <ele>453.899</ele>
        <time>1970-01-11T02:00:01Z</time>
      </trkpt>
      <trkpt lat="42.455283" lon="-7.972319">
        <ele>454.827</ele>
        <time>1970-01-11T02:00:01Z</time>
      </trkpt>
      <trkpt lat="42.455309" lon="-7.972362">
        <ele>455.036</ele>
        <time>1970-01-11T02:00:01Z</time>
      </trkpt>
      <trkpt lat="42.455462" lon="-7.972657">
        <ele>456.221</ele>
        <time>1970-01-11T02:00:01Z</time>
      </trkpt>
      <trkpt lat="42.455486" lon="-7.972766">
        <ele>457.269</ele>
        <time>1970-01-11T02:00:01Z</time>
      </trkpt>
      <trkpt lat="42.455485" lon="-7.972787">
        <ele>457.628</ele>
        <time>1970-01-11T02:00:01Z</time>
      </trkpt>
      <trkpt lat="42.455466" lon="-7.972812">
        <ele>458.478</ele>
        <time>1970-01-11T02:00:01Z</time>
      </trkpt>
      <trkpt lat="42.455450" lon="-7.972859">
        <ele>458.833</ele>
        <time>1970-01-11T02:00:01Z</time>
      </trkpt>
      <trkpt lat="42.455446" lon="-7.972882">
        <ele>458.826</ele>
        <time>1970-01-11T02:00:01Z</time>
      </trkpt>
      <trkpt lat="42.455415" lon="-7.973033">
        <ele>458.808</ele>
        <time>1970-01-11T02:00:01Z</time>
      </trkpt>
      <trkpt lat="42.455381" lon="-7.973303">
        <ele>458.648</ele>
        <time>1970-01-11T02:00:01Z</time>
      </trkpt>
      <trkpt lat="42.455352" lon="-7.973573">
        <ele>457.825</ele>
        <time>1970-01-11T02:00:01Z</time>
      </trkpt>
      <trkpt lat="42.455306" lon="-7.973679">
        <ele>457.291</ele>
        <time>1970-01-11T02:00:01Z</time>
      </trkpt>
      <trkpt lat="42.455318" lon="-7.973767">
        <ele>456.869</ele>
        <time>1970-01-11T02:00:01Z</time>
      </trkpt>
      <trkpt lat="42.455349" lon="-7.973798">
        <ele>456.898</ele>
        <time>1970-01-11T02:00:01Z</time>
      </trkpt>
      <trkpt lat="42.455469" lon="-7.974029">
        <ele>456.443</ele>
        <time>1970-01-11T02:00:01Z</time>
      </trkpt>
      <trkpt lat="42.455478" lon="-7.974233">
        <ele>456.421</ele>
        <time>1970-01-11T02:00:01Z</time>
      </trkpt>
      <trkpt lat="42.455485" lon="-7.974365">
        <ele>456.210</ele>
        <time>1970-01-11T02:00:01Z</time>
      </trkpt>
      <trkpt lat="42.455487" lon="-7.974422">
        <ele>456.266</ele>
        <time>1970-01-11T02:00:01Z</time>
      </trkpt>
      <trkpt lat="42.455495" lon="-7.974479">
        <ele>456.229</ele>
        <time>1970-01-11T02:00:01Z</time>
      </trkpt>
      <trkpt lat="42.455540" lon="-7.974651">
        <ele>456.221</ele>
        <time>1970-01-11T02:00:01Z</time>
      </trkpt>
      <trkpt lat="42.455573" lon="-7.974762">
        <ele>456.408</ele>
        <time>1970-01-11T02:00:01Z</time>
      </trkpt>
      <trkpt lat="42.455639" lon="-7.974955">
        <ele>456.697</ele>
        <time>1970-01-11T02:00:01Z</time>
      </trkpt>
      <trkpt lat="42.455734" lon="-7.975254">
        <ele>456.614</ele>
        <time>1970-01-11T02:00:01Z</time>
      </trkpt>
      <trkpt lat="42.455842" lon="-7.975616">
        <ele>454.830</ele>
        <time>1970-01-11T02:00:01Z</time>
      </trkpt>
      <trkpt lat="42.455897" lon="-7.975786">
        <ele>453.818</ele>
        <time>1970-01-11T02:00:01Z</time>
      </trkpt>
      <trkpt lat="42.455922" lon="-7.975865">
        <ele>453.487</ele>
        <time>1970-01-11T02:00:01Z</time>
      </trkpt>
      <trkpt lat="42.455971" lon="-7.976012">
        <ele>452.212</ele>
        <time>1970-01-11T02:00:01Z</time>
      </trkpt>
      <trkpt lat="42.456022" lon="-7.976124">
        <ele>451.490</ele>
        <time>1970-01-11T02:00:01Z</time>
      </trkpt>
      <trkpt lat="42.456048" lon="-7.976172">
        <ele>451.229</ele>
        <time>1970-01-11T02:00:01Z</time>
      </trkpt>
      <trkpt lat="42.456120" lon="-7.976289">
        <ele>450.622</ele>
        <time>1970-01-11T02:00:01Z</time>
      </trkpt>
      <trkpt lat="42.456154" lon="-7.976350">
        <ele>450.462</ele>
        <time>1970-01-11T02:00:01Z</time>
      </trkpt>
      <trkpt lat="42.456227" lon="-7.976494">
        <ele>450.408</ele>
        <time>1970-01-11T02:00:01Z</time>
      </trkpt>
      <trkpt lat="42.456291" lon="-7.976681">
        <ele>451.008</ele>
        <time>1970-01-11T02:00:01Z</time>
      </trkpt>
      <trkpt lat="42.456314" lon="-7.976716">
        <ele>451.243</ele>
        <time>1970-01-11T02:00:01Z</time>
      </trkpt>
      <trkpt lat="42.456377" lon="-7.976848">
        <ele>452.260</ele>
        <time>1970-01-11T02:00:01Z</time>
      </trkpt>
      <trkpt lat="42.456395" lon="-7.976911">
        <ele>452.476</ele>
        <time>1970-01-11T02:00:01Z</time>
      </trkpt>
      <trkpt lat="42.456407" lon="-7.976970">
        <ele>452.694</ele>
        <time>1970-01-11T02:00:01Z</time>
      </trkpt>
      <trkpt lat="42.456416" lon="-7.977125">
        <ele>453.013</ele>
        <time>1970-01-11T02:00:01Z</time>
      </trkpt>
      <trkpt lat="42.456414" lon="-7.977198">
        <ele>453.498</ele>
        <time>1970-01-11T02:00:01Z</time>
      </trkpt>
      <trkpt lat="42.456415" lon="-7.977231">
        <ele>453.416</ele>
        <time>1970-01-11T02:00:01Z</time>
      </trkpt>
      <trkpt lat="42.456447" lon="-7.977380">
        <ele>454.865</ele>
        <time>1970-01-11T02:00:01Z</time>
      </trkpt>
      <trkpt lat="42.456501" lon="-7.977510">
        <ele>455.867</ele>
        <time>1970-01-11T02:00:01Z</time>
      </trkpt>
      <trkpt lat="42.456546" lon="-7.977646">
        <ele>456.681</ele>
        <time>1970-01-11T02:00:01Z</time>
      </trkpt>
      <trkpt lat="42.456585" lon="-7.977754">
        <ele>457.019</ele>
        <time>1970-01-11T02:00:01Z</time>
      </trkpt>
      <trkpt lat="42.456654" lon="-7.977945">
        <ele>457.608</ele>
        <time>1970-01-11T02:00:01Z</time>
      </trkpt>
      <trkpt lat="42.456724" lon="-7.978164">
        <ele>458.037</ele>
        <time>1970-01-11T02:00:01Z</time>
      </trkpt>
      <trkpt lat="42.456760" lon="-7.978272">
        <ele>458.234</ele>
        <time>1970-01-11T02:00:01Z</time>
      </trkpt>
      <trkpt lat="42.456810" lon="-7.978461">
        <ele>459.010</ele>
        <time>1970-01-11T02:00:01Z</time>
      </trkpt>
      <trkpt lat="42.456841" lon="-7.978627">
        <ele>459.458</ele>
        <time>1970-01-11T02:00:01Z</time>
      </trkpt>
      <trkpt lat="42.456905" lon="-7.978868">
        <ele>459.847</ele>
        <time>1970-01-11T02:00:01Z</time>
      </trkpt>
      <trkpt lat="42.456924" lon="-7.978907">
        <ele>459.832</ele>
        <time>1970-01-11T02:00:01Z</time>
      </trkpt>
      <trkpt lat="42.456953" lon="-7.978985">
        <ele>460.290</ele>
        <time>1970-01-11T02:00:01Z</time>
      </trkpt>
      <trkpt lat="42.457016" lon="-7.979210">
        <ele>460.849</ele>
        <time>1970-01-11T02:00:01Z</time>
      </trkpt>
      <trkpt lat="42.457080" lon="-7.979427">
        <ele>461.213</ele>
        <time>1970-01-11T02:00:01Z</time>
      </trkpt>
      <trkpt lat="42.457147" lon="-7.979611">
        <ele>461.843</ele>
        <time>1970-01-11T02:00:01Z</time>
      </trkpt>
      <trkpt lat="42.457262" lon="-7.979875">
        <ele>461.807</ele>
        <time>1970-01-11T02:00:01Z</time>
      </trkpt>
      <trkpt lat="42.457355" lon="-7.980090">
        <ele>462.208</ele>
        <time>1970-01-11T02:00:01Z</time>
      </trkpt>
      <trkpt lat="42.457405" lon="-7.980197">
        <ele>462.662</ele>
        <time>1970-01-11T02:00:01Z</time>
      </trkpt>
      <trkpt lat="42.457461" lon="-7.980382">
        <ele>463.219</ele>
        <time>1970-01-11T02:00:01Z</time>
      </trkpt>
      <trkpt lat="42.457478" lon="-7.980456">
        <ele>463.425</ele>
        <time>1970-01-11T02:00:01Z</time>
      </trkpt>
      <trkpt lat="42.457539" lon="-7.980670">
        <ele>463.693</ele>
        <time>1970-01-11T02:00:01Z</time>
      </trkpt>
      <trkpt lat="42.457641" lon="-7.981029">
        <ele>464.472</ele>
        <time>1970-01-11T02:00:01Z</time>
      </trkpt>
      <trkpt lat="42.457671" lon="-7.981124">
        <ele>464.887</ele>
        <time>1970-01-11T02:00:01Z</time>
      </trkpt>
      <trkpt lat="42.457711" lon="-7.981243">
        <ele>465.645</ele>
        <time>1970-01-11T02:00:01Z</time>
      </trkpt>
      <trkpt lat="42.457748" lon="-7.981339">
        <ele>466.024</ele>
        <time>1970-01-11T02:00:01Z</time>
      </trkpt>
      <trkpt lat="42.457832" lon="-7.981522">
        <ele>466.633</ele>
        <time>1970-01-11T02:00:01Z</time>
      </trkpt>
      <trkpt lat="42.457903" lon="-7.981824">
        <ele>467.623</ele>
        <time>1970-01-11T02:00:01Z</time>
      </trkpt>
      <trkpt lat="42.457906" lon="-7.981875">
        <ele>467.615</ele>
        <time>1970-01-11T02:00:01Z</time>
      </trkpt>
      <trkpt lat="42.457975" lon="-7.982209">
        <ele>468.608</ele>
        <time>1970-01-11T02:00:01Z</time>
      </trkpt>
      <trkpt lat="42.457986" lon="-7.982253">
        <ele>468.894</ele>
        <time>1970-01-11T02:00:01Z</time>
      </trkpt>
      <trkpt lat="42.458069" lon="-7.982462">
        <ele>469.021</ele>
        <time>1970-01-11T02:00:01Z</time>
      </trkpt>
      <trkpt lat="42.458161" lon="-7.982746">
        <ele>470.067</ele>
        <time>1970-01-11T02:00:01Z</time>
      </trkpt>
      <trkpt lat="42.458186" lon="-7.982819">
        <ele>470.485</ele>
        <time>1970-01-11T02:00:01Z</time>
      </trkpt>
      <trkpt lat="42.458219" lon="-7.982923">
        <ele>471.284</ele>
        <time>1970-01-11T02:00:01Z</time>
      </trkpt>
      <trkpt lat="42.458266" lon="-7.983065">
        <ele>472.019</ele>
        <time>1970-01-11T02:00:01Z</time>
      </trkpt>
      <trkpt lat="42.458287" lon="-7.983146">
        <ele>472.497</ele>
        <time>1970-01-11T02:00:01Z</time>
      </trkpt>
      <trkpt lat="42.458319" lon="-7.983255">
        <ele>473.056</ele>
        <time>1970-01-11T02:00:01Z</time>
      </trkpt>
      <trkpt lat="42.458360" lon="-7.983444">
        <ele>473.449</ele>
        <time>1970-01-11T02:00:01Z</time>
      </trkpt>
      <trkpt lat="42.458365" lon="-7.983472">
        <ele>473.402</ele>
        <time>1970-01-11T02:00:01Z</time>
      </trkpt>
      <trkpt lat="42.458411" lon="-7.983645">
        <ele>474.222</ele>
        <time>1970-01-11T02:00:02Z</time>
      </trkpt>
      <trkpt lat="42.458429" lon="-7.983707">
        <ele>474.608</ele>
        <time>1970-01-11T02:00:02Z</time>
      </trkpt>
      <trkpt lat="42.458472" lon="-7.983807">
        <ele>475.665</ele>
        <time>1970-01-11T02:00:02Z</time>
      </trkpt>
      <trkpt lat="42.458496" lon="-7.983858">
        <ele>476.272</ele>
        <time>1970-01-11T02:00:02Z</time>
      </trkpt>
      <trkpt lat="42.458515" lon="-7.983905">
        <ele>476.838</ele>
        <time>1970-01-11T02:00:02Z</time>
      </trkpt>
      <trkpt lat="42.458567" lon="-7.984038">
        <ele>477.836</ele>
        <time>1970-01-11T02:00:02Z</time>
      </trkpt>
      <trkpt lat="42.458574" lon="-7.984063">
        <ele>477.815</ele>
        <time>1970-01-11T02:00:02Z</time>
      </trkpt>
      <trkpt lat="42.458620" lon="-7.984239">
        <ele>478.830</ele>
        <time>1970-01-11T02:00:02Z</time>
      </trkpt>
      <trkpt lat="42.458629" lon="-7.984267">
        <ele>479.018</ele>
        <time>1970-01-11T02:00:02Z</time>
      </trkpt>
      <trkpt lat="42.458696" lon="-7.984465">
        <ele>479.867</ele>
        <time>1970-01-11T02:00:02Z</time>
      </trkpt>
      <trkpt lat="42.458712" lon="-7.984529">
        <ele>480.069</ele>
        <time>1970-01-11T02:00:02Z</time>
      </trkpt>
      <trkpt lat="42.458774" lon="-7.984739">
        <ele>480.804</ele>
        <time>1970-01-11T02:00:02Z</time>
      </trkpt>
      <trkpt lat="42.458816" lon="-7.984836">
        <ele>481.224</ele>
        <time>1970-01-11T02:00:02Z</time>
      </trkpt>
      <trkpt lat="42.458879" lon="-7.985005">
        <ele>481.808</ele>
        <time>1970-01-11T02:00:02Z</time>
      </trkpt>
      <trkpt lat="42.458906" lon="-7.985105">
        <ele>482.237</ele>
        <time>1970-01-11T02:00:02Z</time>
      </trkpt>
      <trkpt lat="42.458918" lon="-7.985259">
        <ele>482.894</ele>
        <time>1970-01-11T02:00:02Z</time>
      </trkpt>
      <trkpt lat="42.458918" lon="-7.985515">
        <ele>483.250</ele>
        <time>1970-01-11T02:00:02Z</time>
      </trkpt>
      <trkpt lat="42.458916" lon="-7.985552">
        <ele>483.448</ele>
        <time>1970-01-11T02:00:02Z</time>
      </trkpt>
      <trkpt lat="42.458918" lon="-7.985708">
        <ele>484.417</ele>
        <time>1970-01-11T02:00:02Z</time>
      </trkpt>
      <trkpt lat="42.458935" lon="-7.985745">
        <ele>484.652</ele>
        <time>1970-01-11T02:00:02Z</time>
      </trkpt>
      <trkpt lat="42.458965" lon="-7.985762">
        <ele>484.820</ele>
        <time>1970-01-11T02:00:02Z</time>
      </trkpt>
      <trkpt lat="42.459029" lon="-7.985771">
        <ele>485.239</ele>
        <time>1970-01-11T02:00:02Z</time>
      </trkpt>
      <trkpt lat="42.459050" lon="-7.985775">
        <ele>485.494</ele>
        <time>1970-01-11T02:00:02Z</time>
      </trkpt>
      <trkpt lat="42.459160" lon="-7.985809">
        <ele>486.457</ele>
        <time>1970-01-11T02:00:02Z</time>
      </trkpt>
      <trkpt lat="42.459274" lon="-7.985848">
        <ele>487.622</ele>
        <time>1970-01-11T02:00:02Z</time>
      </trkpt>
      <trkpt lat="42.459310" lon="-7.985857">
        <ele>487.808</ele>
        <time>1970-01-11T02:00:02Z</time>
      </trkpt>
      <trkpt lat="42.459469" lon="-7.985907">
        <ele>488.640</ele>
        <time>1970-01-11T02:00:02Z</time>
      </trkpt>
      <trkpt lat="42.459492" lon="-7.985916">
        <ele>488.837</ele>
        <time>1970-01-11T02:00:02Z</time>
      </trkpt>
      <trkpt lat="42.459576" lon="-7.985942">
        <ele>489.663</ele>
        <time>1970-01-11T02:00:02Z</time>
      </trkpt>
      <trkpt lat="42.459708" lon="-7.985994">
        <ele>491.071</ele>
        <time>1970-01-11T02:00:02Z</time>
      </trkpt>
      <trkpt lat="42.459782" lon="-7.986051">
        <ele>492.080</ele>
        <time>1970-01-11T02:00:02Z</time>
      </trkpt>
      <trkpt lat="42.459826" lon="-7.986075">
        <ele>492.675</ele>
        <time>1970-01-11T02:00:02Z</time>
      </trkpt>
      <trkpt lat="42.459869" lon="-7.986109">
        <ele>493.213</ele>
        <time>1970-01-11T02:00:02Z</time>
      </trkpt>
      <trkpt lat="42.459930" lon="-7.986156">
        <ele>494.052</ele>
        <time>1970-01-11T02:00:02Z</time>
      </trkpt>
      <trkpt lat="42.459960" lon="-7.986171">
        <ele>494.485</ele>
        <time>1970-01-11T02:00:02Z</time>
      </trkpt>
      <trkpt lat="42.460109" lon="-7.986255">
        <ele>495.689</ele>
        <time>1970-01-11T02:00:02Z</time>
      </trkpt>
      <trkpt lat="42.460336" lon="-7.986345">
        <ele>496.617</ele>
        <time>1970-01-11T02:00:02Z</time>
      </trkpt>
      <trkpt lat="42.460360" lon="-7.986355">
        <ele>496.608</ele>
        <time>1970-01-11T02:00:02Z</time>
      </trkpt>
      <trkpt lat="42.460535" lon="-7.986411">
        <ele>497.439</ele>
        <time>1970-01-11T02:00:02Z</time>
      </trkpt>
      <trkpt lat="42.460585" lon="-7.986436">
        <ele>497.886</ele>
        <time>1970-01-11T02:00:02Z</time>
      </trkpt>
      <trkpt lat="42.460711" lon="-7.986513">
        <ele>498.882</ele>
        <time>1970-01-11T02:00:02Z</time>
      </trkpt>
      <trkpt lat="42.460740" lon="-7.986541">
        <ele>499.060</ele>
        <time>1970-01-11T02:00:02Z</time>
      </trkpt>
      <trkpt lat="42.460873" lon="-7.986631">
        <ele>500.049</ele>
        <time>1970-01-11T02:00:02Z</time>
      </trkpt>
      <trkpt lat="42.460904" lon="-7.986655">
        <ele>500.274</ele>
        <time>1970-01-11T02:00:02Z</time>
      </trkpt>
      <trkpt lat="42.461065" lon="-7.986711">
        <ele>501.272</ele>
        <time>1970-01-11T02:00:02Z</time>
      </trkpt>
      <trkpt lat="42.461098" lon="-7.986721">
        <ele>501.461</ele>
        <time>1970-01-11T02:00:02Z</time>
      </trkpt>
      <trkpt lat="42.461289" lon="-7.986773">
        <ele>502.296</ele>
        <time>1970-01-11T02:00:02Z</time>
      </trkpt>
      <trkpt lat="42.461398" lon="-7.986800">
        <ele>502.231</ele>
        <time>1970-01-11T02:00:02Z</time>
      </trkpt>
      <trkpt lat="42.461609" lon="-7.986861">
        <ele>502.224</ele>
        <time>1970-01-11T02:00:02Z</time>
      </trkpt>
      <trkpt lat="42.461677" lon="-7.986884">
        <ele>502.208</ele>
        <time>1970-01-11T02:00:02Z</time>
      </trkpt>
      <trkpt lat="42.461836" lon="-7.987023">
        <ele>502.220</ele>
        <time>1970-01-11T02:00:02Z</time>
      </trkpt>
      <trkpt lat="42.461944" lon="-7.987187">
        <ele>502.227</ele>
        <time>1970-01-11T02:00:02Z</time>
      </trkpt>
      <trkpt lat="42.461959" lon="-7.987238">
        <ele>502.253</ele>
        <time>1970-01-11T02:00:02Z</time>
      </trkpt>
      <trkpt lat="42.461964" lon="-7.987341">
        <ele>502.251</ele>
        <time>1970-01-11T02:00:02Z</time>
      </trkpt>
      <trkpt lat="42.461965" lon="-7.987433">
        <ele>502.050</ele>
        <time>1970-01-11T02:00:02Z</time>
      </trkpt>
      <trkpt lat="42.461954" lon="-7.987484">
        <ele>501.855</ele>
        <time>1970-01-11T02:00:02Z</time>
      </trkpt>
      <trkpt lat="42.461946" lon="-7.987498">
        <ele>501.683</ele>
        <time>1970-01-11T02:00:02Z</time>
      </trkpt>
      <trkpt lat="42.461933" lon="-7.987571">
        <ele>501.442</ele>
        <time>1970-01-11T02:00:02Z</time>
      </trkpt>
      <trkpt lat="42.461924" lon="-7.987650">
        <ele>501.449</ele>
        <time>1970-01-11T02:00:02Z</time>
      </trkpt>
      <trkpt lat="42.461916" lon="-7.987807">
        <ele>501.202</ele>
        <time>1970-01-11T02:00:02Z</time>
      </trkpt>
      <trkpt lat="42.461919" lon="-7.987827">
        <ele>501.222</ele>
        <time>1970-01-11T02:00:02Z</time>
      </trkpt>
      <trkpt lat="42.461925" lon="-7.987833">
        <ele>500.808</ele>
        <time>1970-01-11T02:00:02Z</time>
      </trkpt>
      <trkpt lat="42.461928" lon="-7.987818">
        <ele>500.055</ele>
        <time>1970-01-11T02:00:02Z</time>
      </trkpt>
      <trkpt lat="42.461921" lon="-7.987772">
        <ele>499.262</ele>
        <time>1970-01-11T02:00:02Z</time>
      </trkpt>
      <trkpt lat="42.461922" lon="-7.987752">
        <ele>499.248</ele>
        <time>1970-01-11T02:00:02Z</time>
      </trkpt>
      <trkpt lat="42.461924" lon="-7.987652">
        <ele>499.266</ele>
        <time>1970-01-11T02:00:02Z</time>
      </trkpt>
      <trkpt lat="42.461922" lon="-7.987572">
        <ele>499.495</ele>
        <time>1970-01-11T02:00:02Z</time>
      </trkpt>
      <trkpt lat="42.461956" lon="-7.987481">
        <ele>500.070</ele>
        <time>1970-01-11T02:00:02Z</time>
      </trkpt>
      <trkpt lat="42.462012" lon="-7.987535">
        <ele>500.878</ele>
        <time>1970-01-11T02:00:02Z</time>
      </trkpt>
      <trkpt lat="42.462024" lon="-7.987570">
        <ele>501.047</ele>
        <time>1970-01-11T02:00:02Z</time>
      </trkpt>
      <trkpt lat="42.462042" lon="-7.987739">
        <ele>501.474</ele>
        <time>1970-01-11T02:00:02Z</time>
      </trkpt>
      <trkpt lat="42.462046" lon="-7.987926">
        <ele>501.056</ele>
        <time>1970-01-11T02:00:02Z</time>
      </trkpt>
      <trkpt lat="42.462056" lon="-7.987996">
        <ele>500.821</ele>
        <time>1970-01-11T02:00:02Z</time>
      </trkpt>
      <trkpt lat="42.462120" lon="-7.988172">
        <ele>500.008</ele>
        <time>1970-01-11T02:00:02Z</time>
      </trkpt>
      <trkpt lat="42.462144" lon="-7.988233">
        <ele>499.668</ele>
        <time>1970-01-11T02:00:02Z</time>
      </trkpt>
      <trkpt lat="42.462181" lon="-7.988357">
        <ele>498.625</ele>
        <time>1970-01-11T02:00:02Z</time>
      </trkpt>
      <trkpt lat="42.462195" lon="-7.988468">
        <ele>497.491</ele>
        <time>1970-01-11T02:00:02Z</time>
      </trkpt>
      <trkpt lat="42.462191" lon="-7.988514">
        <ele>496.859</ele>
        <time>1970-01-11T02:00:02Z</time>
      </trkpt>
      <trkpt lat="42.462183" lon="-7.988549">
        <ele>496.028</ele>
        <time>1970-01-11T02:00:02Z</time>
      </trkpt>
      <trkpt lat="42.462168" lon="-7.988672">
        <ele>495.053</ele>
        <time>1970-01-11T02:00:02Z</time>
      </trkpt>
      <trkpt lat="42.462167" lon="-7.988723">
        <ele>494.891</ele>
        <time>1970-01-11T02:00:02Z</time>
      </trkpt>
      <trkpt lat="42.462102" lon="-7.989080">
        <ele>495.090</ele>
        <time>1970-01-11T02:00:02Z</time>
      </trkpt>
      <trkpt lat="42.461981" lon="-7.989451">
        <ele>495.217</ele>
        <time>1970-01-11T02:00:02Z</time>
      </trkpt>
      <trkpt lat="42.461927" lon="-7.989825">
        <ele>494.287</ele>
        <time>1970-01-11T02:00:02Z</time>
      </trkpt>
      <trkpt lat="42.461917" lon="-7.989860">
        <ele>493.815</ele>
        <time>1970-01-11T02:00:02Z</time>
      </trkpt>
      <trkpt lat="42.461909" lon="-7.989895">
        <ele>493.008</ele>
        <time>1970-01-11T02:00:02Z</time>
      </trkpt>
      <trkpt lat="42.461908" lon="-7.989918">
        <ele>492.852</ele>
        <time>1970-01-11T02:00:02Z</time>
      </trkpt>
      <trkpt lat="42.461873" lon="-7.990089">
        <ele>492.629</ele>
        <time>1970-01-11T02:00:02Z</time>
      </trkpt>
      <trkpt lat="42.461758" lon="-7.990299">
        <ele>493.435</ele>
        <time>1970-01-11T02:00:02Z</time>
      </trkpt>
      <trkpt lat="42.461737" lon="-7.990322">
        <ele>493.653</ele>
        <time>1970-01-11T02:00:02Z</time>
      </trkpt>
      <trkpt lat="42.461718" lon="-7.990347">
        <ele>493.872</ele>
        <time>1970-01-11T02:00:02Z</time>
      </trkpt>
      <trkpt lat="42.461654" lon="-7.990428">
        <ele>495.067</ele>
        <time>1970-01-11T02:00:02Z</time>
      </trkpt>
      <trkpt lat="42.461630" lon="-7.990470">
        <ele>495.445</ele>
        <time>1970-01-11T02:00:02Z</time>
      </trkpt>
      <trkpt lat="42.461583" lon="-7.990544">
        <ele>496.044</ele>
        <time>1970-01-11T02:00:02Z</time>
      </trkpt>
      <trkpt lat="42.461509" lon="-7.990632">
        <ele>496.078</ele>
        <time>1970-01-11T02:00:02Z</time>
      </trkpt>
      <trkpt lat="42.461312" lon="-7.990797">
        <ele>495.633</ele>
        <time>1970-01-11T02:00:02Z</time>
      </trkpt>
      <trkpt lat="42.461149" lon="-7.990926">
        <ele>495.626</ele>
        <time>1970-01-11T02:00:02Z</time>
      </trkpt>
      <trkpt lat="42.461123" lon="-7.990946">
        <ele>495.808</ele>
        <time>1970-01-11T02:00:02Z</time>
      </trkpt>
      <trkpt lat="42.460994" lon="-7.991005">
        <ele>496.468</ele>
        <time>1970-01-11T02:00:02Z</time>
      </trkpt>
      <trkpt lat="42.460885" lon="-7.990997">
        <ele>496.635</ele>
        <time>1970-01-11T02:00:02Z</time>
      </trkpt>
      <trkpt lat="42.460821" lon="-7.990990">
        <ele>497.061</ele>
        <time>1970-01-11T02:00:02Z</time>
      </trkpt>
      <trkpt lat="42.460702" lon="-7.990957">
        <ele>497.889</ele>
        <time>1970-01-11T02:00:02Z</time>
      </trkpt>
      <trkpt lat="42.460666" lon="-7.990941">
        <ele>498.038</ele>
        <time>1970-01-11T02:00:02Z</time>
      </trkpt>
      <trkpt lat="42.460635" lon="-7.990922">
        <ele>498.493</ele>
        <time>1970-01-11T02:00:02Z</time>
      </trkpt>
      <trkpt lat="42.460562" lon="-7.990899">
        <ele>499.031</ele>
        <time>1970-01-11T02:00:02Z</time>
      </trkpt>
      <trkpt lat="42.460460" lon="-7.990863">
        <ele>500.290</ele>
        <time>1970-01-11T02:00:02Z</time>
      </trkpt>
      <trkpt lat="42.460374" lon="-7.990830">
        <ele>501.095</ele>
        <time>1970-01-11T02:00:02Z</time>
      </trkpt>
      <trkpt lat="42.460347" lon="-7.990822">
        <ele>501.249</ele>
        <time>1970-01-11T02:00:02Z</time>
      </trkpt>
      <trkpt lat="42.460280" lon="-7.990804">
        <ele>501.623</ele>
        <time>1970-01-11T02:00:02Z</time>
      </trkpt>
      <trkpt lat="42.460199" lon="-7.990794">
        <ele>502.608</ele>
        <time>1970-01-11T02:00:02Z</time>
      </trkpt>
      <trkpt lat="42.460100" lon="-7.990759">
        <ele>503.490</ele>
        <time>1970-01-11T02:00:02Z</time>
      </trkpt>
      <trkpt lat="42.460081" lon="-7.990749">
        <ele>503.857</ele>
        <time>1970-01-11T02:00:02Z</time>
      </trkpt>
      <trkpt lat="42.459963" lon="-7.990717">
        <ele>504.833</ele>
        <time>1970-01-11T02:00:02Z</time>
      </trkpt>
      <trkpt lat="42.459817" lon="-7.990789">
        <ele>505.491</ele>
        <time>1970-01-11T02:00:02Z</time>
      </trkpt>
      <trkpt lat="42.459659" lon="-7.990893">
        <ele>504.830</ele>
        <time>1970-01-11T02:00:02Z</time>
      </trkpt>
      <trkpt lat="42.459614" lon="-7.990986">
        <ele>504.875</ele>
        <time>1970-01-11T02:00:02Z</time>
      </trkpt>
      <trkpt lat="42.459602" lon="-7.991026">
        <ele>504.843</ele>
        <time>1970-01-11T02:00:02Z</time>
      </trkpt>
      <trkpt lat="42.459595" lon="-7.991071">
        <ele>505.012</ele>
        <time>1970-01-11T02:00:02Z</time>
      </trkpt>
      <trkpt lat="42.459604" lon="-7.991109">
        <ele>505.041</ele>
        <time>1970-01-11T02:00:02Z</time>
      </trkpt>
      <trkpt lat="42.459617" lon="-7.991110">
        <ele>505.081</ele>
        <time>1970-01-11T02:00:02Z</time>
      </trkpt>
      <trkpt lat="42.459654" lon="-7.991148">
        <ele>505.209</ele>
        <time>1970-01-11T02:00:02Z</time>
      </trkpt>
      <trkpt lat="42.459684" lon="-7.991167">
        <ele>505.408</ele>
        <time>1970-01-11T02:00:02Z</time>
      </trkpt>
      <trkpt lat="42.459711" lon="-7.991177">
        <ele>505.815</ele>
        <time>1970-01-11T02:00:02Z</time>
      </trkpt>
      <trkpt lat="42.459724" lon="-7.991179">
        <ele>506.292</ele>
        <time>1970-01-11T02:00:02Z</time>
      </trkpt>
      <trkpt lat="42.459783" lon="-7.991202">
        <ele>507.498</ele>
        <time>1970-01-11T02:00:02Z</time>
      </trkpt>
      <trkpt lat="42.459828" lon="-7.991223">
        <ele>508.646</ele>
        <time>1970-01-11T02:00:02Z</time>
      </trkpt>
      <trkpt lat="42.459868" lon="-7.991263">
        <ele>509.685</ele>
        <time>1970-01-11T02:00:02Z</time>
      </trkpt>
      <trkpt lat="42.459887" lon="-7.991295">
        <ele>510.070</ele>
        <time>1970-01-11T02:00:02Z</time>
      </trkpt>
      <trkpt lat="42.459929" lon="-7.991391">
        <ele>510.648</ele>
        <time>1970-01-11T02:00:02Z</time>
      </trkpt>
      <trkpt lat="42.459941" lon="-7.991412">
        <ele>510.837</ele>
        <time>1970-01-11T02:00:02Z</time>
      </trkpt>
      <trkpt lat="42.459995" lon="-7.991561">
        <ele>511.871</ele>
        <time>1970-01-11T02:00:02Z</time>
      </trkpt>
      <trkpt lat="42.460000" lon="-7.991586">
        <ele>512.041</ele>
        <time>1970-01-11T02:00:02Z</time>
      </trkpt>
      <trkpt lat="42.460002" lon="-7.991668">
        <ele>513.015</ele>
        <time>1970-01-11T02:00:02Z</time>
      </trkpt>
      <trkpt lat="42.459991" lon="-7.991774">
        <ele>513.608</ele>
        <time>1970-01-11T02:00:02Z</time>
      </trkpt>
      <trkpt lat="42.459981" lon="-7.991821">
        <ele>514.028</ele>
        <time>1970-01-11T02:00:02Z</time>
      </trkpt>
      <trkpt lat="42.459973" lon="-7.991893">
        <ele>515.245</ele>
        <time>1970-01-11T02:00:02Z</time>
      </trkpt>
      <trkpt lat="42.459949" lon="-7.991967">
        <ele>515.851</ele>
        <time>1970-01-11T02:00:02Z</time>
      </trkpt>
      <trkpt lat="42.459927" lon="-7.992084">
        <ele>516.239</ele>
        <time>1970-01-11T02:00:02Z</time>
      </trkpt>
      <trkpt lat="42.459895" lon="-7.992168">
        <ele>516.438</ele>
        <time>1970-01-11T02:00:02Z</time>
      </trkpt>
      <trkpt lat="42.459773" lon="-7.992325">
        <ele>517.053</ele>
        <time>1970-01-11T02:00:02Z</time>
      </trkpt>
      <trkpt lat="42.459736" lon="-7.992376">
        <ele>517.281</ele>
        <time>1970-01-11T02:00:02Z</time>
      </trkpt>
      <trkpt lat="42.459660" lon="-7.992494">
        <ele>518.020</ele>
        <time>1970-01-11T02:00:02Z</time>
      </trkpt>
      <trkpt lat="42.459625" lon="-7.992580">
        <ele>518.474</ele>
        <time>1970-01-11T02:00:02Z</time>
      </trkpt>
      <trkpt lat="42.459585" lon="-7.992672">
        <ele>519.256</ele>
        <time>1970-01-11T02:00:02Z</time>
      </trkpt>
      <trkpt lat="42.459563" lon="-7.992738">
        <ele>519.621</ele>
        <time>1970-01-11T02:00:02Z</time>
      </trkpt>
      <trkpt lat="42.459506" lon="-7.992869">
        <ele>520.008</ele>
        <time>1970-01-11T02:00:02Z</time>
      </trkpt>
      <trkpt lat="42.459407" lon="-7.993131">
        <ele>520.018</ele>
        <time>1970-01-11T02:00:02Z</time>
      </trkpt>
      <trkpt lat="42.459322" lon="-7.993372">
        <ele>520.015</ele>
        <time>1970-01-11T02:00:02Z</time>
      </trkpt>
      <trkpt lat="42.459185" lon="-7.993616">
        <ele>519.411</ele>
        <time>1970-01-11T02:00:02Z</time>
      </trkpt>
      <trkpt lat="42.459163" lon="-7.993679">
        <ele>519.019</ele>
        <time>1970-01-11T02:00:02Z</time>
      </trkpt>
      <trkpt lat="42.459141" lon="-7.993813">
        <ele>518.448</ele>
        <time>1970-01-11T02:00:02Z</time>
      </trkpt>
      <trkpt lat="42.459138" lon="-7.993883">
        <ele>518.483</ele>
        <time>1970-01-11T02:00:02Z</time>
      </trkpt>
      <trkpt lat="42.459130" lon="-7.993951">
        <ele>518.241</ele>
        <time>1970-01-11T02:00:02Z</time>
      </trkpt>
      <trkpt lat="42.459093" lon="-7.994150">
        <ele>517.810</ele>
        <time>1970-01-11T02:00:02Z</time>
      </trkpt>
      <trkpt lat="42.459071" lon="-7.994283">
        <ele>517.091</ele>
        <time>1970-01-11T02:00:02Z</time>
      </trkpt>
      <trkpt lat="42.459062" lon="-7.994352">
        <ele>516.481</ele>
        <time>1970-01-11T02:00:02Z</time>
      </trkpt>
      <trkpt lat="42.459055" lon="-7.994417">
        <ele>515.819</ele>
        <time>1970-01-11T02:00:02Z</time>
      </trkpt>
      <trkpt lat="42.459039" lon="-7.994548">
        <ele>515.208</ele>
        <time>1970-01-11T02:00:02Z</time>
      </trkpt>
      <trkpt lat="42.459005" lon="-7.994676">
        <ele>514.830</ele>
        <time>1970-01-11T02:00:02Z</time>
      </trkpt>
      <trkpt lat="42.458977" lon="-7.994739">
        <ele>514.687</ele>
        <time>1970-01-11T02:00:02Z</time>
      </trkpt>
      <trkpt lat="42.458892" lon="-7.994819">
        <ele>514.073</ele>
        <time>1970-01-11T02:00:02Z</time>
      </trkpt>
      <trkpt lat="42.458841" lon="-7.994823">
        <ele>513.651</ele>
        <time>1970-01-11T02:00:02Z</time>
      </trkpt>
      <trkpt lat="42.458746" lon="-7.994834">
        <ele>513.280</ele>
        <time>1970-01-11T02:00:02Z</time>
      </trkpt>
      <trkpt lat="42.458664" lon="-7.994857">
        <ele>512.825</ele>
        <time>1970-01-11T02:00:02Z</time>
      </trkpt>
      <trkpt lat="42.458628" lon="-7.994857">
        <ele>512.863</ele>
        <time>1970-01-11T02:00:02Z</time>
      </trkpt>
      <trkpt lat="42.458578" lon="-7.994745">
        <ele>512.882</ele>
        <time>1970-01-11T02:00:02Z</time>
      </trkpt>
      <trkpt lat="42.458560" lon="-7.994674">
        <ele>512.883</ele>
        <time>1970-01-11T02:00:02Z</time>
      </trkpt>
      <trkpt lat="42.458552" lon="-7.994617">
        <ele>513.025</ele>
        <time>1970-01-11T02:00:02Z</time>
      </trkpt>
      <trkpt lat="42.458534" lon="-7.994597">
        <ele>513.417</ele>
        <time>1970-01-11T02:00:02Z</time>
      </trkpt>
      <trkpt lat="42.458474" lon="-7.994587">
        <ele>513.608</ele>
        <time>1970-01-11T02:00:02Z</time>
      </trkpt>
      <trkpt lat="42.458393" lon="-7.994569">
        <ele>513.859</ele>
        <time>1970-01-11T02:00:02Z</time>
      </trkpt>
      <trkpt lat="42.458333" lon="-7.994587">
        <ele>514.016</ele>
        <time>1970-01-11T02:00:02Z</time>
      </trkpt>
      <trkpt lat="42.458276" lon="-7.994624">
        <ele>514.672</ele>
        <time>1970-01-11T02:00:02Z</time>
      </trkpt>
      <trkpt lat="42.458252" lon="-7.994639">
        <ele>514.820</ele>
        <time>1970-01-11T02:00:02Z</time>
      </trkpt>
      <trkpt lat="42.458193" lon="-7.994682">
        <ele>516.049</ele>
        <time>1970-01-11T02:00:02Z</time>
      </trkpt>
      <trkpt lat="42.458145" lon="-7.994691">
        <ele>517.074</ele>
        <time>1970-01-11T02:00:02Z</time>
      </trkpt>
      <trkpt lat="42.458123" lon="-7.994698">
        <ele>517.472</ele>
        <time>1970-01-11T02:00:02Z</time>
      </trkpt>
      <trkpt lat="42.458057" lon="-7.994721">
        <ele>518.011</ele>
        <time>1970-01-11T02:00:02Z</time>
      </trkpt>
      <trkpt lat="42.458011" lon="-7.994740">
        <ele>518.487</ele>
        <time>1970-01-11T02:00:02Z</time>
      </trkpt>
      <trkpt lat="42.457975" lon="-7.994787">
        <ele>518.642</ele>
        <time>1970-01-11T02:00:02Z</time>
      </trkpt>
      <trkpt lat="42.457954" lon="-7.994854">
        <ele>518.826</ele>
        <time>1970-01-11T02:00:02Z</time>
      </trkpt>
      <trkpt lat="42.457936" lon="-7.995095">
        <ele>519.208</ele>
        <time>1970-01-11T02:00:02Z</time>
      </trkpt>
      <trkpt lat="42.457787" lon="-7.995240">
        <ele>518.679</ele>
        <time>1970-01-11T02:00:02Z</time>
      </trkpt>
      <trkpt lat="42.457652" lon="-7.995262">
        <ele>517.416</ele>
        <time>1970-01-11T02:00:02Z</time>
      </trkpt>
      <trkpt lat="42.457583" lon="-7.995254">
        <ele>516.442</ele>
        <time>1970-01-11T02:00:02Z</time>
      </trkpt>
      <trkpt lat="42.457520" lon="-7.995242">
        <ele>515.890</ele>
        <time>1970-01-11T02:00:02Z</time>
      </trkpt>
      <trkpt lat="42.457404" lon="-7.995209">
        <ele>514.839</ele>
        <time>1970-01-11T02:00:02Z</time>
      </trkpt>
      <trkpt lat="42.457375" lon="-7.995215">
        <ele>514.654</ele>
        <time>1970-01-11T02:00:02Z</time>
      </trkpt>
      <trkpt lat="42.457252" lon="-7.995278">
        <ele>515.092</ele>
        <time>1970-01-11T02:00:02Z</time>
      </trkpt>
      <trkpt lat="42.457172" lon="-7.995294">
        <ele>515.631</ele>
        <time>1970-01-11T02:00:02Z</time>
      </trkpt>
      <trkpt lat="42.457080" lon="-7.995371">
        <ele>515.816</ele>
        <time>1970-01-11T02:00:02Z</time>
      </trkpt>
      <trkpt lat="42.456858" lon="-7.995523">
        <ele>514.676</ele>
        <time>1970-01-11T02:00:02Z</time>
      </trkpt>
      <trkpt lat="42.456825" lon="-7.995550">
        <ele>514.213</ele>
        <time>1970-01-11T02:00:02Z</time>
      </trkpt>
      <trkpt lat="42.456811" lon="-7.995589">
        <ele>513.808</ele>
        <time>1970-01-11T02:00:02Z</time>
      </trkpt>
      <trkpt lat="42.456823" lon="-7.995627">
        <ele>513.252</ele>
        <time>1970-01-11T02:00:02Z</time>
      </trkpt>
      <trkpt lat="42.456831" lon="-7.995668">
        <ele>512.429</ele>
        <time>1970-01-11T02:00:02Z</time>
      </trkpt>
      <trkpt lat="42.456829" lon="-7.995711">
        <ele>512.045</ele>
        <time>1970-01-11T02:00:02Z</time>
      </trkpt>
      <trkpt lat="42.456832" lon="-7.995750">
        <ele>511.453</ele>
        <time>1970-01-11T02:00:02Z</time>
      </trkpt>
      <trkpt lat="42.456844" lon="-7.995888">
        <ele>510.892</ele>
        <time>1970-01-11T02:00:02Z</time>
      </trkpt>
      <trkpt lat="42.456843" lon="-7.995935">
        <ele>510.827</ele>
        <time>1970-01-11T02:00:02Z</time>
      </trkpt>
      <trkpt lat="42.456787" lon="-7.996275">
        <ele>510.685</ele>
        <time>1970-01-11T02:00:02Z</time>
      </trkpt>
      <trkpt lat="42.456750" lon="-7.996657">
        <ele>509.824</ele>
        <time>1970-01-11T02:00:02Z</time>
      </trkpt>
      <trkpt lat="42.456744" lon="-7.996898">
        <ele>509.425</ele>
        <time>1970-01-11T02:00:02Z</time>
      </trkpt>
      <trkpt lat="42.456731" lon="-7.997040">
        <ele>509.026</ele>
        <time>1970-01-11T02:00:02Z</time>
      </trkpt>
      <trkpt lat="42.456725" lon="-7.997107">
        <ele>508.808</ele>
        <time>1970-01-11T02:00:02Z</time>
      </trkpt>
      <trkpt lat="42.456666" lon="-7.997552">
        <ele>508.208</ele>
        <time>1970-01-11T02:00:02Z</time>
      </trkpt>
      <trkpt lat="42.456629" lon="-7.997668">
        <ele>507.853</ele>
        <time>1970-01-11T02:00:02Z</time>
      </trkpt>
      <trkpt lat="42.456606" lon="-7.997725">
        <ele>507.680</ele>
        <time>1970-01-11T02:00:02Z</time>
      </trkpt>
      <trkpt lat="42.456562" lon="-7.997848">
        <ele>506.896</ele>
        <time>1970-01-11T02:00:02Z</time>
      </trkpt>
      <trkpt lat="42.456552" lon="-7.997904">
        <ele>506.634</ele>
        <time>1970-01-11T02:00:02Z</time>
      </trkpt>
      <trkpt lat="42.456577" lon="-7.998000">
        <ele>506.253</ele>
        <time>1970-01-11T02:00:02Z</time>
      </trkpt>
      <trkpt lat="42.456603" lon="-7.998026">
        <ele>506.048</ele>
        <time>1970-01-11T02:00:02Z</time>
      </trkpt>
      <trkpt lat="42.456686" lon="-7.998062">
        <ele>505.616</ele>
        <time>1970-01-11T02:00:02Z</time>
      </trkpt>
      <trkpt lat="42.456716" lon="-7.998063">
        <ele>505.615</ele>
        <time>1970-01-11T02:00:02Z</time>
      </trkpt>
      <trkpt lat="42.456777" lon="-7.998065">
        <ele>505.839</ele>
        <time>1970-01-11T02:00:02Z</time>
      </trkpt>
      <trkpt lat="42.456957" lon="-7.998141">
        <ele>506.001</ele>
        <time>1970-01-11T02:00:02Z</time>
      </trkpt>
      <trkpt lat="42.457108" lon="-7.998353">
        <ele>506.021</ele>
        <time>1970-01-11T02:00:02Z</time>
      </trkpt>
      <trkpt lat="42.457202" lon="-7.998477">
        <ele>505.408</ele>
        <time>1970-01-11T02:00:02Z</time>
      </trkpt>
      <trkpt lat="42.457292" lon="-7.998609">
        <ele>505.024</ele>
        <time>1970-01-11T02:00:02Z</time>
      </trkpt>
      <trkpt lat="42.457513" lon="-7.998856">
        <ele>504.851</ele>
        <time>1970-01-11T02:00:02Z</time>
      </trkpt>
      <trkpt lat="42.457648" lon="-7.998939">
        <ele>504.417</ele>
        <time>1970-01-11T02:00:02Z</time>
      </trkpt>
      <trkpt lat="42.457724" lon="-7.998987">
        <ele>504.225</ele>
        <time>1970-01-11T02:00:02Z</time>
      </trkpt>
      <trkpt lat="42.457802" lon="-7.999046">
        <ele>503.834</ele>
        <time>1970-01-11T02:00:02Z</time>
      </trkpt>
      <trkpt lat="42.457881" lon="-7.999084">
        <ele>503.289</ele>
        <time>1970-01-11T02:00:02Z</time>
      </trkpt>
      <trkpt lat="42.457927" lon="-7.999053">
        <ele>503.027</ele>
        <time>1970-01-11T02:00:02Z</time>
      </trkpt>
      <trkpt lat="42.457971" lon="-7.999016">
        <ele>502.636</ele>
        <time>1970-01-11T02:00:02Z</time>
      </trkpt>
      <trkpt lat="42.458011" lon="-7.998970">
        <ele>502.078</ele>
        <time>1970-01-11T02:00:02Z</time>
      </trkpt>
      <trkpt lat="42.458118" lon="-7.998955">
        <ele>501.033</ele>
        <time>1970-01-11T02:00:02Z</time>
      </trkpt>
      <trkpt lat="42.458166" lon="-7.998955">
        <ele>500.626</ele>
        <time>1970-01-11T02:00:02Z</time>
      </trkpt>
      <trkpt lat="42.458300" lon="-7.999014">
        <ele>499.408</ele>
        <time>1970-01-11T02:00:02Z</time>
      </trkpt>
      <trkpt lat="42.458340" lon="-7.999040">
        <ele>498.828</ele>
        <time>1970-01-11T02:00:02Z</time>
      </trkpt>
      <trkpt lat="42.458388" lon="-7.999078">
        <ele>498.295</ele>
        <time>1970-01-11T02:00:02Z</time>
      </trkpt>
      <trkpt lat="42.458475" lon="-7.999166">
        <ele>497.491</ele>
        <time>1970-01-11T02:00:02Z</time>
      </trkpt>
      <trkpt lat="42.458519" lon="-7.999213">
        <ele>496.659</ele>
        <time>1970-01-11T02:00:02Z</time>
      </trkpt>
      <trkpt lat="42.458561" lon="-7.999260">
        <ele>496.468</ele>
        <time>1970-01-11T02:00:02Z</time>
      </trkpt>
      <trkpt lat="42.458766" lon="-7.999487">
        <ele>495.663</ele>
        <time>1970-01-11T02:00:02Z</time>
      </trkpt>
      <trkpt lat="42.458792" lon="-7.999557">
        <ele>495.421</ele>
        <time>1970-01-11T02:00:02Z</time>
      </trkpt>
      <trkpt lat="42.458793" lon="-7.999632">
        <ele>495.250</ele>
        <time>1970-01-11T02:00:02Z</time>
      </trkpt>
      <trkpt lat="42.458773" lon="-7.999958">
        <ele>494.694</ele>
        <time>1970-01-11T02:00:02Z</time>
      </trkpt>
      <trkpt lat="42.458769" lon="-8.000045">
        <ele>494.457</ele>
        <time>1970-01-11T02:00:02Z</time>
      </trkpt>
      <trkpt lat="42.458765" lon="-8.000332">
        <ele>493.822</ele>
        <time>1970-01-11T02:00:02Z</time>
      </trkpt>
      <trkpt lat="42.458764" lon="-8.000420">
        <ele>493.408</ele>
        <time>1970-01-11T02:00:02Z</time>
      </trkpt>
      <trkpt lat="42.458773" lon="-8.000497">
        <ele>492.630</ele>
        <time>1970-01-11T02:00:02Z</time>
      </trkpt>
      <trkpt lat="42.458785" lon="-8.000575">
        <ele>491.627</ele>
        <time>1970-01-11T02:00:02Z</time>
      </trkpt>
      <trkpt lat="42.458818" lon="-8.000737">
        <ele>490.633</ele>
        <time>1970-01-11T02:00:02Z</time>
      </trkpt>
      <trkpt lat="42.458881" lon="-8.000898">
        <ele>489.661</ele>
        <time>1970-01-11T02:00:02Z</time>
      </trkpt>
      <trkpt lat="42.458932" lon="-8.000980">
        <ele>488.890</ele>
        <time>1970-01-11T02:00:02Z</time>
      </trkpt>
      <trkpt lat="42.458977" lon="-8.001060">
        <ele>487.245</ele>
        <time>1970-01-11T02:00:02Z</time>
      </trkpt>
      <trkpt lat="42.459061" lon="-8.001215">
        <ele>485.893</ele>
        <time>1970-01-11T02:00:02Z</time>
      </trkpt>
      <trkpt lat="42.459124" lon="-8.001304">
        <ele>485.292</ele>
        <time>1970-01-11T02:00:02Z</time>
      </trkpt>
      <trkpt lat="42.459195" lon="-8.001392">
        <ele>484.679</ele>
        <time>1970-01-11T02:00:02Z</time>
      </trkpt>
      <trkpt lat="42.459333" lon="-8.001555">
        <ele>483.005</ele>
        <time>1970-01-11T02:00:02Z</time>
      </trkpt>
      <trkpt lat="42.459464" lon="-8.001719">
        <ele>481.025</ele>
        <time>1970-01-11T02:00:02Z</time>
      </trkpt>
      <trkpt lat="42.459518" lon="-8.001803">
        <ele>479.808</ele>
        <time>1970-01-11T02:00:02Z</time>
      </trkpt>
      <trkpt lat="42.459568" lon="-8.001883">
        <ele>478.898</ele>
        <time>1970-01-11T02:00:02Z</time>
      </trkpt>
      <trkpt lat="42.459639" lon="-8.001950">
        <ele>477.695</ele>
        <time>1970-01-11T02:00:02Z</time>
      </trkpt>
      <trkpt lat="42.459764" lon="-8.002070">
        <ele>476.041</ele>
        <time>1970-01-11T02:00:02Z</time>
      </trkpt>
      <trkpt lat="42.459824" lon="-8.002130">
        <ele>475.289</ele>
        <time>1970-01-11T02:00:02Z</time>
      </trkpt>
      <trkpt lat="42.459877" lon="-8.002202">
        <ele>474.668</ele>
        <time>1970-01-11T02:00:02Z</time>
      </trkpt>
      <trkpt lat="42.459923" lon="-8.002284">
        <ele>474.063</ele>
        <time>1970-01-11T02:00:02Z</time>
      </trkpt>
      <trkpt lat="42.459961" lon="-8.002376">
        <ele>473.491</ele>
        <time>1970-01-11T02:00:02Z</time>
      </trkpt>
      <trkpt lat="42.459993" lon="-8.002479">
        <ele>472.610</ele>
        <time>1970-01-11T02:00:02Z</time>
      </trkpt>
      <trkpt lat="42.460028" lon="-8.002593">
        <ele>471.878</ele>
        <time>1970-01-11T02:00:02Z</time>
      </trkpt>
      <trkpt lat="42.460048" lon="-8.002689">
        <ele>471.233</ele>
        <time>1970-01-11T02:00:02Z</time>
      </trkpt>
      <trkpt lat="42.460047" lon="-8.002773">
        <ele>470.426</ele>
        <time>1970-01-11T02:00:02Z</time>
      </trkpt>
      <trkpt lat="42.460026" lon="-8.002857">
        <ele>469.808</ele>
        <time>1970-01-11T02:00:02Z</time>
      </trkpt>
      <trkpt lat="42.460005" lon="-8.002954">
        <ele>469.028</ele>
        <time>1970-01-11T02:00:02Z</time>
      </trkpt>
      <trkpt lat="42.459987" lon="-8.003056">
        <ele>467.415</ele>
        <time>1970-01-11T02:00:02Z</time>
      </trkpt>
      <trkpt lat="42.459960" lon="-8.003272">
        <ele>466.071</ele>
        <time>1970-01-11T02:00:02Z</time>
      </trkpt>
      <trkpt lat="42.459926" lon="-8.003500">
        <ele>464.839</ele>
        <time>1970-01-11T02:00:02Z</time>
      </trkpt>
      <trkpt lat="42.459924" lon="-8.003773">
        <ele>463.488</ele>
        <time>1970-01-11T02:00:02Z</time>
      </trkpt>
      <trkpt lat="42.459995" lon="-8.003880">
        <ele>461.893</ele>
        <time>1970-01-11T02:00:02Z</time>
      </trkpt>
      <trkpt lat="42.460048" lon="-8.003912">
        <ele>461.011</ele>
        <time>1970-01-11T02:00:02Z</time>
      </trkpt>
      <trkpt lat="42.460088" lon="-8.003950">
        <ele>460.480</ele>
        <time>1970-01-11T02:00:02Z</time>
      </trkpt>
      <trkpt lat="42.460164" lon="-8.004015">
        <ele>460.038</ele>
        <time>1970-01-11T02:00:02Z</time>
      </trkpt>
      <trkpt lat="42.460211" lon="-8.004076">
        <ele>460.270</ele>
        <time>1970-01-11T02:00:02Z</time>
      </trkpt>
      <trkpt lat="42.460256" lon="-8.004117">
        <ele>460.217</ele>
        <time>1970-01-11T02:00:02Z</time>
      </trkpt>
      <trkpt lat="42.460265" lon="-8.004114">
        <ele>460.208</ele>
        <time>1970-01-11T02:00:02Z</time>
      </trkpt>
      <trkpt lat="42.460284" lon="-8.004135">
        <ele>460.024</ele>
        <time>1970-01-11T02:00:02Z</time>
      </trkpt>
      <trkpt lat="42.460284" lon="-8.004135">
        <ele>459.821</ele>
        <time>1970-01-11T02:00:02Z</time>
      </trkpt>
      <trkpt lat="42.460284" lon="-8.004135">
        <ele>459.877</ele>
        <time>1970-01-11T02:00:02Z</time>
      </trkpt>
      <trkpt lat="42.460284" lon="-8.004135">
        <ele>459.665</ele>
        <time>1970-01-11T02:00:02Z</time>
      </trkpt>
      <trkpt lat="42.460284" lon="-8.004135">
        <ele>459.624</ele>
        <time>1970-01-11T02:00:02Z</time>
      </trkpt>
      <trkpt lat="42.460284" lon="-8.004135">
        <ele>459.689</ele>
        <time>1970-01-11T02:00:02Z</time>
      </trkpt>
      <trkpt lat="42.460284" lon="-8.004135">
        <ele>459.697</ele>
        <time>1970-01-11T02:00:02Z</time>
      </trkpt>
      <trkpt lat="42.460284" lon="-8.004131">
        <ele>459.686</ele>
        <time>1970-01-11T02:00:02Z</time>
      </trkpt>
      <trkpt lat="42.460284" lon="-8.004131">
        <ele>459.662</ele>
        <time>1970-01-11T02:00:02Z</time>
      </trkpt>
      <trkpt lat="42.460284" lon="-8.004131">
        <ele>459.683</ele>
        <time>1970-01-11T02:00:02Z</time>
      </trkpt>
      <trkpt lat="42.460280" lon="-8.004066">
        <ele>459.611</ele>
        <time>1970-01-11T02:00:02Z</time>
      </trkpt>
      <trkpt lat="42.460284" lon="-8.004047">
        <ele>459.608</ele>
        <time>1970-01-11T02:00:02Z</time>
      </trkpt>
      <trkpt lat="42.460266" lon="-8.003988">
        <ele>459.867</ele>
        <time>1970-01-11T02:00:02Z</time>
      </trkpt>
      <trkpt lat="42.460259" lon="-8.003977">
        <ele>459.814</ele>
        <time>1970-01-11T02:00:02Z</time>
      </trkpt>
      <trkpt lat="42.460255" lon="-8.003962">
        <ele>459.810</ele>
        <time>1970-01-11T02:00:02Z</time>
      </trkpt>
      <trkpt lat="42.460249" lon="-8.003945">
        <ele>459.898</ele>
        <time>1970-01-11T02:00:02Z</time>
      </trkpt>
      <trkpt lat="42.460235" lon="-8.003914">
        <ele>459.847</ele>
        <time>1970-01-11T02:00:02Z</time>
      </trkpt>
      <trkpt lat="42.460155" lon="-8.003826">
        <ele>459.622</ele>
        <time>1970-01-11T02:00:02Z</time>
      </trkpt>
      <trkpt lat="42.460135" lon="-8.003819">
        <ele>459.690</ele>
        <time>1970-01-11T02:00:02Z</time>
      </trkpt>
      <trkpt lat="42.460075" lon="-8.003801">
        <ele>459.469</ele>
        <time>1970-01-11T02:00:02Z</time>
      </trkpt>
      <trkpt lat="42.460035" lon="-8.003800">
        <ele>459.452</ele>
        <time>1970-01-11T02:00:02Z</time>
      </trkpt>
      <trkpt lat="42.459983" lon="-8.003823">
        <ele>459.053</ele>
        <time>1970-01-11T02:00:02Z</time>
      </trkpt>
      <trkpt lat="42.459948" lon="-8.003836">
        <ele>458.408</ele>
        <time>1970-01-11T02:00:02Z</time>
      </trkpt>
      <trkpt lat="42.459938" lon="-8.003835">
        <ele>458.008</ele>
        <time>1970-01-11T02:00:02Z</time>
      </trkpt>
      <trkpt lat="42.459929" lon="-8.003837">
        <ele>457.286</ele>
        <time>1970-01-11T02:00:02Z</time>
      </trkpt>
      <trkpt lat="42.459929" lon="-8.003837">
        <ele>456.833</ele>
        <time>1970-01-11T02:00:02Z</time>
      </trkpt>
      <trkpt lat="42.459929" lon="-8.003837">
        <ele>456.699</ele>
        <time>1970-01-11T02:00:02Z</time>
      </trkpt>
      <trkpt lat="42.459929" lon="-8.003837">
        <ele>456.227</ele>
        <time>1970-01-11T02:00:02Z</time>
      </trkpt>
      <trkpt lat="42.459922" lon="-8.003842">
        <ele>456.296</ele>
        <time>1970-01-11T02:00:02Z</time>
      </trkpt>
      <trkpt lat="42.459814" lon="-8.003911">
        <ele>456.261</ele>
        <time>1970-01-11T02:00:02Z</time>
      </trkpt>
      <trkpt lat="42.459777" lon="-8.003946">
        <ele>456.059</ele>
        <time>1970-01-11T02:00:02Z</time>
      </trkpt>
      <trkpt lat="42.459736" lon="-8.003982">
        <ele>455.878</ele>
        <time>1970-01-11T02:00:02Z</time>
      </trkpt>
      <trkpt lat="42.459606" lon="-8.004089">
        <ele>455.075</ele>
        <time>1970-01-11T02:00:02Z</time>
      </trkpt>
      <trkpt lat="42.459565" lon="-8.004128">
        <ele>454.828</ele>
        <time>1970-01-11T02:00:02Z</time>
      </trkpt>
      <trkpt lat="42.459460" lon="-8.004209">
        <ele>454.420</ele>
        <time>1970-01-11T02:00:02Z</time>
      </trkpt>
      <trkpt lat="42.459317" lon="-8.004345">
        <ele>454.008</ele>
        <time>1970-01-11T02:00:02Z</time>
      </trkpt>
      <trkpt lat="42.459272" lon="-8.004400">
        <ele>453.878</ele>
        <time>1970-01-11T02:00:02Z</time>
      </trkpt>
      <trkpt lat="42.459147" lon="-8.004576">
        <ele>453.235</ele>
        <time>1970-01-11T02:00:02Z</time>
      </trkpt>
      <trkpt lat="42.459047" lon="-8.004673">
        <ele>453.291</ele>
        <time>1970-01-11T02:00:02Z</time>
      </trkpt>
      <trkpt lat="42.458932" lon="-8.004736">
        <ele>453.079</ele>
        <time>1970-01-11T02:00:02Z</time>
      </trkpt>
      <trkpt lat="42.458833" lon="-8.004834">
        <ele>453.218</ele>
        <time>1970-01-11T02:00:02Z</time>
      </trkpt>
      <trkpt lat="42.458793" lon="-8.004890">
        <ele>453.443</ele>
        <time>1970-01-11T02:00:02Z</time>
      </trkpt>
      <trkpt lat="42.458755" lon="-8.004954">
        <ele>453.621</ele>
        <time>1970-01-11T02:00:02Z</time>
      </trkpt>
      <trkpt lat="42.458650" lon="-8.005128">
        <ele>453.880</ele>
        <time>1970-01-11T02:00:02Z</time>
      </trkpt>
      <trkpt lat="42.458498" lon="-8.005205">
        <ele>454.676</ele>
        <time>1970-01-11T02:00:02Z</time>
      </trkpt>
      <trkpt lat="42.458445" lon="-8.005223">
        <ele>454.890</ele>
        <time>1970-01-11T02:00:02Z</time>
      </trkpt>
      <trkpt lat="42.458396" lon="-8.005252">
        <ele>454.819</ele>
        <time>1970-01-11T02:00:02Z</time>
      </trkpt>
      <trkpt lat="42.458328" lon="-8.005347">
        <ele>454.808</ele>
        <time>1970-01-11T02:00:02Z</time>
      </trkpt>
      <trkpt lat="42.458285" lon="-8.005462">
        <ele>455.098</ele>
        <time>1970-01-11T02:00:02Z</time>
      </trkpt>
      <trkpt lat="42.458269" lon="-8.005568">
        <ele>455.425</ele>
        <time>1970-01-11T02:00:02Z</time>
      </trkpt>
      <trkpt lat="42.458266" lon="-8.005621">
        <ele>455.651</ele>
        <time>1970-01-11T02:00:02Z</time>
      </trkpt>
      <trkpt lat="42.458286" lon="-8.005766">
        <ele>456.279</ele>
        <time>1970-01-11T02:00:02Z</time>
      </trkpt>
      <trkpt lat="42.458313" lon="-8.005842">
        <ele>457.068</ele>
        <time>1970-01-11T02:00:02Z</time>
      </trkpt>
      <trkpt lat="42.458332" lon="-8.005872">
        <ele>457.253</ele>
        <time>1970-01-11T02:00:02Z</time>
      </trkpt>
      <trkpt lat="42.458429" lon="-8.005971">
        <ele>458.421</ele>
        <time>1970-01-11T02:00:02Z</time>
      </trkpt>
      <trkpt lat="42.458450" lon="-8.005995">
        <ele>458.690</ele>
        <time>1970-01-11T02:00:02Z</time>
      </trkpt>
      <trkpt lat="42.458522" lon="-8.006090">
        <ele>459.635</ele>
        <time>1970-01-11T02:00:02Z</time>
      </trkpt>
      <trkpt lat="42.458577" lon="-8.006165">
        <ele>460.286</ele>
        <time>1970-01-11T02:00:02Z</time>
      </trkpt>
      <trkpt lat="42.458634" lon="-8.006244">
        <ele>460.614</ele>
        <time>1970-01-11T02:00:02Z</time>
      </trkpt>
      <trkpt lat="42.458725" lon="-8.006386">
        <ele>461.408</ele>
        <time>1970-01-11T02:00:02Z</time>
      </trkpt>
      <trkpt lat="42.458757" lon="-8.006444">
        <ele>461.884</ele>
        <time>1970-01-11T02:00:02Z</time>
      </trkpt>
      <trkpt lat="42.458805" lon="-8.006527">
        <ele>463.011</ele>
        <time>1970-01-11T02:00:02Z</time>
      </trkpt>
      <trkpt lat="42.458869" lon="-8.006626">
        <ele>464.067</ele>
        <time>1970-01-11T02:00:02Z</time>
      </trkpt>
      <trkpt lat="42.458885" lon="-8.006649">
        <ele>464.245</ele>
        <time>1970-01-11T02:00:02Z</time>
      </trkpt>
      <trkpt lat="42.458969" lon="-8.006772">
        <ele>465.414</ele>
        <time>1970-01-11T02:00:02Z</time>
      </trkpt>
      <trkpt lat="42.459038" lon="-8.006877">
        <ele>466.249</ele>
        <time>1970-01-11T02:00:02Z</time>
      </trkpt>
      <trkpt lat="42.459058" lon="-8.006910">
        <ele>466.447</ele>
        <time>1970-01-11T02:00:02Z</time>
      </trkpt>
      <trkpt lat="42.459160" lon="-8.007054">
        <ele>467.436</ele>
        <time>1970-01-11T02:00:02Z</time>
      </trkpt>
      <trkpt lat="42.459201" lon="-8.007112">
        <ele>468.054</ele>
        <time>1970-01-11T02:00:02Z</time>
      </trkpt>
      <trkpt lat="42.459303" lon="-8.007234">
        <ele>468.656</ele>
        <time>1970-01-11T02:00:02Z</time>
      </trkpt>
      <trkpt lat="42.459388" lon="-8.007309">
        <ele>469.011</ele>
        <time>1970-01-11T02:00:02Z</time>
      </trkpt>
      <trkpt lat="42.459479" lon="-8.007430">
        <ele>469.808</ele>
        <time>1970-01-11T02:00:02Z</time>
      </trkpt>
      <trkpt lat="42.459520" lon="-8.007494">
        <ele>470.096</ele>
        <time>1970-01-11T02:00:02Z</time>
      </trkpt>
      <trkpt lat="42.459661" lon="-8.007672">
        <ele>470.833</ele>
        <time>1970-01-11T02:00:02Z</time>
      </trkpt>
      <trkpt lat="42.459707" lon="-8.007734">
        <ele>471.219</ele>
        <time>1970-01-11T02:00:02Z</time>
      </trkpt>
      <trkpt lat="42.459799" lon="-8.007911">
        <ele>471.857</ele>
        <time>1970-01-11T02:00:02Z</time>
      </trkpt>
      <trkpt lat="42.459830" lon="-8.007983">
        <ele>472.016</ele>
        <time>1970-01-11T02:00:02Z</time>
      </trkpt>
      <trkpt lat="42.459888" lon="-8.008197">
        <ele>472.451</ele>
        <time>1970-01-11T02:00:02Z</time>
      </trkpt>
      <trkpt lat="42.459911" lon="-8.008367">
        <ele>472.889</ele>
        <time>1970-01-11T02:00:02Z</time>
      </trkpt>
      <trkpt lat="42.459916" lon="-8.008394">
        <ele>473.098</ele>
        <time>1970-01-11T02:00:02Z</time>
      </trkpt>
      <trkpt lat="42.459929" lon="-8.008505">
        <ele>474.059</ele>
        <time>1970-01-11T02:00:02Z</time>
      </trkpt>
      <trkpt lat="42.459849" lon="-8.008473">
        <ele>474.803</ele>
        <time>1970-01-11T02:00:02Z</time>
      </trkpt>
      <trkpt lat="42.459824" lon="-8.008484">
        <ele>475.223</ele>
        <time>1970-01-11T02:00:02Z</time>
      </trkpt>
      <trkpt lat="42.459779" lon="-8.008508">
        <ele>475.808</ele>
        <time>1970-01-11T02:00:02Z</time>
      </trkpt>
      <trkpt lat="42.459747" lon="-8.008535">
        <ele>476.476</ele>
        <time>1970-01-11T02:00:02Z</time>
      </trkpt>
      <trkpt lat="42.459692" lon="-8.008601">
        <ele>477.413</ele>
        <time>1970-01-11T02:00:02Z</time>
      </trkpt>
      <trkpt lat="42.459651" lon="-8.008611">
        <ele>477.869</ele>
        <time>1970-01-11T02:00:02Z</time>
      </trkpt>
      <trkpt lat="42.459603" lon="-8.008591">
        <ele>478.457</ele>
        <time>1970-01-11T02:00:02Z</time>
      </trkpt>
      <trkpt lat="42.459571" lon="-8.008507">
        <ele>479.456</ele>
        <time>1970-01-11T02:00:02Z</time>
      </trkpt>
      <trkpt lat="42.459567" lon="-8.008472">
        <ele>479.641</ele>
        <time>1970-01-11T02:00:02Z</time>
      </trkpt>
      <trkpt lat="42.459560" lon="-8.008396">
        <ele>480.289</ele>
        <time>1970-01-11T02:00:02Z</time>
      </trkpt>
      <trkpt lat="42.459544" lon="-8.008244">
        <ele>480.488</ele>
        <time>1970-01-11T02:00:02Z</time>
      </trkpt>
      <trkpt lat="42.459512" lon="-8.008056">
        <ele>480.669</ele>
        <time>1970-01-11T02:00:03Z</time>
      </trkpt>
      <trkpt lat="42.459483" lon="-8.007936">
        <ele>480.804</ele>
        <time>1970-01-11T02:00:03Z</time>
      </trkpt>
      <trkpt lat="42.459419" lon="-8.007781">
        <ele>481.824</ele>
        <time>1970-01-11T02:00:03Z</time>
      </trkpt>
      <trkpt lat="42.459396" lon="-8.007744">
        <ele>482.008</ele>
        <time>1970-01-11T02:00:03Z</time>
      </trkpt>
      <trkpt lat="42.459241" lon="-8.007516">
        <ele>482.677</ele>
        <time>1970-01-11T02:00:03Z</time>
      </trkpt>
      <trkpt lat="42.459091" lon="-8.007297">
        <ele>482.684</ele>
        <time>1970-01-11T02:00:03Z</time>
      </trkpt>
      <trkpt lat="42.458995" lon="-8.007214">
        <ele>482.420</ele>
        <time>1970-01-11T02:00:03Z</time>
      </trkpt>
      <trkpt lat="42.458826" lon="-8.007160">
        <ele>481.838</ele>
        <time>1970-01-11T02:00:03Z</time>
      </trkpt>
      <trkpt lat="42.458774" lon="-8.007150">
        <ele>481.817</ele>
        <time>1970-01-11T02:00:03Z</time>
      </trkpt>
      <trkpt lat="42.458621" lon="-8.007134">
        <ele>481.622</ele>
        <time>1970-01-11T02:00:03Z</time>
      </trkpt>
      <trkpt lat="42.458479" lon="-8.007134">
        <ele>482.280</ele>
        <time>1970-01-11T02:00:03Z</time>
      </trkpt>
      <trkpt lat="42.458434" lon="-8.007142">
        <ele>482.459</ele>
        <time>1970-01-11T02:00:03Z</time>
      </trkpt>
      <trkpt lat="42.458272" lon="-8.007197">
        <ele>483.062</ele>
        <time>1970-01-11T02:00:03Z</time>
      </trkpt>
      <trkpt lat="42.458203" lon="-8.007240">
        <ele>483.483</ele>
        <time>1970-01-11T02:00:03Z</time>
      </trkpt>
      <trkpt lat="42.458088" lon="-8.007333">
        <ele>484.211</ele>
        <time>1970-01-11T02:00:03Z</time>
      </trkpt>
      <trkpt lat="42.458030" lon="-8.007375">
        <ele>484.608</ele>
        <time>1970-01-11T02:00:03Z</time>
      </trkpt>
      <trkpt lat="42.457891" lon="-8.007436">
        <ele>485.067</ele>
        <time>1970-01-11T02:00:03Z</time>
      </trkpt>
      <trkpt lat="42.457872" lon="-8.007442">
        <ele>485.224</ele>
        <time>1970-01-11T02:00:03Z</time>
      </trkpt>
      <trkpt lat="42.457768" lon="-8.007460">
        <ele>486.460</ele>
        <time>1970-01-11T02:00:03Z</time>
      </trkpt>
      <trkpt lat="42.457683" lon="-8.007474">
        <ele>487.818</ele>
        <time>1970-01-11T02:00:03Z</time>
      </trkpt>
      <trkpt lat="42.457611" lon="-8.007500">
        <ele>489.067</ele>
        <time>1970-01-11T02:00:03Z</time>
      </trkpt>
      <trkpt lat="42.457608" lon="-8.007523">
        <ele>489.452</ele>
        <time>1970-01-11T02:00:03Z</time>
      </trkpt>
      <trkpt lat="42.457619" lon="-8.007572">
        <ele>490.260</ele>
        <time>1970-01-11T02:00:03Z</time>
      </trkpt>
      <trkpt lat="42.457630" lon="-8.007601">
        <ele>490.629</ele>
        <time>1970-01-11T02:00:03Z</time>
      </trkpt>
      <trkpt lat="42.457656" lon="-8.007652">
        <ele>491.081</ele>
        <time>1970-01-11T02:00:03Z</time>
      </trkpt>
      <trkpt lat="42.457683" lon="-8.007695">
        <ele>491.461</ele>
        <time>1970-01-11T02:00:03Z</time>
      </trkpt>
      <trkpt lat="42.457797" lon="-8.007864">
        <ele>491.817</ele>
        <time>1970-01-11T02:00:03Z</time>
      </trkpt>
      <trkpt lat="42.457911" lon="-8.008094">
        <ele>492.208</ele>
        <time>1970-01-11T02:00:03Z</time>
      </trkpt>
      <trkpt lat="42.457924" lon="-8.008125">
        <ele>492.439</ele>
        <time>1970-01-11T02:00:03Z</time>
      </trkpt>
      <trkpt lat="42.457960" lon="-8.008344">
        <ele>493.416</ele>
        <time>1970-01-11T02:00:03Z</time>
      </trkpt>
      <trkpt lat="42.457938" lon="-8.008436">
        <ele>493.872</ele>
        <time>1970-01-11T02:00:03Z</time>
      </trkpt>
      <trkpt lat="42.457896" lon="-8.008498">
        <ele>494.090</ele>
        <time>1970-01-11T02:00:03Z</time>
      </trkpt>
      <trkpt lat="42.457816" lon="-8.008552">
        <ele>494.659</ele>
        <time>1970-01-11T02:00:03Z</time>
      </trkpt>
      <trkpt lat="42.457762" lon="-8.008579">
        <ele>494.634</ele>
        <time>1970-01-11T02:00:03Z</time>
      </trkpt>
      <trkpt lat="42.457614" lon="-8.008604">
        <ele>495.092</ele>
        <time>1970-01-11T02:00:03Z</time>
      </trkpt>
      <trkpt lat="42.457466" lon="-8.008617">
        <ele>495.671</ele>
        <time>1970-01-11T02:00:03Z</time>
      </trkpt>
      <trkpt lat="42.457299" lon="-8.008632">
        <ele>496.435</ele>
        <time>1970-01-11T02:00:03Z</time>
      </trkpt>
      <trkpt lat="42.457267" lon="-8.008638">
        <ele>496.686</ele>
        <time>1970-01-11T02:00:03Z</time>
      </trkpt>
      <trkpt lat="42.457095" lon="-8.008651">
        <ele>497.414</ele>
        <time>1970-01-11T02:00:03Z</time>
      </trkpt>
      <trkpt lat="42.457028" lon="-8.008659">
        <ele>497.808</ele>
        <time>1970-01-11T02:00:03Z</time>
      </trkpt>
      <trkpt lat="42.456877" lon="-8.008688">
        <ele>498.834</ele>
        <time>1970-01-11T02:00:03Z</time>
      </trkpt>
      <trkpt lat="42.456844" lon="-8.008697">
        <ele>499.071</ele>
        <time>1970-01-11T02:00:03Z</time>
      </trkpt>
      <trkpt lat="42.456717" lon="-8.008713">
        <ele>500.037</ele>
        <time>1970-01-11T02:00:03Z</time>
      </trkpt>
      <trkpt lat="42.456604" lon="-8.008730">
        <ele>500.655</ele>
        <time>1970-01-11T02:00:03Z</time>
      </trkpt>
      <trkpt lat="42.456521" lon="-8.008734">
        <ele>501.054</ele>
        <time>1970-01-11T02:00:03Z</time>
      </trkpt>
      <trkpt lat="42.456333" lon="-8.008752">
        <ele>502.039</ele>
        <time>1970-01-11T02:00:03Z</time>
      </trkpt>
      <trkpt lat="42.456297" lon="-8.008758">
        <ele>502.047</ele>
        <time>1970-01-11T02:00:03Z</time>
      </trkpt>
      <trkpt lat="42.456183" lon="-8.008796">
        <ele>502.486</ele>
        <time>1970-01-11T02:00:03Z</time>
      </trkpt>
      <trkpt lat="42.455962" lon="-8.008854">
        <ele>503.067</ele>
        <time>1970-01-11T02:00:03Z</time>
      </trkpt>
      <trkpt lat="42.455874" lon="-8.008875">
        <ele>503.281</ele>
        <time>1970-01-11T02:00:03Z</time>
      </trkpt>
      <trkpt lat="42.455697" lon="-8.008909">
        <ele>503.619</ele>
        <time>1970-01-11T02:00:03Z</time>
      </trkpt>
      <trkpt lat="42.455651" lon="-8.008915">
        <ele>503.608</ele>
        <time>1970-01-11T02:00:03Z</time>
      </trkpt>
      <trkpt lat="42.455465" lon="-8.008914">
        <ele>504.297</ele>
        <time>1970-01-11T02:00:03Z</time>
      </trkpt>
      <trkpt lat="42.455335" lon="-8.008889">
        <ele>504.464</ele>
        <time>1970-01-11T02:00:03Z</time>
      </trkpt>
      <trkpt lat="42.455117" lon="-8.008881">
        <ele>504.680</ele>
        <time>1970-01-11T02:00:03Z</time>
      </trkpt>
      <trkpt lat="42.455038" lon="-8.008902">
        <ele>504.878</ele>
        <time>1970-01-11T02:00:03Z</time>
      </trkpt>
      <trkpt lat="42.454859" lon="-8.008981">
        <ele>505.017</ele>
        <time>1970-01-11T02:00:03Z</time>
      </trkpt>
      <trkpt lat="42.454788" lon="-8.009025">
        <ele>505.222</ele>
        <time>1970-01-11T02:00:03Z</time>
      </trkpt>
      <trkpt lat="42.454648" lon="-8.009119">
        <ele>505.860</ele>
        <time>1970-01-11T02:00:03Z</time>
      </trkpt>
      <trkpt lat="42.454575" lon="-8.009167">
        <ele>506.249</ele>
        <time>1970-01-11T02:00:03Z</time>
      </trkpt>
      <trkpt lat="42.454496" lon="-8.009272">
        <ele>506.643</ele>
        <time>1970-01-11T02:00:03Z</time>
      </trkpt>
      <trkpt lat="42.454391" lon="-8.009427">
        <ele>507.464</ele>
        <time>1970-01-11T02:00:03Z</time>
      </trkpt>
      <trkpt lat="42.454337" lon="-8.009512">
        <ele>507.610</ele>
        <time>1970-01-11T02:00:03Z</time>
      </trkpt>
      <trkpt lat="42.454217" lon="-8.009715">
        <ele>508.408</ele>
        <time>1970-01-11T02:00:03Z</time>
      </trkpt>
      <trkpt lat="42.454173" lon="-8.009793">
        <ele>508.885</ele>
        <time>1970-01-11T02:00:03Z</time>
      </trkpt>
      <trkpt lat="42.454136" lon="-8.009894">
        <ele>509.222</ele>
        <time>1970-01-11T02:00:03Z</time>
      </trkpt>
      <trkpt lat="42.454115" lon="-8.009943">
        <ele>509.458</ele>
        <time>1970-01-11T02:00:03Z</time>
      </trkpt>
      <trkpt lat="42.454069" lon="-8.010036">
        <ele>509.466</ele>
        <time>1970-01-11T02:00:03Z</time>
      </trkpt>
      <trkpt lat="42.453927" lon="-8.010211">
        <ele>509.215</ele>
        <time>1970-01-11T02:00:03Z</time>
      </trkpt>
      <trkpt lat="42.453855" lon="-8.010258">
        <ele>509.050</ele>
        <time>1970-01-11T02:00:03Z</time>
      </trkpt>
      <trkpt lat="42.453712" lon="-8.010318">
        <ele>508.688</ele>
        <time>1970-01-11T02:00:03Z</time>
      </trkpt>
      <trkpt lat="42.453621" lon="-8.010361">
        <ele>508.487</ele>
        <time>1970-01-11T02:00:03Z</time>
      </trkpt>
      <trkpt lat="42.453453" lon="-8.010475">
        <ele>507.892</ele>
        <time>1970-01-11T02:00:03Z</time>
      </trkpt>
      <trkpt lat="42.453187" lon="-8.010661">
        <ele>507.473</ele>
        <time>1970-01-11T02:00:03Z</time>
      </trkpt>
      <trkpt lat="42.453143" lon="-8.010688">
        <ele>507.420</ele>
        <time>1970-01-11T02:00:03Z</time>
      </trkpt>
      <trkpt lat="42.452943" lon="-8.010827">
        <ele>507.008</ele>
        <time>1970-01-11T02:00:03Z</time>
      </trkpt>
      <trkpt lat="42.452908" lon="-8.010857">
        <ele>507.010</ele>
        <time>1970-01-11T02:00:03Z</time>
      </trkpt>
      <trkpt lat="42.452876" lon="-8.010894">
        <ele>506.837</ele>
        <time>1970-01-11T02:00:03Z</time>
      </trkpt>
      <trkpt lat="42.452773" lon="-8.011027">
        <ele>506.813</ele>
        <time>1970-01-11T02:00:03Z</time>
      </trkpt>
      <trkpt lat="42.452596" lon="-8.011245">
        <ele>507.031</ele>
        <time>1970-01-11T02:00:03Z</time>
      </trkpt>
      <trkpt lat="42.452570" lon="-8.011288">
        <ele>507.090</ele>
        <time>1970-01-11T02:00:03Z</time>
      </trkpt>
      <trkpt lat="42.452441" lon="-8.011517">
        <ele>507.485</ele>
        <time>1970-01-11T02:00:03Z</time>
      </trkpt>
      <trkpt lat="42.452299" lon="-8.011787">
        <ele>508.213</ele>
        <time>1970-01-11T02:00:03Z</time>
      </trkpt>
      <trkpt lat="42.452265" lon="-8.011880">
        <ele>508.452</ele>
        <time>1970-01-11T02:00:03Z</time>
      </trkpt>
      <trkpt lat="42.452164" lon="-8.012081">
        <ele>508.845</ele>
        <time>1970-01-11T02:00:03Z</time>
      </trkpt>
      <trkpt lat="42.452094" lon="-8.012324">
        <ele>508.647</ele>
        <time>1970-01-11T02:00:03Z</time>
      </trkpt>
      <trkpt lat="42.452086" lon="-8.012458">
        <ele>508.611</ele>
        <time>1970-01-11T02:00:03Z</time>
      </trkpt>
      <trkpt lat="42.452047" lon="-8.012913">
        <ele>508.608</ele>
        <time>1970-01-11T02:00:03Z</time>
      </trkpt>
      <trkpt lat="42.452000" lon="-8.013314">
        <ele>509.435</ele>
        <time>1970-01-11T02:00:03Z</time>
      </trkpt>
      <trkpt lat="42.452047" lon="-8.013602">
        <ele>509.672</ele>
        <time>1970-01-11T02:00:03Z</time>
      </trkpt>
      <trkpt lat="42.452006" lon="-8.013928">
        <ele>510.228</ele>
        <time>1970-01-11T02:00:03Z</time>
      </trkpt>
      <trkpt lat="42.451922" lon="-8.014140">
        <ele>510.616</ele>
        <time>1970-01-11T02:00:03Z</time>
      </trkpt>
      <trkpt lat="42.451899" lon="-8.014195">
        <ele>510.675</ele>
        <time>1970-01-11T02:00:03Z</time>
      </trkpt>
      <trkpt lat="42.451749" lon="-8.014514">
        <ele>510.430</ele>
        <time>1970-01-11T02:00:03Z</time>
      </trkpt>
      <trkpt lat="42.451563" lon="-8.014768">
        <ele>510.228</ele>
        <time>1970-01-11T02:00:03Z</time>
      </trkpt>
      <trkpt lat="42.451412" lon="-8.015004">
        <ele>510.017</ele>
        <time>1970-01-11T02:00:03Z</time>
      </trkpt>
      <trkpt lat="42.451218" lon="-8.015249">
        <ele>510.269</ele>
        <time>1970-01-11T02:00:03Z</time>
      </trkpt>
      <trkpt lat="42.450973" lon="-8.015568">
        <ele>510.604</ele>
        <time>1970-01-11T02:00:03Z</time>
      </trkpt>
      <trkpt lat="42.450933" lon="-8.015609">
        <ele>510.624</ele>
        <time>1970-01-11T02:00:03Z</time>
      </trkpt>
      <trkpt lat="42.450769" lon="-8.015743">
        <ele>510.408</ele>
        <time>1970-01-11T02:00:03Z</time>
      </trkpt>
      <trkpt lat="42.450519" lon="-8.015897">
        <ele>509.877</ele>
        <time>1970-01-11T02:00:03Z</time>
      </trkpt>
      <trkpt lat="42.450498" lon="-8.015898">
        <ele>509.694</ele>
        <time>1970-01-11T02:00:03Z</time>
      </trkpt>
      <trkpt lat="42.450473" lon="-8.015862">
        <ele>509.670</ele>
        <time>1970-01-11T02:00:03Z</time>
      </trkpt>
      <trkpt lat="42.450331" lon="-8.015714">
        <ele>509.838</ele>
        <time>1970-01-11T02:00:03Z</time>
      </trkpt>
      <trkpt lat="42.450116" lon="-8.015584">
        <ele>511.227</ele>
        <time>1970-01-11T02:00:03Z</time>
      </trkpt>
      <trkpt lat="42.450057" lon="-8.015534">
        <ele>511.622</ele>
        <time>1970-01-11T02:00:03Z</time>
      </trkpt>
      <trkpt lat="42.449935" lon="-8.015398">
        <ele>512.610</ele>
        <time>1970-01-11T02:00:03Z</time>
      </trkpt>
      <trkpt lat="42.449851" lon="-8.015187">
        <ele>513.449</ele>
        <time>1970-01-11T02:00:03Z</time>
      </trkpt>
      <trkpt lat="42.449836" lon="-8.015035">
        <ele>513.843</ele>
        <time>1970-01-11T02:00:03Z</time>
      </trkpt>
      <trkpt lat="42.449817" lon="-8.014881">
        <ele>514.264</ele>
        <time>1970-01-11T02:00:03Z</time>
      </trkpt>
      <trkpt lat="42.449776" lon="-8.014559">
        <ele>515.010</ele>
        <time>1970-01-11T02:00:03Z</time>
      </trkpt>
      <trkpt lat="42.449766" lon="-8.014503">
        <ele>515.208</ele>
        <time>1970-01-11T02:00:03Z</time>
      </trkpt>
      <trkpt lat="42.449684" lon="-8.014308">
        <ele>515.885</ele>
        <time>1970-01-11T02:00:03Z</time>
      </trkpt>
      <trkpt lat="42.449657" lon="-8.014259">
        <ele>516.082</ele>
        <time>1970-01-11T02:00:03Z</time>
      </trkpt>
      <trkpt lat="42.449505" lon="-8.014048">
        <ele>517.018</ele>
        <time>1970-01-11T02:00:03Z</time>
      </trkpt>
      <trkpt lat="42.449470" lon="-8.014014">
        <ele>517.246</ele>
        <time>1970-01-11T02:00:03Z</time>
      </trkpt>
      <trkpt lat="42.449271" lon="-8.013931">
        <ele>518.025</ele>
        <time>1970-01-11T02:00:03Z</time>
      </trkpt>
      <trkpt lat="42.449224" lon="-8.013930">
        <ele>518.040</ele>
        <time>1970-01-11T02:00:03Z</time>
      </trkpt>
      <trkpt lat="42.448913" lon="-8.013974">
        <ele>518.468</ele>
        <time>1970-01-11T02:00:03Z</time>
      </trkpt>
      <trkpt lat="42.448675" lon="-8.014024">
        <ele>518.657</ele>
        <time>1970-01-11T02:00:03Z</time>
      </trkpt>
      <trkpt lat="42.448525" lon="-8.014029">
        <ele>518.827</ele>
        <time>1970-01-11T02:00:03Z</time>
      </trkpt>
      <trkpt lat="42.448364" lon="-8.014042">
        <ele>519.068</ele>
        <time>1970-01-11T02:00:03Z</time>
      </trkpt>
      <trkpt lat="42.448312" lon="-8.014051">
        <ele>519.014</ele>
        <time>1970-01-11T02:00:03Z</time>
      </trkpt>
      <trkpt lat="42.447970" lon="-8.014125">
        <ele>518.608</ele>
        <time>1970-01-11T02:00:03Z</time>
      </trkpt>
      <trkpt lat="42.447870" lon="-8.014161">
        <ele>517.873</ele>
        <time>1970-01-11T02:00:03Z</time>
      </trkpt>
      <trkpt lat="42.447716" lon="-8.014228">
        <ele>517.650</ele>
        <time>1970-01-11T02:00:03Z</time>
      </trkpt>
      <trkpt lat="42.447610" lon="-8.014278">
        <ele>517.656</ele>
        <time>1970-01-11T02:00:03Z</time>
      </trkpt>
      <trkpt lat="42.447204" lon="-8.014410">
        <ele>517.684</ele>
        <time>1970-01-11T02:00:03Z</time>
      </trkpt>
      <trkpt lat="42.447126" lon="-8.014412">
        <ele>517.423</ele>
        <time>1970-01-11T02:00:03Z</time>
      </trkpt>
      <trkpt lat="42.446805" lon="-8.014424">
        <ele>516.868</ele>
        <time>1970-01-11T02:00:03Z</time>
      </trkpt>
      <trkpt lat="42.446733" lon="-8.014422">
        <ele>516.646</ele>
        <time>1970-01-11T02:00:03Z</time>
      </trkpt>
      <trkpt lat="42.446411" lon="-8.014417">
        <ele>516.485</ele>
        <time>1970-01-11T02:00:03Z</time>
      </trkpt>
      <trkpt lat="42.446288" lon="-8.014423">
        <ele>516.428</ele>
        <time>1970-01-11T02:00:03Z</time>
      </trkpt>
      <trkpt lat="42.446165" lon="-8.014435">
        <ele>516.289</ele>
        <time>1970-01-11T02:00:03Z</time>
      </trkpt>
      <trkpt lat="42.446033" lon="-8.014465">
        <ele>516.017</ele>
        <time>1970-01-11T02:00:03Z</time>
      </trkpt>
      <trkpt lat="42.445962" lon="-8.014500">
        <ele>516.008</ele>
        <time>1970-01-11T02:00:03Z</time>
      </trkpt>
      <trkpt lat="42.445771" lon="-8.014653">
        <ele>515.883</ele>
        <time>1970-01-11T02:00:03Z</time>
      </trkpt>
      <trkpt lat="42.445719" lon="-8.014718">
        <ele>515.620</ele>
        <time>1970-01-11T02:00:03Z</time>
      </trkpt>
      <trkpt lat="42.445624" lon="-8.014868">
        <ele>515.246</ele>
        <time>1970-01-11T02:00:03Z</time>
      </trkpt>
      <trkpt lat="42.445517" lon="-8.015017">
        <ele>514.854</ele>
        <time>1970-01-11T02:00:03Z</time>
      </trkpt>
      <trkpt lat="42.445456" lon="-8.015075">
        <ele>514.673</ele>
        <time>1970-01-11T02:00:03Z</time>
      </trkpt>
      <trkpt lat="42.445316" lon="-8.015252">
        <ele>514.468</ele>
        <time>1970-01-11T02:00:03Z</time>
      </trkpt>
      <trkpt lat="42.445280" lon="-8.015305">
        <ele>514.476</ele>
        <time>1970-01-11T02:00:03Z</time>
      </trkpt>
      <trkpt lat="42.445179" lon="-8.015466">
        <ele>514.435</ele>
        <time>1970-01-11T02:00:03Z</time>
      </trkpt>
      <trkpt lat="42.445110" lon="-8.015577">
        <ele>514.224</ele>
        <time>1970-01-11T02:00:03Z</time>
      </trkpt>
      <trkpt lat="42.445042" lon="-8.015690">
        <ele>513.404</ele>
        <time>1970-01-11T02:00:03Z</time>
      </trkpt>
      <trkpt lat="42.444985" lon="-8.015802">
        <ele>512.214</ele>
        <time>1970-01-11T02:00:03Z</time>
      </trkpt>
      <trkpt lat="42.444938" lon="-8.015909">
        <ele>511.008</ele>
        <time>1970-01-11T02:00:03Z</time>
      </trkpt>
      <trkpt lat="42.444882" lon="-8.016007">
        <ele>509.893</ele>
        <time>1970-01-11T02:00:03Z</time>
      </trkpt>
      <trkpt lat="42.444867" lon="-8.016039">
        <ele>509.880</ele>
        <time>1970-01-11T02:00:03Z</time>
      </trkpt>
      <trkpt lat="42.444839" lon="-8.016130">
        <ele>510.016</ele>
        <time>1970-01-11T02:00:03Z</time>
      </trkpt>
      <trkpt lat="42.444805" lon="-8.016214">
        <ele>511.064</ele>
        <time>1970-01-11T02:00:03Z</time>
      </trkpt>
      <trkpt lat="42.444729" lon="-8.016417">
        <ele>511.813</ele>
        <time>1970-01-11T02:00:03Z</time>
      </trkpt>
      <trkpt lat="42.444619" lon="-8.016646">
        <ele>511.488</ele>
        <time>1970-01-11T02:00:03Z</time>
      </trkpt>
      <trkpt lat="42.444505" lon="-8.016879">
        <ele>510.686</ele>
        <time>1970-01-11T02:00:03Z</time>
      </trkpt>
      <trkpt lat="42.444452" lon="-8.017020">
        <ele>509.875</ele>
        <time>1970-01-11T02:00:03Z</time>
      </trkpt>
      <trkpt lat="42.444410" lon="-8.017153">
        <ele>509.257</ele>
        <time>1970-01-11T02:00:03Z</time>
      </trkpt>
      <trkpt lat="42.444357" lon="-8.017303">
        <ele>508.600</ele>
        <time>1970-01-11T02:00:03Z</time>
      </trkpt>
      <trkpt lat="42.444277" lon="-8.017514">
        <ele>507.420</ele>
        <time>1970-01-11T02:00:03Z</time>
      </trkpt>
      <trkpt lat="42.444232" lon="-8.017627">
        <ele>507.208</ele>
        <time>1970-01-11T02:00:03Z</time>
      </trkpt>
      <trkpt lat="42.444153" lon="-8.017821">
        <ele>507.676</ele>
        <time>1970-01-11T02:00:03Z</time>
      </trkpt>
      <trkpt lat="42.444116" lon="-8.017906">
        <ele>507.843</ele>
        <time>1970-01-11T02:00:03Z</time>
      </trkpt>
      <trkpt lat="42.444037" lon="-8.018040">
        <ele>508.229</ele>
        <time>1970-01-11T02:00:03Z</time>
      </trkpt>
      <trkpt lat="42.443996" lon="-8.018047">
        <ele>508.267</ele>
        <time>1970-01-11T02:00:03Z</time>
      </trkpt>
      <trkpt lat="42.443964" lon="-8.018045">
        <ele>508.466</ele>
        <time>1970-01-11T02:00:03Z</time>
      </trkpt>
      <trkpt lat="42.443868" lon="-8.017996">
        <ele>508.661</ele>
        <time>1970-01-11T02:00:03Z</time>
      </trkpt>
      <trkpt lat="42.443837" lon="-8.017971">
        <ele>508.879</ele>
        <time>1970-01-11T02:00:03Z</time>
      </trkpt>
      <trkpt lat="42.443671" lon="-8.017893">
        <ele>508.878</ele>
        <time>1970-01-11T02:00:03Z</time>
      </trkpt>
      <trkpt lat="42.443491" lon="-8.017824">
        <ele>509.658</ele>
        <time>1970-01-11T02:00:03Z</time>
      </trkpt>
      <trkpt lat="42.443417" lon="-8.017796">
        <ele>510.052</ele>
        <time>1970-01-11T02:00:03Z</time>
      </trkpt>
      <trkpt lat="42.443102" lon="-8.017698">
        <ele>510.617</ele>
        <time>1970-01-11T02:00:03Z</time>
      </trkpt>
      <trkpt lat="42.443061" lon="-8.017684">
        <ele>510.608</ele>
        <time>1970-01-11T02:00:03Z</time>
      </trkpt>
      <trkpt lat="42.442768" lon="-8.017592">
        <ele>511.086</ele>
        <time>1970-01-11T02:00:03Z</time>
      </trkpt>
      <trkpt lat="42.442635" lon="-8.017546">
        <ele>510.893</ele>
        <time>1970-01-11T02:00:03Z</time>
      </trkpt>
      <trkpt lat="42.442535" lon="-8.017518">
        <ele>510.819</ele>
        <time>1970-01-11T02:00:03Z</time>
      </trkpt>
      <trkpt lat="42.442475" lon="-8.017508">
        <ele>510.857</ele>
        <time>1970-01-11T02:00:03Z</time>
      </trkpt>
      <trkpt lat="42.442411" lon="-8.017505">
        <ele>510.686</ele>
        <time>1970-01-11T02:00:03Z</time>
      </trkpt>
      <trkpt lat="42.442205" lon="-8.017557">
        <ele>509.241</ele>
        <time>1970-01-11T02:00:03Z</time>
      </trkpt>
      <trkpt lat="42.442110" lon="-8.017701">
        <ele>507.889</ele>
        <time>1970-01-11T02:00:03Z</time>
      </trkpt>
      <trkpt lat="42.442074" lon="-8.017784">
        <ele>507.018</ele>
        <time>1970-01-11T02:00:03Z</time>
      </trkpt>
      <trkpt lat="42.442040" lon="-8.017865">
        <ele>506.494</ele>
        <time>1970-01-11T02:00:03Z</time>
      </trkpt>
      <trkpt lat="42.441902" lon="-8.018167">
        <ele>505.657</ele>
        <time>1970-01-11T02:00:03Z</time>
      </trkpt>
      <trkpt lat="42.441871" lon="-8.018243">
        <ele>505.422</ele>
        <time>1970-01-11T02:00:03Z</time>
      </trkpt>
      <trkpt lat="42.441702" lon="-8.018600">
        <ele>504.808</ele>
        <time>1970-01-11T02:00:03Z</time>
      </trkpt>
      <trkpt lat="42.441660" lon="-8.018661">
        <ele>504.810</ele>
        <time>1970-01-11T02:00:03Z</time>
      </trkpt>
      <trkpt lat="42.441615" lon="-8.018716">
        <ele>504.877</ele>
        <time>1970-01-11T02:00:03Z</time>
      </trkpt>
      <trkpt lat="42.441407" lon="-8.018909">
        <ele>504.883</ele>
        <time>1970-01-11T02:00:03Z</time>
      </trkpt>
      <trkpt lat="42.441144" lon="-8.018999">
        <ele>504.461</ele>
        <time>1970-01-11T02:00:03Z</time>
      </trkpt>
      <trkpt lat="42.441076" lon="-8.019013">
        <ele>504.070</ele>
        <time>1970-01-11T02:00:03Z</time>
      </trkpt>
      <trkpt lat="42.440937" lon="-8.019033">
        <ele>503.675</ele>
        <time>1970-01-11T02:00:03Z</time>
      </trkpt>
      <trkpt lat="42.440653" lon="-8.019104">
        <ele>503.223</ele>
        <time>1970-01-11T02:00:03Z</time>
      </trkpt>
      <trkpt lat="42.440449" lon="-8.019196">
        <ele>502.822</ele>
        <time>1970-01-11T02:00:03Z</time>
      </trkpt>
      <trkpt lat="42.440320" lon="-8.019271">
        <ele>502.446</ele>
        <time>1970-01-11T02:00:03Z</time>
      </trkpt>
      <trkpt lat="42.440258" lon="-8.019310">
        <ele>502.288</ele>
        <time>1970-01-11T02:00:03Z</time>
      </trkpt>
      <trkpt lat="42.440080" lon="-8.019424">
        <ele>502.016</ele>
        <time>1970-01-11T02:00:03Z</time>
      </trkpt>
      <trkpt lat="42.439969" lon="-8.019499">
        <ele>502.008</ele>
        <time>1970-01-11T02:00:03Z</time>
      </trkpt>
      <trkpt lat="42.439797" lon="-8.019621">
        <ele>501.455</ele>
        <time>1970-01-11T02:00:03Z</time>
      </trkpt>
      <trkpt lat="42.439740" lon="-8.019664">
        <ele>501.212</ele>
        <time>1970-01-11T02:00:03Z</time>
      </trkpt>
      <trkpt lat="42.439629" lon="-8.019776">
        <ele>500.898</ele>
        <time>1970-01-11T02:00:03Z</time>
      </trkpt>
      <trkpt lat="42.439574" lon="-8.019845">
        <ele>500.686</ele>
        <time>1970-01-11T02:00:03Z</time>
      </trkpt>
      <trkpt lat="42.439525" lon="-8.019919">
        <ele>500.245</ele>
        <time>1970-01-11T02:00:03Z</time>
      </trkpt>
      <trkpt lat="42.439428" lon="-8.020108">
        <ele>499.460</ele>
        <time>1970-01-11T02:00:03Z</time>
      </trkpt>
      <trkpt lat="42.439379" lon="-8.020212">
        <ele>498.868</ele>
        <time>1970-01-11T02:00:03Z</time>
      </trkpt>
      <trkpt lat="42.439286" lon="-8.020438">
        <ele>497.857</ele>
        <time>1970-01-11T02:00:03Z</time>
      </trkpt>
      <trkpt lat="42.439168" lon="-8.020821">
        <ele>496.413</ele>
        <time>1970-01-11T02:00:03Z</time>
      </trkpt>
      <trkpt lat="42.439098" lon="-8.021096">
        <ele>495.443</ele>
        <time>1970-01-11T02:00:03Z</time>
      </trkpt>
      <trkpt lat="42.439027" lon="-8.021342">
        <ele>494.007</ele>
        <time>1970-01-11T02:00:03Z</time>
      </trkpt>
      <trkpt lat="42.438962" lon="-8.021554">
        <ele>493.208</ele>
        <time>1970-01-11T02:00:03Z</time>
      </trkpt>
      <trkpt lat="42.438838" lon="-8.021911">
        <ele>493.092</ele>
        <time>1970-01-11T02:00:03Z</time>
      </trkpt>
      <trkpt lat="42.438810" lon="-8.022006">
        <ele>492.639</ele>
        <time>1970-01-11T02:00:03Z</time>
      </trkpt>
      <trkpt lat="42.438749" lon="-8.022318">
        <ele>491.655</ele>
        <time>1970-01-11T02:00:03Z</time>
      </trkpt>
      <trkpt lat="42.438732" lon="-8.022436">
        <ele>491.233</ele>
        <time>1970-01-11T02:00:03Z</time>
      </trkpt>
      <trkpt lat="42.438715" lon="-8.022558">
        <ele>490.842</ele>
        <time>1970-01-11T02:00:03Z</time>
      </trkpt>
      <trkpt lat="42.438699" lon="-8.022678">
        <ele>490.217</ele>
        <time>1970-01-11T02:00:03Z</time>
      </trkpt>
      <trkpt lat="42.438663" lon="-8.022906">
        <ele>489.075</ele>
        <time>1970-01-11T02:00:03Z</time>
      </trkpt>
      <trkpt lat="42.438629" lon="-8.023134">
        <ele>488.264</ele>
        <time>1970-01-11T02:00:03Z</time>
      </trkpt>
      <trkpt lat="42.438614" lon="-8.023245">
        <ele>488.011</ele>
        <time>1970-01-11T02:00:03Z</time>
      </trkpt>
      <trkpt lat="42.438599" lon="-8.023354">
        <ele>488.021</ele>
        <time>1970-01-11T02:00:03Z</time>
      </trkpt>
      <trkpt lat="42.438534" lon="-8.023776">
        <ele>487.603</ele>
        <time>1970-01-11T02:00:03Z</time>
      </trkpt>
      <trkpt lat="42.438502" lon="-8.023981">
        <ele>487.608</ele>
        <time>1970-01-11T02:00:03Z</time>
      </trkpt>
      <trkpt lat="42.438464" lon="-8.024178">
        <ele>487.262</ele>
        <time>1970-01-11T02:00:03Z</time>
      </trkpt>
      <trkpt lat="42.438437" lon="-8.024267">
        <ele>487.059</ele>
        <time>1970-01-11T02:00:03Z</time>
      </trkpt>
      <trkpt lat="42.438325" lon="-8.024527">
        <ele>485.895</ele>
        <time>1970-01-11T02:00:03Z</time>
      </trkpt>
      <trkpt lat="42.438237" lon="-8.024701">
        <ele>485.273</ele>
        <time>1970-01-11T02:00:03Z</time>
      </trkpt>
      <trkpt lat="42.438145" lon="-8.024869">
        <ele>484.692</ele>
        <time>1970-01-11T02:00:03Z</time>
      </trkpt>
      <trkpt lat="42.438061" lon="-8.025024">
        <ele>484.097</ele>
        <time>1970-01-11T02:00:03Z</time>
      </trkpt>
      <trkpt lat="42.438020" lon="-8.025090">
        <ele>483.815</ele>
        <time>1970-01-11T02:00:03Z</time>
      </trkpt>
      <trkpt lat="42.437984" lon="-8.025144">
        <ele>483.624</ele>
        <time>1970-01-11T02:00:03Z</time>
      </trkpt>
      <trkpt lat="42.437953" lon="-8.025197">
        <ele>483.498</ele>
        <time>1970-01-11T02:00:03Z</time>
      </trkpt>
      <trkpt lat="42.437922" lon="-8.025247">
        <ele>483.215</ele>
        <time>1970-01-11T02:00:03Z</time>
      </trkpt>
      <trkpt lat="42.437847" lon="-8.025314">
        <ele>482.826</ele>
        <time>1970-01-11T02:00:03Z</time>
      </trkpt>
      <trkpt lat="42.437835" lon="-8.025313">
        <ele>482.808</ele>
        <time>1970-01-11T02:00:03Z</time>
      </trkpt>
      <trkpt lat="42.437891" lon="-8.025288">
        <ele>482.880</ele>
        <time>1970-01-11T02:00:03Z</time>
      </trkpt>
      <trkpt lat="42.437945" lon="-8.025261">
        <ele>482.837</ele>
        <time>1970-01-11T02:00:03Z</time>
      </trkpt>
      <trkpt lat="42.438003" lon="-8.025236">
        <ele>482.843</ele>
        <time>1970-01-11T02:00:03Z</time>
      </trkpt>
      <trkpt lat="42.438054" lon="-8.025216">
        <ele>482.871</ele>
        <time>1970-01-11T02:00:03Z</time>
      </trkpt>
      <trkpt lat="42.438106" lon="-8.025197">
        <ele>482.830</ele>
        <time>1970-01-11T02:00:03Z</time>
      </trkpt>
      <trkpt lat="42.438223" lon="-8.025155">
        <ele>483.045</ele>
        <time>1970-01-11T02:00:03Z</time>
      </trkpt>
      <trkpt lat="42.438278" lon="-8.025136">
        <ele>483.223</ele>
        <time>1970-01-11T02:00:03Z</time>
      </trkpt>
      <trkpt lat="42.438394" lon="-8.025124">
        <ele>483.612</ele>
        <time>1970-01-11T02:00:03Z</time>
      </trkpt>
      <trkpt lat="42.438469" lon="-8.025169">
        <ele>484.042</ele>
        <time>1970-01-11T02:00:03Z</time>
      </trkpt>
      <trkpt lat="42.438536" lon="-8.025365">
        <ele>484.422</ele>
        <time>1970-01-11T02:00:03Z</time>
      </trkpt>
      <trkpt lat="42.438542" lon="-8.025685">
        <ele>484.614</ele>
        <time>1970-01-11T02:00:03Z</time>
      </trkpt>
      <trkpt lat="42.438534" lon="-8.025771">
        <ele>484.608</ele>
        <time>1970-01-11T02:00:03Z</time>
      </trkpt>
      <trkpt lat="42.438503" lon="-8.026028">
        <ele>484.665</ele>
        <time>1970-01-11T02:00:03Z</time>
      </trkpt>
      <trkpt lat="42.438488" lon="-8.026112">
        <ele>484.652</ele>
        <time>1970-01-11T02:00:03Z</time>
      </trkpt>
      <trkpt lat="42.438437" lon="-8.026506">
        <ele>484.228</ele>
        <time>1970-01-11T02:00:03Z</time>
      </trkpt>
      <trkpt lat="42.438414" lon="-8.026860">
        <ele>482.886</ele>
        <time>1970-01-11T02:00:03Z</time>
      </trkpt>
      <trkpt lat="42.438414" lon="-8.027049">
        <ele>482.025</ele>
        <time>1970-01-11T02:00:03Z</time>
      </trkpt>
      <trkpt lat="42.438397" lon="-8.027139">
        <ele>481.630</ele>
        <time>1970-01-11T02:00:03Z</time>
      </trkpt>
      <trkpt lat="42.438332" lon="-8.027282">
        <ele>481.058</ele>
        <time>1970-01-11T02:00:03Z</time>
      </trkpt>
      <trkpt lat="42.438246" lon="-8.027404">
        <ele>480.427</ele>
        <time>1970-01-11T02:00:03Z</time>
      </trkpt>
      <trkpt lat="42.438207" lon="-8.027476">
        <ele>480.284</ele>
        <time>1970-01-11T02:00:03Z</time>
      </trkpt>
      <trkpt lat="42.438136" lon="-8.027628">
        <ele>479.807</ele>
        <time>1970-01-11T02:00:03Z</time>
      </trkpt>
      <trkpt lat="42.438103" lon="-8.027709">
        <ele>479.417</ele>
        <time>1970-01-11T02:00:03Z</time>
      </trkpt>
      <trkpt lat="42.438007" lon="-8.027944">
        <ele>478.208</ele>
        <time>1970-01-11T02:00:03Z</time>
      </trkpt>
      <trkpt lat="42.437910" lon="-8.028188">
        <ele>477.269</ele>
        <time>1970-01-11T02:00:03Z</time>
      </trkpt>
      <trkpt lat="42.437811" lon="-8.028447">
        <ele>475.896</ele>
        <time>1970-01-11T02:00:03Z</time>
      </trkpt>
      <trkpt lat="42.437703" lon="-8.028680">
        <ele>474.682</ele>
        <time>1970-01-11T02:00:03Z</time>
      </trkpt>
      <trkpt lat="42.437663" lon="-8.028744">
        <ele>473.890</ele>
        <time>1970-01-11T02:00:03Z</time>
      </trkpt>
      <trkpt lat="42.437621" lon="-8.028806">
        <ele>473.699</ele>
        <time>1970-01-11T02:00:03Z</time>
      </trkpt>
      <trkpt lat="42.437458" lon="-8.029106">
        <ele>473.084</ele>
        <time>1970-01-11T02:00:03Z</time>
      </trkpt>
      <trkpt lat="42.437424" lon="-8.029191">
        <ele>473.062</ele>
        <time>1970-01-11T02:00:03Z</time>
      </trkpt>
      <trkpt lat="42.437325" lon="-8.029457">
        <ele>473.071</ele>
        <time>1970-01-11T02:00:03Z</time>
      </trkpt>
      <trkpt lat="42.437287" lon="-8.029533">
        <ele>473.012</ele>
        <time>1970-01-11T02:00:03Z</time>
      </trkpt>
      <trkpt lat="42.437244" lon="-8.029604">
        <ele>473.032</ele>
        <time>1970-01-11T02:00:03Z</time>
      </trkpt>
      <trkpt lat="42.437145" lon="-8.029712">
        <ele>473.205</ele>
        <time>1970-01-11T02:00:03Z</time>
      </trkpt>
      <trkpt lat="42.437038" lon="-8.029816">
        <ele>473.208</ele>
        <time>1970-01-11T02:00:03Z</time>
      </trkpt>
      <trkpt lat="42.436830" lon="-8.030036">
        <ele>473.822</ele>
        <time>1970-01-11T02:00:03Z</time>
      </trkpt>
      <trkpt lat="42.436689" lon="-8.030194">
        <ele>474.099</ele>
        <time>1970-01-11T02:00:03Z</time>
      </trkpt>
      <trkpt lat="42.436541" lon="-8.030330">
        <ele>473.045</ele>
        <time>1970-01-11T02:00:03Z</time>
      </trkpt>
      <trkpt lat="42.436379" lon="-8.030446">
        <ele>472.683</ele>
        <time>1970-01-11T02:00:03Z</time>
      </trkpt>
      <trkpt lat="42.436326" lon="-8.030490">
        <ele>472.632</ele>
        <time>1970-01-11T02:00:03Z</time>
      </trkpt>
      <trkpt lat="42.436233" lon="-8.030589">
        <ele>472.467</ele>
        <time>1970-01-11T02:00:03Z</time>
      </trkpt>
      <trkpt lat="42.436142" lon="-8.030677">
        <ele>472.225</ele>
        <time>1970-01-11T02:00:03Z</time>
      </trkpt>
      <trkpt lat="42.436026" lon="-8.030796">
        <ele>472.214</ele>
        <time>1970-01-11T02:00:03Z</time>
      </trkpt>
      <trkpt lat="42.435960" lon="-8.030859">
        <ele>472.094</ele>
        <time>1970-01-11T02:00:03Z</time>
      </trkpt>
      <trkpt lat="42.435789" lon="-8.031082">
        <ele>471.857</ele>
        <time>1970-01-11T02:00:03Z</time>
      </trkpt>
      <trkpt lat="42.435752" lon="-8.031113">
        <ele>471.822</ele>
        <time>1970-01-11T02:00:03Z</time>
      </trkpt>
      <trkpt lat="42.435571" lon="-8.031272">
        <ele>471.808</ele>
        <time>1970-01-11T02:00:03Z</time>
      </trkpt>
      <trkpt lat="42.435529" lon="-8.031326">
        <ele>471.840</ele>
        <time>1970-01-11T02:00:03Z</time>
      </trkpt>
      <trkpt lat="42.435341" lon="-8.031466">
        <ele>471.457</ele>
        <time>1970-01-11T02:00:03Z</time>
      </trkpt>
      <trkpt lat="42.435248" lon="-8.031538">
        <ele>471.433</ele>
        <time>1970-01-11T02:00:03Z</time>
      </trkpt>
      <trkpt lat="42.434974" lon="-8.031778">
        <ele>471.021</ele>
        <time>1970-01-11T02:00:03Z</time>
      </trkpt>
      <trkpt lat="42.434507" lon="-8.032226">
        <ele>470.410</ele>
        <time>1970-01-11T02:00:03Z</time>
      </trkpt>
      <trkpt lat="42.434439" lon="-8.032285">
        <ele>470.415</ele>
        <time>1970-01-11T02:00:03Z</time>
      </trkpt>
      <trkpt lat="42.434124" lon="-8.032548">
        <ele>469.813</ele>
        <time>1970-01-11T02:00:03Z</time>
      </trkpt>
      <trkpt lat="42.434036" lon="-8.032655">
        <ele>469.452</ele>
        <time>1970-01-11T02:00:03Z</time>
      </trkpt>
      <trkpt lat="42.434018" lon="-8.032712">
        <ele>469.285</ele>
        <time>1970-01-11T02:00:03Z</time>
      </trkpt>
      <trkpt lat="42.434012" lon="-8.032773">
        <ele>469.089</ele>
        <time>1970-01-11T02:00:03Z</time>
      </trkpt>
      <trkpt lat="42.434050" lon="-8.032983">
        <ele>468.817</ele>
        <time>1970-01-11T02:00:03Z</time>
      </trkpt>
      <trkpt lat="42.434094" lon="-8.033081">
        <ele>468.608</ele>
        <time>1970-01-11T02:00:03Z</time>
      </trkpt>
      <trkpt lat="42.434119" lon="-8.033129">
        <ele>468.479</ele>
        <time>1970-01-11T02:00:03Z</time>
      </trkpt>
      <trkpt lat="42.434202" lon="-8.033291">
        <ele>468.416</ele>
        <time>1970-01-11T02:00:03Z</time>
      </trkpt>
      <trkpt lat="42.434222" lon="-8.033353">
        <ele>468.492</ele>
        <time>1970-01-11T02:00:03Z</time>
      </trkpt>
      <trkpt lat="42.434267" lon="-8.033475">
        <ele>468.270</ele>
        <time>1970-01-11T02:00:03Z</time>
      </trkpt>
      <trkpt lat="42.434280" lon="-8.033540">
        <ele>468.219</ele>
        <time>1970-01-11T02:00:03Z</time>
      </trkpt>
      <trkpt lat="42.434281" lon="-8.033618">
        <ele>468.094</ele>
        <time>1970-01-11T02:00:03Z</time>
      </trkpt>
      <trkpt lat="42.434248" lon="-8.033902">
        <ele>467.812</ele>
        <time>1970-01-11T02:00:03Z</time>
      </trkpt>
      <trkpt lat="42.434224" lon="-8.033968">
        <ele>467.891</ele>
        <time>1970-01-11T02:00:03Z</time>
      </trkpt>
      <trkpt lat="42.434103" lon="-8.034184">
        <ele>467.637</ele>
        <time>1970-01-11T02:00:03Z</time>
      </trkpt>
      <trkpt lat="42.434071" lon="-8.034229">
        <ele>467.649</ele>
        <time>1970-01-11T02:00:03Z</time>
      </trkpt>
      <trkpt lat="42.433838" lon="-8.034555">
        <ele>467.813</ele>
        <time>1970-01-11T02:00:03Z</time>
      </trkpt>
      <trkpt lat="42.433665" lon="-8.034664">
        <ele>467.808</ele>
        <time>1970-01-11T02:00:03Z</time>
      </trkpt>
      <trkpt lat="42.433343" lon="-8.034767">
        <ele>468.064</ele>
        <time>1970-01-11T02:00:03Z</time>
      </trkpt>
      <trkpt lat="42.433228" lon="-8.034810">
        <ele>468.031</ele>
        <time>1970-01-11T02:00:03Z</time>
      </trkpt>
      <trkpt lat="42.433057" lon="-8.034911">
        <ele>467.467</ele>
        <time>1970-01-11T02:00:03Z</time>
      </trkpt>
      <trkpt lat="42.432978" lon="-8.034995">
        <ele>467.255</ele>
        <time>1970-01-11T02:00:03Z</time>
      </trkpt>
      <trkpt lat="42.432823" lon="-8.035189">
        <ele>467.024</ele>
        <time>1970-01-11T02:00:03Z</time>
      </trkpt>
      <trkpt lat="42.432647" lon="-8.035454">
        <ele>466.259</ele>
        <time>1970-01-11T02:00:03Z</time>
      </trkpt>
      <trkpt lat="42.432593" lon="-8.035533">
        <ele>466.087</ele>
        <time>1970-01-11T02:00:03Z</time>
      </trkpt>
      <trkpt lat="42.432538" lon="-8.035600">
        <ele>465.886</ele>
        <time>1970-01-11T02:00:03Z</time>
      </trkpt>
      <trkpt lat="42.432325" lon="-8.035786">
        <ele>465.488</ele>
        <time>1970-01-11T02:00:03Z</time>
      </trkpt>
      <trkpt lat="42.432204" lon="-8.035940">
        <ele>465.224</ele>
        <time>1970-01-11T02:00:03Z</time>
      </trkpt>
      <trkpt lat="42.432114" lon="-8.036103">
        <ele>464.426</ele>
        <time>1970-01-11T02:00:03Z</time>
      </trkpt>
      <trkpt lat="42.432081" lon="-8.036188">
        <ele>463.808</ele>
        <time>1970-01-11T02:00:03Z</time>
      </trkpt>
      <trkpt lat="42.432046" lon="-8.036370">
        <ele>462.619</ele>
        <time>1970-01-11T02:00:03Z</time>
      </trkpt>
      <trkpt lat="42.432048" lon="-8.036466">
        <ele>461.436</ele>
        <time>1970-01-11T02:00:03Z</time>
      </trkpt>
      <trkpt lat="42.432075" lon="-8.036659">
        <ele>459.842</ele>
        <time>1970-01-11T02:00:03Z</time>
      </trkpt>
      <trkpt lat="42.432126" lon="-8.036833">
        <ele>458.670</ele>
        <time>1970-01-11T02:00:03Z</time>
      </trkpt>
      <trkpt lat="42.432207" lon="-8.036966">
        <ele>458.079</ele>
        <time>1970-01-11T02:00:03Z</time>
      </trkpt>
      <trkpt lat="42.432256" lon="-8.037016">
        <ele>457.674</ele>
        <time>1970-01-11T02:00:03Z</time>
      </trkpt>
      <trkpt lat="42.432386" lon="-8.037122">
        <ele>456.822</ele>
        <time>1970-01-11T02:00:03Z</time>
      </trkpt>
      <trkpt lat="42.432451" lon="-8.037171">
        <ele>456.661</ele>
        <time>1970-01-11T02:00:03Z</time>
      </trkpt>
      <trkpt lat="42.432770" lon="-8.037442">
        <ele>455.611</ele>
        <time>1970-01-11T02:00:03Z</time>
      </trkpt>
      <trkpt lat="42.432831" lon="-8.037497">
        <ele>455.421</ele>
        <time>1970-01-11T02:00:03Z</time>
      </trkpt>
      <trkpt lat="42.433013" lon="-8.037650">
        <ele>454.403</ele>
        <time>1970-01-11T02:00:03Z</time>
      </trkpt>
      <trkpt lat="42.433143" lon="-8.037728">
        <ele>453.808</ele>
        <time>1970-01-11T02:00:03Z</time>
      </trkpt>
      <trkpt lat="42.433276" lon="-8.037781">
        <ele>453.262</ele>
        <time>1970-01-11T02:00:03Z</time>
      </trkpt>
      <trkpt lat="42.433335" lon="-8.037806">
        <ele>452.429</ele>
        <time>1970-01-11T02:00:03Z</time>
      </trkpt>
      <trkpt lat="42.433396" lon="-8.037856">
        <ele>451.855</ele>
        <time>1970-01-11T02:00:03Z</time>
      </trkpt>
      <trkpt lat="42.433407" lon="-8.037871">
        <ele>451.693</ele>
        <time>1970-01-11T02:00:03Z</time>
      </trkpt>
      <trkpt lat="42.433405" lon="-8.037876">
        <ele>451.062</ele>
        <time>1970-01-11T02:00:03Z</time>
      </trkpt>
      <trkpt lat="42.433405" lon="-8.037876">
        <ele>450.867</ele>
        <time>1970-01-11T02:00:03Z</time>
      </trkpt>
      <trkpt lat="42.433365" lon="-8.037885">
        <ele>450.845</ele>
        <time>1970-01-11T02:00:03Z</time>
      </trkpt>
      <trkpt lat="42.433330" lon="-8.037897">
        <ele>450.844</ele>
        <time>1970-01-11T02:00:03Z</time>
      </trkpt>
      <trkpt lat="42.433265" lon="-8.037924">
        <ele>450.899</ele>
        <time>1970-01-11T02:00:03Z</time>
      </trkpt>
      <trkpt lat="42.433174" lon="-8.038042">
        <ele>451.207</ele>
        <time>1970-01-11T02:00:03Z</time>
      </trkpt>
      <trkpt lat="42.433083" lon="-8.038280">
        <ele>450.827</ele>
        <time>1970-01-11T02:00:03Z</time>
      </trkpt>
      <trkpt lat="42.433017" lon="-8.038595">
        <ele>450.008</ele>
        <time>1970-01-11T02:00:03Z</time>
      </trkpt>
      <trkpt lat="42.433001" lon="-8.038702">
        <ele>449.660</ele>
        <time>1970-01-11T02:00:03Z</time>
      </trkpt>
      <trkpt lat="42.432986" lon="-8.038803">
        <ele>449.077</ele>
        <time>1970-01-11T02:00:03Z</time>
      </trkpt>
      <trkpt lat="42.432972" lon="-8.038980">
        <ele>448.283</ele>
        <time>1970-01-11T02:00:03Z</time>
      </trkpt>
      <trkpt lat="42.432957" lon="-8.039200">
        <ele>447.221</ele>
        <time>1970-01-11T02:00:03Z</time>
      </trkpt>
      <trkpt lat="42.432942" lon="-8.039268">
        <ele>447.040</ele>
        <time>1970-01-11T02:00:03Z</time>
      </trkpt>
      <trkpt lat="42.432898" lon="-8.039407">
        <ele>446.645</ele>
        <time>1970-01-11T02:00:03Z</time>
      </trkpt>
      <trkpt lat="42.432870" lon="-8.039477">
        <ele>446.463</ele>
        <time>1970-01-11T02:00:03Z</time>
      </trkpt>
      <trkpt lat="42.432826" lon="-8.039542">
        <ele>446.232</ele>
        <time>1970-01-11T02:00:03Z</time>
      </trkpt>
      <trkpt lat="42.432777" lon="-8.039589">
        <ele>446.086</ele>
        <time>1970-01-11T02:00:03Z</time>
      </trkpt>
      <trkpt lat="42.432718" lon="-8.039634">
        <ele>446.060</ele>
        <time>1970-01-11T02:00:03Z</time>
      </trkpt>
      <trkpt lat="42.432594" lon="-8.039755">
        <ele>445.626</ele>
        <time>1970-01-11T02:00:03Z</time>
      </trkpt>
      <trkpt lat="42.432559" lon="-8.039836">
        <ele>445.208</ele>
        <time>1970-01-11T02:00:03Z</time>
      </trkpt>
      <trkpt lat="42.432541" lon="-8.039924">
        <ele>444.819</ele>
        <time>1970-01-11T02:00:03Z</time>
      </trkpt>
      <trkpt lat="42.432548" lon="-8.040119">
        <ele>444.416</ele>
        <time>1970-01-11T02:00:03Z</time>
      </trkpt>
      <trkpt lat="42.432557" lon="-8.040223">
        <ele>444.272</ele>
        <time>1970-01-11T02:00:03Z</time>
      </trkpt>
      <trkpt lat="42.432558" lon="-8.040331">
        <ele>444.260</ele>
        <time>1970-01-11T02:00:03Z</time>
      </trkpt>
      <trkpt lat="42.432552" lon="-8.040443">
        <ele>444.029</ele>
        <time>1970-01-11T02:00:03Z</time>
      </trkpt>
      <trkpt lat="42.432552" lon="-8.040553">
        <ele>444.074</ele>
        <time>1970-01-11T02:00:03Z</time>
      </trkpt>
      <trkpt lat="42.432591" lon="-8.040763">
        <ele>443.852</ele>
        <time>1970-01-11T02:00:03Z</time>
      </trkpt>
      <trkpt lat="42.432621" lon="-8.040855">
        <ele>443.651</ele>
        <time>1970-01-11T02:00:03Z</time>
      </trkpt>
      <trkpt lat="42.432671" lon="-8.041030">
        <ele>442.854</ele>
        <time>1970-01-11T02:00:03Z</time>
      </trkpt>
      <trkpt lat="42.432715" lon="-8.041161">
        <ele>442.456</ele>
        <time>1970-01-11T02:00:03Z</time>
      </trkpt>
      <trkpt lat="42.432794" lon="-8.041212">
        <ele>442.211</ele>
        <time>1970-01-11T02:00:03Z</time>
      </trkpt>
      <trkpt lat="42.432838" lon="-8.041210">
        <ele>442.008</ele>
        <time>1970-01-11T02:00:03Z</time>
      </trkpt>
      <trkpt lat="42.432884" lon="-8.041188">
        <ele>441.896</ele>
        <time>1970-01-11T02:00:03Z</time>
      </trkpt>
      <trkpt lat="42.432978" lon="-8.041112">
        <ele>441.233</ele>
        <time>1970-01-11T02:00:03Z</time>
      </trkpt>
      <trkpt lat="42.433025" lon="-8.041069">
        <ele>441.089</ele>
        <time>1970-01-11T02:00:03Z</time>
      </trkpt>
      <trkpt lat="42.433223" lon="-8.040927">
        <ele>440.637</ele>
        <time>1970-01-11T02:00:03Z</time>
      </trkpt>
      <trkpt lat="42.433328" lon="-8.040845">
        <ele>440.686</ele>
        <time>1970-01-11T02:00:03Z</time>
      </trkpt>
      <trkpt lat="42.433554" lon="-8.040687">
        <ele>440.041</ele>
        <time>1970-01-11T02:00:03Z</time>
      </trkpt>
      <trkpt lat="42.433610" lon="-8.040682">
        <ele>439.859</ele>
        <time>1970-01-11T02:00:03Z</time>
      </trkpt>
      <trkpt lat="42.433661" lon="-8.040696">
        <ele>439.438</ele>
        <time>1970-01-11T02:00:03Z</time>
      </trkpt>
      <trkpt lat="42.433744" lon="-8.040772">
        <ele>438.446</ele>
        <time>1970-01-11T02:00:03Z</time>
      </trkpt>
      <trkpt lat="42.433783" lon="-8.040826">
        <ele>437.488</ele>
        <time>1970-01-11T02:00:03Z</time>
      </trkpt>
      <trkpt lat="42.433823" lon="-8.040884">
        <ele>437.016</ele>
        <time>1970-01-11T02:00:03Z</time>
      </trkpt>
      <trkpt lat="42.433916" lon="-8.041005">
        <ele>436.208</ele>
        <time>1970-01-11T02:00:03Z</time>
      </trkpt>
      <trkpt lat="42.434081" lon="-8.041232">
        <ele>435.225</ele>
        <time>1970-01-11T02:00:03Z</time>
      </trkpt>
      <trkpt lat="42.434197" lon="-8.041390">
        <ele>434.462</ele>
        <time>1970-01-11T02:00:03Z</time>
      </trkpt>
      <trkpt lat="42.434258" lon="-8.041467">
        <ele>433.828</ele>
        <time>1970-01-11T02:00:03Z</time>
      </trkpt>
      <trkpt lat="42.434465" lon="-8.041701">
        <ele>432.226</ele>
        <time>1970-01-11T02:00:03Z</time>
      </trkpt>
      <trkpt lat="42.434614" lon="-8.041870">
        <ele>430.225</ele>
        <time>1970-01-11T02:00:03Z</time>
      </trkpt>
      <trkpt lat="42.434686" lon="-8.041962">
        <ele>429.050</ele>
        <time>1970-01-11T02:00:03Z</time>
      </trkpt>
      <trkpt lat="42.434761" lon="-8.042065">
        <ele>428.018</ele>
        <time>1970-01-11T02:00:03Z</time>
      </trkpt>
      <trkpt lat="42.434830" lon="-8.042179">
        <ele>427.257</ele>
        <time>1970-01-11T02:00:03Z</time>
      </trkpt>
      <trkpt lat="42.434895" lon="-8.042295">
        <ele>426.412</ele>
        <time>1970-01-11T02:00:03Z</time>
      </trkpt>
      <trkpt lat="42.435012" lon="-8.042530">
        <ele>424.832</ele>
        <time>1970-01-11T02:00:04Z</time>
      </trkpt>
      <trkpt lat="42.435121" lon="-8.042765">
        <ele>423.405</ele>
        <time>1970-01-11T02:00:04Z</time>
      </trkpt>
      <trkpt lat="42.435227" lon="-8.043014">
        <ele>420.808</ele>
        <time>1970-01-11T02:00:04Z</time>
      </trkpt>
      <trkpt lat="42.435280" lon="-8.043138">
        <ele>419.832</ele>
        <time>1970-01-11T02:00:04Z</time>
      </trkpt>
      <trkpt lat="42.435401" lon="-8.043370">
        <ele>418.269</ele>
        <time>1970-01-11T02:00:04Z</time>
      </trkpt>
      <trkpt lat="42.435526" lon="-8.043592">
        <ele>416.245</ele>
        <time>1970-01-11T02:00:04Z</time>
      </trkpt>
      <trkpt lat="42.435650" lon="-8.043802">
        <ele>414.493</ele>
        <time>1970-01-11T02:00:04Z</time>
      </trkpt>
      <trkpt lat="42.435766" lon="-8.044017">
        <ele>413.622</ele>
        <time>1970-01-11T02:00:04Z</time>
      </trkpt>
      <trkpt lat="42.435821" lon="-8.044120">
        <ele>413.447</ele>
        <time>1970-01-11T02:00:04Z</time>
      </trkpt>
      <trkpt lat="42.435873" lon="-8.044214">
        <ele>413.275</ele>
        <time>1970-01-11T02:00:04Z</time>
      </trkpt>
      <trkpt lat="42.435930" lon="-8.044299">
        <ele>412.814</ele>
        <time>1970-01-11T02:00:04Z</time>
      </trkpt>
      <trkpt lat="42.436051" lon="-8.044433">
        <ele>412.648</ele>
        <time>1970-01-11T02:00:04Z</time>
      </trkpt>
      <trkpt lat="42.436218" lon="-8.044631">
        <ele>412.661</ele>
        <time>1970-01-11T02:00:04Z</time>
      </trkpt>
      <trkpt lat="42.436271" lon="-8.044696">
        <ele>412.617</ele>
        <time>1970-01-11T02:00:04Z</time>
      </trkpt>
      <trkpt lat="42.436374" lon="-8.044825">
        <ele>412.608</ele>
        <time>1970-01-11T02:00:04Z</time>
      </trkpt>
      <trkpt lat="42.436476" lon="-8.044945">
        <ele>413.225</ele>
        <time>1970-01-11T02:00:04Z</time>
      </trkpt>
      <trkpt lat="42.436579" lon="-8.045070">
        <ele>414.292</ele>
        <time>1970-01-11T02:00:04Z</time>
      </trkpt>
      <trkpt lat="42.436632" lon="-8.045134">
        <ele>414.698</ele>
        <time>1970-01-11T02:00:04Z</time>
      </trkpt>
      <trkpt lat="42.436741" lon="-8.045264">
        <ele>415.486</ele>
        <time>1970-01-11T02:00:04Z</time>
      </trkpt>
      <trkpt lat="42.436793" lon="-8.045332">
        <ele>415.675</ele>
        <time>1970-01-11T02:00:04Z</time>
      </trkpt>
      <trkpt lat="42.436895" lon="-8.045471">
        <ele>416.210</ele>
        <time>1970-01-11T02:00:04Z</time>
      </trkpt>
      <trkpt lat="42.436950" lon="-8.045544">
        <ele>416.618</ele>
        <time>1970-01-11T02:00:04Z</time>
      </trkpt>
      <trkpt lat="42.437051" lon="-8.045678">
        <ele>417.297</ele>
        <time>1970-01-11T02:00:04Z</time>
      </trkpt>
      <trkpt lat="42.437145" lon="-8.045792">
        <ele>417.873</ele>
        <time>1970-01-11T02:00:04Z</time>
      </trkpt>
      <trkpt lat="42.437305" lon="-8.045994">
        <ele>418.685</ele>
        <time>1970-01-11T02:00:04Z</time>
      </trkpt>
      <trkpt lat="42.437398" lon="-8.046125">
        <ele>418.413</ele>
        <time>1970-01-11T02:00:04Z</time>
      </trkpt>
      <trkpt lat="42.437423" lon="-8.046243">
        <ele>417.808</ele>
        <time>1970-01-11T02:00:04Z</time>
      </trkpt>
      <trkpt lat="42.437379" lon="-8.046348">
        <ele>417.018</ele>
        <time>1970-01-11T02:00:04Z</time>
      </trkpt>
      <trkpt lat="42.437342" lon="-8.046393">
        <ele>416.855</ele>
        <time>1970-01-11T02:00:04Z</time>
      </trkpt>
      <trkpt lat="42.437299" lon="-8.046438">
        <ele>416.611</ele>
        <time>1970-01-11T02:00:04Z</time>
      </trkpt>
      <trkpt lat="42.437148" lon="-8.046629">
        <ele>416.029</ele>
        <time>1970-01-11T02:00:04Z</time>
      </trkpt>
      <trkpt lat="42.437072" lon="-8.046721">
        <ele>415.848</ele>
        <time>1970-01-11T02:00:04Z</time>
      </trkpt>
      <trkpt lat="42.437035" lon="-8.046772">
        <ele>415.653</ele>
        <time>1970-01-11T02:00:04Z</time>
      </trkpt>
      <trkpt lat="42.436959" lon="-8.046879">
        <ele>415.421</ele>
        <time>1970-01-11T02:00:04Z</time>
      </trkpt>
      <trkpt lat="42.436794" lon="-8.047098">
        <ele>415.240</ele>
        <time>1970-01-11T02:00:04Z</time>
      </trkpt>
      <trkpt lat="42.436538" lon="-8.047390">
        <ele>415.062</ele>
        <time>1970-01-11T02:00:04Z</time>
      </trkpt>
      <trkpt lat="42.436436" lon="-8.047503">
        <ele>416.283</ele>
        <time>1970-01-11T02:00:04Z</time>
      </trkpt>
      <trkpt lat="42.436395" lon="-8.047553">
        <ele>416.811</ele>
        <time>1970-01-11T02:00:04Z</time>
      </trkpt>
      <trkpt lat="42.436307" lon="-8.047671">
        <ele>417.408</ele>
        <time>1970-01-11T02:00:04Z</time>
      </trkpt>
      <trkpt lat="42.436036" lon="-8.048098">
        <ele>417.037</ele>
        <time>1970-01-11T02:00:04Z</time>
      </trkpt>
      <trkpt lat="42.435935" lon="-8.048241">
        <ele>416.654</ele>
        <time>1970-01-11T02:00:04Z</time>
      </trkpt>
      <trkpt lat="42.435814" lon="-8.048341">
        <ele>416.090</ele>
        <time>1970-01-11T02:00:04Z</time>
      </trkpt>
      <trkpt lat="42.435751" lon="-8.048374">
        <ele>415.818</ele>
        <time>1970-01-11T02:00:04Z</time>
      </trkpt>
      <trkpt lat="42.435610" lon="-8.048386">
        <ele>415.217</ele>
        <time>1970-01-11T02:00:04Z</time>
      </trkpt>
      <trkpt lat="42.435481" lon="-8.048290">
        <ele>414.872</ele>
        <time>1970-01-11T02:00:04Z</time>
      </trkpt>
      <trkpt lat="42.435441" lon="-8.048202">
        <ele>414.660</ele>
        <time>1970-01-11T02:00:04Z</time>
      </trkpt>
      <trkpt lat="42.435413" lon="-8.048108">
        <ele>414.269</ele>
        <time>1970-01-11T02:00:04Z</time>
      </trkpt>
      <trkpt lat="42.435391" lon="-8.048019">
        <ele>413.486</ele>
        <time>1970-01-11T02:00:04Z</time>
      </trkpt>
      <trkpt lat="42.435328" lon="-8.047860">
        <ele>412.060</ele>
        <time>1970-01-11T02:00:04Z</time>
      </trkpt>
      <trkpt lat="42.435226" lon="-8.047747">
        <ele>410.826</ele>
        <time>1970-01-11T02:00:04Z</time>
      </trkpt>
      <trkpt lat="42.435163" lon="-8.047716">
        <ele>410.408</ele>
        <time>1970-01-11T02:00:04Z</time>
      </trkpt>
      <trkpt lat="42.434958" lon="-8.047742">
        <ele>410.239</ele>
        <time>1970-01-11T02:00:04Z</time>
      </trkpt>
      <trkpt lat="42.434831" lon="-8.047953">
        <ele>410.016</ele>
        <time>1970-01-11T02:00:04Z</time>
      </trkpt>
      <trkpt lat="42.434790" lon="-8.048135">
        <ele>409.842</ele>
        <time>1970-01-11T02:00:04Z</time>
      </trkpt>
      <trkpt lat="42.434775" lon="-8.048233">
        <ele>409.690</ele>
        <time>1970-01-11T02:00:04Z</time>
      </trkpt>
      <trkpt lat="42.434758" lon="-8.048335">
        <ele>409.219</ele>
        <time>1970-01-11T02:00:04Z</time>
      </trkpt>
      <trkpt lat="42.434692" lon="-8.048649">
        <ele>408.254</ele>
        <time>1970-01-11T02:00:04Z</time>
      </trkpt>
      <trkpt lat="42.434649" lon="-8.048864">
        <ele>407.252</ele>
        <time>1970-01-11T02:00:04Z</time>
      </trkpt>
      <trkpt lat="42.434638" lon="-8.048978">
        <ele>406.611</ele>
        <time>1970-01-11T02:00:04Z</time>
      </trkpt>
      <trkpt lat="42.434633" lon="-8.049206">
        <ele>405.669</ele>
        <time>1970-01-11T02:00:04Z</time>
      </trkpt>
      <trkpt lat="42.434653" lon="-8.049407">
        <ele>405.204</ele>
        <time>1970-01-11T02:00:04Z</time>
      </trkpt>
      <trkpt lat="42.434687" lon="-8.049573">
        <ele>405.224</ele>
        <time>1970-01-11T02:00:04Z</time>
      </trkpt>
      <trkpt lat="42.434695" lon="-8.049650">
        <ele>405.608</ele>
        <time>1970-01-11T02:00:04Z</time>
      </trkpt>
      <trkpt lat="42.434696" lon="-8.049728">
        <ele>406.257</ele>
        <time>1970-01-11T02:00:04Z</time>
      </trkpt>
      <trkpt lat="42.434689" lon="-8.049801">
        <ele>406.634</ele>
        <time>1970-01-11T02:00:04Z</time>
      </trkpt>
      <trkpt lat="42.434647" lon="-8.049952">
        <ele>407.440</ele>
        <time>1970-01-11T02:00:04Z</time>
      </trkpt>
      <trkpt lat="42.434612" lon="-8.050027">
        <ele>407.828</ele>
        <time>1970-01-11T02:00:04Z</time>
      </trkpt>
      <trkpt lat="42.434529" lon="-8.050173">
        <ele>408.437</ele>
        <time>1970-01-11T02:00:04Z</time>
      </trkpt>
      <trkpt lat="42.434386" lon="-8.050371">
        <ele>408.652</ele>
        <time>1970-01-11T02:00:04Z</time>
      </trkpt>
      <trkpt lat="42.434055" lon="-8.050785">
        <ele>407.640</ele>
        <time>1970-01-11T02:00:04Z</time>
      </trkpt>
      <trkpt lat="42.433959" lon="-8.050887">
        <ele>406.879</ele>
        <time>1970-01-11T02:00:04Z</time>
      </trkpt>
      <trkpt lat="42.433908" lon="-8.050929">
        <ele>406.429</ele>
        <time>1970-01-11T02:00:04Z</time>
      </trkpt>
      <trkpt lat="42.433809" lon="-8.051037">
        <ele>406.000</ele>
        <time>1970-01-11T02:00:04Z</time>
      </trkpt>
      <trkpt lat="42.433629" lon="-8.051254">
        <ele>406.020</ele>
        <time>1970-01-11T02:00:04Z</time>
      </trkpt>
      <trkpt lat="42.433504" lon="-8.051409">
        <ele>405.608</ele>
        <time>1970-01-11T02:00:04Z</time>
      </trkpt>
      <trkpt lat="42.433357" lon="-8.051574">
        <ele>405.053</ele>
        <time>1970-01-11T02:00:04Z</time>
      </trkpt>
      <trkpt lat="42.433253" lon="-8.051690">
        <ele>404.470</ele>
        <time>1970-01-11T02:00:04Z</time>
      </trkpt>
      <trkpt lat="42.433199" lon="-8.051752">
        <ele>404.246</ele>
        <time>1970-01-11T02:00:04Z</time>
      </trkpt>
      <trkpt lat="42.433080" lon="-8.051878">
        <ele>403.684</ele>
        <time>1970-01-11T02:00:04Z</time>
      </trkpt>
      <trkpt lat="42.433026" lon="-8.051951">
        <ele>403.683</ele>
        <time>1970-01-11T02:00:04Z</time>
      </trkpt>
      <trkpt lat="42.432977" lon="-8.052027">
        <ele>403.448</ele>
        <time>1970-01-11T02:00:04Z</time>
      </trkpt>
      <trkpt lat="42.432928" lon="-8.052098">
        <ele>403.026</ele>
        <time>1970-01-11T02:00:04Z</time>
      </trkpt>
      <trkpt lat="42.432832" lon="-8.052216">
        <ele>402.025</ele>
        <time>1970-01-11T02:00:04Z</time>
      </trkpt>
      <trkpt lat="42.432720" lon="-8.052333">
        <ele>401.462</ele>
        <time>1970-01-11T02:00:04Z</time>
      </trkpt>
      <trkpt lat="42.432477" lon="-8.052543">
        <ele>401.083</ele>
        <time>1970-01-11T02:00:04Z</time>
      </trkpt>
      <trkpt lat="42.432376" lon="-8.052630">
        <ele>401.011</ele>
        <time>1970-01-11T02:00:04Z</time>
      </trkpt>
      <trkpt lat="42.432292" lon="-8.052702">
        <ele>401.608</ele>
        <time>1970-01-11T02:00:04Z</time>
      </trkpt>
      <trkpt lat="42.432258" lon="-8.052736">
        <ele>402.077</ele>
        <time>1970-01-11T02:00:04Z</time>
      </trkpt>
      <trkpt lat="42.432225" lon="-8.052766">
        <ele>402.464</ele>
        <time>1970-01-11T02:00:04Z</time>
      </trkpt>
      <trkpt lat="42.432160" lon="-8.052828">
        <ele>403.410</ele>
        <time>1970-01-11T02:00:04Z</time>
      </trkpt>
      <trkpt lat="42.432131" lon="-8.052859">
        <ele>403.628</ele>
        <time>1970-01-11T02:00:04Z</time>
      </trkpt>
      <trkpt lat="42.432078" lon="-8.052925">
        <ele>404.417</ele>
        <time>1970-01-11T02:00:04Z</time>
      </trkpt>
      <trkpt lat="42.432049" lon="-8.052959">
        <ele>404.872</ele>
        <time>1970-01-11T02:00:04Z</time>
      </trkpt>
      <trkpt lat="42.431983" lon="-8.053025">
        <ele>405.630</ele>
        <time>1970-01-11T02:00:04Z</time>
      </trkpt>
      <trkpt lat="42.431947" lon="-8.053063">
        <ele>405.869</ele>
        <time>1970-01-11T02:00:04Z</time>
      </trkpt>
      <trkpt lat="42.431910" lon="-8.053099">
        <ele>406.092</ele>
        <time>1970-01-11T02:00:04Z</time>
      </trkpt>
      <trkpt lat="42.431726" lon="-8.053276">
        <ele>406.673</ele>
        <time>1970-01-11T02:00:04Z</time>
      </trkpt>
      <trkpt lat="42.431576" lon="-8.053427">
        <ele>407.020</ele>
        <time>1970-01-11T02:00:04Z</time>
      </trkpt>
      <trkpt lat="42.431395" lon="-8.053616">
        <ele>408.208</ele>
        <time>1970-01-11T02:00:04Z</time>
      </trkpt>
      <trkpt lat="42.431151" lon="-8.053872">
        <ele>408.250</ele>
        <time>1970-01-11T02:00:04Z</time>
      </trkpt>
      <trkpt lat="42.431101" lon="-8.053897">
        <ele>408.067</ele>
        <time>1970-01-11T02:00:04Z</time>
      </trkpt>
      <trkpt lat="42.430927" lon="-8.053932">
        <ele>406.853</ele>
        <time>1970-01-11T02:00:04Z</time>
      </trkpt>
      <trkpt lat="42.430876" lon="-8.053962">
        <ele>406.471</ele>
        <time>1970-01-11T02:00:04Z</time>
      </trkpt>
      <trkpt lat="42.430846" lon="-8.054078">
        <ele>405.820</ele>
        <time>1970-01-11T02:00:04Z</time>
      </trkpt>
      <trkpt lat="42.430923" lon="-8.054153">
        <ele>404.885</ele>
        <time>1970-01-11T02:00:04Z</time>
      </trkpt>
      <trkpt lat="42.430973" lon="-8.054181">
        <ele>404.673</ele>
        <time>1970-01-11T02:00:04Z</time>
      </trkpt>
      <trkpt lat="42.431145" lon="-8.054265">
        <ele>404.062</ele>
        <time>1970-01-11T02:00:04Z</time>
      </trkpt>
      <trkpt lat="42.431205" lon="-8.054301">
        <ele>403.865</ele>
        <time>1970-01-11T02:00:04Z</time>
      </trkpt>
      <trkpt lat="42.431334" lon="-8.054378">
        <ele>403.468</ele>
        <time>1970-01-11T02:00:04Z</time>
      </trkpt>
      <trkpt lat="42.431553" lon="-8.054518">
        <ele>402.214</ele>
        <time>1970-01-11T02:00:04Z</time>
      </trkpt>
      <trkpt lat="42.431791" lon="-8.054682">
        <ele>400.808</ele>
        <time>1970-01-11T02:00:04Z</time>
      </trkpt>
      <trkpt lat="42.431960" lon="-8.054788">
        <ele>399.427</ele>
        <time>1970-01-11T02:00:04Z</time>
      </trkpt>
      <trkpt lat="42.432123" lon="-8.054889">
        <ele>398.294</ele>
        <time>1970-01-11T02:00:04Z</time>
      </trkpt>
      <trkpt lat="42.432192" lon="-8.054941">
        <ele>397.820</ele>
        <time>1970-01-11T02:00:04Z</time>
      </trkpt>
      <trkpt lat="42.432241" lon="-8.054974">
        <ele>397.498</ele>
        <time>1970-01-11T02:00:04Z</time>
      </trkpt>
      <trkpt lat="42.432275" lon="-8.055003">
        <ele>397.277</ele>
        <time>1970-01-11T02:00:04Z</time>
      </trkpt>
      <trkpt lat="42.432288" lon="-8.055047">
        <ele>396.652</ele>
        <time>1970-01-11T02:00:04Z</time>
      </trkpt>
      <trkpt lat="42.432264" lon="-8.055125">
        <ele>395.890</ele>
        <time>1970-01-11T02:00:04Z</time>
      </trkpt>
      <trkpt lat="42.432223" lon="-8.055220">
        <ele>395.649</ele>
        <time>1970-01-11T02:00:04Z</time>
      </trkpt>
      <trkpt lat="42.432169" lon="-8.055339">
        <ele>395.486</ele>
        <time>1970-01-11T02:00:04Z</time>
      </trkpt>
      <trkpt lat="42.432081" lon="-8.055532">
        <ele>394.860</ele>
        <time>1970-01-11T02:00:04Z</time>
      </trkpt>
      <trkpt lat="42.432051" lon="-8.055600">
        <ele>394.626</ele>
        <time>1970-01-11T02:00:04Z</time>
      </trkpt>
      <trkpt lat="42.431966" lon="-8.055813">
        <ele>394.408</ele>
        <time>1970-01-11T02:00:04Z</time>
      </trkpt>
      <trkpt lat="42.431941" lon="-8.055875">
        <ele>394.419</ele>
        <time>1970-01-11T02:00:04Z</time>
      </trkpt>
      <trkpt lat="42.431903" lon="-8.055959">
        <ele>394.496</ele>
        <time>1970-01-11T02:00:04Z</time>
      </trkpt>
      <trkpt lat="42.431880" lon="-8.056012">
        <ele>393.662</ele>
        <time>1970-01-11T02:00:04Z</time>
      </trkpt>
      <trkpt lat="42.431851" lon="-8.056064">
        <ele>393.050</ele>
        <time>1970-01-11T02:00:04Z</time>
      </trkpt>
      <trkpt lat="42.431838" lon="-8.056080">
        <ele>392.839</ele>
        <time>1970-01-11T02:00:04Z</time>
      </trkpt>
      <trkpt lat="42.431808" lon="-8.056078">
        <ele>392.464</ele>
        <time>1970-01-11T02:00:04Z</time>
      </trkpt>
      <trkpt lat="42.431805" lon="-8.056049">
        <ele>392.242</ele>
        <time>1970-01-11T02:00:04Z</time>
      </trkpt>
      <trkpt lat="42.431828" lon="-8.056003">
        <ele>391.881</ele>
        <time>1970-01-11T02:00:04Z</time>
      </trkpt>
      <trkpt lat="42.431834" lon="-8.055983">
        <ele>391.833</ele>
        <time>1970-01-11T02:00:04Z</time>
      </trkpt>
      <trkpt lat="42.431838" lon="-8.055964">
        <ele>391.823</ele>
        <time>1970-01-11T02:00:04Z</time>
      </trkpt>
      <trkpt lat="42.431840" lon="-8.055947">
        <ele>391.815</ele>
        <time>1970-01-11T02:00:04Z</time>
      </trkpt>
      <trkpt lat="42.431887" lon="-8.055867">
        <ele>392.208</ele>
        <time>1970-01-11T02:00:04Z</time>
      </trkpt>
      <trkpt lat="42.431903" lon="-8.055869">
        <ele>392.234</ele>
        <time>1970-01-11T02:00:04Z</time>
      </trkpt>
      <trkpt lat="42.431914" lon="-8.055881">
        <ele>392.451</ele>
        <time>1970-01-11T02:00:04Z</time>
      </trkpt>
      <trkpt lat="42.431918" lon="-8.055915">
        <ele>392.467</ele>
        <time>1970-01-11T02:00:04Z</time>
      </trkpt>
      <trkpt lat="42.431919" lon="-8.055919">
        <ele>392.025</ele>
        <time>1970-01-11T02:00:04Z</time>
      </trkpt>
      <trkpt lat="42.431919" lon="-8.055919">
        <ele>391.814</ele>
        <time>1970-01-11T02:00:04Z</time>
      </trkpt>
      <trkpt lat="42.431919" lon="-8.055919">
        <ele>391.819</ele>
        <time>1970-01-11T02:00:04Z</time>
      </trkpt>
      <trkpt lat="42.431919" lon="-8.055919">
        <ele>391.847</ele>
        <time>1970-01-11T02:00:04Z</time>
      </trkpt>
      <trkpt lat="42.431919" lon="-8.055919">
        <ele>392.046</ele>
        <time>1970-01-11T02:00:04Z</time>
      </trkpt>
      <trkpt lat="42.431919" lon="-8.055919">
        <ele>392.013</ele>
        <time>1970-01-11T02:00:04Z</time>
      </trkpt>
      <trkpt lat="42.431919" lon="-8.055919">
        <ele>392.243</ele>
        <time>1970-01-11T02:00:04Z</time>
      </trkpt>
      <trkpt lat="42.431919" lon="-8.055919">
        <ele>392.207</ele>
        <time>1970-01-11T02:00:04Z</time>
      </trkpt>
      <trkpt lat="42.431919" lon="-8.055919">
        <ele>392.208</ele>
        <time>1970-01-11T02:00:04Z</time>
      </trkpt>
      <trkpt lat="42.431919" lon="-8.055919">
        <ele>392.232</ele>
        <time>1970-01-11T02:00:04Z</time>
      </trkpt>
      <trkpt lat="42.431919" lon="-8.055919">
        <ele>392.219</ele>
        <time>1970-01-11T02:00:04Z</time>
      </trkpt>
      <trkpt lat="42.431919" lon="-8.055919">
        <ele>392.275</ele>
        <time>1970-01-11T02:00:04Z</time>
      </trkpt>
      <trkpt lat="42.431919" lon="-8.055919">
        <ele>392.243</ele>
        <time>1970-01-11T02:00:04Z</time>
      </trkpt>
      <trkpt lat="42.431919" lon="-8.055919">
        <ele>392.212</ele>
        <time>1970-01-11T02:00:04Z</time>
      </trkpt>
      <trkpt lat="42.431919" lon="-8.055919">
        <ele>392.047</ele>
        <time>1970-01-11T02:00:04Z</time>
      </trkpt>
      <trkpt lat="42.431918" lon="-8.055920">
        <ele>392.065</ele>
        <time>1970-01-11T02:00:04Z</time>
      </trkpt>
      <trkpt lat="42.431918" lon="-8.055920">
        <ele>392.024</ele>
        <time>1970-01-11T02:00:04Z</time>
      </trkpt>
      <trkpt lat="42.431918" lon="-8.055920">
        <ele>392.034</ele>
        <time>1970-01-11T02:00:04Z</time>
      </trkpt>
      <trkpt lat="42.431918" lon="-8.055920">
        <ele>392.055</ele>
        <time>1970-01-11T02:00:04Z</time>
      </trkpt>
      <trkpt lat="42.431918" lon="-8.055920">
        <ele>391.810</ele>
        <time>1970-01-11T02:00:04Z</time>
      </trkpt>
      <trkpt lat="42.431918" lon="-8.055920">
        <ele>392.208</ele>
        <time>1970-01-11T02:00:04Z</time>
      </trkpt>
      <trkpt lat="42.431918" lon="-8.055920">
        <ele>392.244</ele>
        <time>1970-01-11T02:00:04Z</time>
      </trkpt>
      <trkpt lat="42.431918" lon="-8.055920">
        <ele>392.411</ele>
        <time>1970-01-11T02:00:04Z</time>
      </trkpt>
      <trkpt lat="42.431918" lon="-8.055920">
        <ele>392.217</ele>
        <time>1970-01-11T02:00:04Z</time>
      </trkpt>
      <trkpt lat="42.431918" lon="-8.055920">
        <ele>392.095</ele>
        <time>1970-01-11T02:00:04Z</time>
      </trkpt>
      <trkpt lat="42.431917" lon="-8.055920">
        <ele>392.094</ele>
        <time>1970-01-11T02:00:04Z</time>
      </trkpt>
      <trkpt lat="42.431917" lon="-8.055920">
        <ele>392.059</ele>
        <time>1970-01-11T02:00:04Z</time>
      </trkpt>
      <trkpt lat="42.431917" lon="-8.055920">
        <ele>392.227</ele>
        <time>1970-01-11T02:00:04Z</time>
      </trkpt>
      <trkpt lat="42.431917" lon="-8.055920">
        <ele>392.276</ele>
        <time>1970-01-11T02:00:04Z</time>
      </trkpt>
      <trkpt lat="42.431917" lon="-8.055920">
        <ele>392.262</ele>
        <time>1970-01-11T02:00:04Z</time>
      </trkpt>
      <trkpt lat="42.431917" lon="-8.055920">
        <ele>392.083</ele>
        <time>1970-01-11T02:00:04Z</time>
      </trkpt>
      <trkpt lat="42.431917" lon="-8.055920">
        <ele>392.011</ele>
        <time>1970-01-11T02:00:04Z</time>
      </trkpt>
      <trkpt lat="42.431917" lon="-8.055920">
        <ele>392.008</ele>
        <time>1970-01-11T02:00:04Z</time>
      </trkpt>
      <trkpt lat="42.431917" lon="-8.055920">
        <ele>391.817</ele>
        <time>1970-01-11T02:00:04Z</time>
      </trkpt>
      <trkpt lat="42.431917" lon="-8.055920">
        <ele>391.874</ele>
        <time>1970-01-11T02:00:04Z</time>
      </trkpt>
      <trkpt lat="42.431917" lon="-8.055920">
        <ele>391.860</ele>
        <time>1970-01-11T02:00:04Z</time>
      </trkpt>
      <trkpt lat="42.431917" lon="-8.055920">
        <ele>391.648</ele>
        <time>1970-01-11T02:00:04Z</time>
      </trkpt>
      <trkpt lat="42.431917" lon="-8.055920">
        <ele>391.897</ele>
        <time>1970-01-11T02:00:04Z</time>
      </trkpt>
      <trkpt lat="42.431917" lon="-8.055920">
        <ele>391.882</ele>
        <time>1970-01-11T02:00:04Z</time>
      </trkpt>
      <trkpt lat="42.431917" lon="-8.055920">
        <ele>392.070</ele>
        <time>1970-01-11T02:00:04Z</time>
      </trkpt>
      <trkpt lat="42.431917" lon="-8.055920">
        <ele>392.069</ele>
        <time>1970-01-11T02:00:04Z</time>
      </trkpt>
      <trkpt lat="42.431917" lon="-8.055920">
        <ele>392.075</ele>
        <time>1970-01-11T02:00:04Z</time>
      </trkpt>
      <trkpt lat="42.431917" lon="-8.055920">
        <ele>392.028</ele>
        <time>1970-01-11T02:00:04Z</time>
      </trkpt>
      <trkpt lat="42.431920" lon="-8.055922">
        <ele>392.020</ele>
        <time>1970-01-11T02:00:04Z</time>
      </trkpt>
      <trkpt lat="42.431920" lon="-8.055922">
        <ele>392.208</ele>
        <time>1970-01-11T02:00:04Z</time>
      </trkpt>
      <trkpt lat="42.431920" lon="-8.055922">
        <ele>392.218</ele>
        <time>1970-01-11T02:00:04Z</time>
      </trkpt>
      <trkpt lat="42.431920" lon="-8.055922">
        <ele>392.235</ele>
        <time>1970-01-11T02:00:04Z</time>
      </trkpt>
      <trkpt lat="42.431920" lon="-8.055922">
        <ele>392.241</ele>
        <time>1970-01-11T02:00:04Z</time>
      </trkpt>
      <trkpt lat="42.431920" lon="-8.055922">
        <ele>392.259</ele>
        <time>1970-01-11T02:00:04Z</time>
      </trkpt>
      <trkpt lat="42.431920" lon="-8.055922">
        <ele>392.218</ele>
        <time>1970-01-11T02:00:04Z</time>
      </trkpt>
      <trkpt lat="42.431920" lon="-8.055922">
        <ele>392.263</ele>
        <time>1970-01-11T02:00:04Z</time>
      </trkpt>
      <trkpt lat="42.431920" lon="-8.055922">
        <ele>392.221</ele>
        <time>1970-01-11T02:00:04Z</time>
      </trkpt>
      <trkpt lat="42.431920" lon="-8.055922">
        <ele>392.250</ele>
        <time>1970-01-11T02:00:04Z</time>
      </trkpt>
      <trkpt lat="42.431920" lon="-8.055922">
        <ele>392.293</ele>
        <time>1970-01-11T02:00:04Z</time>
      </trkpt>
      <trkpt lat="42.431920" lon="-8.055922">
        <ele>392.465</ele>
        <time>1970-01-11T02:00:04Z</time>
      </trkpt>
      <trkpt lat="42.431920" lon="-8.055922">
        <ele>392.421</ele>
        <time>1970-01-11T02:00:04Z</time>
      </trkpt>
      <trkpt lat="42.431920" lon="-8.055922">
        <ele>392.608</ele>
        <time>1970-01-11T02:00:04Z</time>
      </trkpt>
      <trkpt lat="42.431920" lon="-8.055922">
        <ele>392.650</ele>
        <time>1970-01-11T02:00:04Z</time>
      </trkpt>
      <trkpt lat="42.431920" lon="-8.055922">
        <ele>392.647</ele>
        <time>1970-01-11T02:00:04Z</time>
      </trkpt>
      <trkpt lat="42.431920" lon="-8.055922">
        <ele>392.663</ele>
        <time>1970-01-11T02:00:04Z</time>
      </trkpt>
      <trkpt lat="42.431920" lon="-8.055922">
        <ele>392.441</ele>
        <time>1970-01-11T02:00:04Z</time>
      </trkpt>
      <trkpt lat="42.431920" lon="-8.055922">
        <ele>392.270</ele>
        <time>1970-01-11T02:00:04Z</time>
      </trkpt>
      <trkpt lat="42.431918" lon="-8.055925">
        <ele>392.215</ele>
        <time>1970-01-11T02:00:04Z</time>
      </trkpt>
      <trkpt lat="42.431915" lon="-8.055935">
        <ele>392.043</ele>
        <time>1970-01-11T02:00:04Z</time>
      </trkpt>
      <trkpt lat="42.431903" lon="-8.055959">
        <ele>392.062</ele>
        <time>1970-01-11T02:00:04Z</time>
      </trkpt>
      <trkpt lat="42.431852" lon="-8.056099">
        <ele>392.249</ele>
        <time>1970-01-11T02:00:04Z</time>
      </trkpt>
      <trkpt lat="42.431835" lon="-8.056137">
        <ele>392.202</ele>
        <time>1970-01-11T02:00:04Z</time>
      </trkpt>
      <trkpt lat="42.431749" lon="-8.056315">
        <ele>392.022</ele>
        <time>1970-01-11T02:00:04Z</time>
      </trkpt>
      <trkpt lat="42.431725" lon="-8.056353">
        <ele>392.008</ele>
        <time>1970-01-11T02:00:04Z</time>
      </trkpt>
      <trkpt lat="42.431670" lon="-8.056491">
        <ele>391.895</ele>
        <time>1970-01-11T02:00:04Z</time>
      </trkpt>
      <trkpt lat="42.431631" lon="-8.056599">
        <ele>391.672</ele>
        <time>1970-01-11T02:00:04Z</time>
      </trkpt>
      <trkpt lat="42.431585" lon="-8.056718">
        <ele>391.848</ele>
        <time>1970-01-11T02:00:04Z</time>
      </trkpt>
      <trkpt lat="42.431559" lon="-8.056778">
        <ele>391.836</ele>
        <time>1970-01-11T02:00:04Z</time>
      </trkpt>
      <trkpt lat="42.431507" lon="-8.056901">
        <ele>391.885</ele>
        <time>1970-01-11T02:00:04Z</time>
      </trkpt>
      <trkpt lat="42.431461" lon="-8.057030">
        <ele>391.840</ele>
        <time>1970-01-11T02:00:04Z</time>
      </trkpt>
      <trkpt lat="42.431357" lon="-8.057285">
        <ele>391.238</ele>
        <time>1970-01-11T02:00:04Z</time>
      </trkpt>
      <trkpt lat="42.431271" lon="-8.057479">
        <ele>390.667</ele>
        <time>1970-01-11T02:00:04Z</time>
      </trkpt>
      <trkpt lat="42.431220" lon="-8.057611">
        <ele>390.275</ele>
        <time>1970-01-11T02:00:04Z</time>
      </trkpt>
      <trkpt lat="42.431057" lon="-8.058002">
        <ele>390.228</ele>
        <time>1970-01-11T02:00:04Z</time>
      </trkpt>
      <trkpt lat="42.430975" lon="-8.058195">
        <ele>389.820</ele>
        <time>1970-01-11T02:00:04Z</time>
      </trkpt>
      <trkpt lat="42.430889" lon="-8.058384">
        <ele>389.808</ele>
        <time>1970-01-11T02:00:04Z</time>
      </trkpt>
      <trkpt lat="42.430800" lon="-8.058571">
        <ele>390.278</ele>
        <time>1970-01-11T02:00:04Z</time>
      </trkpt>
      <trkpt lat="42.430772" lon="-8.058636">
        <ele>390.295</ele>
        <time>1970-01-11T02:00:04Z</time>
      </trkpt>
      <trkpt lat="42.430669" lon="-8.058900">
        <ele>390.451</ele>
        <time>1970-01-11T02:00:04Z</time>
      </trkpt>
      <trkpt lat="42.430527" lon="-8.059220">
        <ele>390.429</ele>
        <time>1970-01-11T02:00:04Z</time>
      </trkpt>
      <trkpt lat="42.430501" lon="-8.059284">
        <ele>390.468</ele>
        <time>1970-01-11T02:00:04Z</time>
      </trkpt>
      <trkpt lat="42.430272" lon="-8.059798">
        <ele>390.493</ele>
        <time>1970-01-11T02:00:04Z</time>
      </trkpt>
      <trkpt lat="42.430060" lon="-8.060317">
        <ele>390.461</ele>
        <time>1970-01-11T02:00:04Z</time>
      </trkpt>
      <trkpt lat="42.429834" lon="-8.060862">
        <ele>390.090</ele>
        <time>1970-01-11T02:00:04Z</time>
      </trkpt>
      <trkpt lat="42.429578" lon="-8.061464">
        <ele>389.431</ele>
        <time>1970-01-11T02:00:04Z</time>
      </trkpt>
      <trkpt lat="42.429352" lon="-8.061980">
        <ele>389.061</ele>
        <time>1970-01-11T02:00:04Z</time>
      </trkpt>
      <trkpt lat="42.429323" lon="-8.062045">
        <ele>388.807</ele>
        <time>1970-01-11T02:00:04Z</time>
      </trkpt>
      <trkpt lat="42.429189" lon="-8.062362">
        <ele>387.808</ele>
        <time>1970-01-11T02:00:04Z</time>
      </trkpt>
      <trkpt lat="42.429126" lon="-8.062486">
        <ele>387.254</ele>
        <time>1970-01-11T02:00:04Z</time>
      </trkpt>
      <trkpt lat="42.429104" lon="-8.062556">
        <ele>387.211</ele>
        <time>1970-01-11T02:00:04Z</time>
      </trkpt>
      <trkpt lat="42.429093" lon="-8.062697">
        <ele>387.097</ele>
        <time>1970-01-11T02:00:04Z</time>
      </trkpt>
      <trkpt lat="42.429158" lon="-8.062863">
        <ele>387.015</ele>
        <time>1970-01-11T02:00:04Z</time>
      </trkpt>
      <trkpt lat="42.429185" lon="-8.062913">
        <ele>387.044</ele>
        <time>1970-01-11T02:00:04Z</time>
      </trkpt>
      <trkpt lat="42.429312" lon="-8.063143">
        <ele>387.829</ele>
        <time>1970-01-11T02:00:04Z</time>
      </trkpt>
      <trkpt lat="42.429333" lon="-8.063194">
        <ele>388.027</ele>
        <time>1970-01-11T02:00:04Z</time>
      </trkpt>
      <trkpt lat="42.429367" lon="-8.063300">
        <ele>388.236</ele>
        <time>1970-01-11T02:00:04Z</time>
      </trkpt>
      <trkpt lat="42.429407" lon="-8.063407">
        <ele>388.442</ele>
        <time>1970-01-11T02:00:04Z</time>
      </trkpt>
      <trkpt lat="42.429429" lon="-8.063462">
        <ele>388.422</ele>
        <time>1970-01-11T02:00:04Z</time>
      </trkpt>
      <trkpt lat="42.429480" lon="-8.063567">
        <ele>388.614</ele>
        <time>1970-01-11T02:00:04Z</time>
      </trkpt>
      <trkpt lat="42.429506" lon="-8.063617">
        <ele>388.808</ele>
        <time>1970-01-11T02:00:04Z</time>
      </trkpt>
      <trkpt lat="42.429588" lon="-8.063766">
        <ele>389.665</ele>
        <time>1970-01-11T02:00:04Z</time>
      </trkpt>
      <trkpt lat="42.429643" lon="-8.063871">
        <ele>389.892</ele>
        <time>1970-01-11T02:00:04Z</time>
      </trkpt>
      <trkpt lat="42.429668" lon="-8.063924">
        <ele>390.068</ele>
        <time>1970-01-11T02:00:04Z</time>
      </trkpt>
      <trkpt lat="42.429813" lon="-8.064178">
        <ele>391.236</ele>
        <time>1970-01-11T02:00:04Z</time>
      </trkpt>
      <trkpt lat="42.429870" lon="-8.064278">
        <ele>391.425</ele>
        <time>1970-01-11T02:00:04Z</time>
      </trkpt>
      <trkpt lat="42.430069" lon="-8.064584">
        <ele>391.810</ele>
        <time>1970-01-11T02:00:04Z</time>
      </trkpt>
      <trkpt lat="42.430244" lon="-8.064807">
        <ele>392.288</ele>
        <time>1970-01-11T02:00:04Z</time>
      </trkpt>
      <trkpt lat="42.430301" lon="-8.064896">
        <ele>392.287</ele>
        <time>1970-01-11T02:00:04Z</time>
      </trkpt>
      <trkpt lat="42.430464" lon="-8.065098">
        <ele>392.224</ele>
        <time>1970-01-11T02:00:04Z</time>
      </trkpt>
      <trkpt lat="42.430532" lon="-8.065170">
        <ele>392.404</ele>
        <time>1970-01-11T02:00:04Z</time>
      </trkpt>
      <trkpt lat="42.430628" lon="-8.065263">
        <ele>393.414</ele>
        <time>1970-01-11T02:00:04Z</time>
      </trkpt>
      <trkpt lat="42.430716" lon="-8.065362">
        <ele>394.608</ele>
        <time>1970-01-11T02:00:04Z</time>
      </trkpt>
      <trkpt lat="42.430798" lon="-8.065450">
        <ele>395.813</ele>
        <time>1970-01-11T02:00:04Z</time>
      </trkpt>
      <trkpt lat="42.430882" lon="-8.065520">
        <ele>396.890</ele>
        <time>1970-01-11T02:00:04Z</time>
      </trkpt>
      <trkpt lat="42.430908" lon="-8.065541">
        <ele>397.246</ele>
        <time>1970-01-11T02:00:04Z</time>
      </trkpt>
      <trkpt lat="42.430987" lon="-8.065618">
        <ele>398.264</ele>
        <time>1970-01-11T02:00:04Z</time>
      </trkpt>
      <trkpt lat="42.431129" lon="-8.065766">
        <ele>399.843</ele>
        <time>1970-01-11T02:00:04Z</time>
      </trkpt>
      <trkpt lat="42.431283" lon="-8.065979">
        <ele>400.848</ele>
        <time>1970-01-11T02:00:04Z</time>
      </trkpt>
      <trkpt lat="42.431336" lon="-8.066047">
        <ele>401.066</ele>
        <time>1970-01-11T02:00:04Z</time>
      </trkpt>
      <trkpt lat="42.431420" lon="-8.066160">
        <ele>401.815</ele>
        <time>1970-01-11T02:00:04Z</time>
      </trkpt>
      <trkpt lat="42.431530" lon="-8.066309">
        <ele>402.293</ele>
        <time>1970-01-11T02:00:04Z</time>
      </trkpt>
      <trkpt lat="42.431795" lon="-8.066663">
        <ele>402.865</ele>
        <time>1970-01-11T02:00:04Z</time>
      </trkpt>
      <trkpt lat="42.431824" lon="-8.066708">
        <ele>402.821</ele>
        <time>1970-01-11T02:00:04Z</time>
      </trkpt>
      <trkpt lat="42.432089" lon="-8.067129">
        <ele>403.008</ele>
        <time>1970-01-11T02:00:04Z</time>
      </trkpt>
      <trkpt lat="42.432297" lon="-8.067484">
        <ele>402.670</ele>
        <time>1970-01-11T02:00:04Z</time>
      </trkpt>
      <trkpt lat="42.432308" lon="-8.067553">
        <ele>402.447</ele>
        <time>1970-01-11T02:00:04Z</time>
      </trkpt>
      <trkpt lat="42.432351" lon="-8.067847">
        <ele>402.273</ele>
        <time>1970-01-11T02:00:04Z</time>
      </trkpt>
      <trkpt lat="42.432372" lon="-8.068012">
        <ele>401.671</ele>
        <time>1970-01-11T02:00:04Z</time>
      </trkpt>
      <trkpt lat="42.432384" lon="-8.068097">
        <ele>401.420</ele>
        <time>1970-01-11T02:00:04Z</time>
      </trkpt>
      <trkpt lat="42.432406" lon="-8.068277">
        <ele>400.865</ele>
        <time>1970-01-11T02:00:04Z</time>
      </trkpt>
      <trkpt lat="42.432410" lon="-8.068372">
        <ele>400.423</ele>
        <time>1970-01-11T02:00:04Z</time>
      </trkpt>
      <trkpt lat="42.432406" lon="-8.068473">
        <ele>400.252</ele>
        <time>1970-01-11T02:00:04Z</time>
      </trkpt>
      <trkpt lat="42.432396" lon="-8.068574">
        <ele>399.877</ele>
        <time>1970-01-11T02:00:04Z</time>
      </trkpt>
      <trkpt lat="42.432389" lon="-8.068678">
        <ele>399.461</ele>
        <time>1970-01-11T02:00:04Z</time>
      </trkpt>
      <trkpt lat="42.432384" lon="-8.068900">
        <ele>399.027</ele>
        <time>1970-01-11T02:00:04Z</time>
      </trkpt>
      <trkpt lat="42.432393" lon="-8.069144">
        <ele>398.408</ele>
        <time>1970-01-11T02:00:04Z</time>
      </trkpt>
      <trkpt lat="42.432417" lon="-8.069407">
        <ele>397.038</ele>
        <time>1970-01-11T02:00:04Z</time>
      </trkpt>
      <trkpt lat="42.432450" lon="-8.069679">
        <ele>395.655</ele>
        <time>1970-01-11T02:00:04Z</time>
      </trkpt>
      <trkpt lat="42.432479" lon="-8.069812">
        <ele>394.671</ele>
        <time>1970-01-11T02:00:04Z</time>
      </trkpt>
      <trkpt lat="42.432513" lon="-8.069940">
        <ele>393.629</ele>
        <time>1970-01-11T02:00:04Z</time>
      </trkpt>
      <trkpt lat="42.432554" lon="-8.070065">
        <ele>392.638</ele>
        <time>1970-01-11T02:00:04Z</time>
      </trkpt>
      <trkpt lat="42.432595" lon="-8.070188">
        <ele>391.823</ele>
        <time>1970-01-11T02:00:04Z</time>
      </trkpt>
      <trkpt lat="42.432684" lon="-8.070433">
        <ele>390.481</ele>
        <time>1970-01-11T02:00:04Z</time>
      </trkpt>
      <trkpt lat="42.432772" lon="-8.070624">
        <ele>389.060</ele>
        <time>1970-01-11T02:00:04Z</time>
      </trkpt>
      <trkpt lat="42.432805" lon="-8.070683">
        <ele>387.811</ele>
        <time>1970-01-11T02:00:04Z</time>
      </trkpt>
      <trkpt lat="42.432849" lon="-8.070758">
        <ele>386.821</ele>
        <time>1970-01-11T02:00:04Z</time>
      </trkpt>
      <trkpt lat="42.432863" lon="-8.070790">
        <ele>386.203</ele>
        <time>1970-01-11T02:00:04Z</time>
      </trkpt>
      <trkpt lat="42.432838" lon="-8.070803">
        <ele>385.608</ele>
        <time>1970-01-11T02:00:04Z</time>
      </trkpt>
      <trkpt lat="42.432822" lon="-8.070733">
        <ele>385.682</ele>
        <time>1970-01-11T02:00:04Z</time>
      </trkpt>
      <trkpt lat="42.432813" lon="-8.070689">
        <ele>385.649</ele>
        <time>1970-01-11T02:00:04Z</time>
      </trkpt>
      <trkpt lat="42.432801" lon="-8.070646">
        <ele>385.425</ele>
        <time>1970-01-11T02:00:04Z</time>
      </trkpt>
      <trkpt lat="42.432761" lon="-8.070560">
        <ele>385.483</ele>
        <time>1970-01-11T02:00:04Z</time>
      </trkpt>
      <trkpt lat="42.432693" lon="-8.070541">
        <ele>385.432</ele>
        <time>1970-01-11T02:00:04Z</time>
      </trkpt>
      <trkpt lat="42.432341" lon="-8.070700">
        <ele>384.677</ele>
        <time>1970-01-11T02:00:04Z</time>
      </trkpt>
      <trkpt lat="42.432284" lon="-8.070736">
        <ele>384.645</ele>
        <time>1970-01-11T02:00:04Z</time>
      </trkpt>
      <trkpt lat="42.432225" lon="-8.070771">
        <ele>384.624</ele>
        <time>1970-01-11T02:00:04Z</time>
      </trkpt>
      <trkpt lat="42.432178" lon="-8.070804">
        <ele>384.876</ele>
        <time>1970-01-11T02:00:04Z</time>
      </trkpt>
      <trkpt lat="42.432135" lon="-8.070837">
        <ele>385.290</ele>
        <time>1970-01-11T02:00:04Z</time>
      </trkpt>
      <trkpt lat="42.432110" lon="-8.070880">
        <ele>385.819</ele>
        <time>1970-01-11T02:00:04Z</time>
      </trkpt>
      <trkpt lat="42.432061" lon="-8.070961">
        <ele>387.008</ele>
        <time>1970-01-11T02:00:04Z</time>
      </trkpt>
      <trkpt lat="42.432031" lon="-8.071051">
        <ele>388.258</ele>
        <time>1970-01-11T02:00:04Z</time>
      </trkpt>
      <trkpt lat="42.432001" lon="-8.071116">
        <ele>389.225</ele>
        <time>1970-01-11T02:00:04Z</time>
      </trkpt>
      <trkpt lat="42.431998" lon="-8.071146">
        <ele>389.471</ele>
        <time>1970-01-11T02:00:04Z</time>
      </trkpt>
      <trkpt lat="42.432031" lon="-8.071241">
        <ele>390.049</ele>
        <time>1970-01-11T02:00:04Z</time>
      </trkpt>
      <trkpt lat="42.432081" lon="-8.071333">
        <ele>390.458</ele>
        <time>1970-01-11T02:00:04Z</time>
      </trkpt>
      <trkpt lat="42.432151" lon="-8.071466">
        <ele>390.043</ele>
        <time>1970-01-11T02:00:04Z</time>
      </trkpt>
      <trkpt lat="42.432167" lon="-8.071501">
        <ele>390.091</ele>
        <time>1970-01-11T02:00:04Z</time>
      </trkpt>
      <trkpt lat="42.432267" lon="-8.071787">
        <ele>390.090</ele>
        <time>1970-01-11T02:00:04Z</time>
      </trkpt>
      <trkpt lat="42.432351" lon="-8.071999">
        <ele>389.893</ele>
        <time>1970-01-11T02:00:04Z</time>
      </trkpt>
      <trkpt lat="42.432388" lon="-8.072093">
        <ele>389.865</ele>
        <time>1970-01-11T02:00:04Z</time>
      </trkpt>
      <trkpt lat="42.432403" lon="-8.072139">
        <ele>389.821</ele>
        <time>1970-01-11T02:00:04Z</time>
      </trkpt>
      <trkpt lat="42.432420" lon="-8.072187">
        <ele>389.808</ele>
        <time>1970-01-11T02:00:04Z</time>
      </trkpt>
      <trkpt lat="42.432476" lon="-8.072324">
        <ele>390.090</ele>
        <time>1970-01-11T02:00:04Z</time>
      </trkpt>
      <trkpt lat="42.432530" lon="-8.072465">
        <ele>390.497</ele>
        <time>1970-01-11T02:00:04Z</time>
      </trkpt>
      <trkpt lat="42.432549" lon="-8.072508">
        <ele>390.483</ele>
        <time>1970-01-11T02:00:04Z</time>
      </trkpt>
      <trkpt lat="42.432642" lon="-8.072719">
        <ele>391.091</ele>
        <time>1970-01-11T02:00:04Z</time>
      </trkpt>
      <trkpt lat="42.432663" lon="-8.072764">
        <ele>391.090</ele>
        <time>1970-01-11T02:00:04Z</time>
      </trkpt>
      <trkpt lat="42.432747" lon="-8.072878">
        <ele>391.465</ele>
        <time>1970-01-11T02:00:04Z</time>
      </trkpt>
      <trkpt lat="42.432771" lon="-8.072906">
        <ele>391.473</ele>
        <time>1970-01-11T02:00:04Z</time>
      </trkpt>
      <trkpt lat="42.432801" lon="-8.072910">
        <ele>391.682</ele>
        <time>1970-01-11T02:00:04Z</time>
      </trkpt>
      <trkpt lat="42.432858" lon="-8.073016">
        <ele>392.439</ele>
        <time>1970-01-11T02:00:04Z</time>
      </trkpt>
      <trkpt lat="42.432866" lon="-8.073053">
        <ele>392.601</ele>
        <time>1970-01-11T02:00:04Z</time>
      </trkpt>
      <trkpt lat="42.432895" lon="-8.073167">
        <ele>393.221</ele>
        <time>1970-01-11T02:00:04Z</time>
      </trkpt>
      <trkpt lat="42.432933" lon="-8.073235">
        <ele>393.408</ele>
        <time>1970-01-11T02:00:04Z</time>
      </trkpt>
      <trkpt lat="42.432946" lon="-8.073255">
        <ele>393.634</ele>
        <time>1970-01-11T02:00:04Z</time>
      </trkpt>
      <trkpt lat="42.432968" lon="-8.073298">
        <ele>393.651</ele>
        <time>1970-01-11T02:00:04Z</time>
      </trkpt>
      <trkpt lat="42.432982" lon="-8.073394">
        <ele>394.447</ele>
        <time>1970-01-11T02:00:04Z</time>
      </trkpt>
      <trkpt lat="42.432970" lon="-8.073411">
        <ele>394.645</ele>
        <time>1970-01-11T02:00:04Z</time>
      </trkpt>
      <trkpt lat="42.432962" lon="-8.073422">
        <ele>394.684</ele>
        <time>1970-01-11T02:00:04Z</time>
      </trkpt>
      <trkpt lat="42.432962" lon="-8.073422">
        <ele>394.469</ele>
        <time>1970-01-11T02:00:04Z</time>
      </trkpt>
      <trkpt lat="42.432962" lon="-8.073422">
        <ele>394.457</ele>
        <time>1970-01-11T02:00:04Z</time>
      </trkpt>
      <trkpt lat="42.432962" lon="-8.073422">
        <ele>394.666</ele>
        <time>1970-01-11T02:00:04Z</time>
      </trkpt>
      <trkpt lat="42.432962" lon="-8.073422">
        <ele>394.686</ele>
        <time>1970-01-11T02:00:04Z</time>
      </trkpt>
      <trkpt lat="42.432962" lon="-8.073422">
        <ele>394.460</ele>
        <time>1970-01-11T02:00:04Z</time>
      </trkpt>
      <trkpt lat="42.432962" lon="-8.073422">
        <ele>394.426</ele>
        <time>1970-01-11T02:00:04Z</time>
      </trkpt>
      <trkpt lat="42.432962" lon="-8.073422">
        <ele>394.408</ele>
        <time>1970-01-11T02:00:04Z</time>
      </trkpt>
      <trkpt lat="42.432950" lon="-8.073425">
        <ele>394.459</ele>
        <time>1970-01-11T02:00:04Z</time>
      </trkpt>
      <trkpt lat="42.432950" lon="-8.073425">
        <ele>394.436</ele>
        <time>1970-01-11T02:00:04Z</time>
      </trkpt>
      <trkpt lat="42.432950" lon="-8.073425">
        <ele>394.462</ele>
        <time>1970-01-11T02:00:04Z</time>
      </trkpt>
      <trkpt lat="42.432950" lon="-8.073425">
        <ele>394.480</ele>
        <time>1970-01-11T02:00:04Z</time>
      </trkpt>
      <trkpt lat="42.432950" lon="-8.073425">
        <ele>394.439</ele>
        <time>1970-01-11T02:00:04Z</time>
      </trkpt>
      <trkpt lat="42.432950" lon="-8.073425">
        <ele>394.464</ele>
        <time>1970-01-11T02:00:04Z</time>
      </trkpt>
      <trkpt lat="42.432950" lon="-8.073425">
        <ele>394.412</ele>
        <time>1970-01-11T02:00:04Z</time>
      </trkpt>
      <trkpt lat="42.432935" lon="-8.073404">
        <ele>394.411</ele>
        <time>1970-01-11T02:00:04Z</time>
      </trkpt>
      <trkpt lat="42.432914" lon="-8.073360">
        <ele>394.472</ele>
        <time>1970-01-11T02:00:04Z</time>
      </trkpt>
      <trkpt lat="42.432913" lon="-8.073334">
        <ele>394.413</ele>
        <time>1970-01-11T02:00:04Z</time>
      </trkpt>
      <trkpt lat="42.432858" lon="-8.073282">
        <ele>394.214</ele>
        <time>1970-01-11T02:00:04Z</time>
      </trkpt>
      <trkpt lat="42.432789" lon="-8.073315">
        <ele>393.608</ele>
        <time>1970-01-11T02:00:04Z</time>
      </trkpt>
      <trkpt lat="42.432739" lon="-8.073335">
        <ele>393.498</ele>
        <time>1970-01-11T02:00:04Z</time>
      </trkpt>
      <trkpt lat="42.432692" lon="-8.073359">
        <ele>393.485</ele>
        <time>1970-01-11T02:00:04Z</time>
      </trkpt>
      <trkpt lat="42.432635" lon="-8.073384">
        <ele>393.261</ele>
        <time>1970-01-11T02:00:04Z</time>
      </trkpt>
      <trkpt lat="42.432568" lon="-8.073430">
        <ele>393.029</ele>
        <time>1970-01-11T02:00:04Z</time>
      </trkpt>
      <trkpt lat="42.432504" lon="-8.073457">
        <ele>393.038</ele>
        <time>1970-01-11T02:00:04Z</time>
      </trkpt>
      <trkpt lat="42.432425" lon="-8.073494">
        <ele>392.633</ele>
        <time>1970-01-11T02:00:04Z</time>
      </trkpt>
      <trkpt lat="42.432394" lon="-8.073510">
        <ele>392.681</ele>
        <time>1970-01-11T02:00:04Z</time>
      </trkpt>
      <trkpt lat="42.432314" lon="-8.073565">
        <ele>392.680</ele>
        <time>1970-01-11T02:00:04Z</time>
      </trkpt>
      <trkpt lat="42.432276" lon="-8.073602">
        <ele>392.666</ele>
        <time>1970-01-11T02:00:04Z</time>
      </trkpt>
      <trkpt lat="42.432217" lon="-8.073644">
        <ele>392.629</ele>
        <time>1970-01-11T02:00:04Z</time>
      </trkpt>
      <trkpt lat="42.432185" lon="-8.073666">
        <ele>392.621</ele>
        <time>1970-01-11T02:00:04Z</time>
      </trkpt>
      <trkpt lat="42.432040" lon="-8.073801">
        <ele>393.008</ele>
        <time>1970-01-11T02:00:04Z</time>
      </trkpt>
      <trkpt lat="42.432001" lon="-8.073833">
        <ele>393.017</ele>
        <time>1970-01-11T02:00:04Z</time>
      </trkpt>
      <trkpt lat="42.431967" lon="-8.073879">
        <ele>393.044</ele>
        <time>1970-01-11T02:00:04Z</time>
      </trkpt>
      <trkpt lat="42.431891" lon="-8.073954">
        <ele>393.010</ele>
        <time>1970-01-11T02:00:04Z</time>
      </trkpt>
      <trkpt lat="42.431853" lon="-8.073990">
        <ele>392.848</ele>
        <time>1970-01-11T02:00:04Z</time>
      </trkpt>
      <trkpt lat="42.431720" lon="-8.074113">
        <ele>392.477</ele>
        <time>1970-01-11T02:00:04Z</time>
      </trkpt>
      <trkpt lat="42.431626" lon="-8.074219">
        <ele>392.482</ele>
        <time>1970-01-11T02:00:04Z</time>
      </trkpt>
      <trkpt lat="42.431372" lon="-8.074410">
        <ele>393.250</ele>
        <time>1970-01-11T02:00:04Z</time>
      </trkpt>
      <trkpt lat="42.431125" lon="-8.074544">
        <ele>393.079</ele>
        <time>1970-01-11T02:00:04Z</time>
      </trkpt>
      <trkpt lat="42.430998" lon="-8.074592">
        <ele>392.841</ele>
        <time>1970-01-11T02:00:04Z</time>
      </trkpt>
      <trkpt lat="42.430953" lon="-8.074620">
        <ele>392.881</ele>
        <time>1970-01-11T02:00:04Z</time>
      </trkpt>
      <trkpt lat="42.430846" lon="-8.074663">
        <ele>392.209</ele>
        <time>1970-01-11T02:00:04Z</time>
      </trkpt>
      <trkpt lat="42.430729" lon="-8.074718">
        <ele>391.608</ele>
        <time>1970-01-11T02:00:04Z</time>
      </trkpt>
      <trkpt lat="42.430667" lon="-8.074745">
        <ele>391.295</ele>
        <time>1970-01-11T02:00:04Z</time>
      </trkpt>
      <trkpt lat="42.430580" lon="-8.074831">
        <ele>390.692</ele>
        <time>1970-01-11T02:00:04Z</time>
      </trkpt>
      <trkpt lat="42.430563" lon="-8.074892">
        <ele>390.048</ele>
        <time>1970-01-11T02:00:04Z</time>
      </trkpt>
      <trkpt lat="42.430583" lon="-8.075053">
        <ele>388.876</ele>
        <time>1970-01-11T02:00:04Z</time>
      </trkpt>
      <trkpt lat="42.430593" lon="-8.075112">
        <ele>388.635</ele>
        <time>1970-01-11T02:00:04Z</time>
      </trkpt>
      <trkpt lat="42.430608" lon="-8.075171">
        <ele>388.650</ele>
        <time>1970-01-11T02:00:04Z</time>
      </trkpt>
      <trkpt lat="42.430623" lon="-8.075234">
        <ele>388.688</ele>
        <time>1970-01-11T02:00:04Z</time>
      </trkpt>
      <trkpt lat="42.430638" lon="-8.075292">
        <ele>388.867</ele>
        <time>1970-01-11T02:00:04Z</time>
      </trkpt>
      <trkpt lat="42.430672" lon="-8.075388">
        <ele>389.259</ele>
        <time>1970-01-11T02:00:04Z</time>
      </trkpt>
      <trkpt lat="42.430703" lon="-8.075469">
        <ele>389.803</ele>
        <time>1970-01-11T02:00:04Z</time>
      </trkpt>
      <trkpt lat="42.430747" lon="-8.075661">
        <ele>390.423</ele>
        <time>1970-01-11T02:00:04Z</time>
      </trkpt>
      <trkpt lat="42.430770" lon="-8.075768">
        <ele>390.808</ele>
        <time>1970-01-11T02:00:04Z</time>
      </trkpt>
      <trkpt lat="42.430794" lon="-8.075875">
        <ele>391.086</ele>
        <time>1970-01-11T02:00:04Z</time>
      </trkpt>
      <trkpt lat="42.430814" lon="-8.075987">
        <ele>391.213</ele>
        <time>1970-01-11T02:00:04Z</time>
      </trkpt>
      <trkpt lat="42.430819" lon="-8.076046">
        <ele>391.499</ele>
        <time>1970-01-11T02:00:04Z</time>
      </trkpt>
      <trkpt lat="42.430870" lon="-8.076269">
        <ele>392.097</ele>
        <time>1970-01-11T02:00:04Z</time>
      </trkpt>
      <trkpt lat="42.430929" lon="-8.076420">
        <ele>392.476</ele>
        <time>1970-01-11T02:00:04Z</time>
      </trkpt>
      <trkpt lat="42.431018" lon="-8.076655">
        <ele>393.011</ele>
        <time>1970-01-11T02:00:04Z</time>
      </trkpt>
      <trkpt lat="42.431056" lon="-8.076794">
        <ele>393.419</ele>
        <time>1970-01-11T02:00:04Z</time>
      </trkpt>
      <trkpt lat="42.431077" lon="-8.076874">
        <ele>394.288</ele>
        <time>1970-01-11T02:00:04Z</time>
      </trkpt>
      <trkpt lat="42.431107" lon="-8.076996">
        <ele>394.423</ele>
        <time>1970-01-11T02:00:04Z</time>
      </trkpt>
      <trkpt lat="42.431157" lon="-8.077126">
        <ele>395.083</ele>
        <time>1970-01-11T02:00:05Z</time>
      </trkpt>
      <trkpt lat="42.431186" lon="-8.077187">
        <ele>395.011</ele>
        <time>1970-01-11T02:00:05Z</time>
      </trkpt>
      <trkpt lat="42.431228" lon="-8.077316">
        <ele>395.008</ele>
        <time>1970-01-11T02:00:05Z</time>
      </trkpt>
      <trkpt lat="42.431242" lon="-8.077363">
        <ele>395.273</ele>
        <time>1970-01-11T02:00:05Z</time>
      </trkpt>
      <trkpt lat="42.431333" lon="-8.077528">
        <ele>395.860</ele>
        <time>1970-01-11T02:00:05Z</time>
      </trkpt>
      <trkpt lat="42.431369" lon="-8.077560">
        <ele>395.856</ele>
        <time>1970-01-11T02:00:05Z</time>
      </trkpt>
      <trkpt lat="42.431393" lon="-8.077608">
        <ele>395.874</ele>
        <time>1970-01-11T02:00:05Z</time>
      </trkpt>
      <trkpt lat="42.431414" lon="-8.077733">
        <ele>396.083</ele>
        <time>1970-01-11T02:00:05Z</time>
      </trkpt>
      <trkpt lat="42.431430" lon="-8.077796">
        <ele>396.078</ele>
        <time>1970-01-11T02:00:05Z</time>
      </trkpt>
      <trkpt lat="42.431460" lon="-8.077917">
        <ele>396.026</ele>
        <time>1970-01-11T02:00:05Z</time>
      </trkpt>
      <trkpt lat="42.431499" lon="-8.078034">
        <ele>396.215</ele>
        <time>1970-01-11T02:00:05Z</time>
      </trkpt>
      <trkpt lat="42.431534" lon="-8.078159">
        <ele>396.445</ele>
        <time>1970-01-11T02:00:05Z</time>
      </trkpt>
      <trkpt lat="42.431598" lon="-8.078393">
        <ele>397.247</ele>
        <time>1970-01-11T02:00:05Z</time>
      </trkpt>
      <trkpt lat="42.431643" lon="-8.078560">
        <ele>397.411</ele>
        <time>1970-01-11T02:00:05Z</time>
      </trkpt>
      <trkpt lat="42.431658" lon="-8.078741">
        <ele>397.008</ele>
        <time>1970-01-11T02:00:05Z</time>
      </trkpt>
      <trkpt lat="42.431580" lon="-8.078901">
        <ele>396.855</ele>
        <time>1970-01-11T02:00:05Z</time>
      </trkpt>
      <trkpt lat="42.431524" lon="-8.078945">
        <ele>396.652</ele>
        <time>1970-01-11T02:00:05Z</time>
      </trkpt>
      <trkpt lat="42.431396" lon="-8.079045">
        <ele>396.498</ele>
        <time>1970-01-11T02:00:05Z</time>
      </trkpt>
      <trkpt lat="42.431212" lon="-8.079104">
        <ele>396.476</ele>
        <time>1970-01-11T02:00:05Z</time>
      </trkpt>
      <trkpt lat="42.431059" lon="-8.079175">
        <ele>396.025</ele>
        <time>1970-01-11T02:00:05Z</time>
      </trkpt>
      <trkpt lat="42.430836" lon="-8.079289">
        <ele>395.270</ele>
        <time>1970-01-11T02:00:05Z</time>
      </trkpt>
      <trkpt lat="42.430691" lon="-8.079374">
        <ele>395.088</ele>
        <time>1970-01-11T02:00:05Z</time>
      </trkpt>
      <trkpt lat="42.430618" lon="-8.079418">
        <ele>394.667</ele>
        <time>1970-01-11T02:00:05Z</time>
      </trkpt>
      <trkpt lat="42.430470" lon="-8.079514">
        <ele>394.269</ele>
        <time>1970-01-11T02:00:05Z</time>
      </trkpt>
      <trkpt lat="42.430397" lon="-8.079570">
        <ele>393.604</ele>
        <time>1970-01-11T02:00:05Z</time>
      </trkpt>
      <trkpt lat="42.430243" lon="-8.079702">
        <ele>392.424</ele>
        <time>1970-01-11T02:00:05Z</time>
      </trkpt>
      <trkpt lat="42.430001" lon="-8.079890">
        <ele>391.008</ele>
        <time>1970-01-11T02:00:05Z</time>
      </trkpt>
      <trkpt lat="42.429920" lon="-8.079954">
        <ele>390.887</ele>
        <time>1970-01-11T02:00:05Z</time>
      </trkpt>
      <trkpt lat="42.429787" lon="-8.080045">
        <ele>390.234</ele>
        <time>1970-01-11T02:00:05Z</time>
      </trkpt>
      <trkpt lat="42.429735" lon="-8.080094">
        <ele>389.630</ele>
        <time>1970-01-11T02:00:05Z</time>
      </trkpt>
      <trkpt lat="42.429696" lon="-8.080156">
        <ele>388.678</ele>
        <time>1970-01-11T02:00:05Z</time>
      </trkpt>
      <trkpt lat="42.429656" lon="-8.080226">
        <ele>387.857</ele>
        <time>1970-01-11T02:00:05Z</time>
      </trkpt>
      <trkpt lat="42.429651" lon="-8.080334">
        <ele>387.092</ele>
        <time>1970-01-11T02:00:05Z</time>
      </trkpt>
      <trkpt lat="42.429653" lon="-8.080438">
        <ele>386.460</ele>
        <time>1970-01-11T02:00:05Z</time>
      </trkpt>
      <trkpt lat="42.429678" lon="-8.080651">
        <ele>385.449</ele>
        <time>1970-01-11T02:00:05Z</time>
      </trkpt>
      <trkpt lat="42.429701" lon="-8.080763">
        <ele>384.846</ele>
        <time>1970-01-11T02:00:05Z</time>
      </trkpt>
      <trkpt lat="42.429728" lon="-8.080876">
        <ele>384.288</ele>
        <time>1970-01-11T02:00:05Z</time>
      </trkpt>
      <trkpt lat="42.429799" lon="-8.081106">
        <ele>382.816</ele>
        <time>1970-01-11T02:00:05Z</time>
      </trkpt>
      <trkpt lat="42.429903" lon="-8.081334">
        <ele>381.608</ele>
        <time>1970-01-11T02:00:05Z</time>
      </trkpt>
      <trkpt lat="42.430039" lon="-8.081569">
        <ele>380.495</ele>
        <time>1970-01-11T02:00:05Z</time>
      </trkpt>
      <trkpt lat="42.430105" lon="-8.081683">
        <ele>379.812</ele>
        <time>1970-01-11T02:00:05Z</time>
      </trkpt>
      <trkpt lat="42.430171" lon="-8.081789">
        <ele>379.048</ele>
        <time>1970-01-11T02:00:05Z</time>
      </trkpt>
      <trkpt lat="42.430281" lon="-8.081993">
        <ele>377.056</ele>
        <time>1970-01-11T02:00:05Z</time>
      </trkpt>
      <trkpt lat="42.430378" lon="-8.082197">
        <ele>375.445</ele>
        <time>1970-01-11T02:00:05Z</time>
      </trkpt>
      <trkpt lat="42.430424" lon="-8.082306">
        <ele>374.610</ele>
        <time>1970-01-11T02:00:05Z</time>
      </trkpt>
      <trkpt lat="42.430469" lon="-8.082419">
        <ele>374.048</ele>
        <time>1970-01-11T02:00:05Z</time>
      </trkpt>
      <trkpt lat="42.430582" lon="-8.082652">
        <ele>372.687</ele>
        <time>1970-01-11T02:00:05Z</time>
      </trkpt>
      <trkpt lat="42.430682" lon="-8.082897">
        <ele>371.411</ele>
        <time>1970-01-11T02:00:05Z</time>
      </trkpt>
      <trkpt lat="42.430732" lon="-8.083014">
        <ele>370.421</ele>
        <time>1970-01-11T02:00:05Z</time>
      </trkpt>
      <trkpt lat="42.430785" lon="-8.083123">
        <ele>369.403</ele>
        <time>1970-01-11T02:00:05Z</time>
      </trkpt>
      <trkpt lat="42.430835" lon="-8.083223">
        <ele>367.808</ele>
        <time>1970-01-11T02:00:05Z</time>
      </trkpt>
      <trkpt lat="42.430911" lon="-8.083343">
        <ele>366.472</ele>
        <time>1970-01-11T02:00:05Z</time>
      </trkpt>
      <trkpt lat="42.430917" lon="-8.083368">
        <ele>365.629</ele>
        <time>1970-01-11T02:00:05Z</time>
      </trkpt>
      <trkpt lat="42.430903" lon="-8.083372">
        <ele>365.265</ele>
        <time>1970-01-11T02:00:05Z</time>
      </trkpt>
      <trkpt lat="42.430852" lon="-8.083388">
        <ele>364.293</ele>
        <time>1970-01-11T02:00:05Z</time>
      </trkpt>
      <trkpt lat="42.430834" lon="-8.083452">
        <ele>363.672</ele>
        <time>1970-01-11T02:00:05Z</time>
      </trkpt>
      <trkpt lat="42.430845" lon="-8.083583">
        <ele>362.837</ele>
        <time>1970-01-11T02:00:05Z</time>
      </trkpt>
      <trkpt lat="42.430830" lon="-8.083650">
        <ele>362.475</ele>
        <time>1970-01-11T02:00:05Z</time>
      </trkpt>
      <trkpt lat="42.430787" lon="-8.083761">
        <ele>361.814</ele>
        <time>1970-01-11T02:00:05Z</time>
      </trkpt>
      <trkpt lat="42.430715" lon="-8.083860">
        <ele>361.264</ele>
        <time>1970-01-11T02:00:05Z</time>
      </trkpt>
      <trkpt lat="42.430675" lon="-8.083905">
        <ele>361.006</ele>
        <time>1970-01-11T02:00:05Z</time>
      </trkpt>
      <trkpt lat="42.430603" lon="-8.083984">
        <ele>360.616</ele>
        <time>1970-01-11T02:00:05Z</time>
      </trkpt>
      <trkpt lat="42.430501" lon="-8.084121">
        <ele>360.008</ele>
        <time>1970-01-11T02:00:05Z</time>
      </trkpt>
      <trkpt lat="42.430430" lon="-8.084202">
        <ele>359.817</ele>
        <time>1970-01-11T02:00:05Z</time>
      </trkpt>
      <trkpt lat="42.430380" lon="-8.084248">
        <ele>359.464</ele>
        <time>1970-01-11T02:00:05Z</time>
      </trkpt>
      <trkpt lat="42.430362" lon="-8.084262">
        <ele>359.440</ele>
        <time>1970-01-11T02:00:05Z</time>
      </trkpt>
      <trkpt lat="42.430331" lon="-8.084261">
        <ele>359.298</ele>
        <time>1970-01-11T02:00:05Z</time>
      </trkpt>
      <trkpt lat="42.430319" lon="-8.084245">
        <ele>359.277</ele>
        <time>1970-01-11T02:00:05Z</time>
      </trkpt>
      <trkpt lat="42.430312" lon="-8.084211">
        <ele>359.292</ele>
        <time>1970-01-11T02:00:05Z</time>
      </trkpt>
      <trkpt lat="42.430335" lon="-8.084146">
        <ele>359.260</ele>
        <time>1970-01-11T02:00:05Z</time>
      </trkpt>
      <trkpt lat="42.430367" lon="-8.084121">
        <ele>359.299</ele>
        <time>1970-01-11T02:00:05Z</time>
      </trkpt>
      <trkpt lat="42.430397" lon="-8.084098">
        <ele>359.292</ele>
        <time>1970-01-11T02:00:05Z</time>
      </trkpt>
      <trkpt lat="42.430497" lon="-8.084012">
        <ele>359.273</ele>
        <time>1970-01-11T02:00:05Z</time>
      </trkpt>
      <trkpt lat="42.430553" lon="-8.083950">
        <ele>359.220</ele>
        <time>1970-01-11T02:00:05Z</time>
      </trkpt>
      <trkpt lat="42.430650" lon="-8.083846">
        <ele>359.208</ele>
        <time>1970-01-11T02:00:05Z</time>
      </trkpt>
      <trkpt lat="42.430810" lon="-8.083603">
        <ele>359.410</ele>
        <time>1970-01-11T02:00:05Z</time>
      </trkpt>
      <trkpt lat="42.430823" lon="-8.083553">
        <ele>359.677</ele>
        <time>1970-01-11T02:00:05Z</time>
      </trkpt>
      <trkpt lat="42.430834" lon="-8.083445">
        <ele>359.883</ele>
        <time>1970-01-11T02:00:05Z</time>
      </trkpt>
      <trkpt lat="42.430840" lon="-8.083406">
        <ele>360.031</ele>
        <time>1970-01-11T02:00:05Z</time>
      </trkpt>
      <trkpt lat="42.430844" lon="-8.083362">
        <ele>360.470</ele>
        <time>1970-01-11T02:00:05Z</time>
      </trkpt>
      <trkpt lat="42.430847" lon="-8.083318">
        <ele>360.665</ele>
        <time>1970-01-11T02:00:05Z</time>
      </trkpt>
      <trkpt lat="42.430873" lon="-8.083204">
        <ele>361.873</ele>
        <time>1970-01-11T02:00:05Z</time>
      </trkpt>
      <trkpt lat="42.430889" lon="-8.083194">
        <ele>362.232</ele>
        <time>1970-01-11T02:00:05Z</time>
      </trkpt>
      <trkpt lat="42.430949" lon="-8.083245">
        <ele>363.099</ele>
        <time>1970-01-11T02:00:05Z</time>
      </trkpt>
      <trkpt lat="42.430990" lon="-8.083352">
        <ele>363.407</ele>
        <time>1970-01-11T02:00:05Z</time>
      </trkpt>
      <trkpt lat="42.431003" lon="-8.083390">
        <ele>363.427</ele>
        <time>1970-01-11T02:00:05Z</time>
      </trkpt>
      <trkpt lat="42.431118" lon="-8.083670">
        <ele>363.208</ele>
        <time>1970-01-11T02:00:05Z</time>
      </trkpt>
      <trkpt lat="42.431306" lon="-8.084108">
        <ele>362.850</ele>
        <time>1970-01-11T02:00:05Z</time>
      </trkpt>
      <trkpt lat="42.431403" lon="-8.084360">
        <ele>363.277</ele>
        <time>1970-01-11T02:00:05Z</time>
      </trkpt>
      <trkpt lat="42.431454" lon="-8.084454">
        <ele>362.843</ele>
        <time>1970-01-11T02:00:05Z</time>
      </trkpt>
      <trkpt lat="42.431468" lon="-8.084505">
        <ele>362.851</ele>
        <time>1970-01-11T02:00:05Z</time>
      </trkpt>
      <trkpt lat="42.431437" lon="-8.084522">
        <ele>362.890</ele>
        <time>1970-01-11T02:00:05Z</time>
      </trkpt>
      <trkpt lat="42.431394" lon="-8.084454">
        <ele>362.885</ele>
        <time>1970-01-11T02:00:05Z</time>
      </trkpt>
      <trkpt lat="42.431336" lon="-8.084372">
        <ele>362.853</ele>
        <time>1970-01-11T02:00:05Z</time>
      </trkpt>
      <trkpt lat="42.431321" lon="-8.084354">
        <ele>362.422</ele>
        <time>1970-01-11T02:00:05Z</time>
      </trkpt>
      <trkpt lat="42.431318" lon="-8.084353">
        <ele>362.463</ele>
        <time>1970-01-11T02:00:05Z</time>
      </trkpt>
      <trkpt lat="42.431318" lon="-8.084353">
        <ele>362.244</ele>
        <time>1970-01-11T02:00:05Z</time>
      </trkpt>
      <trkpt lat="42.431332" lon="-8.084371">
        <ele>362.218</ele>
        <time>1970-01-11T02:00:05Z</time>
      </trkpt>
      <trkpt lat="42.431352" lon="-8.084368">
        <ele>362.208</ele>
        <time>1970-01-11T02:00:05Z</time>
      </trkpt>
      <trkpt lat="42.431370" lon="-8.084322">
        <ele>362.217</ele>
        <time>1970-01-11T02:00:05Z</time>
      </trkpt>
      <trkpt lat="42.431345" lon="-8.084260">
        <ele>362.444</ele>
        <time>1970-01-11T02:00:05Z</time>
      </trkpt>
      <trkpt lat="42.431331" lon="-8.084219">
        <ele>362.660</ele>
        <time>1970-01-11T02:00:05Z</time>
      </trkpt>
      <trkpt lat="42.431261" lon="-8.084075">
        <ele>362.678</ele>
        <time>1970-01-11T02:00:05Z</time>
      </trkpt>
      <trkpt lat="42.431209" lon="-8.083954">
        <ele>362.877</ele>
        <time>1970-01-11T02:00:05Z</time>
      </trkpt>
      <trkpt lat="42.431085" lon="-8.083646">
        <ele>363.032</ele>
        <time>1970-01-11T02:00:05Z</time>
      </trkpt>
      <trkpt lat="42.430978" lon="-8.083363">
        <ele>363.080</ele>
        <time>1970-01-11T02:00:05Z</time>
      </trkpt>
      <trkpt lat="42.430922" lon="-8.083278">
        <ele>363.099</ele>
        <time>1970-01-11T02:00:05Z</time>
      </trkpt>
      <trkpt lat="42.430856" lon="-8.083350">
        <ele>363.073</ele>
        <time>1970-01-11T02:00:05Z</time>
      </trkpt>
      <trkpt lat="42.430816" lon="-8.083580">
        <ele>362.485</ele>
        <time>1970-01-11T02:00:05Z</time>
      </trkpt>
      <trkpt lat="42.430707" lon="-8.083795">
        <ele>361.813</ele>
        <time>1970-01-11T02:00:05Z</time>
      </trkpt>
      <trkpt lat="42.430672" lon="-8.083861">
        <ele>361.408</ele>
        <time>1970-01-11T02:00:05Z</time>
      </trkpt>
      <trkpt lat="42.430523" lon="-8.084043">
        <ele>361.218</ele>
        <time>1970-01-11T02:00:05Z</time>
      </trkpt>
      <trkpt lat="42.430419" lon="-8.084165">
        <ele>361.015</ele>
        <time>1970-01-11T02:00:05Z</time>
      </trkpt>
      <trkpt lat="42.430268" lon="-8.084348">
        <ele>360.621</ele>
        <time>1970-01-11T02:00:05Z</time>
      </trkpt>
      <trkpt lat="42.430158" lon="-8.084555">
        <ele>360.259</ele>
        <time>1970-01-11T02:00:05Z</time>
      </trkpt>
      <trkpt lat="42.430111" lon="-8.084695">
        <ele>360.048</ele>
        <time>1970-01-11T02:00:05Z</time>
      </trkpt>
      <trkpt lat="42.430063" lon="-8.084913">
        <ele>360.073</ele>
        <time>1970-01-11T02:00:05Z</time>
      </trkpt>
      <trkpt lat="42.430056" lon="-8.084984">
        <ele>360.061</ele>
        <time>1970-01-11T02:00:05Z</time>
      </trkpt>
      <trkpt lat="42.430052" lon="-8.085300">
        <ele>360.070</ele>
        <time>1970-01-11T02:00:05Z</time>
      </trkpt>
      <trkpt lat="42.430076" lon="-8.085519">
        <ele>360.285</ele>
        <time>1970-01-11T02:00:05Z</time>
      </trkpt>
      <trkpt lat="42.430115" lon="-8.085653">
        <ele>360.689</ele>
        <time>1970-01-11T02:00:05Z</time>
      </trkpt>
      <trkpt lat="42.430233" lon="-8.086144">
        <ele>360.617</ele>
        <time>1970-01-11T02:00:05Z</time>
      </trkpt>
      <trkpt lat="42.430266" lon="-8.086291">
        <ele>360.408</ele>
        <time>1970-01-11T02:00:05Z</time>
      </trkpt>
      <trkpt lat="42.430329" lon="-8.086587">
        <ele>359.859</ele>
        <time>1970-01-11T02:00:05Z</time>
      </trkpt>
      <trkpt lat="42.430338" lon="-8.086662">
        <ele>359.646</ele>
        <time>1970-01-11T02:00:05Z</time>
      </trkpt>
      <trkpt lat="42.430339" lon="-8.086738">
        <ele>359.642</ele>
        <time>1970-01-11T02:00:05Z</time>
      </trkpt>
      <trkpt lat="42.430291" lon="-8.087034">
        <ele>359.420</ele>
        <time>1970-01-11T02:00:05Z</time>
      </trkpt>
      <trkpt lat="42.430267" lon="-8.087102">
        <ele>359.479</ele>
        <time>1970-01-11T02:00:05Z</time>
      </trkpt>
      <trkpt lat="42.430146" lon="-8.087225">
        <ele>359.624</ele>
        <time>1970-01-11T02:00:05Z</time>
      </trkpt>
      <trkpt lat="42.429921" lon="-8.087432">
        <ele>359.412</ele>
        <time>1970-01-11T02:00:05Z</time>
      </trkpt>
      <trkpt lat="42.429854" lon="-8.087542">
        <ele>359.461</ele>
        <time>1970-01-11T02:00:05Z</time>
      </trkpt>
      <trkpt lat="42.429691" lon="-8.087822">
        <ele>359.075</ele>
        <time>1970-01-11T02:00:05Z</time>
      </trkpt>
      <trkpt lat="42.429478" lon="-8.088195">
        <ele>359.028</ele>
        <time>1970-01-11T02:00:05Z</time>
      </trkpt>
      <trkpt lat="42.429372" lon="-8.088392">
        <ele>358.820</ele>
        <time>1970-01-11T02:00:05Z</time>
      </trkpt>
      <trkpt lat="42.429347" lon="-8.088440">
        <ele>359.008</ele>
        <time>1970-01-11T02:00:05Z</time>
      </trkpt>
      <trkpt lat="42.429330" lon="-8.088435">
        <ele>359.098</ele>
        <time>1970-01-11T02:00:05Z</time>
      </trkpt>
      <trkpt lat="42.429303" lon="-8.088367">
        <ele>359.285</ele>
        <time>1970-01-11T02:00:05Z</time>
      </trkpt>
      <trkpt lat="42.429299" lon="-8.088356">
        <ele>359.211</ele>
        <time>1970-01-11T02:00:05Z</time>
      </trkpt>
      <trkpt lat="42.429274" lon="-8.088314">
        <ele>359.429</ele>
        <time>1970-01-11T02:00:05Z</time>
      </trkpt>
      <trkpt lat="42.429254" lon="-8.088326">
        <ele>359.678</ele>
        <time>1970-01-11T02:00:05Z</time>
      </trkpt>
      <trkpt lat="42.429240" lon="-8.088371">
        <ele>359.893</ele>
        <time>1970-01-11T02:00:05Z</time>
      </trkpt>
      <trkpt lat="42.429228" lon="-8.088420">
        <ele>360.211</ele>
        <time>1970-01-11T02:00:05Z</time>
      </trkpt>
      <trkpt lat="42.429227" lon="-8.088440">
        <ele>360.470</ele>
        <time>1970-01-11T02:00:05Z</time>
      </trkpt>
      <trkpt lat="42.429224" lon="-8.088458">
        <ele>360.859</ele>
        <time>1970-01-11T02:00:05Z</time>
      </trkpt>
      <trkpt lat="42.429204" lon="-8.088488">
        <ele>361.403</ele>
        <time>1970-01-11T02:00:05Z</time>
      </trkpt>
      <trkpt lat="42.429198" lon="-8.088504">
        <ele>362.223</ele>
        <time>1970-01-11T02:00:05Z</time>
      </trkpt>
      <trkpt lat="42.429198" lon="-8.088523">
        <ele>362.608</ele>
        <time>1970-01-11T02:00:05Z</time>
      </trkpt>
      <trkpt lat="42.429202" lon="-8.088536">
        <ele>363.096</ele>
        <time>1970-01-11T02:00:05Z</time>
      </trkpt>
      <trkpt lat="42.429201" lon="-8.088585">
        <ele>363.643</ele>
        <time>1970-01-11T02:00:05Z</time>
      </trkpt>
      <trkpt lat="42.429200" lon="-8.088687">
        <ele>364.659</ele>
        <time>1970-01-11T02:00:05Z</time>
      </trkpt>
      <trkpt lat="42.429197" lon="-8.088729">
        <ele>364.877</ele>
        <time>1970-01-11T02:00:05Z</time>
      </trkpt>
      <trkpt lat="42.429165" lon="-8.088879">
        <ele>365.826</ele>
        <time>1970-01-11T02:00:05Z</time>
      </trkpt>
      <trkpt lat="42.429147" lon="-8.088899">
        <ele>366.011</ele>
        <time>1970-01-11T02:00:05Z</time>
      </trkpt>
      <trkpt lat="42.429096" lon="-8.088968">
        <ele>366.839</ele>
        <time>1970-01-11T02:00:05Z</time>
      </trkpt>
      <trkpt lat="42.429091" lon="-8.088998">
        <ele>367.098</ele>
        <time>1970-01-11T02:00:05Z</time>
      </trkpt>
      <trkpt lat="42.429080" lon="-8.089033">
        <ele>367.262</ele>
        <time>1970-01-11T02:00:05Z</time>
      </trkpt>
      <trkpt lat="42.429055" lon="-8.089082">
        <ele>367.883</ele>
        <time>1970-01-11T02:00:05Z</time>
      </trkpt>
      <trkpt lat="42.429044" lon="-8.089102">
        <ele>368.011</ele>
        <time>1970-01-11T02:00:05Z</time>
      </trkpt>
      <trkpt lat="42.429018" lon="-8.089145">
        <ele>368.408</ele>
        <time>1970-01-11T02:00:05Z</time>
      </trkpt>
      <trkpt lat="42.428976" lon="-8.089198">
        <ele>369.097</ele>
        <time>1970-01-11T02:00:05Z</time>
      </trkpt>
      <trkpt lat="42.428918" lon="-8.089310">
        <ele>369.224</ele>
        <time>1970-01-11T02:00:05Z</time>
      </trkpt>
      <trkpt lat="42.428880" lon="-8.089438">
        <ele>369.250</ele>
        <time>1970-01-11T02:00:05Z</time>
      </trkpt>
      <trkpt lat="42.428858" lon="-8.089541">
        <ele>369.048</ele>
        <time>1970-01-11T02:00:05Z</time>
      </trkpt>
      <trkpt lat="42.428826" lon="-8.089880">
        <ele>368.017</ele>
        <time>1970-01-11T02:00:05Z</time>
      </trkpt>
      <trkpt lat="42.428731" lon="-8.090103">
        <ele>367.472</ele>
        <time>1970-01-11T02:00:05Z</time>
      </trkpt>
      <trkpt lat="42.428697" lon="-8.090149">
        <ele>367.230</ele>
        <time>1970-01-11T02:00:05Z</time>
      </trkpt>
      <trkpt lat="42.428628" lon="-8.090235">
        <ele>366.879</ele>
        <time>1970-01-11T02:00:05Z</time>
      </trkpt>
      <trkpt lat="42.428545" lon="-8.090327">
        <ele>366.229</ele>
        <time>1970-01-11T02:00:05Z</time>
      </trkpt>
      <trkpt lat="42.428483" lon="-8.090445">
        <ele>365.800</ele>
        <time>1970-01-11T02:00:05Z</time>
      </trkpt>
      <trkpt lat="42.428438" lon="-8.090563">
        <ele>365.220</ele>
        <time>1970-01-11T02:00:05Z</time>
      </trkpt>
      <trkpt lat="42.428416" lon="-8.090599">
        <ele>365.008</ele>
        <time>1970-01-11T02:00:05Z</time>
      </trkpt>
      <trkpt lat="42.428389" lon="-8.090635">
        <ele>364.643</ele>
        <time>1970-01-11T02:00:05Z</time>
      </trkpt>
      <trkpt lat="42.428366" lon="-8.090671">
        <ele>364.010</ele>
        <time>1970-01-11T02:00:05Z</time>
      </trkpt>
      <trkpt lat="42.428343" lon="-8.090702">
        <ele>363.496</ele>
        <time>1970-01-11T02:00:05Z</time>
      </trkpt>
      <trkpt lat="42.428300" lon="-8.090747">
        <ele>362.434</ele>
        <time>1970-01-11T02:00:05Z</time>
      </trkpt>
      <trkpt lat="42.428263" lon="-8.090768">
        <ele>361.643</ele>
        <time>1970-01-11T02:00:05Z</time>
      </trkpt>
      <trkpt lat="42.428251" lon="-8.090770">
        <ele>361.418</ele>
        <time>1970-01-11T02:00:05Z</time>
      </trkpt>
      <trkpt lat="42.428238" lon="-8.090765">
        <ele>361.276</ele>
        <time>1970-01-11T02:00:05Z</time>
      </trkpt>
      <trkpt lat="42.428226" lon="-8.090768">
        <ele>361.265</ele>
        <time>1970-01-11T02:00:05Z</time>
      </trkpt>
      <trkpt lat="42.428226" lon="-8.090768">
        <ele>361.233</ele>
        <time>1970-01-11T02:00:05Z</time>
      </trkpt>
      <trkpt lat="42.428226" lon="-8.090768">
        <ele>361.823</ele>
        <time>1970-01-11T02:00:05Z</time>
      </trkpt>
      <trkpt lat="42.428208" lon="-8.090765">
        <ele>362.015</ele>
        <time>1970-01-11T02:00:05Z</time>
      </trkpt>
      <trkpt lat="42.428186" lon="-8.090765">
        <ele>362.008</ele>
        <time>1970-01-11T02:00:05Z</time>
      </trkpt>
      <trkpt lat="42.428166" lon="-8.090763">
        <ele>362.634</ele>
        <time>1970-01-11T02:00:05Z</time>
      </trkpt>
      <trkpt lat="42.428141" lon="-8.090767">
        <ele>363.681</ele>
        <time>1970-01-11T02:00:05Z</time>
      </trkpt>
      <trkpt lat="42.428097" lon="-8.090760">
        <ele>363.627</ele>
        <time>1970-01-11T02:00:05Z</time>
      </trkpt>
      <trkpt lat="42.428017" lon="-8.090766">
        <ele>363.815</ele>
        <time>1970-01-11T02:00:05Z</time>
      </trkpt>
      <trkpt lat="42.427987" lon="-8.090758">
        <ele>364.094</ele>
        <time>1970-01-11T02:00:05Z</time>
      </trkpt>
      <trkpt lat="42.427868" lon="-8.090830">
        <ele>364.459</ele>
        <time>1970-01-11T02:00:05Z</time>
      </trkpt>
      <trkpt lat="42.427844" lon="-8.090855">
        <ele>364.687</ele>
        <time>1970-01-11T02:00:05Z</time>
      </trkpt>
      <trkpt lat="42.427820" lon="-8.090869">
        <ele>364.626</ele>
        <time>1970-01-11T02:00:05Z</time>
      </trkpt>
      <trkpt lat="42.427728" lon="-8.090941">
        <ele>364.651</ele>
        <time>1970-01-11T02:00:05Z</time>
      </trkpt>
      <trkpt lat="42.427637" lon="-8.091105">
        <ele>364.401</ele>
        <time>1970-01-11T02:00:05Z</time>
      </trkpt>
      <trkpt lat="42.427601" lon="-8.091155">
        <ele>364.211</ele>
        <time>1970-01-11T02:00:05Z</time>
      </trkpt>
      <trkpt lat="42.427510" lon="-8.091314">
        <ele>363.408</ele>
        <time>1970-01-11T02:00:05Z</time>
      </trkpt>
      <trkpt lat="42.427475" lon="-8.091352">
        <ele>363.286</ele>
        <time>1970-01-11T02:00:05Z</time>
      </trkpt>
      <trkpt lat="42.427402" lon="-8.091424">
        <ele>362.033</ele>
        <time>1970-01-11T02:00:05Z</time>
      </trkpt>
      <trkpt lat="42.427362" lon="-8.091447">
        <ele>361.439</ele>
        <time>1970-01-11T02:00:05Z</time>
      </trkpt>
      <trkpt lat="42.427279" lon="-8.091507">
        <ele>360.897</ele>
        <time>1970-01-11T02:00:05Z</time>
      </trkpt>
      <trkpt lat="42.427198" lon="-8.091566">
        <ele>360.616</ele>
        <time>1970-01-11T02:00:05Z</time>
      </trkpt>
      <trkpt lat="42.427156" lon="-8.091576">
        <ele>360.491</ele>
        <time>1970-01-11T02:00:05Z</time>
      </trkpt>
      <trkpt lat="42.427061" lon="-8.091645">
        <ele>360.299</ele>
        <time>1970-01-11T02:00:05Z</time>
      </trkpt>
      <trkpt lat="42.426971" lon="-8.091698">
        <ele>360.078</ele>
        <time>1970-01-11T02:00:05Z</time>
      </trkpt>
      <trkpt lat="42.426930" lon="-8.091727">
        <ele>359.873</ele>
        <time>1970-01-11T02:00:05Z</time>
      </trkpt>
      <trkpt lat="42.426848" lon="-8.091771">
        <ele>360.085</ele>
        <time>1970-01-11T02:00:05Z</time>
      </trkpt>
      <trkpt lat="42.426820" lon="-8.091789">
        <ele>360.013</ele>
        <time>1970-01-11T02:00:05Z</time>
      </trkpt>
      <trkpt lat="42.426777" lon="-8.091815">
        <ele>359.808</ele>
        <time>1970-01-11T02:00:05Z</time>
      </trkpt>
      <trkpt lat="42.426764" lon="-8.091810">
        <ele>359.848</ele>
        <time>1970-01-11T02:00:05Z</time>
      </trkpt>
      <trkpt lat="42.426734" lon="-8.091816">
        <ele>359.665</ele>
        <time>1970-01-11T02:00:05Z</time>
      </trkpt>
      <trkpt lat="42.426723" lon="-8.091815">
        <ele>359.631</ele>
        <time>1970-01-11T02:00:05Z</time>
      </trkpt>
      <trkpt lat="42.426713" lon="-8.091816">
        <ele>359.699</ele>
        <time>1970-01-11T02:00:05Z</time>
      </trkpt>
      <trkpt lat="42.426697" lon="-8.091825">
        <ele>359.668</ele>
        <time>1970-01-11T02:00:05Z</time>
      </trkpt>
      <trkpt lat="42.426697" lon="-8.091825">
        <ele>359.843</ele>
        <time>1970-01-11T02:00:05Z</time>
      </trkpt>
      <trkpt lat="42.426697" lon="-8.091825">
        <ele>360.251</ele>
        <time>1970-01-11T02:00:05Z</time>
      </trkpt>
      <trkpt lat="42.426697" lon="-8.091825">
        <ele>360.250</ele>
        <time>1970-01-11T02:00:05Z</time>
      </trkpt>
      <trkpt lat="42.426697" lon="-8.091825">
        <ele>360.457</ele>
        <time>1970-01-11T02:00:05Z</time>
      </trkpt>
      <trkpt lat="42.426697" lon="-8.091825">
        <ele>360.200</ele>
        <time>1970-01-11T02:00:05Z</time>
      </trkpt>
      <trkpt lat="42.426701" lon="-8.091843">
        <ele>360.420</ele>
        <time>1970-01-11T02:00:05Z</time>
      </trkpt>
      <trkpt lat="42.426715" lon="-8.091883">
        <ele>360.408</ele>
        <time>1970-01-11T02:00:05Z</time>
      </trkpt>
      <trkpt lat="42.426739" lon="-8.091926">
        <ele>360.416</ele>
        <time>1970-01-11T02:00:05Z</time>
      </trkpt>
      <trkpt lat="42.426763" lon="-8.091968">
        <ele>360.473</ele>
        <time>1970-01-11T02:00:05Z</time>
      </trkpt>
      <trkpt lat="42.426798" lon="-8.092004">
        <ele>360.289</ele>
        <time>1970-01-11T02:00:05Z</time>
      </trkpt>
      <trkpt lat="42.426827" lon="-8.092051">
        <ele>359.887</ele>
        <time>1970-01-11T02:00:05Z</time>
      </trkpt>
      <trkpt lat="42.426847" lon="-8.092109">
        <ele>359.026</ele>
        <time>1970-01-11T02:00:05Z</time>
      </trkpt>
      <trkpt lat="42.426848" lon="-8.092143">
        <ele>358.681</ele>
        <time>1970-01-11T02:00:05Z</time>
      </trkpt>
      <trkpt lat="42.426830" lon="-8.092221">
        <ele>357.849</ele>
        <time>1970-01-11T02:00:05Z</time>
      </trkpt>
      <trkpt lat="42.426822" lon="-8.092251">
        <ele>357.818</ele>
        <time>1970-01-11T02:00:05Z</time>
      </trkpt>
      <trkpt lat="42.426818" lon="-8.092339">
        <ele>357.613</ele>
        <time>1970-01-11T02:00:05Z</time>
      </trkpt>
      <trkpt lat="42.426822" lon="-8.092424">
        <ele>357.643</ele>
        <time>1970-01-11T02:00:05Z</time>
      </trkpt>
      <trkpt lat="42.426816" lon="-8.092472">
        <ele>357.807</ele>
        <time>1970-01-11T02:00:05Z</time>
      </trkpt>
      <trkpt lat="42.426813" lon="-8.092499">
        <ele>357.808</ele>
        <time>1970-01-11T02:00:05Z</time>
      </trkpt>
      <trkpt lat="42.426803" lon="-8.092557">
        <ele>357.892</ele>
        <time>1970-01-11T02:00:05Z</time>
      </trkpt>
      <trkpt lat="42.426785" lon="-8.092622">
        <ele>357.619</ele>
        <time>1970-01-11T02:00:05Z</time>
      </trkpt>
      <trkpt lat="42.426777" lon="-8.092655">
        <ele>357.635</ele>
        <time>1970-01-11T02:00:05Z</time>
      </trkpt>
      <trkpt lat="42.426758" lon="-8.092718">
        <ele>357.633</ele>
        <time>1970-01-11T02:00:05Z</time>
      </trkpt>
      <trkpt lat="42.426727" lon="-8.092786">
        <ele>357.422</ele>
        <time>1970-01-11T02:00:05Z</time>
      </trkpt>
      <trkpt lat="42.426693" lon="-8.092839">
        <ele>357.447</ele>
        <time>1970-01-11T02:00:05Z</time>
      </trkpt>
      <trkpt lat="42.426672" lon="-8.092865">
        <ele>357.445</ele>
        <time>1970-01-11T02:00:05Z</time>
      </trkpt>
      <trkpt lat="42.426613" lon="-8.092962">
        <ele>357.484</ele>
        <time>1970-01-11T02:00:05Z</time>
      </trkpt>
      <trkpt lat="42.426559" lon="-8.093065">
        <ele>357.441</ele>
        <time>1970-01-11T02:00:05Z</time>
      </trkpt>
      <trkpt lat="42.426516" lon="-8.093124">
        <ele>357.481</ele>
        <time>1970-01-11T02:00:05Z</time>
      </trkpt>
      <trkpt lat="42.426379" lon="-8.093287">
        <ele>357.209</ele>
        <time>1970-01-11T02:00:05Z</time>
      </trkpt>
      <trkpt lat="42.426204" lon="-8.093377">
        <ele>357.008</ele>
        <time>1970-01-11T02:00:05Z</time>
      </trkpt>
      <trkpt lat="42.426071" lon="-8.093405">
        <ele>357.095</ele>
        <time>1970-01-11T02:00:05Z</time>
      </trkpt>
      <trkpt lat="42.426020" lon="-8.093418">
        <ele>357.222</ele>
        <time>1970-01-11T02:00:05Z</time>
      </trkpt>
      <trkpt lat="42.425937" lon="-8.093462">
        <ele>357.258</ele>
        <time>1970-01-11T02:00:05Z</time>
      </trkpt>
      <trkpt lat="42.425909" lon="-8.093504">
        <ele>357.236</ele>
        <time>1970-01-11T02:00:05Z</time>
      </trkpt>
      <trkpt lat="42.425806" lon="-8.093557">
        <ele>357.015</ele>
        <time>1970-01-11T02:00:05Z</time>
      </trkpt>
      <trkpt lat="42.425683" lon="-8.093581">
        <ele>357.020</ele>
        <time>1970-01-11T02:00:05Z</time>
      </trkpt>
      <trkpt lat="42.425673" lon="-8.093601">
        <ele>356.858</ele>
        <time>1970-01-11T02:00:05Z</time>
      </trkpt>
      <trkpt lat="42.425687" lon="-8.093638">
        <ele>356.887</ele>
        <time>1970-01-11T02:00:05Z</time>
      </trkpt>
      <trkpt lat="42.425704" lon="-8.093631">
        <ele>356.859</ele>
        <time>1970-01-11T02:00:05Z</time>
      </trkpt>
      <trkpt lat="42.425727" lon="-8.093618">
        <ele>357.003</ele>
        <time>1970-01-11T02:00:05Z</time>
      </trkpt>
      <trkpt lat="42.425753" lon="-8.093589">
        <ele>357.023</ele>
        <time>1970-01-11T02:00:05Z</time>
      </trkpt>
      <trkpt lat="42.425760" lon="-8.093576">
        <ele>357.008</ele>
        <time>1970-01-11T02:00:05Z</time>
      </trkpt>
      <trkpt lat="42.425788" lon="-8.093549">
        <ele>357.016</ele>
        <time>1970-01-11T02:00:05Z</time>
      </trkpt>
      <trkpt lat="42.425799" lon="-8.093554">
        <ele>357.073</ele>
        <time>1970-01-11T02:00:05Z</time>
      </trkpt>
      <trkpt lat="42.425814" lon="-8.093567">
        <ele>357.079</ele>
        <time>1970-01-11T02:00:05Z</time>
      </trkpt>
      <trkpt lat="42.425877" lon="-8.093533">
        <ele>357.087</ele>
        <time>1970-01-11T02:00:05Z</time>
      </trkpt>
      <trkpt lat="42.425907" lon="-8.093536">
        <ele>357.046</ele>
        <time>1970-01-11T02:00:05Z</time>
      </trkpt>
      <trkpt lat="42.425925" lon="-8.093529">
        <ele>357.061</ele>
        <time>1970-01-11T02:00:05Z</time>
      </trkpt>
      <trkpt lat="42.425950" lon="-8.093521">
        <ele>357.039</ele>
        <time>1970-01-11T02:00:05Z</time>
      </trkpt>
      <trkpt lat="42.425960" lon="-8.093507">
        <ele>357.038</ele>
        <time>1970-01-11T02:00:05Z</time>
      </trkpt>
      <trkpt lat="42.426022" lon="-8.093500">
        <ele>357.066</ele>
        <time>1970-01-11T02:00:05Z</time>
      </trkpt>
      <trkpt lat="42.426036" lon="-8.093506">
        <ele>357.029</ele>
        <time>1970-01-11T02:00:05Z</time>
      </trkpt>
      <trkpt lat="42.426071" lon="-8.093507">
        <ele>357.021</ele>
        <time>1970-01-11T02:00:05Z</time>
      </trkpt>
      <trkpt lat="42.426146" lon="-8.093451">
        <ele>357.008</ele>
        <time>1970-01-11T02:00:05Z</time>
      </trkpt>
      <trkpt lat="42.426147" lon="-8.093451">
        <ele>357.017</ele>
        <time>1970-01-11T02:00:05Z</time>
      </trkpt>
      <trkpt lat="42.426147" lon="-8.093451">
        <ele>357.034</ele>
        <time>1970-01-11T02:00:05Z</time>
      </trkpt>
      <trkpt lat="42.426147" lon="-8.093451">
        <ele>357.040</ele>
        <time>1970-01-11T02:00:05Z</time>
      </trkpt>
      <trkpt lat="42.426147" lon="-8.093451">
        <ele>357.058</ele>
        <time>1970-01-11T02:00:05Z</time>
      </trkpt>
      <trkpt lat="42.426147" lon="-8.093451">
        <ele>357.017</ele>
        <time>1970-01-11T02:00:05Z</time>
      </trkpt>
      <trkpt lat="42.426147" lon="-8.093451">
        <ele>357.022</ele>
        <time>1970-01-11T02:00:05Z</time>
      </trkpt>
      <trkpt lat="42.426147" lon="-8.093451">
        <ele>357.030</ele>
        <time>1970-01-11T02:00:05Z</time>
      </trkpt>
      <trkpt lat="42.426147" lon="-8.093451">
        <ele>357.059</ele>
        <time>1970-01-11T02:00:05Z</time>
      </trkpt>
      <trkpt lat="42.426147" lon="-8.093451">
        <ele>356.832</ele>
        <time>1970-01-11T02:00:05Z</time>
      </trkpt>
      <trkpt lat="42.426147" lon="-8.093451">
        <ele>356.892</ele>
        <time>1970-01-11T02:00:05Z</time>
      </trkpt>
      <trkpt lat="42.426147" lon="-8.093451">
        <ele>356.811</ele>
        <time>1970-01-11T02:00:05Z</time>
      </trkpt>
      <trkpt lat="42.426147" lon="-8.093451">
        <ele>356.808</ele>
        <time>1970-01-11T02:00:05Z</time>
      </trkpt>
      <trkpt lat="42.426147" lon="-8.093451">
        <ele>356.844</ele>
        <time>1970-01-11T02:00:05Z</time>
      </trkpt>
      <trkpt lat="42.426166" lon="-8.093465">
        <ele>356.891</ele>
        <time>1970-01-11T02:00:05Z</time>
      </trkpt>
      <trkpt lat="42.426183" lon="-8.093471">
        <ele>356.837</ele>
        <time>1970-01-11T02:00:05Z</time>
      </trkpt>
      <trkpt lat="42.426212" lon="-8.093472">
        <ele>356.895</ele>
        <time>1970-01-11T02:00:05Z</time>
      </trkpt>
      <trkpt lat="42.426223" lon="-8.093479">
        <ele>356.834</ele>
        <time>1970-01-11T02:00:05Z</time>
      </trkpt>
      <trkpt lat="42.426237" lon="-8.093478">
        <ele>356.889</ele>
        <time>1970-01-11T02:00:05Z</time>
      </trkpt>
      <trkpt lat="42.426258" lon="-8.093477">
        <ele>356.877</ele>
        <time>1970-01-11T02:00:05Z</time>
      </trkpt>
      <trkpt lat="42.426267" lon="-8.093468">
        <ele>356.896</ele>
        <time>1970-01-11T02:00:05Z</time>
      </trkpt>
      <trkpt lat="42.426280" lon="-8.093453">
        <ele>356.888</ele>
        <time>1970-01-11T02:00:05Z</time>
      </trkpt>
      <trkpt lat="42.426292" lon="-8.093439">
        <ele>356.824</ele>
        <time>1970-01-11T02:00:05Z</time>
      </trkpt>
      <trkpt lat="42.426292" lon="-8.093439">
        <ele>356.826</ele>
        <time>1970-01-11T02:00:05Z</time>
      </trkpt>
      <trkpt lat="42.426292" lon="-8.093439">
        <ele>356.808</ele>
        <time>1970-01-11T02:00:05Z</time>
      </trkpt>
      <trkpt lat="42.426292" lon="-8.093439">
        <ele>356.889</ele>
        <time>1970-01-11T02:00:05Z</time>
      </trkpt>
      <trkpt lat="42.426292" lon="-8.093439">
        <ele>356.836</ele>
        <time>1970-01-11T02:00:05Z</time>
      </trkpt>
      <trkpt lat="42.426292" lon="-8.093439">
        <ele>356.832</ele>
        <time>1970-01-11T02:00:05Z</time>
      </trkpt>
      <trkpt lat="42.426292" lon="-8.093439">
        <ele>356.850</ele>
        <time>1970-01-11T02:00:05Z</time>
      </trkpt>
      <trkpt lat="42.426292" lon="-8.093439">
        <ele>356.889</ele>
        <time>1970-01-11T02:00:05Z</time>
      </trkpt>
      <trkpt lat="42.426292" lon="-8.093439">
        <ele>356.834</ele>
        <time>1970-01-11T02:00:05Z</time>
      </trkpt>
      <trkpt lat="42.426292" lon="-8.093439">
        <ele>356.842</ele>
        <time>1970-01-11T02:00:05Z</time>
      </trkpt>
      <trkpt lat="42.426292" lon="-8.093437">
        <ele>356.871</ele>
        <time>1970-01-11T02:00:05Z</time>
      </trkpt>
      <trkpt lat="42.426292" lon="-8.093437">
        <ele>356.874</ele>
        <time>1970-01-11T02:00:05Z</time>
      </trkpt>
      <trkpt lat="42.426292" lon="-8.093437">
        <ele>356.856</ele>
        <time>1970-01-11T02:00:05Z</time>
      </trkpt>
      <trkpt lat="42.426292" lon="-8.093437">
        <ele>356.821</ele>
        <time>1970-01-11T02:00:05Z</time>
      </trkpt>
      <trkpt lat="42.426292" lon="-8.093437">
        <ele>356.608</ele>
        <time>1970-01-11T02:00:05Z</time>
      </trkpt>
      <trkpt lat="42.426292" lon="-8.093437">
        <ele>356.648</ele>
        <time>1970-01-11T02:00:05Z</time>
      </trkpt>
      <trkpt lat="42.426292" lon="-8.093437">
        <ele>356.885</ele>
        <time>1970-01-11T02:00:05Z</time>
      </trkpt>
      <trkpt lat="42.426292" lon="-8.093437">
        <ele>356.821</ele>
        <time>1970-01-11T02:00:05Z</time>
      </trkpt>
      <trkpt lat="42.426292" lon="-8.093437">
        <ele>357.079</ele>
        <time>1970-01-11T02:00:05Z</time>
      </trkpt>
      <trkpt lat="42.426292" lon="-8.093437">
        <ele>357.028</ele>
        <time>1970-01-11T02:00:05Z</time>
      </trkpt>
      <trkpt lat="42.426291" lon="-8.093437">
        <ele>356.853</ele>
        <time>1970-01-11T02:00:05Z</time>
      </trkpt>
      <trkpt lat="42.426291" lon="-8.093437">
        <ele>356.811</ele>
        <time>1970-01-11T02:00:05Z</time>
      </trkpt>
      <trkpt lat="42.426291" lon="-8.093437">
        <ele>356.860</ele>
        <time>1970-01-11T02:00:05Z</time>
      </trkpt>
      <trkpt lat="42.426291" lon="-8.093437">
        <ele>356.862</ele>
        <time>1970-01-11T02:00:05Z</time>
      </trkpt>
      <trkpt lat="42.426291" lon="-8.093437">
        <ele>356.883</ele>
        <time>1970-01-11T02:00:05Z</time>
      </trkpt>
      <trkpt lat="42.426291" lon="-8.093437">
        <ele>356.811</ele>
        <time>1970-01-11T02:00:05Z</time>
      </trkpt>
      <trkpt lat="42.426290" lon="-8.093440">
        <ele>356.808</ele>
        <time>1970-01-11T02:00:05Z</time>
      </trkpt>
      <trkpt lat="42.426290" lon="-8.093440">
        <ele>356.887</ele>
        <time>1970-01-11T02:00:05Z</time>
      </trkpt>
      <trkpt lat="42.426292" lon="-8.093453">
        <ele>356.874</ele>
        <time>1970-01-11T02:00:05Z</time>
      </trkpt>
      <trkpt lat="42.426300" lon="-8.093485">
        <ele>356.840</ele>
        <time>1970-01-11T02:00:05Z</time>
      </trkpt>
      <trkpt lat="42.426292" lon="-8.093504">
        <ele>356.858</ele>
        <time>1970-01-11T02:00:05Z</time>
      </trkpt>
      <trkpt lat="42.426278" lon="-8.093516">
        <ele>356.887</ele>
        <time>1970-01-11T02:00:05Z</time>
      </trkpt>
      <trkpt lat="42.426241" lon="-8.093521">
        <ele>357.062</ele>
        <time>1970-01-11T02:00:05Z</time>
      </trkpt>
      <trkpt lat="42.426226" lon="-8.093515">
        <ele>357.030</ele>
        <time>1970-01-11T02:00:05Z</time>
      </trkpt>
      <trkpt lat="42.426185" lon="-8.093518">
        <ele>357.049</ele>
        <time>1970-01-11T02:00:05Z</time>
      </trkpt>
      <trkpt lat="42.426159" lon="-8.093525">
        <ele>357.029</ele>
        <time>1970-01-11T02:00:05Z</time>
      </trkpt>
      <trkpt lat="42.426132" lon="-8.093526">
        <ele>357.000</ele>
        <time>1970-01-11T02:00:05Z</time>
      </trkpt>
      <trkpt lat="42.426101" lon="-8.093532">
        <ele>357.020</ele>
        <time>1970-01-11T02:00:05Z</time>
      </trkpt>
      <trkpt lat="42.426074" lon="-8.093536">
        <ele>357.008</ele>
        <time>1970-01-11T02:00:05Z</time>
      </trkpt>
      <trkpt lat="42.426019" lon="-8.093547">
        <ele>357.093</ele>
        <time>1970-01-11T02:00:05Z</time>
      </trkpt>
      <trkpt lat="42.425934" lon="-8.093564">
        <ele>357.090</ele>
        <time>1970-01-11T02:00:05Z</time>
      </trkpt>
      <trkpt lat="42.425907" lon="-8.093578">
        <ele>357.086</ele>
        <time>1970-01-11T02:00:05Z</time>
      </trkpt>
      <trkpt lat="42.425758" lon="-8.093618">
        <ele>357.064</ele>
        <time>1970-01-11T02:00:05Z</time>
      </trkpt>
      <trkpt lat="42.425669" lon="-8.093635">
        <ele>357.083</ele>
        <time>1970-01-11T02:00:05Z</time>
      </trkpt>
      <trkpt lat="42.425582" lon="-8.093653">
        <ele>357.218</ele>
        <time>1970-01-11T02:00:05Z</time>
      </trkpt>
      <trkpt lat="42.425362" lon="-8.093688">
        <ele>357.296</ele>
        <time>1970-01-11T02:00:05Z</time>
      </trkpt>
      <trkpt lat="42.425317" lon="-8.093699">
        <ele>357.495</ele>
        <time>1970-01-11T02:00:05Z</time>
      </trkpt>
      <trkpt lat="42.425038" lon="-8.093773">
        <ele>357.692</ele>
        <time>1970-01-11T02:00:05Z</time>
      </trkpt>
      <trkpt lat="42.424991" lon="-8.093774">
        <ele>357.673</ele>
        <time>1970-01-11T02:00:05Z</time>
      </trkpt>
      <trkpt lat="42.424893" lon="-8.093769">
        <ele>357.620</ele>
        <time>1970-01-11T02:00:05Z</time>
      </trkpt>
      <trkpt lat="42.424737" lon="-8.093706">
        <ele>357.808</ele>
        <time>1970-01-11T02:00:05Z</time>
      </trkpt>
      <trkpt lat="42.424651" lon="-8.093648">
        <ele>357.830</ele>
        <time>1970-01-11T02:00:05Z</time>
      </trkpt>
      <trkpt lat="42.424574" lon="-8.093578">
        <ele>357.827</ele>
        <time>1970-01-11T02:00:05Z</time>
      </trkpt>
      <trkpt lat="42.424480" lon="-8.093463">
        <ele>358.083</ele>
        <time>1970-01-11T02:00:05Z</time>
      </trkpt>
      <trkpt lat="42.424449" lon="-8.093423">
        <ele>358.421</ele>
        <time>1970-01-11T02:00:05Z</time>
      </trkpt>
      <trkpt lat="42.424426" lon="-8.093379">
        <ele>358.620</ele>
        <time>1970-01-11T02:00:05Z</time>
      </trkpt>
      <trkpt lat="42.424383" lon="-8.093284">
        <ele>358.845</ele>
        <time>1970-01-11T02:00:05Z</time>
      </trkpt>
      <trkpt lat="42.424345" lon="-8.093193">
        <ele>359.243</ele>
        <time>1970-01-11T02:00:05Z</time>
      </trkpt>
      <trkpt lat="42.424326" lon="-8.093105">
        <ele>359.632</ele>
        <time>1970-01-11T02:00:05Z</time>
      </trkpt>
      <trkpt lat="42.424308" lon="-8.092908">
        <ele>360.644</ele>
        <time>1970-01-11T02:00:05Z</time>
      </trkpt>
      <trkpt lat="42.424306" lon="-8.092865">
        <ele>360.805</ele>
        <time>1970-01-11T02:00:05Z</time>
      </trkpt>
      <trkpt lat="42.424304" lon="-8.092717">
        <ele>361.615</ele>
        <time>1970-01-11T02:00:05Z</time>
      </trkpt>
      <trkpt lat="42.424288" lon="-8.092591">
        <ele>362.608</ele>
        <time>1970-01-11T02:00:05Z</time>
      </trkpt>
      <trkpt lat="42.424278" lon="-8.092549">
        <ele>362.835</ele>
        <time>1970-01-11T02:00:05Z</time>
      </trkpt>
      <trkpt lat="42.424242" lon="-8.092439">
        <ele>363.692</ele>
        <time>1970-01-11T02:00:05Z</time>
      </trkpt>
      <trkpt lat="42.424213" lon="-8.092414">
        <ele>364.058</ele>
        <time>1970-01-11T02:00:05Z</time>
      </trkpt>
      <trkpt lat="42.424054" lon="-8.092369">
        <ele>364.846</ele>
        <time>1970-01-11T02:00:05Z</time>
      </trkpt>
      <trkpt lat="42.423971" lon="-8.092371">
        <ele>363.835</ele>
        <time>1970-01-11T02:00:05Z</time>
      </trkpt>
      <trkpt lat="42.423954" lon="-8.092376">
        <ele>363.660</ele>
        <time>1970-01-11T02:00:05Z</time>
      </trkpt>
      <trkpt lat="42.423829" lon="-8.092372">
        <ele>362.858</ele>
        <time>1970-01-11T02:00:05Z</time>
      </trkpt>
      <trkpt lat="42.423795" lon="-8.092379">
        <ele>362.897</ele>
        <time>1970-01-11T02:00:05Z</time>
      </trkpt>
      <trkpt lat="42.423679" lon="-8.092410">
        <ele>362.622</ele>
        <time>1970-01-11T02:00:05Z</time>
      </trkpt>
      <trkpt lat="42.423593" lon="-8.092422">
        <ele>362.462</ele>
        <time>1970-01-11T02:00:05Z</time>
      </trkpt>
      <trkpt lat="42.423547" lon="-8.092424">
        <ele>362.208</ele>
        <time>1970-01-11T02:00:05Z</time>
      </trkpt>
      <trkpt lat="42.423438" lon="-8.092413">
        <ele>362.008</ele>
        <time>1970-01-11T02:00:05Z</time>
      </trkpt>
      <trkpt lat="42.423319" lon="-8.092409">
        <ele>361.873</ele>
        <time>1970-01-11T02:00:05Z</time>
      </trkpt>
      <trkpt lat="42.423186" lon="-8.092388">
        <ele>361.230</ele>
        <time>1970-01-11T02:00:05Z</time>
      </trkpt>
      <trkpt lat="42.423118" lon="-8.092373">
        <ele>360.496</ele>
        <time>1970-01-11T02:00:05Z</time>
      </trkpt>
      <trkpt lat="42.422995" lon="-8.092352">
        <ele>360.264</ele>
        <time>1970-01-11T02:00:05Z</time>
      </trkpt>
      <trkpt lat="42.422943" lon="-8.092355">
        <ele>360.083</ele>
        <time>1970-01-11T02:00:05Z</time>
      </trkpt>
      <trkpt lat="42.422889" lon="-8.092366">
        <ele>359.898</ele>
        <time>1970-01-11T02:00:05Z</time>
      </trkpt>
      <trkpt lat="42.422833" lon="-8.092388">
        <ele>359.486</ele>
        <time>1970-01-11T02:00:05Z</time>
      </trkpt>
      <trkpt lat="42.422726" lon="-8.092454">
        <ele>358.615</ele>
        <time>1970-01-11T02:00:05Z</time>
      </trkpt>
      <trkpt lat="42.422682" lon="-8.092494">
        <ele>358.225</ele>
        <time>1970-01-11T02:00:05Z</time>
      </trkpt>
      <trkpt lat="42.422592" lon="-8.092592">
        <ele>357.226</ele>
        <time>1970-01-11T02:00:05Z</time>
      </trkpt>
      <trkpt lat="42.422554" lon="-8.092645">
        <ele>356.808</ele>
        <time>1970-01-11T02:00:05Z</time>
      </trkpt>
      <trkpt lat="42.422492" lon="-8.092746">
        <ele>356.208</ele>
        <time>1970-01-11T02:00:05Z</time>
      </trkpt>
      <trkpt lat="42.422433" lon="-8.092970">
        <ele>356.033</ele>
        <time>1970-01-11T02:00:05Z</time>
      </trkpt>
      <trkpt lat="42.422417" lon="-8.093033">
        <ele>356.290</ele>
        <time>1970-01-11T02:00:05Z</time>
      </trkpt>
      <trkpt lat="42.422387" lon="-8.093161">
        <ele>356.216</ele>
        <time>1970-01-11T02:00:05Z</time>
      </trkpt>
      <trkpt lat="42.422369" lon="-8.093290">
        <ele>356.264</ele>
        <time>1970-01-11T02:00:05Z</time>
      </trkpt>
      <trkpt lat="42.422382" lon="-8.093434">
        <ele>356.013</ele>
        <time>1970-01-11T02:00:05Z</time>
      </trkpt>
      <trkpt lat="42.422395" lon="-8.093604">
        <ele>355.828</ele>
        <time>1970-01-11T02:00:05Z</time>
      </trkpt>
      <trkpt lat="42.422379" lon="-8.093758">
        <ele>355.496</ele>
        <time>1970-01-11T02:00:05Z</time>
      </trkpt>
      <trkpt lat="42.422364" lon="-8.093887">
        <ele>355.015</ele>
        <time>1970-01-11T02:00:05Z</time>
      </trkpt>
      <trkpt lat="42.422358" lon="-8.093927">
        <ele>354.835</ele>
        <time>1970-01-11T02:00:05Z</time>
      </trkpt>
      <trkpt lat="42.422355" lon="-8.093953">
        <ele>354.686</ele>
        <time>1970-01-11T02:00:05Z</time>
      </trkpt>
      <trkpt lat="42.422346" lon="-8.094095">
        <ele>354.214</ele>
        <time>1970-01-11T02:00:05Z</time>
      </trkpt>
      <trkpt lat="42.422341" lon="-8.094145">
        <ele>354.208</ele>
        <time>1970-01-11T02:00:05Z</time>
      </trkpt>
      <trkpt lat="42.422328" lon="-8.094268">
        <ele>354.034</ele>
        <time>1970-01-11T02:00:05Z</time>
      </trkpt>
      <trkpt lat="42.422303" lon="-8.094547">
        <ele>354.081</ele>
        <time>1970-01-11T02:00:05Z</time>
      </trkpt>
      <trkpt lat="42.422299" lon="-8.094623">
        <ele>354.067</ele>
        <time>1970-01-11T02:00:05Z</time>
      </trkpt>
      <trkpt lat="42.422313" lon="-8.094780">
        <ele>354.045</ele>
        <time>1970-01-11T02:00:05Z</time>
      </trkpt>
      <trkpt lat="42.422336" lon="-8.094858">
        <ele>354.024</ele>
        <time>1970-01-11T02:00:05Z</time>
      </trkpt>
      <trkpt lat="42.422404" lon="-8.095004">
        <ele>354.049</ele>
        <time>1970-01-11T02:00:05Z</time>
      </trkpt>
      <trkpt lat="42.422495" lon="-8.095128">
        <ele>354.087</ele>
        <time>1970-01-11T02:00:05Z</time>
      </trkpt>
      <trkpt lat="42.422607" lon="-8.095226">
        <ele>354.036</ele>
        <time>1970-01-11T02:00:05Z</time>
      </trkpt>
      <trkpt lat="42.422776" lon="-8.095378">
        <ele>354.051</ele>
        <time>1970-01-11T02:00:05Z</time>
      </trkpt>
      <trkpt lat="42.423255" lon="-8.095860">
        <ele>353.801</ele>
        <time>1970-01-11T02:00:05Z</time>
      </trkpt>
      <trkpt lat="42.423311" lon="-8.095905">
        <ele>353.811</ele>
        <time>1970-01-11T02:00:05Z</time>
      </trkpt>
      <trkpt lat="42.423487" lon="-8.095968">
        <ele>353.808</ele>
        <time>1970-01-11T02:00:05Z</time>
      </trkpt>
      <trkpt lat="42.423544" lon="-8.095972">
        <ele>353.876</ele>
        <time>1970-01-11T02:00:05Z</time>
      </trkpt>
      <trkpt lat="42.423778" lon="-8.095937">
        <ele>353.893</ele>
        <time>1970-01-11T02:00:05Z</time>
      </trkpt>
      <trkpt lat="42.423837" lon="-8.095919">
        <ele>353.869</ele>
        <time>1970-01-11T02:00:05Z</time>
      </trkpt>
      <trkpt lat="42.423956" lon="-8.095892">
        <ele>353.637</ele>
        <time>1970-01-11T02:00:05Z</time>
      </trkpt>
      <trkpt lat="42.424139" lon="-8.095910">
        <ele>353.436</ele>
        <time>1970-01-11T02:00:05Z</time>
      </trkpt>
      <trkpt lat="42.424327" lon="-8.096068">
        <ele>353.421</ele>
        <time>1970-01-11T02:00:05Z</time>
      </trkpt>
      <trkpt lat="42.424395" lon="-8.096241">
        <ele>353.649</ele>
        <time>1970-01-11T02:00:05Z</time>
      </trkpt>
      <trkpt lat="42.424402" lon="-8.096309">
        <ele>353.628</ele>
        <time>1970-01-11T02:00:05Z</time>
      </trkpt>
      <trkpt lat="42.424404" lon="-8.096461">
        <ele>353.856</ele>
        <time>1970-01-11T02:00:05Z</time>
      </trkpt>
      <trkpt lat="42.424401" lon="-8.096540">
        <ele>354.059</ele>
        <time>1970-01-11T02:00:05Z</time>
      </trkpt>
      <trkpt lat="42.424386" lon="-8.096698">
        <ele>354.014</ele>
        <time>1970-01-11T02:00:05Z</time>
      </trkpt>
      <trkpt lat="42.424358" lon="-8.096954">
        <ele>353.208</ele>
        <time>1970-01-11T02:00:06Z</time>
      </trkpt>
      <trkpt lat="42.424331" lon="-8.097204">
        <ele>353.016</ele>
        <time>1970-01-11T02:00:06Z</time>
      </trkpt>
      <trkpt lat="42.424319" lon="-8.097420">
        <ele>352.623</ele>
        <time>1970-01-11T02:00:06Z</time>
      </trkpt>
      <trkpt lat="42.424323" lon="-8.097680">
        <ele>351.679</ele>
        <time>1970-01-11T02:00:06Z</time>
      </trkpt>
      <trkpt lat="42.424310" lon="-8.097737">
        <ele>351.467</ele>
        <time>1970-01-11T02:00:06Z</time>
      </trkpt>
      <trkpt lat="42.424225" lon="-8.097894">
        <ele>351.816</ele>
        <time>1970-01-11T02:00:06Z</time>
      </trkpt>
      <trkpt lat="42.424156" lon="-8.097970">
        <ele>352.011</ele>
        <time>1970-01-11T02:00:06Z</time>
      </trkpt>
      <trkpt lat="42.424087" lon="-8.098052">
        <ele>352.469</ele>
        <time>1970-01-11T02:00:06Z</time>
      </trkpt>
      <trkpt lat="42.424051" lon="-8.098094">
        <ele>352.858</ele>
        <time>1970-01-11T02:00:06Z</time>
      </trkpt>
      <trkpt lat="42.423982" lon="-8.098167">
        <ele>353.281</ele>
        <time>1970-01-11T02:00:06Z</time>
      </trkpt>
      <trkpt lat="42.423971" lon="-8.098176">
        <ele>353.261</ele>
        <time>1970-01-11T02:00:06Z</time>
      </trkpt>
      <trkpt lat="42.423969" lon="-8.098195">
        <ele>353.217</ele>
        <time>1970-01-11T02:00:06Z</time>
      </trkpt>
      <trkpt lat="42.423978" lon="-8.098188">
        <ele>353.008</ele>
        <time>1970-01-11T02:00:06Z</time>
      </trkpt>
      <trkpt lat="42.423989" lon="-8.098171">
        <ele>352.869</ele>
        <time>1970-01-11T02:00:06Z</time>
      </trkpt>
      <trkpt lat="42.423980" lon="-8.098134">
        <ele>352.616</ele>
        <time>1970-01-11T02:00:06Z</time>
      </trkpt>
      <trkpt lat="42.423959" lon="-8.098121">
        <ele>352.492</ele>
        <time>1970-01-11T02:00:06Z</time>
      </trkpt>
      <trkpt lat="42.423932" lon="-8.098110">
        <ele>352.490</ele>
        <time>1970-01-11T02:00:06Z</time>
      </trkpt>
      <trkpt lat="42.423904" lon="-8.098095">
        <ele>352.419</ele>
        <time>1970-01-11T02:00:06Z</time>
      </trkpt>
      <trkpt lat="42.423862" lon="-8.098048">
        <ele>352.684</ele>
        <time>1970-01-11T02:00:06Z</time>
      </trkpt>
      <trkpt lat="42.423849" lon="-8.098022">
        <ele>352.642</ele>
        <time>1970-01-11T02:00:06Z</time>
      </trkpt>
      <trkpt lat="42.423832" lon="-8.097969">
        <ele>352.891</ele>
        <time>1970-01-11T02:00:06Z</time>
      </trkpt>
      <trkpt lat="42.423806" lon="-8.097918">
        <ele>353.688</ele>
        <time>1970-01-11T02:00:06Z</time>
      </trkpt>
      <trkpt lat="42.423789" lon="-8.097891">
        <ele>354.224</ele>
        <time>1970-01-11T02:00:06Z</time>
      </trkpt>
      <trkpt lat="42.423773" lon="-8.097866">
        <ele>354.826</ele>
        <time>1970-01-11T02:00:06Z</time>
      </trkpt>
      <trkpt lat="42.423755" lon="-8.097841">
        <ele>355.408</ele>
        <time>1970-01-11T02:00:06Z</time>
      </trkpt>
      <trkpt lat="42.423705" lon="-8.097762">
        <ele>356.869</ele>
        <time>1970-01-11T02:00:06Z</time>
      </trkpt>
      <trkpt lat="42.423656" lon="-8.097695">
        <ele>357.886</ele>
        <time>1970-01-11T02:00:06Z</time>
      </trkpt>
      <trkpt lat="42.423539" lon="-8.097549">
        <ele>359.012</ele>
        <time>1970-01-11T02:00:06Z</time>
      </trkpt>
      <trkpt lat="42.423469" lon="-8.097488">
        <ele>359.650</ele>
        <time>1970-01-11T02:00:06Z</time>
      </trkpt>
      <trkpt lat="42.423375" lon="-8.097461">
        <ele>360.079</ele>
        <time>1970-01-11T02:00:06Z</time>
      </trkpt>
      <trkpt lat="42.423276" lon="-8.097449">
        <ele>360.484</ele>
        <time>1970-01-11T02:00:06Z</time>
      </trkpt>
      <trkpt lat="42.423015" lon="-8.097415">
        <ele>360.862</ele>
        <time>1970-01-11T02:00:06Z</time>
      </trkpt>
      <trkpt lat="42.422909" lon="-8.097376">
        <ele>361.081</ele>
        <time>1970-01-11T02:00:06Z</time>
      </trkpt>
      <trkpt lat="42.422780" lon="-8.097313">
        <ele>361.692</ele>
        <time>1970-01-11T02:00:06Z</time>
      </trkpt>
      <trkpt lat="42.422588" lon="-8.097194">
        <ele>362.273</ele>
        <time>1970-01-11T02:00:06Z</time>
      </trkpt>
      <trkpt lat="42.422555" lon="-8.097169">
        <ele>362.420</ele>
        <time>1970-01-11T02:00:06Z</time>
      </trkpt>
      <trkpt lat="42.422260" lon="-8.096933">
        <ele>363.208</ele>
        <time>1970-01-11T02:00:06Z</time>
      </trkpt>
      <trkpt lat="42.422107" lon="-8.096888">
        <ele>363.420</ele>
        <time>1970-01-11T02:00:06Z</time>
      </trkpt>
      <trkpt lat="42.421964" lon="-8.096992">
        <ele>364.087</ele>
        <time>1970-01-11T02:00:06Z</time>
      </trkpt>
      <trkpt lat="42.421902" lon="-8.097039">
        <ele>364.243</ele>
        <time>1970-01-11T02:00:06Z</time>
      </trkpt>
      <trkpt lat="42.421783" lon="-8.097124">
        <ele>365.031</ele>
        <time>1970-01-11T02:00:06Z</time>
      </trkpt>
      <trkpt lat="42.421750" lon="-8.097145">
        <ele>365.480</ele>
        <time>1970-01-11T02:00:06Z</time>
      </trkpt>
      <trkpt lat="42.421654" lon="-8.097196">
        <ele>366.275</ele>
        <time>1970-01-11T02:00:06Z</time>
      </trkpt>
      <trkpt lat="42.421623" lon="-8.097213">
        <ele>366.463</ele>
        <time>1970-01-11T02:00:06Z</time>
      </trkpt>
      <trkpt lat="42.421597" lon="-8.097231">
        <ele>366.892</ele>
        <time>1970-01-11T02:00:06Z</time>
      </trkpt>
      <trkpt lat="42.421536" lon="-8.097271">
        <ele>367.619</ele>
        <time>1970-01-11T02:00:06Z</time>
      </trkpt>
      <trkpt lat="42.421453" lon="-8.097329">
        <ele>368.609</ele>
        <time>1970-01-11T02:00:06Z</time>
      </trkpt>
      <trkpt lat="42.421431" lon="-8.097351">
        <ele>368.819</ele>
        <time>1970-01-11T02:00:06Z</time>
      </trkpt>
      <trkpt lat="42.421356" lon="-8.097449">
        <ele>370.008</ele>
        <time>1970-01-11T02:00:06Z</time>
      </trkpt>
      <trkpt lat="42.421332" lon="-8.097523">
        <ele>370.682</ele>
        <time>1970-01-11T02:00:06Z</time>
      </trkpt>
      <trkpt lat="42.421309" lon="-8.097659">
        <ele>371.259</ele>
        <time>1970-01-11T02:00:06Z</time>
      </trkpt>
      <trkpt lat="42.421282" lon="-8.097823">
        <ele>371.455</ele>
        <time>1970-01-11T02:00:06Z</time>
      </trkpt>
      <trkpt lat="42.421219" lon="-8.098025">
        <ele>371.493</ele>
        <time>1970-01-11T02:00:06Z</time>
      </trkpt>
      <trkpt lat="42.421185" lon="-8.098095">
        <ele>371.232</ele>
        <time>1970-01-11T02:00:06Z</time>
      </trkpt>
      <trkpt lat="42.421031" lon="-8.098383">
        <ele>369.697</ele>
        <time>1970-01-11T02:00:06Z</time>
      </trkpt>
      <trkpt lat="42.420994" lon="-8.098467">
        <ele>369.235</ele>
        <time>1970-01-11T02:00:06Z</time>
      </trkpt>
      <trkpt lat="42.420921" lon="-8.098634">
        <ele>368.624</ele>
        <time>1970-01-11T02:00:06Z</time>
      </trkpt>
      <trkpt lat="42.420771" lon="-8.098902">
        <ele>367.416</ele>
        <time>1970-01-11T02:00:06Z</time>
      </trkpt>
      <trkpt lat="42.420618" lon="-8.099064">
        <ele>366.676</ele>
        <time>1970-01-11T02:00:06Z</time>
      </trkpt>
      <trkpt lat="42.420584" lon="-8.099101">
        <ele>366.613</ele>
        <time>1970-01-11T02:00:06Z</time>
      </trkpt>
      <trkpt lat="42.420523" lon="-8.099179">
        <ele>366.608</ele>
        <time>1970-01-11T02:00:06Z</time>
      </trkpt>
      <trkpt lat="42.420469" lon="-8.099262">
        <ele>366.872</ele>
        <time>1970-01-11T02:00:06Z</time>
      </trkpt>
      <trkpt lat="42.420447" lon="-8.099302">
        <ele>367.019</ele>
        <time>1970-01-11T02:00:06Z</time>
      </trkpt>
      <trkpt lat="42.420429" lon="-8.099347">
        <ele>367.295</ele>
        <time>1970-01-11T02:00:06Z</time>
      </trkpt>
      <trkpt lat="42.420402" lon="-8.099450">
        <ele>367.663</ele>
        <time>1970-01-11T02:00:06Z</time>
      </trkpt>
      <trkpt lat="42.420382" lon="-8.099562">
        <ele>368.042</ele>
        <time>1970-01-11T02:00:06Z</time>
      </trkpt>
      <trkpt lat="42.420303" lon="-8.099958">
        <ele>368.477</ele>
        <time>1970-01-11T02:00:06Z</time>
      </trkpt>
      <trkpt lat="42.420201" lon="-8.100404">
        <ele>367.635</ele>
        <time>1970-01-11T02:00:06Z</time>
      </trkpt>
      <trkpt lat="42.420130" lon="-8.100683">
        <ele>367.634</ele>
        <time>1970-01-11T02:00:06Z</time>
      </trkpt>
      <trkpt lat="42.420106" lon="-8.100831">
        <ele>367.889</ele>
        <time>1970-01-11T02:00:06Z</time>
      </trkpt>
      <trkpt lat="42.420044" lon="-8.101184">
        <ele>368.406</ele>
        <time>1970-01-11T02:00:06Z</time>
      </trkpt>
      <trkpt lat="42.420023" lon="-8.101249">
        <ele>368.626</ele>
        <time>1970-01-11T02:00:06Z</time>
      </trkpt>
      <trkpt lat="42.419998" lon="-8.101309">
        <ele>368.808</ele>
        <time>1970-01-11T02:00:06Z</time>
      </trkpt>
      <trkpt lat="42.419887" lon="-8.101399">
        <ele>369.649</ele>
        <time>1970-01-11T02:00:06Z</time>
      </trkpt>
      <trkpt lat="42.419850" lon="-8.101409">
        <ele>370.026</ele>
        <time>1970-01-11T02:00:06Z</time>
      </trkpt>
      <trkpt lat="42.419816" lon="-8.101417">
        <ele>370.482</ele>
        <time>1970-01-11T02:00:06Z</time>
      </trkpt>
      <trkpt lat="42.419746" lon="-8.101431">
        <ele>371.460</ele>
        <time>1970-01-11T02:00:06Z</time>
      </trkpt>
      <trkpt lat="42.419708" lon="-8.101441">
        <ele>372.029</ele>
        <time>1970-01-11T02:00:06Z</time>
      </trkpt>
      <trkpt lat="42.419672" lon="-8.101460">
        <ele>372.664</ele>
        <time>1970-01-11T02:00:06Z</time>
      </trkpt>
      <trkpt lat="42.419577" lon="-8.101545">
        <ele>373.812</ele>
        <time>1970-01-11T02:00:06Z</time>
      </trkpt>
      <trkpt lat="42.419463" lon="-8.101743">
        <ele>374.471</ele>
        <time>1970-01-11T02:00:06Z</time>
      </trkpt>
      <trkpt lat="42.419315" lon="-8.102018">
        <ele>374.621</ele>
        <time>1970-01-11T02:00:06Z</time>
      </trkpt>
      <trkpt lat="42.419285" lon="-8.102046">
        <ele>374.641</ele>
        <time>1970-01-11T02:00:06Z</time>
      </trkpt>
      <trkpt lat="42.419178" lon="-8.102000">
        <ele>374.805</ele>
        <time>1970-01-11T02:00:06Z</time>
      </trkpt>
      <trkpt lat="42.419150" lon="-8.101964">
        <ele>374.808</ele>
        <time>1970-01-11T02:00:06Z</time>
      </trkpt>
      <trkpt lat="42.418995" lon="-8.101814">
        <ele>375.683</ele>
        <time>1970-01-11T02:00:06Z</time>
      </trkpt>
      <trkpt lat="42.418927" lon="-8.101774">
        <ele>376.090</ele>
        <time>1970-01-11T02:00:06Z</time>
      </trkpt>
      <trkpt lat="42.418799" lon="-8.101699">
        <ele>377.066</ele>
        <time>1970-01-11T02:00:06Z</time>
      </trkpt>
      <trkpt lat="42.418771" lon="-8.101676">
        <ele>377.284</ele>
        <time>1970-01-11T02:00:06Z</time>
      </trkpt>
      <trkpt lat="42.418598" lon="-8.101602">
        <ele>378.063</ele>
        <time>1970-01-11T02:00:06Z</time>
      </trkpt>
      <trkpt lat="42.418556" lon="-8.101610">
        <ele>378.268</ele>
        <time>1970-01-11T02:00:06Z</time>
      </trkpt>
      <trkpt lat="42.418388" lon="-8.101657">
        <ele>378.856</ele>
        <time>1970-01-11T02:00:06Z</time>
      </trkpt>
      <trkpt lat="42.418280" lon="-8.101707">
        <ele>379.495</ele>
        <time>1970-01-11T02:00:06Z</time>
      </trkpt>
      <trkpt lat="42.418223" lon="-8.101758">
        <ele>379.677</ele>
        <time>1970-01-11T02:00:06Z</time>
      </trkpt>
      <trkpt lat="42.418173" lon="-8.101881">
        <ele>380.461</ele>
        <time>1970-01-11T02:00:06Z</time>
      </trkpt>
      <trkpt lat="42.418164" lon="-8.101923">
        <ele>380.627</ele>
        <time>1970-01-11T02:00:06Z</time>
      </trkpt>
      <trkpt lat="42.418155" lon="-8.102055">
        <ele>381.408</ele>
        <time>1970-01-11T02:00:06Z</time>
      </trkpt>
      <trkpt lat="42.418155" lon="-8.102071">
        <ele>381.658</ele>
        <time>1970-01-11T02:00:06Z</time>
      </trkpt>
      <trkpt lat="42.418130" lon="-8.102173">
        <ele>382.425</ele>
        <time>1970-01-11T02:00:06Z</time>
      </trkpt>
      <trkpt lat="42.418112" lon="-8.102265">
        <ele>383.661</ele>
        <time>1970-01-11T02:00:06Z</time>
      </trkpt>
      <trkpt lat="42.418105" lon="-8.102308">
        <ele>384.059</ele>
        <time>1970-01-11T02:00:06Z</time>
      </trkpt>
      <trkpt lat="42.418093" lon="-8.102349">
        <ele>384.688</ele>
        <time>1970-01-11T02:00:06Z</time>
      </trkpt>
      <trkpt lat="42.418068" lon="-8.102428">
        <ele>385.653</ele>
        <time>1970-01-11T02:00:06Z</time>
      </trkpt>
      <trkpt lat="42.418055" lon="-8.102464">
        <ele>386.241</ele>
        <time>1970-01-11T02:00:06Z</time>
      </trkpt>
      <trkpt lat="42.418044" lon="-8.102500">
        <ele>386.810</ele>
        <time>1970-01-11T02:00:06Z</time>
      </trkpt>
      <trkpt lat="42.418030" lon="-8.102585">
        <ele>387.834</ele>
        <time>1970-01-11T02:00:06Z</time>
      </trkpt>
      <trkpt lat="42.418023" lon="-8.102606">
        <ele>388.055</ele>
        <time>1970-01-11T02:00:06Z</time>
      </trkpt>
      <trkpt lat="42.417982" lon="-8.102682">
        <ele>389.210</ele>
        <time>1970-01-11T02:00:06Z</time>
      </trkpt>
      <trkpt lat="42.417969" lon="-8.102696">
        <ele>389.608</ele>
        <time>1970-01-11T02:00:06Z</time>
      </trkpt>
      <trkpt lat="42.417909" lon="-8.102734">
        <ele>390.444</ele>
        <time>1970-01-11T02:00:06Z</time>
      </trkpt>
      <trkpt lat="42.417845" lon="-8.102755">
        <ele>391.211</ele>
        <time>1970-01-11T02:00:06Z</time>
      </trkpt>
      <trkpt lat="42.417801" lon="-8.102763">
        <ele>391.687</ele>
        <time>1970-01-11T02:00:06Z</time>
      </trkpt>
      <trkpt lat="42.417660" lon="-8.102785">
        <ele>392.645</ele>
        <time>1970-01-11T02:00:06Z</time>
      </trkpt>
      <trkpt lat="42.417637" lon="-8.102789">
        <ele>392.864</ele>
        <time>1970-01-11T02:00:06Z</time>
      </trkpt>
      <trkpt lat="42.417496" lon="-8.102800">
        <ele>393.629</ele>
        <time>1970-01-11T02:00:06Z</time>
      </trkpt>
      <trkpt lat="42.417474" lon="-8.102802">
        <ele>393.887</ele>
        <time>1970-01-11T02:00:06Z</time>
      </trkpt>
      <trkpt lat="42.417382" lon="-8.102811">
        <ele>394.676</ele>
        <time>1970-01-11T02:00:06Z</time>
      </trkpt>
      <trkpt lat="42.417319" lon="-8.102808">
        <ele>395.669</ele>
        <time>1970-01-11T02:00:06Z</time>
      </trkpt>
      <trkpt lat="42.417295" lon="-8.102806">
        <ele>395.804</ele>
        <time>1970-01-11T02:00:06Z</time>
      </trkpt>
      <trkpt lat="42.417175" lon="-8.102804">
        <ele>396.824</ele>
        <time>1970-01-11T02:00:06Z</time>
      </trkpt>
      <trkpt lat="42.417153" lon="-8.102808">
        <ele>397.008</ele>
        <time>1970-01-11T02:00:06Z</time>
      </trkpt>
      <trkpt lat="42.417050" lon="-8.102833">
        <ele>397.857</ele>
        <time>1970-01-11T02:00:06Z</time>
      </trkpt>
      <trkpt lat="42.416965" lon="-8.102849">
        <ele>399.014</ele>
        <time>1970-01-11T02:00:06Z</time>
      </trkpt>
      <trkpt lat="42.416944" lon="-8.102854">
        <ele>399.250</ele>
        <time>1970-01-11T02:00:06Z</time>
      </trkpt>
      <trkpt lat="42.416842" lon="-8.102934">
        <ele>400.038</ele>
        <time>1970-01-11T02:00:06Z</time>
      </trkpt>
      <trkpt lat="42.416773" lon="-8.103118">
        <ele>400.817</ele>
        <time>1970-01-11T02:00:06Z</time>
      </trkpt>
      <trkpt lat="42.416703" lon="-8.103184">
        <ele>401.262</ele>
        <time>1970-01-11T02:00:06Z</time>
      </trkpt>
      <trkpt lat="42.416652" lon="-8.103221">
        <ele>401.440</ele>
        <time>1970-01-11T02:00:06Z</time>
      </trkpt>
      <trkpt lat="42.416548" lon="-8.103288">
        <ele>402.249</ele>
        <time>1970-01-11T02:00:06Z</time>
      </trkpt>
      <trkpt lat="42.416441" lon="-8.103353">
        <ele>403.436</ele>
        <time>1970-01-11T02:00:06Z</time>
      </trkpt>
      <trkpt lat="42.416364" lon="-8.103406">
        <ele>403.817</ele>
        <time>1970-01-11T02:00:06Z</time>
      </trkpt>
      <trkpt lat="42.416314" lon="-8.103447">
        <ele>404.418</ele>
        <time>1970-01-11T02:00:06Z</time>
      </trkpt>
      <trkpt lat="42.416212" lon="-8.103510">
        <ele>405.408</ele>
        <time>1970-01-11T02:00:06Z</time>
      </trkpt>
      <trkpt lat="42.416037" lon="-8.103584">
        <ele>406.654</ele>
        <time>1970-01-11T02:00:06Z</time>
      </trkpt>
      <trkpt lat="42.415974" lon="-8.103605">
        <ele>407.091</ele>
        <time>1970-01-11T02:00:06Z</time>
      </trkpt>
      <trkpt lat="42.415658" lon="-8.103747">
        <ele>407.467</ele>
        <time>1970-01-11T02:00:06Z</time>
      </trkpt>
      <trkpt lat="42.415544" lon="-8.103793">
        <ele>407.685</ele>
        <time>1970-01-11T02:00:06Z</time>
      </trkpt>
      <trkpt lat="42.415484" lon="-8.103846">
        <ele>407.614</ele>
        <time>1970-01-11T02:00:06Z</time>
      </trkpt>
      <trkpt lat="42.415471" lon="-8.103891">
        <ele>407.849</ele>
        <time>1970-01-11T02:00:06Z</time>
      </trkpt>
      <trkpt lat="42.415458" lon="-8.104046">
        <ele>408.047</ele>
        <time>1970-01-11T02:00:06Z</time>
      </trkpt>
      <trkpt lat="42.415453" lon="-8.104101">
        <ele>408.296</ele>
        <time>1970-01-11T02:00:06Z</time>
      </trkpt>
      <trkpt lat="42.415440" lon="-8.104155">
        <ele>408.438</ele>
        <time>1970-01-11T02:00:06Z</time>
      </trkpt>
      <trkpt lat="42.415408" lon="-8.104263">
        <ele>408.670</ele>
        <time>1970-01-11T02:00:06Z</time>
      </trkpt>
      <trkpt lat="42.415368" lon="-8.104368">
        <ele>408.817</ele>
        <time>1970-01-11T02:00:06Z</time>
      </trkpt>
      <trkpt lat="42.415290" lon="-8.104515">
        <ele>409.208</ele>
        <time>1970-01-11T02:00:06Z</time>
      </trkpt>
      <trkpt lat="42.415166" lon="-8.104733">
        <ele>409.664</ele>
        <time>1970-01-11T02:00:06Z</time>
      </trkpt>
      <trkpt lat="42.415110" lon="-8.104855">
        <ele>410.251</ele>
        <time>1970-01-11T02:00:06Z</time>
      </trkpt>
      <trkpt lat="42.415041" lon="-8.104949">
        <ele>411.097</ele>
        <time>1970-01-11T02:00:06Z</time>
      </trkpt>
      <trkpt lat="42.414965" lon="-8.105037">
        <ele>412.095</ele>
        <time>1970-01-11T02:00:06Z</time>
      </trkpt>
      <trkpt lat="42.414938" lon="-8.105066">
        <ele>412.264</ele>
        <time>1970-01-11T02:00:06Z</time>
      </trkpt>
      <trkpt lat="42.414817" lon="-8.105168">
        <ele>413.299</ele>
        <time>1970-01-11T02:00:06Z</time>
      </trkpt>
      <trkpt lat="42.414746" lon="-8.105237">
        <ele>413.627</ele>
        <time>1970-01-11T02:00:06Z</time>
      </trkpt>
      <trkpt lat="42.414727" lon="-8.105260">
        <ele>413.676</ele>
        <time>1970-01-11T02:00:06Z</time>
      </trkpt>
      <trkpt lat="42.414727" lon="-8.105260">
        <ele>413.442</ele>
        <time>1970-01-11T02:00:06Z</time>
      </trkpt>
      <trkpt lat="42.414727" lon="-8.105260">
        <ele>413.422</ele>
        <time>1970-01-11T02:00:06Z</time>
      </trkpt>
      <trkpt lat="42.414712" lon="-8.105274">
        <ele>413.214</ele>
        <time>1970-01-11T02:00:06Z</time>
      </trkpt>
      <trkpt lat="42.414688" lon="-8.105299">
        <ele>413.208</ele>
        <time>1970-01-11T02:00:06Z</time>
      </trkpt>
      <trkpt lat="42.414672" lon="-8.105317">
        <ele>413.245</ele>
        <time>1970-01-11T02:00:06Z</time>
      </trkpt>
      <trkpt lat="42.414654" lon="-8.105342">
        <ele>413.422</ele>
        <time>1970-01-11T02:00:06Z</time>
      </trkpt>
      <trkpt lat="42.414630" lon="-8.105369">
        <ele>413.468</ele>
        <time>1970-01-11T02:00:06Z</time>
      </trkpt>
      <trkpt lat="42.414575" lon="-8.105438">
        <ele>413.466</ele>
        <time>1970-01-11T02:00:06Z</time>
      </trkpt>
      <trkpt lat="42.414515" lon="-8.105504">
        <ele>413.445</ele>
        <time>1970-01-11T02:00:06Z</time>
      </trkpt>
      <trkpt lat="42.414460" lon="-8.105575">
        <ele>413.230</ele>
        <time>1970-01-11T02:00:06Z</time>
      </trkpt>
      <trkpt lat="42.414410" lon="-8.105651">
        <ele>413.258</ele>
        <time>1970-01-11T02:00:06Z</time>
      </trkpt>
      <trkpt lat="42.414385" lon="-8.105686">
        <ele>413.067</ele>
        <time>1970-01-11T02:00:06Z</time>
      </trkpt>
      <trkpt lat="42.414295" lon="-8.105799">
        <ele>412.888</ele>
        <time>1970-01-11T02:00:06Z</time>
      </trkpt>
      <trkpt lat="42.414166" lon="-8.105893">
        <ele>412.624</ele>
        <time>1970-01-11T02:00:06Z</time>
      </trkpt>
      <trkpt lat="42.414069" lon="-8.105953">
        <ele>412.426</ele>
        <time>1970-01-11T02:00:06Z</time>
      </trkpt>
      <trkpt lat="42.414020" lon="-8.105978">
        <ele>412.208</ele>
        <time>1970-01-11T02:00:06Z</time>
      </trkpt>
      <trkpt lat="42.413815" lon="-8.106098">
        <ele>411.479</ele>
        <time>1970-01-11T02:00:06Z</time>
      </trkpt>
      <trkpt lat="42.413758" lon="-8.106131">
        <ele>411.046</ele>
        <time>1970-01-11T02:00:06Z</time>
      </trkpt>
      <trkpt lat="42.413501" lon="-8.106240">
        <ele>410.092</ele>
        <time>1970-01-11T02:00:06Z</time>
      </trkpt>
      <trkpt lat="42.413355" lon="-8.106292">
        <ele>409.460</ele>
        <time>1970-01-11T02:00:06Z</time>
      </trkpt>
      <trkpt lat="42.413278" lon="-8.106313">
        <ele>409.259</ele>
        <time>1970-01-11T02:00:06Z</time>
      </trkpt>
      <trkpt lat="42.413202" lon="-8.106335">
        <ele>408.844</ele>
        <time>1970-01-11T02:00:06Z</time>
      </trkpt>
      <trkpt lat="42.413131" lon="-8.106364">
        <ele>408.482</ele>
        <time>1970-01-11T02:00:06Z</time>
      </trkpt>
      <trkpt lat="42.413062" lon="-8.106398">
        <ele>408.091</ele>
        <time>1970-01-11T02:00:06Z</time>
      </trkpt>
      <trkpt lat="42.412990" lon="-8.106415">
        <ele>407.431</ele>
        <time>1970-01-11T02:00:06Z</time>
      </trkpt>
      <trkpt lat="42.412915" lon="-8.106417">
        <ele>406.861</ele>
        <time>1970-01-11T02:00:06Z</time>
      </trkpt>
      <trkpt lat="42.412838" lon="-8.106410">
        <ele>406.207</ele>
        <time>1970-01-11T02:00:06Z</time>
      </trkpt>
      <trkpt lat="42.412684" lon="-8.106371">
        <ele>405.408</ele>
        <time>1970-01-11T02:00:06Z</time>
      </trkpt>
      <trkpt lat="42.412607" lon="-8.106353">
        <ele>405.244</ele>
        <time>1970-01-11T02:00:06Z</time>
      </trkpt>
      <trkpt lat="42.412527" lon="-8.106332">
        <ele>404.821</ele>
        <time>1970-01-11T02:00:06Z</time>
      </trkpt>
      <trkpt lat="42.412445" lon="-8.106314">
        <ele>404.437</ele>
        <time>1970-01-11T02:00:06Z</time>
      </trkpt>
      <trkpt lat="42.412360" lon="-8.106297">
        <ele>404.045</ele>
        <time>1970-01-11T02:00:06Z</time>
      </trkpt>
      <trkpt lat="42.412274" lon="-8.106268">
        <ele>403.624</ele>
        <time>1970-01-11T02:00:06Z</time>
      </trkpt>
      <trkpt lat="42.412191" lon="-8.106224">
        <ele>403.219</ele>
        <time>1970-01-11T02:00:06Z</time>
      </trkpt>
      <trkpt lat="42.412112" lon="-8.106177">
        <ele>402.827</ele>
        <time>1970-01-11T02:00:06Z</time>
      </trkpt>
      <trkpt lat="42.412039" lon="-8.106135">
        <ele>402.626</ele>
        <time>1970-01-11T02:00:06Z</time>
      </trkpt>
      <trkpt lat="42.411976" lon="-8.106101">
        <ele>401.499</ele>
        <time>1970-01-11T02:00:06Z</time>
      </trkpt>
      <trkpt lat="42.411873" lon="-8.106051">
        <ele>400.007</ele>
        <time>1970-01-11T02:00:06Z</time>
      </trkpt>
      <trkpt lat="42.411828" lon="-8.106041">
        <ele>399.427</ele>
        <time>1970-01-11T02:00:06Z</time>
      </trkpt>
      <trkpt lat="42.411783" lon="-8.106047">
        <ele>398.808</ele>
        <time>1970-01-11T02:00:06Z</time>
      </trkpt>
      <trkpt lat="42.411740" lon="-8.106066">
        <ele>398.280</ele>
        <time>1970-01-11T02:00:06Z</time>
      </trkpt>
      <trkpt lat="42.411648" lon="-8.106119">
        <ele>397.837</ele>
        <time>1970-01-11T02:00:06Z</time>
      </trkpt>
      <trkpt lat="42.411597" lon="-8.106148">
        <ele>397.663</ele>
        <time>1970-01-11T02:00:06Z</time>
      </trkpt>
      <trkpt lat="42.411430" lon="-8.106243">
        <ele>397.871</ele>
        <time>1970-01-11T02:00:06Z</time>
      </trkpt>
      <trkpt lat="42.411374" lon="-8.106288">
        <ele>397.820</ele>
        <time>1970-01-11T02:00:06Z</time>
      </trkpt>
      <trkpt lat="42.411288" lon="-8.106420">
        <ele>397.665</ele>
        <time>1970-01-11T02:00:06Z</time>
      </trkpt>
      <trkpt lat="42.411234" lon="-8.106584">
        <ele>397.273</ele>
        <time>1970-01-11T02:00:06Z</time>
      </trkpt>
      <trkpt lat="42.411208" lon="-8.106671">
        <ele>397.032</ele>
        <time>1970-01-11T02:00:06Z</time>
      </trkpt>
      <trkpt lat="42.411183" lon="-8.106764">
        <ele>396.875</ele>
        <time>1970-01-11T02:00:06Z</time>
      </trkpt>
      <trkpt lat="42.411112" lon="-8.106951">
        <ele>396.828</ele>
        <time>1970-01-11T02:00:06Z</time>
      </trkpt>
      <trkpt lat="42.411067" lon="-8.107039">
        <ele>396.620</ele>
        <time>1970-01-11T02:00:06Z</time>
      </trkpt>
      <trkpt lat="42.411023" lon="-8.107126">
        <ele>396.408</ele>
        <time>1970-01-11T02:00:06Z</time>
      </trkpt>
      <trkpt lat="42.410936" lon="-8.107303">
        <ele>395.288</ele>
        <time>1970-01-11T02:00:06Z</time>
      </trkpt>
      <trkpt lat="42.410794" lon="-8.107561">
        <ele>394.055</ele>
        <time>1970-01-11T02:00:06Z</time>
      </trkpt>
      <trkpt lat="42.410697" lon="-8.107730">
        <ele>393.421</ele>
        <time>1970-01-11T02:00:06Z</time>
      </trkpt>
      <trkpt lat="42.410592" lon="-8.107880">
        <ele>392.869</ele>
        <time>1970-01-11T02:00:06Z</time>
      </trkpt>
      <trkpt lat="42.410476" lon="-8.108010">
        <ele>392.298</ele>
        <time>1970-01-11T02:00:06Z</time>
      </trkpt>
      <trkpt lat="42.410415" lon="-8.108061">
        <ele>391.853</ele>
        <time>1970-01-11T02:00:06Z</time>
      </trkpt>
      <trkpt lat="42.410352" lon="-8.108104">
        <ele>391.661</ele>
        <time>1970-01-11T02:00:06Z</time>
      </trkpt>
      <trkpt lat="42.410290" lon="-8.108147">
        <ele>391.670</ele>
        <time>1970-01-11T02:00:06Z</time>
      </trkpt>
      <trkpt lat="42.410120" lon="-8.108282">
        <ele>391.278</ele>
        <time>1970-01-11T02:00:06Z</time>
      </trkpt>
      <trkpt lat="42.410069" lon="-8.108335">
        <ele>391.233</ele>
        <time>1970-01-11T02:00:06Z</time>
      </trkpt>
      <trkpt lat="42.410021" lon="-8.108393">
        <ele>391.026</ele>
        <time>1970-01-11T02:00:06Z</time>
      </trkpt>
      <trkpt lat="42.409859" lon="-8.108655">
        <ele>390.808</ele>
        <time>1970-01-11T02:00:06Z</time>
      </trkpt>
      <trkpt lat="42.409739" lon="-8.108839">
        <ele>390.898</ele>
        <time>1970-01-11T02:00:06Z</time>
      </trkpt>
      <trkpt lat="42.409706" lon="-8.108898">
        <ele>390.835</ele>
        <time>1970-01-11T02:00:06Z</time>
      </trkpt>
      <trkpt lat="42.409677" lon="-8.109041">
        <ele>391.011</ele>
        <time>1970-01-11T02:00:06Z</time>
      </trkpt>
      <trkpt lat="42.409685" lon="-8.109217">
        <ele>391.029</ele>
        <time>1970-01-11T02:00:06Z</time>
      </trkpt>
      <trkpt lat="42.409687" lon="-8.109308">
        <ele>391.058</ele>
        <time>1970-01-11T02:00:06Z</time>
      </trkpt>
      <trkpt lat="42.409689" lon="-8.109404">
        <ele>390.853</ele>
        <time>1970-01-11T02:00:06Z</time>
      </trkpt>
      <trkpt lat="42.409692" lon="-8.109501">
        <ele>390.661</ele>
        <time>1970-01-11T02:00:06Z</time>
      </trkpt>
      <trkpt lat="42.409701" lon="-8.109694">
        <ele>390.290</ele>
        <time>1970-01-11T02:00:06Z</time>
      </trkpt>
      <trkpt lat="42.409719" lon="-8.109883">
        <ele>389.644</ele>
        <time>1970-01-11T02:00:06Z</time>
      </trkpt>
      <trkpt lat="42.409737" lon="-8.109973">
        <ele>389.605</ele>
        <time>1970-01-11T02:00:06Z</time>
      </trkpt>
      <trkpt lat="42.409804" lon="-8.110149">
        <ele>389.415</ele>
        <time>1970-01-11T02:00:06Z</time>
      </trkpt>
      <trkpt lat="42.409877" lon="-8.110261">
        <ele>389.208</ele>
        <time>1970-01-11T02:00:06Z</time>
      </trkpt>
      <trkpt lat="42.409901" lon="-8.110284">
        <ele>389.045</ele>
        <time>1970-01-11T02:00:06Z</time>
      </trkpt>
      <trkpt lat="42.409975" lon="-8.110336">
        <ele>388.432</ele>
        <time>1970-01-11T02:00:06Z</time>
      </trkpt>
      <trkpt lat="42.410186" lon="-8.110463">
        <ele>387.278</ele>
        <time>1970-01-11T02:00:06Z</time>
      </trkpt>
      <trkpt lat="42.410246" lon="-8.110508">
        <ele>387.086</ele>
        <time>1970-01-11T02:00:06Z</time>
      </trkpt>
      <trkpt lat="42.410366" lon="-8.110616">
        <ele>386.245</ele>
        <time>1970-01-11T02:00:06Z</time>
      </trkpt>
      <trkpt lat="42.410494" lon="-8.110746">
        <ele>385.050</ele>
        <time>1970-01-11T02:00:06Z</time>
      </trkpt>
      <trkpt lat="42.410606" lon="-8.110924">
        <ele>383.258</ele>
        <time>1970-01-11T02:00:06Z</time>
      </trkpt>
      <trkpt lat="42.410653" lon="-8.111039">
        <ele>382.457</ele>
        <time>1970-01-11T02:00:06Z</time>
      </trkpt>
      <trkpt lat="42.410700" lon="-8.111161">
        <ele>381.645</ele>
        <time>1970-01-11T02:00:06Z</time>
      </trkpt>
      <trkpt lat="42.410779" lon="-8.111409">
        <ele>379.847</ele>
        <time>1970-01-11T02:00:06Z</time>
      </trkpt>
      <trkpt lat="42.410806" lon="-8.111530">
        <ele>378.811</ele>
        <time>1970-01-11T02:00:06Z</time>
      </trkpt>
      <trkpt lat="42.410823" lon="-8.111652">
        <ele>378.208</ele>
        <time>1970-01-11T02:00:06Z</time>
      </trkpt>
      <trkpt lat="42.410793" lon="-8.112023">
        <ele>377.065</ele>
        <time>1970-01-11T02:00:06Z</time>
      </trkpt>
      <trkpt lat="42.410770" lon="-8.112147">
        <ele>376.642</ele>
        <time>1970-01-11T02:00:06Z</time>
      </trkpt>
      <trkpt lat="42.410752" lon="-8.112274">
        <ele>375.888</ele>
        <time>1970-01-11T02:00:06Z</time>
      </trkpt>
      <trkpt lat="42.410743" lon="-8.112402">
        <ele>375.276</ele>
        <time>1970-01-11T02:00:06Z</time>
      </trkpt>
      <trkpt lat="42.410742" lon="-8.112530">
        <ele>374.615</ele>
        <time>1970-01-11T02:00:06Z</time>
      </trkpt>
      <trkpt lat="42.410740" lon="-8.112655">
        <ele>373.270</ele>
        <time>1970-01-11T02:00:06Z</time>
      </trkpt>
      <trkpt lat="42.410727" lon="-8.112767">
        <ele>372.458</ele>
        <time>1970-01-11T02:00:06Z</time>
      </trkpt>
      <trkpt lat="42.410696" lon="-8.112863">
        <ele>371.837</ele>
        <time>1970-01-11T02:00:06Z</time>
      </trkpt>
      <trkpt lat="42.410652" lon="-8.112950">
        <ele>371.496</ele>
        <time>1970-01-11T02:00:06Z</time>
      </trkpt>
      <trkpt lat="42.410604" lon="-8.113035">
        <ele>370.831</ele>
        <time>1970-01-11T02:00:06Z</time>
      </trkpt>
      <trkpt lat="42.410502" lon="-8.113207">
        <ele>369.624</ele>
        <time>1970-01-11T02:00:06Z</time>
      </trkpt>
      <trkpt lat="42.410385" lon="-8.113385">
        <ele>368.408</ele>
        <time>1970-01-11T02:00:06Z</time>
      </trkpt>
      <trkpt lat="42.410247" lon="-8.113579">
        <ele>367.060</ele>
        <time>1970-01-11T02:00:06Z</time>
      </trkpt>
      <trkpt lat="42.410126" lon="-8.113793">
        <ele>365.297</ele>
        <time>1970-01-11T02:00:06Z</time>
      </trkpt>
      <trkpt lat="42.410035" lon="-8.113998">
        <ele>363.673</ele>
        <time>1970-01-11T02:00:06Z</time>
      </trkpt>
      <trkpt lat="42.409989" lon="-8.114091">
        <ele>362.821</ele>
        <time>1970-01-11T02:00:06Z</time>
      </trkpt>
      <trkpt lat="42.409938" lon="-8.114173">
        <ele>362.250</ele>
        <time>1970-01-11T02:00:06Z</time>
      </trkpt>
      <trkpt lat="42.409751" lon="-8.114391">
        <ele>361.225</ele>
        <time>1970-01-11T02:00:06Z</time>
      </trkpt>
      <trkpt lat="42.409679" lon="-8.114463">
        <ele>360.693</ele>
        <time>1970-01-11T02:00:06Z</time>
      </trkpt>
      <trkpt lat="42.409603" lon="-8.114532">
        <ele>359.832</ele>
        <time>1970-01-11T02:00:06Z</time>
      </trkpt>
      <trkpt lat="42.409432" lon="-8.114662">
        <ele>358.023</ele>
        <time>1970-01-11T02:00:06Z</time>
      </trkpt>
      <trkpt lat="42.409343" lon="-8.114717">
        <ele>355.883</ele>
        <time>1970-01-11T02:00:06Z</time>
      </trkpt>
      <trkpt lat="42.409265" lon="-8.114771">
        <ele>354.811</ele>
        <time>1970-01-11T02:00:06Z</time>
      </trkpt>
      <trkpt lat="42.409132" lon="-8.114880">
        <ele>353.008</ele>
        <time>1970-01-11T02:00:06Z</time>
      </trkpt>
      <trkpt lat="42.409075" lon="-8.114945">
        <ele>352.223</ele>
        <time>1970-01-11T02:00:06Z</time>
      </trkpt>
      <trkpt lat="42.409021" lon="-8.115008">
        <ele>351.420</ele>
        <time>1970-01-11T02:00:06Z</time>
      </trkpt>
      <trkpt lat="42.408969" lon="-8.115070">
        <ele>350.256</ele>
        <time>1970-01-11T02:00:06Z</time>
      </trkpt>
      <trkpt lat="42.408917" lon="-8.115130">
        <ele>349.024</ele>
        <time>1970-01-11T02:00:06Z</time>
      </trkpt>
      <trkpt lat="42.408867" lon="-8.115184">
        <ele>347.883</ele>
        <time>1970-01-11T02:00:06Z</time>
      </trkpt>
      <trkpt lat="42.408820" lon="-8.115235">
        <ele>346.638</ele>
        <time>1970-01-11T02:00:06Z</time>
      </trkpt>
      <trkpt lat="42.408779" lon="-8.115278">
        <ele>345.486</ele>
        <time>1970-01-11T02:00:06Z</time>
      </trkpt>
      <trkpt lat="42.408750" lon="-8.115322">
        <ele>344.235</ele>
        <time>1970-01-11T02:00:06Z</time>
      </trkpt>
      <trkpt lat="42.408736" lon="-8.115361">
        <ele>343.087</ele>
        <time>1970-01-11T02:00:06Z</time>
      </trkpt>
      <trkpt lat="42.408738" lon="-8.115406">
        <ele>341.842</ele>
        <time>1970-01-11T02:00:06Z</time>
      </trkpt>
      <trkpt lat="42.408747" lon="-8.115465">
        <ele>340.626</ele>
        <time>1970-01-11T02:00:06Z</time>
      </trkpt>
      <trkpt lat="42.408764" lon="-8.115534">
        <ele>339.408</ele>
        <time>1970-01-11T02:00:06Z</time>
      </trkpt>
      <trkpt lat="42.408793" lon="-8.115603">
        <ele>338.499</ele>
        <time>1970-01-11T02:00:06Z</time>
      </trkpt>
      <trkpt lat="42.408883" lon="-8.115732">
        <ele>336.876</ele>
        <time>1970-01-11T02:00:06Z</time>
      </trkpt>
      <trkpt lat="42.408922" lon="-8.115784">
        <ele>336.082</ele>
        <time>1970-01-11T02:00:06Z</time>
      </trkpt>
      <trkpt lat="42.408951" lon="-8.115827">
        <ele>335.410</ele>
        <time>1970-01-11T02:00:06Z</time>
      </trkpt>
      <trkpt lat="42.408960" lon="-8.115866">
        <ele>334.669</ele>
        <time>1970-01-11T02:00:06Z</time>
      </trkpt>
      <trkpt lat="42.408951" lon="-8.115910">
        <ele>333.824</ele>
        <time>1970-01-11T02:00:06Z</time>
      </trkpt>
      <trkpt lat="42.408894" lon="-8.115998">
        <ele>330.832</ele>
        <time>1970-01-11T02:00:06Z</time>
      </trkpt>
      <trkpt lat="42.408850" lon="-8.116036">
        <ele>330.051</ele>
        <time>1970-01-11T02:00:06Z</time>
      </trkpt>
      <trkpt lat="42.408804" lon="-8.116062">
        <ele>329.216</ele>
        <time>1970-01-11T02:00:06Z</time>
      </trkpt>
      <trkpt lat="42.408757" lon="-8.116082">
        <ele>328.676</ele>
        <time>1970-01-11T02:00:06Z</time>
      </trkpt>
      <trkpt lat="42.408711" lon="-8.116099">
        <ele>327.813</ele>
        <time>1970-01-11T02:00:06Z</time>
      </trkpt>
      <trkpt lat="42.408664" lon="-8.116112">
        <ele>327.208</ele>
        <time>1970-01-11T02:00:06Z</time>
      </trkpt>
      <trkpt lat="42.408616" lon="-8.116122">
        <ele>326.642</ele>
        <time>1970-01-11T02:00:06Z</time>
      </trkpt>
      <trkpt lat="42.408516" lon="-8.116142">
        <ele>325.469</ele>
        <time>1970-01-11T02:00:06Z</time>
      </trkpt>
      <trkpt lat="42.408410" lon="-8.116167">
        <ele>324.295</ele>
        <time>1970-01-11T02:00:06Z</time>
      </trkpt>
      <trkpt lat="42.408353" lon="-8.116185">
        <ele>323.463</ele>
        <time>1970-01-11T02:00:06Z</time>
      </trkpt>
      <trkpt lat="42.408295" lon="-8.116206">
        <ele>322.662</ele>
        <time>1970-01-11T02:00:06Z</time>
      </trkpt>
      <trkpt lat="42.408238" lon="-8.116227">
        <ele>321.447</ele>
        <time>1970-01-11T02:00:06Z</time>
      </trkpt>
      <trkpt lat="42.408185" lon="-8.116247">
        <ele>320.475</ele>
        <time>1970-01-11T02:00:06Z</time>
      </trkpt>
      <trkpt lat="42.408138" lon="-8.116265">
        <ele>319.214</ele>
        <time>1970-01-11T02:00:06Z</time>
      </trkpt>
      <trkpt lat="42.408095" lon="-8.116282">
        <ele>318.275</ele>
        <time>1970-01-11T02:00:06Z</time>
      </trkpt>
      <trkpt lat="42.408059" lon="-8.116297">
        <ele>317.428</ele>
        <time>1970-01-11T02:00:06Z</time>
      </trkpt>
      <trkpt lat="42.408023" lon="-8.116308">
        <ele>316.620</ele>
        <time>1970-01-11T02:00:06Z</time>
      </trkpt>
      <trkpt lat="42.407985" lon="-8.116316">
        <ele>315.608</ele>
        <time>1970-01-11T02:00:06Z</time>
      </trkpt>
      <trkpt lat="42.407939" lon="-8.116317">
        <ele>314.838</ele>
        <time>1970-01-11T02:00:06Z</time>
      </trkpt>
      <trkpt lat="42.407890" lon="-8.116317">
        <ele>314.055</ele>
        <time>1970-01-11T02:00:06Z</time>
      </trkpt>
      <trkpt lat="42.407786" lon="-8.116337">
        <ele>312.491</ele>
        <time>1970-01-11T02:00:06Z</time>
      </trkpt>
      <trkpt lat="42.407724" lon="-8.116362">
        <ele>311.249</ele>
        <time>1970-01-11T02:00:06Z</time>
      </trkpt>
      <trkpt lat="42.407655" lon="-8.116393">
        <ele>310.468</ele>
        <time>1970-01-11T02:00:06Z</time>
      </trkpt>
      <trkpt lat="42.407578" lon="-8.116423">
        <ele>309.673</ele>
        <time>1970-01-11T02:00:06Z</time>
      </trkpt>
      <trkpt lat="42.407410" lon="-8.116457">
        <ele>307.841</ele>
        <time>1970-01-11T02:00:06Z</time>
      </trkpt>
      <trkpt lat="42.407328" lon="-8.116457">
        <ele>306.820</ele>
        <time>1970-01-11T02:00:06Z</time>
      </trkpt>
      <trkpt lat="42.407189" lon="-8.116413">
        <ele>305.258</ele>
        <time>1970-01-11T02:00:06Z</time>
      </trkpt>
      <trkpt lat="42.407131" lon="-8.116400">
        <ele>304.652</ele>
        <time>1970-01-11T02:00:06Z</time>
      </trkpt>
      <trkpt lat="42.407082" lon="-8.116392">
        <ele>304.217</ele>
        <time>1970-01-11T02:00:06Z</time>
      </trkpt>
      <trkpt lat="42.407039" lon="-8.116387">
        <ele>304.008</ele>
        <time>1970-01-11T02:00:06Z</time>
      </trkpt>
      <trkpt lat="42.406966" lon="-8.116400">
        <ele>304.066</ele>
        <time>1970-01-11T02:00:06Z</time>
      </trkpt>
      <trkpt lat="42.406927" lon="-8.116421">
        <ele>304.243</ele>
        <time>1970-01-11T02:00:06Z</time>
      </trkpt>
      <trkpt lat="42.406798" lon="-8.116461">
        <ele>304.489</ele>
        <time>1970-01-11T02:00:06Z</time>
      </trkpt>
      <trkpt lat="42.406752" lon="-8.116481">
        <ele>304.427</ele>
        <time>1970-01-11T02:00:06Z</time>
      </trkpt>
      <trkpt lat="42.406611" lon="-8.116562">
        <ele>304.286</ele>
        <time>1970-01-11T02:00:06Z</time>
      </trkpt>
      <trkpt lat="42.406557" lon="-8.116601">
        <ele>304.041</ele>
        <time>1970-01-11T02:00:06Z</time>
      </trkpt>
      <trkpt lat="42.406447" lon="-8.116697">
        <ele>303.699</ele>
        <time>1970-01-11T02:00:06Z</time>
      </trkpt>
      <trkpt lat="42.406395" lon="-8.116751">
        <ele>302.428</ele>
        <time>1970-01-11T02:00:06Z</time>
      </trkpt>
      <trkpt lat="42.406344" lon="-8.116784">
        <ele>301.676</ele>
        <time>1970-01-11T02:00:06Z</time>
      </trkpt>
      <trkpt lat="42.406288" lon="-8.116787">
        <ele>300.690</ele>
        <time>1970-01-11T02:00:06Z</time>
      </trkpt>
      <trkpt lat="42.406230" lon="-8.116763">
        <ele>299.419</ele>
        <time>1970-01-11T02:00:06Z</time>
      </trkpt>
      <trkpt lat="42.406169" lon="-8.116734">
        <ele>298.408</ele>
        <time>1970-01-11T02:00:06Z</time>
      </trkpt>
      <trkpt lat="42.406108" lon="-8.116699">
        <ele>297.448</ele>
        <time>1970-01-11T02:00:06Z</time>
      </trkpt>
      <trkpt lat="42.406046" lon="-8.116666">
        <ele>296.425</ele>
        <time>1970-01-11T02:00:06Z</time>
      </trkpt>
      <trkpt lat="42.405982" lon="-8.116635">
        <ele>295.851</ele>
        <time>1970-01-11T02:00:06Z</time>
      </trkpt>
      <trkpt lat="42.405850" lon="-8.116576">
        <ele>294.479</ele>
        <time>1970-01-11T02:00:06Z</time>
      </trkpt>
      <trkpt lat="42.405723" lon="-8.116542">
        <ele>294.088</ele>
        <time>1970-01-11T02:00:06Z</time>
      </trkpt>
      <trkpt lat="42.405665" lon="-8.116534">
        <ele>293.843</ele>
        <time>1970-01-11T02:00:06Z</time>
      </trkpt>
      <trkpt lat="42.405550" lon="-8.116542">
        <ele>294.061</ele>
        <time>1970-01-11T02:00:06Z</time>
      </trkpt>
      <trkpt lat="42.405434" lon="-8.116561">
        <ele>294.420</ele>
        <time>1970-01-11T02:00:06Z</time>
      </trkpt>
      <trkpt lat="42.405368" lon="-8.116577">
        <ele>294.611</ele>
        <time>1970-01-11T02:00:06Z</time>
      </trkpt>
      <trkpt lat="42.405175" lon="-8.116594">
        <ele>294.821</ele>
        <time>1970-01-11T02:00:06Z</time>
      </trkpt>
      <trkpt lat="42.405052" lon="-8.116601">
        <ele>294.803</ele>
        <time>1970-01-11T02:00:06Z</time>
      </trkpt>
      <trkpt lat="42.404858" lon="-8.116699">
        <ele>293.808</ele>
        <time>1970-01-11T02:00:06Z</time>
      </trkpt>
      <trkpt lat="42.404805" lon="-8.116758">
        <ele>293.442</ele>
        <time>1970-01-11T02:00:06Z</time>
      </trkpt>
      <trkpt lat="42.404714" lon="-8.116881">
        <ele>293.059</ele>
        <time>1970-01-11T02:00:06Z</time>
      </trkpt>
      <trkpt lat="42.404665" lon="-8.116924">
        <ele>292.815</ele>
        <time>1970-01-11T02:00:06Z</time>
      </trkpt>
      <trkpt lat="42.404573" lon="-8.116979">
        <ele>292.833</ele>
        <time>1970-01-11T02:00:06Z</time>
      </trkpt>
      <trkpt lat="42.404495" lon="-8.116984">
        <ele>293.052</ele>
        <time>1970-01-11T02:00:06Z</time>
      </trkpt>
      <trkpt lat="42.404439" lon="-8.116991">
        <ele>293.467</ele>
        <time>1970-01-11T02:00:06Z</time>
      </trkpt>
      <trkpt lat="42.404406" lon="-8.117006">
        <ele>294.025</ele>
        <time>1970-01-11T02:00:06Z</time>
      </trkpt>
      <trkpt lat="42.404372" lon="-8.116996">
        <ele>294.254</ele>
        <time>1970-01-11T02:00:06Z</time>
      </trkpt>
      <trkpt lat="42.404339" lon="-8.116975">
        <ele>294.663</ele>
        <time>1970-01-11T02:00:06Z</time>
      </trkpt>
      <trkpt lat="42.404327" lon="-8.116972">
        <ele>294.644</ele>
        <time>1970-01-11T02:00:06Z</time>
      </trkpt>
      <trkpt lat="42.404295" lon="-8.116962">
        <ele>294.818</ele>
        <time>1970-01-11T02:00:06Z</time>
      </trkpt>
      <trkpt lat="42.404246" lon="-8.116935">
        <ele>295.608</ele>
        <time>1970-01-11T02:00:06Z</time>
      </trkpt>
      <trkpt lat="42.404246" lon="-8.116935">
        <ele>296.237</ele>
        <time>1970-01-11T02:00:06Z</time>
      </trkpt>
      <trkpt lat="42.404246" lon="-8.116935">
        <ele>295.864</ele>
        <time>1970-01-11T02:00:06Z</time>
      </trkpt>
      <trkpt lat="42.404246" lon="-8.116935">
        <ele>295.640</ele>
        <time>1970-01-11T02:00:06Z</time>
      </trkpt>
      <trkpt lat="42.404246" lon="-8.116935">
        <ele>295.628</ele>
        <time>1970-01-11T02:00:06Z</time>
      </trkpt>
      <trkpt lat="42.404246" lon="-8.116935">
        <ele>295.657</ele>
        <time>1970-01-11T02:00:06Z</time>
      </trkpt>
      <trkpt lat="42.404246" lon="-8.116935">
        <ele>295.882</ele>
        <time>1970-01-11T02:00:06Z</time>
      </trkpt>
      <trkpt lat="42.404246" lon="-8.116935">
        <ele>295.830</ele>
        <time>1970-01-11T02:00:06Z</time>
      </trkpt>
      <trkpt lat="42.404246" lon="-8.116935">
        <ele>295.669</ele>
        <time>1970-01-11T02:00:06Z</time>
      </trkpt>
      <trkpt lat="42.404246" lon="-8.116935">
        <ele>295.619</ele>
        <time>1970-01-11T02:00:06Z</time>
      </trkpt>
      <trkpt lat="42.404246" lon="-8.116935">
        <ele>295.609</ele>
        <time>1970-01-11T02:00:06Z</time>
      </trkpt>
      <trkpt lat="42.404246" lon="-8.116935">
        <ele>295.819</ele>
        <time>1970-01-11T02:00:06Z</time>
      </trkpt>
      <trkpt lat="42.404244" lon="-8.116933">
        <ele>295.808</ele>
        <time>1970-01-11T02:00:06Z</time>
      </trkpt>
      <trkpt lat="42.404244" lon="-8.116933">
        <ele>296.222</ele>
        <time>1970-01-11T02:00:06Z</time>
      </trkpt>
      <trkpt lat="42.404244" lon="-8.116933">
        <ele>296.249</ele>
        <time>1970-01-11T02:00:06Z</time>
      </trkpt>
      <trkpt lat="42.404244" lon="-8.116933">
        <ele>296.425</ele>
        <time>1970-01-11T02:00:06Z</time>
      </trkpt>
      <trkpt lat="42.404244" lon="-8.116933">
        <ele>296.493</ele>
        <time>1970-01-11T02:00:06Z</time>
      </trkpt>
      <trkpt lat="42.404244" lon="-8.116933">
        <ele>296.452</ele>
        <time>1970-01-11T02:00:06Z</time>
      </trkpt>
      <trkpt lat="42.404244" lon="-8.116933">
        <ele>296.487</ele>
        <time>1970-01-11T02:00:06Z</time>
      </trkpt>
      <trkpt lat="42.404244" lon="-8.116933">
        <ele>296.495</ele>
        <time>1970-01-11T02:00:06Z</time>
      </trkpt>
      <trkpt lat="42.404244" lon="-8.116933">
        <ele>296.614</ele>
        <time>1970-01-11T02:00:06Z</time>
      </trkpt>
      <trkpt lat="42.404244" lon="-8.116933">
        <ele>296.622</ele>
        <time>1970-01-11T02:00:06Z</time>
      </trkpt>
      <trkpt lat="42.404244" lon="-8.116933">
        <ele>296.862</ele>
        <time>1970-01-11T02:00:06Z</time>
      </trkpt>
      <trkpt lat="42.404244" lon="-8.116933">
        <ele>296.808</ele>
        <time>1970-01-11T02:00:06Z</time>
      </trkpt>
      <trkpt lat="42.404244" lon="-8.116933">
        <ele>296.808</ele>
        <time>1970-01-11T02:00:06Z</time>
      </trkpt>
      <trkpt lat="42.404240" lon="-8.116935">
        <ele>296.863</ele>
        <time>1970-01-11T02:00:06Z</time>
      </trkpt>
      <trkpt lat="42.404240" lon="-8.116935">
        <ele>296.890</ele>
        <time>1970-01-11T02:00:06Z</time>
      </trkpt>
      <trkpt lat="42.404240" lon="-8.116935">
        <ele>296.896</ele>
        <time>1970-01-11T02:00:06Z</time>
      </trkpt>
      <trkpt lat="42.404240" lon="-8.116935">
        <ele>296.634</ele>
        <time>1970-01-11T02:00:06Z</time>
      </trkpt>
      <trkpt lat="42.404240" lon="-8.116935">
        <ele>296.683</ele>
        <time>1970-01-11T02:00:06Z</time>
      </trkpt>
      <trkpt lat="42.404240" lon="-8.116935">
        <ele>296.698</ele>
        <time>1970-01-11T02:00:06Z</time>
      </trkpt>
      <trkpt lat="42.404240" lon="-8.116935">
        <ele>296.676</ele>
        <time>1970-01-11T02:00:06Z</time>
      </trkpt>
      <trkpt lat="42.404240" lon="-8.116935">
        <ele>296.685</ele>
        <time>1970-01-11T02:00:06Z</time>
      </trkpt>
      <trkpt lat="42.404240" lon="-8.116935">
        <ele>296.446</ele>
        <time>1970-01-11T02:00:06Z</time>
      </trkpt>
      <trkpt lat="42.404240" lon="-8.116935">
        <ele>296.488</ele>
        <time>1970-01-11T02:00:06Z</time>
      </trkpt>
      <trkpt lat="42.404240" lon="-8.116935">
        <ele>296.416</ele>
        <time>1970-01-11T02:00:06Z</time>
      </trkpt>
      <trkpt lat="42.404240" lon="-8.116935">
        <ele>296.408</ele>
        <time>1970-01-11T02:00:06Z</time>
      </trkpt>
      <trkpt lat="42.404240" lon="-8.116935">
        <ele>296.695</ele>
        <time>1970-01-11T02:00:06Z</time>
      </trkpt>
      <trkpt lat="42.404240" lon="-8.116935">
        <ele>296.682</ele>
        <time>1970-01-11T02:00:06Z</time>
      </trkpt>
      <trkpt lat="42.404235" lon="-8.116933">
        <ele>296.688</ele>
        <time>1970-01-11T02:00:06Z</time>
      </trkpt>
      <trkpt lat="42.404235" lon="-8.116933">
        <ele>296.636</ele>
        <time>1970-01-11T02:00:06Z</time>
      </trkpt>
      <trkpt lat="42.404235" lon="-8.116933">
        <ele>296.695</ele>
        <time>1970-01-11T02:00:06Z</time>
      </trkpt>
      <trkpt lat="42.404235" lon="-8.116933">
        <ele>296.640</ele>
        <time>1970-01-11T02:00:06Z</time>
      </trkpt>
      <trkpt lat="42.404235" lon="-8.116933">
        <ele>296.678</ele>
        <time>1970-01-11T02:00:06Z</time>
      </trkpt>
      <trkpt lat="42.404235" lon="-8.116933">
        <ele>296.497</ele>
        <time>1970-01-11T02:00:06Z</time>
      </trkpt>
      <trkpt lat="42.404235" lon="-8.116933">
        <ele>296.413</ele>
        <time>1970-01-11T02:00:06Z</time>
      </trkpt>
      <trkpt lat="42.404235" lon="-8.116933">
        <ele>296.443</ele>
        <time>1970-01-11T02:00:06Z</time>
      </trkpt>
      <trkpt lat="42.404235" lon="-8.116933">
        <ele>296.607</ele>
        <time>1970-01-11T02:00:06Z</time>
      </trkpt>
      <trkpt lat="42.404235" lon="-8.116933">
        <ele>296.608</ele>
        <time>1970-01-11T02:00:06Z</time>
      </trkpt>
      <trkpt lat="42.404235" lon="-8.116933">
        <ele>296.642</ele>
        <time>1970-01-11T02:00:06Z</time>
      </trkpt>
      <trkpt lat="42.404235" lon="-8.116933">
        <ele>296.639</ele>
        <time>1970-01-11T02:00:06Z</time>
      </trkpt>
      <trkpt lat="42.404235" lon="-8.116933">
        <ele>296.685</ele>
        <time>1970-01-11T02:00:06Z</time>
      </trkpt>
      <trkpt lat="42.404235" lon="-8.116933">
        <ele>296.673</ele>
        <time>1970-01-11T02:00:06Z</time>
      </trkpt>
      <trkpt lat="42.404235" lon="-8.116933">
        <ele>296.632</ele>
        <time>1970-01-11T02:00:06Z</time>
      </trkpt>
      <trkpt lat="42.404235" lon="-8.116933">
        <ele>296.617</ele>
        <time>1970-01-11T02:00:06Z</time>
      </trkpt>
      <trkpt lat="42.404235" lon="-8.116933">
        <ele>296.665</ele>
        <time>1970-01-11T02:00:06Z</time>
      </trkpt>
      <trkpt lat="42.404235" lon="-8.116933">
        <ele>296.614</ele>
        <time>1970-01-11T02:00:06Z</time>
      </trkpt>
      <trkpt lat="42.404235" lon="-8.116933">
        <ele>296.614</ele>
        <time>1970-01-11T02:00:06Z</time>
      </trkpt>
      <trkpt lat="42.404232" lon="-8.116928">
        <ele>296.854</ele>
        <time>1970-01-11T02:00:06Z</time>
      </trkpt>
      <trkpt lat="42.404232" lon="-8.116928">
        <ele>296.809</ele>
        <time>1970-01-11T02:00:06Z</time>
      </trkpt>
      <trkpt lat="42.404232" lon="-8.116928">
        <ele>296.808</ele>
        <time>1970-01-11T02:00:06Z</time>
      </trkpt>
      <trkpt lat="42.404232" lon="-8.116928">
        <ele>296.832</ele>
        <time>1970-01-11T02:00:06Z</time>
      </trkpt>
      <trkpt lat="42.404232" lon="-8.116928">
        <ele>296.879</ele>
        <time>1970-01-11T02:00:06Z</time>
      </trkpt>
      <trkpt lat="42.404232" lon="-8.116928">
        <ele>296.845</ele>
        <time>1970-01-11T02:00:06Z</time>
      </trkpt>
      <trkpt lat="42.404229" lon="-8.116929">
        <ele>297.043</ele>
        <time>1970-01-11T02:00:06Z</time>
      </trkpt>
      <trkpt lat="42.404205" lon="-8.116928">
        <ele>297.042</ele>
        <time>1970-01-11T02:00:06Z</time>
      </trkpt>
      <trkpt lat="42.404180" lon="-8.116924">
        <ele>297.057</ele>
        <time>1970-01-11T02:00:06Z</time>
      </trkpt>
      <trkpt lat="42.404131" lon="-8.116915">
        <ele>297.085</ele>
        <time>1970-01-11T02:00:06Z</time>
      </trkpt>
      <trkpt lat="42.404077" lon="-8.116891">
        <ele>296.824</ele>
        <time>1970-01-11T02:00:06Z</time>
      </trkpt>
      <trkpt lat="42.404010" lon="-8.116866">
        <ele>296.888</ele>
        <time>1970-01-11T02:00:06Z</time>
      </trkpt>
      <trkpt lat="42.403961" lon="-8.116830">
        <ele>296.624</ele>
        <time>1970-01-11T02:00:06Z</time>
      </trkpt>
      <trkpt lat="42.403896" lon="-8.116787">
        <ele>296.426</ele>
        <time>1970-01-11T02:00:06Z</time>
      </trkpt>
      <trkpt lat="42.403852" lon="-8.116775">
        <ele>296.008</ele>
        <time>1970-01-11T02:00:06Z</time>
      </trkpt>
      <trkpt lat="42.403742" lon="-8.116780">
        <ele>295.289</ele>
        <time>1970-01-11T02:00:06Z</time>
      </trkpt>
      <trkpt lat="42.403681" lon="-8.116805">
        <ele>294.826</ele>
        <time>1970-01-11T02:00:06Z</time>
      </trkpt>
      <trkpt lat="42.403592" lon="-8.116907">
        <ele>294.092</ele>
        <time>1970-01-11T02:00:06Z</time>
      </trkpt>
      <trkpt lat="42.403569" lon="-8.116962">
        <ele>293.450</ele>
        <time>1970-01-11T02:00:06Z</time>
      </trkpt>
      <trkpt lat="42.403553" lon="-8.117015">
        <ele>292.819</ele>
        <time>1970-01-11T02:00:06Z</time>
      </trkpt>
      <trkpt lat="42.403541" lon="-8.117063">
        <ele>292.084</ele>
        <time>1970-01-11T02:00:06Z</time>
      </trkpt>
      <trkpt lat="42.403531" lon="-8.117102">
        <ele>291.832</ele>
        <time>1970-01-11T02:00:06Z</time>
      </trkpt>
      <trkpt lat="42.403522" lon="-8.117138">
        <ele>291.631</ele>
        <time>1970-01-11T02:00:06Z</time>
      </trkpt>
      <trkpt lat="42.403521" lon="-8.117174">
        <ele>291.871</ele>
        <time>1970-01-11T02:00:06Z</time>
      </trkpt>
      <trkpt lat="42.403522" lon="-8.117210">
        <ele>291.841</ele>
        <time>1970-01-11T02:00:06Z</time>
      </trkpt>
      <trkpt lat="42.403524" lon="-8.117245">
        <ele>291.815</ele>
        <time>1970-01-11T02:00:06Z</time>
      </trkpt>
      <trkpt lat="42.403553" lon="-8.117300">
        <ele>292.008</ele>
        <time>1970-01-11T02:00:06Z</time>
      </trkpt>
      <trkpt lat="42.403603" lon="-8.117424">
        <ele>292.438</ele>
        <time>1970-01-11T02:00:06Z</time>
      </trkpt>
      <trkpt lat="42.403619" lon="-8.117459">
        <ele>292.415</ele>
        <time>1970-01-11T02:00:06Z</time>
      </trkpt>
      <trkpt lat="42.403625" lon="-8.117493">
        <ele>292.861</ele>
        <time>1970-01-11T02:00:06Z</time>
      </trkpt>
      <trkpt lat="42.403644" lon="-8.117565">
        <ele>293.249</ele>
        <time>1970-01-11T02:00:06Z</time>
      </trkpt>
      <trkpt lat="42.403670" lon="-8.117661">
        <ele>293.888</ele>
        <time>1970-01-11T02:00:06Z</time>
      </trkpt>
      <trkpt lat="42.403669" lon="-8.117711">
        <ele>294.213</ele>
        <time>1970-01-11T02:00:06Z</time>
      </trkpt>
      <trkpt lat="42.403646" lon="-8.117820">
        <ele>294.631</ele>
        <time>1970-01-11T02:00:06Z</time>
      </trkpt>
      <trkpt lat="42.403620" lon="-8.117850">
        <ele>294.880</ele>
        <time>1970-01-11T02:00:06Z</time>
      </trkpt>
      <trkpt lat="42.403572" lon="-8.117887">
        <ele>295.256</ele>
        <time>1970-01-11T02:00:06Z</time>
      </trkpt>
      <trkpt lat="42.403553" lon="-8.117896">
        <ele>295.259</ele>
        <time>1970-01-11T02:00:06Z</time>
      </trkpt>
      <trkpt lat="42.403496" lon="-8.117912">
        <ele>295.614</ele>
        <time>1970-01-11T02:00:06Z</time>
      </trkpt>
      <trkpt lat="42.403428" lon="-8.117887">
        <ele>295.808</ele>
        <time>1970-01-11T02:00:06Z</time>
      </trkpt>
      <trkpt lat="42.403308" lon="-8.117784">
        <ele>296.436</ele>
        <time>1970-01-11T02:00:06Z</time>
      </trkpt>
      <trkpt lat="42.403215" lon="-8.117714">
        <ele>297.083</ele>
        <time>1970-01-11T02:00:06Z</time>
      </trkpt>
      <trkpt lat="42.403154" lon="-8.117696">
        <ele>297.419</ele>
        <time>1970-01-11T02:00:06Z</time>
      </trkpt>
      <trkpt lat="42.403108" lon="-8.117675">
        <ele>297.637</ele>
        <time>1970-01-11T02:00:06Z</time>
      </trkpt>
      <trkpt lat="42.403062" lon="-8.117662">
        <ele>298.096</ele>
        <time>1970-01-11T02:00:07Z</time>
      </trkpt>
      <trkpt lat="42.403026" lon="-8.117644">
        <ele>298.471</ele>
        <time>1970-01-11T02:00:07Z</time>
      </trkpt>
      <trkpt lat="42.403008" lon="-8.117640">
        <ele>298.619</ele>
        <time>1970-01-11T02:00:07Z</time>
      </trkpt>
      <trkpt lat="42.402970" lon="-8.117636">
        <ele>299.288</ele>
        <time>1970-01-11T02:00:07Z</time>
      </trkpt>
      <trkpt lat="42.402900" lon="-8.117670">
        <ele>300.446</ele>
        <time>1970-01-11T02:00:07Z</time>
      </trkpt>
      <trkpt lat="42.402859" lon="-8.117764">
        <ele>301.288</ele>
        <time>1970-01-11T02:00:07Z</time>
      </trkpt>
      <trkpt lat="42.402854" lon="-8.117788">
        <ele>301.416</ele>
        <time>1970-01-11T02:00:07Z</time>
      </trkpt>
      <trkpt lat="42.402850" lon="-8.117853">
        <ele>302.408</ele>
        <time>1970-01-11T02:00:07Z</time>
      </trkpt>
      <trkpt lat="42.402845" lon="-8.117877">
        <ele>302.885</ele>
        <time>1970-01-11T02:00:07Z</time>
      </trkpt>
      <trkpt lat="42.402837" lon="-8.117904">
        <ele>303.252</ele>
        <time>1970-01-11T02:00:07Z</time>
      </trkpt>
      <trkpt lat="42.402828" lon="-8.117963">
        <ele>303.818</ele>
        <time>1970-01-11T02:00:07Z</time>
      </trkpt>
      <trkpt lat="42.402837" lon="-8.118094">
        <ele>305.026</ele>
        <time>1970-01-11T02:00:07Z</time>
      </trkpt>
      <trkpt lat="42.402834" lon="-8.118166">
        <ele>305.495</ele>
        <time>1970-01-11T02:00:07Z</time>
      </trkpt>
      <trkpt lat="42.402837" lon="-8.118217">
        <ele>306.090</ele>
        <time>1970-01-11T02:00:07Z</time>
      </trkpt>
      <trkpt lat="42.402838" lon="-8.118230">
        <ele>307.018</ele>
        <time>1970-01-11T02:00:07Z</time>
      </trkpt>
      <trkpt lat="42.402838" lon="-8.118230">
        <ele>306.877</ele>
        <time>1970-01-11T02:00:07Z</time>
      </trkpt>
      <trkpt lat="42.402838" lon="-8.118230">
        <ele>306.669</ele>
        <time>1970-01-11T02:00:07Z</time>
      </trkpt>
      <trkpt lat="42.402838" lon="-8.118230">
        <ele>306.204</ele>
        <time>1970-01-11T02:00:07Z</time>
      </trkpt>
      <trkpt lat="42.402838" lon="-8.118230">
        <ele>306.224</ele>
        <time>1970-01-11T02:00:07Z</time>
      </trkpt>
      <trkpt lat="42.402838" lon="-8.118230">
        <ele>306.408</ele>
        <time>1970-01-11T02:00:07Z</time>
      </trkpt>
      <trkpt lat="42.402838" lon="-8.118230">
        <ele>306.477</ele>
        <time>1970-01-11T02:00:07Z</time>
      </trkpt>
      <trkpt lat="42.402838" lon="-8.118230">
        <ele>306.454</ele>
        <time>1970-01-11T02:00:07Z</time>
      </trkpt>
      <trkpt lat="42.402839" lon="-8.118233">
        <ele>306.420</ele>
        <time>1970-01-11T02:00:07Z</time>
      </trkpt>
      <trkpt lat="42.402839" lon="-8.118233">
        <ele>306.438</ele>
        <time>1970-01-11T02:00:07Z</time>
      </trkpt>
      <trkpt lat="42.402839" lon="-8.118233">
        <ele>306.627</ele>
        <time>1970-01-11T02:00:07Z</time>
      </trkpt>
      <trkpt lat="42.402839" lon="-8.118233">
        <ele>306.862</ele>
        <time>1970-01-11T02:00:07Z</time>
      </trkpt>
      <trkpt lat="42.402839" lon="-8.118233">
        <ele>307.070</ele>
        <time>1970-01-11T02:00:07Z</time>
      </trkpt>
      <trkpt lat="42.402839" lon="-8.118233">
        <ele>307.029</ele>
        <time>1970-01-11T02:00:07Z</time>
      </trkpt>
      <trkpt lat="42.402839" lon="-8.118241">
        <ele>307.012</ele>
        <time>1970-01-11T02:00:07Z</time>
      </trkpt>
      <trkpt lat="42.402834" lon="-8.118343">
        <ele>306.832</ele>
        <time>1970-01-11T02:00:07Z</time>
      </trkpt>
      <trkpt lat="42.402817" lon="-8.118414">
        <ele>306.805</ele>
        <time>1970-01-11T02:00:07Z</time>
      </trkpt>
      <trkpt lat="42.402740" lon="-8.118546">
        <ele>306.408</ele>
        <time>1970-01-11T02:00:07Z</time>
      </trkpt>
      <trkpt lat="42.402645" lon="-8.118660">
        <ele>305.432</ele>
        <time>1970-01-11T02:00:07Z</time>
      </trkpt>
      <trkpt lat="42.402612" lon="-8.118728">
        <ele>304.839</ele>
        <time>1970-01-11T02:00:07Z</time>
      </trkpt>
      <trkpt lat="42.402596" lon="-8.118795">
        <ele>304.025</ele>
        <time>1970-01-11T02:00:07Z</time>
      </trkpt>
      <trkpt lat="42.402589" lon="-8.118836">
        <ele>303.473</ele>
        <time>1970-01-11T02:00:07Z</time>
      </trkpt>
      <trkpt lat="42.402594" lon="-8.118868">
        <ele>303.032</ele>
        <time>1970-01-11T02:00:07Z</time>
      </trkpt>
      <trkpt lat="42.402602" lon="-8.118893">
        <ele>302.487</ele>
        <time>1970-01-11T02:00:07Z</time>
      </trkpt>
      <trkpt lat="42.402630" lon="-8.118942">
        <ele>302.215</ele>
        <time>1970-01-11T02:00:07Z</time>
      </trkpt>
      <trkpt lat="42.402650" lon="-8.118962">
        <ele>302.274</ele>
        <time>1970-01-11T02:00:07Z</time>
      </trkpt>
      <trkpt lat="42.402672" lon="-8.118982">
        <ele>302.473</ele>
        <time>1970-01-11T02:00:07Z</time>
      </trkpt>
      <trkpt lat="42.402723" lon="-8.119026">
        <ele>302.885</ele>
        <time>1970-01-11T02:00:07Z</time>
      </trkpt>
      <trkpt lat="42.402776" lon="-8.119080">
        <ele>303.013</ele>
        <time>1970-01-11T02:00:07Z</time>
      </trkpt>
      <trkpt lat="42.402830" lon="-8.119134">
        <ele>303.408</ele>
        <time>1970-01-11T02:00:07Z</time>
      </trkpt>
      <trkpt lat="42.402853" lon="-8.119167">
        <ele>303.498</ele>
        <time>1970-01-11T02:00:07Z</time>
      </trkpt>
      <trkpt lat="42.402900" lon="-8.119230">
        <ele>303.635</ele>
        <time>1970-01-11T02:00:07Z</time>
      </trkpt>
      <trkpt lat="42.402942" lon="-8.119283">
        <ele>304.011</ele>
        <time>1970-01-11T02:00:07Z</time>
      </trkpt>
      <trkpt lat="42.402964" lon="-8.119307">
        <ele>304.499</ele>
        <time>1970-01-11T02:00:07Z</time>
      </trkpt>
      <trkpt lat="42.402982" lon="-8.119334">
        <ele>304.688</ele>
        <time>1970-01-11T02:00:07Z</time>
      </trkpt>
      <trkpt lat="42.403022" lon="-8.119392">
        <ele>305.233</ele>
        <time>1970-01-11T02:00:07Z</time>
      </trkpt>
      <trkpt lat="42.403040" lon="-8.119424">
        <ele>305.461</ele>
        <time>1970-01-11T02:00:07Z</time>
      </trkpt>
      <trkpt lat="42.403058" lon="-8.119457">
        <ele>305.840</ele>
        <time>1970-01-11T02:00:07Z</time>
      </trkpt>
      <trkpt lat="42.403111" lon="-8.119572">
        <ele>306.865</ele>
        <time>1970-01-11T02:00:07Z</time>
      </trkpt>
      <trkpt lat="42.403129" lon="-8.119605">
        <ele>307.068</ele>
        <time>1970-01-11T02:00:07Z</time>
      </trkpt>
      <trkpt lat="42.403148" lon="-8.119636">
        <ele>307.214</ele>
        <time>1970-01-11T02:00:07Z</time>
      </trkpt>
      <trkpt lat="42.403198" lon="-8.119694">
        <ele>307.608</ele>
        <time>1970-01-11T02:00:07Z</time>
      </trkpt>
      <trkpt lat="42.403247" lon="-8.119729">
        <ele>308.267</ele>
        <time>1970-01-11T02:00:07Z</time>
      </trkpt>
      <trkpt lat="42.403274" lon="-8.119748">
        <ele>308.444</ele>
        <time>1970-01-11T02:00:07Z</time>
      </trkpt>
      <trkpt lat="42.403326" lon="-8.119800">
        <ele>309.230</ele>
        <time>1970-01-11T02:00:07Z</time>
      </trkpt>
      <trkpt lat="42.403381" lon="-8.119916">
        <ele>310.418</ele>
        <time>1970-01-11T02:00:07Z</time>
      </trkpt>
      <trkpt lat="42.403445" lon="-8.120073">
        <ele>311.417</ele>
        <time>1970-01-11T02:00:07Z</time>
      </trkpt>
      <trkpt lat="42.403511" lon="-8.120190">
        <ele>312.232</ele>
        <time>1970-01-11T02:00:07Z</time>
      </trkpt>
      <trkpt lat="42.403556" lon="-8.120250">
        <ele>312.610</ele>
        <time>1970-01-11T02:00:07Z</time>
      </trkpt>
      <trkpt lat="42.403645" lon="-8.120371">
        <ele>312.889</ele>
        <time>1970-01-11T02:00:07Z</time>
      </trkpt>
      <trkpt lat="42.403846" lon="-8.120589">
        <ele>313.052</ele>
        <time>1970-01-11T02:00:07Z</time>
      </trkpt>
      <trkpt lat="42.404112" lon="-8.120887">
        <ele>313.453</ele>
        <time>1970-01-11T02:00:07Z</time>
      </trkpt>
      <trkpt lat="42.404167" lon="-8.120970">
        <ele>313.608</ele>
        <time>1970-01-11T02:00:07Z</time>
      </trkpt>
      <trkpt lat="42.404260" lon="-8.121129">
        <ele>314.408</ele>
        <time>1970-01-11T02:00:07Z</time>
      </trkpt>
      <trkpt lat="42.404275" lon="-8.121171">
        <ele>315.036</ele>
        <time>1970-01-11T02:00:07Z</time>
      </trkpt>
      <trkpt lat="42.404303" lon="-8.121362">
        <ele>316.223</ele>
        <time>1970-01-11T02:00:07Z</time>
      </trkpt>
      <trkpt lat="42.404308" lon="-8.121411">
        <ele>316.249</ele>
        <time>1970-01-11T02:00:07Z</time>
      </trkpt>
      <trkpt lat="42.404307" lon="-8.121755">
        <ele>317.257</ele>
        <time>1970-01-11T02:00:07Z</time>
      </trkpt>
      <trkpt lat="42.404304" lon="-8.121802">
        <ele>317.286</ele>
        <time>1970-01-11T02:00:07Z</time>
      </trkpt>
      <trkpt lat="42.404256" lon="-8.122043">
        <ele>317.671</ele>
        <time>1970-01-11T02:00:07Z</time>
      </trkpt>
      <trkpt lat="42.404176" lon="-8.122251">
        <ele>317.649</ele>
        <time>1970-01-11T02:00:07Z</time>
      </trkpt>
      <trkpt lat="42.404150" lon="-8.122289">
        <ele>317.668</ele>
        <time>1970-01-11T02:00:07Z</time>
      </trkpt>
      <trkpt lat="42.404027" lon="-8.122464">
        <ele>317.021</ele>
        <time>1970-01-11T02:00:07Z</time>
      </trkpt>
      <trkpt lat="42.403824" lon="-8.122739">
        <ele>318.041</ele>
        <time>1970-01-11T02:00:07Z</time>
      </trkpt>
      <trkpt lat="42.403765" lon="-8.122806">
        <ele>318.205</ele>
        <time>1970-01-11T02:00:07Z</time>
      </trkpt>
      <trkpt lat="42.403639" lon="-8.122923">
        <ele>319.008</ele>
        <time>1970-01-11T02:00:07Z</time>
      </trkpt>
      <trkpt lat="42.403565" lon="-8.122974">
        <ele>319.433</ele>
        <time>1970-01-11T02:00:07Z</time>
      </trkpt>
      <trkpt lat="42.403445" lon="-8.123064">
        <ele>320.470</ele>
        <time>1970-01-11T02:00:07Z</time>
      </trkpt>
      <trkpt lat="42.403311" lon="-8.123198">
        <ele>321.236</ele>
        <time>1970-01-11T02:00:07Z</time>
      </trkpt>
      <trkpt lat="42.403259" lon="-8.123254">
        <ele>321.614</ele>
        <time>1970-01-11T02:00:07Z</time>
      </trkpt>
      <trkpt lat="42.403161" lon="-8.123471">
        <ele>322.483</ele>
        <time>1970-01-11T02:00:07Z</time>
      </trkpt>
      <trkpt lat="42.403132" lon="-8.123577">
        <ele>322.818</ele>
        <time>1970-01-11T02:00:07Z</time>
      </trkpt>
      <trkpt lat="42.403076" lon="-8.123770">
        <ele>323.856</ele>
        <time>1970-01-11T02:00:07Z</time>
      </trkpt>
      <trkpt lat="42.403061" lon="-8.123823">
        <ele>324.075</ele>
        <time>1970-01-11T02:00:07Z</time>
      </trkpt>
      <trkpt lat="42.402941" lon="-8.124142">
        <ele>325.077</ele>
        <time>1970-01-11T02:00:07Z</time>
      </trkpt>
      <trkpt lat="42.402897" lon="-8.124273">
        <ele>324.861</ele>
        <time>1970-01-11T02:00:07Z</time>
      </trkpt>
      <trkpt lat="42.402871" lon="-8.124485">
        <ele>324.427</ele>
        <time>1970-01-11T02:00:07Z</time>
      </trkpt>
      <trkpt lat="42.402827" lon="-8.124817">
        <ele>323.808</ele>
        <time>1970-01-11T02:00:07Z</time>
      </trkpt>
      <trkpt lat="42.402782" lon="-8.124928">
        <ele>323.858</ele>
        <time>1970-01-11T02:00:07Z</time>
      </trkpt>
      <trkpt lat="42.402723" lon="-8.125020">
        <ele>324.035</ele>
        <time>1970-01-11T02:00:07Z</time>
      </trkpt>
      <trkpt lat="42.402694" lon="-8.125075">
        <ele>324.091</ele>
        <time>1970-01-11T02:00:07Z</time>
      </trkpt>
      <trkpt lat="42.402444" lon="-8.125464">
        <ele>324.459</ele>
        <time>1970-01-11T02:00:07Z</time>
      </trkpt>
      <trkpt lat="42.402227" lon="-8.125617">
        <ele>324.658</ele>
        <time>1970-01-11T02:00:07Z</time>
      </trkpt>
      <trkpt lat="42.402055" lon="-8.125681">
        <ele>324.613</ele>
        <time>1970-01-11T02:00:07Z</time>
      </trkpt>
      <trkpt lat="42.401999" lon="-8.125732">
        <ele>324.661</ele>
        <time>1970-01-11T02:00:07Z</time>
      </trkpt>
      <trkpt lat="42.401884" lon="-8.125944">
        <ele>324.410</ele>
        <time>1970-01-11T02:00:07Z</time>
      </trkpt>
      <trkpt lat="42.401837" lon="-8.126106">
        <ele>324.445</ele>
        <time>1970-01-11T02:00:07Z</time>
      </trkpt>
      <trkpt lat="42.401810" lon="-8.126172">
        <ele>324.447</ele>
        <time>1970-01-11T02:00:07Z</time>
      </trkpt>
      <trkpt lat="42.401751" lon="-8.126304">
        <ele>324.211</ele>
        <time>1970-01-11T02:00:07Z</time>
      </trkpt>
      <trkpt lat="42.401646" lon="-8.126474">
        <ele>324.208</ele>
        <time>1970-01-11T02:00:07Z</time>
      </trkpt>
      <trkpt lat="42.401570" lon="-8.126544">
        <ele>324.225</ele>
        <time>1970-01-11T02:00:07Z</time>
      </trkpt>
      <trkpt lat="42.401501" lon="-8.126583">
        <ele>324.862</ele>
        <time>1970-01-11T02:00:07Z</time>
      </trkpt>
      <trkpt lat="42.401467" lon="-8.126604">
        <ele>325.268</ele>
        <time>1970-01-11T02:00:07Z</time>
      </trkpt>
      <trkpt lat="42.401402" lon="-8.126649">
        <ele>326.226</ele>
        <time>1970-01-11T02:00:07Z</time>
      </trkpt>
      <trkpt lat="42.401361" lon="-8.126673">
        <ele>326.425</ele>
        <time>1970-01-11T02:00:07Z</time>
      </trkpt>
      <trkpt lat="42.401203" lon="-8.126769">
        <ele>326.210</ele>
        <time>1970-01-11T02:00:07Z</time>
      </trkpt>
      <trkpt lat="42.401025" lon="-8.126921">
        <ele>325.248</ele>
        <time>1970-01-11T02:00:07Z</time>
      </trkpt>
      <trkpt lat="42.400904" lon="-8.127045">
        <ele>324.437</ele>
        <time>1970-01-11T02:00:07Z</time>
      </trkpt>
      <trkpt lat="42.400843" lon="-8.127106">
        <ele>324.035</ele>
        <time>1970-01-11T02:00:07Z</time>
      </trkpt>
      <trkpt lat="42.400671" lon="-8.127302">
        <ele>323.086</ele>
        <time>1970-01-11T02:00:07Z</time>
      </trkpt>
      <trkpt lat="42.400625" lon="-8.127389">
        <ele>322.814</ele>
        <time>1970-01-11T02:00:07Z</time>
      </trkpt>
      <trkpt lat="42.400587" lon="-8.127481">
        <ele>322.608</ele>
        <time>1970-01-11T02:00:07Z</time>
      </trkpt>
      <trkpt lat="42.400555" lon="-8.127797">
        <ele>321.694</ele>
        <time>1970-01-11T02:00:07Z</time>
      </trkpt>
      <trkpt lat="42.400572" lon="-8.128029">
        <ele>320.661</ele>
        <time>1970-01-11T02:00:07Z</time>
      </trkpt>
      <trkpt lat="42.400581" lon="-8.128145">
        <ele>320.237</ele>
        <time>1970-01-11T02:00:07Z</time>
      </trkpt>
      <trkpt lat="42.400573" lon="-8.128255">
        <ele>319.885</ele>
        <time>1970-01-11T02:00:07Z</time>
      </trkpt>
      <trkpt lat="42.400544" lon="-8.128352">
        <ele>319.214</ele>
        <time>1970-01-11T02:00:07Z</time>
      </trkpt>
      <trkpt lat="42.400497" lon="-8.128437">
        <ele>319.039</ele>
        <time>1970-01-11T02:00:07Z</time>
      </trkpt>
      <trkpt lat="42.400434" lon="-8.128516">
        <ele>318.837</ele>
        <time>1970-01-11T02:00:07Z</time>
      </trkpt>
      <trkpt lat="42.400258" lon="-8.128674">
        <ele>317.656</ele>
        <time>1970-01-11T02:00:07Z</time>
      </trkpt>
      <trkpt lat="42.400161" lon="-8.128740">
        <ele>316.834</ele>
        <time>1970-01-11T02:00:07Z</time>
      </trkpt>
      <trkpt lat="42.400065" lon="-8.128811">
        <ele>316.255</ele>
        <time>1970-01-11T02:00:07Z</time>
      </trkpt>
      <trkpt lat="42.399974" lon="-8.128895">
        <ele>315.810</ele>
        <time>1970-01-11T02:00:07Z</time>
      </trkpt>
      <trkpt lat="42.399897" lon="-8.129003">
        <ele>315.408</ele>
        <time>1970-01-11T02:00:07Z</time>
      </trkpt>
      <trkpt lat="42.399836" lon="-8.129125">
        <ele>315.014</ele>
        <time>1970-01-11T02:00:07Z</time>
      </trkpt>
      <trkpt lat="42.399781" lon="-8.129256">
        <ele>314.451</ele>
        <time>1970-01-11T02:00:07Z</time>
      </trkpt>
      <trkpt lat="42.399727" lon="-8.129387">
        <ele>313.237</ele>
        <time>1970-01-11T02:00:07Z</time>
      </trkpt>
      <trkpt lat="42.399675" lon="-8.129518">
        <ele>312.295</ele>
        <time>1970-01-11T02:00:07Z</time>
      </trkpt>
      <trkpt lat="42.399625" lon="-8.129654">
        <ele>311.244</ele>
        <time>1970-01-11T02:00:07Z</time>
      </trkpt>
      <trkpt lat="42.399579" lon="-8.129790">
        <ele>310.219</ele>
        <time>1970-01-11T02:00:07Z</time>
      </trkpt>
      <trkpt lat="42.399533" lon="-8.129928">
        <ele>309.237</ele>
        <time>1970-01-11T02:00:07Z</time>
      </trkpt>
      <trkpt lat="42.399457" lon="-8.130200">
        <ele>307.616</ele>
        <time>1970-01-11T02:00:07Z</time>
      </trkpt>
      <trkpt lat="42.399439" lon="-8.130342">
        <ele>307.043</ele>
        <time>1970-01-11T02:00:07Z</time>
      </trkpt>
      <trkpt lat="42.399442" lon="-8.130491">
        <ele>306.464</ele>
        <time>1970-01-11T02:00:07Z</time>
      </trkpt>
      <trkpt lat="42.399428" lon="-8.130778">
        <ele>305.410</ele>
        <time>1970-01-11T02:00:07Z</time>
      </trkpt>
      <trkpt lat="42.399383" lon="-8.130898">
        <ele>304.608</ele>
        <time>1970-01-11T02:00:07Z</time>
      </trkpt>
      <trkpt lat="42.399344" lon="-8.131012">
        <ele>303.625</ele>
        <time>1970-01-11T02:00:07Z</time>
      </trkpt>
      <trkpt lat="42.399337" lon="-8.131117">
        <ele>302.042</ele>
        <time>1970-01-11T02:00:07Z</time>
      </trkpt>
      <trkpt lat="42.399356" lon="-8.131227">
        <ele>301.028</ele>
        <time>1970-01-11T02:00:07Z</time>
      </trkpt>
      <trkpt lat="42.399388" lon="-8.131323">
        <ele>300.066</ele>
        <time>1970-01-11T02:00:07Z</time>
      </trkpt>
      <trkpt lat="42.399470" lon="-8.131412">
        <ele>298.455</ele>
        <time>1970-01-11T02:00:07Z</time>
      </trkpt>
      <trkpt lat="42.399519" lon="-8.131464">
        <ele>297.480</ele>
        <time>1970-01-11T02:00:07Z</time>
      </trkpt>
      <trkpt lat="42.399543" lon="-8.131472">
        <ele>297.058</ele>
        <time>1970-01-11T02:00:07Z</time>
      </trkpt>
      <trkpt lat="42.399528" lon="-8.131481">
        <ele>296.637</ele>
        <time>1970-01-11T02:00:07Z</time>
      </trkpt>
      <trkpt lat="42.399501" lon="-8.131418">
        <ele>296.672</ele>
        <time>1970-01-11T02:00:07Z</time>
      </trkpt>
      <trkpt lat="42.399476" lon="-8.131382">
        <ele>296.613</ele>
        <time>1970-01-11T02:00:07Z</time>
      </trkpt>
      <trkpt lat="42.399444" lon="-8.131345">
        <ele>296.614</ele>
        <time>1970-01-11T02:00:07Z</time>
      </trkpt>
      <trkpt lat="42.399409" lon="-8.131301">
        <ele>296.608</ele>
        <time>1970-01-11T02:00:07Z</time>
      </trkpt>
      <trkpt lat="42.399340" lon="-8.131210">
        <ele>296.648</ele>
        <time>1970-01-11T02:00:07Z</time>
      </trkpt>
      <trkpt lat="42.399313" lon="-8.131161">
        <ele>296.475</ele>
        <time>1970-01-11T02:00:07Z</time>
      </trkpt>
      <trkpt lat="42.399228" lon="-8.131016">
        <ele>296.611</ele>
        <time>1970-01-11T02:00:07Z</time>
      </trkpt>
      <trkpt lat="42.399188" lon="-8.131069">
        <ele>296.699</ele>
        <time>1970-01-11T02:00:07Z</time>
      </trkpt>
      <trkpt lat="42.399179" lon="-8.131106">
        <ele>296.638</ele>
        <time>1970-01-11T02:00:07Z</time>
      </trkpt>
      <trkpt lat="42.399164" lon="-8.131137">
        <ele>296.443</ele>
        <time>1970-01-11T02:00:07Z</time>
      </trkpt>
      <trkpt lat="42.399114" lon="-8.131193">
        <ele>295.881</ele>
        <time>1970-01-11T02:00:07Z</time>
      </trkpt>
      <trkpt lat="42.399078" lon="-8.131219">
        <ele>295.690</ele>
        <time>1970-01-11T02:00:07Z</time>
      </trkpt>
      <trkpt lat="42.399038" lon="-8.131242">
        <ele>295.448</ele>
        <time>1970-01-11T02:00:07Z</time>
      </trkpt>
      <trkpt lat="42.398960" lon="-8.131272">
        <ele>294.261</ele>
        <time>1970-01-11T02:00:07Z</time>
      </trkpt>
      <trkpt lat="42.398884" lon="-8.131283">
        <ele>292.817</ele>
        <time>1970-01-11T02:00:07Z</time>
      </trkpt>
      <trkpt lat="42.398811" lon="-8.131285">
        <ele>291.408</ele>
        <time>1970-01-11T02:00:07Z</time>
      </trkpt>
      <trkpt lat="42.398740" lon="-8.131285">
        <ele>290.225</ele>
        <time>1970-01-11T02:00:07Z</time>
      </trkpt>
      <trkpt lat="42.398664" lon="-8.131277">
        <ele>288.882</ele>
        <time>1970-01-11T02:00:07Z</time>
      </trkpt>
      <trkpt lat="42.398597" lon="-8.131281">
        <ele>287.678</ele>
        <time>1970-01-11T02:00:07Z</time>
      </trkpt>
      <trkpt lat="42.398586" lon="-8.131313">
        <ele>287.036</ele>
        <time>1970-01-11T02:00:07Z</time>
      </trkpt>
      <trkpt lat="42.398589" lon="-8.131347">
        <ele>286.275</ele>
        <time>1970-01-11T02:00:07Z</time>
      </trkpt>
      <trkpt lat="42.398612" lon="-8.131405">
        <ele>285.030</ele>
        <time>1970-01-11T02:00:07Z</time>
      </trkpt>
      <trkpt lat="42.398646" lon="-8.131464">
        <ele>283.878</ele>
        <time>1970-01-11T02:00:07Z</time>
      </trkpt>
      <trkpt lat="42.398665" lon="-8.131490">
        <ele>283.297</ele>
        <time>1970-01-11T02:00:07Z</time>
      </trkpt>
      <trkpt lat="42.398685" lon="-8.131522">
        <ele>282.869</ele>
        <time>1970-01-11T02:00:07Z</time>
      </trkpt>
      <trkpt lat="42.398709" lon="-8.131595">
        <ele>281.404</ele>
        <time>1970-01-11T02:00:07Z</time>
      </trkpt>
      <trkpt lat="42.398718" lon="-8.131639">
        <ele>280.624</ele>
        <time>1970-01-11T02:00:07Z</time>
      </trkpt>
      <trkpt lat="42.398721" lon="-8.131682">
        <ele>280.008</ele>
        <time>1970-01-11T02:00:07Z</time>
      </trkpt>
      <trkpt lat="42.398715" lon="-8.131730">
        <ele>278.467</ele>
        <time>1970-01-11T02:00:07Z</time>
      </trkpt>
      <trkpt lat="42.398705" lon="-8.131739">
        <ele>277.424</ele>
        <time>1970-01-11T02:00:07Z</time>
      </trkpt>
      <trkpt lat="42.398692" lon="-8.131751">
        <ele>276.290</ele>
        <time>1970-01-11T02:00:07Z</time>
      </trkpt>
      <trkpt lat="42.398673" lon="-8.131769">
        <ele>275.428</ele>
        <time>1970-01-11T02:00:07Z</time>
      </trkpt>
      <trkpt lat="42.398653" lon="-8.131796">
        <ele>274.677</ele>
        <time>1970-01-11T02:00:07Z</time>
      </trkpt>
      <trkpt lat="42.398626" lon="-8.131828">
        <ele>274.072</ele>
        <time>1970-01-11T02:00:07Z</time>
      </trkpt>
      <trkpt lat="42.398597" lon="-8.131874">
        <ele>273.610</ele>
        <time>1970-01-11T02:00:07Z</time>
      </trkpt>
      <trkpt lat="42.398572" lon="-8.131923">
        <ele>273.469</ele>
        <time>1970-01-11T02:00:07Z</time>
      </trkpt>
      <trkpt lat="42.398564" lon="-8.131967">
        <ele>273.018</ele>
        <time>1970-01-11T02:00:07Z</time>
      </trkpt>
      <trkpt lat="42.398560" lon="-8.132019">
        <ele>272.698</ele>
        <time>1970-01-11T02:00:07Z</time>
      </trkpt>
      <trkpt lat="42.398553" lon="-8.132076">
        <ele>272.217</ele>
        <time>1970-01-11T02:00:07Z</time>
      </trkpt>
      <trkpt lat="42.398567" lon="-8.132187">
        <ele>271.408</ele>
        <time>1970-01-11T02:00:07Z</time>
      </trkpt>
      <trkpt lat="42.398580" lon="-8.132236">
        <ele>271.082</ele>
        <time>1970-01-11T02:00:07Z</time>
      </trkpt>
      <trkpt lat="42.398583" lon="-8.132326">
        <ele>269.829</ele>
        <time>1970-01-11T02:00:07Z</time>
      </trkpt>
      <trkpt lat="42.398577" lon="-8.132362">
        <ele>268.865</ele>
        <time>1970-01-11T02:00:07Z</time>
      </trkpt>
      <trkpt lat="42.398558" lon="-8.132391">
        <ele>268.463</ele>
        <time>1970-01-11T02:00:07Z</time>
      </trkpt>
      <trkpt lat="42.398530" lon="-8.132433">
        <ele>267.862</ele>
        <time>1970-01-11T02:00:07Z</time>
      </trkpt>
      <trkpt lat="42.398450" lon="-8.132513">
        <ele>266.017</ele>
        <time>1970-01-11T02:00:07Z</time>
      </trkpt>
      <trkpt lat="42.398426" lon="-8.132554">
        <ele>265.075</ele>
        <time>1970-01-11T02:00:07Z</time>
      </trkpt>
      <trkpt lat="42.398410" lon="-8.132601">
        <ele>264.234</ele>
        <time>1970-01-11T02:00:07Z</time>
      </trkpt>
      <trkpt lat="42.398389" lon="-8.132711">
        <ele>262.457</ele>
        <time>1970-01-11T02:00:07Z</time>
      </trkpt>
      <trkpt lat="42.398376" lon="-8.132768">
        <ele>261.600</ele>
        <time>1970-01-11T02:00:07Z</time>
      </trkpt>
      <trkpt lat="42.398364" lon="-8.132821">
        <ele>260.820</ele>
        <time>1970-01-11T02:00:07Z</time>
      </trkpt>
      <trkpt lat="42.398345" lon="-8.132865">
        <ele>260.408</ele>
        <time>1970-01-11T02:00:07Z</time>
      </trkpt>
      <trkpt lat="42.398327" lon="-8.132908">
        <ele>259.896</ele>
        <time>1970-01-11T02:00:07Z</time>
      </trkpt>
      <trkpt lat="42.398309" lon="-8.132953">
        <ele>259.213</ele>
        <time>1970-01-11T02:00:07Z</time>
      </trkpt>
      <trkpt lat="42.398295" lon="-8.133001">
        <ele>258.619</ele>
        <time>1970-01-11T02:00:07Z</time>
      </trkpt>
      <trkpt lat="42.398280" lon="-8.133046">
        <ele>258.087</ele>
        <time>1970-01-11T02:00:07Z</time>
      </trkpt>
      <trkpt lat="42.398268" lon="-8.133090">
        <ele>257.296</ele>
        <time>1970-01-11T02:00:07Z</time>
      </trkpt>
      <trkpt lat="42.398245" lon="-8.133196">
        <ele>255.681</ele>
        <time>1970-01-11T02:00:07Z</time>
      </trkpt>
      <trkpt lat="42.398216" lon="-8.133297">
        <ele>254.069</ele>
        <time>1970-01-11T02:00:07Z</time>
      </trkpt>
      <trkpt lat="42.398198" lon="-8.133378">
        <ele>252.818</ele>
        <time>1970-01-11T02:00:07Z</time>
      </trkpt>
      <trkpt lat="42.398182" lon="-8.133437">
        <ele>251.474</ele>
        <time>1970-01-11T02:00:07Z</time>
      </trkpt>
      <trkpt lat="42.398173" lon="-8.133530">
        <ele>250.656</ele>
        <time>1970-01-11T02:00:07Z</time>
      </trkpt>
      <trkpt lat="42.398169" lon="-8.133664">
        <ele>250.421</ele>
        <time>1970-01-11T02:00:07Z</time>
      </trkpt>
      <trkpt lat="42.398173" lon="-8.133796">
        <ele>250.008</ele>
        <time>1970-01-11T02:00:07Z</time>
      </trkpt>
      <trkpt lat="42.398180" lon="-8.133931">
        <ele>249.278</ele>
        <time>1970-01-11T02:00:07Z</time>
      </trkpt>
      <trkpt lat="42.398201" lon="-8.133980">
        <ele>249.035</ele>
        <time>1970-01-11T02:00:07Z</time>
      </trkpt>
      <trkpt lat="42.398249" lon="-8.134094">
        <ele>248.681</ele>
        <time>1970-01-11T02:00:07Z</time>
      </trkpt>
      <trkpt lat="42.398294" lon="-8.134191">
        <ele>248.039</ele>
        <time>1970-01-11T02:00:07Z</time>
      </trkpt>
      <trkpt lat="42.398316" lon="-8.134228">
        <ele>247.688</ele>
        <time>1970-01-11T02:00:07Z</time>
      </trkpt>
      <trkpt lat="42.398378" lon="-8.134313">
        <ele>246.893</ele>
        <time>1970-01-11T02:00:07Z</time>
      </trkpt>
      <trkpt lat="42.398476" lon="-8.134351">
        <ele>245.471</ele>
        <time>1970-01-11T02:00:07Z</time>
      </trkpt>
      <trkpt lat="42.398583" lon="-8.134395">
        <ele>242.650</ele>
        <time>1970-01-11T02:00:07Z</time>
      </trkpt>
      <trkpt lat="42.398660" lon="-8.134478">
        <ele>240.857</ele>
        <time>1970-01-11T02:00:07Z</time>
      </trkpt>
      <trkpt lat="42.398699" lon="-8.134601">
        <ele>239.600</ele>
        <time>1970-01-11T02:00:07Z</time>
      </trkpt>
      <trkpt lat="42.398706" lon="-8.134668">
        <ele>239.020</ele>
        <time>1970-01-11T02:00:07Z</time>
      </trkpt>
      <trkpt lat="42.398712" lon="-8.134739">
        <ele>238.608</ele>
        <time>1970-01-11T02:00:07Z</time>
      </trkpt>
      <trkpt lat="42.398720" lon="-8.134813">
        <ele>238.286</ele>
        <time>1970-01-11T02:00:07Z</time>
      </trkpt>
      <trkpt lat="42.398734" lon="-8.134883">
        <ele>237.623</ele>
        <time>1970-01-11T02:00:07Z</time>
      </trkpt>
      <trkpt lat="42.398746" lon="-8.134954">
        <ele>237.279</ele>
        <time>1970-01-11T02:00:07Z</time>
      </trkpt>
      <trkpt lat="42.398763" lon="-8.135099">
        <ele>236.217</ele>
        <time>1970-01-11T02:00:07Z</time>
      </trkpt>
      <trkpt lat="42.398774" lon="-8.135169">
        <ele>235.896</ele>
        <time>1970-01-11T02:00:07Z</time>
      </trkpt>
      <trkpt lat="42.398783" lon="-8.135316">
        <ele>234.621</ele>
        <time>1970-01-11T02:00:07Z</time>
      </trkpt>
      <trkpt lat="42.398766" lon="-8.135427">
        <ele>233.879</ele>
        <time>1970-01-11T02:00:07Z</time>
      </trkpt>
      <trkpt lat="42.398769" lon="-8.135463">
        <ele>233.428</ele>
        <time>1970-01-11T02:00:07Z</time>
      </trkpt>
      <trkpt lat="42.398778" lon="-8.135513">
        <ele>233.065</ele>
        <time>1970-01-11T02:00:07Z</time>
      </trkpt>
      <trkpt lat="42.398777" lon="-8.135533">
        <ele>233.068</ele>
        <time>1970-01-11T02:00:07Z</time>
      </trkpt>
      <trkpt lat="42.398769" lon="-8.135552">
        <ele>233.214</ele>
        <time>1970-01-11T02:00:07Z</time>
      </trkpt>
      <trkpt lat="42.398766" lon="-8.135551">
        <ele>233.208</ele>
        <time>1970-01-11T02:00:07Z</time>
      </trkpt>
      <trkpt lat="42.398766" lon="-8.135551">
        <ele>233.257</ele>
        <time>1970-01-11T02:00:07Z</time>
      </trkpt>
      <trkpt lat="42.398766" lon="-8.135551">
        <ele>233.434</ele>
        <time>1970-01-11T02:00:07Z</time>
      </trkpt>
      <trkpt lat="42.398766" lon="-8.135551">
        <ele>233.410</ele>
        <time>1970-01-11T02:00:07Z</time>
      </trkpt>
      <trkpt lat="42.398766" lon="-8.135551">
        <ele>233.438</ele>
        <time>1970-01-11T02:00:07Z</time>
      </trkpt>
      <trkpt lat="42.398766" lon="-8.135551">
        <ele>233.477</ele>
        <time>1970-01-11T02:00:07Z</time>
      </trkpt>
      <trkpt lat="42.398766" lon="-8.135551">
        <ele>233.252</ele>
        <time>1970-01-11T02:00:07Z</time>
      </trkpt>
      <trkpt lat="42.398766" lon="-8.135551">
        <ele>233.230</ele>
        <time>1970-01-11T02:00:07Z</time>
      </trkpt>
      <trkpt lat="42.398766" lon="-8.135551">
        <ele>233.469</ele>
        <time>1970-01-11T02:00:07Z</time>
      </trkpt>
      <trkpt lat="42.398766" lon="-8.135551">
        <ele>233.446</ele>
        <time>1970-01-11T02:00:07Z</time>
      </trkpt>
      <trkpt lat="42.398766" lon="-8.135551">
        <ele>233.488</ele>
        <time>1970-01-11T02:00:07Z</time>
      </trkpt>
      <trkpt lat="42.398766" lon="-8.135551">
        <ele>233.416</ele>
        <time>1970-01-11T02:00:07Z</time>
      </trkpt>
      <trkpt lat="42.398766" lon="-8.135551">
        <ele>233.408</ele>
        <time>1970-01-11T02:00:07Z</time>
      </trkpt>
      <trkpt lat="42.398766" lon="-8.135551">
        <ele>233.425</ele>
        <time>1970-01-11T02:00:07Z</time>
      </trkpt>
      <trkpt lat="42.398766" lon="-8.135551">
        <ele>233.492</ele>
        <time>1970-01-11T02:00:07Z</time>
      </trkpt>
      <trkpt lat="42.398764" lon="-8.135552">
        <ele>233.428</ele>
        <time>1970-01-11T02:00:07Z</time>
      </trkpt>
      <trkpt lat="42.398767" lon="-8.135556">
        <ele>233.456</ele>
        <time>1970-01-11T02:00:07Z</time>
      </trkpt>
      <trkpt lat="42.398773" lon="-8.135562">
        <ele>233.485</ele>
        <time>1970-01-11T02:00:07Z</time>
      </trkpt>
      <trkpt lat="42.398774" lon="-8.135563">
        <ele>233.440</ele>
        <time>1970-01-11T02:00:07Z</time>
      </trkpt>
      <trkpt lat="42.398774" lon="-8.135563">
        <ele>232.628</ele>
        <time>1970-01-11T02:00:07Z</time>
      </trkpt>
      <trkpt lat="42.398774" lon="-8.135563">
        <ele>232.497</ele>
        <time>1970-01-11T02:00:07Z</time>
      </trkpt>
      <trkpt lat="42.398774" lon="-8.135563">
        <ele>232.488</ele>
        <time>1970-01-11T02:00:07Z</time>
      </trkpt>
      <trkpt lat="42.398774" lon="-8.135563">
        <ele>232.624</ele>
        <time>1970-01-11T02:00:07Z</time>
      </trkpt>
      <trkpt lat="42.398774" lon="-8.135563">
        <ele>232.626</ele>
        <time>1970-01-11T02:00:07Z</time>
      </trkpt>
      <trkpt lat="42.398774" lon="-8.135563">
        <ele>232.608</ele>
        <time>1970-01-11T02:00:07Z</time>
      </trkpt>
      <trkpt lat="42.398774" lon="-8.135563">
        <ele>232.479</ele>
        <time>1970-01-11T02:00:07Z</time>
      </trkpt>
      <trkpt lat="42.398774" lon="-8.135563">
        <ele>232.296</ele>
        <time>1970-01-11T02:00:07Z</time>
      </trkpt>
      <trkpt lat="42.398772" lon="-8.135568">
        <ele>232.272</ele>
        <time>1970-01-11T02:00:07Z</time>
      </trkpt>
      <trkpt lat="42.398772" lon="-8.135568">
        <ele>232.210</ele>
        <time>1970-01-11T02:00:07Z</time>
      </trkpt>
      <trkpt lat="42.398772" lon="-8.135568">
        <ele>232.469</ele>
        <time>1970-01-11T02:00:07Z</time>
      </trkpt>
      <trkpt lat="42.398772" lon="-8.135568">
        <ele>232.874</ele>
        <time>1970-01-11T02:00:07Z</time>
      </trkpt>
      <trkpt lat="42.398772" lon="-8.135568">
        <ele>233.242</ele>
        <time>1970-01-11T02:00:07Z</time>
      </trkpt>
      <trkpt lat="42.398772" lon="-8.135568">
        <ele>233.471</ele>
        <time>1970-01-11T02:00:07Z</time>
      </trkpt>
      <trkpt lat="42.398776" lon="-8.135571">
        <ele>233.466</ele>
        <time>1970-01-11T02:00:07Z</time>
      </trkpt>
      <trkpt lat="42.398776" lon="-8.135571">
        <ele>233.429</ele>
        <time>1970-01-11T02:00:07Z</time>
      </trkpt>
      <trkpt lat="42.398776" lon="-8.135571">
        <ele>233.421</ele>
        <time>1970-01-11T02:00:07Z</time>
      </trkpt>
      <trkpt lat="42.398776" lon="-8.135571">
        <ele>233.208</ele>
        <time>1970-01-11T02:00:07Z</time>
      </trkpt>
      <trkpt lat="42.398776" lon="-8.135571">
        <ele>233.687</ele>
        <time>1970-01-11T02:00:07Z</time>
      </trkpt>
      <trkpt lat="42.398776" lon="-8.135571">
        <ele>233.664</ele>
        <time>1970-01-11T02:00:07Z</time>
      </trkpt>
      <trkpt lat="42.398781" lon="-8.135595">
        <ele>233.610</ele>
        <time>1970-01-11T02:00:07Z</time>
      </trkpt>
      <trkpt lat="42.398789" lon="-8.135622">
        <ele>233.698</ele>
        <time>1970-01-11T02:00:07Z</time>
      </trkpt>
      <trkpt lat="42.398794" lon="-8.135649">
        <ele>233.627</ele>
        <time>1970-01-11T02:00:07Z</time>
      </trkpt>
      <trkpt lat="42.398790" lon="-8.135662">
        <ele>233.642</ele>
        <time>1970-01-11T02:00:07Z</time>
      </trkpt>
      <trkpt lat="42.398790" lon="-8.135662">
        <ele>233.690</ele>
        <time>1970-01-11T02:00:07Z</time>
      </trkpt>
      <trkpt lat="42.398790" lon="-8.135662">
        <ele>233.689</ele>
        <time>1970-01-11T02:00:07Z</time>
      </trkpt>
      <trkpt lat="42.398790" lon="-8.135662">
        <ele>233.471</ele>
        <time>1970-01-11T02:00:07Z</time>
      </trkpt>
      <trkpt lat="42.398788" lon="-8.135654">
        <ele>233.441</ele>
        <time>1970-01-11T02:00:07Z</time>
      </trkpt>
      <trkpt lat="42.398789" lon="-8.135647">
        <ele>233.415</ele>
        <time>1970-01-11T02:00:07Z</time>
      </trkpt>
      <trkpt lat="42.398789" lon="-8.135635">
        <ele>233.408</ele>
        <time>1970-01-11T02:00:07Z</time>
      </trkpt>
      <trkpt lat="42.398793" lon="-8.135622">
        <ele>233.478</ele>
        <time>1970-01-11T02:00:07Z</time>
      </trkpt>
      <trkpt lat="42.398794" lon="-8.135592">
        <ele>233.275</ele>
        <time>1970-01-11T02:00:07Z</time>
      </trkpt>
      <trkpt lat="42.398786" lon="-8.135573">
        <ele>233.231</ele>
        <time>1970-01-11T02:00:07Z</time>
      </trkpt>
      <trkpt lat="42.398775" lon="-8.135544">
        <ele>233.219</ele>
        <time>1970-01-11T02:00:07Z</time>
      </trkpt>
      <trkpt lat="42.398759" lon="-8.135477">
        <ele>233.028</ele>
        <time>1970-01-11T02:00:07Z</time>
      </trkpt>
      <trkpt lat="42.398752" lon="-8.135443">
        <ele>233.043</ele>
        <time>1970-01-11T02:00:07Z</time>
      </trkpt>
      <trkpt lat="42.398693" lon="-8.135309">
        <ele>232.441</ele>
        <time>1970-01-11T02:00:07Z</time>
      </trkpt>
      <trkpt lat="42.398658" lon="-8.135245">
        <ele>232.090</ele>
        <time>1970-01-11T02:00:07Z</time>
      </trkpt>
      <trkpt lat="42.398614" lon="-8.135186">
        <ele>231.652</ele>
        <time>1970-01-11T02:00:07Z</time>
      </trkpt>
      <trkpt lat="42.398552" lon="-8.135143">
        <ele>231.053</ele>
        <time>1970-01-11T02:00:07Z</time>
      </trkpt>
      <trkpt lat="42.398482" lon="-8.135108">
        <ele>230.208</ele>
        <time>1970-01-11T02:00:07Z</time>
      </trkpt>
      <trkpt lat="42.398417" lon="-8.135049">
        <ele>229.408</ele>
        <time>1970-01-11T02:00:07Z</time>
      </trkpt>
      <trkpt lat="42.398308" lon="-8.134906">
        <ele>227.496</ele>
        <time>1970-01-11T02:00:07Z</time>
      </trkpt>
      <trkpt lat="42.398249" lon="-8.134859">
        <ele>226.483</ele>
        <time>1970-01-11T02:00:07Z</time>
      </trkpt>
      <trkpt lat="42.398188" lon="-8.134831">
        <ele>225.299</ele>
        <time>1970-01-11T02:00:07Z</time>
      </trkpt>
      <trkpt lat="42.398127" lon="-8.134803">
        <ele>224.457</ele>
        <time>1970-01-11T02:00:07Z</time>
      </trkpt>
      <trkpt lat="42.398070" lon="-8.134778">
        <ele>223.836</ele>
        <time>1970-01-11T02:00:07Z</time>
      </trkpt>
      <trkpt lat="42.397953" lon="-8.134751">
        <ele>223.061</ele>
        <time>1970-01-11T02:00:07Z</time>
      </trkpt>
      <trkpt lat="42.397902" lon="-8.134767">
        <ele>222.689</ele>
        <time>1970-01-11T02:00:07Z</time>
      </trkpt>
      <trkpt lat="42.397854" lon="-8.134779">
        <ele>222.468</ele>
        <time>1970-01-11T02:00:07Z</time>
      </trkpt>
      <trkpt lat="42.397809" lon="-8.134783">
        <ele>222.257</ele>
        <time>1970-01-11T02:00:07Z</time>
      </trkpt>
      <trkpt lat="42.397708" lon="-8.134743">
        <ele>221.400</ele>
        <time>1970-01-11T02:00:07Z</time>
      </trkpt>
      <trkpt lat="42.397641" lon="-8.134713">
        <ele>221.020</ele>
        <time>1970-01-11T02:00:07Z</time>
      </trkpt>
      <trkpt lat="42.397517" lon="-8.134647">
        <ele>220.008</ele>
        <time>1970-01-11T02:00:07Z</time>
      </trkpt>
      <trkpt lat="42.397475" lon="-8.134608">
        <ele>218.496</ele>
        <time>1970-01-11T02:00:07Z</time>
      </trkpt>
      <trkpt lat="42.397408" lon="-8.134540">
        <ele>217.483</ele>
        <time>1970-01-11T02:00:07Z</time>
      </trkpt>
      <trkpt lat="42.397346" lon="-8.134482">
        <ele>217.089</ele>
        <time>1970-01-11T02:00:07Z</time>
      </trkpt>
      <trkpt lat="42.397271" lon="-8.134386">
        <ele>216.267</ele>
        <time>1970-01-11T02:00:07Z</time>
      </trkpt>
      <trkpt lat="42.397266" lon="-8.134353">
        <ele>215.816</ele>
        <time>1970-01-11T02:00:07Z</time>
      </trkpt>
      <trkpt lat="42.397260" lon="-8.134323">
        <ele>215.021</ele>
        <time>1970-01-11T02:00:07Z</time>
      </trkpt>
      <trkpt lat="42.397261" lon="-8.134321">
        <ele>214.219</ele>
        <time>1970-01-11T02:00:07Z</time>
      </trkpt>
      <trkpt lat="42.397263" lon="-8.134312">
        <ele>213.848</ele>
        <time>1970-01-11T02:00:07Z</time>
      </trkpt>
      <trkpt lat="42.397233" lon="-8.134261">
        <ele>213.038</ele>
        <time>1970-01-11T02:00:07Z</time>
      </trkpt>
      <trkpt lat="42.397228" lon="-8.134235">
        <ele>212.870</ele>
        <time>1970-01-11T02:00:07Z</time>
      </trkpt>
      <trkpt lat="42.397218" lon="-8.134210">
        <ele>212.617</ele>
        <time>1970-01-11T02:00:07Z</time>
      </trkpt>
      <trkpt lat="42.397202" lon="-8.134197">
        <ele>212.008</ele>
        <time>1970-01-11T02:00:07Z</time>
      </trkpt>
      <trkpt lat="42.397184" lon="-8.134192">
        <ele>211.694</ele>
        <time>1970-01-11T02:00:07Z</time>
      </trkpt>
      <trkpt lat="42.397147" lon="-8.134221">
        <ele>209.661</ele>
        <time>1970-01-11T02:00:07Z</time>
      </trkpt>
      <trkpt lat="42.397135" lon="-8.134237">
        <ele>209.017</ele>
        <time>1970-01-11T02:00:07Z</time>
      </trkpt>
      <trkpt lat="42.397126" lon="-8.134260">
        <ele>208.415</ele>
        <time>1970-01-11T02:00:07Z</time>
      </trkpt>
      <trkpt lat="42.397120" lon="-8.134327">
        <ele>207.434</ele>
        <time>1970-01-11T02:00:07Z</time>
      </trkpt>
      <trkpt lat="42.397101" lon="-8.134396">
        <ele>206.489</ele>
        <time>1970-01-11T02:00:07Z</time>
      </trkpt>
      <trkpt lat="42.397083" lon="-8.134424">
        <ele>206.277</ele>
        <time>1970-01-11T02:00:07Z</time>
      </trkpt>
      <trkpt lat="42.397085" lon="-8.134500">
        <ele>205.046</ele>
        <time>1970-01-11T02:00:07Z</time>
      </trkpt>
      <trkpt lat="42.397086" lon="-8.134514">
        <ele>204.834</ele>
        <time>1970-01-11T02:00:07Z</time>
      </trkpt>
      <trkpt lat="42.397083" lon="-8.134523">
        <ele>204.455</ele>
        <time>1970-01-11T02:00:07Z</time>
      </trkpt>
      <trkpt lat="42.397069" lon="-8.134517">
        <ele>204.010</ele>
        <time>1970-01-11T02:00:07Z</time>
      </trkpt>
      <trkpt lat="42.397064" lon="-8.134523">
        <ele>204.008</ele>
        <time>1970-01-11T02:00:07Z</time>
      </trkpt>
      <trkpt lat="42.397063" lon="-8.134521">
        <ele>203.874</ele>
        <time>1970-01-11T02:00:07Z</time>
      </trkpt>
      <trkpt lat="42.397063" lon="-8.134521">
        <ele>204.081</ele>
        <time>1970-01-11T02:00:07Z</time>
      </trkpt>
      <trkpt lat="42.397075" lon="-8.134508">
        <ele>203.857</ele>
        <time>1970-01-11T02:00:07Z</time>
      </trkpt>
      <trkpt lat="42.397081" lon="-8.134468">
        <ele>203.875</ele>
        <time>1970-01-11T02:00:07Z</time>
      </trkpt>
      <trkpt lat="42.397047" lon="-8.134458">
        <ele>203.814</ele>
        <time>1970-01-11T02:00:07Z</time>
      </trkpt>
      <trkpt lat="42.397043" lon="-8.134480">
        <ele>203.639</ele>
        <time>1970-01-11T02:00:07Z</time>
      </trkpt>
      <trkpt lat="42.397022" lon="-8.134518">
        <ele>203.477</ele>
        <time>1970-01-11T02:00:07Z</time>
      </trkpt>
      <trkpt lat="42.397004" lon="-8.134630">
        <ele>203.446</ele>
        <time>1970-01-11T02:00:07Z</time>
      </trkpt>
      <trkpt lat="42.397006" lon="-8.134714">
        <ele>203.286</ele>
        <time>1970-01-11T02:00:07Z</time>
      </trkpt>
      <trkpt lat="42.397034" lon="-8.134871">
        <ele>202.460</ele>
        <time>1970-01-11T02:00:07Z</time>
      </trkpt>
      <trkpt lat="42.397074" lon="-8.134981">
        <ele>201.026</ele>
        <time>1970-01-11T02:00:07Z</time>
      </trkpt>
      <trkpt lat="42.397090" lon="-8.135065">
        <ele>200.208</ele>
        <time>1970-01-11T02:00:07Z</time>
      </trkpt>
      <trkpt lat="42.397106" lon="-8.135098">
        <ele>199.649</ele>
        <time>1970-01-11T02:00:07Z</time>
      </trkpt>
      <trkpt lat="42.397108" lon="-8.135128">
        <ele>199.046</ele>
        <time>1970-01-11T02:00:07Z</time>
      </trkpt>
      <trkpt lat="42.397095" lon="-8.135140">
        <ele>198.442</ele>
        <time>1970-01-11T02:00:07Z</time>
      </trkpt>
      <trkpt lat="42.397073" lon="-8.135118">
        <ele>197.240</ele>
        <time>1970-01-11T02:00:07Z</time>
      </trkpt>
      <trkpt lat="42.397047" lon="-8.135113">
        <ele>196.639</ele>
        <time>1970-01-11T02:00:07Z</time>
      </trkpt>
      <trkpt lat="42.396952" lon="-8.135129">
        <ele>195.864</ele>
        <time>1970-01-11T02:00:07Z</time>
      </trkpt>
      <trkpt lat="42.396893" lon="-8.135145">
        <ele>195.452</ele>
        <time>1970-01-11T02:00:07Z</time>
      </trkpt>
      <trkpt lat="42.396760" lon="-8.135207">
        <ele>194.261</ele>
        <time>1970-01-11T02:00:07Z</time>
      </trkpt>
      <trkpt lat="42.396643" lon="-8.135287">
        <ele>192.278</ele>
        <time>1970-01-11T02:00:07Z</time>
      </trkpt>
      <trkpt lat="42.396585" lon="-8.135312">
        <ele>191.033</ele>
        <time>1970-01-11T02:00:07Z</time>
      </trkpt>
      <trkpt lat="42.396530" lon="-8.135339">
        <ele>189.826</ele>
        <time>1970-01-11T02:00:07Z</time>
      </trkpt>
      <trkpt lat="42.396485" lon="-8.135383">
        <ele>188.608</ele>
        <time>1970-01-11T02:00:07Z</time>
      </trkpt>
      <trkpt lat="42.396444" lon="-8.135431">
        <ele>187.298</ele>
        <time>1970-01-11T02:00:07Z</time>
      </trkpt>
      <trkpt lat="42.396421" lon="-8.135465">
        <ele>185.885</ele>
        <time>1970-01-11T02:00:07Z</time>
      </trkpt>
      <trkpt lat="42.396410" lon="-8.135478">
        <ele>184.481</ele>
        <time>1970-01-11T02:00:07Z</time>
      </trkpt>
      <trkpt lat="42.396404" lon="-8.135485">
        <ele>183.479</ele>
        <time>1970-01-11T02:00:07Z</time>
      </trkpt>
      <trkpt lat="42.396404" lon="-8.135493">
        <ele>182.298</ele>
        <time>1970-01-11T02:00:07Z</time>
      </trkpt>
      <trkpt lat="42.396404" lon="-8.135519">
        <ele>180.693</ele>
        <time>1970-01-11T02:00:07Z</time>
      </trkpt>
      <trkpt lat="42.396403" lon="-8.135531">
        <ele>180.231</ele>
        <time>1970-01-11T02:00:07Z</time>
      </trkpt>
      <trkpt lat="42.396399" lon="-8.135539">
        <ele>180.080</ele>
        <time>1970-01-11T02:00:07Z</time>
      </trkpt>
      <trkpt lat="42.396396" lon="-8.135545">
        <ele>179.845</ele>
        <time>1970-01-11T02:00:07Z</time>
      </trkpt>
      <trkpt lat="42.396397" lon="-8.135546">
        <ele>179.847</ele>
        <time>1970-01-11T02:00:07Z</time>
      </trkpt>
      <trkpt lat="42.396397" lon="-8.135546">
        <ele>179.811</ele>
        <time>1970-01-11T02:00:07Z</time>
      </trkpt>
      <trkpt lat="42.396397" lon="-8.135546">
        <ele>179.608</ele>
        <time>1970-01-11T02:00:07Z</time>
      </trkpt>
      <trkpt lat="42.396397" lon="-8.135546">
        <ele>179.415</ele>
        <time>1970-01-11T02:00:07Z</time>
      </trkpt>
      <trkpt lat="42.396381" lon="-8.135571">
        <ele>179.212</ele>
        <time>1970-01-11T02:00:07Z</time>
      </trkpt>
      <trkpt lat="42.396354" lon="-8.135606">
        <ele>179.248</ele>
        <time>1970-01-11T02:00:07Z</time>
      </trkpt>
      <trkpt lat="42.396286" lon="-8.135686">
        <ele>179.886</ele>
        <time>1970-01-11T02:00:07Z</time>
      </trkpt>
      <trkpt lat="42.396264" lon="-8.135699">
        <ele>180.065</ele>
        <time>1970-01-11T02:00:07Z</time>
      </trkpt>
      <trkpt lat="42.396219" lon="-8.135736">
        <ele>180.210</ele>
        <time>1970-01-11T02:00:07Z</time>
      </trkpt>
      <trkpt lat="42.396202" lon="-8.135758">
        <ele>180.628</ele>
        <time>1970-01-11T02:00:07Z</time>
      </trkpt>
      <trkpt lat="42.396187" lon="-8.135777">
        <ele>180.867</ele>
        <time>1970-01-11T02:00:07Z</time>
      </trkpt>
      <trkpt lat="42.396178" lon="-8.135804">
        <ele>181.078</ele>
        <time>1970-01-11T02:00:07Z</time>
      </trkpt>
      <trkpt lat="42.396126" lon="-8.135960">
        <ele>181.633</ele>
        <time>1970-01-11T02:00:07Z</time>
      </trkpt>
      <trkpt lat="42.396120" lon="-8.135985">
        <ele>181.826</ele>
        <time>1970-01-11T02:00:07Z</time>
      </trkpt>
      <trkpt lat="42.396098" lon="-8.136169">
        <ele>182.608</ele>
        <time>1970-01-11T02:00:07Z</time>
      </trkpt>
      <trkpt lat="42.396088" lon="-8.136242">
        <ele>182.628</ele>
        <time>1970-01-11T02:00:07Z</time>
      </trkpt>
      <trkpt lat="42.396041" lon="-8.136366">
        <ele>183.235</ele>
        <time>1970-01-11T02:00:07Z</time>
      </trkpt>
      <trkpt lat="42.396009" lon="-8.136412">
        <ele>184.031</ele>
        <time>1970-01-11T02:00:07Z</time>
      </trkpt>
      <trkpt lat="42.395972" lon="-8.136461">
        <ele>185.299</ele>
        <time>1970-01-11T02:00:07Z</time>
      </trkpt>
      <trkpt lat="42.395927" lon="-8.136510">
        <ele>185.868</ele>
        <time>1970-01-11T02:00:07Z</time>
      </trkpt>
      <trkpt lat="42.395890" lon="-8.136554">
        <ele>186.493</ele>
        <time>1970-01-11T02:00:07Z</time>
      </trkpt>
      <trkpt lat="42.395866" lon="-8.136576">
        <ele>187.071</ele>
        <time>1970-01-11T02:00:07Z</time>
      </trkpt>
      <trkpt lat="42.395848" lon="-8.136596">
        <ele>187.490</ele>
        <time>1970-01-11T02:00:07Z</time>
      </trkpt>
      <trkpt lat="42.395828" lon="-8.136612">
        <ele>187.833</ele>
        <time>1970-01-11T02:00:07Z</time>
      </trkpt>
      <trkpt lat="42.395776" lon="-8.136674">
        <ele>187.823</ele>
        <time>1970-01-11T02:00:07Z</time>
      </trkpt>
      <trkpt lat="42.395677" lon="-8.136827">
        <ele>188.215</ele>
        <time>1970-01-11T02:00:07Z</time>
      </trkpt>
      <trkpt lat="42.395621" lon="-8.136945">
        <ele>188.408</ele>
        <time>1970-01-11T02:00:07Z</time>
      </trkpt>
      <trkpt lat="42.395568" lon="-8.137041">
        <ele>189.284</ele>
        <time>1970-01-11T02:00:07Z</time>
      </trkpt>
      <trkpt lat="42.395529" lon="-8.137113">
        <ele>189.641</ele>
        <time>1970-01-11T02:00:07Z</time>
      </trkpt>
      <trkpt lat="42.395473" lon="-8.137213">
        <ele>190.027</ele>
        <time>1970-01-11T02:00:07Z</time>
      </trkpt>
      <trkpt lat="42.395392" lon="-8.137396">
        <ele>190.825</ele>
        <time>1970-01-11T02:00:07Z</time>
      </trkpt>
      <trkpt lat="42.395370" lon="-8.137455">
        <ele>191.294</ele>
        <time>1970-01-11T02:00:07Z</time>
      </trkpt>
      <trkpt lat="42.395326" lon="-8.137534">
        <ele>192.049</ele>
        <time>1970-01-11T02:00:07Z</time>
      </trkpt>
      <trkpt lat="42.395286" lon="-8.137616">
        <ele>193.267</ele>
        <time>1970-01-11T02:00:07Z</time>
      </trkpt>
      <trkpt lat="42.395203" lon="-8.137825">
        <ele>194.036</ele>
        <time>1970-01-11T02:00:07Z</time>
      </trkpt>
      <trkpt lat="42.395187" lon="-8.138098">
        <ele>193.838</ele>
        <time>1970-01-11T02:00:07Z</time>
      </trkpt>
      <trkpt lat="42.395178" lon="-8.138126">
        <ele>193.870</ele>
        <time>1970-01-11T02:00:07Z</time>
      </trkpt>
      <trkpt lat="42.395120" lon="-8.138117">
        <ele>193.817</ele>
        <time>1970-01-11T02:00:07Z</time>
      </trkpt>
      <trkpt lat="42.394998" lon="-8.138064">
        <ele>193.608</ele>
        <time>1970-01-11T02:00:07Z</time>
      </trkpt>
      <trkpt lat="42.394953" lon="-8.138038">
        <ele>193.494</ele>
        <time>1970-01-11T02:00:07Z</time>
      </trkpt>
      <trkpt lat="42.394859" lon="-8.137973">
        <ele>193.061</ele>
        <time>1970-01-11T02:00:07Z</time>
      </trkpt>
      <trkpt lat="42.394694" lon="-8.137879">
        <ele>191.837</ele>
        <time>1970-01-11T02:00:07Z</time>
      </trkpt>
      <trkpt lat="42.394572" lon="-8.137824">
        <ele>191.055</ele>
        <time>1970-01-11T02:00:07Z</time>
      </trkpt>
      <trkpt lat="42.394509" lon="-8.137795">
        <ele>190.444</ele>
        <time>1970-01-11T02:00:07Z</time>
      </trkpt>
      <trkpt lat="42.394457" lon="-8.137756">
        <ele>189.679</ele>
        <time>1970-01-11T02:00:07Z</time>
      </trkpt>
      <trkpt lat="42.394414" lon="-8.137699">
        <ele>188.897</ele>
        <time>1970-01-11T02:00:07Z</time>
      </trkpt>
      <trkpt lat="42.394371" lon="-8.137635">
        <ele>187.836</ele>
        <time>1970-01-11T02:00:07Z</time>
      </trkpt>
      <trkpt lat="42.394333" lon="-8.137578">
        <ele>186.638</ele>
        <time>1970-01-11T02:00:07Z</time>
      </trkpt>
      <trkpt lat="42.394296" lon="-8.137543">
        <ele>185.470</ele>
        <time>1970-01-11T02:00:07Z</time>
      </trkpt>
      <trkpt lat="42.394254" lon="-8.137533">
        <ele>184.217</ele>
        <time>1970-01-11T02:00:07Z</time>
      </trkpt>
      <trkpt lat="42.394207" lon="-8.137554">
        <ele>183.208</ele>
        <time>1970-01-11T02:00:07Z</time>
      </trkpt>
      <trkpt lat="42.394150" lon="-8.137610">
        <ele>182.024</ele>
        <time>1970-01-11T02:00:07Z</time>
      </trkpt>
      <trkpt lat="42.394091" lon="-8.137665">
        <ele>181.051</ele>
        <time>1970-01-11T02:00:07Z</time>
      </trkpt>
      <trkpt lat="42.394022" lon="-8.137724">
        <ele>179.867</ele>
        <time>1970-01-11T02:00:07Z</time>
      </trkpt>
      <trkpt lat="42.393888" lon="-8.137851">
        <ele>178.095</ele>
        <time>1970-01-11T02:00:07Z</time>
      </trkpt>
      <trkpt lat="42.393815" lon="-8.137908">
        <ele>177.234</ele>
        <time>1970-01-11T02:00:07Z</time>
      </trkpt>
      <trkpt lat="42.393732" lon="-8.137958">
        <ele>176.429</ele>
        <time>1970-01-11T02:00:07Z</time>
      </trkpt>
      <trkpt lat="42.393647" lon="-8.137999">
        <ele>175.237</ele>
        <time>1970-01-11T02:00:07Z</time>
      </trkpt>
      <trkpt lat="42.393573" lon="-8.138043">
        <ele>174.216</ele>
        <time>1970-01-11T02:00:07Z</time>
      </trkpt>
      <trkpt lat="42.393507" lon="-8.138087">
        <ele>173.031</ele>
        <time>1970-01-11T02:00:07Z</time>
      </trkpt>
      <trkpt lat="42.393448" lon="-8.138126">
        <ele>172.061</ele>
        <time>1970-01-11T02:00:07Z</time>
      </trkpt>
      <trkpt lat="42.393386" lon="-8.138169">
        <ele>170.607</ele>
        <time>1970-01-11T02:00:07Z</time>
      </trkpt>
      <trkpt lat="42.393327" lon="-8.138220">
        <ele>168.008</ele>
        <time>1970-01-11T02:00:07Z</time>
      </trkpt>
      <trkpt lat="42.393263" lon="-8.138280">
        <ele>167.074</ele>
        <time>1970-01-11T02:00:07Z</time>
      </trkpt>
      <trkpt lat="42.393195" lon="-8.138340">
        <ele>166.061</ele>
        <time>1970-01-11T02:00:07Z</time>
      </trkpt>
      <trkpt lat="42.393128" lon="-8.138403">
        <ele>164.877</ele>
        <time>1970-01-11T02:00:07Z</time>
      </trkpt>
      <trkpt lat="42.393066" lon="-8.138468">
        <ele>163.665</ele>
        <time>1970-01-11T02:00:07Z</time>
      </trkpt>
      <trkpt lat="42.393008" lon="-8.138517">
        <ele>162.614</ele>
        <time>1970-01-11T02:00:07Z</time>
      </trkpt>
      <trkpt lat="42.392949" lon="-8.138558">
        <ele>161.669</ele>
        <time>1970-01-11T02:00:07Z</time>
      </trkpt>
      <trkpt lat="42.392890" lon="-8.138583">
        <ele>160.427</ele>
        <time>1970-01-11T02:00:07Z</time>
      </trkpt>
      <trkpt lat="42.392837" lon="-8.138593">
        <ele>159.276</ele>
        <time>1970-01-11T02:00:07Z</time>
      </trkpt>
      <trkpt lat="42.392783" lon="-8.138576">
        <ele>158.048</ele>
        <time>1970-01-11T02:00:07Z</time>
      </trkpt>
      <trkpt lat="42.392733" lon="-8.138536">
        <ele>156.861</ele>
        <time>1970-01-11T02:00:07Z</time>
      </trkpt>
      <trkpt lat="42.392685" lon="-8.138487">
        <ele>155.617</ele>
        <time>1970-01-11T02:00:07Z</time>
      </trkpt>
      <trkpt lat="42.392641" lon="-8.138439">
        <ele>154.408</ele>
        <time>1970-01-11T02:00:07Z</time>
      </trkpt>
      <trkpt lat="42.392605" lon="-8.138393">
        <ele>153.285</ele>
        <time>1970-01-11T02:00:07Z</time>
      </trkpt>
      <trkpt lat="42.392584" lon="-8.138328">
        <ele>152.082</ele>
        <time>1970-01-11T02:00:07Z</time>
      </trkpt>
      <trkpt lat="42.392570" lon="-8.138260">
        <ele>150.818</ele>
        <time>1970-01-11T02:00:07Z</time>
      </trkpt>
      <trkpt lat="42.392561" lon="-8.138191">
        <ele>149.866</ele>
        <time>1970-01-11T02:00:07Z</time>
      </trkpt>
      <trkpt lat="42.392555" lon="-8.138113">
        <ele>148.845</ele>
        <time>1970-01-11T02:00:07Z</time>
      </trkpt>
      <trkpt lat="42.392557" lon="-8.138023">
        <ele>147.870</ele>
        <time>1970-01-11T02:00:07Z</time>
      </trkpt>
      <trkpt lat="42.392559" lon="-8.137938">
        <ele>147.098</ele>
        <time>1970-01-11T02:00:07Z</time>
      </trkpt>
      <trkpt lat="42.392584" lon="-8.137834">
        <ele>146.477</ele>
        <time>1970-01-11T02:00:07Z</time>
      </trkpt>
      <trkpt lat="42.392671" lon="-8.137637">
        <ele>145.879</ele>
        <time>1970-01-11T02:00:07Z</time>
      </trkpt>
      <trkpt lat="42.392744" lon="-8.137424">
        <ele>144.605</ele>
        <time>1970-01-11T02:00:07Z</time>
      </trkpt>
      <trkpt lat="42.392775" lon="-8.137165">
        <ele>143.225</ele>
        <time>1970-01-11T02:00:07Z</time>
      </trkpt>
      <trkpt lat="42.392781" lon="-8.136895">
        <ele>141.608</ele>
        <time>1970-01-11T02:00:07Z</time>
      </trkpt>
      <trkpt lat="42.392763" lon="-8.136640">
        <ele>140.298</ele>
        <time>1970-01-11T02:00:07Z</time>
      </trkpt>
      <trkpt lat="42.392756" lon="-8.136524">
        <ele>139.695</ele>
        <time>1970-01-11T02:00:07Z</time>
      </trkpt>
      <trkpt lat="42.392748" lon="-8.136428">
        <ele>139.061</ele>
        <time>1970-01-11T02:00:07Z</time>
      </trkpt>
      <trkpt lat="42.392738" lon="-8.136242">
        <ele>137.469</ele>
        <time>1970-01-11T02:00:07Z</time>
      </trkpt>
      <trkpt lat="42.392749" lon="-8.136139">
        <ele>136.438</ele>
        <time>1970-01-11T02:00:07Z</time>
      </trkpt>
      <trkpt lat="42.392776" lon="-8.136018">
        <ele>135.443</ele>
        <time>1970-01-11T02:00:07Z</time>
      </trkpt>
      <trkpt lat="42.392788" lon="-8.135896">
        <ele>134.021</ele>
        <time>1970-01-11T02:00:07Z</time>
      </trkpt>
      <trkpt lat="42.392802" lon="-8.135769">
        <ele>132.460</ele>
        <time>1970-01-11T02:00:07Z</time>
      </trkpt>
      <trkpt lat="42.392828" lon="-8.135636">
        <ele>130.868</ele>
        <time>1970-01-11T02:00:07Z</time>
      </trkpt>
      <trkpt lat="42.392858" lon="-8.135501">
        <ele>129.242</ele>
        <time>1970-01-11T02:00:07Z</time>
      </trkpt>
      <trkpt lat="42.392902" lon="-8.135391">
        <ele>127.826</ele>
        <time>1970-01-11T02:00:07Z</time>
      </trkpt>
      <trkpt lat="42.392952" lon="-8.135314">
        <ele>126.408</ele>
        <time>1970-01-11T02:00:07Z</time>
      </trkpt>
      <trkpt lat="42.393006" lon="-8.135248">
        <ele>124.857</ele>
        <time>1970-01-11T02:00:07Z</time>
      </trkpt>
      <trkpt lat="42.393066" lon="-8.135190">
        <ele>123.464</ele>
        <time>1970-01-11T02:00:07Z</time>
      </trkpt>
      <trkpt lat="42.393125" lon="-8.135118">
        <ele>122.290</ele>
        <time>1970-01-11T02:00:07Z</time>
      </trkpt>
      <trkpt lat="42.393175" lon="-8.135045">
        <ele>121.268</ele>
        <time>1970-01-11T02:00:07Z</time>
      </trkpt>
      <trkpt lat="42.393220" lon="-8.134978">
        <ele>120.427</ele>
        <time>1970-01-11T02:00:07Z</time>
      </trkpt>
      <trkpt lat="42.393255" lon="-8.134915">
        <ele>118.462</ele>
        <time>1970-01-11T02:00:07Z</time>
      </trkpt>
      <trkpt lat="42.393260" lon="-8.134837">
        <ele>117.450</ele>
        <time>1970-01-11T02:00:07Z</time>
      </trkpt>
      <trkpt lat="42.393254" lon="-8.134780">
        <ele>116.699</ele>
        <time>1970-01-11T02:00:07Z</time>
      </trkpt>
      <trkpt lat="42.393236" lon="-8.134738">
        <ele>116.443</ele>
        <time>1970-01-11T02:00:07Z</time>
      </trkpt>
      <trkpt lat="42.393212" lon="-8.134706">
        <ele>116.264</ele>
        <time>1970-01-11T02:00:07Z</time>
      </trkpt>
      <trkpt lat="42.393186" lon="-8.134680">
        <ele>116.210</ele>
        <time>1970-01-11T02:00:07Z</time>
      </trkpt>
      <trkpt lat="42.393129" lon="-8.134629">
        <ele>116.608</ele>
        <time>1970-01-11T02:00:07Z</time>
      </trkpt>
      <trkpt lat="42.393067" lon="-8.134564">
        <ele>117.265</ele>
        <time>1970-01-11T02:00:07Z</time>
      </trkpt>
      <trkpt lat="42.393035" lon="-8.134529">
        <ele>117.492</ele>
        <time>1970-01-11T02:00:07Z</time>
      </trkpt>
      <trkpt lat="42.393003" lon="-8.134499">
        <ele>117.498</ele>
        <time>1970-01-11T02:00:07Z</time>
      </trkpt>
      <trkpt lat="42.392905" lon="-8.134401">
        <ele>117.626</ele>
        <time>1970-01-11T02:00:07Z</time>
      </trkpt>
      <trkpt lat="42.392783" lon="-8.134339">
        <ele>118.025</ele>
        <time>1970-01-11T02:00:07Z</time>
      </trkpt>
      <trkpt lat="42.392729" lon="-8.134350">
        <ele>118.230</ele>
        <time>1970-01-11T02:00:07Z</time>
      </trkpt>
      <trkpt lat="42.392613" lon="-8.134352">
        <ele>118.278</ele>
        <time>1970-01-11T02:00:07Z</time>
      </trkpt>
      <trkpt lat="42.392550" lon="-8.134336">
        <ele>118.257</ele>
        <time>1970-01-11T02:00:07Z</time>
      </trkpt>
      <trkpt lat="42.392364" lon="-8.134230">
        <ele>116.897</ele>
        <time>1970-01-11T02:00:07Z</time>
      </trkpt>
      <trkpt lat="42.392297" lon="-8.134169">
        <ele>116.423</ele>
        <time>1970-01-11T02:00:07Z</time>
      </trkpt>
      <trkpt lat="42.392104" lon="-8.133908">
        <ele>114.625</ele>
        <time>1970-01-11T02:00:07Z</time>
      </trkpt>
      <trkpt lat="42.392049" lon="-8.133814">
        <ele>113.608</ele>
        <time>1970-01-11T02:00:07Z</time>
      </trkpt>
      <trkpt lat="42.391996" lon="-8.133733">
        <ele>113.090</ele>
        <time>1970-01-11T02:00:07Z</time>
      </trkpt>
      <trkpt lat="42.391938" lon="-8.133662">
        <ele>112.467</ele>
        <time>1970-01-11T02:00:07Z</time>
      </trkpt>
      <trkpt lat="42.391831" lon="-8.133537">
        <ele>111.623</ele>
        <time>1970-01-11T02:00:07Z</time>
      </trkpt>
      <trkpt lat="42.391639" lon="-8.133285">
        <ele>110.681</ele>
        <time>1970-01-11T02:00:07Z</time>
      </trkpt>
      <trkpt lat="42.391523" lon="-8.133119">
        <ele>109.490</ele>
        <time>1970-01-11T02:00:07Z</time>
      </trkpt>
      <trkpt lat="42.391395" lon="-8.132947">
        <ele>107.695</ele>
        <time>1970-01-11T02:00:07Z</time>
      </trkpt>
      <trkpt lat="42.391267" lon="-8.132760">
        <ele>105.673</ele>
        <time>1970-01-11T02:00:07Z</time>
      </trkpt>
      <trkpt lat="42.391137" lon="-8.132551">
        <ele>104.272</ele>
        <time>1970-01-11T02:00:07Z</time>
      </trkpt>
      <trkpt lat="42.391012" lon="-8.132395">
        <ele>102.684</ele>
        <time>1970-01-11T02:00:07Z</time>
      </trkpt>
      <trkpt lat="42.390957" lon="-8.132347">
        <ele>100.407</ele>
        <time>1970-01-11T02:00:07Z</time>
      </trkpt>
      <trkpt lat="42.390901" lon="-8.132304">
        <ele>99.217</ele>
        <time>1970-01-11T02:00:07Z</time>
      </trkpt>
      <trkpt lat="42.390842" lon="-8.132277">
        <ele>98.208</ele>
        <time>1970-01-11T02:00:07Z</time>
      </trkpt>
      <trkpt lat="42.390777" lon="-8.132261">
        <ele>97.019</ele>
        <time>1970-01-11T02:00:07Z</time>
      </trkpt>
      <trkpt lat="42.390712" lon="-8.132256">
        <ele>95.866</ele>
        <time>1970-01-11T02:00:07Z</time>
      </trkpt>
      <trkpt lat="42.390650" lon="-8.132245">
        <ele>94.612</ele>
        <time>1970-01-11T02:00:08Z</time>
      </trkpt>
      <trkpt lat="42.390582" lon="-8.132213">
        <ele>93.250</ele>
        <time>1970-01-11T02:00:08Z</time>
      </trkpt>
      <trkpt lat="42.390531" lon="-8.132153">
        <ele>91.869</ele>
        <time>1970-01-11T02:00:08Z</time>
      </trkpt>
      <trkpt lat="42.390478" lon="-8.132083">
        <ele>90.284</ele>
        <time>1970-01-11T02:00:08Z</time>
      </trkpt>
      <trkpt lat="42.390443" lon="-8.132004">
        <ele>88.862</ele>
        <time>1970-01-11T02:00:08Z</time>
      </trkpt>
      <trkpt lat="42.390414" lon="-8.131928">
        <ele>87.431</ele>
        <time>1970-01-11T02:00:08Z</time>
      </trkpt>
      <trkpt lat="42.390391" lon="-8.131852">
        <ele>86.459</ele>
        <time>1970-01-11T02:00:08Z</time>
      </trkpt>
      <trkpt lat="42.390366" lon="-8.131782">
        <ele>85.403</ele>
        <time>1970-01-11T02:00:08Z</time>
      </trkpt>
      <trkpt lat="42.390341" lon="-8.131717">
        <ele>85.023</ele>
        <time>1970-01-11T02:00:08Z</time>
      </trkpt>
      <trkpt lat="42.390231" lon="-8.131482">
        <ele>84.408</ele>
        <time>1970-01-11T02:00:08Z</time>
      </trkpt>
      <trkpt lat="42.390077" lon="-8.131262">
        <ele>84.496</ele>
        <time>1970-01-11T02:00:08Z</time>
      </trkpt>
      <trkpt lat="42.390030" lon="-8.131214">
        <ele>84.493</ele>
        <time>1970-01-11T02:00:08Z</time>
      </trkpt>
      <trkpt lat="42.389980" lon="-8.131171">
        <ele>84.449</ele>
        <time>1970-01-11T02:00:08Z</time>
      </trkpt>
      <trkpt lat="42.389841" lon="-8.131039">
        <ele>84.427</ele>
        <time>1970-01-11T02:00:08Z</time>
      </trkpt>
      <trkpt lat="42.389797" lon="-8.131008">
        <ele>84.676</ele>
        <time>1970-01-11T02:00:08Z</time>
      </trkpt>
      <trkpt lat="42.389760" lon="-8.130972">
        <ele>84.671</ele>
        <time>1970-01-11T02:00:08Z</time>
      </trkpt>
      <trkpt lat="42.389529" lon="-8.130730">
        <ele>84.679</ele>
        <time>1970-01-11T02:00:08Z</time>
      </trkpt>
      <trkpt lat="42.389381" lon="-8.130545">
        <ele>83.868</ele>
        <time>1970-01-11T02:00:08Z</time>
      </trkpt>
      <trkpt lat="42.389314" lon="-8.130438">
        <ele>83.611</ele>
        <time>1970-01-11T02:00:08Z</time>
      </trkpt>
      <trkpt lat="42.389113" lon="-8.130162">
        <ele>83.621</ele>
        <time>1970-01-11T02:00:08Z</time>
      </trkpt>
      <trkpt lat="42.389062" lon="-8.130122">
        <ele>83.603</ele>
        <time>1970-01-11T02:00:08Z</time>
      </trkpt>
      <trkpt lat="42.388887" lon="-8.130030">
        <ele>83.408</ele>
        <time>1970-01-11T02:00:08Z</time>
      </trkpt>
      <trkpt lat="42.388759" lon="-8.130006">
        <ele>83.012</ele>
        <time>1970-01-11T02:00:08Z</time>
      </trkpt>
      <trkpt lat="42.388623" lon="-8.129963">
        <ele>82.869</ele>
        <time>1970-01-11T02:00:08Z</time>
      </trkpt>
      <trkpt lat="42.388555" lon="-8.129924">
        <ele>82.615</ele>
        <time>1970-01-11T02:00:08Z</time>
      </trkpt>
      <trkpt lat="42.388496" lon="-8.129877">
        <ele>82.463</ele>
        <time>1970-01-11T02:00:08Z</time>
      </trkpt>
      <trkpt lat="42.388358" lon="-8.129716">
        <ele>81.832</ele>
        <time>1970-01-11T02:00:08Z</time>
      </trkpt>
      <trkpt lat="42.388319" lon="-8.129666">
        <ele>81.437</ele>
        <time>1970-01-11T02:00:08Z</time>
      </trkpt>
      <trkpt lat="42.388254" lon="-8.129574">
        <ele>80.825</ele>
        <time>1970-01-11T02:00:08Z</time>
      </trkpt>
      <trkpt lat="42.388211" lon="-8.129495">
        <ele>80.664</ele>
        <time>1970-01-11T02:00:08Z</time>
      </trkpt>
      <trkpt lat="42.388188" lon="-8.129453">
        <ele>80.454</ele>
        <time>1970-01-11T02:00:08Z</time>
      </trkpt>
      <trkpt lat="42.388149" lon="-8.129388">
        <ele>80.256</ele>
        <time>1970-01-11T02:00:08Z</time>
      </trkpt>
      <trkpt lat="42.388102" lon="-8.129280">
        <ele>79.611</ele>
        <time>1970-01-11T02:00:08Z</time>
      </trkpt>
      <trkpt lat="42.388081" lon="-8.129210">
        <ele>79.208</ele>
        <time>1970-01-11T02:00:08Z</time>
      </trkpt>
      <trkpt lat="42.388065" lon="-8.129133">
        <ele>79.286</ele>
        <time>1970-01-11T02:00:08Z</time>
      </trkpt>
      <trkpt lat="42.388033" lon="-8.128983">
        <ele>79.453</ele>
        <time>1970-01-11T02:00:08Z</time>
      </trkpt>
      <trkpt lat="42.388018" lon="-8.128872">
        <ele>79.449</ele>
        <time>1970-01-11T02:00:08Z</time>
      </trkpt>
      <trkpt lat="42.387931" lon="-8.128477">
        <ele>79.697</ele>
        <time>1970-01-11T02:00:08Z</time>
      </trkpt>
      <trkpt lat="42.387868" lon="-8.128236">
        <ele>79.886</ele>
        <time>1970-01-11T02:00:08Z</time>
      </trkpt>
      <trkpt lat="42.387855" lon="-8.128184">
        <ele>80.031</ele>
        <time>1970-01-11T02:00:08Z</time>
      </trkpt>
      <trkpt lat="42.387782" lon="-8.127775">
        <ele>80.049</ele>
        <time>1970-01-11T02:00:08Z</time>
      </trkpt>
      <trkpt lat="42.387725" lon="-8.127350">
        <ele>79.838</ele>
        <time>1970-01-11T02:00:08Z</time>
      </trkpt>
      <trkpt lat="42.387615" lon="-8.126964">
        <ele>79.623</ele>
        <time>1970-01-11T02:00:08Z</time>
      </trkpt>
      <trkpt lat="42.387652" lon="-8.126721">
        <ele>80.083</ele>
        <time>1970-01-11T02:00:08Z</time>
      </trkpt>
      <trkpt lat="42.387678" lon="-8.126641">
        <ele>80.411</ele>
        <time>1970-01-11T02:00:08Z</time>
      </trkpt>
      <trkpt lat="42.387704" lon="-8.126558">
        <ele>81.008</ele>
        <time>1970-01-11T02:00:08Z</time>
      </trkpt>
      <trkpt lat="42.387729" lon="-8.126479">
        <ele>81.663</ele>
        <time>1970-01-11T02:00:08Z</time>
      </trkpt>
      <trkpt lat="42.387782" lon="-8.126380">
        <ele>82.220</ele>
        <time>1970-01-11T02:00:08Z</time>
      </trkpt>
      <trkpt lat="42.387825" lon="-8.126300">
        <ele>82.616</ele>
        <time>1970-01-11T02:00:08Z</time>
      </trkpt>
      <trkpt lat="42.387846" lon="-8.126181">
        <ele>83.214</ele>
        <time>1970-01-11T02:00:08Z</time>
      </trkpt>
      <trkpt lat="42.387839" lon="-8.126097">
        <ele>83.853</ele>
        <time>1970-01-11T02:00:08Z</time>
      </trkpt>
      <trkpt lat="42.387786" lon="-8.125941">
        <ele>84.898</ele>
        <time>1970-01-11T02:00:08Z</time>
      </trkpt>
      <trkpt lat="42.387718" lon="-8.125779">
        <ele>85.846</ele>
        <time>1970-01-11T02:00:08Z</time>
      </trkpt>
      <trkpt lat="42.387669" lon="-8.125649">
        <ele>86.495</ele>
        <time>1970-01-11T02:00:08Z</time>
      </trkpt>
      <trkpt lat="42.387641" lon="-8.125585">
        <ele>86.888</ele>
        <time>1970-01-11T02:00:08Z</time>
      </trkpt>
      <trkpt lat="42.387552" lon="-8.125425">
        <ele>87.824</ele>
        <time>1970-01-11T02:00:08Z</time>
      </trkpt>
      <trkpt lat="42.387536" lon="-8.125392">
        <ele>88.026</ele>
        <time>1970-01-11T02:00:08Z</time>
      </trkpt>
      <trkpt lat="42.387458" lon="-8.125279">
        <ele>88.808</ele>
        <time>1970-01-11T02:00:08Z</time>
      </trkpt>
      <trkpt lat="42.387412" lon="-8.125219">
        <ele>89.289</ele>
        <time>1970-01-11T02:00:08Z</time>
      </trkpt>
      <trkpt lat="42.387334" lon="-8.125143">
        <ele>90.096</ele>
        <time>1970-01-11T02:00:08Z</time>
      </trkpt>
      <trkpt lat="42.387229" lon="-8.125065">
        <ele>91.042</ele>
        <time>1970-01-11T02:00:08Z</time>
      </trkpt>
      <trkpt lat="42.387203" lon="-8.125044">
        <ele>91.260</ele>
        <time>1970-01-11T02:00:08Z</time>
      </trkpt>
      <trkpt lat="42.387056" lon="-8.124952">
        <ele>92.299</ele>
        <time>1970-01-11T02:00:08Z</time>
      </trkpt>
      <trkpt lat="42.386995" lon="-8.124918">
        <ele>92.624</ele>
        <time>1970-01-11T02:00:08Z</time>
      </trkpt>
      <trkpt lat="42.386827" lon="-8.124849">
        <ele>93.472</ele>
        <time>1970-01-11T02:00:08Z</time>
      </trkpt>
      <trkpt lat="42.386717" lon="-8.124820">
        <ele>94.011</ele>
        <time>1970-01-11T02:00:08Z</time>
      </trkpt>
      <trkpt lat="42.386638" lon="-8.124792">
        <ele>94.411</ele>
        <time>1970-01-11T02:00:08Z</time>
      </trkpt>
      <trkpt lat="42.386449" lon="-8.124715">
        <ele>95.621</ele>
        <time>1970-01-11T02:00:08Z</time>
      </trkpt>
      <trkpt lat="42.386410" lon="-8.124696">
        <ele>95.803</ele>
        <time>1970-01-11T02:00:08Z</time>
      </trkpt>
      <trkpt lat="42.386263" lon="-8.124631">
        <ele>96.608</ele>
        <time>1970-01-11T02:00:08Z</time>
      </trkpt>
      <trkpt lat="42.386123" lon="-8.124575">
        <ele>97.422</ele>
        <time>1970-01-11T02:00:08Z</time>
      </trkpt>
      <trkpt lat="42.386054" lon="-8.124535">
        <ele>97.839</ele>
        <time>1970-01-11T02:00:08Z</time>
      </trkpt>
      <trkpt lat="42.385880" lon="-8.124457">
        <ele>99.095</ele>
        <time>1970-01-11T02:00:08Z</time>
      </trkpt>
      <trkpt lat="42.385847" lon="-8.124446">
        <ele>99.263</ele>
        <time>1970-01-11T02:00:08Z</time>
      </trkpt>
      <trkpt lat="42.385718" lon="-8.124359">
        <ele>100.062</ele>
        <time>1970-01-11T02:00:08Z</time>
      </trkpt>
      <trkpt lat="42.385620" lon="-8.124288">
        <ele>100.677</ele>
        <time>1970-01-11T02:00:08Z</time>
      </trkpt>
      <trkpt lat="42.385409" lon="-8.124122">
        <ele>101.215</ele>
        <time>1970-01-11T02:00:08Z</time>
      </trkpt>
      <trkpt lat="42.385374" lon="-8.124096">
        <ele>101.214</ele>
        <time>1970-01-11T02:00:08Z</time>
      </trkpt>
      <trkpt lat="42.385176" lon="-8.123913">
        <ele>102.267</ele>
        <time>1970-01-11T02:00:08Z</time>
      </trkpt>
      <trkpt lat="42.385119" lon="-8.123844">
        <ele>102.481</ele>
        <time>1970-01-11T02:00:08Z</time>
      </trkpt>
      <trkpt lat="42.385024" lon="-8.123707">
        <ele>103.219</ele>
        <time>1970-01-11T02:00:08Z</time>
      </trkpt>
      <trkpt lat="42.384969" lon="-8.123632">
        <ele>103.808</ele>
        <time>1970-01-11T02:00:08Z</time>
      </trkpt>
      <trkpt lat="42.384906" lon="-8.123570">
        <ele>104.297</ele>
        <time>1970-01-11T02:00:08Z</time>
      </trkpt>
      <trkpt lat="42.384805" lon="-8.123448">
        <ele>105.274</ele>
        <time>1970-01-11T02:00:08Z</time>
      </trkpt>
      <trkpt lat="42.384782" lon="-8.123424">
        <ele>105.490</ele>
        <time>1970-01-11T02:00:08Z</time>
      </trkpt>
      <trkpt lat="42.384618" lon="-8.123275">
        <ele>106.218</ele>
        <time>1970-01-11T02:00:08Z</time>
      </trkpt>
      <trkpt lat="42.384598" lon="-8.123269">
        <ele>106.427</ele>
        <time>1970-01-11T02:00:08Z</time>
      </trkpt>
      <trkpt lat="42.384548" lon="-8.123243">
        <ele>106.822</ele>
        <time>1970-01-11T02:00:08Z</time>
      </trkpt>
      <trkpt lat="42.384541" lon="-8.123228">
        <ele>106.880</ele>
        <time>1970-01-11T02:00:08Z</time>
      </trkpt>
      <trkpt lat="42.384496" lon="-8.123192">
        <ele>107.099</ele>
        <time>1970-01-11T02:00:08Z</time>
      </trkpt>
      <trkpt lat="42.384477" lon="-8.123179">
        <ele>107.279</ele>
        <time>1970-01-11T02:00:08Z</time>
      </trkpt>
      <trkpt lat="42.384460" lon="-8.123166">
        <ele>107.205</ele>
        <time>1970-01-11T02:00:08Z</time>
      </trkpt>
      <trkpt lat="42.384430" lon="-8.123140">
        <ele>107.225</ele>
        <time>1970-01-11T02:00:08Z</time>
      </trkpt>
      <trkpt lat="42.384391" lon="-8.123120">
        <ele>107.408</ele>
        <time>1970-01-11T02:00:08Z</time>
      </trkpt>
      <trkpt lat="42.384338" lon="-8.123071">
        <ele>107.638</ele>
        <time>1970-01-11T02:00:08Z</time>
      </trkpt>
      <trkpt lat="42.384238" lon="-8.122963">
        <ele>108.225</ele>
        <time>1970-01-11T02:00:08Z</time>
      </trkpt>
      <trkpt lat="42.384197" lon="-8.122919">
        <ele>108.441</ele>
        <time>1970-01-11T02:00:08Z</time>
      </trkpt>
      <trkpt lat="42.384160" lon="-8.122873">
        <ele>108.699</ele>
        <time>1970-01-11T02:00:08Z</time>
      </trkpt>
      <trkpt lat="42.384067" lon="-8.122714">
        <ele>109.478</ele>
        <time>1970-01-11T02:00:08Z</time>
      </trkpt>
      <trkpt lat="42.384050" lon="-8.122681">
        <ele>109.663</ele>
        <time>1970-01-11T02:00:08Z</time>
      </trkpt>
      <trkpt lat="42.384011" lon="-8.122624">
        <ele>109.891</ele>
        <time>1970-01-11T02:00:08Z</time>
      </trkpt>
      <trkpt lat="42.383916" lon="-8.122490">
        <ele>110.690</ele>
        <time>1970-01-11T02:00:08Z</time>
      </trkpt>
      <trkpt lat="42.383896" lon="-8.122462">
        <ele>110.619</ele>
        <time>1970-01-11T02:00:08Z</time>
      </trkpt>
      <trkpt lat="42.383786" lon="-8.122314">
        <ele>111.409</ele>
        <time>1970-01-11T02:00:08Z</time>
      </trkpt>
      <trkpt lat="42.383705" lon="-8.122223">
        <ele>111.819</ele>
        <time>1970-01-11T02:00:08Z</time>
      </trkpt>
      <trkpt lat="42.383546" lon="-8.122099">
        <ele>112.808</ele>
        <time>1970-01-11T02:00:08Z</time>
      </trkpt>
      <trkpt lat="42.383510" lon="-8.122077">
        <ele>113.062</ele>
        <time>1970-01-11T02:00:08Z</time>
      </trkpt>
      <trkpt lat="42.383477" lon="-8.122055">
        <ele>113.439</ele>
        <time>1970-01-11T02:00:08Z</time>
      </trkpt>
      <trkpt lat="42.383356" lon="-8.121947">
        <ele>114.255</ele>
        <time>1970-01-11T02:00:08Z</time>
      </trkpt>
      <trkpt lat="42.383200" lon="-8.121825">
        <ele>115.293</ele>
        <time>1970-01-11T02:00:08Z</time>
      </trkpt>
      <trkpt lat="42.383073" lon="-8.121670">
        <ele>116.482</ele>
        <time>1970-01-11T02:00:08Z</time>
      </trkpt>
      <trkpt lat="42.383026" lon="-8.121593">
        <ele>116.687</ele>
        <time>1970-01-11T02:00:08Z</time>
      </trkpt>
      <trkpt lat="42.382911" lon="-8.121253">
        <ele>117.435</ele>
        <time>1970-01-11T02:00:08Z</time>
      </trkpt>
      <trkpt lat="42.382961" lon="-8.121073">
        <ele>117.814</ele>
        <time>1970-01-11T02:00:08Z</time>
      </trkpt>
      <trkpt lat="42.382979" lon="-8.121033">
        <ele>118.053</ele>
        <time>1970-01-11T02:00:08Z</time>
      </trkpt>
      <trkpt lat="42.383047" lon="-8.120866">
        <ele>118.204</ele>
        <time>1970-01-11T02:00:08Z</time>
      </trkpt>
      <trkpt lat="42.383064" lon="-8.120796">
        <ele>118.214</ele>
        <time>1970-01-11T02:00:08Z</time>
      </trkpt>
      <trkpt lat="42.383206" lon="-8.120380">
        <ele>117.208</ele>
        <time>1970-01-11T02:00:08Z</time>
      </trkpt>
      <trkpt lat="42.383384" lon="-8.120159">
        <ele>116.076</ele>
        <time>1970-01-11T02:00:08Z</time>
      </trkpt>
      <trkpt lat="42.383452" lon="-8.120084">
        <ele>115.643</ele>
        <time>1970-01-11T02:00:08Z</time>
      </trkpt>
      <trkpt lat="42.383578" lon="-8.119909">
        <ele>114.839</ele>
        <time>1970-01-11T02:00:08Z</time>
      </trkpt>
      <trkpt lat="42.383631" lon="-8.119799">
        <ele>114.457</ele>
        <time>1970-01-11T02:00:08Z</time>
      </trkpt>
      <trkpt lat="42.383674" lon="-8.119685">
        <ele>114.016</ele>
        <time>1970-01-11T02:00:08Z</time>
      </trkpt>
      <trkpt lat="42.383717" lon="-8.119570">
        <ele>113.471</ele>
        <time>1970-01-11T02:00:08Z</time>
      </trkpt>
      <trkpt lat="42.383814" lon="-8.119349">
        <ele>111.619</ele>
        <time>1970-01-11T02:00:08Z</time>
      </trkpt>
      <trkpt lat="42.383926" lon="-8.119145">
        <ele>110.678</ele>
        <time>1970-01-11T02:00:08Z</time>
      </trkpt>
      <trkpt lat="42.383982" lon="-8.119047">
        <ele>110.224</ele>
        <time>1970-01-11T02:00:08Z</time>
      </trkpt>
      <trkpt lat="42.384041" lon="-8.118946">
        <ele>109.604</ele>
        <time>1970-01-11T02:00:08Z</time>
      </trkpt>
      <trkpt lat="42.384162" lon="-8.118733">
        <ele>108.214</ele>
        <time>1970-01-11T02:00:08Z</time>
      </trkpt>
      <trkpt lat="42.384246" lon="-8.118515">
        <ele>106.808</ele>
        <time>1970-01-11T02:00:08Z</time>
      </trkpt>
      <trkpt lat="42.384253" lon="-8.118278">
        <ele>105.613</ele>
        <time>1970-01-11T02:00:08Z</time>
      </trkpt>
      <trkpt lat="42.384222" lon="-8.118162">
        <ele>105.010</ele>
        <time>1970-01-11T02:00:08Z</time>
      </trkpt>
      <trkpt lat="42.384201" lon="-8.118057">
        <ele>104.256</ele>
        <time>1970-01-11T02:00:08Z</time>
      </trkpt>
      <trkpt lat="42.384154" lon="-8.117855">
        <ele>103.214</ele>
        <time>1970-01-11T02:00:08Z</time>
      </trkpt>
      <trkpt lat="42.384004" lon="-8.117817">
        <ele>103.293</ele>
        <time>1970-01-11T02:00:08Z</time>
      </trkpt>
      <trkpt lat="42.383832" lon="-8.117880">
        <ele>103.678</ele>
        <time>1970-01-11T02:00:08Z</time>
      </trkpt>
      <trkpt lat="42.383684" lon="-8.117922">
        <ele>104.256</ele>
        <time>1970-01-11T02:00:08Z</time>
      </trkpt>
      <trkpt lat="42.383613" lon="-8.117949">
        <ele>104.455</ele>
        <time>1970-01-11T02:00:08Z</time>
      </trkpt>
      <trkpt lat="42.383554" lon="-8.117957">
        <ele>105.069</ele>
        <time>1970-01-11T02:00:08Z</time>
      </trkpt>
      <trkpt lat="42.383447" lon="-8.117966">
        <ele>105.604</ele>
        <time>1970-01-11T02:00:08Z</time>
      </trkpt>
      <trkpt lat="42.383344" lon="-8.117953">
        <ele>106.224</ele>
        <time>1970-01-11T02:00:08Z</time>
      </trkpt>
      <trkpt lat="42.383295" lon="-8.117938">
        <ele>106.408</ele>
        <time>1970-01-11T02:00:08Z</time>
      </trkpt>
      <trkpt lat="42.383247" lon="-8.117917">
        <ele>106.667</ele>
        <time>1970-01-11T02:00:08Z</time>
      </trkpt>
      <trkpt lat="42.383159" lon="-8.117861">
        <ele>107.224</ele>
        <time>1970-01-11T02:00:08Z</time>
      </trkpt>
      <trkpt lat="42.383077" lon="-8.117806">
        <ele>107.820</ele>
        <time>1970-01-11T02:00:08Z</time>
      </trkpt>
      <trkpt lat="42.383035" lon="-8.117777">
        <ele>108.048</ele>
        <time>1970-01-11T02:00:08Z</time>
      </trkpt>
      <trkpt lat="42.382908" lon="-8.117697">
        <ele>108.837</ele>
        <time>1970-01-11T02:00:08Z</time>
      </trkpt>
      <trkpt lat="42.382745" lon="-8.117657">
        <ele>109.432</ele>
        <time>1970-01-11T02:00:08Z</time>
      </trkpt>
      <trkpt lat="42.382692" lon="-8.117654">
        <ele>109.680</ele>
        <time>1970-01-11T02:00:08Z</time>
      </trkpt>
      <trkpt lat="42.382636" lon="-8.117661">
        <ele>109.869</ele>
        <time>1970-01-11T02:00:08Z</time>
      </trkpt>
      <trkpt lat="42.382492" lon="-8.117769">
        <ele>110.615</ele>
        <time>1970-01-11T02:00:08Z</time>
      </trkpt>
      <trkpt lat="42.382455" lon="-8.117812">
        <ele>111.065</ele>
        <time>1970-01-11T02:00:08Z</time>
      </trkpt>
      <trkpt lat="42.382356" lon="-8.118005">
        <ele>111.811</ele>
        <time>1970-01-11T02:00:08Z</time>
      </trkpt>
      <trkpt lat="42.382325" lon="-8.118032">
        <ele>112.008</ele>
        <time>1970-01-11T02:00:08Z</time>
      </trkpt>
      <trkpt lat="42.382266" lon="-8.118074">
        <ele>112.632</ele>
        <time>1970-01-11T02:00:08Z</time>
      </trkpt>
      <trkpt lat="42.382238" lon="-8.118094">
        <ele>113.059</ele>
        <time>1970-01-11T02:00:08Z</time>
      </trkpt>
      <trkpt lat="42.382209" lon="-8.118120">
        <ele>113.215</ele>
        <time>1970-01-11T02:00:08Z</time>
      </trkpt>
      <trkpt lat="42.382047" lon="-8.118219">
        <ele>113.833</ele>
        <time>1970-01-11T02:00:08Z</time>
      </trkpt>
      <trkpt lat="42.381791" lon="-8.118180">
        <ele>113.222</ele>
        <time>1970-01-11T02:00:08Z</time>
      </trkpt>
      <trkpt lat="42.381489" lon="-8.118130">
        <ele>111.847</ele>
        <time>1970-01-11T02:00:08Z</time>
      </trkpt>
      <trkpt lat="42.381398" lon="-8.118123">
        <ele>111.485</ele>
        <time>1970-01-11T02:00:08Z</time>
      </trkpt>
      <trkpt lat="42.381230" lon="-8.118118">
        <ele>110.834</ele>
        <time>1970-01-11T02:00:08Z</time>
      </trkpt>
      <trkpt lat="42.381058" lon="-8.118119">
        <ele>109.232</ele>
        <time>1970-01-11T02:00:08Z</time>
      </trkpt>
      <trkpt lat="42.380882" lon="-8.118145">
        <ele>108.292</ele>
        <time>1970-01-11T02:00:08Z</time>
      </trkpt>
      <trkpt lat="42.380793" lon="-8.118155">
        <ele>107.811</ele>
        <time>1970-01-11T02:00:08Z</time>
      </trkpt>
      <trkpt lat="42.380704" lon="-8.118162">
        <ele>107.608</ele>
        <time>1970-01-11T02:00:08Z</time>
      </trkpt>
      <trkpt lat="42.380457" lon="-8.118163">
        <ele>106.844</ele>
        <time>1970-01-11T02:00:08Z</time>
      </trkpt>
      <trkpt lat="42.380297" lon="-8.118166">
        <ele>105.881</ele>
        <time>1970-01-11T02:00:08Z</time>
      </trkpt>
      <trkpt lat="42.380062" lon="-8.118207">
        <ele>104.877</ele>
        <time>1970-01-11T02:00:08Z</time>
      </trkpt>
      <trkpt lat="42.379983" lon="-8.118233">
        <ele>104.435</ele>
        <time>1970-01-11T02:00:08Z</time>
      </trkpt>
      <trkpt lat="42.379900" lon="-8.118259">
        <ele>104.084</ele>
        <time>1970-01-11T02:00:08Z</time>
      </trkpt>
      <trkpt lat="42.379814" lon="-8.118275">
        <ele>103.449</ele>
        <time>1970-01-11T02:00:08Z</time>
      </trkpt>
      <trkpt lat="42.379729" lon="-8.118280">
        <ele>102.867</ele>
        <time>1970-01-11T02:00:08Z</time>
      </trkpt>
      <trkpt lat="42.379643" lon="-8.118280">
        <ele>102.446</ele>
        <time>1970-01-11T02:00:08Z</time>
      </trkpt>
      <trkpt lat="42.379556" lon="-8.118271">
        <ele>102.058</ele>
        <time>1970-01-11T02:00:08Z</time>
      </trkpt>
      <trkpt lat="42.379385" lon="-8.118226">
        <ele>101.052</ele>
        <time>1970-01-11T02:00:08Z</time>
      </trkpt>
      <trkpt lat="42.379208" lon="-8.118142">
        <ele>100.417</ele>
        <time>1970-01-11T02:00:08Z</time>
      </trkpt>
      <trkpt lat="42.379120" lon="-8.118089">
        <ele>99.408</ele>
        <time>1970-01-11T02:00:08Z</time>
      </trkpt>
      <trkpt lat="42.378836" lon="-8.117924">
        <ele>98.026</ele>
        <time>1970-01-11T02:00:08Z</time>
      </trkpt>
      <trkpt lat="42.378636" lon="-8.117813">
        <ele>97.243</ele>
        <time>1970-01-11T02:00:08Z</time>
      </trkpt>
      <trkpt lat="42.378535" lon="-8.117755">
        <ele>96.869</ele>
        <time>1970-01-11T02:00:08Z</time>
      </trkpt>
      <trkpt lat="42.378227" lon="-8.117595">
        <ele>95.447</ele>
        <time>1970-01-11T02:00:08Z</time>
      </trkpt>
      <trkpt lat="42.378020" lon="-8.117490">
        <ele>94.226</ele>
        <time>1970-01-11T02:00:08Z</time>
      </trkpt>
      <trkpt lat="42.377812" lon="-8.117385">
        <ele>93.231</ele>
        <time>1970-01-11T02:00:08Z</time>
      </trkpt>
      <trkpt lat="42.377602" lon="-8.117291">
        <ele>92.089</ele>
        <time>1970-01-11T02:00:08Z</time>
      </trkpt>
      <trkpt lat="42.377397" lon="-8.117209">
        <ele>91.228</ele>
        <time>1970-01-11T02:00:08Z</time>
      </trkpt>
      <trkpt lat="42.377293" lon="-8.117174">
        <ele>90.873</ele>
        <time>1970-01-11T02:00:08Z</time>
      </trkpt>
      <trkpt lat="42.377199" lon="-8.117141">
        <ele>90.285</ele>
        <time>1970-01-11T02:00:08Z</time>
      </trkpt>
      <trkpt lat="42.377101" lon="-8.117111">
        <ele>89.613</ele>
        <time>1970-01-11T02:00:08Z</time>
      </trkpt>
      <trkpt lat="42.376907" lon="-8.117049">
        <ele>88.608</ele>
        <time>1970-01-11T02:00:08Z</time>
      </trkpt>
      <trkpt lat="42.376814" lon="-8.117021">
        <ele>88.238</ele>
        <time>1970-01-11T02:00:08Z</time>
      </trkpt>
      <trkpt lat="42.376720" lon="-8.116993">
        <ele>87.495</ele>
        <time>1970-01-11T02:00:08Z</time>
      </trkpt>
      <trkpt lat="42.376355" lon="-8.116887">
        <ele>86.261</ele>
        <time>1970-01-11T02:00:08Z</time>
      </trkpt>
      <trkpt lat="42.376175" lon="-8.116838">
        <ele>85.889</ele>
        <time>1970-01-11T02:00:08Z</time>
      </trkpt>
      <trkpt lat="42.376089" lon="-8.116815">
        <ele>85.638</ele>
        <time>1970-01-11T02:00:08Z</time>
      </trkpt>
      <trkpt lat="42.375915" lon="-8.116763">
        <ele>85.213</ele>
        <time>1970-01-11T02:00:08Z</time>
      </trkpt>
      <trkpt lat="42.375568" lon="-8.116660">
        <ele>84.021</ele>
        <time>1970-01-11T02:00:08Z</time>
      </trkpt>
      <trkpt lat="42.375391" lon="-8.116616">
        <ele>83.450</ele>
        <time>1970-01-11T02:00:08Z</time>
      </trkpt>
      <trkpt lat="42.375218" lon="-8.116570">
        <ele>82.868</ele>
        <time>1970-01-11T02:00:08Z</time>
      </trkpt>
      <trkpt lat="42.375139" lon="-8.116562">
        <ele>82.442</ele>
        <time>1970-01-11T02:00:08Z</time>
      </trkpt>
      <trkpt lat="42.375001" lon="-8.116573">
        <ele>81.826</ele>
        <time>1970-01-11T02:00:08Z</time>
      </trkpt>
      <trkpt lat="42.374954" lon="-8.116620">
        <ele>81.608</ele>
        <time>1970-01-11T02:00:08Z</time>
      </trkpt>
      <trkpt lat="42.374918" lon="-8.116688">
        <ele>81.497</ele>
        <time>1970-01-11T02:00:08Z</time>
      </trkpt>
      <trkpt lat="42.374845" lon="-8.116847">
        <ele>80.214</ele>
        <time>1970-01-11T02:00:08Z</time>
      </trkpt>
      <trkpt lat="42.374771" lon="-8.116994">
        <ele>79.480</ele>
        <time>1970-01-11T02:00:08Z</time>
      </trkpt>
      <trkpt lat="42.374755" lon="-8.117081">
        <ele>79.098</ele>
        <time>1970-01-11T02:00:08Z</time>
      </trkpt>
      <trkpt lat="42.374759" lon="-8.117235">
        <ele>77.897</ele>
        <time>1970-01-11T02:00:08Z</time>
      </trkpt>
      <trkpt lat="42.374779" lon="-8.117330">
        <ele>76.672</ele>
        <time>1970-01-11T02:00:08Z</time>
      </trkpt>
      <trkpt lat="42.374807" lon="-8.117370">
        <ele>76.290</ele>
        <time>1970-01-11T02:00:08Z</time>
      </trkpt>
      <trkpt lat="42.374829" lon="-8.117393">
        <ele>75.879</ele>
        <time>1970-01-11T02:00:08Z</time>
      </trkpt>
      <trkpt lat="42.374841" lon="-8.117392">
        <ele>75.639</ele>
        <time>1970-01-11T02:00:08Z</time>
      </trkpt>
      <trkpt lat="42.374844" lon="-8.117369">
        <ele>75.601</ele>
        <time>1970-01-11T02:00:08Z</time>
      </trkpt>
      <trkpt lat="42.374832" lon="-8.117310">
        <ele>75.421</ele>
        <time>1970-01-11T02:00:08Z</time>
      </trkpt>
      <trkpt lat="42.374810" lon="-8.117285">
        <ele>75.408</ele>
        <time>1970-01-11T02:00:08Z</time>
      </trkpt>
      <trkpt lat="42.374776" lon="-8.117277">
        <ele>75.674</ele>
        <time>1970-01-11T02:00:08Z</time>
      </trkpt>
      <trkpt lat="42.374763" lon="-8.117244">
        <ele>75.851</ele>
        <time>1970-01-11T02:00:08Z</time>
      </trkpt>
      <trkpt lat="42.374753" lon="-8.117175">
        <ele>75.857</ele>
        <time>1970-01-11T02:00:08Z</time>
      </trkpt>
      <trkpt lat="42.374761" lon="-8.117138">
        <ele>75.865</ele>
        <time>1970-01-11T02:00:08Z</time>
      </trkpt>
      <trkpt lat="42.374763" lon="-8.117096">
        <ele>75.844</ele>
        <time>1970-01-11T02:00:08Z</time>
      </trkpt>
      <trkpt lat="42.374792" lon="-8.116903">
        <ele>76.029</ele>
        <time>1970-01-11T02:00:08Z</time>
      </trkpt>
      <trkpt lat="42.374771" lon="-8.116880">
        <ele>76.027</ele>
        <time>1970-01-11T02:00:08Z</time>
      </trkpt>
      <trkpt lat="42.374717" lon="-8.116914">
        <ele>76.246</ele>
        <time>1970-01-11T02:00:08Z</time>
      </trkpt>
      <trkpt lat="42.374676" lon="-8.117024">
        <ele>76.415</ele>
        <time>1970-01-11T02:00:08Z</time>
      </trkpt>
      <trkpt lat="42.374677" lon="-8.117100">
        <ele>76.665</ele>
        <time>1970-01-11T02:00:08Z</time>
      </trkpt>
      <trkpt lat="42.374693" lon="-8.117249">
        <ele>76.811</ele>
        <time>1970-01-11T02:00:08Z</time>
      </trkpt>
      <trkpt lat="42.374683" lon="-8.117319">
        <ele>76.808</ele>
        <time>1970-01-11T02:00:08Z</time>
      </trkpt>
      <trkpt lat="42.374660" lon="-8.117375">
        <ele>76.892</ele>
        <time>1970-01-11T02:00:08Z</time>
      </trkpt>
      <trkpt lat="42.374527" lon="-8.117433">
        <ele>76.459</ele>
        <time>1970-01-11T02:00:08Z</time>
      </trkpt>
      <trkpt lat="42.374392" lon="-8.117446">
        <ele>75.455</ele>
        <time>1970-01-11T02:00:08Z</time>
      </trkpt>
      <trkpt lat="42.374284" lon="-8.117450">
        <ele>75.013</ele>
        <time>1970-01-11T02:00:08Z</time>
      </trkpt>
      <trkpt lat="42.374232" lon="-8.117451">
        <ele>74.812</ele>
        <time>1970-01-11T02:00:08Z</time>
      </trkpt>
      <trkpt lat="42.373896" lon="-8.117420">
        <ele>74.627</ele>
        <time>1970-01-11T02:00:08Z</time>
      </trkpt>
      <trkpt lat="42.373493" lon="-8.117451">
        <ele>74.675</ele>
        <time>1970-01-11T02:00:08Z</time>
      </trkpt>
      <trkpt lat="42.373106" lon="-8.117601">
        <ele>74.654</ele>
        <time>1970-01-11T02:00:08Z</time>
      </trkpt>
      <trkpt lat="42.372997" lon="-8.117670">
        <ele>74.498</ele>
        <time>1970-01-11T02:00:08Z</time>
      </trkpt>
      <trkpt lat="42.372866" lon="-8.117783">
        <ele>74.215</ele>
        <time>1970-01-11T02:00:08Z</time>
      </trkpt>
      <trkpt lat="42.372824" lon="-8.117828">
        <ele>74.226</ele>
        <time>1970-01-11T02:00:08Z</time>
      </trkpt>
      <trkpt lat="42.372716" lon="-8.117977">
        <ele>74.408</ele>
        <time>1970-01-11T02:00:08Z</time>
      </trkpt>
      <trkpt lat="42.372657" lon="-8.118104">
        <ele>74.420</ele>
        <time>1970-01-11T02:00:08Z</time>
      </trkpt>
      <trkpt lat="42.372562" lon="-8.118355">
        <ele>74.477</ele>
        <time>1970-01-11T02:00:08Z</time>
      </trkpt>
      <trkpt lat="42.372526" lon="-8.118485">
        <ele>74.683</ele>
        <time>1970-01-11T02:00:08Z</time>
      </trkpt>
      <trkpt lat="42.372427" lon="-8.118929">
        <ele>74.821</ele>
        <time>1970-01-11T02:00:08Z</time>
      </trkpt>
      <trkpt lat="42.372294" lon="-8.119177">
        <ele>74.650</ele>
        <time>1970-01-11T02:00:08Z</time>
      </trkpt>
      <trkpt lat="42.372236" lon="-8.119293">
        <ele>74.655</ele>
        <time>1970-01-11T02:00:08Z</time>
      </trkpt>
      <trkpt lat="42.372189" lon="-8.119424">
        <ele>74.663</ele>
        <time>1970-01-11T02:00:08Z</time>
      </trkpt>
      <trkpt lat="42.372172" lon="-8.119496">
        <ele>74.892</ele>
        <time>1970-01-11T02:00:08Z</time>
      </trkpt>
      <trkpt lat="42.372078" lon="-8.119875">
        <ele>74.837</ele>
        <time>1970-01-11T02:00:08Z</time>
      </trkpt>
      <trkpt lat="42.372063" lon="-8.119903">
        <ele>74.849</ele>
        <time>1970-01-11T02:00:08Z</time>
      </trkpt>
      <trkpt lat="42.372058" lon="-8.119916">
        <ele>74.613</ele>
        <time>1970-01-11T02:00:08Z</time>
      </trkpt>
      <trkpt lat="42.372007" lon="-8.120036">
        <ele>74.808</ele>
        <time>1970-01-11T02:00:08Z</time>
      </trkpt>
      <trkpt lat="42.371972" lon="-8.120243">
        <ele>75.014</ele>
        <time>1970-01-11T02:00:08Z</time>
      </trkpt>
      <trkpt lat="42.371943" lon="-8.120437">
        <ele>75.021</ele>
        <time>1970-01-11T02:00:08Z</time>
      </trkpt>
      <trkpt lat="42.371895" lon="-8.120567">
        <ele>75.027</ele>
        <time>1970-01-11T02:00:08Z</time>
      </trkpt>
      <trkpt lat="42.371705" lon="-8.120803">
        <ele>75.235</ele>
        <time>1970-01-11T02:00:08Z</time>
      </trkpt>
      <trkpt lat="42.371542" lon="-8.120959">
        <ele>75.274</ele>
        <time>1970-01-11T02:00:08Z</time>
      </trkpt>
      <trkpt lat="42.371422" lon="-8.121081">
        <ele>75.469</ele>
        <time>1970-01-11T02:00:08Z</time>
      </trkpt>
      <trkpt lat="42.371178" lon="-8.121257">
        <ele>75.457</ele>
        <time>1970-01-11T02:00:08Z</time>
      </trkpt>
      <trkpt lat="42.371128" lon="-8.121278">
        <ele>75.426</ele>
        <time>1970-01-11T02:00:08Z</time>
      </trkpt>
      <trkpt lat="42.371078" lon="-8.121291">
        <ele>75.412</ele>
        <time>1970-01-11T02:00:08Z</time>
      </trkpt>
      <trkpt lat="42.370852" lon="-8.121337">
        <ele>76.032</ele>
        <time>1970-01-11T02:00:08Z</time>
      </trkpt>
      <trkpt lat="42.370809" lon="-8.121373">
        <ele>76.005</ele>
        <time>1970-01-11T02:00:08Z</time>
      </trkpt>
      <trkpt lat="42.370805" lon="-8.121407">
        <ele>76.008</ele>
        <time>1970-01-11T02:00:08Z</time>
      </trkpt>
      <trkpt lat="42.370808" lon="-8.121447">
        <ele>76.052</ele>
        <time>1970-01-11T02:00:08Z</time>
      </trkpt>
      <trkpt lat="42.370847" lon="-8.121578">
        <ele>76.079</ele>
        <time>1970-01-11T02:00:08Z</time>
      </trkpt>
      <trkpt lat="42.370863" lon="-8.121669">
        <ele>76.035</ele>
        <time>1970-01-11T02:00:08Z</time>
      </trkpt>
      <trkpt lat="42.370823" lon="-8.121912">
        <ele>76.013</ele>
        <time>1970-01-11T02:00:08Z</time>
      </trkpt>
      <trkpt lat="42.370784" lon="-8.122219">
        <ele>76.072</ele>
        <time>1970-01-11T02:00:08Z</time>
      </trkpt>
      <trkpt lat="42.370765" lon="-8.122257">
        <ele>76.057</ele>
        <time>1970-01-11T02:00:08Z</time>
      </trkpt>
      <trkpt lat="42.370723" lon="-8.122327">
        <ele>75.855</ele>
        <time>1970-01-11T02:00:08Z</time>
      </trkpt>
      <trkpt lat="42.370699" lon="-8.122367">
        <ele>75.874</ele>
        <time>1970-01-11T02:00:08Z</time>
      </trkpt>
      <trkpt lat="42.370662" lon="-8.122465">
        <ele>75.635</ele>
        <time>1970-01-11T02:00:08Z</time>
      </trkpt>
      <trkpt lat="42.370580" lon="-8.122544">
        <ele>75.486</ele>
        <time>1970-01-11T02:00:08Z</time>
      </trkpt>
      <trkpt lat="42.370549" lon="-8.122555">
        <ele>75.414</ele>
        <time>1970-01-11T02:00:08Z</time>
      </trkpt>
      <trkpt lat="42.370467" lon="-8.122549">
        <ele>75.208</ele>
        <time>1970-01-11T02:00:08Z</time>
      </trkpt>
      <trkpt lat="42.370419" lon="-8.122536">
        <ele>75.064</ele>
        <time>1970-01-11T02:00:08Z</time>
      </trkpt>
      <trkpt lat="42.370367" lon="-8.122514">
        <ele>75.041</ele>
        <time>1970-01-11T02:00:08Z</time>
      </trkpt>
      <trkpt lat="42.370264" lon="-8.122473">
        <ele>75.027</ele>
        <time>1970-01-11T02:00:08Z</time>
      </trkpt>
      <trkpt lat="42.370166" lon="-8.122397">
        <ele>75.085</ele>
        <time>1970-01-11T02:00:08Z</time>
      </trkpt>
      <trkpt lat="42.370071" lon="-8.122323">
        <ele>75.094</ele>
        <time>1970-01-11T02:00:08Z</time>
      </trkpt>
      <trkpt lat="42.369706" lon="-8.122130">
        <ele>74.629</ele>
        <time>1970-01-11T02:00:08Z</time>
      </trkpt>
      <trkpt lat="42.369653" lon="-8.122099">
        <ele>74.867</ele>
        <time>1970-01-11T02:00:08Z</time>
      </trkpt>
      <trkpt lat="42.369503" lon="-8.121964">
        <ele>74.816</ele>
        <time>1970-01-11T02:00:08Z</time>
      </trkpt>
      <trkpt lat="42.369353" lon="-8.121852">
        <ele>74.467</ele>
        <time>1970-01-11T02:00:08Z</time>
      </trkpt>
      <trkpt lat="42.369148" lon="-8.121721">
        <ele>73.881</ele>
        <time>1970-01-11T02:00:08Z</time>
      </trkpt>
      <trkpt lat="42.368835" lon="-8.121615">
        <ele>73.219</ele>
        <time>1970-01-11T02:00:08Z</time>
      </trkpt>
      <trkpt lat="42.368517" lon="-8.121514">
        <ele>72.808</ele>
        <time>1970-01-11T02:00:08Z</time>
      </trkpt>
      <trkpt lat="42.368387" lon="-8.121476">
        <ele>72.877</ele>
        <time>1970-01-11T02:00:08Z</time>
      </trkpt>
      <trkpt lat="42.368035" lon="-8.121351">
        <ele>72.674</ele>
        <time>1970-01-11T02:00:08Z</time>
      </trkpt>
      <trkpt lat="42.367864" lon="-8.121277">
        <ele>72.620</ele>
        <time>1970-01-11T02:00:08Z</time>
      </trkpt>
      <trkpt lat="42.367709" lon="-8.121182">
        <ele>72.678</ele>
        <time>1970-01-11T02:00:08Z</time>
      </trkpt>
      <trkpt lat="42.367550" lon="-8.121213">
        <ele>72.477</ele>
        <time>1970-01-11T02:00:08Z</time>
      </trkpt>
      <trkpt lat="42.367449" lon="-8.121256">
        <ele>72.482</ele>
        <time>1970-01-11T02:00:08Z</time>
      </trkpt>
      <trkpt lat="42.367309" lon="-8.121298">
        <ele>72.450</ele>
        <time>1970-01-11T02:00:08Z</time>
      </trkpt>
      <trkpt lat="42.367269" lon="-8.121271">
        <ele>72.499</ele>
        <time>1970-01-11T02:00:08Z</time>
      </trkpt>
      <trkpt lat="42.367177" lon="-8.121162">
        <ele>72.472</ele>
        <time>1970-01-11T02:00:08Z</time>
      </trkpt>
      <trkpt lat="42.367151" lon="-8.121160">
        <ele>72.413</ele>
        <time>1970-01-11T02:00:08Z</time>
      </trkpt>
      <trkpt lat="42.367032" lon="-8.121231">
        <ele>72.414</ele>
        <time>1970-01-11T02:00:08Z</time>
      </trkpt>
      <trkpt lat="42.366723" lon="-8.121395">
        <ele>72.608</ele>
        <time>1970-01-11T02:00:08Z</time>
      </trkpt>
      <trkpt lat="42.366531" lon="-8.121465">
        <ele>73.098</ele>
        <time>1970-01-11T02:00:08Z</time>
      </trkpt>
      <trkpt lat="42.366222" lon="-8.121630">
        <ele>72.235</ele>
        <time>1970-01-11T02:00:08Z</time>
      </trkpt>
      <trkpt lat="42.366167" lon="-8.121666">
        <ele>72.061</ele>
        <time>1970-01-11T02:00:08Z</time>
      </trkpt>
      <trkpt lat="42.365778" lon="-8.121932">
        <ele>72.029</ele>
        <time>1970-01-11T02:00:08Z</time>
      </trkpt>
      <trkpt lat="42.365324" lon="-8.122231">
        <ele>71.878</ele>
        <time>1970-01-11T02:00:08Z</time>
      </trkpt>
      <trkpt lat="42.364884" lon="-8.122544">
        <ele>72.093</ele>
        <time>1970-01-11T02:00:08Z</time>
      </trkpt>
      <trkpt lat="42.364654" lon="-8.122681">
        <ele>71.891</ele>
        <time>1970-01-11T02:00:08Z</time>
      </trkpt>
      <trkpt lat="42.364595" lon="-8.122695">
        <ele>71.660</ele>
        <time>1970-01-11T02:00:08Z</time>
      </trkpt>
      <trkpt lat="42.364117" lon="-8.122819">
        <ele>72.015</ele>
        <time>1970-01-11T02:00:08Z</time>
      </trkpt>
      <trkpt lat="42.363851" lon="-8.122868">
        <ele>72.465</ele>
        <time>1970-01-11T02:00:08Z</time>
      </trkpt>
      <trkpt lat="42.363798" lon="-8.122889">
        <ele>72.411</ele>
        <time>1970-01-11T02:00:08Z</time>
      </trkpt>
      <trkpt lat="42.363570" lon="-8.122983">
        <ele>73.208</ele>
        <time>1970-01-11T02:00:08Z</time>
      </trkpt>
      <trkpt lat="42.363466" lon="-8.123048">
        <ele>73.272</ele>
        <time>1970-01-11T02:00:08Z</time>
      </trkpt>
      <trkpt lat="42.363052" lon="-8.123225">
        <ele>73.219</ele>
        <time>1970-01-11T02:00:08Z</time>
      </trkpt>
      <trkpt lat="42.362674" lon="-8.123363">
        <ele>72.865</ele>
        <time>1970-01-11T02:00:08Z</time>
      </trkpt>
      <trkpt lat="42.362196" lon="-8.123392">
        <ele>72.033</ele>
        <time>1970-01-11T02:00:08Z</time>
      </trkpt>
      <trkpt lat="42.362063" lon="-8.123364">
        <ele>72.062</ele>
        <time>1970-01-11T02:00:08Z</time>
      </trkpt>
      <trkpt lat="42.361871" lon="-8.123263">
        <ele>71.867</ele>
        <time>1970-01-11T02:00:08Z</time>
      </trkpt>
      <trkpt lat="42.361626" lon="-8.123157">
        <ele>71.895</ele>
        <time>1970-01-11T02:00:08Z</time>
      </trkpt>
      <trkpt lat="42.361566" lon="-8.123135">
        <ele>71.844</ele>
        <time>1970-01-11T02:00:08Z</time>
      </trkpt>
      <trkpt lat="42.361350" lon="-8.123061">
        <ele>72.445</ele>
        <time>1970-01-11T02:00:08Z</time>
      </trkpt>
      <trkpt lat="42.361307" lon="-8.123035">
        <ele>72.647</ele>
        <time>1970-01-11T02:00:08Z</time>
      </trkpt>
      <trkpt lat="42.361140" lon="-8.122916">
        <ele>72.811</ele>
        <time>1970-01-11T02:00:08Z</time>
      </trkpt>
      <trkpt lat="42.360998" lon="-8.122868">
        <ele>73.008</ele>
        <time>1970-01-11T02:00:08Z</time>
      </trkpt>
      <trkpt lat="42.360958" lon="-8.122853">
        <ele>73.065</ele>
        <time>1970-01-11T02:00:08Z</time>
      </trkpt>
      <trkpt lat="42.360923" lon="-8.122831">
        <ele>73.482</ele>
        <time>1970-01-11T02:00:08Z</time>
      </trkpt>
      <trkpt lat="42.360804" lon="-8.122760">
        <ele>74.228</ele>
        <time>1970-01-11T02:00:08Z</time>
      </trkpt>
      <trkpt lat="42.360664" lon="-8.122633">
        <ele>74.886</ele>
        <time>1970-01-11T02:00:08Z</time>
      </trkpt>
      <trkpt lat="42.360624" lon="-8.122629">
        <ele>74.885</ele>
        <time>1970-01-11T02:00:08Z</time>
      </trkpt>
      <trkpt lat="42.360402" lon="-8.122611">
        <ele>74.290</ele>
        <time>1970-01-11T02:00:08Z</time>
      </trkpt>
      <trkpt lat="42.360339" lon="-8.122598">
        <ele>74.048</ele>
        <time>1970-01-11T02:00:08Z</time>
      </trkpt>
      <trkpt lat="42.360087" lon="-8.122549">
        <ele>73.237</ele>
        <time>1970-01-11T02:00:08Z</time>
      </trkpt>
      <trkpt lat="42.360021" lon="-8.122519">
        <ele>73.024</ele>
        <time>1970-01-11T02:00:08Z</time>
      </trkpt>
      <trkpt lat="42.359844" lon="-8.122356">
        <ele>72.204</ele>
        <time>1970-01-11T02:00:08Z</time>
      </trkpt>
      <trkpt lat="42.359790" lon="-8.122301">
        <ele>72.014</ele>
        <time>1970-01-11T02:00:08Z</time>
      </trkpt>
      <trkpt lat="42.359737" lon="-8.122256">
        <ele>72.008</ele>
        <time>1970-01-11T02:00:08Z</time>
      </trkpt>
      <trkpt lat="42.359642" lon="-8.122202">
        <ele>72.043</ele>
        <time>1970-01-11T02:00:08Z</time>
      </trkpt>
      <trkpt lat="42.359442" lon="-8.122128">
        <ele>73.220</ele>
        <time>1970-01-11T02:00:08Z</time>
      </trkpt>
      <trkpt lat="42.359331" lon="-8.122067">
        <ele>73.646</ele>
        <time>1970-01-11T02:00:08Z</time>
      </trkpt>
      <trkpt lat="42.358936" lon="-8.121834">
        <ele>73.834</ele>
        <time>1970-01-11T02:00:08Z</time>
      </trkpt>
      <trkpt lat="42.358554" lon="-8.121627">
        <ele>73.453</ele>
        <time>1970-01-11T02:00:08Z</time>
      </trkpt>
      <trkpt lat="42.358152" lon="-8.121333">
        <ele>73.278</ele>
        <time>1970-01-11T02:00:08Z</time>
      </trkpt>
      <trkpt lat="42.357666" lon="-8.120953">
        <ele>73.226</ele>
        <time>1970-01-11T02:00:08Z</time>
      </trkpt>
      <trkpt lat="42.357614" lon="-8.120905">
        <ele>73.285</ele>
        <time>1970-01-11T02:00:08Z</time>
      </trkpt>
      <trkpt lat="42.357213" lon="-8.120568">
        <ele>73.083</ele>
        <time>1970-01-11T02:00:08Z</time>
      </trkpt>
      <trkpt lat="42.357150" lon="-8.120515">
        <ele>73.025</ele>
        <time>1970-01-11T02:00:08Z</time>
      </trkpt>
      <trkpt lat="42.356907" lon="-8.120292">
        <ele>72.617</ele>
        <time>1970-01-11T02:00:08Z</time>
      </trkpt>
      <trkpt lat="42.356569" lon="-8.120096">
        <ele>72.408</ele>
        <time>1970-01-11T02:00:08Z</time>
      </trkpt>
      <trkpt lat="42.356184" lon="-8.119854">
        <ele>72.659</ele>
        <time>1970-01-11T02:00:08Z</time>
      </trkpt>
      <trkpt lat="42.356132" lon="-8.119806">
        <ele>72.696</ele>
        <time>1970-01-11T02:00:08Z</time>
      </trkpt>
      <trkpt lat="42.356087" lon="-8.119733">
        <ele>72.672</ele>
        <time>1970-01-11T02:00:08Z</time>
      </trkpt>
      <trkpt lat="42.356021" lon="-8.119600">
        <ele>72.850</ele>
        <time>1970-01-11T02:00:08Z</time>
      </trkpt>
      <trkpt lat="42.355949" lon="-8.119466">
        <ele>72.829</ele>
        <time>1970-01-11T02:00:08Z</time>
      </trkpt>
      <trkpt lat="42.355838" lon="-8.119436">
        <ele>73.834</ele>
        <time>1970-01-11T02:00:08Z</time>
      </trkpt>
      <trkpt lat="42.355755" lon="-8.119460">
        <ele>74.442</ele>
        <time>1970-01-11T02:00:08Z</time>
      </trkpt>
      <trkpt lat="42.355655" lon="-8.119489">
        <ele>74.411</ele>
        <time>1970-01-11T02:00:08Z</time>
      </trkpt>
      <trkpt lat="42.355304" lon="-8.119609">
        <ele>74.256</ele>
        <time>1970-01-11T02:00:08Z</time>
      </trkpt>
      <trkpt lat="42.354919" lon="-8.119646">
        <ele>73.459</ele>
        <time>1970-01-11T02:00:08Z</time>
      </trkpt>
      <trkpt lat="42.354863" lon="-8.119641">
        <ele>73.214</ele>
        <time>1970-01-11T02:00:08Z</time>
      </trkpt>
      <trkpt lat="42.354596" lon="-8.119617">
        <ele>73.208</ele>
        <time>1970-01-11T02:00:08Z</time>
      </trkpt>
      <trkpt lat="42.354238" lon="-8.119566">
        <ele>73.446</ele>
        <time>1970-01-11T02:00:08Z</time>
      </trkpt>
      <trkpt lat="42.353891" lon="-8.119446">
        <ele>73.613</ele>
        <time>1970-01-11T02:00:08Z</time>
      </trkpt>
      <trkpt lat="42.353384" lon="-8.119227">
        <ele>74.029</ele>
        <time>1970-01-11T02:00:09Z</time>
      </trkpt>
      <trkpt lat="42.353168" lon="-8.119111">
        <ele>74.027</ele>
        <time>1970-01-11T02:00:09Z</time>
      </trkpt>
      <trkpt lat="42.353118" lon="-8.119084">
        <ele>74.066</ele>
        <time>1970-01-11T02:00:09Z</time>
      </trkpt>
      <trkpt lat="42.353072" lon="-8.119063">
        <ele>74.211</ele>
        <time>1970-01-11T02:00:09Z</time>
      </trkpt>
      <trkpt lat="42.352985" lon="-8.119041">
        <ele>74.889</ele>
        <time>1970-01-11T02:00:09Z</time>
      </trkpt>
      <trkpt lat="42.352881" lon="-8.119041">
        <ele>75.458</ele>
        <time>1970-01-11T02:00:09Z</time>
      </trkpt>
      <trkpt lat="42.352689" lon="-8.119035">
        <ele>75.839</ele>
        <time>1970-01-11T02:00:09Z</time>
      </trkpt>
      <trkpt lat="42.352547" lon="-8.119057">
        <ele>75.401</ele>
        <time>1970-01-11T02:00:09Z</time>
      </trkpt>
      <trkpt lat="42.352329" lon="-8.119120">
        <ele>74.421</ele>
        <time>1970-01-11T02:00:09Z</time>
      </trkpt>
      <trkpt lat="42.352201" lon="-8.119161">
        <ele>73.608</ele>
        <time>1970-01-11T02:00:09Z</time>
      </trkpt>
      <trkpt lat="42.352140" lon="-8.119178">
        <ele>73.054</ele>
        <time>1970-01-11T02:00:09Z</time>
      </trkpt>
      <trkpt lat="42.351853" lon="-8.119202">
        <ele>72.071</ele>
        <time>1970-01-11T02:00:09Z</time>
      </trkpt>
      <trkpt lat="42.351798" lon="-8.119199">
        <ele>71.877</ele>
        <time>1970-01-11T02:00:09Z</time>
      </trkpt>
      <trkpt lat="42.351404" lon="-8.119187">
        <ele>71.675</ele>
        <time>1970-01-11T02:00:09Z</time>
      </trkpt>
      <trkpt lat="42.350936" lon="-8.119200">
        <ele>71.434</ele>
        <time>1970-01-11T02:00:09Z</time>
      </trkpt>
      <trkpt lat="42.350577" lon="-8.119200">
        <ele>71.489</ele>
        <time>1970-01-11T02:00:09Z</time>
      </trkpt>
      <trkpt lat="42.350456" lon="-8.119204">
        <ele>71.457</ele>
        <time>1970-01-11T02:00:09Z</time>
      </trkpt>
      <trkpt lat="42.349962" lon="-8.119206">
        <ele>71.666</ele>
        <time>1970-01-11T02:00:09Z</time>
      </trkpt>
      <trkpt lat="42.349670" lon="-8.119172">
        <ele>71.882</ele>
        <time>1970-01-11T02:00:09Z</time>
      </trkpt>
      <trkpt lat="42.349623" lon="-8.119158">
        <ele>71.843</ele>
        <time>1970-01-11T02:00:09Z</time>
      </trkpt>
      <trkpt lat="42.349485" lon="-8.119110">
        <ele>72.417</ele>
        <time>1970-01-11T02:00:09Z</time>
      </trkpt>
      <trkpt lat="42.349459" lon="-8.119099">
        <ele>72.808</ele>
        <time>1970-01-11T02:00:09Z</time>
      </trkpt>
      <trkpt lat="42.349436" lon="-8.119091">
        <ele>73.239</ele>
        <time>1970-01-11T02:00:09Z</time>
      </trkpt>
      <trkpt lat="42.349357" lon="-8.119069">
        <ele>74.866</ele>
        <time>1970-01-11T02:00:09Z</time>
      </trkpt>
      <trkpt lat="42.349290" lon="-8.119055">
        <ele>76.082</ele>
        <time>1970-01-11T02:00:09Z</time>
      </trkpt>
      <trkpt lat="42.349146" lon="-8.119031">
        <ele>77.230</ele>
        <time>1970-01-11T02:00:09Z</time>
      </trkpt>
      <trkpt lat="42.349037" lon="-8.119011">
        <ele>77.679</ele>
        <time>1970-01-11T02:00:09Z</time>
      </trkpt>
      <trkpt lat="42.348867" lon="-8.118983">
        <ele>78.224</ele>
        <time>1970-01-11T02:00:09Z</time>
      </trkpt>
      <trkpt lat="42.348802" lon="-8.118970">
        <ele>78.662</ele>
        <time>1970-01-11T02:00:09Z</time>
      </trkpt>
      <trkpt lat="42.348642" lon="-8.118952">
        <ele>79.271</ele>
        <time>1970-01-11T02:00:09Z</time>
      </trkpt>
      <trkpt lat="42.348540" lon="-8.118930">
        <ele>79.884</ele>
        <time>1970-01-11T02:00:09Z</time>
      </trkpt>
      <trkpt lat="42.348440" lon="-8.118893">
        <ele>80.407</ele>
        <time>1970-01-11T02:00:09Z</time>
      </trkpt>
      <trkpt lat="42.348303" lon="-8.118850">
        <ele>80.817</ele>
        <time>1970-01-11T02:00:09Z</time>
      </trkpt>
      <trkpt lat="42.348046" lon="-8.118859">
        <ele>80.608</ele>
        <time>1970-01-11T02:00:09Z</time>
      </trkpt>
      <trkpt lat="42.347770" lon="-8.118817">
        <ele>79.829</ele>
        <time>1970-01-11T02:00:09Z</time>
      </trkpt>
      <trkpt lat="42.347562" lon="-8.118753">
        <ele>80.426</ele>
        <time>1970-01-11T02:00:09Z</time>
      </trkpt>
      <trkpt lat="42.347480" lon="-8.118731">
        <ele>81.632</ele>
        <time>1970-01-11T02:00:09Z</time>
      </trkpt>
      <trkpt lat="42.347386" lon="-8.118718">
        <ele>82.820</ele>
        <time>1970-01-11T02:00:09Z</time>
      </trkpt>
      <trkpt lat="42.347282" lon="-8.118717">
        <ele>83.889</ele>
        <time>1970-01-11T02:00:09Z</time>
      </trkpt>
      <trkpt lat="42.347176" lon="-8.118708">
        <ele>84.494</ele>
        <time>1970-01-11T02:00:09Z</time>
      </trkpt>
      <trkpt lat="42.347069" lon="-8.118693">
        <ele>85.012</ele>
        <time>1970-01-11T02:00:09Z</time>
      </trkpt>
      <trkpt lat="42.346923" lon="-8.118661">
        <ele>85.481</ele>
        <time>1970-01-11T02:00:09Z</time>
      </trkpt>
      <trkpt lat="42.346781" lon="-8.118631">
        <ele>86.021</ele>
        <time>1970-01-11T02:00:09Z</time>
      </trkpt>
      <trkpt lat="42.346647" lon="-8.118615">
        <ele>87.041</ele>
        <time>1970-01-11T02:00:09Z</time>
      </trkpt>
      <trkpt lat="42.346613" lon="-8.118612">
        <ele>87.005</ele>
        <time>1970-01-11T02:00:09Z</time>
      </trkpt>
      <trkpt lat="42.346392" lon="-8.118606">
        <ele>88.208</ele>
        <time>1970-01-11T02:00:09Z</time>
      </trkpt>
      <trkpt lat="42.346353" lon="-8.118606">
        <ele>88.283</ele>
        <time>1970-01-11T02:00:09Z</time>
      </trkpt>
      <trkpt lat="42.346001" lon="-8.118586">
        <ele>88.820</ele>
        <time>1970-01-11T02:00:09Z</time>
      </trkpt>
      <trkpt lat="42.345806" lon="-8.118522">
        <ele>89.076</ele>
        <time>1970-01-11T02:00:09Z</time>
      </trkpt>
      <trkpt lat="42.345760" lon="-8.118498">
        <ele>89.254</ele>
        <time>1970-01-11T02:00:09Z</time>
      </trkpt>
      <trkpt lat="42.345712" lon="-8.118476">
        <ele>89.683</ele>
        <time>1970-01-11T02:00:09Z</time>
      </trkpt>
      <trkpt lat="42.345610" lon="-8.118475">
        <ele>89.878</ele>
        <time>1970-01-11T02:00:09Z</time>
      </trkpt>
      <trkpt lat="42.345441" lon="-8.118514">
        <ele>88.876</ele>
        <time>1970-01-11T02:00:09Z</time>
      </trkpt>
      <trkpt lat="42.345396" lon="-8.118531">
        <ele>88.695</ele>
        <time>1970-01-11T02:00:09Z</time>
      </trkpt>
      <trkpt lat="42.345345" lon="-8.118556">
        <ele>88.238</ele>
        <time>1970-01-11T02:00:09Z</time>
      </trkpt>
      <trkpt lat="42.345246" lon="-8.118627">
        <ele>87.670</ele>
        <time>1970-01-11T02:00:09Z</time>
      </trkpt>
      <trkpt lat="42.345207" lon="-8.118672">
        <ele>87.217</ele>
        <time>1970-01-11T02:00:09Z</time>
      </trkpt>
      <trkpt lat="42.345172" lon="-8.118722">
        <ele>86.808</ele>
        <time>1970-01-11T02:00:09Z</time>
      </trkpt>
      <trkpt lat="42.345140" lon="-8.118778">
        <ele>86.474</ele>
        <time>1970-01-11T02:00:09Z</time>
      </trkpt>
      <trkpt lat="42.345110" lon="-8.118831">
        <ele>86.221</ele>
        <time>1970-01-11T02:00:09Z</time>
      </trkpt>
      <trkpt lat="42.345009" lon="-8.118988">
        <ele>85.027</ele>
        <time>1970-01-11T02:00:09Z</time>
      </trkpt>
      <trkpt lat="42.344924" lon="-8.119121">
        <ele>84.485</ele>
        <time>1970-01-11T02:00:09Z</time>
      </trkpt>
      <trkpt lat="42.344870" lon="-8.119193">
        <ele>84.084</ele>
        <time>1970-01-11T02:00:09Z</time>
      </trkpt>
      <trkpt lat="42.344754" lon="-8.119335">
        <ele>83.059</ele>
        <time>1970-01-11T02:00:09Z</time>
      </trkpt>
      <trkpt lat="42.344633" lon="-8.119480">
        <ele>81.897</ele>
        <time>1970-01-11T02:00:09Z</time>
      </trkpt>
      <trkpt lat="42.344517" lon="-8.119633">
        <ele>80.096</ele>
        <time>1970-01-11T02:00:09Z</time>
      </trkpt>
      <trkpt lat="42.344461" lon="-8.119706">
        <ele>79.658</ele>
        <time>1970-01-11T02:00:09Z</time>
      </trkpt>
      <trkpt lat="42.344404" lon="-8.119762">
        <ele>79.252</ele>
        <time>1970-01-11T02:00:09Z</time>
      </trkpt>
      <trkpt lat="42.344344" lon="-8.119787">
        <ele>79.017</ele>
        <time>1970-01-11T02:00:09Z</time>
      </trkpt>
      <trkpt lat="42.344286" lon="-8.119776">
        <ele>78.608</ele>
        <time>1970-01-11T02:00:09Z</time>
      </trkpt>
      <trkpt lat="42.344233" lon="-8.119749">
        <ele>78.476</ele>
        <time>1970-01-11T02:00:09Z</time>
      </trkpt>
      <trkpt lat="42.344182" lon="-8.119717">
        <ele>78.283</ele>
        <time>1970-01-11T02:00:09Z</time>
      </trkpt>
      <trkpt lat="42.344040" lon="-8.119610">
        <ele>78.059</ele>
        <time>1970-01-11T02:00:09Z</time>
      </trkpt>
      <trkpt lat="42.343987" lon="-8.119540">
        <ele>78.057</ele>
        <time>1970-01-11T02:00:09Z</time>
      </trkpt>
      <trkpt lat="42.343982" lon="-8.119513">
        <ele>78.266</ele>
        <time>1970-01-11T02:00:09Z</time>
      </trkpt>
      <trkpt lat="42.343970" lon="-8.119517">
        <ele>78.681</ele>
        <time>1970-01-11T02:00:09Z</time>
      </trkpt>
      <trkpt lat="42.343949" lon="-8.119573">
        <ele>79.039</ele>
        <time>1970-01-11T02:00:09Z</time>
      </trkpt>
      <trkpt lat="42.343930" lon="-8.119637">
        <ele>79.448</ele>
        <time>1970-01-11T02:00:09Z</time>
      </trkpt>
      <trkpt lat="42.343902" lon="-8.119702">
        <ele>80.288</ele>
        <time>1970-01-11T02:00:09Z</time>
      </trkpt>
      <trkpt lat="42.343883" lon="-8.119735">
        <ele>80.424</ele>
        <time>1970-01-11T02:00:09Z</time>
      </trkpt>
      <trkpt lat="42.343792" lon="-8.119883">
        <ele>81.226</ele>
        <time>1970-01-11T02:00:09Z</time>
      </trkpt>
      <trkpt lat="42.343715" lon="-8.119995">
        <ele>81.408</ele>
        <time>1970-01-11T02:00:09Z</time>
      </trkpt>
      <trkpt lat="42.343529" lon="-8.120264">
        <ele>81.479</ele>
        <time>1970-01-11T02:00:09Z</time>
      </trkpt>
      <trkpt lat="42.343363" lon="-8.120529">
        <ele>81.046</ele>
        <time>1970-01-11T02:00:09Z</time>
      </trkpt>
      <trkpt lat="42.343173" lon="-8.120840">
        <ele>80.812</ele>
        <time>1970-01-11T02:00:09Z</time>
      </trkpt>
      <trkpt lat="42.343138" lon="-8.120891">
        <ele>80.690</ele>
        <time>1970-01-11T02:00:09Z</time>
      </trkpt>
      <trkpt lat="42.343063" lon="-8.120992">
        <ele>80.269</ele>
        <time>1970-01-11T02:00:09Z</time>
      </trkpt>
      <trkpt lat="42.343024" lon="-8.121044">
        <ele>80.294</ele>
        <time>1970-01-11T02:00:09Z</time>
      </trkpt>
      <trkpt lat="42.342861" lon="-8.121276">
        <ele>79.412</ele>
        <time>1970-01-11T02:00:09Z</time>
      </trkpt>
      <trkpt lat="42.342748" lon="-8.121446">
        <ele>79.061</ele>
        <time>1970-01-11T02:00:09Z</time>
      </trkpt>
      <trkpt lat="42.342654" lon="-8.121599">
        <ele>78.857</ele>
        <time>1970-01-11T02:00:09Z</time>
      </trkpt>
      <trkpt lat="42.342505" lon="-8.121878">
        <ele>79.000</ele>
        <time>1970-01-11T02:00:09Z</time>
      </trkpt>
      <trkpt lat="42.342477" lon="-8.121935">
        <ele>78.820</ele>
        <time>1970-01-11T02:00:09Z</time>
      </trkpt>
      <trkpt lat="42.342368" lon="-8.122174">
        <ele>78.208</ele>
        <time>1970-01-11T02:00:09Z</time>
      </trkpt>
      <trkpt lat="42.342340" lon="-8.122233">
        <ele>78.066</ele>
        <time>1970-01-11T02:00:09Z</time>
      </trkpt>
      <trkpt lat="42.342310" lon="-8.122288">
        <ele>77.893</ele>
        <time>1970-01-11T02:00:09Z</time>
      </trkpt>
      <trkpt lat="42.342268" lon="-8.122331">
        <ele>77.669</ele>
        <time>1970-01-11T02:00:09Z</time>
      </trkpt>
      <trkpt lat="42.342159" lon="-8.122357">
        <ele>77.227</ele>
        <time>1970-01-11T02:00:09Z</time>
      </trkpt>
      <trkpt lat="42.342103" lon="-8.122343">
        <ele>77.236</ele>
        <time>1970-01-11T02:00:09Z</time>
      </trkpt>
      <trkpt lat="42.342073" lon="-8.122337">
        <ele>77.621</ele>
        <time>1970-01-11T02:00:09Z</time>
      </trkpt>
      <trkpt lat="42.342023" lon="-8.122322">
        <ele>78.229</ele>
        <time>1970-01-11T02:00:09Z</time>
      </trkpt>
      <trkpt lat="42.342003" lon="-8.122312">
        <ele>78.438</ele>
        <time>1970-01-11T02:00:09Z</time>
      </trkpt>
      <trkpt lat="42.341971" lon="-8.122286">
        <ele>79.431</ele>
        <time>1970-01-11T02:00:09Z</time>
      </trkpt>
      <trkpt lat="42.341929" lon="-8.122271">
        <ele>80.261</ele>
        <time>1970-01-11T02:00:09Z</time>
      </trkpt>
      <trkpt lat="42.341905" lon="-8.122273">
        <ele>80.407</ele>
        <time>1970-01-11T02:00:09Z</time>
      </trkpt>
      <trkpt lat="42.341804" lon="-8.122297">
        <ele>81.608</ele>
        <time>1970-01-11T02:00:09Z</time>
      </trkpt>
      <trkpt lat="42.341711" lon="-8.122311">
        <ele>82.874</ele>
        <time>1970-01-11T02:00:09Z</time>
      </trkpt>
      <trkpt lat="42.341636" lon="-8.122303">
        <ele>84.211</ele>
        <time>1970-01-11T02:00:09Z</time>
      </trkpt>
      <trkpt lat="42.341546" lon="-8.122275">
        <ele>85.037</ele>
        <time>1970-01-11T02:00:09Z</time>
      </trkpt>
      <trkpt lat="42.341517" lon="-8.122260">
        <ele>85.255</ele>
        <time>1970-01-11T02:00:09Z</time>
      </trkpt>
      <trkpt lat="42.341333" lon="-8.122192">
        <ele>86.414</ele>
        <time>1970-01-11T02:00:09Z</time>
      </trkpt>
      <trkpt lat="42.341095" lon="-8.122116">
        <ele>86.899</ele>
        <time>1970-01-11T02:00:09Z</time>
      </trkpt>
      <trkpt lat="42.340813" lon="-8.122022">
        <ele>86.087</ele>
        <time>1970-01-11T02:00:09Z</time>
      </trkpt>
      <trkpt lat="42.340732" lon="-8.122006">
        <ele>85.826</ele>
        <time>1970-01-11T02:00:09Z</time>
      </trkpt>
      <trkpt lat="42.340560" lon="-8.121983">
        <ele>84.284</ele>
        <time>1970-01-11T02:00:09Z</time>
      </trkpt>
      <trkpt lat="42.340376" lon="-8.121961">
        <ele>83.407</ele>
        <time>1970-01-11T02:00:09Z</time>
      </trkpt>
      <trkpt lat="42.340282" lon="-8.121954">
        <ele>83.017</ele>
        <time>1970-01-11T02:00:09Z</time>
      </trkpt>
      <trkpt lat="42.339997" lon="-8.121941">
        <ele>81.608</ele>
        <time>1970-01-11T02:00:09Z</time>
      </trkpt>
      <trkpt lat="42.339804" lon="-8.121915">
        <ele>80.859</ele>
        <time>1970-01-11T02:00:09Z</time>
      </trkpt>
      <trkpt lat="42.339708" lon="-8.121893">
        <ele>80.266</ele>
        <time>1970-01-11T02:00:09Z</time>
      </trkpt>
      <trkpt lat="42.339516" lon="-8.121842">
        <ele>79.232</ele>
        <time>1970-01-11T02:00:09Z</time>
      </trkpt>
      <trkpt lat="42.339319" lon="-8.121809">
        <ele>78.040</ele>
        <time>1970-01-11T02:00:09Z</time>
      </trkpt>
      <trkpt lat="42.339217" lon="-8.121802">
        <ele>77.429</ele>
        <time>1970-01-11T02:00:09Z</time>
      </trkpt>
      <trkpt lat="42.339119" lon="-8.121801">
        <ele>76.854</ele>
        <time>1970-01-11T02:00:09Z</time>
      </trkpt>
      <trkpt lat="42.339023" lon="-8.121799">
        <ele>76.282</ele>
        <time>1970-01-11T02:00:09Z</time>
      </trkpt>
      <trkpt lat="42.338930" lon="-8.121792">
        <ele>75.661</ele>
        <time>1970-01-11T02:00:09Z</time>
      </trkpt>
      <trkpt lat="42.338748" lon="-8.121775">
        <ele>74.046</ele>
        <time>1970-01-11T02:00:09Z</time>
      </trkpt>
      <trkpt lat="42.338657" lon="-8.121766">
        <ele>73.288</ele>
        <time>1970-01-11T02:00:09Z</time>
      </trkpt>
      <trkpt lat="42.338568" lon="-8.121759">
        <ele>72.416</ele>
        <time>1970-01-11T02:00:09Z</time>
      </trkpt>
      <trkpt lat="42.338398" lon="-8.121750">
        <ele>71.808</ele>
        <time>1970-01-11T02:00:09Z</time>
      </trkpt>
      <trkpt lat="42.338276" lon="-8.121773">
        <ele>71.485</ele>
        <time>1970-01-11T02:00:09Z</time>
      </trkpt>
      <trkpt lat="42.338236" lon="-8.121804">
        <ele>71.272</ele>
        <time>1970-01-11T02:00:09Z</time>
      </trkpt>
      <trkpt lat="42.338183" lon="-8.121887">
        <ele>70.648</ele>
        <time>1970-01-11T02:00:09Z</time>
      </trkpt>
      <trkpt lat="42.338158" lon="-8.121930">
        <ele>70.246</ele>
        <time>1970-01-11T02:00:09Z</time>
      </trkpt>
      <trkpt lat="42.338042" lon="-8.121979">
        <ele>69.645</ele>
        <time>1970-01-11T02:00:09Z</time>
      </trkpt>
      <trkpt lat="42.337979" lon="-8.121911">
        <ele>69.430</ele>
        <time>1970-01-11T02:00:09Z</time>
      </trkpt>
      <trkpt lat="42.337944" lon="-8.121867">
        <ele>69.238</ele>
        <time>1970-01-11T02:00:09Z</time>
      </trkpt>
      <trkpt lat="42.337906" lon="-8.121820">
        <ele>69.257</ele>
        <time>1970-01-11T02:00:09Z</time>
      </trkpt>
      <trkpt lat="42.337867" lon="-8.121773">
        <ele>69.252</ele>
        <time>1970-01-11T02:00:09Z</time>
      </trkpt>
      <trkpt lat="42.337643" lon="-8.121506">
        <ele>68.853</ele>
        <time>1970-01-11T02:00:09Z</time>
      </trkpt>
      <trkpt lat="42.337565" lon="-8.121417">
        <ele>68.808</ele>
        <time>1970-01-11T02:00:09Z</time>
      </trkpt>
      <trkpt lat="42.337479" lon="-8.121333">
        <ele>68.808</ele>
        <time>1970-01-11T02:00:09Z</time>
      </trkpt>
      <trkpt lat="42.337434" lon="-8.121298">
        <ele>68.876</ele>
        <time>1970-01-11T02:00:09Z</time>
      </trkpt>
      <trkpt lat="42.337386" lon="-8.121273">
        <ele>68.883</ele>
        <time>1970-01-11T02:00:09Z</time>
      </trkpt>
      <trkpt lat="42.337233" lon="-8.121247">
        <ele>69.059</ele>
        <time>1970-01-11T02:00:09Z</time>
      </trkpt>
      <trkpt lat="42.337184" lon="-8.121247">
        <ele>69.257</ele>
        <time>1970-01-11T02:00:09Z</time>
      </trkpt>
      <trkpt lat="42.337079" lon="-8.121263">
        <ele>69.426</ele>
        <time>1970-01-11T02:00:09Z</time>
      </trkpt>
      <trkpt lat="42.336966" lon="-8.121282">
        <ele>69.441</ele>
        <time>1970-01-11T02:00:09Z</time>
      </trkpt>
      <trkpt lat="42.336912" lon="-8.121281">
        <ele>69.449</ele>
        <time>1970-01-11T02:00:09Z</time>
      </trkpt>
      <trkpt lat="42.336684" lon="-8.121274">
        <ele>69.418</ele>
        <time>1970-01-11T02:00:09Z</time>
      </trkpt>
      <trkpt lat="42.336628" lon="-8.121293">
        <ele>69.475</ele>
        <time>1970-01-11T02:00:09Z</time>
      </trkpt>
      <trkpt lat="42.336449" lon="-8.121312">
        <ele>69.428</ele>
        <time>1970-01-11T02:00:09Z</time>
      </trkpt>
      <trkpt lat="42.336387" lon="-8.121308">
        <ele>69.420</ele>
        <time>1970-01-11T02:00:09Z</time>
      </trkpt>
      <trkpt lat="42.336268" lon="-8.121291">
        <ele>69.208</ele>
        <time>1970-01-11T02:00:09Z</time>
      </trkpt>
      <trkpt lat="42.336168" lon="-8.121257">
        <ele>69.248</ele>
        <time>1970-01-11T02:00:09Z</time>
      </trkpt>
      <trkpt lat="42.336120" lon="-8.121237">
        <ele>69.425</ele>
        <time>1970-01-11T02:00:09Z</time>
      </trkpt>
      <trkpt lat="42.335966" lon="-8.121196">
        <ele>69.621</ele>
        <time>1970-01-11T02:00:09Z</time>
      </trkpt>
      <trkpt lat="42.335866" lon="-8.121181">
        <ele>69.649</ele>
        <time>1970-01-11T02:00:09Z</time>
      </trkpt>
      <trkpt lat="42.335814" lon="-8.121179">
        <ele>69.648</ele>
        <time>1970-01-11T02:00:09Z</time>
      </trkpt>
      <trkpt lat="42.335588" lon="-8.121190">
        <ele>69.243</ele>
        <time>1970-01-11T02:00:09Z</time>
      </trkpt>
      <trkpt lat="42.335532" lon="-8.121180">
        <ele>69.281</ele>
        <time>1970-01-11T02:00:09Z</time>
      </trkpt>
      <trkpt lat="42.335370" lon="-8.121100">
        <ele>69.040</ele>
        <time>1970-01-11T02:00:09Z</time>
      </trkpt>
      <trkpt lat="42.335178" lon="-8.120984">
        <ele>69.242</ele>
        <time>1970-01-11T02:00:09Z</time>
      </trkpt>
      <trkpt lat="42.335043" lon="-8.120881">
        <ele>69.822</ele>
        <time>1970-01-11T02:00:09Z</time>
      </trkpt>
      <trkpt lat="42.334758" lon="-8.120657">
        <ele>70.014</ele>
        <time>1970-01-11T02:00:09Z</time>
      </trkpt>
      <trkpt lat="42.334581" lon="-8.120517">
        <ele>70.008</ele>
        <time>1970-01-11T02:00:09Z</time>
      </trkpt>
      <trkpt lat="42.334459" lon="-8.120374">
        <ele>70.065</ele>
        <time>1970-01-11T02:00:09Z</time>
      </trkpt>
      <trkpt lat="42.334279" lon="-8.120193">
        <ele>70.062</ele>
        <time>1970-01-11T02:00:09Z</time>
      </trkpt>
      <trkpt lat="42.334062" lon="-8.120112">
        <ele>70.078</ele>
        <time>1970-01-11T02:00:09Z</time>
      </trkpt>
      <trkpt lat="42.334012" lon="-8.120102">
        <ele>70.016</ele>
        <time>1970-01-11T02:00:09Z</time>
      </trkpt>
      <trkpt lat="42.333633" lon="-8.120098">
        <ele>69.885</ele>
        <time>1970-01-11T02:00:09Z</time>
      </trkpt>
      <trkpt lat="42.333390" lon="-8.120221">
        <ele>69.810</ele>
        <time>1970-01-11T02:00:09Z</time>
      </trkpt>
      <trkpt lat="42.333191" lon="-8.120159">
        <ele>70.058</ele>
        <time>1970-01-11T02:00:09Z</time>
      </trkpt>
      <trkpt lat="42.333141" lon="-8.120111">
        <ele>70.277</ele>
        <time>1970-01-11T02:00:09Z</time>
      </trkpt>
      <trkpt lat="42.332982" lon="-8.119887">
        <ele>70.816</ele>
        <time>1970-01-11T02:00:09Z</time>
      </trkpt>
      <trkpt lat="42.332915" lon="-8.119796">
        <ele>71.076</ele>
        <time>1970-01-11T02:00:09Z</time>
      </trkpt>
      <trkpt lat="42.332879" lon="-8.119786">
        <ele>71.013</ele>
        <time>1970-01-11T02:00:09Z</time>
      </trkpt>
      <trkpt lat="42.332787" lon="-8.119827">
        <ele>71.208</ele>
        <time>1970-01-11T02:00:09Z</time>
      </trkpt>
      <trkpt lat="42.332753" lon="-8.119858">
        <ele>71.212</ele>
        <time>1970-01-11T02:00:09Z</time>
      </trkpt>
      <trkpt lat="42.332632" lon="-8.119949">
        <ele>70.699</ele>
        <time>1970-01-11T02:00:09Z</time>
      </trkpt>
      <trkpt lat="42.332529" lon="-8.120015">
        <ele>70.495</ele>
        <time>1970-01-11T02:00:09Z</time>
      </trkpt>
      <trkpt lat="42.332421" lon="-8.120060">
        <ele>70.223</ele>
        <time>1970-01-11T02:00:09Z</time>
      </trkpt>
      <trkpt lat="42.332277" lon="-8.120145">
        <ele>69.832</ele>
        <time>1970-01-11T02:00:09Z</time>
      </trkpt>
      <trkpt lat="42.332228" lon="-8.120310">
        <ele>69.447</ele>
        <time>1970-01-11T02:00:09Z</time>
      </trkpt>
      <trkpt lat="42.332121" lon="-8.120395">
        <ele>69.275</ele>
        <time>1970-01-11T02:00:09Z</time>
      </trkpt>
      <trkpt lat="42.332029" lon="-8.120419">
        <ele>69.234</ele>
        <time>1970-01-11T02:00:09Z</time>
      </trkpt>
      <trkpt lat="42.331828" lon="-8.120502">
        <ele>69.267</ele>
        <time>1970-01-11T02:00:09Z</time>
      </trkpt>
      <trkpt lat="42.331773" lon="-8.120515">
        <ele>69.281</ele>
        <time>1970-01-11T02:00:09Z</time>
      </trkpt>
      <trkpt lat="42.331596" lon="-8.120508">
        <ele>69.419</ele>
        <time>1970-01-11T02:00:09Z</time>
      </trkpt>
      <trkpt lat="42.331476" lon="-8.120492">
        <ele>69.208</ele>
        <time>1970-01-11T02:00:09Z</time>
      </trkpt>
      <trkpt lat="42.331228" lon="-8.120486">
        <ele>68.817</ele>
        <time>1970-01-11T02:00:09Z</time>
      </trkpt>
      <trkpt lat="42.330842" lon="-8.120445">
        <ele>68.214</ele>
        <time>1970-01-11T02:00:09Z</time>
      </trkpt>
      <trkpt lat="42.330627" lon="-8.120416">
        <ele>68.450</ele>
        <time>1970-01-11T02:00:09Z</time>
      </trkpt>
      <trkpt lat="42.330492" lon="-8.120381">
        <ele>68.428</ele>
        <time>1970-01-11T02:00:09Z</time>
      </trkpt>
      <trkpt lat="42.330293" lon="-8.120346">
        <ele>68.437</ele>
        <time>1970-01-11T02:00:09Z</time>
      </trkpt>
      <trkpt lat="42.330244" lon="-8.120337">
        <ele>68.422</ele>
        <time>1970-01-11T02:00:09Z</time>
      </trkpt>
      <trkpt lat="42.330146" lon="-8.120319">
        <ele>68.420</ele>
        <time>1970-01-11T02:00:09Z</time>
      </trkpt>
      <trkpt lat="42.329982" lon="-8.120267">
        <ele>68.689</ele>
        <time>1970-01-11T02:00:09Z</time>
      </trkpt>
      <trkpt lat="42.329653" lon="-8.120196">
        <ele>68.277</ele>
        <time>1970-01-11T02:00:09Z</time>
      </trkpt>
      <trkpt lat="42.329494" lon="-8.120143">
        <ele>68.261</ele>
        <time>1970-01-11T02:00:09Z</time>
      </trkpt>
      <trkpt lat="42.329405" lon="-8.120103">
        <ele>68.227</ele>
        <time>1970-01-11T02:00:09Z</time>
      </trkpt>
      <trkpt lat="42.329306" lon="-8.120076">
        <ele>68.408</ele>
        <time>1970-01-11T02:00:09Z</time>
      </trkpt>
      <trkpt lat="42.329142" lon="-8.120043">
        <ele>68.658</ele>
        <time>1970-01-11T02:00:09Z</time>
      </trkpt>
      <trkpt lat="42.328831" lon="-8.119938">
        <ele>68.625</ele>
        <time>1970-01-11T02:00:09Z</time>
      </trkpt>
      <trkpt lat="42.328441" lon="-8.119899">
        <ele>68.621</ele>
        <time>1970-01-11T02:00:09Z</time>
      </trkpt>
      <trkpt lat="42.328380" lon="-8.119909">
        <ele>68.659</ele>
        <time>1970-01-11T02:00:09Z</time>
      </trkpt>
      <trkpt lat="42.327981" lon="-8.119981">
        <ele>68.838</ele>
        <time>1970-01-11T02:00:09Z</time>
      </trkpt>
      <trkpt lat="42.327617" lon="-8.120117">
        <ele>68.653</ele>
        <time>1970-01-11T02:00:09Z</time>
      </trkpt>
      <trkpt lat="42.327431" lon="-8.120193">
        <ele>68.011</ele>
        <time>1970-01-11T02:00:09Z</time>
      </trkpt>
      <trkpt lat="42.327195" lon="-8.120252">
        <ele>68.010</ele>
        <time>1970-01-11T02:00:09Z</time>
      </trkpt>
      <trkpt lat="42.326811" lon="-8.120309">
        <ele>68.246</ele>
        <time>1970-01-11T02:00:09Z</time>
      </trkpt>
      <trkpt lat="42.326553" lon="-8.120381">
        <ele>68.488</ele>
        <time>1970-01-11T02:00:09Z</time>
      </trkpt>
      <trkpt lat="42.326501" lon="-8.120385">
        <ele>68.416</ele>
        <time>1970-01-11T02:00:09Z</time>
      </trkpt>
      <trkpt lat="42.326447" lon="-8.120382">
        <ele>68.208</ele>
        <time>1970-01-11T02:00:09Z</time>
      </trkpt>
      <trkpt lat="42.326213" lon="-8.120332">
        <ele>67.845</ele>
        <time>1970-01-11T02:00:09Z</time>
      </trkpt>
      <trkpt lat="42.325880" lon="-8.120233">
        <ele>67.822</ele>
        <time>1970-01-11T02:00:09Z</time>
      </trkpt>
      <trkpt lat="42.325510" lon="-8.120285">
        <ele>67.688</ele>
        <time>1970-01-11T02:00:09Z</time>
      </trkpt>
      <trkpt lat="42.325391" lon="-8.120286">
        <ele>67.666</ele>
        <time>1970-01-11T02:00:09Z</time>
      </trkpt>
      <trkpt lat="42.325206" lon="-8.120211">
        <ele>67.825</ele>
        <time>1970-01-11T02:00:09Z</time>
      </trkpt>
      <trkpt lat="42.324968" lon="-8.120023">
        <ele>67.850</ele>
        <time>1970-01-11T02:00:09Z</time>
      </trkpt>
      <trkpt lat="42.324908" lon="-8.119976">
        <ele>67.898</ele>
        <time>1970-01-11T02:00:09Z</time>
      </trkpt>
      <trkpt lat="42.324633" lon="-8.119792">
        <ele>67.857</ele>
        <time>1970-01-11T02:00:09Z</time>
      </trkpt>
      <trkpt lat="42.324381" lon="-8.119656">
        <ele>68.253</ele>
        <time>1970-01-11T02:00:09Z</time>
      </trkpt>
      <trkpt lat="42.324338" lon="-8.119616">
        <ele>68.204</ele>
        <time>1970-01-11T02:00:09Z</time>
      </trkpt>
      <trkpt lat="42.324251" lon="-8.119431">
        <ele>68.614</ele>
        <time>1970-01-11T02:00:09Z</time>
      </trkpt>
      <trkpt lat="42.324229" lon="-8.119356">
        <ele>68.608</ele>
        <time>1970-01-11T02:00:09Z</time>
      </trkpt>
      <trkpt lat="42.324084" lon="-8.119007">
        <ele>69.246</ele>
        <time>1970-01-11T02:00:09Z</time>
      </trkpt>
      <trkpt lat="42.323937" lon="-8.118679">
        <ele>70.223</ele>
        <time>1970-01-11T02:00:09Z</time>
      </trkpt>
      <trkpt lat="42.323901" lon="-8.118622">
        <ele>70.239</ele>
        <time>1970-01-11T02:00:09Z</time>
      </trkpt>
      <trkpt lat="42.323868" lon="-8.118566">
        <ele>70.237</ele>
        <time>1970-01-11T02:00:09Z</time>
      </trkpt>
      <trkpt lat="42.323763" lon="-8.118329">
        <ele>70.876</ele>
        <time>1970-01-11T02:00:09Z</time>
      </trkpt>
      <trkpt lat="42.323745" lon="-8.118207">
        <ele>71.061</ele>
        <time>1970-01-11T02:00:09Z</time>
      </trkpt>
      <trkpt lat="42.323738" lon="-8.118152">
        <ele>71.259</ele>
        <time>1970-01-11T02:00:09Z</time>
      </trkpt>
      <trkpt lat="42.323698" lon="-8.117913">
        <ele>71.838</ele>
        <time>1970-01-11T02:00:09Z</time>
      </trkpt>
      <trkpt lat="42.323666" lon="-8.117708">
        <ele>72.219</ele>
        <time>1970-01-11T02:00:09Z</time>
      </trkpt>
      <trkpt lat="42.323636" lon="-8.117602">
        <ele>72.809</ele>
        <time>1970-01-11T02:00:09Z</time>
      </trkpt>
      <trkpt lat="42.323582" lon="-8.117448">
        <ele>73.419</ele>
        <time>1970-01-11T02:00:09Z</time>
      </trkpt>
      <trkpt lat="42.323549" lon="-8.117355">
        <ele>73.608</ele>
        <time>1970-01-11T02:00:09Z</time>
      </trkpt>
      <trkpt lat="42.323442" lon="-8.117014">
        <ele>74.412</ele>
        <time>1970-01-11T02:00:09Z</time>
      </trkpt>
      <trkpt lat="42.323361" lon="-8.117034">
        <ele>75.239</ele>
        <time>1970-01-11T02:00:09Z</time>
      </trkpt>
      <trkpt lat="42.323215" lon="-8.117180">
        <ele>75.665</ele>
        <time>1970-01-11T02:00:09Z</time>
      </trkpt>
      <trkpt lat="42.323170" lon="-8.117225">
        <ele>75.433</ele>
        <time>1970-01-11T02:00:09Z</time>
      </trkpt>
      <trkpt lat="42.322900" lon="-8.117486">
        <ele>74.482</ele>
        <time>1970-01-11T02:00:09Z</time>
      </trkpt>
      <trkpt lat="42.322852" lon="-8.117523">
        <ele>74.287</ele>
        <time>1970-01-11T02:00:09Z</time>
      </trkpt>
      <trkpt lat="42.322599" lon="-8.117694">
        <ele>74.295</ele>
        <time>1970-01-11T02:00:09Z</time>
      </trkpt>
      <trkpt lat="42.322546" lon="-8.117718">
        <ele>74.224</ele>
        <time>1970-01-11T02:00:09Z</time>
      </trkpt>
      <trkpt lat="42.322440" lon="-8.117775">
        <ele>74.283</ele>
        <time>1970-01-11T02:00:09Z</time>
      </trkpt>
      <trkpt lat="42.322329" lon="-8.117790">
        <ele>74.225</ele>
        <time>1970-01-11T02:00:09Z</time>
      </trkpt>
      <trkpt lat="42.322067" lon="-8.117793">
        <ele>74.417</ele>
        <time>1970-01-11T02:00:09Z</time>
      </trkpt>
      <trkpt lat="42.322020" lon="-8.117813">
        <ele>74.408</ele>
        <time>1970-01-11T02:00:09Z</time>
      </trkpt>
      <trkpt lat="42.321861" lon="-8.117936">
        <ele>75.099</ele>
        <time>1970-01-11T02:00:09Z</time>
      </trkpt>
      <trkpt lat="42.321808" lon="-8.117979">
        <ele>75.086</ele>
        <time>1970-01-11T02:00:09Z</time>
      </trkpt>
      <trkpt lat="42.321704" lon="-8.118070">
        <ele>74.842</ele>
        <time>1970-01-11T02:00:09Z</time>
      </trkpt>
      <trkpt lat="42.321600" lon="-8.118171">
        <ele>73.490</ele>
        <time>1970-01-11T02:00:09Z</time>
      </trkpt>
      <trkpt lat="42.321575" lon="-8.118200">
        <ele>73.059</ele>
        <time>1970-01-11T02:00:09Z</time>
      </trkpt>
      <trkpt lat="42.321471" lon="-8.118269">
        <ele>72.864</ele>
        <time>1970-01-11T02:00:09Z</time>
      </trkpt>
      <trkpt lat="42.321412" lon="-8.118321">
        <ele>72.422</ele>
        <time>1970-01-11T02:00:09Z</time>
      </trkpt>
      <trkpt lat="42.321390" lon="-8.118346">
        <ele>72.291</ele>
        <time>1970-01-11T02:00:09Z</time>
      </trkpt>
      <trkpt lat="42.321349" lon="-8.118410">
        <ele>71.647</ele>
        <time>1970-01-11T02:00:09Z</time>
      </trkpt>
      <trkpt lat="42.321316" lon="-8.118467">
        <ele>71.229</ele>
        <time>1970-01-11T02:00:09Z</time>
      </trkpt>
      <trkpt lat="42.321283" lon="-8.118510">
        <ele>71.021</ele>
        <time>1970-01-11T02:00:09Z</time>
      </trkpt>
      <trkpt lat="42.321247" lon="-8.118557">
        <ele>71.008</ele>
        <time>1970-01-11T02:00:09Z</time>
      </trkpt>
      <trkpt lat="42.321170" lon="-8.118651">
        <ele>70.695</ele>
        <time>1970-01-11T02:00:09Z</time>
      </trkpt>
      <trkpt lat="42.321074" lon="-8.118737">
        <ele>70.692</ele>
        <time>1970-01-11T02:00:09Z</time>
      </trkpt>
      <trkpt lat="42.320954" lon="-8.118798">
        <ele>70.248</ele>
        <time>1970-01-11T02:00:09Z</time>
      </trkpt>
      <trkpt lat="42.320890" lon="-8.118813">
        <ele>70.096</ele>
        <time>1970-01-11T02:00:09Z</time>
      </trkpt>
      <trkpt lat="42.320823" lon="-8.118829">
        <ele>69.835</ele>
        <time>1970-01-11T02:00:09Z</time>
      </trkpt>
      <trkpt lat="42.320623" lon="-8.118882">
        <ele>69.280</ele>
        <time>1970-01-11T02:00:09Z</time>
      </trkpt>
      <trkpt lat="42.320435" lon="-8.118925">
        <ele>69.038</ele>
        <time>1970-01-11T02:00:09Z</time>
      </trkpt>
      <trkpt lat="42.320201" lon="-8.118986">
        <ele>68.887</ele>
        <time>1970-01-11T02:00:09Z</time>
      </trkpt>
      <trkpt lat="42.319724" lon="-8.119126">
        <ele>68.481</ele>
        <time>1970-01-11T02:00:09Z</time>
      </trkpt>
      <trkpt lat="42.319534" lon="-8.119186">
        <ele>68.261</ele>
        <time>1970-01-11T02:00:09Z</time>
      </trkpt>
      <trkpt lat="42.319404" lon="-8.119239">
        <ele>68.017</ele>
        <time>1970-01-11T02:00:09Z</time>
      </trkpt>
      <trkpt lat="42.319278" lon="-8.119292">
        <ele>67.808</ele>
        <time>1970-01-11T02:00:09Z</time>
      </trkpt>
      <trkpt lat="42.318878" lon="-8.119515">
        <ele>68.429</ele>
        <time>1970-01-11T02:00:09Z</time>
      </trkpt>
      <trkpt lat="42.318513" lon="-8.119661">
        <ele>68.236</ele>
        <time>1970-01-11T02:00:09Z</time>
      </trkpt>
      <trkpt lat="42.318389" lon="-8.119691">
        <ele>68.262</ele>
        <time>1970-01-11T02:00:09Z</time>
      </trkpt>
      <trkpt lat="42.318141" lon="-8.119750">
        <ele>68.290</ele>
        <time>1970-01-11T02:00:09Z</time>
      </trkpt>
      <trkpt lat="42.318013" lon="-8.119767">
        <ele>68.469</ele>
        <time>1970-01-11T02:00:09Z</time>
      </trkpt>
      <trkpt lat="42.317597" lon="-8.119796">
        <ele>68.254</ele>
        <time>1970-01-11T02:00:09Z</time>
      </trkpt>
      <trkpt lat="42.317300" lon="-8.119820">
        <ele>68.292</ele>
        <time>1970-01-11T02:00:09Z</time>
      </trkpt>
      <trkpt lat="42.317081" lon="-8.119835">
        <ele>68.451</ele>
        <time>1970-01-11T02:00:09Z</time>
      </trkpt>
      <trkpt lat="42.316622" lon="-8.119749">
        <ele>68.669</ele>
        <time>1970-01-11T02:00:09Z</time>
      </trkpt>
      <trkpt lat="42.316170" lon="-8.119658">
        <ele>68.604</ele>
        <time>1970-01-11T02:00:09Z</time>
      </trkpt>
      <trkpt lat="42.315699" lon="-8.119581">
        <ele>68.224</ele>
        <time>1970-01-11T02:00:09Z</time>
      </trkpt>
      <trkpt lat="42.315334" lon="-8.119509">
        <ele>68.208</ele>
        <time>1970-01-11T02:00:09Z</time>
      </trkpt>
      <trkpt lat="42.315183" lon="-8.119501">
        <ele>68.217</ele>
        <time>1970-01-11T02:00:09Z</time>
      </trkpt>
      <trkpt lat="42.315032" lon="-8.119536">
        <ele>68.064</ele>
        <time>1970-01-11T02:00:09Z</time>
      </trkpt>
      <trkpt lat="42.314501" lon="-8.119646">
        <ele>67.250</ele>
        <time>1970-01-11T02:00:09Z</time>
      </trkpt>
      <trkpt lat="42.314427" lon="-8.119641">
        <ele>67.298</ele>
        <time>1970-01-11T02:00:09Z</time>
      </trkpt>
      <trkpt lat="42.314213" lon="-8.119569">
        <ele>67.217</ele>
        <time>1970-01-11T02:00:09Z</time>
      </trkpt>
      <trkpt lat="42.313737" lon="-8.119370">
        <ele>67.052</ele>
        <time>1970-01-11T02:00:09Z</time>
      </trkpt>
      <trkpt lat="42.313668" lon="-8.119351">
        <ele>67.050</ele>
        <time>1970-01-11T02:00:09Z</time>
      </trkpt>
      <trkpt lat="42.313327" lon="-8.119285">
        <ele>66.679</ele>
        <time>1970-01-11T02:00:09Z</time>
      </trkpt>
      <trkpt lat="42.312973" lon="-8.119213">
        <ele>66.499</ele>
        <time>1970-01-11T02:00:09Z</time>
      </trkpt>
      <trkpt lat="42.312907" lon="-8.119181">
        <ele>66.407</ele>
        <time>1970-01-11T02:00:09Z</time>
      </trkpt>
      <trkpt lat="42.312781" lon="-8.119103">
        <ele>66.227</ele>
        <time>1970-01-11T02:00:09Z</time>
      </trkpt>
      <trkpt lat="42.312608" lon="-8.118951">
        <ele>66.408</ele>
        <time>1970-01-11T02:00:09Z</time>
      </trkpt>
      <trkpt lat="42.312289" lon="-8.118675">
        <ele>66.410</ele>
        <time>1970-01-11T02:00:09Z</time>
      </trkpt>
      <trkpt lat="42.312113" lon="-8.118709">
        <ele>66.647</ele>
        <time>1970-01-11T02:00:09Z</time>
      </trkpt>
      <trkpt lat="42.311947" lon="-8.118798">
        <ele>66.643</ele>
        <time>1970-01-11T02:00:09Z</time>
      </trkpt>
      <trkpt lat="42.311829" lon="-8.118855">
        <ele>66.851</ele>
        <time>1970-01-11T02:00:09Z</time>
      </trkpt>
      <trkpt lat="42.311468" lon="-8.119063">
        <ele>66.450</ele>
        <time>1970-01-11T02:00:09Z</time>
      </trkpt>
      <trkpt lat="42.311282" lon="-8.119159">
        <ele>66.285</ele>
        <time>1970-01-11T02:00:09Z</time>
      </trkpt>
      <trkpt lat="42.311165" lon="-8.119187">
        <ele>66.283</ele>
        <time>1970-01-11T02:00:09Z</time>
      </trkpt>
      <trkpt lat="42.310936" lon="-8.119227">
        <ele>66.442</ele>
        <time>1970-01-11T02:00:09Z</time>
      </trkpt>
      <trkpt lat="42.310824" lon="-8.119278">
        <ele>66.657</ele>
        <time>1970-01-11T02:00:09Z</time>
      </trkpt>
      <trkpt lat="42.310676" lon="-8.119370">
        <ele>67.000</ele>
        <time>1970-01-11T02:00:09Z</time>
      </trkpt>
      <trkpt lat="42.310536" lon="-8.119452">
        <ele>67.420</ele>
        <time>1970-01-11T02:00:09Z</time>
      </trkpt>
      <trkpt lat="42.310489" lon="-8.119461">
        <ele>67.608</ele>
        <time>1970-01-11T02:00:09Z</time>
      </trkpt>
      <trkpt lat="42.310422" lon="-8.119392">
        <ele>67.866</ele>
        <time>1970-01-11T02:00:09Z</time>
      </trkpt>
      <trkpt lat="42.310377" lon="-8.119282">
        <ele>67.863</ele>
        <time>1970-01-11T02:00:09Z</time>
      </trkpt>
      <trkpt lat="42.310351" lon="-8.119228">
        <ele>67.829</ele>
        <time>1970-01-11T02:00:09Z</time>
      </trkpt>
      <trkpt lat="42.310323" lon="-8.119178">
        <ele>68.027</ele>
        <time>1970-01-11T02:00:09Z</time>
      </trkpt>
      <trkpt lat="42.310296" lon="-8.119129">
        <ele>68.036</ele>
        <time>1970-01-11T02:00:09Z</time>
      </trkpt>
      <trkpt lat="42.310153" lon="-8.118807">
        <ele>68.811</ele>
        <time>1970-01-11T02:00:09Z</time>
      </trkpt>
      <trkpt lat="42.310119" lon="-8.118718">
        <ele>69.059</ele>
        <time>1970-01-11T02:00:09Z</time>
      </trkpt>
      <trkpt lat="42.310035" lon="-8.118504">
        <ele>69.828</ele>
        <time>1970-01-11T02:00:09Z</time>
      </trkpt>
      <trkpt lat="42.309997" lon="-8.118434">
        <ele>70.094</ele>
        <time>1970-01-11T02:00:09Z</time>
      </trkpt>
      <trkpt lat="42.309909" lon="-8.118320">
        <ele>71.057</ele>
        <time>1970-01-11T02:00:09Z</time>
      </trkpt>
      <trkpt lat="42.309889" lon="-8.118290">
        <ele>71.222</ele>
        <time>1970-01-11T02:00:09Z</time>
      </trkpt>
      <trkpt lat="42.309799" lon="-8.118215">
        <ele>72.408</ele>
        <time>1970-01-11T02:00:09Z</time>
      </trkpt>
      <trkpt lat="42.309718" lon="-8.118166">
        <ele>73.450</ele>
        <time>1970-01-11T02:00:09Z</time>
      </trkpt>
      <trkpt lat="42.309670" lon="-8.118158">
        <ele>74.217</ele>
        <time>1970-01-11T02:00:09Z</time>
      </trkpt>
      <trkpt lat="42.309655" lon="-8.118152">
        <ele>74.663</ele>
        <time>1970-01-11T02:00:09Z</time>
      </trkpt>
      <trkpt lat="42.309602" lon="-8.118124">
        <ele>75.611</ele>
        <time>1970-01-11T02:00:09Z</time>
      </trkpt>
      <trkpt lat="42.309579" lon="-8.118104">
        <ele>76.250</ele>
        <time>1970-01-11T02:00:09Z</time>
      </trkpt>
      <trkpt lat="42.309555" lon="-8.118081">
        <ele>77.245</ele>
        <time>1970-01-11T02:00:09Z</time>
      </trkpt>
      <trkpt lat="42.309504" lon="-8.118030">
        <ele>78.453</ele>
        <time>1970-01-11T02:00:09Z</time>
      </trkpt>
      <trkpt lat="42.309441" lon="-8.117960">
        <ele>79.462</ele>
        <time>1970-01-11T02:00:09Z</time>
      </trkpt>
      <trkpt lat="42.309368" lon="-8.117890">
        <ele>80.645</ele>
        <time>1970-01-11T02:00:09Z</time>
      </trkpt>
      <trkpt lat="42.309311" lon="-8.117846">
        <ele>81.447</ele>
        <time>1970-01-11T02:00:09Z</time>
      </trkpt>
      <trkpt lat="42.309283" lon="-8.117830">
        <ele>81.611</ele>
        <time>1970-01-11T02:00:09Z</time>
      </trkpt>
      <trkpt lat="42.309218" lon="-8.117800">
        <ele>82.808</ele>
        <time>1970-01-11T02:00:09Z</time>
      </trkpt>
      <trkpt lat="42.309205" lon="-8.117788">
        <ele>83.055</ele>
        <time>1970-01-11T02:00:09Z</time>
      </trkpt>
      <trkpt lat="42.309167" lon="-8.117764">
        <ele>83.662</ele>
        <time>1970-01-11T02:00:09Z</time>
      </trkpt>
      <trkpt lat="42.309154" lon="-8.117760">
        <ele>83.888</ele>
        <time>1970-01-11T02:00:09Z</time>
      </trkpt>
      <trkpt lat="42.309131" lon="-8.117744">
        <ele>84.426</ele>
        <time>1970-01-11T02:00:09Z</time>
      </trkpt>
      <trkpt lat="42.309097" lon="-8.117714">
        <ele>85.065</ele>
        <time>1970-01-11T02:00:09Z</time>
      </trkpt>
      <trkpt lat="42.309041" lon="-8.117669">
        <ele>86.060</ele>
        <time>1970-01-11T02:00:09Z</time>
      </trkpt>
      <trkpt lat="42.308991" lon="-8.117624">
        <ele>87.268</ele>
        <time>1970-01-11T02:00:09Z</time>
      </trkpt>
      <trkpt lat="42.308934" lon="-8.117580">
        <ele>88.417</ele>
        <time>1970-01-11T02:00:09Z</time>
      </trkpt>
      <trkpt lat="42.308896" lon="-8.117540">
        <ele>89.677</ele>
        <time>1970-01-11T02:00:09Z</time>
      </trkpt>
      <trkpt lat="42.308858" lon="-8.117504">
        <ele>90.461</ele>
        <time>1970-01-11T02:00:09Z</time>
      </trkpt>
      <trkpt lat="42.308845" lon="-8.117495">
        <ele>90.627</ele>
        <time>1970-01-11T02:00:09Z</time>
      </trkpt>
      <trkpt lat="42.308800" lon="-8.117450">
        <ele>91.808</ele>
        <time>1970-01-11T02:00:09Z</time>
      </trkpt>
      <trkpt lat="42.308765" lon="-8.117423">
        <ele>92.888</ele>
        <time>1970-01-11T02:00:10Z</time>
      </trkpt>
      <trkpt lat="42.308754" lon="-8.117415">
        <ele>93.035</ele>
        <time>1970-01-11T02:00:10Z</time>
      </trkpt>
      <trkpt lat="42.308743" lon="-8.117401">
        <ele>93.431</ele>
        <time>1970-01-11T02:00:10Z</time>
      </trkpt>
      <trkpt lat="42.308713" lon="-8.117354">
        <ele>94.269</ele>
        <time>1970-01-11T02:00:10Z</time>
      </trkpt>
      <trkpt lat="42.308704" lon="-8.117340">
        <ele>94.418</ele>
        <time>1970-01-11T02:00:10Z</time>
      </trkpt>
      <trkpt lat="42.308667" lon="-8.117314">
        <ele>95.273</ele>
        <time>1970-01-11T02:00:10Z</time>
      </trkpt>
      <trkpt lat="42.308654" lon="-8.117306">
        <ele>95.421</ele>
        <time>1970-01-11T02:00:10Z</time>
      </trkpt>
      <trkpt lat="42.308599" lon="-8.117260">
        <ele>96.480</ele>
        <time>1970-01-11T02:00:10Z</time>
      </trkpt>
      <trkpt lat="42.308508" lon="-8.117197">
        <ele>97.426</ele>
        <time>1970-01-11T02:00:10Z</time>
      </trkpt>
      <trkpt lat="42.308476" lon="-8.117177">
        <ele>97.847</ele>
        <time>1970-01-11T02:00:10Z</time>
      </trkpt>
      <trkpt lat="42.308389" lon="-8.117155">
        <ele>98.611</ele>
        <time>1970-01-11T02:00:10Z</time>
      </trkpt>
      <trkpt lat="42.308357" lon="-8.117144">
        <ele>98.808</ele>
        <time>1970-01-11T02:00:10Z</time>
      </trkpt>
      <trkpt lat="42.308291" lon="-8.117119">
        <ele>99.883</ele>
        <time>1970-01-11T02:00:10Z</time>
      </trkpt>
      <trkpt lat="42.308274" lon="-8.117118">
        <ele>100.430</ele>
        <time>1970-01-11T02:00:10Z</time>
      </trkpt>
      <trkpt lat="42.308248" lon="-8.117120">
        <ele>100.876</ele>
        <time>1970-01-11T02:00:10Z</time>
      </trkpt>
      <trkpt lat="42.308191" lon="-8.117114">
        <ele>102.064</ele>
        <time>1970-01-11T02:00:10Z</time>
      </trkpt>
      <trkpt lat="42.308177" lon="-8.117110">
        <ele>102.293</ele>
        <time>1970-01-11T02:00:10Z</time>
      </trkpt>
      <trkpt lat="42.308151" lon="-8.117097">
        <ele>103.098</ele>
        <time>1970-01-11T02:00:10Z</time>
      </trkpt>
      <trkpt lat="42.308095" lon="-8.117065">
        <ele>104.226</ele>
        <time>1970-01-11T02:00:10Z</time>
      </trkpt>
      <trkpt lat="42.308083" lon="-8.117052">
        <ele>104.455</ele>
        <time>1970-01-11T02:00:10Z</time>
      </trkpt>
      <trkpt lat="42.308052" lon="-8.117018">
        <ele>105.285</ele>
        <time>1970-01-11T02:00:10Z</time>
      </trkpt>
      <trkpt lat="42.308013" lon="-8.116950">
        <ele>106.489</ele>
        <time>1970-01-11T02:00:10Z</time>
      </trkpt>
      <trkpt lat="42.308005" lon="-8.116936">
        <ele>106.617</ele>
        <time>1970-01-11T02:00:10Z</time>
      </trkpt>
      <trkpt lat="42.307990" lon="-8.116914">
        <ele>107.608</ele>
        <time>1970-01-11T02:00:10Z</time>
      </trkpt>
      <trkpt lat="42.307950" lon="-8.116850">
        <ele>108.889</ele>
        <time>1970-01-11T02:00:10Z</time>
      </trkpt>
      <trkpt lat="42.307837" lon="-8.116760">
        <ele>109.056</ele>
        <time>1970-01-11T02:00:10Z</time>
      </trkpt>
      <trkpt lat="42.307624" lon="-8.116681">
        <ele>108.842</ele>
        <time>1970-01-11T02:00:10Z</time>
      </trkpt>
      <trkpt lat="42.307592" lon="-8.116670">
        <ele>108.820</ele>
        <time>1970-01-11T02:00:10Z</time>
      </trkpt>
      <trkpt lat="42.307499" lon="-8.116636">
        <ele>108.659</ele>
        <time>1970-01-11T02:00:10Z</time>
      </trkpt>
      <trkpt lat="42.307442" lon="-8.116596">
        <ele>108.644</ele>
        <time>1970-01-11T02:00:10Z</time>
      </trkpt>
      <trkpt lat="42.307398" lon="-8.116580">
        <ele>108.632</ele>
        <time>1970-01-11T02:00:10Z</time>
      </trkpt>
      <trkpt lat="42.307363" lon="-8.116561">
        <ele>108.681</ele>
        <time>1970-01-11T02:00:10Z</time>
      </trkpt>
      <trkpt lat="42.307347" lon="-8.116553">
        <ele>108.641</ele>
        <time>1970-01-11T02:00:10Z</time>
      </trkpt>
      <trkpt lat="42.307332" lon="-8.116545">
        <ele>108.681</ele>
        <time>1970-01-11T02:00:10Z</time>
      </trkpt>
      <trkpt lat="42.307238" lon="-8.116477">
        <ele>108.809</ele>
        <time>1970-01-11T02:00:10Z</time>
      </trkpt>
      <trkpt lat="42.307229" lon="-8.116474">
        <ele>109.008</ele>
        <time>1970-01-11T02:00:10Z</time>
      </trkpt>
      <trkpt lat="42.307196" lon="-8.116472">
        <ele>109.285</ele>
        <time>1970-01-11T02:00:10Z</time>
      </trkpt>
      <trkpt lat="42.307190" lon="-8.116470">
        <ele>109.212</ele>
        <time>1970-01-11T02:00:10Z</time>
      </trkpt>
      <trkpt lat="42.307177" lon="-8.116456">
        <ele>109.228</ele>
        <time>1970-01-11T02:00:10Z</time>
      </trkpt>
      <trkpt lat="42.307182" lon="-8.116433">
        <ele>109.446</ele>
        <time>1970-01-11T02:00:10Z</time>
      </trkpt>
      <trkpt lat="42.307193" lon="-8.116438">
        <ele>109.465</ele>
        <time>1970-01-11T02:00:10Z</time>
      </trkpt>
      <trkpt lat="42.307220" lon="-8.116449">
        <ele>109.470</ele>
        <time>1970-01-11T02:00:10Z</time>
      </trkpt>
      <trkpt lat="42.307278" lon="-8.116470">
        <ele>109.458</ele>
        <time>1970-01-11T02:00:10Z</time>
      </trkpt>
      <trkpt lat="42.307280" lon="-8.116493">
        <ele>109.287</ele>
        <time>1970-01-11T02:00:10Z</time>
      </trkpt>
      <trkpt lat="42.307259" lon="-8.116497">
        <ele>109.211</ele>
        <time>1970-01-11T02:00:10Z</time>
      </trkpt>
      <trkpt lat="42.307241" lon="-8.116487">
        <ele>109.221</ele>
        <time>1970-01-11T02:00:10Z</time>
      </trkpt>
      <trkpt lat="42.307233" lon="-8.116480">
        <ele>109.203</ele>
        <time>1970-01-11T02:00:10Z</time>
      </trkpt>
      <trkpt lat="42.307233" lon="-8.116480">
        <ele>109.208</ele>
        <time>1970-01-11T02:00:10Z</time>
      </trkpt>
      <trkpt lat="42.307233" lon="-8.116480">
        <ele>109.242</ele>
        <time>1970-01-11T02:00:10Z</time>
      </trkpt>
      <trkpt lat="42.307233" lon="-8.116480">
        <ele>109.019</ele>
        <time>1970-01-11T02:00:10Z</time>
      </trkpt>
      <trkpt lat="42.307233" lon="-8.116480">
        <ele>109.085</ele>
        <time>1970-01-11T02:00:10Z</time>
      </trkpt>
      <trkpt lat="42.307233" lon="-8.116480">
        <ele>108.863</ele>
        <time>1970-01-11T02:00:10Z</time>
      </trkpt>
      <trkpt lat="42.307233" lon="-8.116480">
        <ele>108.842</ele>
        <time>1970-01-11T02:00:10Z</time>
      </trkpt>
      <trkpt lat="42.307233" lon="-8.116480">
        <ele>108.837</ele>
        <time>1970-01-11T02:00:10Z</time>
      </trkpt>
      <trkpt lat="42.307233" lon="-8.116480">
        <ele>109.045</ele>
        <time>1970-01-11T02:00:10Z</time>
      </trkpt>
      <trkpt lat="42.307233" lon="-8.116480">
        <ele>109.024</ele>
        <time>1970-01-11T02:00:10Z</time>
      </trkpt>
      <trkpt lat="42.307233" lon="-8.116480">
        <ele>109.097</ele>
        <time>1970-01-11T02:00:10Z</time>
      </trkpt>
      <trkpt lat="42.307233" lon="-8.116480">
        <ele>109.023</ele>
        <time>1970-01-11T02:00:10Z</time>
      </trkpt>
      <trkpt lat="42.307233" lon="-8.116480">
        <ele>109.225</ele>
        <time>1970-01-11T02:00:10Z</time>
      </trkpt>
      <trkpt lat="42.307233" lon="-8.116480">
        <ele>109.208</ele>
        <time>1970-01-11T02:00:10Z</time>
      </trkpt>
      <trkpt lat="42.307233" lon="-8.116480">
        <ele>109.290</ele>
        <time>1970-01-11T02:00:10Z</time>
      </trkpt>
      <trkpt lat="42.307234" lon="-8.116481">
        <ele>109.237</ele>
        <time>1970-01-11T02:00:10Z</time>
      </trkpt>
      <trkpt lat="42.307231" lon="-8.116477">
        <ele>109.223</ele>
        <time>1970-01-11T02:00:10Z</time>
      </trkpt>
      <trkpt lat="42.307214" lon="-8.116456">
        <ele>109.231</ele>
        <time>1970-01-11T02:00:10Z</time>
      </trkpt>
      <trkpt lat="42.307183" lon="-8.116442">
        <ele>109.460</ele>
        <time>1970-01-11T02:00:10Z</time>
      </trkpt>
      <trkpt lat="42.307167" lon="-8.116435">
        <ele>109.455</ele>
        <time>1970-01-11T02:00:10Z</time>
      </trkpt>
      <trkpt lat="42.307150" lon="-8.116428">
        <ele>109.423</ele>
        <time>1970-01-11T02:00:10Z</time>
      </trkpt>
      <trkpt lat="42.307132" lon="-8.116421">
        <ele>109.452</ele>
        <time>1970-01-11T02:00:10Z</time>
      </trkpt>
      <trkpt lat="42.307032" lon="-8.116362">
        <ele>109.659</ele>
        <time>1970-01-11T02:00:10Z</time>
      </trkpt>
      <trkpt lat="42.307012" lon="-8.116350">
        <ele>109.803</ele>
        <time>1970-01-11T02:00:10Z</time>
      </trkpt>
      <trkpt lat="42.306955" lon="-8.116310">
        <ele>110.023</ele>
        <time>1970-01-11T02:00:10Z</time>
      </trkpt>
      <trkpt lat="42.306912" lon="-8.116282">
        <ele>110.008</ele>
        <time>1970-01-11T02:00:10Z</time>
      </trkpt>
      <trkpt lat="42.306858" lon="-8.116260">
        <ele>110.246</ele>
        <time>1970-01-11T02:00:10Z</time>
      </trkpt>
      <trkpt lat="42.306793" lon="-8.116242">
        <ele>110.423</ele>
        <time>1970-01-11T02:00:10Z</time>
      </trkpt>
      <trkpt lat="42.306757" lon="-8.116233">
        <ele>110.479</ele>
        <time>1970-01-11T02:00:10Z</time>
      </trkpt>
      <trkpt lat="42.306644" lon="-8.116219">
        <ele>110.827</ele>
        <time>1970-01-11T02:00:10Z</time>
      </trkpt>
      <trkpt lat="42.306606" lon="-8.116213">
        <ele>110.896</ele>
        <time>1970-01-11T02:00:10Z</time>
      </trkpt>
      <trkpt lat="42.306395" lon="-8.116181">
        <ele>111.261</ele>
        <time>1970-01-11T02:00:10Z</time>
      </trkpt>
      <trkpt lat="42.306269" lon="-8.116160">
        <ele>111.059</ele>
        <time>1970-01-11T02:00:10Z</time>
      </trkpt>
      <trkpt lat="42.306024" lon="-8.116154">
        <ele>110.658</ele>
        <time>1970-01-11T02:00:10Z</time>
      </trkpt>
      <trkpt lat="42.305977" lon="-8.116171">
        <ele>110.626</ele>
        <time>1970-01-11T02:00:10Z</time>
      </trkpt>
      <trkpt lat="42.305851" lon="-8.116250">
        <ele>110.247</ele>
        <time>1970-01-11T02:00:10Z</time>
      </trkpt>
      <trkpt lat="42.305793" lon="-8.116331">
        <ele>110.011</ele>
        <time>1970-01-11T02:00:10Z</time>
      </trkpt>
      <trkpt lat="42.305761" lon="-8.116410">
        <ele>110.008</ele>
        <time>1970-01-11T02:00:10Z</time>
      </trkpt>
      <trkpt lat="42.305748" lon="-8.116457">
        <ele>110.263</ele>
        <time>1970-01-11T02:00:10Z</time>
      </trkpt>
      <trkpt lat="42.305694" lon="-8.116486">
        <ele>110.240</ele>
        <time>1970-01-11T02:00:10Z</time>
      </trkpt>
      <trkpt lat="42.305703" lon="-8.116378">
        <ele>110.246</ele>
        <time>1970-01-11T02:00:10Z</time>
      </trkpt>
      <trkpt lat="42.305731" lon="-8.116332">
        <ele>110.224</ele>
        <time>1970-01-11T02:00:10Z</time>
      </trkpt>
      <trkpt lat="42.305737" lon="-8.116245">
        <ele>110.283</ele>
        <time>1970-01-11T02:00:10Z</time>
      </trkpt>
      <trkpt lat="42.305676" lon="-8.116249">
        <ele>110.028</ele>
        <time>1970-01-11T02:00:10Z</time>
      </trkpt>
      <trkpt lat="42.305646" lon="-8.116289">
        <ele>110.046</ele>
        <time>1970-01-11T02:00:10Z</time>
      </trkpt>
      <trkpt lat="42.305614" lon="-8.116337">
        <ele>109.845</ele>
        <time>1970-01-11T02:00:10Z</time>
      </trkpt>
      <trkpt lat="42.305581" lon="-8.116392">
        <ele>109.696</ele>
        <time>1970-01-11T02:00:10Z</time>
      </trkpt>
      <trkpt lat="42.305515" lon="-8.116497">
        <ele>109.431</ele>
        <time>1970-01-11T02:00:10Z</time>
      </trkpt>
      <trkpt lat="42.305483" lon="-8.116547">
        <ele>109.224</ele>
        <time>1970-01-11T02:00:10Z</time>
      </trkpt>
      <trkpt lat="42.305452" lon="-8.116599">
        <ele>109.008</ele>
        <time>1970-01-11T02:00:10Z</time>
      </trkpt>
      <trkpt lat="42.305423" lon="-8.116651">
        <ele>108.820</ele>
        <time>1970-01-11T02:00:10Z</time>
      </trkpt>
      <trkpt lat="42.305366" lon="-8.116757">
        <ele>108.687</ele>
        <time>1970-01-11T02:00:10Z</time>
      </trkpt>
      <trkpt lat="42.305338" lon="-8.116809">
        <ele>108.613</ele>
        <time>1970-01-11T02:00:10Z</time>
      </trkpt>
      <trkpt lat="42.305284" lon="-8.116914">
        <ele>108.681</ele>
        <time>1970-01-11T02:00:10Z</time>
      </trkpt>
      <trkpt lat="42.305212" lon="-8.117076">
        <ele>109.030</ele>
        <time>1970-01-11T02:00:10Z</time>
      </trkpt>
      <trkpt lat="42.305166" lon="-8.117189">
        <ele>109.295</ele>
        <time>1970-01-11T02:00:10Z</time>
      </trkpt>
      <trkpt lat="42.305144" lon="-8.117246">
        <ele>109.283</ele>
        <time>1970-01-11T02:00:10Z</time>
      </trkpt>
      <trkpt lat="42.305103" lon="-8.117360">
        <ele>109.452</ele>
        <time>1970-01-11T02:00:10Z</time>
      </trkpt>
      <trkpt lat="42.305063" lon="-8.117471">
        <ele>109.469</ele>
        <time>1970-01-11T02:00:10Z</time>
      </trkpt>
      <trkpt lat="42.305039" lon="-8.117525">
        <ele>109.204</ele>
        <time>1970-01-11T02:00:10Z</time>
      </trkpt>
      <trkpt lat="42.304977" lon="-8.117685">
        <ele>109.224</ele>
        <time>1970-01-11T02:00:10Z</time>
      </trkpt>
      <trkpt lat="42.304954" lon="-8.117732">
        <ele>109.208</ele>
        <time>1970-01-11T02:00:10Z</time>
      </trkpt>
      <trkpt lat="42.304892" lon="-8.117873">
        <ele>108.857</ele>
        <time>1970-01-11T02:00:10Z</time>
      </trkpt>
      <trkpt lat="42.304853" lon="-8.117978">
        <ele>108.844</ele>
        <time>1970-01-11T02:00:10Z</time>
      </trkpt>
      <trkpt lat="42.304781" lon="-8.118210">
        <ele>108.630</ele>
        <time>1970-01-11T02:00:10Z</time>
      </trkpt>
      <trkpt lat="42.304766" lon="-8.118271">
        <ele>108.618</ele>
        <time>1970-01-11T02:00:10Z</time>
      </trkpt>
      <trkpt lat="42.304731" lon="-8.118402">
        <ele>108.697</ele>
        <time>1970-01-11T02:00:10Z</time>
      </trkpt>
      <trkpt lat="42.304690" lon="-8.118529">
        <ele>108.682</ele>
        <time>1970-01-11T02:00:10Z</time>
      </trkpt>
      <trkpt lat="42.304642" lon="-8.118661">
        <ele>108.420</ele>
        <time>1970-01-11T02:00:10Z</time>
      </trkpt>
      <trkpt lat="42.304527" lon="-8.118915">
        <ele>108.029</ele>
        <time>1970-01-11T02:00:10Z</time>
      </trkpt>
      <trkpt lat="42.304444" lon="-8.118996">
        <ele>107.857</ele>
        <time>1970-01-11T02:00:10Z</time>
      </trkpt>
      <trkpt lat="42.304395" lon="-8.119019">
        <ele>107.600</ele>
        <time>1970-01-11T02:00:10Z</time>
      </trkpt>
      <trkpt lat="42.304234" lon="-8.119056">
        <ele>106.620</ele>
        <time>1970-01-11T02:00:10Z</time>
      </trkpt>
      <trkpt lat="42.304181" lon="-8.119082">
        <ele>106.408</ele>
        <time>1970-01-11T02:00:10Z</time>
      </trkpt>
      <trkpt lat="42.304113" lon="-8.119197">
        <ele>106.296</ele>
        <time>1970-01-11T02:00:10Z</time>
      </trkpt>
      <trkpt lat="42.304070" lon="-8.119327">
        <ele>106.263</ele>
        <time>1970-01-11T02:00:10Z</time>
      </trkpt>
      <trkpt lat="42.304010" lon="-8.119513">
        <ele>106.439</ele>
        <time>1970-01-11T02:00:10Z</time>
      </trkpt>
      <trkpt lat="42.303990" lon="-8.119571">
        <ele>106.817</ele>
        <time>1970-01-11T02:00:10Z</time>
      </trkpt>
      <trkpt lat="42.303919" lon="-8.119734">
        <ele>107.486</ele>
        <time>1970-01-11T02:00:10Z</time>
      </trkpt>
      <trkpt lat="42.303895" lon="-8.119786">
        <ele>107.641</ele>
        <time>1970-01-11T02:00:10Z</time>
      </trkpt>
      <trkpt lat="42.303816" lon="-8.119941">
        <ele>108.289</ele>
        <time>1970-01-11T02:00:10Z</time>
      </trkpt>
      <trkpt lat="42.303699" lon="-8.120103">
        <ele>108.648</ele>
        <time>1970-01-11T02:00:10Z</time>
      </trkpt>
      <trkpt lat="42.303675" lon="-8.120090">
        <ele>108.694</ele>
        <time>1970-01-11T02:00:10Z</time>
      </trkpt>
      <trkpt lat="42.303675" lon="-8.119979">
        <ele>108.657</ele>
        <time>1970-01-11T02:00:10Z</time>
      </trkpt>
      <trkpt lat="42.303752" lon="-8.119741">
        <ele>108.422</ele>
        <time>1970-01-11T02:00:10Z</time>
      </trkpt>
      <trkpt lat="42.303814" lon="-8.119531">
        <ele>107.608</ele>
        <time>1970-01-11T02:00:10Z</time>
      </trkpt>
      <trkpt lat="42.303859" lon="-8.119282">
        <ele>106.640</ele>
        <time>1970-01-11T02:00:10Z</time>
      </trkpt>
      <trkpt lat="42.303877" lon="-8.119139">
        <ele>106.217</ele>
        <time>1970-01-11T02:00:10Z</time>
      </trkpt>
      <trkpt lat="42.303897" lon="-8.118868">
        <ele>104.063</ele>
        <time>1970-01-11T02:00:10Z</time>
      </trkpt>
      <trkpt lat="42.303884" lon="-8.118745">
        <ele>102.881</ele>
        <time>1970-01-11T02:00:10Z</time>
      </trkpt>
      <trkpt lat="42.303848" lon="-8.118635">
        <ele>101.410</ele>
        <time>1970-01-11T02:00:10Z</time>
      </trkpt>
      <trkpt lat="42.303810" lon="-8.118540">
        <ele>100.095</ele>
        <time>1970-01-11T02:00:10Z</time>
      </trkpt>
      <trkpt lat="42.303796" lon="-8.118453">
        <ele>98.483</ele>
        <time>1970-01-11T02:00:10Z</time>
      </trkpt>
      <trkpt lat="42.303813" lon="-8.118350">
        <ele>96.882</ele>
        <time>1970-01-11T02:00:10Z</time>
      </trkpt>
      <trkpt lat="42.303851" lon="-8.118243">
        <ele>95.278</ele>
        <time>1970-01-11T02:00:10Z</time>
      </trkpt>
      <trkpt lat="42.303879" lon="-8.118125">
        <ele>93.833</ele>
        <time>1970-01-11T02:00:10Z</time>
      </trkpt>
      <trkpt lat="42.303892" lon="-8.117998">
        <ele>92.226</ele>
        <time>1970-01-11T02:00:10Z</time>
      </trkpt>
      <trkpt lat="42.303884" lon="-8.117865">
        <ele>91.008</ele>
        <time>1970-01-11T02:00:10Z</time>
      </trkpt>
      <trkpt lat="42.303875" lon="-8.117734">
        <ele>89.648</ele>
        <time>1970-01-11T02:00:10Z</time>
      </trkpt>
      <trkpt lat="42.303876" lon="-8.117599">
        <ele>88.235</ele>
        <time>1970-01-11T02:00:10Z</time>
      </trkpt>
      <trkpt lat="42.303886" lon="-8.117467">
        <ele>86.891</ele>
        <time>1970-01-11T02:00:10Z</time>
      </trkpt>
      <trkpt lat="42.303890" lon="-8.117333">
        <ele>85.469</ele>
        <time>1970-01-11T02:00:10Z</time>
      </trkpt>
      <trkpt lat="42.303886" lon="-8.117200">
        <ele>84.258</ele>
        <time>1970-01-11T02:00:10Z</time>
      </trkpt>
      <trkpt lat="42.303881" lon="-8.117069">
        <ele>83.283</ele>
        <time>1970-01-11T02:00:10Z</time>
      </trkpt>
      <trkpt lat="42.303884" lon="-8.116949">
        <ele>82.471</ele>
        <time>1970-01-11T02:00:10Z</time>
      </trkpt>
      <trkpt lat="42.303902" lon="-8.116840">
        <ele>81.820</ele>
        <time>1970-01-11T02:00:10Z</time>
      </trkpt>
      <trkpt lat="42.303938" lon="-8.116741">
        <ele>81.214</ele>
        <time>1970-01-11T02:00:10Z</time>
      </trkpt>
      <trkpt lat="42.304024" lon="-8.116549">
        <ele>80.454</ele>
        <time>1970-01-11T02:00:10Z</time>
      </trkpt>
      <trkpt lat="42.304071" lon="-8.116460">
        <ele>80.209</ele>
        <time>1970-01-11T02:00:10Z</time>
      </trkpt>
      <trkpt lat="42.304287" lon="-8.116072">
        <ele>79.808</ele>
        <time>1970-01-11T02:00:10Z</time>
      </trkpt>
      <trkpt lat="42.304438" lon="-8.115744">
        <ele>80.282</ele>
        <time>1970-01-11T02:00:10Z</time>
      </trkpt>
      <trkpt lat="42.304543" lon="-8.115493">
        <ele>80.449</ele>
        <time>1970-01-11T02:00:10Z</time>
      </trkpt>
      <trkpt lat="42.304611" lon="-8.115365">
        <ele>80.615</ele>
        <time>1970-01-11T02:00:10Z</time>
      </trkpt>
      <trkpt lat="42.304722" lon="-8.115171">
        <ele>81.223</ele>
        <time>1970-01-11T02:00:10Z</time>
      </trkpt>
      <trkpt lat="42.304828" lon="-8.114958">
        <ele>81.442</ele>
        <time>1970-01-11T02:00:10Z</time>
      </trkpt>
      <trkpt lat="42.304928" lon="-8.114719">
        <ele>81.217</ele>
        <time>1970-01-11T02:00:10Z</time>
      </trkpt>
      <trkpt lat="42.304974" lon="-8.114534">
        <ele>80.635</ele>
        <time>1970-01-11T02:00:10Z</time>
      </trkpt>
      <trkpt lat="42.304990" lon="-8.114347">
        <ele>80.424</ele>
        <time>1970-01-11T02:00:10Z</time>
      </trkpt>
      <trkpt lat="42.304989" lon="-8.114254">
        <ele>80.222</ele>
        <time>1970-01-11T02:00:10Z</time>
      </trkpt>
      <trkpt lat="42.304965" lon="-8.114071">
        <ele>79.862</ele>
        <time>1970-01-11T02:00:10Z</time>
      </trkpt>
      <trkpt lat="42.304950" lon="-8.113981">
        <ele>79.808</ele>
        <time>1970-01-11T02:00:10Z</time>
      </trkpt>
      <trkpt lat="42.304914" lon="-8.113824">
        <ele>79.608</ele>
        <time>1970-01-11T02:00:10Z</time>
      </trkpt>
      <trkpt lat="42.304868" lon="-8.113698">
        <ele>79.863</ele>
        <time>1970-01-11T02:00:10Z</time>
      </trkpt>
      <trkpt lat="42.304831" lon="-8.113571">
        <ele>80.630</ele>
        <time>1970-01-11T02:00:10Z</time>
      </trkpt>
      <trkpt lat="42.304826" lon="-8.113501">
        <ele>81.256</ele>
        <time>1970-01-11T02:00:10Z</time>
      </trkpt>
      <trkpt lat="42.304843" lon="-8.113339">
        <ele>82.094</ele>
        <time>1970-01-11T02:00:10Z</time>
      </trkpt>
      <trkpt lat="42.304874" lon="-8.113265">
        <ele>82.273</ele>
        <time>1970-01-11T02:00:10Z</time>
      </trkpt>
      <trkpt lat="42.304964" lon="-8.113140">
        <ele>82.458</ele>
        <time>1970-01-11T02:00:10Z</time>
      </trkpt>
      <trkpt lat="42.305013" lon="-8.113082">
        <ele>82.466</ele>
        <time>1970-01-11T02:00:10Z</time>
      </trkpt>
      <trkpt lat="42.305057" lon="-8.113016">
        <ele>82.215</ele>
        <time>1970-01-11T02:00:10Z</time>
      </trkpt>
      <trkpt lat="42.305092" lon="-8.112855">
        <ele>81.851</ele>
        <time>1970-01-11T02:00:10Z</time>
      </trkpt>
      <trkpt lat="42.305046" lon="-8.112688">
        <ele>80.401</ele>
        <time>1970-01-11T02:00:10Z</time>
      </trkpt>
      <trkpt lat="42.305011" lon="-8.112617">
        <ele>80.211</ele>
        <time>1970-01-11T02:00:10Z</time>
      </trkpt>
      <trkpt lat="42.304973" lon="-8.112550">
        <ele>80.208</ele>
        <time>1970-01-11T02:00:10Z</time>
      </trkpt>
      <trkpt lat="42.304804" lon="-8.112164">
        <ele>80.226</ele>
        <time>1970-01-11T02:00:10Z</time>
      </trkpt>
      <trkpt lat="42.304705" lon="-8.111718">
        <ele>79.823</ele>
        <time>1970-01-11T02:00:10Z</time>
      </trkpt>
      <trkpt lat="42.304689" lon="-8.111543">
        <ele>79.419</ele>
        <time>1970-01-11T02:00:10Z</time>
      </trkpt>
      <trkpt lat="42.304681" lon="-8.111292">
        <ele>79.057</ele>
        <time>1970-01-11T02:00:10Z</time>
      </trkpt>
      <trkpt lat="42.304688" lon="-8.111209">
        <ele>79.036</ele>
        <time>1970-01-11T02:00:10Z</time>
      </trkpt>
      <trkpt lat="42.304700" lon="-8.111029">
        <ele>79.011</ele>
        <time>1970-01-11T02:00:10Z</time>
      </trkpt>
      <trkpt lat="42.304693" lon="-8.110934">
        <ele>79.099</ele>
        <time>1970-01-11T02:00:10Z</time>
      </trkpt>
      <trkpt lat="42.304693" lon="-8.110564">
        <ele>79.268</ele>
        <time>1970-01-11T02:00:10Z</time>
      </trkpt>
      <trkpt lat="42.304680" lon="-8.110388">
        <ele>79.276</ele>
        <time>1970-01-11T02:00:10Z</time>
      </trkpt>
      <trkpt lat="42.304599" lon="-8.109861">
        <ele>79.690</ele>
        <time>1970-01-11T02:00:10Z</time>
      </trkpt>
      <trkpt lat="42.304519" lon="-8.109423">
        <ele>79.619</ele>
        <time>1970-01-11T02:00:10Z</time>
      </trkpt>
      <trkpt lat="42.304505" lon="-8.109342">
        <ele>79.608</ele>
        <time>1970-01-11T02:00:10Z</time>
      </trkpt>
      <trkpt lat="42.304476" lon="-8.108983">
        <ele>79.878</ele>
        <time>1970-01-11T02:00:10Z</time>
      </trkpt>
      <trkpt lat="42.304449" lon="-8.108804">
        <ele>80.065</ele>
        <time>1970-01-11T02:00:10Z</time>
      </trkpt>
      <trkpt lat="42.304398" lon="-8.108635">
        <ele>80.021</ele>
        <time>1970-01-11T02:00:10Z</time>
      </trkpt>
      <trkpt lat="42.304242" lon="-8.108171">
        <ele>79.819</ele>
        <time>1970-01-11T02:00:10Z</time>
      </trkpt>
      <trkpt lat="42.304174" lon="-8.107928">
        <ele>79.678</ele>
        <time>1970-01-11T02:00:10Z</time>
      </trkpt>
      <trkpt lat="42.304161" lon="-8.107760">
        <ele>79.693</ele>
        <time>1970-01-11T02:00:10Z</time>
      </trkpt>
      <trkpt lat="42.304143" lon="-8.107498">
        <ele>79.671</ele>
        <time>1970-01-11T02:00:10Z</time>
      </trkpt>
      <trkpt lat="42.304115" lon="-8.107321">
        <ele>79.830</ele>
        <time>1970-01-11T02:00:10Z</time>
      </trkpt>
      <trkpt lat="42.304086" lon="-8.107151">
        <ele>79.895</ele>
        <time>1970-01-11T02:00:10Z</time>
      </trkpt>
      <trkpt lat="42.304072" lon="-8.106919">
        <ele>79.649</ele>
        <time>1970-01-11T02:00:10Z</time>
      </trkpt>
      <trkpt lat="42.303998" lon="-8.106565">
        <ele>79.423</ele>
        <time>1970-01-11T02:00:10Z</time>
      </trkpt>
      <trkpt lat="42.303964" lon="-8.106498">
        <ele>79.408</ele>
        <time>1970-01-11T02:00:10Z</time>
      </trkpt>
      <trkpt lat="42.303782" lon="-8.106273">
        <ele>79.610</ele>
        <time>1970-01-11T02:00:10Z</time>
      </trkpt>
      <trkpt lat="42.303737" lon="-8.106048">
        <ele>79.677</ele>
        <time>1970-01-11T02:00:10Z</time>
      </trkpt>
      <trkpt lat="42.303743" lon="-8.105877">
        <ele>79.833</ele>
        <time>1970-01-11T02:00:10Z</time>
      </trkpt>
      <trkpt lat="42.303753" lon="-8.105550">
        <ele>80.031</ele>
        <time>1970-01-11T02:00:10Z</time>
      </trkpt>
      <trkpt lat="42.303784" lon="-8.105388">
        <ele>80.270</ele>
        <time>1970-01-11T02:00:10Z</time>
      </trkpt>
      <trkpt lat="42.303812" lon="-8.105312">
        <ele>80.435</ele>
        <time>1970-01-11T02:00:10Z</time>
      </trkpt>
      <trkpt lat="42.303847" lon="-8.105230">
        <ele>80.623</ele>
        <time>1970-01-11T02:00:10Z</time>
      </trkpt>
      <trkpt lat="42.304047" lon="-8.104848">
        <ele>80.462</ele>
        <time>1970-01-11T02:00:10Z</time>
      </trkpt>
      <trkpt lat="42.304096" lon="-8.104784">
        <ele>80.213</ele>
        <time>1970-01-11T02:00:10Z</time>
      </trkpt>
      <trkpt lat="42.304185" lon="-8.104644">
        <ele>80.243</ele>
        <time>1970-01-11T02:00:10Z</time>
      </trkpt>
      <trkpt lat="42.304232" lon="-8.104480">
        <ele>80.207</ele>
        <time>1970-01-11T02:00:10Z</time>
      </trkpt>
      <trkpt lat="42.304183" lon="-8.104327">
        <ele>80.208</ele>
        <time>1970-01-11T02:00:10Z</time>
      </trkpt>
      <trkpt lat="42.304039" lon="-8.104142">
        <ele>80.282</ele>
        <time>1970-01-11T02:00:10Z</time>
      </trkpt>
      <trkpt lat="42.304003" lon="-8.103911">
        <ele>80.439</ele>
        <time>1970-01-11T02:00:10Z</time>
      </trkpt>
      <trkpt lat="42.304114" lon="-8.103751">
        <ele>80.445</ele>
        <time>1970-01-11T02:00:10Z</time>
      </trkpt>
      <trkpt lat="42.304160" lon="-8.103710">
        <ele>80.453</ele>
        <time>1970-01-11T02:00:10Z</time>
      </trkpt>
      <trkpt lat="42.304379" lon="-8.103481">
        <ele>80.432</ele>
        <time>1970-01-11T02:00:10Z</time>
      </trkpt>
      <trkpt lat="42.304411" lon="-8.103414">
        <ele>80.417</ele>
        <time>1970-01-11T02:00:10Z</time>
      </trkpt>
      <trkpt lat="42.304447" lon="-8.103172">
        <ele>80.225</ele>
        <time>1970-01-11T02:00:10Z</time>
      </trkpt>
      <trkpt lat="42.304446" lon="-8.102999">
        <ele>80.254</ele>
        <time>1970-01-11T02:00:10Z</time>
      </trkpt>
      <trkpt lat="42.304429" lon="-8.102757">
        <ele>80.212</ele>
        <time>1970-01-11T02:00:10Z</time>
      </trkpt>
      <trkpt lat="42.304357" lon="-8.102168">
        <ele>80.232</ele>
        <time>1970-01-11T02:00:10Z</time>
      </trkpt>
      <trkpt lat="42.304392" lon="-8.101836">
        <ele>80.205</ele>
        <time>1970-01-11T02:00:10Z</time>
      </trkpt>
      <trkpt lat="42.304446" lon="-8.101490">
        <ele>80.408</ele>
        <time>1970-01-11T02:00:10Z</time>
      </trkpt>
      <trkpt lat="42.304445" lon="-8.101403">
        <ele>80.412</ele>
        <time>1970-01-11T02:00:10Z</time>
      </trkpt>
      <trkpt lat="42.304400" lon="-8.101136">
        <ele>80.699</ele>
        <time>1970-01-11T02:00:10Z</time>
      </trkpt>
      <trkpt lat="42.304383" lon="-8.101045">
        <ele>80.615</ele>
        <time>1970-01-11T02:00:10Z</time>
      </trkpt>
      <trkpt lat="42.304327" lon="-8.100793">
        <ele>80.893</ele>
        <time>1970-01-11T02:00:10Z</time>
      </trkpt>
      <trkpt lat="42.304294" lon="-8.100654">
        <ele>81.092</ele>
        <time>1970-01-11T02:00:10Z</time>
      </trkpt>
      <trkpt lat="42.304280" lon="-8.100473">
        <ele>81.827</ele>
        <time>1970-01-11T02:00:10Z</time>
      </trkpt>
      <trkpt lat="42.304269" lon="-8.100352">
        <ele>82.885</ele>
        <time>1970-01-11T02:00:10Z</time>
      </trkpt>
      <trkpt lat="42.304260" lon="-8.100293">
        <ele>83.444</ele>
        <time>1970-01-11T02:00:10Z</time>
      </trkpt>
      <trkpt lat="42.304194" lon="-8.100194">
        <ele>84.241</ele>
        <time>1970-01-11T02:00:10Z</time>
      </trkpt>
      <trkpt lat="42.304065" lon="-8.100090">
        <ele>84.881</ele>
        <time>1970-01-11T02:00:10Z</time>
      </trkpt>
      <trkpt lat="42.304029" lon="-8.100055">
        <ele>85.209</ele>
        <time>1970-01-11T02:00:10Z</time>
      </trkpt>
      <trkpt lat="42.303993" lon="-8.100016">
        <ele>85.408</ele>
        <time>1970-01-11T02:00:10Z</time>
      </trkpt>
      <trkpt lat="42.303830" lon="-8.099857">
        <ele>86.225</ele>
        <time>1970-01-11T02:00:10Z</time>
      </trkpt>
      <trkpt lat="42.303739" lon="-8.099777">
        <ele>86.682</ele>
        <time>1970-01-11T02:00:10Z</time>
      </trkpt>
      <trkpt lat="42.303578" lon="-8.099631">
        <ele>86.688</ele>
        <time>1970-01-11T02:00:10Z</time>
      </trkpt>
      <trkpt lat="42.303559" lon="-8.099561">
        <ele>86.436</ele>
        <time>1970-01-11T02:00:10Z</time>
      </trkpt>
      <trkpt lat="42.303613" lon="-8.099444">
        <ele>85.645</ele>
        <time>1970-01-11T02:00:10Z</time>
      </trkpt>
      <trkpt lat="42.303698" lon="-8.099373">
        <ele>84.820</ele>
        <time>1970-01-11T02:00:10Z</time>
      </trkpt>
      <trkpt lat="42.303774" lon="-8.099290">
        <ele>84.428</ele>
        <time>1970-01-11T02:00:10Z</time>
      </trkpt>
      <trkpt lat="42.303944" lon="-8.099127">
        <ele>85.227</ele>
        <time>1970-01-11T02:00:10Z</time>
      </trkpt>
      <trkpt lat="42.303973" lon="-8.099105">
        <ele>85.628</ele>
        <time>1970-01-11T02:00:10Z</time>
      </trkpt>
      <trkpt lat="42.303998" lon="-8.099085">
        <ele>86.089</ele>
        <time>1970-01-11T02:00:10Z</time>
      </trkpt>
      <trkpt lat="42.304080" lon="-8.098999">
        <ele>87.417</ele>
        <time>1970-01-11T02:00:10Z</time>
      </trkpt>
      <trkpt lat="42.304111" lon="-8.098976">
        <ele>88.008</ele>
        <time>1970-01-11T02:00:10Z</time>
      </trkpt>
      <trkpt lat="42.304178" lon="-8.098928">
        <ele>88.463</ele>
        <time>1970-01-11T02:00:10Z</time>
      </trkpt>
      <trkpt lat="42.304212" lon="-8.098887">
        <ele>88.660</ele>
        <time>1970-01-11T02:00:10Z</time>
      </trkpt>
      <trkpt lat="42.304272" lon="-8.098783">
        <ele>89.046</ele>
        <time>1970-01-11T02:00:10Z</time>
      </trkpt>
      <trkpt lat="42.304401" lon="-8.098567">
        <ele>89.454</ele>
        <time>1970-01-11T02:00:10Z</time>
      </trkpt>
      <trkpt lat="42.304517" lon="-8.098420">
        <ele>89.443</ele>
        <time>1970-01-11T02:00:10Z</time>
      </trkpt>
      <trkpt lat="42.304637" lon="-8.098273">
        <ele>89.418</ele>
        <time>1970-01-11T02:00:10Z</time>
      </trkpt>
      <trkpt lat="42.304743" lon="-8.098232">
        <ele>89.046</ele>
        <time>1970-01-11T02:00:10Z</time>
      </trkpt>
      <trkpt lat="42.304866" lon="-8.098223">
        <ele>89.075</ele>
        <time>1970-01-11T02:00:10Z</time>
      </trkpt>
      <trkpt lat="42.304924" lon="-8.098195">
        <ele>89.071</ele>
        <time>1970-01-11T02:00:10Z</time>
      </trkpt>
      <trkpt lat="42.304978" lon="-8.098150">
        <ele>88.841</ele>
        <time>1970-01-11T02:00:10Z</time>
      </trkpt>
      <trkpt lat="42.305091" lon="-8.097955">
        <ele>88.215</ele>
        <time>1970-01-11T02:00:10Z</time>
      </trkpt>
      <trkpt lat="42.305149" lon="-8.097738">
        <ele>87.208</ele>
        <time>1970-01-11T02:00:10Z</time>
      </trkpt>
      <trkpt lat="42.305171" lon="-8.097667">
        <ele>87.098</ele>
        <time>1970-01-11T02:00:10Z</time>
      </trkpt>
      <trkpt lat="42.305286" lon="-8.097213">
        <ele>86.685</ele>
        <time>1970-01-11T02:00:10Z</time>
      </trkpt>
      <trkpt lat="42.305285" lon="-8.097135">
        <ele>86.681</ele>
        <time>1970-01-11T02:00:10Z</time>
      </trkpt>
      <trkpt lat="42.305274" lon="-8.096914">
        <ele>86.229</ele>
        <time>1970-01-11T02:00:10Z</time>
      </trkpt>
      <trkpt lat="42.305277" lon="-8.096847">
        <ele>86.068</ele>
        <time>1970-01-11T02:00:10Z</time>
      </trkpt>
      <trkpt lat="42.305286" lon="-8.096776">
        <ele>85.813</ele>
        <time>1970-01-11T02:00:10Z</time>
      </trkpt>
      <trkpt lat="42.305364" lon="-8.096630">
        <ele>85.091</ele>
        <time>1970-01-11T02:00:10Z</time>
      </trkpt>
      <trkpt lat="42.305403" lon="-8.096552">
        <ele>84.690</ele>
        <time>1970-01-11T02:00:10Z</time>
      </trkpt>
      <trkpt lat="42.305442" lon="-8.096475">
        <ele>84.217</ele>
        <time>1970-01-11T02:00:10Z</time>
      </trkpt>
      <trkpt lat="42.305489" lon="-8.096405">
        <ele>83.887</ele>
        <time>1970-01-11T02:00:10Z</time>
      </trkpt>
      <trkpt lat="42.305540" lon="-8.096337">
        <ele>83.215</ele>
        <time>1970-01-11T02:00:10Z</time>
      </trkpt>
      <trkpt lat="42.305652" lon="-8.096208">
        <ele>82.008</ele>
        <time>1970-01-11T02:00:10Z</time>
      </trkpt>
      <trkpt lat="42.305808" lon="-8.096039">
        <ele>80.872</ele>
        <time>1970-01-11T02:00:10Z</time>
      </trkpt>
      <trkpt lat="42.305914" lon="-8.095969">
        <ele>80.649</ele>
        <time>1970-01-11T02:00:10Z</time>
      </trkpt>
      <trkpt lat="42.306065" lon="-8.095860">
        <ele>81.015</ele>
        <time>1970-01-11T02:00:10Z</time>
      </trkpt>
      <trkpt lat="42.306094" lon="-8.095776">
        <ele>81.623</ele>
        <time>1970-01-11T02:00:10Z</time>
      </trkpt>
      <trkpt lat="42.306103" lon="-8.095726">
        <ele>82.092</ele>
        <time>1970-01-11T02:00:10Z</time>
      </trkpt>
      <trkpt lat="42.306108" lon="-8.095673">
        <ele>82.427</ele>
        <time>1970-01-11T02:00:10Z</time>
      </trkpt>
      <trkpt lat="42.306110" lon="-8.095560">
        <ele>83.235</ele>
        <time>1970-01-11T02:00:10Z</time>
      </trkpt>
      <trkpt lat="42.306102" lon="-8.095414">
        <ele>84.284</ele>
        <time>1970-01-11T02:00:10Z</time>
      </trkpt>
      <trkpt lat="42.306098" lon="-8.095377">
        <ele>84.457</ele>
        <time>1970-01-11T02:00:10Z</time>
      </trkpt>
      <trkpt lat="42.306087" lon="-8.095273">
        <ele>85.200</ele>
        <time>1970-01-11T02:00:10Z</time>
      </trkpt>
      <trkpt lat="42.306086" lon="-8.095252">
        <ele>85.420</ele>
        <time>1970-01-11T02:00:10Z</time>
      </trkpt>
      <trkpt lat="42.306097" lon="-8.095172">
        <ele>86.608</ele>
        <time>1970-01-11T02:00:10Z</time>
      </trkpt>
      <trkpt lat="42.306122" lon="-8.095112">
        <ele>87.286</ele>
        <time>1970-01-11T02:00:10Z</time>
      </trkpt>
      <trkpt lat="42.306157" lon="-8.095048">
        <ele>87.873</ele>
        <time>1970-01-11T02:00:10Z</time>
      </trkpt>
      <trkpt lat="42.306224" lon="-8.094888">
        <ele>88.489</ele>
        <time>1970-01-11T02:00:10Z</time>
      </trkpt>
      <trkpt lat="42.306259" lon="-8.094783">
        <ele>89.017</ele>
        <time>1970-01-11T02:00:10Z</time>
      </trkpt>
      <trkpt lat="42.306301" lon="-8.094685">
        <ele>89.656</ele>
        <time>1970-01-11T02:00:10Z</time>
      </trkpt>
      <trkpt lat="42.306322" lon="-8.094618">
        <ele>90.061</ele>
        <time>1970-01-11T02:00:10Z</time>
      </trkpt>
      <trkpt lat="42.306378" lon="-8.094512">
        <ele>90.459</ele>
        <time>1970-01-11T02:00:10Z</time>
      </trkpt>
      <trkpt lat="42.306425" lon="-8.094471">
        <ele>91.038</ele>
        <time>1970-01-11T02:00:10Z</time>
      </trkpt>
      <trkpt lat="42.306500" lon="-8.094424">
        <ele>91.497</ele>
        <time>1970-01-11T02:00:10Z</time>
      </trkpt>
      <trkpt lat="42.306654" lon="-8.094257">
        <ele>91.023</ele>
        <time>1970-01-11T02:00:10Z</time>
      </trkpt>
      <trkpt lat="42.306838" lon="-8.094033">
        <ele>90.025</ele>
        <time>1970-01-11T02:00:10Z</time>
      </trkpt>
      <trkpt lat="42.306892" lon="-8.093993">
        <ele>89.808</ele>
        <time>1970-01-11T02:00:10Z</time>
      </trkpt>
      <trkpt lat="42.307049" lon="-8.093907">
        <ele>89.470</ele>
        <time>1970-01-11T02:00:10Z</time>
      </trkpt>
      <trkpt lat="42.307081" lon="-8.093867">
        <ele>89.257</ele>
        <time>1970-01-11T02:00:10Z</time>
      </trkpt>
      <trkpt lat="42.307098" lon="-8.093823">
        <ele>89.043</ele>
        <time>1970-01-11T02:00:10Z</time>
      </trkpt>
      <trkpt lat="42.307127" lon="-8.093717">
        <ele>88.821</ele>
        <time>1970-01-11T02:00:10Z</time>
      </trkpt>
      <trkpt lat="42.307180" lon="-8.093537">
        <ele>88.670</ele>
        <time>1970-01-11T02:00:10Z</time>
      </trkpt>
      <trkpt lat="42.307210" lon="-8.093413">
        <ele>88.485</ele>
        <time>1970-01-11T02:00:10Z</time>
      </trkpt>
      <trkpt lat="42.307272" lon="-8.093182">
        <ele>88.263</ele>
        <time>1970-01-11T02:00:10Z</time>
      </trkpt>
      <trkpt lat="42.307341" lon="-8.092847">
        <ele>88.032</ele>
        <time>1970-01-11T02:00:10Z</time>
      </trkpt>
      <trkpt lat="42.307359" lon="-8.092797">
        <ele>88.271</ele>
        <time>1970-01-11T02:00:10Z</time>
      </trkpt>
      <trkpt lat="42.307359" lon="-8.092797">
        <ele>88.241</ele>
        <time>1970-01-11T02:00:10Z</time>
      </trkpt>
      <trkpt lat="42.307359" lon="-8.092797">
        <ele>88.015</ele>
        <time>1970-01-11T02:00:10Z</time>
      </trkpt>
      <trkpt lat="42.307359" lon="-8.092797">
        <ele>87.808</ele>
        <time>1970-01-11T02:00:10Z</time>
      </trkpt>
      <trkpt lat="42.307359" lon="-8.092797">
        <ele>87.628</ele>
        <time>1970-01-11T02:00:10Z</time>
      </trkpt>
      <trkpt lat="42.307359" lon="-8.092797">
        <ele>87.695</ele>
        <time>1970-01-11T02:00:10Z</time>
      </trkpt>
      <trkpt lat="42.307359" lon="-8.092797">
        <ele>87.691</ele>
        <time>1970-01-11T02:00:10Z</time>
      </trkpt>
      <trkpt lat="42.307359" lon="-8.092797">
        <ele>87.659</ele>
        <time>1970-01-11T02:00:10Z</time>
      </trkpt>
      <trkpt lat="42.307359" lon="-8.092797">
        <ele>87.818</ele>
        <time>1970-01-11T02:00:10Z</time>
      </trkpt>
      <trkpt lat="42.307359" lon="-8.092797">
        <ele>87.873</ele>
        <time>1970-01-11T02:00:10Z</time>
      </trkpt>
      <trkpt lat="42.307359" lon="-8.092797">
        <ele>87.851</ele>
        <time>1970-01-11T02:00:10Z</time>
      </trkpt>
      <trkpt lat="42.307359" lon="-8.092797">
        <ele>87.850</ele>
        <time>1970-01-11T02:00:10Z</time>
      </trkpt>
      <trkpt lat="42.307358" lon="-8.092796">
        <ele>87.615</ele>
        <time>1970-01-11T02:00:10Z</time>
      </trkpt>
      <trkpt lat="42.307358" lon="-8.092796">
        <ele>87.665</ele>
        <time>1970-01-11T02:00:10Z</time>
      </trkpt>
      <trkpt lat="42.307358" lon="-8.092796">
        <ele>87.611</ele>
        <time>1970-01-11T02:00:10Z</time>
      </trkpt>
      <trkpt lat="42.307358" lon="-8.092796">
        <ele>87.608</ele>
        <time>1970-01-11T02:00:10Z</time>
      </trkpt>
      <trkpt lat="42.307358" lon="-8.092796">
        <ele>87.622</ele>
        <time>1970-01-11T02:00:10Z</time>
      </trkpt>
      <trkpt lat="42.307358" lon="-8.092796">
        <ele>87.649</ele>
        <time>1970-01-11T02:00:10Z</time>
      </trkpt>
      <trkpt lat="42.307358" lon="-8.092796">
        <ele>87.635</ele>
        <time>1970-01-11T02:00:10Z</time>
      </trkpt>
      <trkpt lat="42.307358" lon="-8.092796">
        <ele>87.643</ele>
        <time>1970-01-11T02:00:10Z</time>
      </trkpt>
      <trkpt lat="42.307359" lon="-8.092797">
        <ele>87.622</ele>
        <time>1970-01-11T02:00:10Z</time>
      </trkpt>
      <trkpt lat="42.307359" lon="-8.092797">
        <ele>87.697</ele>
        <time>1970-01-11T02:00:10Z</time>
      </trkpt>
      <trkpt lat="42.307359" lon="-8.092797">
        <ele>87.465</ele>
        <time>1970-01-11T02:00:10Z</time>
      </trkpt>
      <trkpt lat="42.307359" lon="-8.092797">
        <ele>87.454</ele>
        <time>1970-01-11T02:00:10Z</time>
      </trkpt>
      <trkpt lat="42.307359" lon="-8.092797">
        <ele>87.415</ele>
        <time>1970-01-11T02:00:10Z</time>
      </trkpt>
      <trkpt lat="42.307359" lon="-8.092797">
        <ele>87.465</ele>
        <time>1970-01-11T02:00:10Z</time>
      </trkpt>
      <trkpt lat="42.307359" lon="-8.092797">
        <ele>87.411</ele>
        <time>1970-01-11T02:00:10Z</time>
      </trkpt>
      <trkpt lat="42.307359" lon="-8.092797">
        <ele>87.408</ele>
        <time>1970-01-11T02:00:10Z</time>
      </trkpt>
      <trkpt lat="42.307358" lon="-8.092797">
        <ele>87.462</ele>
        <time>1970-01-11T02:00:10Z</time>
      </trkpt>
      <trkpt lat="42.307358" lon="-8.092797">
        <ele>87.469</ele>
        <time>1970-01-11T02:00:10Z</time>
      </trkpt>
      <trkpt lat="42.307358" lon="-8.092797">
        <ele>87.415</ele>
        <time>1970-01-11T02:00:10Z</time>
      </trkpt>
      <trkpt lat="42.307358" lon="-8.092797">
        <ele>87.413</ele>
        <time>1970-01-11T02:00:10Z</time>
      </trkpt>
      <trkpt lat="42.307358" lon="-8.092797">
        <ele>87.492</ele>
        <time>1970-01-11T02:00:10Z</time>
      </trkpt>
      <trkpt lat="42.307358" lon="-8.092797">
        <ele>87.437</ele>
        <time>1970-01-11T02:00:10Z</time>
      </trkpt>
      <trkpt lat="42.307358" lon="-8.092797">
        <ele>87.425</ele>
        <time>1970-01-11T02:00:10Z</time>
      </trkpt>
      <trkpt lat="42.307358" lon="-8.092797">
        <ele>87.244</ele>
        <time>1970-01-11T02:00:10Z</time>
      </trkpt>
      <trkpt lat="42.307358" lon="-8.092797">
        <ele>87.224</ele>
        <time>1970-01-11T02:00:10Z</time>
      </trkpt>
      <trkpt lat="42.307358" lon="-8.092797">
        <ele>87.204</ele>
        <time>1970-01-11T02:00:10Z</time>
      </trkpt>
      <trkpt lat="42.307363" lon="-8.092802">
        <ele>87.214</ele>
        <time>1970-01-11T02:00:10Z</time>
      </trkpt>
      <trkpt lat="42.307364" lon="-8.092801">
        <ele>87.208</ele>
        <time>1970-01-11T02:00:10Z</time>
      </trkpt>
      <trkpt lat="42.307364" lon="-8.092801">
        <ele>88.033</ele>
        <time>1970-01-11T02:00:10Z</time>
      </trkpt>
      <trkpt lat="42.307364" lon="-8.092801">
        <ele>88.060</ele>
        <time>1970-01-11T02:00:10Z</time>
      </trkpt>
      <trkpt lat="42.307364" lon="-8.092801">
        <ele>88.076</ele>
        <time>1970-01-11T02:00:10Z</time>
      </trkpt>
      <trkpt lat="42.307364" lon="-8.092801">
        <ele>88.094</ele>
        <time>1970-01-11T02:00:10Z</time>
      </trkpt>
      <trkpt lat="42.307364" lon="-8.092801">
        <ele>88.053</ele>
        <time>1970-01-11T02:00:10Z</time>
      </trkpt>
      <trkpt lat="42.307364" lon="-8.092801">
        <ele>88.028</ele>
        <time>1970-01-11T02:00:10Z</time>
      </trkpt>
      <trkpt lat="42.307364" lon="-8.092801">
        <ele>88.056</ele>
        <time>1970-01-11T02:00:10Z</time>
      </trkpt>
      <trkpt lat="42.307364" lon="-8.092801">
        <ele>88.085</ele>
        <time>1970-01-11T02:00:10Z</time>
      </trkpt>
      <trkpt lat="42.307364" lon="-8.092801">
        <ele>88.099</ele>
        <time>1970-01-11T02:00:10Z</time>
      </trkpt>
      <trkpt lat="42.307364" lon="-8.092801">
        <ele>88.007</ele>
        <time>1970-01-11T02:00:10Z</time>
      </trkpt>
      <trkpt lat="42.307367" lon="-8.092783">
        <ele>88.027</ele>
        <time>1970-01-11T02:00:10Z</time>
      </trkpt>
      <trkpt lat="42.307379" lon="-8.092734">
        <ele>88.008</ele>
        <time>1970-01-11T02:00:10Z</time>
      </trkpt>
      <trkpt lat="42.307422" lon="-8.092534">
        <ele>87.810</ele>
        <time>1970-01-11T02:00:10Z</time>
      </trkpt>
      <trkpt lat="42.307421" lon="-8.092406">
        <ele>87.897</ele>
        <time>1970-01-11T02:00:10Z</time>
      </trkpt>
      <trkpt lat="42.307408" lon="-8.092383">
        <ele>88.023</ele>
        <time>1970-01-11T02:00:10Z</time>
      </trkpt>
      <trkpt lat="42.307387" lon="-8.092348">
        <ele>88.271</ele>
        <time>1970-01-11T02:00:10Z</time>
      </trkpt>
      <trkpt lat="42.307387" lon="-8.092310">
        <ele>88.820</ele>
        <time>1970-01-11T02:00:10Z</time>
      </trkpt>
      <trkpt lat="42.307394" lon="-8.092294">
        <ele>89.235</ele>
        <time>1970-01-11T02:00:10Z</time>
      </trkpt>
      <trkpt lat="42.307410" lon="-8.092292">
        <ele>89.653</ele>
        <time>1970-01-11T02:00:10Z</time>
      </trkpt>
      <trkpt lat="42.307425" lon="-8.092292">
        <ele>90.072</ele>
        <time>1970-01-11T02:00:10Z</time>
      </trkpt>
      <trkpt lat="42.307460" lon="-8.092311">
        <ele>91.022</ele>
        <time>1970-01-11T02:00:10Z</time>
      </trkpt>
      <trkpt lat="42.307494" lon="-8.092318">
        <ele>91.862</ele>
        <time>1970-01-11T02:00:10Z</time>
      </trkpt>
      <trkpt lat="42.307508" lon="-8.092320">
        <ele>92.208</ele>
        <time>1970-01-11T02:00:10Z</time>
      </trkpt>
      <trkpt lat="42.307548" lon="-8.092336">
        <ele>93.008</ele>
        <time>1970-01-11T02:00:10Z</time>
      </trkpt>
      <trkpt lat="42.307570" lon="-8.092336">
        <ele>93.483</ele>
        <time>1970-01-11T02:00:10Z</time>
      </trkpt>
      <trkpt lat="42.307704" lon="-8.092334">
        <ele>93.840</ele>
        <time>1970-01-11T02:00:10Z</time>
      </trkpt>
      <trkpt lat="42.307944" lon="-8.092322">
        <ele>93.266</ele>
        <time>1970-01-11T02:00:10Z</time>
      </trkpt>
      <trkpt lat="42.308186" lon="-8.092324">
        <ele>93.644</ele>
        <time>1970-01-11T02:00:10Z</time>
      </trkpt>
      <trkpt lat="42.308372" lon="-8.092395">
        <ele>94.043</ele>
        <time>1970-01-11T02:00:10Z</time>
      </trkpt>
      <trkpt lat="42.308425" lon="-8.092436">
        <ele>94.468</ele>
        <time>1970-01-11T02:00:10Z</time>
      </trkpt>
      <trkpt lat="42.308513" lon="-8.092543">
        <ele>94.886</ele>
        <time>1970-01-11T02:00:10Z</time>
      </trkpt>
      <trkpt lat="42.308619" lon="-8.092717">
        <ele>95.265</ele>
        <time>1970-01-11T02:00:10Z</time>
      </trkpt>
      <trkpt lat="42.308710" lon="-8.092821">
        <ele>95.611</ele>
        <time>1970-01-11T02:00:10Z</time>
      </trkpt>
      <trkpt lat="42.308743" lon="-8.092825">
        <ele>95.621</ele>
        <time>1970-01-11T02:00:10Z</time>
      </trkpt>
      <trkpt lat="42.308888" lon="-8.092762">
        <ele>96.603</ele>
        <time>1970-01-11T02:00:10Z</time>
      </trkpt>
      <trkpt lat="42.308939" lon="-8.092704">
        <ele>97.008</ele>
        <time>1970-01-11T02:00:10Z</time>
      </trkpt>
      <trkpt lat="42.309011" lon="-8.092604">
        <ele>97.662</ele>
        <time>1970-01-11T02:00:10Z</time>
      </trkpt>
      <trkpt lat="42.309035" lon="-8.092574">
        <ele>97.829</ele>
        <time>1970-01-11T02:00:10Z</time>
      </trkpt>
      <trkpt lat="42.309158" lon="-8.092437">
        <ele>98.815</ele>
        <time>1970-01-11T02:00:10Z</time>
      </trkpt>
      <trkpt lat="42.309248" lon="-8.092370">
        <ele>100.033</ele>
        <time>1970-01-11T02:00:10Z</time>
      </trkpt>
      <trkpt lat="42.309318" lon="-8.092344">
        <ele>101.092</ele>
        <time>1970-01-11T02:00:10Z</time>
      </trkpt>
      <trkpt lat="42.309347" lon="-8.092341">
        <ele>101.417</ele>
        <time>1970-01-11T02:00:10Z</time>
      </trkpt>
      <trkpt lat="42.309405" lon="-8.092356">
        <ele>102.445</ele>
        <time>1970-01-11T02:00:11Z</time>
      </trkpt>
      <trkpt lat="42.309459" lon="-8.092382">
        <ele>103.234</ele>
        <time>1970-01-11T02:00:11Z</time>
      </trkpt>
      <trkpt lat="42.309479" lon="-8.092403">
        <ele>103.697</ele>
        <time>1970-01-11T02:00:11Z</time>
      </trkpt>
      <trkpt lat="42.309544" lon="-8.092455">
        <ele>104.623</ele>
        <time>1970-01-11T02:00:11Z</time>
      </trkpt>
      <trkpt lat="42.309568" lon="-8.092459">
        <ele>105.025</ele>
        <time>1970-01-11T02:00:11Z</time>
      </trkpt>
      <trkpt lat="42.309590" lon="-8.092446">
        <ele>105.208</ele>
        <time>1970-01-11T02:00:11Z</time>
      </trkpt>
      <trkpt lat="42.309613" lon="-8.092392">
        <ele>106.090</ele>
        <time>1970-01-11T02:00:11Z</time>
      </trkpt>
      <trkpt lat="42.309605" lon="-8.092324">
        <ele>106.837</ele>
        <time>1970-01-11T02:00:11Z</time>
      </trkpt>
      <trkpt lat="42.309604" lon="-8.092283">
        <ele>107.283</ele>
        <time>1970-01-11T02:00:11Z</time>
      </trkpt>
      <trkpt lat="42.309600" lon="-8.092239">
        <ele>107.471</ele>
        <time>1970-01-11T02:00:11Z</time>
      </trkpt>
      <trkpt lat="42.309581" lon="-8.091936">
        <ele>107.860</ele>
        <time>1970-01-11T02:00:11Z</time>
      </trkpt>
      <trkpt lat="42.309659" lon="-8.091687">
        <ele>107.245</ele>
        <time>1970-01-11T02:00:11Z</time>
      </trkpt>
      <trkpt lat="42.309680" lon="-8.091640">
        <ele>107.233</ele>
        <time>1970-01-11T02:00:11Z</time>
      </trkpt>
      <trkpt lat="42.309781" lon="-8.091477">
        <ele>107.072</ele>
        <time>1970-01-11T02:00:11Z</time>
      </trkpt>
      <trkpt lat="42.309834" lon="-8.091401">
        <ele>106.881</ele>
        <time>1970-01-11T02:00:11Z</time>
      </trkpt>
      <trkpt lat="42.310006" lon="-8.091162">
        <ele>107.461</ele>
        <time>1970-01-11T02:00:11Z</time>
      </trkpt>
      <trkpt lat="42.310137" lon="-8.090947">
        <ele>108.417</ele>
        <time>1970-01-11T02:00:11Z</time>
      </trkpt>
      <trkpt lat="42.310275" lon="-8.090645">
        <ele>109.608</ele>
        <time>1970-01-11T02:00:11Z</time>
      </trkpt>
      <trkpt lat="42.310332" lon="-8.090499">
        <ele>110.259</ele>
        <time>1970-01-11T02:00:11Z</time>
      </trkpt>
      <trkpt lat="42.310349" lon="-8.090391">
        <ele>110.436</ele>
        <time>1970-01-11T02:00:11Z</time>
      </trkpt>
      <trkpt lat="42.310346" lon="-8.090315">
        <ele>110.642</ele>
        <time>1970-01-11T02:00:11Z</time>
      </trkpt>
      <trkpt lat="42.310342" lon="-8.090237">
        <ele>110.620</ele>
        <time>1970-01-11T02:00:11Z</time>
      </trkpt>
      <trkpt lat="42.310326" lon="-8.090069">
        <ele>110.489</ele>
        <time>1970-01-11T02:00:11Z</time>
      </trkpt>
      <trkpt lat="42.310258" lon="-8.089702">
        <ele>109.254</ele>
        <time>1970-01-11T02:00:11Z</time>
      </trkpt>
      <trkpt lat="42.310239" lon="-8.089617">
        <ele>109.052</ele>
        <time>1970-01-11T02:00:11Z</time>
      </trkpt>
      <trkpt lat="42.310236" lon="-8.089529">
        <ele>108.621</ele>
        <time>1970-01-11T02:00:11Z</time>
      </trkpt>
      <trkpt lat="42.310242" lon="-8.089432">
        <ele>108.034</ele>
        <time>1970-01-11T02:00:11Z</time>
      </trkpt>
      <trkpt lat="42.310256" lon="-8.089331">
        <ele>107.655</ele>
        <time>1970-01-11T02:00:11Z</time>
      </trkpt>
      <trkpt lat="42.310304" lon="-8.089122">
        <ele>106.610</ele>
        <time>1970-01-11T02:00:11Z</time>
      </trkpt>
      <trkpt lat="42.310324" lon="-8.089011">
        <ele>105.408</ele>
        <time>1970-01-11T02:00:11Z</time>
      </trkpt>
      <trkpt lat="42.310346" lon="-8.088899">
        <ele>104.874</ele>
        <time>1970-01-11T02:00:11Z</time>
      </trkpt>
      <trkpt lat="42.310372" lon="-8.088780">
        <ele>104.061</ele>
        <time>1970-01-11T02:00:11Z</time>
      </trkpt>
      <trkpt lat="42.310390" lon="-8.088662">
        <ele>103.217</ele>
        <time>1970-01-11T02:00:11Z</time>
      </trkpt>
      <trkpt lat="42.310406" lon="-8.088545">
        <ele>102.495</ele>
        <time>1970-01-11T02:00:11Z</time>
      </trkpt>
      <trkpt lat="42.310433" lon="-8.088324">
        <ele>100.864</ele>
        <time>1970-01-11T02:00:11Z</time>
      </trkpt>
      <trkpt lat="42.310470" lon="-8.088231">
        <ele>100.089</ele>
        <time>1970-01-11T02:00:11Z</time>
      </trkpt>
      <trkpt lat="42.310528" lon="-8.088157">
        <ele>99.477</ele>
        <time>1970-01-11T02:00:11Z</time>
      </trkpt>
      <trkpt lat="42.310589" lon="-8.088084">
        <ele>98.626</ele>
        <time>1970-01-11T02:00:11Z</time>
      </trkpt>
      <trkpt lat="42.310654" lon="-8.088019">
        <ele>97.873</ele>
        <time>1970-01-11T02:00:11Z</time>
      </trkpt>
      <trkpt lat="42.310788" lon="-8.087883">
        <ele>96.485</ele>
        <time>1970-01-11T02:00:11Z</time>
      </trkpt>
      <trkpt lat="42.310841" lon="-8.087811">
        <ele>95.813</ele>
        <time>1970-01-11T02:00:11Z</time>
      </trkpt>
      <trkpt lat="42.310889" lon="-8.087742">
        <ele>95.208</ele>
        <time>1970-01-11T02:00:11Z</time>
      </trkpt>
      <trkpt lat="42.311018" lon="-8.087572">
        <ele>94.668</ele>
        <time>1970-01-11T02:00:11Z</time>
      </trkpt>
      <trkpt lat="42.311053" lon="-8.087517">
        <ele>94.435</ele>
        <time>1970-01-11T02:00:11Z</time>
      </trkpt>
      <trkpt lat="42.311076" lon="-8.087456">
        <ele>94.251</ele>
        <time>1970-01-11T02:00:11Z</time>
      </trkpt>
      <trkpt lat="42.311092" lon="-8.087333">
        <ele>94.059</ele>
        <time>1970-01-11T02:00:11Z</time>
      </trkpt>
      <trkpt lat="42.311067" lon="-8.087155">
        <ele>94.058</ele>
        <time>1970-01-11T02:00:11Z</time>
      </trkpt>
      <trkpt lat="42.311065" lon="-8.087144">
        <ele>94.063</ele>
        <time>1970-01-11T02:00:11Z</time>
      </trkpt>
      <trkpt lat="42.311062" lon="-8.087137">
        <ele>94.011</ele>
        <time>1970-01-11T02:00:11Z</time>
      </trkpt>
      <trkpt lat="42.311062" lon="-8.087137">
        <ele>94.240</ele>
        <time>1970-01-11T02:00:11Z</time>
      </trkpt>
      <trkpt lat="42.311056" lon="-8.087140">
        <ele>93.814</ele>
        <time>1970-01-11T02:00:11Z</time>
      </trkpt>
      <trkpt lat="42.311056" lon="-8.087140">
        <ele>93.654</ele>
        <time>1970-01-11T02:00:11Z</time>
      </trkpt>
      <trkpt lat="42.311056" lon="-8.087140">
        <ele>93.409</ele>
        <time>1970-01-11T02:00:11Z</time>
      </trkpt>
      <trkpt lat="42.311056" lon="-8.087140">
        <ele>93.408</ele>
        <time>1970-01-11T02:00:11Z</time>
      </trkpt>
      <trkpt lat="42.311056" lon="-8.087140">
        <ele>93.462</ele>
        <time>1970-01-11T02:00:11Z</time>
      </trkpt>
      <trkpt lat="42.311056" lon="-8.087140">
        <ele>93.489</ele>
        <time>1970-01-11T02:00:11Z</time>
      </trkpt>
      <trkpt lat="42.311056" lon="-8.087140">
        <ele>93.425</ele>
        <time>1970-01-11T02:00:11Z</time>
      </trkpt>
      <trkpt lat="42.311056" lon="-8.087140">
        <ele>93.423</ele>
        <time>1970-01-11T02:00:11Z</time>
      </trkpt>
      <trkpt lat="42.311056" lon="-8.087140">
        <ele>93.462</ele>
        <time>1970-01-11T02:00:11Z</time>
      </trkpt>
      <trkpt lat="42.311056" lon="-8.087140">
        <ele>93.457</ele>
        <time>1970-01-11T02:00:11Z</time>
      </trkpt>
      <trkpt lat="42.311051" lon="-8.087140">
        <ele>93.225</ele>
        <time>1970-01-11T02:00:11Z</time>
      </trkpt>
      <trkpt lat="42.311051" lon="-8.087140">
        <ele>93.234</ele>
        <time>1970-01-11T02:00:11Z</time>
      </trkpt>
      <trkpt lat="42.311051" lon="-8.087140">
        <ele>93.257</ele>
        <time>1970-01-11T02:00:11Z</time>
      </trkpt>
      <trkpt lat="42.311051" lon="-8.087140">
        <ele>93.200</ele>
        <time>1970-01-11T02:00:11Z</time>
      </trkpt>
      <trkpt lat="42.311051" lon="-8.087140">
        <ele>93.220</ele>
        <time>1970-01-11T02:00:11Z</time>
      </trkpt>
      <trkpt lat="42.311048" lon="-8.087132">
        <ele>93.608</ele>
        <time>1970-01-11T02:00:11Z</time>
      </trkpt>
      <trkpt lat="42.311040" lon="-8.087130">
        <ele>94.096</ele>
        <time>1970-01-11T02:00:11Z</time>
      </trkpt>
      <trkpt lat="42.311040" lon="-8.087130">
        <ele>94.213</ele>
        <time>1970-01-11T02:00:11Z</time>
      </trkpt>
      <trkpt lat="42.311040" lon="-8.087130">
        <ele>94.669</ele>
        <time>1970-01-11T02:00:11Z</time>
      </trkpt>
      <trkpt lat="42.311040" lon="-8.087130">
        <ele>94.647</ele>
        <time>1970-01-11T02:00:11Z</time>
      </trkpt>
      <trkpt lat="42.311040" lon="-8.087130">
        <ele>94.676</ele>
        <time>1970-01-11T02:00:11Z</time>
      </trkpt>
      <trkpt lat="42.311040" lon="-8.087130">
        <ele>94.271</ele>
        <time>1970-01-11T02:00:11Z</time>
      </trkpt>
      <trkpt lat="42.311040" lon="-8.087130">
        <ele>94.289</ele>
        <time>1970-01-11T02:00:11Z</time>
      </trkpt>
      <trkpt lat="42.311040" lon="-8.087130">
        <ele>94.278</ele>
        <time>1970-01-11T02:00:11Z</time>
      </trkpt>
      <trkpt lat="42.311040" lon="-8.087130">
        <ele>94.045</ele>
        <time>1970-01-11T02:00:11Z</time>
      </trkpt>
      <trkpt lat="42.311039" lon="-8.087132">
        <ele>94.047</ele>
        <time>1970-01-11T02:00:11Z</time>
      </trkpt>
      <trkpt lat="42.311039" lon="-8.087132">
        <ele>94.011</ele>
        <time>1970-01-11T02:00:11Z</time>
      </trkpt>
      <trkpt lat="42.311039" lon="-8.087132">
        <ele>93.808</ele>
        <time>1970-01-11T02:00:11Z</time>
      </trkpt>
      <trkpt lat="42.311039" lon="-8.087132">
        <ele>93.895</ele>
        <time>1970-01-11T02:00:11Z</time>
      </trkpt>
      <trkpt lat="42.311039" lon="-8.087132">
        <ele>93.892</ele>
        <time>1970-01-11T02:00:11Z</time>
      </trkpt>
      <trkpt lat="42.311039" lon="-8.087132">
        <ele>94.028</ele>
        <time>1970-01-11T02:00:11Z</time>
      </trkpt>
      <trkpt lat="42.311039" lon="-8.087132">
        <ele>93.876</ele>
        <time>1970-01-11T02:00:11Z</time>
      </trkpt>
      <trkpt lat="42.311039" lon="-8.087132">
        <ele>94.045</ele>
        <time>1970-01-11T02:00:11Z</time>
      </trkpt>
      <trkpt lat="42.311038" lon="-8.087130">
        <ele>94.090</ele>
        <time>1970-01-11T02:00:11Z</time>
      </trkpt>
      <trkpt lat="42.311038" lon="-8.087130">
        <ele>94.078</ele>
        <time>1970-01-11T02:00:11Z</time>
      </trkpt>
      <trkpt lat="42.311038" lon="-8.087130">
        <ele>94.097</ele>
        <time>1970-01-11T02:00:11Z</time>
      </trkpt>
      <trkpt lat="42.311038" lon="-8.087130">
        <ele>94.027</ele>
        <time>1970-01-11T02:00:11Z</time>
      </trkpt>
      <trkpt lat="42.311038" lon="-8.087130">
        <ele>94.068</ele>
        <time>1970-01-11T02:00:11Z</time>
      </trkpt>
      <trkpt lat="42.311038" lon="-8.087130">
        <ele>93.614</ele>
        <time>1970-01-11T02:00:11Z</time>
      </trkpt>
      <trkpt lat="42.311038" lon="-8.087130">
        <ele>93.408</ele>
        <time>1970-01-11T02:00:11Z</time>
      </trkpt>
      <trkpt lat="42.311038" lon="-8.087130">
        <ele>94.033</ele>
        <time>1970-01-11T02:00:11Z</time>
      </trkpt>
      <trkpt lat="42.311038" lon="-8.087130">
        <ele>94.470</ele>
        <time>1970-01-11T02:00:11Z</time>
      </trkpt>
      <trkpt lat="42.311038" lon="-8.087130">
        <ele>94.296</ele>
        <time>1970-01-11T02:00:11Z</time>
      </trkpt>
      <trkpt lat="42.311038" lon="-8.087130">
        <ele>94.064</ele>
        <time>1970-01-11T02:00:11Z</time>
      </trkpt>
      <trkpt lat="42.311038" lon="-8.087130">
        <ele>94.073</ele>
        <time>1970-01-11T02:00:11Z</time>
      </trkpt>
      <trkpt lat="42.311038" lon="-8.087130">
        <ele>93.858</ele>
        <time>1970-01-11T02:00:11Z</time>
      </trkpt>
      <trkpt lat="42.311038" lon="-8.087130">
        <ele>93.886</ele>
        <time>1970-01-11T02:00:11Z</time>
      </trkpt>
      <trkpt lat="42.311038" lon="-8.087130">
        <ele>93.895</ele>
        <time>1970-01-11T02:00:11Z</time>
      </trkpt>
      <trkpt lat="42.311037" lon="-8.087129">
        <ele>93.682</ele>
        <time>1970-01-11T02:00:11Z</time>
      </trkpt>
      <trkpt lat="42.311037" lon="-8.087129">
        <ele>93.643</ele>
        <time>1970-01-11T02:00:11Z</time>
      </trkpt>
      <trkpt lat="42.311038" lon="-8.087126">
        <ele>93.617</ele>
        <time>1970-01-11T02:00:11Z</time>
      </trkpt>
      <trkpt lat="42.311038" lon="-8.087126">
        <ele>93.608</ele>
        <time>1970-01-11T02:00:11Z</time>
      </trkpt>
      <trkpt lat="42.311038" lon="-8.087126">
        <ele>93.499</ele>
        <time>1970-01-11T02:00:11Z</time>
      </trkpt>
      <trkpt lat="42.311038" lon="-8.087126">
        <ele>93.496</ele>
        <time>1970-01-11T02:00:11Z</time>
      </trkpt>
      <trkpt lat="42.311038" lon="-8.087126">
        <ele>93.422</ele>
        <time>1970-01-11T02:00:11Z</time>
      </trkpt>
      <trkpt lat="42.311038" lon="-8.087126">
        <ele>93.440</ele>
        <time>1970-01-11T02:00:11Z</time>
      </trkpt>
      <trkpt lat="42.311038" lon="-8.087126">
        <ele>93.429</ele>
        <time>1970-01-11T02:00:11Z</time>
      </trkpt>
      <trkpt lat="42.311038" lon="-8.087126">
        <ele>93.464</ele>
        <time>1970-01-11T02:00:11Z</time>
      </trkpt>
      <trkpt lat="42.311038" lon="-8.087126">
        <ele>93.422</ele>
        <time>1970-01-11T02:00:11Z</time>
      </trkpt>
      <trkpt lat="42.311038" lon="-8.087126">
        <ele>93.461</ele>
        <time>1970-01-11T02:00:11Z</time>
      </trkpt>
      <trkpt lat="42.311036" lon="-8.087125">
        <ele>93.482</ele>
        <time>1970-01-11T02:00:11Z</time>
      </trkpt>
      <trkpt lat="42.311036" lon="-8.087125">
        <ele>93.443</ele>
        <time>1970-01-11T02:00:11Z</time>
      </trkpt>
      <trkpt lat="42.311036" lon="-8.087125">
        <ele>93.217</ele>
        <time>1970-01-11T02:00:11Z</time>
      </trkpt>
      <trkpt lat="42.311036" lon="-8.087125">
        <ele>93.208</ele>
        <time>1970-01-11T02:00:11Z</time>
      </trkpt>
      <trkpt lat="42.311032" lon="-8.087124">
        <ele>93.229</ele>
        <time>1970-01-11T02:00:11Z</time>
      </trkpt>
      <trkpt lat="42.311028" lon="-8.087116">
        <ele>93.226</ele>
        <time>1970-01-11T02:00:11Z</time>
      </trkpt>
      <trkpt lat="42.311028" lon="-8.087116">
        <ele>93.222</ele>
        <time>1970-01-11T02:00:11Z</time>
      </trkpt>
      <trkpt lat="42.311028" lon="-8.087116">
        <ele>93.280</ele>
        <time>1970-01-11T02:00:11Z</time>
      </trkpt>
      <trkpt lat="42.311028" lon="-8.087116">
        <ele>93.229</ele>
        <time>1970-01-11T02:00:11Z</time>
      </trkpt>
      <trkpt lat="42.311028" lon="-8.087116">
        <ele>93.224</ele>
        <time>1970-01-11T02:00:11Z</time>
      </trkpt>
      <trkpt lat="42.311028" lon="-8.087116">
        <ele>93.292</ele>
        <time>1970-01-11T02:00:11Z</time>
      </trkpt>
      <trkpt lat="42.311028" lon="-8.087116">
        <ele>93.281</ele>
        <time>1970-01-11T02:00:11Z</time>
      </trkpt>
      <trkpt lat="42.311028" lon="-8.087116">
        <ele>93.443</ele>
        <time>1970-01-11T02:00:11Z</time>
      </trkpt>
      <trkpt lat="42.311028" lon="-8.087116">
        <ele>93.464</ele>
        <time>1970-01-11T02:00:11Z</time>
      </trkpt>
      <trkpt lat="42.311028" lon="-8.087116">
        <ele>93.410</ele>
        <time>1970-01-11T02:00:11Z</time>
      </trkpt>
      <trkpt lat="42.311028" lon="-8.087116">
        <ele>93.408</ele>
        <time>1970-01-11T02:00:11Z</time>
      </trkpt>
      <trkpt lat="42.311028" lon="-8.087116">
        <ele>93.445</ele>
        <time>1970-01-11T02:00:11Z</time>
      </trkpt>
      <trkpt lat="42.311028" lon="-8.087116">
        <ele>93.422</ele>
        <time>1970-01-11T02:00:11Z</time>
      </trkpt>
      <trkpt lat="42.311028" lon="-8.087116">
        <ele>93.668</ele>
        <time>1970-01-11T02:00:11Z</time>
      </trkpt>
      <trkpt lat="42.311028" lon="-8.087115">
        <ele>93.686</ele>
        <time>1970-01-11T02:00:11Z</time>
      </trkpt>
      <trkpt lat="42.311028" lon="-8.087115">
        <ele>93.685</ele>
        <time>1970-01-11T02:00:11Z</time>
      </trkpt>
      <trkpt lat="42.311028" lon="-8.087115">
        <ele>93.680</ele>
        <time>1970-01-11T02:00:11Z</time>
      </trkpt>
      <trkpt lat="42.311028" lon="-8.087115">
        <ele>93.688</ele>
        <time>1970-01-11T02:00:11Z</time>
      </trkpt>
      <trkpt lat="42.311028" lon="-8.087115">
        <ele>93.627</ele>
        <time>1970-01-11T02:00:11Z</time>
      </trkpt>
      <trkpt lat="42.311028" lon="-8.087115">
        <ele>93.624</ele>
        <time>1970-01-11T02:00:11Z</time>
      </trkpt>
      <trkpt lat="42.311028" lon="-8.087115">
        <ele>93.404</ele>
        <time>1970-01-11T02:00:11Z</time>
      </trkpt>
      <trkpt lat="42.311028" lon="-8.087115">
        <ele>93.414</ele>
        <time>1970-01-11T02:00:11Z</time>
      </trkpt>
      <trkpt lat="42.311028" lon="-8.087115">
        <ele>93.408</ele>
        <time>1970-01-11T02:00:11Z</time>
      </trkpt>
      <trkpt lat="42.311028" lon="-8.087115">
        <ele>93.443</ele>
        <time>1970-01-11T02:00:11Z</time>
      </trkpt>
      <trkpt lat="42.311028" lon="-8.087115">
        <ele>93.290</ele>
        <time>1970-01-11T02:00:11Z</time>
      </trkpt>
      <trkpt lat="42.311028" lon="-8.087115">
        <ele>93.266</ele>
        <time>1970-01-11T02:00:11Z</time>
      </trkpt>
      <trkpt lat="42.311028" lon="-8.087115">
        <ele>93.254</ele>
        <time>1970-01-11T02:00:11Z</time>
      </trkpt>
      <trkpt lat="42.311028" lon="-8.087115">
        <ele>93.243</ele>
        <time>1970-01-11T02:00:11Z</time>
      </trkpt>
      <trkpt lat="42.311028" lon="-8.087115">
        <ele>93.238</ele>
        <time>1970-01-11T02:00:11Z</time>
      </trkpt>
      <trkpt lat="42.311028" lon="-8.087115">
        <ele>93.286</ele>
        <time>1970-01-11T02:00:11Z</time>
      </trkpt>
      <trkpt lat="42.311028" lon="-8.087115">
        <ele>93.265</ele>
        <time>1970-01-11T02:00:11Z</time>
      </trkpt>
      <trkpt lat="42.311028" lon="-8.087115">
        <ele>93.276</ele>
        <time>1970-01-11T02:00:11Z</time>
      </trkpt>
      <trkpt lat="42.311027" lon="-8.087114">
        <ele>93.290</ele>
        <time>1970-01-11T02:00:11Z</time>
      </trkpt>
      <trkpt lat="42.311027" lon="-8.087114">
        <ele>93.219</ele>
        <time>1970-01-11T02:00:11Z</time>
      </trkpt>
      <trkpt lat="42.311027" lon="-8.087114">
        <ele>93.208</ele>
        <time>1970-01-11T02:00:11Z</time>
      </trkpt>
      <trkpt lat="42.311027" lon="-8.087114">
        <ele>93.278</ele>
        <time>1970-01-11T02:00:11Z</time>
      </trkpt>
      <trkpt lat="42.311027" lon="-8.087114">
        <ele>93.215</ele>
        <time>1970-01-11T02:00:11Z</time>
      </trkpt>
      <trkpt lat="42.311027" lon="-8.087114">
        <ele>93.071</ele>
        <time>1970-01-11T02:00:11Z</time>
      </trkpt>
      <trkpt lat="42.311027" lon="-8.087114">
        <ele>93.049</ele>
        <time>1970-01-11T02:00:11Z</time>
      </trkpt>
      <trkpt lat="42.311027" lon="-8.087114">
        <ele>93.038</ele>
        <time>1970-01-11T02:00:11Z</time>
      </trkpt>
      <trkpt lat="42.311027" lon="-8.087114">
        <ele>93.073</ele>
        <time>1970-01-11T02:00:11Z</time>
      </trkpt>
      <trkpt lat="42.311027" lon="-8.087114">
        <ele>93.091</ele>
        <time>1970-01-11T02:00:11Z</time>
      </trkpt>
      <trkpt lat="42.311027" lon="-8.087114">
        <ele>93.030</ele>
        <time>1970-01-11T02:00:11Z</time>
      </trkpt>
      <trkpt lat="42.311027" lon="-8.087114">
        <ele>93.027</ele>
        <time>1970-01-11T02:00:11Z</time>
      </trkpt>
      <trkpt lat="42.311027" lon="-8.087114">
        <ele>93.068</ele>
        <time>1970-01-11T02:00:11Z</time>
      </trkpt>
      <trkpt lat="42.311027" lon="-8.087114">
        <ele>92.814</ele>
        <time>1970-01-11T02:00:11Z</time>
      </trkpt>
      <trkpt lat="42.311027" lon="-8.087114">
        <ele>92.808</ele>
        <time>1970-01-11T02:00:11Z</time>
      </trkpt>
      <trkpt lat="42.311025" lon="-8.087113">
        <ele>92.893</ele>
        <time>1970-01-11T02:00:11Z</time>
      </trkpt>
      <trkpt lat="42.311025" lon="-8.087113">
        <ele>92.890</ele>
        <time>1970-01-11T02:00:11Z</time>
      </trkpt>
      <trkpt lat="42.311025" lon="-8.087113">
        <ele>92.816</ele>
        <time>1970-01-11T02:00:11Z</time>
      </trkpt>
      <trkpt lat="42.311025" lon="-8.087113">
        <ele>92.834</ele>
        <time>1970-01-11T02:00:11Z</time>
      </trkpt>
      <trkpt lat="42.311025" lon="-8.087113">
        <ele>92.873</ele>
        <time>1970-01-11T02:00:11Z</time>
      </trkpt>
      <trkpt lat="42.311025" lon="-8.087113">
        <ele>92.828</ele>
        <time>1970-01-11T02:00:11Z</time>
      </trkpt>
      <trkpt lat="42.311025" lon="-8.087113">
        <ele>92.846</ele>
        <time>1970-01-11T02:00:11Z</time>
      </trkpt>
      <trkpt lat="42.311025" lon="-8.087113">
        <ele>92.895</ele>
        <time>1970-01-11T02:00:11Z</time>
      </trkpt>
      <trkpt lat="42.311025" lon="-8.087113">
        <ele>92.872</ele>
        <time>1970-01-11T02:00:11Z</time>
      </trkpt>
      <trkpt lat="42.311025" lon="-8.087113">
        <ele>92.813</ele>
        <time>1970-01-11T02:00:11Z</time>
      </trkpt>
      <trkpt lat="42.311025" lon="-8.087113">
        <ele>92.814</ele>
        <time>1970-01-11T02:00:11Z</time>
      </trkpt>
      <trkpt lat="42.311025" lon="-8.087113">
        <ele>92.808</ele>
        <time>1970-01-11T02:00:11Z</time>
      </trkpt>
      <trkpt lat="42.311025" lon="-8.087113">
        <ele>92.828</ele>
        <time>1970-01-11T02:00:11Z</time>
      </trkpt>
      <trkpt lat="42.311025" lon="-8.087113">
        <ele>92.815</ele>
        <time>1970-01-11T02:00:11Z</time>
      </trkpt>
      <trkpt lat="42.311025" lon="-8.087113">
        <ele>92.821</ele>
        <time>1970-01-11T02:00:11Z</time>
      </trkpt>
      <trkpt lat="42.311025" lon="-8.087113">
        <ele>92.849</ele>
        <time>1970-01-11T02:00:11Z</time>
      </trkpt>
      <trkpt lat="42.311025" lon="-8.087114">
        <ele>92.678</ele>
        <time>1970-01-11T02:00:11Z</time>
      </trkpt>
      <trkpt lat="42.311025" lon="-8.087114">
        <ele>92.663</ele>
        <time>1970-01-11T02:00:11Z</time>
      </trkpt>
      <trkpt lat="42.311025" lon="-8.087114">
        <ele>92.691</ele>
        <time>1970-01-11T02:00:11Z</time>
      </trkpt>
      <trkpt lat="42.311025" lon="-8.087114">
        <ele>92.650</ele>
        <time>1970-01-11T02:00:11Z</time>
      </trkpt>
      <trkpt lat="42.311025" lon="-8.087114">
        <ele>92.887</ele>
        <time>1970-01-11T02:00:11Z</time>
      </trkpt>
      <trkpt lat="42.311025" lon="-8.087114">
        <ele>92.842</ele>
        <time>1970-01-11T02:00:11Z</time>
      </trkpt>
      <trkpt lat="42.311025" lon="-8.087114">
        <ele>92.626</ele>
        <time>1970-01-11T02:00:11Z</time>
      </trkpt>
      <trkpt lat="42.311025" lon="-8.087114">
        <ele>92.608</ele>
        <time>1970-01-11T02:00:11Z</time>
      </trkpt>
      <trkpt lat="42.311025" lon="-8.087114">
        <ele>92.629</ele>
        <time>1970-01-11T02:00:11Z</time>
      </trkpt>
      <trkpt lat="42.311025" lon="-8.087114">
        <ele>92.676</ele>
        <time>1970-01-11T02:00:11Z</time>
      </trkpt>
      <trkpt lat="42.311025" lon="-8.087114">
        <ele>92.682</ele>
        <time>1970-01-11T02:00:11Z</time>
      </trkpt>
      <trkpt lat="42.311025" lon="-8.087114">
        <ele>92.660</ele>
        <time>1970-01-11T02:00:11Z</time>
      </trkpt>
      <trkpt lat="42.311025" lon="-8.087114">
        <ele>92.659</ele>
        <time>1970-01-11T02:00:11Z</time>
      </trkpt>
      <trkpt lat="42.311025" lon="-8.087114">
        <ele>92.694</ele>
        <time>1970-01-11T02:00:11Z</time>
      </trkpt>
      <trkpt lat="42.311025" lon="-8.087114">
        <ele>92.642</ele>
        <time>1970-01-11T02:00:11Z</time>
      </trkpt>
      <trkpt lat="42.311025" lon="-8.087114">
        <ele>92.641</ele>
        <time>1970-01-11T02:00:11Z</time>
      </trkpt>
      <trkpt lat="42.311024" lon="-8.087113">
        <ele>92.483</ele>
        <time>1970-01-11T02:00:11Z</time>
      </trkpt>
      <trkpt lat="42.311025" lon="-8.087110">
        <ele>92.425</ele>
        <time>1970-01-11T02:00:11Z</time>
      </trkpt>
      <trkpt lat="42.311025" lon="-8.087110">
        <ele>92.417</ele>
        <time>1970-01-11T02:00:11Z</time>
      </trkpt>
      <trkpt lat="42.311025" lon="-8.087110">
        <ele>92.408</ele>
        <time>1970-01-11T02:00:11Z</time>
      </trkpt>
      <trkpt lat="42.311025" lon="-8.087110">
        <ele>92.419</ele>
        <time>1970-01-11T02:00:11Z</time>
      </trkpt>
      <trkpt lat="42.311025" lon="-8.087110">
        <ele>92.436</ele>
        <time>1970-01-11T02:00:11Z</time>
      </trkpt>
      <trkpt lat="42.311025" lon="-8.087110">
        <ele>92.422</ele>
        <time>1970-01-11T02:00:11Z</time>
      </trkpt>
      <trkpt lat="42.311025" lon="-8.087110">
        <ele>92.490</ele>
        <time>1970-01-11T02:00:11Z</time>
      </trkpt>
      <trkpt lat="42.311025" lon="-8.087110">
        <ele>92.419</ele>
        <time>1970-01-11T02:00:11Z</time>
      </trkpt>
      <trkpt lat="42.311025" lon="-8.087110">
        <ele>92.464</ele>
        <time>1970-01-11T02:00:11Z</time>
      </trkpt>
      <trkpt lat="42.311025" lon="-8.087110">
        <ele>92.482</ele>
        <time>1970-01-11T02:00:11Z</time>
      </trkpt>
      <trkpt lat="42.311025" lon="-8.087110">
        <ele>92.441</ele>
        <time>1970-01-11T02:00:11Z</time>
      </trkpt>
      <trkpt lat="42.311025" lon="-8.087110">
        <ele>92.482</ele>
        <time>1970-01-11T02:00:11Z</time>
      </trkpt>
      <trkpt lat="42.311025" lon="-8.087110">
        <ele>92.443</ele>
        <time>1970-01-11T02:00:11Z</time>
      </trkpt>
      <trkpt lat="42.311025" lon="-8.087110">
        <ele>92.417</ele>
        <time>1970-01-11T02:00:11Z</time>
      </trkpt>
      <trkpt lat="42.311018" lon="-8.087073">
        <ele>92.408</ele>
        <time>1970-01-11T02:00:11Z</time>
      </trkpt>
      <trkpt lat="42.311013" lon="-8.087060">
        <ele>92.499</ele>
        <time>1970-01-11T02:00:11Z</time>
      </trkpt>
      <trkpt lat="42.311015" lon="-8.087026">
        <ele>92.436</ele>
        <time>1970-01-11T02:00:11Z</time>
      </trkpt>
      <trkpt lat="42.311010" lon="-8.087009">
        <ele>92.672</ele>
        <time>1970-01-11T02:00:11Z</time>
      </trkpt>
      <trkpt lat="42.311003" lon="-8.086973">
        <ele>92.840</ele>
        <time>1970-01-11T02:00:11Z</time>
      </trkpt>
      <trkpt lat="42.310988" lon="-8.086929">
        <ele>93.039</ele>
        <time>1970-01-11T02:00:11Z</time>
      </trkpt>
      <trkpt lat="42.310976" lon="-8.086907">
        <ele>93.264</ele>
        <time>1970-01-11T02:00:11Z</time>
      </trkpt>
      <trkpt lat="42.310959" lon="-8.086878">
        <ele>93.482</ele>
        <time>1970-01-11T02:00:11Z</time>
      </trkpt>
      <trkpt lat="42.310948" lon="-8.086852">
        <ele>93.831</ele>
        <time>1970-01-11T02:00:11Z</time>
      </trkpt>
      <trkpt lat="42.310939" lon="-8.086842">
        <ele>94.063</ele>
        <time>1970-01-11T02:00:11Z</time>
      </trkpt>
      <trkpt lat="42.310929" lon="-8.086829">
        <ele>94.244</ele>
        <time>1970-01-11T02:00:11Z</time>
      </trkpt>
      <trkpt lat="42.310915" lon="-8.086795">
        <ele>94.418</ele>
        <time>1970-01-11T02:00:11Z</time>
      </trkpt>
      <trkpt lat="42.310918" lon="-8.086749">
        <ele>94.408</ele>
        <time>1970-01-11T02:00:11Z</time>
      </trkpt>
      <trkpt lat="42.310950" lon="-8.086739">
        <ele>94.487</ele>
        <time>1970-01-11T02:00:11Z</time>
      </trkpt>
      <trkpt lat="42.310981" lon="-8.086755">
        <ele>94.814</ele>
        <time>1970-01-11T02:00:11Z</time>
      </trkpt>
      <trkpt lat="42.311012" lon="-8.086758">
        <ele>95.280</ele>
        <time>1970-01-11T02:00:11Z</time>
      </trkpt>
      <trkpt lat="42.311032" lon="-8.086749">
        <ele>95.438</ele>
        <time>1970-01-11T02:00:11Z</time>
      </trkpt>
      <trkpt lat="42.311066" lon="-8.086751">
        <ele>95.857</ele>
        <time>1970-01-11T02:00:11Z</time>
      </trkpt>
      <trkpt lat="42.311087" lon="-8.086751">
        <ele>95.822</ele>
        <time>1970-01-11T02:00:11Z</time>
      </trkpt>
      <trkpt lat="42.311207" lon="-8.086711">
        <ele>96.680</ele>
        <time>1970-01-11T02:00:11Z</time>
      </trkpt>
      <trkpt lat="42.311238" lon="-8.086707">
        <ele>96.619</ele>
        <time>1970-01-11T02:00:11Z</time>
      </trkpt>
      <trkpt lat="42.311328" lon="-8.086681">
        <ele>97.267</ele>
        <time>1970-01-11T02:00:11Z</time>
      </trkpt>
      <trkpt lat="42.311386" lon="-8.086602">
        <ele>97.881</ele>
        <time>1970-01-11T02:00:11Z</time>
      </trkpt>
      <trkpt lat="42.311475" lon="-8.086417">
        <ele>98.819</ele>
        <time>1970-01-11T02:00:11Z</time>
      </trkpt>
      <trkpt lat="42.311641" lon="-8.086087">
        <ele>99.808</ele>
        <time>1970-01-11T02:00:11Z</time>
      </trkpt>
      <trkpt lat="42.311805" lon="-8.085744">
        <ele>100.047</ele>
        <time>1970-01-11T02:00:11Z</time>
      </trkpt>
      <trkpt lat="42.311915" lon="-8.085418">
        <ele>101.084</ele>
        <time>1970-01-11T02:00:11Z</time>
      </trkpt>
      <trkpt lat="42.311958" lon="-8.085264">
        <ele>101.420</ele>
        <time>1970-01-11T02:00:11Z</time>
      </trkpt>
      <trkpt lat="42.312076" lon="-8.084872">
        <ele>101.678</ele>
        <time>1970-01-11T02:00:11Z</time>
      </trkpt>
      <trkpt lat="42.312110" lon="-8.084644">
        <ele>101.287</ele>
        <time>1970-01-11T02:00:11Z</time>
      </trkpt>
      <trkpt lat="42.312138" lon="-8.084406">
        <ele>100.872</ele>
        <time>1970-01-11T02:00:11Z</time>
      </trkpt>
      <trkpt lat="42.312196" lon="-8.084175">
        <ele>100.670</ele>
        <time>1970-01-11T02:00:11Z</time>
      </trkpt>
      <trkpt lat="42.312267" lon="-8.084039">
        <ele>100.639</ele>
        <time>1970-01-11T02:00:11Z</time>
      </trkpt>
      <trkpt lat="42.312345" lon="-8.083917">
        <ele>100.664</ele>
        <time>1970-01-11T02:00:11Z</time>
      </trkpt>
      <trkpt lat="42.312482" lon="-8.083646">
        <ele>101.206</ele>
        <time>1970-01-11T02:00:11Z</time>
      </trkpt>
      <trkpt lat="42.312506" lon="-8.083577">
        <ele>101.416</ele>
        <time>1970-01-11T02:00:11Z</time>
      </trkpt>
      <trkpt lat="42.312569" lon="-8.083387">
        <ele>102.408</ele>
        <time>1970-01-11T02:00:11Z</time>
      </trkpt>
      <trkpt lat="42.312636" lon="-8.083206">
        <ele>103.267</ele>
        <time>1970-01-11T02:00:11Z</time>
      </trkpt>
      <trkpt lat="42.312665" lon="-8.083152">
        <ele>103.414</ele>
        <time>1970-01-11T02:00:11Z</time>
      </trkpt>
      <trkpt lat="42.312805" lon="-8.082953">
        <ele>104.080</ele>
        <time>1970-01-11T02:00:11Z</time>
      </trkpt>
      <trkpt lat="42.312896" lon="-8.082790">
        <ele>104.248</ele>
        <time>1970-01-11T02:00:11Z</time>
      </trkpt>
      <trkpt lat="42.312916" lon="-8.082657">
        <ele>104.497</ele>
        <time>1970-01-11T02:00:11Z</time>
      </trkpt>
      <trkpt lat="42.312921" lon="-8.082588">
        <ele>104.682</ele>
        <time>1970-01-11T02:00:11Z</time>
      </trkpt>
      <trkpt lat="42.312929" lon="-8.082519">
        <ele>105.050</ele>
        <time>1970-01-11T02:00:11Z</time>
      </trkpt>
      <trkpt lat="42.312973" lon="-8.082235">
        <ele>105.489</ele>
        <time>1970-01-11T02:00:11Z</time>
      </trkpt>
      <trkpt lat="42.313107" lon="-8.081978">
        <ele>105.629</ele>
        <time>1970-01-11T02:00:11Z</time>
      </trkpt>
      <trkpt lat="42.313143" lon="-8.081913">
        <ele>105.800</ele>
        <time>1970-01-11T02:00:11Z</time>
      </trkpt>
      <trkpt lat="42.313218" lon="-8.081695">
        <ele>105.820</ele>
        <time>1970-01-11T02:00:11Z</time>
      </trkpt>
      <trkpt lat="42.313229" lon="-8.081614">
        <ele>105.808</ele>
        <time>1970-01-11T02:00:11Z</time>
      </trkpt>
      <trkpt lat="42.313210" lon="-8.081357">
        <ele>105.893</ele>
        <time>1970-01-11T02:00:11Z</time>
      </trkpt>
      <trkpt lat="42.313213" lon="-8.081273">
        <ele>105.880</ele>
        <time>1970-01-11T02:00:11Z</time>
      </trkpt>
      <trkpt lat="42.313261" lon="-8.080650">
        <ele>105.476</ele>
        <time>1970-01-11T02:00:11Z</time>
      </trkpt>
      <trkpt lat="42.313268" lon="-8.080028">
        <ele>105.044</ele>
        <time>1970-01-11T02:00:11Z</time>
      </trkpt>
      <trkpt lat="42.313276" lon="-8.079902">
        <ele>104.863</ele>
        <time>1970-01-11T02:00:11Z</time>
      </trkpt>
      <trkpt lat="42.313282" lon="-8.079770">
        <ele>104.428</ele>
        <time>1970-01-11T02:00:11Z</time>
      </trkpt>
      <trkpt lat="42.313304" lon="-8.079493">
        <ele>103.266</ele>
        <time>1970-01-11T02:00:11Z</time>
      </trkpt>
      <trkpt lat="42.313329" lon="-8.079228">
        <ele>101.615</ele>
        <time>1970-01-11T02:00:11Z</time>
      </trkpt>
      <trkpt lat="42.313373" lon="-8.078996">
        <ele>100.451</ele>
        <time>1970-01-11T02:00:11Z</time>
      </trkpt>
      <trkpt lat="42.313420" lon="-8.078812">
        <ele>100.001</ele>
        <time>1970-01-11T02:00:11Z</time>
      </trkpt>
      <trkpt lat="42.313484" lon="-8.078633">
        <ele>100.411</ele>
        <time>1970-01-11T02:00:11Z</time>
      </trkpt>
      <trkpt lat="42.313506" lon="-8.078584">
        <ele>100.808</ele>
        <time>1970-01-11T02:00:11Z</time>
      </trkpt>
      <trkpt lat="42.313529" lon="-8.078543">
        <ele>101.616</ele>
        <time>1970-01-11T02:00:11Z</time>
      </trkpt>
      <trkpt lat="42.313571" lon="-8.078482">
        <ele>102.823</ele>
        <time>1970-01-11T02:00:11Z</time>
      </trkpt>
      <trkpt lat="42.313595" lon="-8.078454">
        <ele>104.299</ele>
        <time>1970-01-11T02:00:11Z</time>
      </trkpt>
      <trkpt lat="42.313630" lon="-8.078389">
        <ele>105.247</ele>
        <time>1970-01-11T02:00:11Z</time>
      </trkpt>
      <trkpt lat="42.313650" lon="-8.078355">
        <ele>105.496</ele>
        <time>1970-01-11T02:00:11Z</time>
      </trkpt>
      <trkpt lat="42.313780" lon="-8.078161">
        <ele>106.621</ele>
        <time>1970-01-11T02:00:11Z</time>
      </trkpt>
      <trkpt lat="42.313808" lon="-8.078120">
        <ele>106.889</ele>
        <time>1970-01-11T02:00:11Z</time>
      </trkpt>
      <trkpt lat="42.313834" lon="-8.078069">
        <ele>107.058</ele>
        <time>1970-01-11T02:00:11Z</time>
      </trkpt>
      <trkpt lat="42.313965" lon="-8.077889">
        <ele>107.615</ele>
        <time>1970-01-11T02:00:11Z</time>
      </trkpt>
      <trkpt lat="42.314005" lon="-8.077848">
        <ele>107.865</ele>
        <time>1970-01-11T02:00:11Z</time>
      </trkpt>
      <trkpt lat="42.314175" lon="-8.077673">
        <ele>108.811</ele>
        <time>1970-01-11T02:00:11Z</time>
      </trkpt>
      <trkpt lat="42.314196" lon="-8.077639">
        <ele>109.008</ele>
        <time>1970-01-11T02:00:11Z</time>
      </trkpt>
      <trkpt lat="42.314252" lon="-8.077520">
        <ele>109.862</ele>
        <time>1970-01-11T02:00:11Z</time>
      </trkpt>
      <trkpt lat="42.314303" lon="-8.077429">
        <ele>110.619</ele>
        <time>1970-01-11T02:00:11Z</time>
      </trkpt>
      <trkpt lat="42.314330" lon="-8.077375">
        <ele>111.245</ele>
        <time>1970-01-11T02:00:11Z</time>
      </trkpt>
      <trkpt lat="42.314371" lon="-8.077307">
        <ele>112.293</ele>
        <time>1970-01-11T02:00:11Z</time>
      </trkpt>
      <trkpt lat="42.314385" lon="-8.077289">
        <ele>112.622</ele>
        <time>1970-01-11T02:00:11Z</time>
      </trkpt>
      <trkpt lat="42.314416" lon="-8.077264">
        <ele>113.487</ele>
        <time>1970-01-11T02:00:11Z</time>
      </trkpt>
      <trkpt lat="42.314442" lon="-8.077258">
        <ele>114.215</ele>
        <time>1970-01-11T02:00:11Z</time>
      </trkpt>
      <trkpt lat="42.314461" lon="-8.077264">
        <ele>114.634</ele>
        <time>1970-01-11T02:00:11Z</time>
      </trkpt>
      <trkpt lat="42.314543" lon="-8.077245">
        <ele>115.875</ele>
        <time>1970-01-11T02:00:11Z</time>
      </trkpt>
      <trkpt lat="42.314552" lon="-8.077219">
        <ele>116.028</ele>
        <time>1970-01-11T02:00:11Z</time>
      </trkpt>
      <trkpt lat="42.314570" lon="-8.077117">
        <ele>116.820</ele>
        <time>1970-01-11T02:00:11Z</time>
      </trkpt>
      <trkpt lat="42.314585" lon="-8.077054">
        <ele>117.608</ele>
        <time>1970-01-11T02:00:11Z</time>
      </trkpt>
      <trkpt lat="42.314593" lon="-8.077019">
        <ele>117.838</ele>
        <time>1970-01-11T02:00:11Z</time>
      </trkpt>
      <trkpt lat="42.314631" lon="-8.076878">
        <ele>119.075</ele>
        <time>1970-01-11T02:00:11Z</time>
      </trkpt>
      <trkpt lat="42.314673" lon="-8.076729">
        <ele>120.231</ele>
        <time>1970-01-11T02:00:11Z</time>
      </trkpt>
      <trkpt lat="42.314768" lon="-8.076469">
        <ele>121.289</ele>
        <time>1970-01-11T02:00:11Z</time>
      </trkpt>
      <trkpt lat="42.314919" lon="-8.076395">
        <ele>121.698</ele>
        <time>1970-01-11T02:00:11Z</time>
      </trkpt>
      <trkpt lat="42.315190" lon="-8.076345">
        <ele>121.613</ele>
        <time>1970-01-11T02:00:11Z</time>
      </trkpt>
      <trkpt lat="42.315533" lon="-8.076405">
        <ele>121.061</ele>
        <time>1970-01-11T02:00:11Z</time>
      </trkpt>
      <trkpt lat="42.315664" lon="-8.076442">
        <ele>121.010</ele>
        <time>1970-01-11T02:00:11Z</time>
      </trkpt>
      <trkpt lat="42.315730" lon="-8.076517">
        <ele>121.284</ele>
        <time>1970-01-11T02:00:11Z</time>
      </trkpt>
      <trkpt lat="42.315804" lon="-8.076659">
        <ele>122.007</ele>
        <time>1970-01-11T02:00:11Z</time>
      </trkpt>
      <trkpt lat="42.315860" lon="-8.076755">
        <ele>122.617</ele>
        <time>1970-01-11T02:00:11Z</time>
      </trkpt>
      <trkpt lat="42.315956" lon="-8.076865">
        <ele>123.408</ele>
        <time>1970-01-11T02:00:11Z</time>
      </trkpt>
      <trkpt lat="42.315987" lon="-8.076881">
        <ele>123.849</ele>
        <time>1970-01-11T02:00:11Z</time>
      </trkpt>
      <trkpt lat="42.316015" lon="-8.076889">
        <ele>124.236</ele>
        <time>1970-01-11T02:00:11Z</time>
      </trkpt>
      <trkpt lat="42.316066" lon="-8.076909">
        <ele>125.072</ele>
        <time>1970-01-11T02:00:11Z</time>
      </trkpt>
      <trkpt lat="42.316145" lon="-8.076932">
        <ele>126.270</ele>
        <time>1970-01-11T02:00:11Z</time>
      </trkpt>
      <trkpt lat="42.316209" lon="-8.076908">
        <ele>127.239</ele>
        <time>1970-01-11T02:00:11Z</time>
      </trkpt>
      <trkpt lat="42.316287" lon="-8.076861">
        <ele>128.424</ele>
        <time>1970-01-11T02:00:11Z</time>
      </trkpt>
      <trkpt lat="42.316383" lon="-8.076754">
        <ele>129.622</ele>
        <time>1970-01-11T02:00:11Z</time>
      </trkpt>
      <trkpt lat="42.316402" lon="-8.076715">
        <ele>129.811</ele>
        <time>1970-01-11T02:00:11Z</time>
      </trkpt>
      <trkpt lat="42.316561" lon="-8.076440">
        <ele>129.842</ele>
        <time>1970-01-11T02:00:11Z</time>
      </trkpt>
      <trkpt lat="42.316768" lon="-8.076178">
        <ele>129.422</ele>
        <time>1970-01-11T02:00:11Z</time>
      </trkpt>
      <trkpt lat="42.317057" lon="-8.075902">
        <ele>128.814</ele>
        <time>1970-01-11T02:00:11Z</time>
      </trkpt>
      <trkpt lat="42.317187" lon="-8.075785">
        <ele>128.408</ele>
        <time>1970-01-11T02:00:11Z</time>
      </trkpt>
      <trkpt lat="42.317476" lon="-8.075519">
        <ele>127.285</ele>
        <time>1970-01-11T02:00:11Z</time>
      </trkpt>
      <trkpt lat="42.317554" lon="-8.075445">
        <ele>126.862</ele>
        <time>1970-01-11T02:00:11Z</time>
      </trkpt>
      <trkpt lat="42.317719" lon="-8.075308">
        <ele>126.088</ele>
        <time>1970-01-11T02:00:11Z</time>
      </trkpt>
      <trkpt lat="42.317979" lon="-8.075081">
        <ele>125.026</ele>
        <time>1970-01-11T02:00:11Z</time>
      </trkpt>
      <trkpt lat="42.318068" lon="-8.075001">
        <ele>124.685</ele>
        <time>1970-01-11T02:00:11Z</time>
      </trkpt>
      <trkpt lat="42.318154" lon="-8.074923">
        <ele>123.630</ele>
        <time>1970-01-11T02:00:11Z</time>
      </trkpt>
      <trkpt lat="42.318337" lon="-8.074763">
        <ele>122.648</ele>
        <time>1970-01-11T02:00:11Z</time>
      </trkpt>
      <trkpt lat="42.318611" lon="-8.074530">
        <ele>121.447</ele>
        <time>1970-01-11T02:00:11Z</time>
      </trkpt>
      <trkpt lat="42.318878" lon="-8.074297">
        <ele>119.822</ele>
        <time>1970-01-11T02:00:11Z</time>
      </trkpt>
      <trkpt lat="42.319057" lon="-8.074145">
        <ele>119.062</ele>
        <time>1970-01-11T02:00:11Z</time>
      </trkpt>
      <trkpt lat="42.319149" lon="-8.074073">
        <ele>118.408</ele>
        <time>1970-01-11T02:00:11Z</time>
      </trkpt>
      <trkpt lat="42.319246" lon="-8.074013">
        <ele>118.008</ele>
        <time>1970-01-11T02:00:11Z</time>
      </trkpt>
      <trkpt lat="42.319347" lon="-8.073959">
        <ele>117.673</ele>
        <time>1970-01-11T02:00:11Z</time>
      </trkpt>
      <trkpt lat="42.319450" lon="-8.073914">
        <ele>117.220</ele>
        <time>1970-01-11T02:00:11Z</time>
      </trkpt>
      <trkpt lat="42.319554" lon="-8.073881">
        <ele>116.816</ele>
        <time>1970-01-11T02:00:11Z</time>
      </trkpt>
      <trkpt lat="42.319764" lon="-8.073843">
        <ele>116.044</ele>
        <time>1970-01-11T02:00:11Z</time>
      </trkpt>
      <trkpt lat="42.319871" lon="-8.073832">
        <ele>115.653</ele>
        <time>1970-01-11T02:00:11Z</time>
      </trkpt>
      <trkpt lat="42.319979" lon="-8.073837">
        <ele>115.098</ele>
        <time>1970-01-11T02:00:11Z</time>
      </trkpt>
      <trkpt lat="42.320086" lon="-8.073845">
        <ele>114.636</ele>
        <time>1970-01-11T02:00:11Z</time>
      </trkpt>
      <trkpt lat="42.320396" lon="-8.073906">
        <ele>113.495</ele>
        <time>1970-01-11T02:00:11Z</time>
      </trkpt>
      <trkpt lat="42.320705" lon="-8.073989">
        <ele>112.244</ele>
        <time>1970-01-11T02:00:11Z</time>
      </trkpt>
      <trkpt lat="42.321014" lon="-8.074028">
        <ele>111.005</ele>
        <time>1970-01-11T02:00:11Z</time>
      </trkpt>
      <trkpt lat="42.321218" lon="-8.074039">
        <ele>110.215</ele>
        <time>1970-01-11T02:00:11Z</time>
      </trkpt>
      <trkpt lat="42.321318" lon="-8.074043">
        <ele>109.808</ele>
        <time>1970-01-11T02:00:11Z</time>
      </trkpt>
      <trkpt lat="42.321614" lon="-8.074046">
        <ele>108.895</ele>
        <time>1970-01-11T02:00:11Z</time>
      </trkpt>
      <trkpt lat="42.321906" lon="-8.074048">
        <ele>108.082</ele>
        <time>1970-01-11T02:00:11Z</time>
      </trkpt>
      <trkpt lat="42.322005" lon="-8.074051">
        <ele>107.638</ele>
        <time>1970-01-11T02:00:11Z</time>
      </trkpt>
      <trkpt lat="42.322587" lon="-8.074065">
        <ele>106.646</ele>
        <time>1970-01-11T02:00:11Z</time>
      </trkpt>
      <trkpt lat="42.322685" lon="-8.074066">
        <ele>106.415</ele>
        <time>1970-01-11T02:00:11Z</time>
      </trkpt>
      <trkpt lat="42.322979" lon="-8.074073">
        <ele>105.690</ele>
        <time>1970-01-11T02:00:11Z</time>
      </trkpt>
      <trkpt lat="42.323078" lon="-8.074079">
        <ele>105.468</ele>
        <time>1970-01-11T02:00:11Z</time>
      </trkpt>
      <trkpt lat="42.323467" lon="-8.074134">
        <ele>104.047</ele>
        <time>1970-01-11T02:00:11Z</time>
      </trkpt>
      <trkpt lat="42.323564" lon="-8.074152">
        <ele>103.811</ele>
        <time>1970-01-11T02:00:11Z</time>
      </trkpt>
      <trkpt lat="42.323849" lon="-8.074205">
        <ele>103.021</ele>
        <time>1970-01-11T02:00:11Z</time>
      </trkpt>
      <trkpt lat="42.324121" lon="-8.074244">
        <ele>101.603</ele>
        <time>1970-01-11T02:00:11Z</time>
      </trkpt>
      <trkpt lat="42.324383" lon="-8.074247">
        <ele>101.008</ele>
        <time>1970-01-11T02:00:11Z</time>
      </trkpt>
      <trkpt lat="42.324552" lon="-8.074221">
        <ele>100.872</ele>
        <time>1970-01-11T02:00:11Z</time>
      </trkpt>
      <trkpt lat="42.324790" lon="-8.074146">
        <ele>100.649</ele>
        <time>1970-01-11T02:00:11Z</time>
      </trkpt>
      <trkpt lat="42.324861" lon="-8.074111">
        <ele>100.845</ele>
        <time>1970-01-11T02:00:11Z</time>
      </trkpt>
      <trkpt lat="42.325063" lon="-8.073977">
        <ele>101.483</ele>
        <time>1970-01-11T02:00:11Z</time>
      </trkpt>
      <trkpt lat="42.325127" lon="-8.073923">
        <ele>101.682</ele>
        <time>1970-01-11T02:00:11Z</time>
      </trkpt>
      <trkpt lat="42.325188" lon="-8.073872">
        <ele>101.647</ele>
        <time>1970-01-11T02:00:11Z</time>
      </trkpt>
      <trkpt lat="42.325303" lon="-8.073760">
        <ele>102.025</ele>
        <time>1970-01-11T02:00:11Z</time>
      </trkpt>
      <trkpt lat="42.325411" lon="-8.073640">
        <ele>102.634</ele>
        <time>1970-01-11T02:00:11Z</time>
      </trkpt>
      <trkpt lat="42.325464" lon="-8.073580">
        <ele>102.859</ele>
        <time>1970-01-11T02:00:11Z</time>
      </trkpt>
      <trkpt lat="42.325554" lon="-8.073457">
        <ele>103.603</ele>
        <time>1970-01-11T02:00:11Z</time>
      </trkpt>
      <trkpt lat="42.325599" lon="-8.073399">
        <ele>104.023</ele>
        <time>1970-01-11T02:00:11Z</time>
      </trkpt>
      <trkpt lat="42.325734" lon="-8.073235">
        <ele>105.008</ele>
        <time>1970-01-11T02:00:11Z</time>
      </trkpt>
      <trkpt lat="42.325909" lon="-8.073029">
        <ele>106.436</ele>
        <time>1970-01-11T02:00:11Z</time>
      </trkpt>
      <trkpt lat="42.326036" lon="-8.072877">
        <ele>107.433</ele>
        <time>1970-01-11T02:00:11Z</time>
      </trkpt>
      <trkpt lat="42.326168" lon="-8.072726">
        <ele>108.669</ele>
        <time>1970-01-11T02:00:11Z</time>
      </trkpt>
      <trkpt lat="42.326303" lon="-8.072585">
        <ele>109.427</ele>
        <time>1970-01-11T02:00:11Z</time>
      </trkpt>
      <trkpt lat="42.326347" lon="-8.072536">
        <ele>109.686</ele>
        <time>1970-01-11T02:00:11Z</time>
      </trkpt>
      <trkpt lat="42.326526" lon="-8.072368">
        <ele>110.641</ele>
        <time>1970-01-11T02:00:11Z</time>
      </trkpt>
      <trkpt lat="42.326619" lon="-8.072298">
        <ele>111.289</ele>
        <time>1970-01-11T02:00:11Z</time>
      </trkpt>
      <trkpt lat="42.326762" lon="-8.072207">
        <ele>111.828</ele>
        <time>1970-01-11T02:00:11Z</time>
      </trkpt>
      <trkpt lat="42.327017" lon="-8.072093">
        <ele>112.648</ele>
        <time>1970-01-11T02:00:12Z</time>
      </trkpt>
      <trkpt lat="42.327070" lon="-8.072078">
        <ele>112.861</ele>
        <time>1970-01-11T02:00:12Z</time>
      </trkpt>
      <trkpt lat="42.327445" lon="-8.071972">
        <ele>113.817</ele>
        <time>1970-01-11T02:00:12Z</time>
      </trkpt>
      <trkpt lat="42.328035" lon="-8.071911">
        <ele>114.408</ele>
        <time>1970-01-11T02:00:12Z</time>
      </trkpt>
      <trkpt lat="42.328576" lon="-8.071852">
        <ele>114.245</ele>
        <time>1970-01-11T02:00:12Z</time>
      </trkpt>
      <trkpt lat="42.329178" lon="-8.071783">
        <ele>113.482</ele>
        <time>1970-01-11T02:00:12Z</time>
      </trkpt>
      <trkpt lat="42.329495" lon="-8.071740">
        <ele>112.818</ele>
        <time>1970-01-11T02:00:12Z</time>
      </trkpt>
      <trkpt lat="42.330052" lon="-8.071671">
        <ele>111.676</ele>
        <time>1970-01-11T02:00:12Z</time>
      </trkpt>
      <trkpt lat="42.330476" lon="-8.071609">
        <ele>110.885</ele>
        <time>1970-01-11T02:00:12Z</time>
      </trkpt>
      <trkpt lat="42.330564" lon="-8.071593">
        <ele>110.430</ele>
        <time>1970-01-11T02:00:12Z</time>
      </trkpt>
      <trkpt lat="42.330741" lon="-8.071556">
        <ele>110.038</ele>
        <time>1970-01-11T02:00:12Z</time>
      </trkpt>
      <trkpt lat="42.330919" lon="-8.071511">
        <ele>109.487</ele>
        <time>1970-01-11T02:00:12Z</time>
      </trkpt>
      <trkpt lat="42.331181" lon="-8.071404">
        <ele>108.825</ele>
        <time>1970-01-11T02:00:12Z</time>
      </trkpt>
      <trkpt lat="42.331351" lon="-8.071306">
        <ele>108.426</ele>
        <time>1970-01-11T02:00:12Z</time>
      </trkpt>
      <trkpt lat="42.331588" lon="-8.071101">
        <ele>107.608</ele>
        <time>1970-01-11T02:00:12Z</time>
      </trkpt>
      <trkpt lat="42.331728" lon="-8.070938">
        <ele>107.008</ele>
        <time>1970-01-11T02:00:12Z</time>
      </trkpt>
      <trkpt lat="42.331852" lon="-8.070759">
        <ele>106.693</ele>
        <time>1970-01-11T02:00:12Z</time>
      </trkpt>
      <trkpt lat="42.331907" lon="-8.070663">
        <ele>106.220</ele>
        <time>1970-01-11T02:00:12Z</time>
      </trkpt>
      <trkpt lat="42.331957" lon="-8.070564">
        <ele>106.026</ele>
        <time>1970-01-11T02:00:12Z</time>
      </trkpt>
      <trkpt lat="42.332169" lon="-8.070077">
        <ele>105.454</ele>
        <time>1970-01-11T02:00:12Z</time>
      </trkpt>
      <trkpt lat="42.332276" lon="-8.069787">
        <ele>105.613</ele>
        <time>1970-01-11T02:00:12Z</time>
      </trkpt>
      <trkpt lat="42.332348" lon="-8.069596">
        <ele>106.468</ele>
        <time>1970-01-11T02:00:12Z</time>
      </trkpt>
      <trkpt lat="42.332384" lon="-8.069500">
        <ele>106.616</ele>
        <time>1970-01-11T02:00:12Z</time>
      </trkpt>
      <trkpt lat="42.332421" lon="-8.069402">
        <ele>107.015</ele>
        <time>1970-01-11T02:00:12Z</time>
      </trkpt>
      <trkpt lat="42.332461" lon="-8.069306">
        <ele>107.487</ele>
        <time>1970-01-11T02:00:12Z</time>
      </trkpt>
      <trkpt lat="42.332580" lon="-8.069017">
        <ele>108.042</ele>
        <time>1970-01-11T02:00:12Z</time>
      </trkpt>
      <trkpt lat="42.332659" lon="-8.068813">
        <ele>108.226</ele>
        <time>1970-01-11T02:00:12Z</time>
      </trkpt>
      <trkpt lat="42.332862" lon="-8.068237">
        <ele>107.008</ele>
        <time>1970-01-11T02:00:12Z</time>
      </trkpt>
      <trkpt lat="42.332902" lon="-8.068111">
        <ele>106.699</ele>
        <time>1970-01-11T02:00:12Z</time>
      </trkpt>
      <trkpt lat="42.332967" lon="-8.067851">
        <ele>105.656</ele>
        <time>1970-01-11T02:00:12Z</time>
      </trkpt>
      <trkpt lat="42.333025" lon="-8.067443">
        <ele>104.262</ele>
        <time>1970-01-11T02:00:12Z</time>
      </trkpt>
      <trkpt lat="42.333048" lon="-8.066914">
        <ele>102.690</ele>
        <time>1970-01-11T02:00:12Z</time>
      </trkpt>
      <trkpt lat="42.333048" lon="-8.066786">
        <ele>102.459</ele>
        <time>1970-01-11T02:00:12Z</time>
      </trkpt>
      <trkpt lat="42.333033" lon="-8.066407">
        <ele>101.664</ele>
        <time>1970-01-11T02:00:12Z</time>
      </trkpt>
      <trkpt lat="42.333024" lon="-8.066283">
        <ele>101.412</ele>
        <time>1970-01-11T02:00:12Z</time>
      </trkpt>
      <trkpt lat="42.333013" lon="-8.066160">
        <ele>101.421</ele>
        <time>1970-01-11T02:00:12Z</time>
      </trkpt>
      <trkpt lat="42.333003" lon="-8.066039">
        <ele>101.253</ele>
        <time>1970-01-11T02:00:12Z</time>
      </trkpt>
      <trkpt lat="42.332979" lon="-8.065801">
        <ele>101.204</ele>
        <time>1970-01-11T02:00:12Z</time>
      </trkpt>
      <trkpt lat="42.332902" lon="-8.065219">
        <ele>101.414</ele>
        <time>1970-01-11T02:00:12Z</time>
      </trkpt>
      <trkpt lat="42.332853" lon="-8.064874">
        <ele>101.808</ele>
        <time>1970-01-11T02:00:12Z</time>
      </trkpt>
      <trkpt lat="42.332774" lon="-8.064410">
        <ele>102.016</ele>
        <time>1970-01-11T02:00:12Z</time>
      </trkpt>
      <trkpt lat="42.332737" lon="-8.064174">
        <ele>102.273</ele>
        <time>1970-01-11T02:00:12Z</time>
      </trkpt>
      <trkpt lat="42.332667" lon="-8.063701">
        <ele>102.289</ele>
        <time>1970-01-11T02:00:12Z</time>
      </trkpt>
      <trkpt lat="42.332575" lon="-8.063111">
        <ele>102.277</ele>
        <time>1970-01-11T02:00:12Z</time>
      </trkpt>
      <trkpt lat="42.332537" lon="-8.062873">
        <ele>102.466</ele>
        <time>1970-01-11T02:00:12Z</time>
      </trkpt>
      <trkpt lat="42.332504" lon="-8.062631">
        <ele>102.641</ele>
        <time>1970-01-11T02:00:12Z</time>
      </trkpt>
      <trkpt lat="42.332439" lon="-8.062162">
        <ele>103.229</ele>
        <time>1970-01-11T02:00:12Z</time>
      </trkpt>
      <trkpt lat="42.332404" lon="-8.061935">
        <ele>103.468</ele>
        <time>1970-01-11T02:00:12Z</time>
      </trkpt>
      <trkpt lat="42.332387" lon="-8.061824">
        <ele>103.644</ele>
        <time>1970-01-11T02:00:12Z</time>
      </trkpt>
      <trkpt lat="42.332325" lon="-8.061390">
        <ele>104.405</ele>
        <time>1970-01-11T02:00:12Z</time>
      </trkpt>
      <trkpt lat="42.332311" lon="-8.061284">
        <ele>104.815</ele>
        <time>1970-01-11T02:00:12Z</time>
      </trkpt>
      <trkpt lat="42.332286" lon="-8.061076">
        <ele>105.408</ele>
        <time>1970-01-11T02:00:12Z</time>
      </trkpt>
      <trkpt lat="42.332251" lon="-8.060777">
        <ele>106.025</ele>
        <time>1970-01-11T02:00:12Z</time>
      </trkpt>
      <trkpt lat="42.332211" lon="-8.060387">
        <ele>106.272</ele>
        <time>1970-01-11T02:00:12Z</time>
      </trkpt>
      <trkpt lat="42.332157" lon="-8.059573">
        <ele>106.248</ele>
        <time>1970-01-11T02:00:12Z</time>
      </trkpt>
      <trkpt lat="42.332114" lon="-8.058750">
        <ele>105.826</ele>
        <time>1970-01-11T02:00:12Z</time>
      </trkpt>
      <trkpt lat="42.332108" lon="-8.058650">
        <ele>105.865</ele>
        <time>1970-01-11T02:00:12Z</time>
      </trkpt>
      <trkpt lat="42.332062" lon="-8.057854">
        <ele>105.680</ele>
        <time>1970-01-11T02:00:12Z</time>
      </trkpt>
      <trkpt lat="42.332057" lon="-8.057754">
        <ele>105.638</ele>
        <time>1970-01-11T02:00:12Z</time>
      </trkpt>
      <trkpt lat="42.332017" lon="-8.056968">
        <ele>106.487</ele>
        <time>1970-01-11T02:00:12Z</time>
      </trkpt>
      <trkpt lat="42.332001" lon="-8.056668">
        <ele>106.481</ele>
        <time>1970-01-11T02:00:12Z</time>
      </trkpt>
      <trkpt lat="42.331974" lon="-8.055930">
        <ele>106.661</ele>
        <time>1970-01-11T02:00:12Z</time>
      </trkpt>
      <trkpt lat="42.331943" lon="-8.055107">
        <ele>106.617</ele>
        <time>1970-01-11T02:00:12Z</time>
      </trkpt>
      <trkpt lat="42.331939" lon="-8.055009">
        <ele>106.608</ele>
        <time>1970-01-11T02:00:12Z</time>
      </trkpt>
      <trkpt lat="42.331932" lon="-8.054813">
        <ele>107.099</ele>
        <time>1970-01-11T02:00:12Z</time>
      </trkpt>
      <trkpt lat="42.331909" lon="-8.054266">
        <ele>108.076</ele>
        <time>1970-01-11T02:00:12Z</time>
      </trkpt>
      <trkpt lat="42.331905" lon="-8.054188">
        <ele>108.472</ele>
        <time>1970-01-11T02:00:12Z</time>
      </trkpt>
      <trkpt lat="42.331897" lon="-8.054039">
        <ele>109.270</ele>
        <time>1970-01-11T02:00:12Z</time>
      </trkpt>
      <trkpt lat="42.331886" lon="-8.053831">
        <ele>110.419</ele>
        <time>1970-01-11T02:00:12Z</time>
      </trkpt>
      <trkpt lat="42.331886" lon="-8.053700">
        <ele>111.214</ele>
        <time>1970-01-11T02:00:12Z</time>
      </trkpt>
      <trkpt lat="42.331883" lon="-8.053635">
        <ele>111.482</ele>
        <time>1970-01-11T02:00:12Z</time>
      </trkpt>
      <trkpt lat="42.331869" lon="-8.053353">
        <ele>112.631</ele>
        <time>1970-01-11T02:00:12Z</time>
      </trkpt>
      <trkpt lat="42.331869" lon="-8.053281">
        <ele>112.861</ele>
        <time>1970-01-11T02:00:12Z</time>
      </trkpt>
      <trkpt lat="42.331864" lon="-8.053076">
        <ele>113.821</ele>
        <time>1970-01-11T02:00:12Z</time>
      </trkpt>
      <trkpt lat="42.331856" lon="-8.052806">
        <ele>115.013</ele>
        <time>1970-01-11T02:00:12Z</time>
      </trkpt>
      <trkpt lat="42.331839" lon="-8.052467">
        <ele>116.208</ele>
        <time>1970-01-11T02:00:12Z</time>
      </trkpt>
      <trkpt lat="42.331841" lon="-8.052397">
        <ele>116.637</ele>
        <time>1970-01-11T02:00:12Z</time>
      </trkpt>
      <trkpt lat="42.331838" lon="-8.052057">
        <ele>117.474</ele>
        <time>1970-01-11T02:00:12Z</time>
      </trkpt>
      <trkpt lat="42.331841" lon="-8.051914">
        <ele>117.850</ele>
        <time>1970-01-11T02:00:12Z</time>
      </trkpt>
      <trkpt lat="42.331845" lon="-8.051617">
        <ele>118.638</ele>
        <time>1970-01-11T02:00:12Z</time>
      </trkpt>
      <trkpt lat="42.331859" lon="-8.051311">
        <ele>119.077</ele>
        <time>1970-01-11T02:00:12Z</time>
      </trkpt>
      <trkpt lat="42.331900" lon="-8.050737">
        <ele>119.642</ele>
        <time>1970-01-11T02:00:12Z</time>
      </trkpt>
      <trkpt lat="42.331915" lon="-8.050562">
        <ele>119.690</ele>
        <time>1970-01-11T02:00:12Z</time>
      </trkpt>
      <trkpt lat="42.331988" lon="-8.049756">
        <ele>119.429</ele>
        <time>1970-01-11T02:00:12Z</time>
      </trkpt>
      <trkpt lat="42.332005" lon="-8.049576">
        <ele>119.436</ele>
        <time>1970-01-11T02:00:12Z</time>
      </trkpt>
      <trkpt lat="42.332075" lon="-8.048828">
        <ele>119.217</ele>
        <time>1970-01-11T02:00:12Z</time>
      </trkpt>
      <trkpt lat="42.332101" lon="-8.048547">
        <ele>119.218</ele>
        <time>1970-01-11T02:00:12Z</time>
      </trkpt>
      <trkpt lat="42.332136" lon="-8.047987">
        <ele>119.208</ele>
        <time>1970-01-11T02:00:12Z</time>
      </trkpt>
      <trkpt lat="42.332144" lon="-8.047800">
        <ele>119.494</ele>
        <time>1970-01-11T02:00:12Z</time>
      </trkpt>
      <trkpt lat="42.332147" lon="-8.047270">
        <ele>120.261</ele>
        <time>1970-01-11T02:00:12Z</time>
      </trkpt>
      <trkpt lat="42.332143" lon="-8.047095">
        <ele>120.687</ele>
        <time>1970-01-11T02:00:12Z</time>
      </trkpt>
      <trkpt lat="42.332122" lon="-8.046762">
        <ele>122.095</ele>
        <time>1970-01-11T02:00:12Z</time>
      </trkpt>
      <trkpt lat="42.332115" lon="-8.046679">
        <ele>122.484</ele>
        <time>1970-01-11T02:00:12Z</time>
      </trkpt>
      <trkpt lat="42.332100" lon="-8.046517">
        <ele>123.029</ele>
        <time>1970-01-11T02:00:12Z</time>
      </trkpt>
      <trkpt lat="42.332080" lon="-8.046278">
        <ele>124.247</ele>
        <time>1970-01-11T02:00:12Z</time>
      </trkpt>
      <trkpt lat="42.332067" lon="-8.046121">
        <ele>124.816</ele>
        <time>1970-01-11T02:00:12Z</time>
      </trkpt>
      <trkpt lat="42.332046" lon="-8.045964">
        <ele>125.675</ele>
        <time>1970-01-11T02:00:12Z</time>
      </trkpt>
      <trkpt lat="42.332018" lon="-8.045733">
        <ele>126.628</ele>
        <time>1970-01-11T02:00:12Z</time>
      </trkpt>
      <trkpt lat="42.332008" lon="-8.045578">
        <ele>127.220</ele>
        <time>1970-01-11T02:00:12Z</time>
      </trkpt>
      <trkpt lat="42.331993" lon="-8.045418">
        <ele>127.808</ele>
        <time>1970-01-11T02:00:12Z</time>
      </trkpt>
      <trkpt lat="42.331955" lon="-8.045095">
        <ele>129.028</ele>
        <time>1970-01-11T02:00:12Z</time>
      </trkpt>
      <trkpt lat="42.331946" lon="-8.045015">
        <ele>129.285</ele>
        <time>1970-01-11T02:00:12Z</time>
      </trkpt>
      <trkpt lat="42.331921" lon="-8.044780">
        <ele>130.091</ele>
        <time>1970-01-11T02:00:12Z</time>
      </trkpt>
      <trkpt lat="42.331894" lon="-8.044479">
        <ele>131.289</ele>
        <time>1970-01-11T02:00:12Z</time>
      </trkpt>
      <trkpt lat="42.331879" lon="-8.044340">
        <ele>131.658</ele>
        <time>1970-01-11T02:00:12Z</time>
      </trkpt>
      <trkpt lat="42.331859" lon="-8.044154">
        <ele>132.623</ele>
        <time>1970-01-11T02:00:12Z</time>
      </trkpt>
      <trkpt lat="42.331838" lon="-8.043939">
        <ele>133.431</ele>
        <time>1970-01-11T02:00:12Z</time>
      </trkpt>
      <trkpt lat="42.331834" lon="-8.043886">
        <ele>133.690</ele>
        <time>1970-01-11T02:00:12Z</time>
      </trkpt>
      <trkpt lat="42.331799" lon="-8.043599">
        <ele>134.659</ele>
        <time>1970-01-11T02:00:12Z</time>
      </trkpt>
      <trkpt lat="42.331786" lon="-8.043493">
        <ele>135.203</ele>
        <time>1970-01-11T02:00:12Z</time>
      </trkpt>
      <trkpt lat="42.331772" lon="-8.043335">
        <ele>135.823</ele>
        <time>1970-01-11T02:00:12Z</time>
      </trkpt>
      <trkpt lat="42.331748" lon="-8.043126">
        <ele>136.808</ele>
        <time>1970-01-11T02:00:12Z</time>
      </trkpt>
      <trkpt lat="42.331744" lon="-8.043077">
        <ele>137.026</ele>
        <time>1970-01-11T02:00:12Z</time>
      </trkpt>
      <trkpt lat="42.331705" lon="-8.042817">
        <ele>138.043</ele>
        <time>1970-01-11T02:00:12Z</time>
      </trkpt>
      <trkpt lat="42.331700" lon="-8.042758">
        <ele>138.249</ele>
        <time>1970-01-11T02:00:12Z</time>
      </trkpt>
      <trkpt lat="42.331689" lon="-8.042528">
        <ele>139.077</ele>
        <time>1970-01-11T02:00:12Z</time>
      </trkpt>
      <trkpt lat="42.331666" lon="-8.042361">
        <ele>139.646</ele>
        <time>1970-01-11T02:00:12Z</time>
      </trkpt>
      <trkpt lat="42.331641" lon="-8.042128">
        <ele>140.231</ele>
        <time>1970-01-11T02:00:12Z</time>
      </trkpt>
      <trkpt lat="42.331607" lon="-8.041832">
        <ele>140.819</ele>
        <time>1970-01-11T02:00:12Z</time>
      </trkpt>
      <trkpt lat="42.331597" lon="-8.041706">
        <ele>141.298</ele>
        <time>1970-01-11T02:00:12Z</time>
      </trkpt>
      <trkpt lat="42.331568" lon="-8.041231">
        <ele>142.065</ele>
        <time>1970-01-11T02:00:12Z</time>
      </trkpt>
      <trkpt lat="42.331557" lon="-8.041009">
        <ele>142.268</ele>
        <time>1970-01-11T02:00:12Z</time>
      </trkpt>
      <trkpt lat="42.331526" lon="-8.040449">
        <ele>142.614</ele>
        <time>1970-01-11T02:00:12Z</time>
      </trkpt>
      <trkpt lat="42.331493" lon="-8.039827">
        <ele>142.208</ele>
        <time>1970-01-11T02:00:12Z</time>
      </trkpt>
      <trkpt lat="42.331452" lon="-8.039123">
        <ele>141.047</ele>
        <time>1970-01-11T02:00:12Z</time>
      </trkpt>
      <trkpt lat="42.331447" lon="-8.039014">
        <ele>140.894</ele>
        <time>1970-01-11T02:00:12Z</time>
      </trkpt>
      <trkpt lat="42.331431" lon="-8.038672">
        <ele>140.270</ele>
        <time>1970-01-11T02:00:12Z</time>
      </trkpt>
      <trkpt lat="42.331425" lon="-8.038552">
        <ele>140.028</ele>
        <time>1970-01-11T02:00:12Z</time>
      </trkpt>
      <trkpt lat="42.331408" lon="-8.038190">
        <ele>138.887</ele>
        <time>1970-01-11T02:00:12Z</time>
      </trkpt>
      <trkpt lat="42.331382" lon="-8.037820">
        <ele>137.652</ele>
        <time>1970-01-11T02:00:12Z</time>
      </trkpt>
      <trkpt lat="42.331371" lon="-8.037561">
        <ele>136.690</ele>
        <time>1970-01-11T02:00:12Z</time>
      </trkpt>
      <trkpt lat="42.331365" lon="-8.037429">
        <ele>136.299</ele>
        <time>1970-01-11T02:00:12Z</time>
      </trkpt>
      <trkpt lat="42.331352" lon="-8.037159">
        <ele>135.062</ele>
        <time>1970-01-11T02:00:12Z</time>
      </trkpt>
      <trkpt lat="42.331332" lon="-8.036742">
        <ele>134.083</ele>
        <time>1970-01-11T02:00:12Z</time>
      </trkpt>
      <trkpt lat="42.331319" lon="-8.036467">
        <ele>133.011</ele>
        <time>1970-01-11T02:00:12Z</time>
      </trkpt>
      <trkpt lat="42.331314" lon="-8.036329">
        <ele>132.608</ele>
        <time>1970-01-11T02:00:12Z</time>
      </trkpt>
      <trkpt lat="42.331290" lon="-8.035923">
        <ele>131.227</ele>
        <time>1970-01-11T02:00:12Z</time>
      </trkpt>
      <trkpt lat="42.331265" lon="-8.035520">
        <ele>130.034</ele>
        <time>1970-01-11T02:00:12Z</time>
      </trkpt>
      <trkpt lat="42.331256" lon="-8.035387">
        <ele>129.630</ele>
        <time>1970-01-11T02:00:12Z</time>
      </trkpt>
      <trkpt lat="42.331230" lon="-8.034993">
        <ele>128.638</ele>
        <time>1970-01-11T02:00:12Z</time>
      </trkpt>
      <trkpt lat="42.331210" lon="-8.034603">
        <ele>127.637</ele>
        <time>1970-01-11T02:00:12Z</time>
      </trkpt>
      <trkpt lat="42.331200" lon="-8.034079">
        <ele>126.412</ele>
        <time>1970-01-11T02:00:12Z</time>
      </trkpt>
      <trkpt lat="42.331212" lon="-8.033812">
        <ele>125.490</ele>
        <time>1970-01-11T02:00:12Z</time>
      </trkpt>
      <trkpt lat="42.331237" lon="-8.033548">
        <ele>124.689</ele>
        <time>1970-01-11T02:00:12Z</time>
      </trkpt>
      <trkpt lat="42.331251" lon="-8.033418">
        <ele>124.239</ele>
        <time>1970-01-11T02:00:12Z</time>
      </trkpt>
      <trkpt lat="42.331298" lon="-8.033032">
        <ele>123.001</ele>
        <time>1970-01-11T02:00:12Z</time>
      </trkpt>
      <trkpt lat="42.331341" lon="-8.032656">
        <ele>121.821</ele>
        <time>1970-01-11T02:00:12Z</time>
      </trkpt>
      <trkpt lat="42.331383" lon="-8.032292">
        <ele>120.608</ele>
        <time>1970-01-11T02:00:12Z</time>
      </trkpt>
      <trkpt lat="42.331382" lon="-8.032174">
        <ele>120.464</ele>
        <time>1970-01-11T02:00:12Z</time>
      </trkpt>
      <trkpt lat="42.331304" lon="-8.031998">
        <ele>119.861</ele>
        <time>1970-01-11T02:00:12Z</time>
      </trkpt>
      <trkpt lat="42.331235" lon="-8.031944">
        <ele>119.427</ele>
        <time>1970-01-11T02:00:12Z</time>
      </trkpt>
      <trkpt lat="42.331159" lon="-8.031894">
        <ele>119.065</ele>
        <time>1970-01-11T02:00:12Z</time>
      </trkpt>
      <trkpt lat="42.331081" lon="-8.031840">
        <ele>118.664</ele>
        <time>1970-01-11T02:00:12Z</time>
      </trkpt>
      <trkpt lat="42.331002" lon="-8.031779">
        <ele>118.249</ele>
        <time>1970-01-11T02:00:12Z</time>
      </trkpt>
      <trkpt lat="42.330793" lon="-8.031594">
        <ele>116.857</ele>
        <time>1970-01-11T02:00:12Z</time>
      </trkpt>
      <trkpt lat="42.330730" lon="-8.031533">
        <ele>115.646</ele>
        <time>1970-01-11T02:00:12Z</time>
      </trkpt>
      <trkpt lat="42.330600" lon="-8.031431">
        <ele>114.072</ele>
        <time>1970-01-11T02:00:12Z</time>
      </trkpt>
      <trkpt lat="42.330524" lon="-8.031402">
        <ele>113.213</ele>
        <time>1970-01-11T02:00:12Z</time>
      </trkpt>
      <trkpt lat="42.330443" lon="-8.031388">
        <ele>112.414</ele>
        <time>1970-01-11T02:00:12Z</time>
      </trkpt>
      <trkpt lat="42.330280" lon="-8.031365">
        <ele>110.808</ele>
        <time>1970-01-11T02:00:12Z</time>
      </trkpt>
      <trkpt lat="42.330203" lon="-8.031328">
        <ele>110.248</ele>
        <time>1970-01-11T02:00:12Z</time>
      </trkpt>
      <trkpt lat="42.330135" lon="-8.031269">
        <ele>109.665</ele>
        <time>1970-01-11T02:00:12Z</time>
      </trkpt>
      <trkpt lat="42.330021" lon="-8.031106">
        <ele>108.251</ele>
        <time>1970-01-11T02:00:12Z</time>
      </trkpt>
      <trkpt lat="42.329906" lon="-8.030917">
        <ele>106.619</ele>
        <time>1970-01-11T02:00:12Z</time>
      </trkpt>
      <trkpt lat="42.329854" lon="-8.030814">
        <ele>105.818</ele>
        <time>1970-01-11T02:00:12Z</time>
      </trkpt>
      <trkpt lat="42.329806" lon="-8.030710">
        <ele>105.273</ele>
        <time>1970-01-11T02:00:12Z</time>
      </trkpt>
      <trkpt lat="42.329720" lon="-8.030524">
        <ele>104.071</ele>
        <time>1970-01-11T02:00:12Z</time>
      </trkpt>
      <trkpt lat="42.329655" lon="-8.030379">
        <ele>102.680</ele>
        <time>1970-01-11T02:00:12Z</time>
      </trkpt>
      <trkpt lat="42.329595" lon="-8.030266">
        <ele>101.444</ele>
        <time>1970-01-11T02:00:12Z</time>
      </trkpt>
      <trkpt lat="42.329456" lon="-8.030271">
        <ele>100.005</ele>
        <time>1970-01-11T02:00:12Z</time>
      </trkpt>
      <trkpt lat="42.329168" lon="-8.030249">
        <ele>98.615</ele>
        <time>1970-01-11T02:00:12Z</time>
      </trkpt>
      <trkpt lat="42.328976" lon="-8.030229">
        <ele>97.408</ele>
        <time>1970-01-11T02:00:12Z</time>
      </trkpt>
      <trkpt lat="42.328757" lon="-8.030221">
        <ele>96.095</ele>
        <time>1970-01-11T02:00:12Z</time>
      </trkpt>
      <trkpt lat="42.328523" lon="-8.030247">
        <ele>94.662</ele>
        <time>1970-01-11T02:00:12Z</time>
      </trkpt>
      <trkpt lat="42.328277" lon="-8.030315">
        <ele>93.088</ele>
        <time>1970-01-11T02:00:12Z</time>
      </trkpt>
      <trkpt lat="42.328154" lon="-8.030358">
        <ele>91.846</ele>
        <time>1970-01-11T02:00:12Z</time>
      </trkpt>
      <trkpt lat="42.328033" lon="-8.030398">
        <ele>90.695</ele>
        <time>1970-01-11T02:00:12Z</time>
      </trkpt>
      <trkpt lat="42.327918" lon="-8.030441">
        <ele>89.250</ele>
        <time>1970-01-11T02:00:12Z</time>
      </trkpt>
      <trkpt lat="42.327808" lon="-8.030484">
        <ele>88.218</ele>
        <time>1970-01-11T02:00:12Z</time>
      </trkpt>
      <trkpt lat="42.327701" lon="-8.030528">
        <ele>87.037</ele>
        <time>1970-01-11T02:00:12Z</time>
      </trkpt>
      <trkpt lat="42.327605" lon="-8.030588">
        <ele>86.232</ele>
        <time>1970-01-11T02:00:12Z</time>
      </trkpt>
      <trkpt lat="42.327521" lon="-8.030658">
        <ele>85.692</ele>
        <time>1970-01-11T02:00:12Z</time>
      </trkpt>
      <trkpt lat="42.327444" lon="-8.030728">
        <ele>84.811</ele>
        <time>1970-01-11T02:00:12Z</time>
      </trkpt>
      <trkpt lat="42.327370" lon="-8.030781">
        <ele>84.008</ele>
        <time>1970-01-11T02:00:12Z</time>
      </trkpt>
      <trkpt lat="42.327293" lon="-8.030814">
        <ele>83.034</ele>
        <time>1970-01-11T02:00:12Z</time>
      </trkpt>
      <trkpt lat="42.327215" lon="-8.030831">
        <ele>82.421</ele>
        <time>1970-01-11T02:00:12Z</time>
      </trkpt>
      <trkpt lat="42.327135" lon="-8.030836">
        <ele>82.017</ele>
        <time>1970-01-11T02:00:12Z</time>
      </trkpt>
      <trkpt lat="42.327057" lon="-8.030839">
        <ele>81.465</ele>
        <time>1970-01-11T02:00:12Z</time>
      </trkpt>
      <trkpt lat="42.326902" lon="-8.030854">
        <ele>80.424</ele>
        <time>1970-01-11T02:00:12Z</time>
      </trkpt>
      <trkpt lat="42.326768" lon="-8.030869">
        <ele>79.279</ele>
        <time>1970-01-11T02:00:12Z</time>
      </trkpt>
      <trkpt lat="42.326715" lon="-8.030860">
        <ele>78.667</ele>
        <time>1970-01-11T02:00:12Z</time>
      </trkpt>
      <trkpt lat="42.326678" lon="-8.030839">
        <ele>78.416</ele>
        <time>1970-01-11T02:00:12Z</time>
      </trkpt>
      <trkpt lat="42.326630" lon="-8.030776">
        <ele>78.071</ele>
        <time>1970-01-11T02:00:12Z</time>
      </trkpt>
      <trkpt lat="42.326581" lon="-8.030732">
        <ele>77.841</ele>
        <time>1970-01-11T02:00:12Z</time>
      </trkpt>
      <trkpt lat="42.326554" lon="-8.030711">
        <ele>77.615</ele>
        <time>1970-01-11T02:00:12Z</time>
      </trkpt>
      <trkpt lat="42.326527" lon="-8.030686">
        <ele>77.608</ele>
        <time>1970-01-11T02:00:12Z</time>
      </trkpt>
      <trkpt lat="42.326502" lon="-8.030662">
        <ele>77.668</ele>
        <time>1970-01-11T02:00:12Z</time>
      </trkpt>
      <trkpt lat="42.326477" lon="-8.030637">
        <ele>77.665</ele>
        <time>1970-01-11T02:00:12Z</time>
      </trkpt>
      <trkpt lat="42.326451" lon="-8.030613">
        <ele>77.611</ele>
        <time>1970-01-11T02:00:12Z</time>
      </trkpt>
      <trkpt lat="42.326405" lon="-8.030568">
        <ele>77.639</ele>
        <time>1970-01-11T02:00:12Z</time>
      </trkpt>
      <trkpt lat="42.326343" lon="-8.030522">
        <ele>77.828</ele>
        <time>1970-01-11T02:00:12Z</time>
      </trkpt>
      <trkpt lat="42.326278" lon="-8.030484">
        <ele>78.043</ele>
        <time>1970-01-11T02:00:12Z</time>
      </trkpt>
      <trkpt lat="42.326199" lon="-8.030442">
        <ele>78.491</ele>
        <time>1970-01-11T02:00:12Z</time>
      </trkpt>
      <trkpt lat="42.326152" lon="-8.030414">
        <ele>78.410</ele>
        <time>1970-01-11T02:00:12Z</time>
      </trkpt>
      <trkpt lat="42.326069" lon="-8.030336">
        <ele>78.693</ele>
        <time>1970-01-11T02:00:12Z</time>
      </trkpt>
      <trkpt lat="42.326005" lon="-8.030246">
        <ele>78.665</ele>
        <time>1970-01-11T02:00:12Z</time>
      </trkpt>
      <trkpt lat="42.325934" lon="-8.030045">
        <ele>78.621</ele>
        <time>1970-01-11T02:00:12Z</time>
      </trkpt>
      <trkpt lat="42.325920" lon="-8.029925">
        <ele>78.808</ele>
        <time>1970-01-11T02:00:12Z</time>
      </trkpt>
      <trkpt lat="42.325904" lon="-8.029802">
        <ele>79.060</ele>
        <time>1970-01-11T02:00:12Z</time>
      </trkpt>
      <trkpt lat="42.325893" lon="-8.029741">
        <ele>79.217</ele>
        <time>1970-01-11T02:00:12Z</time>
      </trkpt>
      <trkpt lat="42.325861" lon="-8.029618">
        <ele>79.683</ele>
        <time>1970-01-11T02:00:12Z</time>
      </trkpt>
      <trkpt lat="42.325799" lon="-8.029440">
        <ele>80.011</ele>
        <time>1970-01-11T02:00:12Z</time>
      </trkpt>
      <trkpt lat="42.325768" lon="-8.029385">
        <ele>80.270</ele>
        <time>1970-01-11T02:00:12Z</time>
      </trkpt>
      <trkpt lat="42.325728" lon="-8.029337">
        <ele>80.215</ele>
        <time>1970-01-11T02:00:12Z</time>
      </trkpt>
      <trkpt lat="42.325595" lon="-8.029209">
        <ele>80.433</ele>
        <time>1970-01-11T02:00:12Z</time>
      </trkpt>
      <trkpt lat="42.325569" lon="-8.029147">
        <ele>80.482</ele>
        <time>1970-01-11T02:00:12Z</time>
      </trkpt>
      <trkpt lat="42.325561" lon="-8.028935">
        <ele>80.282</ele>
        <time>1970-01-11T02:00:12Z</time>
      </trkpt>
      <trkpt lat="42.325478" lon="-8.028721">
        <ele>80.243</ele>
        <time>1970-01-11T02:00:12Z</time>
      </trkpt>
      <trkpt lat="42.325401" lon="-8.028571">
        <ele>80.017</ele>
        <time>1970-01-11T02:00:12Z</time>
      </trkpt>
      <trkpt lat="42.325290" lon="-8.028383">
        <ele>79.408</ele>
        <time>1970-01-11T02:00:12Z</time>
      </trkpt>
      <trkpt lat="42.325261" lon="-8.028330">
        <ele>79.059</ele>
        <time>1970-01-11T02:00:12Z</time>
      </trkpt>
      <trkpt lat="42.325236" lon="-8.028275">
        <ele>78.636</ele>
        <time>1970-01-11T02:00:12Z</time>
      </trkpt>
      <trkpt lat="42.325184" lon="-8.028097">
        <ele>78.012</ele>
        <time>1970-01-11T02:00:12Z</time>
      </trkpt>
      <trkpt lat="42.325173" lon="-8.028036">
        <ele>77.850</ele>
        <time>1970-01-11T02:00:12Z</time>
      </trkpt>
      <trkpt lat="42.325161" lon="-8.027923">
        <ele>77.819</ele>
        <time>1970-01-11T02:00:12Z</time>
      </trkpt>
      <trkpt lat="42.325163" lon="-8.027816">
        <ele>77.854</ele>
        <time>1970-01-11T02:00:12Z</time>
      </trkpt>
      <trkpt lat="42.325166" lon="-8.027623">
        <ele>77.462</ele>
        <time>1970-01-11T02:00:12Z</time>
      </trkpt>
      <trkpt lat="42.325180" lon="-8.027486">
        <ele>77.681</ele>
        <time>1970-01-11T02:00:12Z</time>
      </trkpt>
      <trkpt lat="42.325226" lon="-8.027197">
        <ele>77.861</ele>
        <time>1970-01-11T02:00:12Z</time>
      </trkpt>
      <trkpt lat="42.325240" lon="-8.027028">
        <ele>78.021</ele>
        <time>1970-01-11T02:00:12Z</time>
      </trkpt>
      <trkpt lat="42.325219" lon="-8.026759">
        <ele>77.813</ele>
        <time>1970-01-11T02:00:12Z</time>
      </trkpt>
      <trkpt lat="42.325204" lon="-8.026577">
        <ele>77.608</ele>
        <time>1970-01-11T02:00:12Z</time>
      </trkpt>
      <trkpt lat="42.325189" lon="-8.026317">
        <ele>77.687</ele>
        <time>1970-01-11T02:00:12Z</time>
      </trkpt>
      <trkpt lat="42.325204" lon="-8.026040">
        <ele>77.454</ele>
        <time>1970-01-11T02:00:12Z</time>
      </trkpt>
      <trkpt lat="42.325287" lon="-8.025469">
        <ele>77.280</ele>
        <time>1970-01-11T02:00:12Z</time>
      </trkpt>
      <trkpt lat="42.325399" lon="-8.024948">
        <ele>77.858</ele>
        <time>1970-01-11T02:00:12Z</time>
      </trkpt>
      <trkpt lat="42.325476" lon="-8.024700">
        <ele>78.647</ele>
        <time>1970-01-11T02:00:12Z</time>
      </trkpt>
      <trkpt lat="42.325543" lon="-8.024551">
        <ele>79.292</ele>
        <time>1970-01-11T02:00:12Z</time>
      </trkpt>
      <trkpt lat="42.325578" lon="-8.024481">
        <ele>79.410</ele>
        <time>1970-01-11T02:00:12Z</time>
      </trkpt>
      <trkpt lat="42.325744" lon="-8.024130">
        <ele>80.239</ele>
        <time>1970-01-11T02:00:12Z</time>
      </trkpt>
      <trkpt lat="42.325816" lon="-8.023977">
        <ele>80.872</ele>
        <time>1970-01-11T02:00:12Z</time>
      </trkpt>
      <trkpt lat="42.326010" lon="-8.023536">
        <ele>80.813</ele>
        <time>1970-01-11T02:00:12Z</time>
      </trkpt>
      <trkpt lat="42.326040" lon="-8.023429">
        <ele>80.614</ele>
        <time>1970-01-11T02:00:12Z</time>
      </trkpt>
      <trkpt lat="42.326077" lon="-8.023324">
        <ele>80.208</ele>
        <time>1970-01-11T02:00:12Z</time>
      </trkpt>
      <trkpt lat="42.326182" lon="-8.023134">
        <ele>79.438</ele>
        <time>1970-01-11T02:00:12Z</time>
      </trkpt>
      <trkpt lat="42.326237" lon="-8.023045">
        <ele>78.825</ele>
        <time>1970-01-11T02:00:12Z</time>
      </trkpt>
      <trkpt lat="42.326281" lon="-8.022946">
        <ele>78.271</ele>
        <time>1970-01-11T02:00:12Z</time>
      </trkpt>
      <trkpt lat="42.326309" lon="-8.022836">
        <ele>77.819</ele>
        <time>1970-01-11T02:00:12Z</time>
      </trkpt>
      <trkpt lat="42.326323" lon="-8.022724">
        <ele>77.628</ele>
        <time>1970-01-11T02:00:12Z</time>
      </trkpt>
      <trkpt lat="42.326333" lon="-8.022504">
        <ele>77.463</ele>
        <time>1970-01-11T02:00:12Z</time>
      </trkpt>
      <trkpt lat="42.326345" lon="-8.022401">
        <ele>77.441</ele>
        <time>1970-01-11T02:00:12Z</time>
      </trkpt>
      <trkpt lat="42.326362" lon="-8.022301">
        <ele>77.470</ele>
        <time>1970-01-11T02:00:12Z</time>
      </trkpt>
      <trkpt lat="42.326505" lon="-8.021740">
        <ele>77.486</ele>
        <time>1970-01-11T02:00:12Z</time>
      </trkpt>
      <trkpt lat="42.326518" lon="-8.021385">
        <ele>77.660</ele>
        <time>1970-01-11T02:00:12Z</time>
      </trkpt>
      <trkpt lat="42.326516" lon="-8.021193">
        <ele>77.626</ele>
        <time>1970-01-11T02:00:12Z</time>
      </trkpt>
      <trkpt lat="42.326553" lon="-8.021003">
        <ele>77.608</ele>
        <time>1970-01-11T02:00:12Z</time>
      </trkpt>
      <trkpt lat="42.326616" lon="-8.020817">
        <ele>77.649</ele>
        <time>1970-01-11T02:00:12Z</time>
      </trkpt>
      <trkpt lat="42.326725" lon="-8.020434">
        <ele>77.626</ele>
        <time>1970-01-11T02:00:12Z</time>
      </trkpt>
      <trkpt lat="42.326872" lon="-8.019807">
        <ele>77.482</ele>
        <time>1970-01-11T02:00:12Z</time>
      </trkpt>
      <trkpt lat="42.327063" lon="-8.019569">
        <ele>77.470</ele>
        <time>1970-01-11T02:00:12Z</time>
      </trkpt>
      <trkpt lat="42.327166" lon="-8.019454">
        <ele>77.499</ele>
        <time>1970-01-11T02:00:12Z</time>
      </trkpt>
      <trkpt lat="42.327240" lon="-8.019318">
        <ele>77.434</ele>
        <time>1970-01-11T02:00:12Z</time>
      </trkpt>
      <trkpt lat="42.327308" lon="-8.019075">
        <ele>77.612</ele>
        <time>1970-01-11T02:00:12Z</time>
      </trkpt>
      <trkpt lat="42.327330" lon="-8.018986">
        <ele>77.641</ele>
        <time>1970-01-11T02:00:12Z</time>
      </trkpt>
      <trkpt lat="42.327385" lon="-8.018810">
        <ele>77.647</ele>
        <time>1970-01-11T02:00:12Z</time>
      </trkpt>
      <trkpt lat="42.327490" lon="-8.018564">
        <ele>77.429</ele>
        <time>1970-01-11T02:00:12Z</time>
      </trkpt>
      <trkpt lat="42.327685" lon="-8.018051">
        <ele>77.221</ele>
        <time>1970-01-11T02:00:12Z</time>
      </trkpt>
      <trkpt lat="42.327896" lon="-8.017540">
        <ele>77.208</ele>
        <time>1970-01-11T02:00:12Z</time>
      </trkpt>
      <trkpt lat="42.327946" lon="-8.017473">
        <ele>77.265</ele>
        <time>1970-01-11T02:00:12Z</time>
      </trkpt>
      <trkpt lat="42.328142" lon="-8.017411">
        <ele>77.432</ele>
        <time>1970-01-11T02:00:12Z</time>
      </trkpt>
      <trkpt lat="42.328211" lon="-8.017420">
        <ele>77.658</ele>
        <time>1970-01-11T02:00:12Z</time>
      </trkpt>
      <trkpt lat="42.328504" lon="-8.017412">
        <ele>77.646</ele>
        <time>1970-01-11T02:00:12Z</time>
      </trkpt>
      <trkpt lat="42.328569" lon="-8.017380">
        <ele>77.685</ele>
        <time>1970-01-11T02:00:12Z</time>
      </trkpt>
      <trkpt lat="42.328861" lon="-8.017161">
        <ele>77.410</ele>
        <time>1970-01-11T02:00:12Z</time>
      </trkpt>
      <trkpt lat="42.328902" lon="-8.017099">
        <ele>77.428</ele>
        <time>1970-01-11T02:00:12Z</time>
      </trkpt>
      <trkpt lat="42.329002" lon="-8.016805">
        <ele>77.627</ele>
        <time>1970-01-11T02:00:12Z</time>
      </trkpt>
      <trkpt lat="42.329106" lon="-8.016323">
        <ele>77.617</ele>
        <time>1970-01-11T02:00:12Z</time>
      </trkpt>
      <trkpt lat="42.329157" lon="-8.016077">
        <ele>77.687</ele>
        <time>1970-01-11T02:00:12Z</time>
      </trkpt>
      <trkpt lat="42.329201" lon="-8.016016">
        <ele>77.615</ele>
        <time>1970-01-11T02:00:12Z</time>
      </trkpt>
      <trkpt lat="42.329433" lon="-8.015789">
        <ele>77.608</ele>
        <time>1970-01-11T02:00:12Z</time>
      </trkpt>
      <trkpt lat="42.329609" lon="-8.015463">
        <ele>77.462</ele>
        <time>1970-01-11T02:00:12Z</time>
      </trkpt>
      <trkpt lat="42.329654" lon="-8.015383">
        <ele>77.419</ele>
        <time>1970-01-11T02:00:12Z</time>
      </trkpt>
      <trkpt lat="42.329812" lon="-8.015188">
        <ele>77.635</ele>
        <time>1970-01-11T02:00:12Z</time>
      </trkpt>
      <trkpt lat="42.330044" lon="-8.014978">
        <ele>77.433</ele>
        <time>1970-01-11T02:00:12Z</time>
      </trkpt>
      <trkpt lat="42.330176" lon="-8.014905">
        <ele>77.442</ele>
        <time>1970-01-11T02:00:12Z</time>
      </trkpt>
      <trkpt lat="42.330486" lon="-8.014668">
        <ele>77.437</ele>
        <time>1970-01-11T02:00:12Z</time>
      </trkpt>
      <trkpt lat="42.330637" lon="-8.014489">
        <ele>77.215</ele>
        <time>1970-01-11T02:00:12Z</time>
      </trkpt>
      <trkpt lat="42.330747" lon="-8.014401">
        <ele>77.294</ele>
        <time>1970-01-11T02:00:12Z</time>
      </trkpt>
      <trkpt lat="42.331117" lon="-8.014145">
        <ele>77.245</ele>
        <time>1970-01-11T02:00:12Z</time>
      </trkpt>
      <trkpt lat="42.331172" lon="-8.014085">
        <ele>77.047</ele>
        <time>1970-01-11T02:00:12Z</time>
      </trkpt>
      <trkpt lat="42.331308" lon="-8.013861">
        <ele>77.011</ele>
        <time>1970-01-11T02:00:12Z</time>
      </trkpt>
      <trkpt lat="42.331542" lon="-8.013525">
        <ele>77.008</ele>
        <time>1970-01-11T02:00:12Z</time>
      </trkpt>
      <trkpt lat="42.331578" lon="-8.013447">
        <ele>77.035</ele>
        <time>1970-01-11T02:00:12Z</time>
      </trkpt>
      <trkpt lat="42.331665" lon="-8.013206">
        <ele>77.082</ele>
        <time>1970-01-11T02:00:12Z</time>
      </trkpt>
      <trkpt lat="42.331731" lon="-8.013059">
        <ele>77.028</ele>
        <time>1970-01-11T02:00:12Z</time>
      </trkpt>
      <trkpt lat="42.331831" lon="-8.012975">
        <ele>77.026</ele>
        <time>1970-01-11T02:00:12Z</time>
      </trkpt>
      <trkpt lat="42.332008" lon="-8.012897">
        <ele>76.865</ele>
        <time>1970-01-11T02:00:12Z</time>
      </trkpt>
      <trkpt lat="42.332124" lon="-8.012829">
        <ele>77.090</ele>
        <time>1970-01-11T02:00:12Z</time>
      </trkpt>
      <trkpt lat="42.332231" lon="-8.012733">
        <ele>77.248</ele>
        <time>1970-01-11T02:00:12Z</time>
      </trkpt>
      <trkpt lat="42.332328" lon="-8.012603">
        <ele>77.247</ele>
        <time>1970-01-11T02:00:12Z</time>
      </trkpt>
      <trkpt lat="42.332404" lon="-8.012458">
        <ele>77.219</ele>
        <time>1970-01-11T02:00:12Z</time>
      </trkpt>
      <trkpt lat="42.332494" lon="-8.012327">
        <ele>77.009</ele>
        <time>1970-01-11T02:00:12Z</time>
      </trkpt>
      <trkpt lat="42.332551" lon="-8.012281">
        <ele>77.019</ele>
        <time>1970-01-11T02:00:12Z</time>
      </trkpt>
      <trkpt lat="42.332743" lon="-8.012245">
        <ele>77.208</ele>
        <time>1970-01-11T02:00:12Z</time>
      </trkpt>
      <trkpt lat="42.332810" lon="-8.012251">
        <ele>77.252</ele>
        <time>1970-01-11T02:00:12Z</time>
      </trkpt>
      <trkpt lat="42.333004" lon="-8.012289">
        <ele>77.459</ele>
        <time>1970-01-11T02:00:12Z</time>
      </trkpt>
      <trkpt lat="42.333063" lon="-8.012326">
        <ele>77.455</ele>
        <time>1970-01-11T02:00:12Z</time>
      </trkpt>
      <trkpt lat="42.333210" lon="-8.012490">
        <ele>77.693</ele>
        <time>1970-01-11T02:00:12Z</time>
      </trkpt>
      <trkpt lat="42.333266" lon="-8.012532">
        <ele>77.892</ele>
        <time>1970-01-11T02:00:12Z</time>
      </trkpt>
      <trkpt lat="42.333511" lon="-8.012582">
        <ele>77.827</ele>
        <time>1970-01-11T02:00:12Z</time>
      </trkpt>
      <trkpt lat="42.333578" lon="-8.012574">
        <ele>77.885</ele>
        <time>1970-01-11T02:00:12Z</time>
      </trkpt>
      <trkpt lat="42.333781" lon="-8.012497">
        <ele>77.674</ele>
        <time>1970-01-11T02:00:12Z</time>
      </trkpt>
      <trkpt lat="42.333904" lon="-8.012449">
        <ele>77.614</ele>
        <time>1970-01-11T02:00:12Z</time>
      </trkpt>
      <trkpt lat="42.334013" lon="-8.012473">
        <ele>77.454</ele>
        <time>1970-01-11T02:00:12Z</time>
      </trkpt>
      <trkpt lat="42.334170" lon="-8.012513">
        <ele>77.409</ele>
        <time>1970-01-11T02:00:12Z</time>
      </trkpt>
      <trkpt lat="42.334283" lon="-8.012485">
        <ele>77.408</ele>
        <time>1970-01-11T02:00:12Z</time>
      </trkpt>
      <trkpt lat="42.334392" lon="-8.012432">
        <ele>77.432</ele>
        <time>1970-01-11T02:00:12Z</time>
      </trkpt>
      <trkpt lat="42.334563" lon="-8.012326">
        <ele>77.449</ele>
        <time>1970-01-11T02:00:12Z</time>
      </trkpt>
      <trkpt lat="42.334674" lon="-8.012232">
        <ele>77.285</ele>
        <time>1970-01-11T02:00:12Z</time>
      </trkpt>
      <trkpt lat="42.334844" lon="-8.012085">
        <ele>77.213</ele>
        <time>1970-01-11T02:00:12Z</time>
      </trkpt>
      <trkpt lat="42.335246" lon="-8.011796">
        <ele>77.232</ele>
        <time>1970-01-11T02:00:12Z</time>
      </trkpt>
      <trkpt lat="42.335359" lon="-8.011717">
        <ele>77.257</ele>
        <time>1970-01-11T02:00:12Z</time>
      </trkpt>
      <trkpt lat="42.335526" lon="-8.011614">
        <ele>77.235</ele>
        <time>1970-01-11T02:00:12Z</time>
      </trkpt>
      <trkpt lat="42.335684" lon="-8.011399">
        <ele>77.484</ele>
        <time>1970-01-11T02:00:12Z</time>
      </trkpt>
      <trkpt lat="42.335795" lon="-8.011258">
        <ele>77.495</ele>
        <time>1970-01-11T02:00:12Z</time>
      </trkpt>
      <trkpt lat="42.335841" lon="-8.011225">
        <ele>77.449</ele>
        <time>1970-01-11T02:00:12Z</time>
      </trkpt>
      <trkpt lat="42.336119" lon="-8.011074">
        <ele>77.423</ele>
        <time>1970-01-11T02:00:12Z</time>
      </trkpt>
      <trkpt lat="42.336456" lon="-8.010959">
        <ele>77.208</ele>
        <time>1970-01-11T02:00:12Z</time>
      </trkpt>
      <trkpt lat="42.336502" lon="-8.010941">
        <ele>77.210</ele>
        <time>1970-01-11T02:00:12Z</time>
      </trkpt>
      <trkpt lat="42.336813" lon="-8.010852">
        <ele>77.297</ele>
        <time>1970-01-11T02:00:12Z</time>
      </trkpt>
      <trkpt lat="42.337279" lon="-8.010735">
        <ele>77.483</ele>
        <time>1970-01-11T02:00:12Z</time>
      </trkpt>
      <trkpt lat="42.337619" lon="-8.010655">
        <ele>77.231</ele>
        <time>1970-01-11T02:00:12Z</time>
      </trkpt>
      <trkpt lat="42.337675" lon="-8.010659">
        <ele>77.230</ele>
        <time>1970-01-11T02:00:12Z</time>
      </trkpt>
      <trkpt lat="42.337835" lon="-8.010667">
        <ele>77.445</ele>
        <time>1970-01-11T02:00:12Z</time>
      </trkpt>
      <trkpt lat="42.337993" lon="-8.010648">
        <ele>77.493</ele>
        <time>1970-01-11T02:00:12Z</time>
      </trkpt>
      <trkpt lat="42.338099" lon="-8.010623">
        <ele>77.492</ele>
        <time>1970-01-11T02:00:12Z</time>
      </trkpt>
      <trkpt lat="42.338262" lon="-8.010565">
        <ele>77.434</ele>
        <time>1970-01-11T02:00:12Z</time>
      </trkpt>
      <trkpt lat="42.338513" lon="-8.010504">
        <ele>77.655</ele>
        <time>1970-01-11T02:00:12Z</time>
      </trkpt>
      <trkpt lat="42.338650" lon="-8.010480">
        <ele>77.610</ele>
        <time>1970-01-11T02:00:12Z</time>
      </trkpt>
      <trkpt lat="42.339022" lon="-8.010394">
        <ele>78.008</ele>
        <time>1970-01-11T02:00:12Z</time>
      </trkpt>
      <trkpt lat="42.339097" lon="-8.010380">
        <ele>78.074</ele>
        <time>1970-01-11T02:00:12Z</time>
      </trkpt>
      <trkpt lat="42.339467" lon="-8.010268">
        <ele>78.041</ele>
        <time>1970-01-11T02:00:12Z</time>
      </trkpt>
      <trkpt lat="42.339537" lon="-8.010239">
        <ele>78.057</ele>
        <time>1970-01-11T02:00:12Z</time>
      </trkpt>
      <trkpt lat="42.339904" lon="-8.010074">
        <ele>78.035</ele>
        <time>1970-01-11T02:00:12Z</time>
      </trkpt>
      <trkpt lat="42.340161" lon="-8.009940">
        <ele>77.884</ele>
        <time>1970-01-11T02:00:12Z</time>
      </trkpt>
      <trkpt lat="42.340260" lon="-8.009880">
        <ele>77.879</ele>
        <time>1970-01-11T02:00:12Z</time>
      </trkpt>
      <trkpt lat="42.340582" lon="-8.009701">
        <ele>77.647</ele>
        <time>1970-01-11T02:00:12Z</time>
      </trkpt>
      <trkpt lat="42.340736" lon="-8.009629">
        <ele>77.686</ele>
        <time>1970-01-11T02:00:12Z</time>
      </trkpt>
      <trkpt lat="42.340759" lon="-8.009654">
        <ele>77.617</ele>
        <time>1970-01-11T02:00:12Z</time>
      </trkpt>
      <trkpt lat="42.340806" lon="-8.009754">
        <ele>77.687</ele>
        <time>1970-01-11T02:00:12Z</time>
      </trkpt>
      <trkpt lat="42.340830" lon="-8.009805">
        <ele>77.415</ele>
        <time>1970-01-11T02:00:12Z</time>
      </trkpt>
      <trkpt lat="42.340859" lon="-8.009841">
        <ele>77.408</ele>
        <time>1970-01-11T02:00:12Z</time>
      </trkpt>
      <trkpt lat="42.340872" lon="-8.009829">
        <ele>77.642</ele>
        <time>1970-01-11T02:00:12Z</time>
      </trkpt>
      <trkpt lat="42.340962" lon="-8.009792">
        <ele>78.639</ele>
        <time>1970-01-11T02:00:12Z</time>
      </trkpt>
      <trkpt lat="42.340985" lon="-8.009941">
        <ele>79.085</ele>
        <time>1970-01-11T02:00:12Z</time>
      </trkpt>
      <trkpt lat="42.340983" lon="-8.009982">
        <ele>79.073</ele>
        <time>1970-01-11T02:00:12Z</time>
      </trkpt>
      <trkpt lat="42.340960" lon="-8.010081">
        <ele>79.212</ele>
        <time>1970-01-11T02:00:12Z</time>
      </trkpt>
      <trkpt lat="42.340950" lon="-8.010122">
        <ele>79.877</ele>
        <time>1970-01-11T02:00:12Z</time>
      </trkpt>
      <trkpt lat="42.340942" lon="-8.010165">
        <ele>80.075</ele>
        <time>1970-01-11T02:00:12Z</time>
      </trkpt>
      <trkpt lat="42.340880" lon="-8.010305">
        <ele>81.214</ele>
        <time>1970-01-11T02:00:13Z</time>
      </trkpt>
      <trkpt lat="42.340867" lon="-8.010343">
        <ele>81.235</ele>
        <time>1970-01-11T02:00:13Z</time>
      </trkpt>
      <trkpt lat="42.340864" lon="-8.010377">
        <ele>81.486</ele>
        <time>1970-01-11T02:00:13Z</time>
      </trkpt>
      <trkpt lat="42.340892" lon="-8.010464">
        <ele>81.814</ele>
        <time>1970-01-11T02:00:13Z</time>
      </trkpt>
      <trkpt lat="42.340932" lon="-8.010538">
        <ele>82.208</ele>
        <time>1970-01-11T02:00:13Z</time>
      </trkpt>
      <trkpt lat="42.340949" lon="-8.010570">
        <ele>82.414</ele>
        <time>1970-01-11T02:00:13Z</time>
      </trkpt>
      <trkpt lat="42.340970" lon="-8.010624">
        <ele>83.651</ele>
        <time>1970-01-11T02:00:13Z</time>
      </trkpt>
      <trkpt lat="42.340970" lon="-8.010630">
        <ele>84.047</ele>
        <time>1970-01-11T02:00:13Z</time>
      </trkpt>
      <trkpt lat="42.340971" lon="-8.010640">
        <ele>84.625</ele>
        <time>1970-01-11T02:00:13Z</time>
      </trkpt>
      <trkpt lat="42.340966" lon="-8.010658">
        <ele>85.434</ele>
        <time>1970-01-11T02:00:13Z</time>
      </trkpt>
      <trkpt lat="42.340963" lon="-8.010671">
        <ele>85.859</ele>
        <time>1970-01-11T02:00:13Z</time>
      </trkpt>
      <trkpt lat="42.340985" lon="-8.010728">
        <ele>86.657</ele>
        <time>1970-01-11T02:00:13Z</time>
      </trkpt>
      <trkpt lat="42.340984" lon="-8.010778">
        <ele>86.866</ele>
        <time>1970-01-11T02:00:13Z</time>
      </trkpt>
      <trkpt lat="42.340975" lon="-8.010807">
        <ele>86.886</ele>
        <time>1970-01-11T02:00:13Z</time>
      </trkpt>
      <trkpt lat="42.340946" lon="-8.010860">
        <ele>86.860</ele>
        <time>1970-01-11T02:00:13Z</time>
      </trkpt>
      <trkpt lat="42.340894" lon="-8.010928">
        <ele>87.426</ele>
        <time>1970-01-11T02:00:13Z</time>
      </trkpt>
      <trkpt lat="42.340861" lon="-8.010955">
        <ele>88.008</ele>
        <time>1970-01-11T02:00:13Z</time>
      </trkpt>
      <trkpt lat="42.340843" lon="-8.010967">
        <ele>88.279</ele>
        <time>1970-01-11T02:00:13Z</time>
      </trkpt>
      <trkpt lat="42.340803" lon="-8.010988">
        <ele>89.076</ele>
        <time>1970-01-11T02:00:13Z</time>
      </trkpt>
      <trkpt lat="42.340765" lon="-8.010974">
        <ele>89.672</ele>
        <time>1970-01-11T02:00:13Z</time>
      </trkpt>
      <trkpt lat="42.340734" lon="-8.010955">
        <ele>90.070</ele>
        <time>1970-01-11T02:00:13Z</time>
      </trkpt>
      <trkpt lat="42.340696" lon="-8.010921">
        <ele>90.869</ele>
        <time>1970-01-11T02:00:13Z</time>
      </trkpt>
      <trkpt lat="42.340690" lon="-8.010899">
        <ele>91.224</ele>
        <time>1970-01-11T02:00:13Z</time>
      </trkpt>
      <trkpt lat="42.340691" lon="-8.010860">
        <ele>91.442</ele>
        <time>1970-01-11T02:00:13Z</time>
      </trkpt>
      <trkpt lat="42.340703" lon="-8.010846">
        <ele>91.061</ele>
        <time>1970-01-11T02:00:13Z</time>
      </trkpt>
      <trkpt lat="42.340756" lon="-8.010794">
        <ele>91.078</ele>
        <time>1970-01-11T02:00:13Z</time>
      </trkpt>
      <trkpt lat="42.340821" lon="-8.010723">
        <ele>90.833</ele>
        <time>1970-01-11T02:00:13Z</time>
      </trkpt>
      <trkpt lat="42.340855" lon="-8.010639">
        <ele>90.426</ele>
        <time>1970-01-11T02:00:13Z</time>
      </trkpt>
      <trkpt lat="42.340902" lon="-8.010580">
        <ele>90.008</ele>
        <time>1970-01-11T02:00:13Z</time>
      </trkpt>
      <trkpt lat="42.340986" lon="-8.010520">
        <ele>90.098</ele>
        <time>1970-01-11T02:00:13Z</time>
      </trkpt>
      <trkpt lat="42.341014" lon="-8.010496">
        <ele>90.075</ele>
        <time>1970-01-11T02:00:13Z</time>
      </trkpt>
      <trkpt lat="42.341201" lon="-8.010350">
        <ele>90.481</ele>
        <time>1970-01-11T02:00:13Z</time>
      </trkpt>
      <trkpt lat="42.341260" lon="-8.010292">
        <ele>90.659</ele>
        <time>1970-01-11T02:00:13Z</time>
      </trkpt>
      <trkpt lat="42.341376" lon="-8.010164">
        <ele>90.858</ele>
        <time>1970-01-11T02:00:13Z</time>
      </trkpt>
      <trkpt lat="42.341434" lon="-8.010101">
        <ele>91.233</ele>
        <time>1970-01-11T02:00:13Z</time>
      </trkpt>
      <trkpt lat="42.341556" lon="-8.009942">
        <ele>92.031</ele>
        <time>1970-01-11T02:00:13Z</time>
      </trkpt>
      <trkpt lat="42.341572" lon="-8.009918">
        <ele>92.210</ele>
        <time>1970-01-11T02:00:13Z</time>
      </trkpt>
      <trkpt lat="42.341638" lon="-8.009820">
        <ele>92.879</ele>
        <time>1970-01-11T02:00:13Z</time>
      </trkpt>
      <trkpt lat="42.341662" lon="-8.009785">
        <ele>93.405</ele>
        <time>1970-01-11T02:00:13Z</time>
      </trkpt>
      <trkpt lat="42.341663" lon="-8.009785">
        <ele>93.625</ele>
        <time>1970-01-11T02:00:13Z</time>
      </trkpt>
      <trkpt lat="42.341676" lon="-8.009759">
        <ele>93.608</ele>
        <time>1970-01-11T02:00:13Z</time>
      </trkpt>
      <trkpt lat="42.341695" lon="-8.009740">
        <ele>93.688</ele>
        <time>1970-01-11T02:00:13Z</time>
      </trkpt>
      <trkpt lat="42.341823" lon="-8.009591">
        <ele>93.835</ele>
        <time>1970-01-11T02:00:13Z</time>
      </trkpt>
      <trkpt lat="42.341911" lon="-8.009485">
        <ele>94.431</ele>
        <time>1970-01-11T02:00:13Z</time>
      </trkpt>
      <trkpt lat="42.342093" lon="-8.009290">
        <ele>95.639</ele>
        <time>1970-01-11T02:00:13Z</time>
      </trkpt>
      <trkpt lat="42.342126" lon="-8.009260">
        <ele>95.848</ele>
        <time>1970-01-11T02:00:13Z</time>
      </trkpt>
      <trkpt lat="42.342297" lon="-8.009109">
        <ele>96.843</ele>
        <time>1970-01-11T02:00:13Z</time>
      </trkpt>
      <trkpt lat="42.342362" lon="-8.009053">
        <ele>97.221</ele>
        <time>1970-01-11T02:00:13Z</time>
      </trkpt>
      <trkpt lat="42.342464" lon="-8.008978">
        <ele>97.810</ele>
        <time>1970-01-11T02:00:13Z</time>
      </trkpt>
      <trkpt lat="42.342636" lon="-8.008848">
        <ele>99.035</ele>
        <time>1970-01-11T02:00:13Z</time>
      </trkpt>
      <trkpt lat="42.342707" lon="-8.008797">
        <ele>99.686</ele>
        <time>1970-01-11T02:00:13Z</time>
      </trkpt>
      <trkpt lat="42.342781" lon="-8.008745">
        <ele>100.214</ele>
        <time>1970-01-11T02:00:13Z</time>
      </trkpt>
      <trkpt lat="42.343017" lon="-8.008581">
        <ele>101.208</ele>
        <time>1970-01-11T02:00:13Z</time>
      </trkpt>
      <trkpt lat="42.343058" lon="-8.008551">
        <ele>101.234</ele>
        <time>1970-01-11T02:00:13Z</time>
      </trkpt>
      <trkpt lat="42.343434" lon="-8.008291">
        <ele>101.681</ele>
        <time>1970-01-11T02:00:13Z</time>
      </trkpt>
      <trkpt lat="42.343831" lon="-8.008034">
        <ele>101.477</ele>
        <time>1970-01-11T02:00:13Z</time>
      </trkpt>
      <trkpt lat="42.344322" lon="-8.007745">
        <ele>101.015</ele>
        <time>1970-01-11T02:00:13Z</time>
      </trkpt>
      <trkpt lat="42.344633" lon="-8.007565">
        <ele>100.054</ele>
        <time>1970-01-11T02:00:13Z</time>
      </trkpt>
      <trkpt lat="42.344870" lon="-8.007424">
        <ele>98.689</ele>
        <time>1970-01-11T02:00:13Z</time>
      </trkpt>
      <trkpt lat="42.344951" lon="-8.007377">
        <ele>98.217</ele>
        <time>1970-01-11T02:00:13Z</time>
      </trkpt>
      <trkpt lat="42.345191" lon="-8.007253">
        <ele>97.496</ele>
        <time>1970-01-11T02:00:13Z</time>
      </trkpt>
      <trkpt lat="42.345258" lon="-8.007196">
        <ele>97.296</ele>
        <time>1970-01-11T02:00:13Z</time>
      </trkpt>
      <trkpt lat="42.345327" lon="-8.007140">
        <ele>96.831</ele>
        <time>1970-01-11T02:00:13Z</time>
      </trkpt>
      <trkpt lat="42.345400" lon="-8.007090">
        <ele>96.224</ele>
        <time>1970-01-11T02:00:13Z</time>
      </trkpt>
      <trkpt lat="42.345768" lon="-8.006864">
        <ele>95.408</ele>
        <time>1970-01-11T02:00:13Z</time>
      </trkpt>
      <trkpt lat="42.346259" lon="-8.006541">
        <ele>95.840</ele>
        <time>1970-01-11T02:00:13Z</time>
      </trkpt>
      <trkpt lat="42.346329" lon="-8.006495">
        <ele>95.887</ele>
        <time>1970-01-11T02:00:13Z</time>
      </trkpt>
      <trkpt lat="42.346843" lon="-8.006153">
        <ele>95.693</ele>
        <time>1970-01-11T02:00:13Z</time>
      </trkpt>
      <trkpt lat="42.346919" lon="-8.006103">
        <ele>95.641</ele>
        <time>1970-01-11T02:00:13Z</time>
      </trkpt>
      <trkpt lat="42.347224" lon="-8.005893">
        <ele>95.480</ele>
        <time>1970-01-11T02:00:13Z</time>
      </trkpt>
      <trkpt lat="42.347301" lon="-8.005841">
        <ele>95.055</ele>
        <time>1970-01-11T02:00:13Z</time>
      </trkpt>
      <trkpt lat="42.347613" lon="-8.005638">
        <ele>94.623</ele>
        <time>1970-01-11T02:00:13Z</time>
      </trkpt>
      <trkpt lat="42.347924" lon="-8.005394">
        <ele>93.872</ele>
        <time>1970-01-11T02:00:13Z</time>
      </trkpt>
      <trkpt lat="42.348143" lon="-8.005176">
        <ele>93.212</ele>
        <time>1970-01-11T02:00:13Z</time>
      </trkpt>
      <trkpt lat="42.348274" lon="-8.005020">
        <ele>92.632</ele>
        <time>1970-01-11T02:00:13Z</time>
      </trkpt>
      <trkpt lat="42.348523" lon="-8.004697">
        <ele>91.605</ele>
        <time>1970-01-11T02:00:13Z</time>
      </trkpt>
      <trkpt lat="42.348807" lon="-8.004255">
        <ele>91.208</ele>
        <time>1970-01-11T02:00:13Z</time>
      </trkpt>
      <trkpt lat="42.348954" lon="-8.003999">
        <ele>90.422</ele>
        <time>1970-01-11T02:00:13Z</time>
      </trkpt>
      <trkpt lat="42.349226" lon="-8.003486">
        <ele>89.889</ele>
        <time>1970-01-11T02:00:13Z</time>
      </trkpt>
      <trkpt lat="42.349310" lon="-8.003315">
        <ele>89.635</ele>
        <time>1970-01-11T02:00:13Z</time>
      </trkpt>
      <trkpt lat="42.349542" lon="-8.002821">
        <ele>89.873</ele>
        <time>1970-01-11T02:00:13Z</time>
      </trkpt>
      <trkpt lat="42.349573" lon="-8.002742">
        <ele>90.012</ele>
        <time>1970-01-11T02:00:13Z</time>
      </trkpt>
      <trkpt lat="42.349714" lon="-8.002331">
        <ele>90.827</ele>
        <time>1970-01-11T02:00:13Z</time>
      </trkpt>
      <trkpt lat="42.349760" lon="-8.002162">
        <ele>91.045</ele>
        <time>1970-01-11T02:00:13Z</time>
      </trkpt>
      <trkpt lat="42.349829" lon="-8.001844">
        <ele>91.644</ele>
        <time>1970-01-11T02:00:13Z</time>
      </trkpt>
      <trkpt lat="42.349850" lon="-8.001690">
        <ele>92.095</ele>
        <time>1970-01-11T02:00:13Z</time>
      </trkpt>
      <trkpt lat="42.349863" lon="-8.001458">
        <ele>92.449</ele>
        <time>1970-01-11T02:00:13Z</time>
      </trkpt>
      <trkpt lat="42.349862" lon="-8.001382">
        <ele>92.623</ele>
        <time>1970-01-11T02:00:13Z</time>
      </trkpt>
      <trkpt lat="42.349842" lon="-8.001153">
        <ele>93.208</ele>
        <time>1970-01-11T02:00:13Z</time>
      </trkpt>
      <trkpt lat="42.349819" lon="-8.000997">
        <ele>93.890</ele>
        <time>1970-01-11T02:00:13Z</time>
      </trkpt>
      <trkpt lat="42.349786" lon="-8.000698">
        <ele>94.887</ele>
        <time>1970-01-11T02:00:13Z</time>
      </trkpt>
      <trkpt lat="42.349779" lon="-8.000629">
        <ele>95.033</ele>
        <time>1970-01-11T02:00:13Z</time>
      </trkpt>
      <trkpt lat="42.349739" lon="-8.000359">
        <ele>96.041</ele>
        <time>1970-01-11T02:00:13Z</time>
      </trkpt>
      <trkpt lat="42.349720" lon="-8.000227">
        <ele>96.890</ele>
        <time>1970-01-11T02:00:13Z</time>
      </trkpt>
      <trkpt lat="42.349708" lon="-8.000158">
        <ele>97.095</ele>
        <time>1970-01-11T02:00:13Z</time>
      </trkpt>
      <trkpt lat="42.349651" lon="-7.999836">
        <ele>98.063</ele>
        <time>1970-01-11T02:00:13Z</time>
      </trkpt>
      <trkpt lat="42.349640" lon="-7.999773">
        <ele>98.282</ele>
        <time>1970-01-11T02:00:13Z</time>
      </trkpt>
      <trkpt lat="42.349607" lon="-7.999590">
        <ele>99.262</ele>
        <time>1970-01-11T02:00:13Z</time>
      </trkpt>
      <trkpt lat="42.349577" lon="-7.999337">
        <ele>100.083</ele>
        <time>1970-01-11T02:00:13Z</time>
      </trkpt>
      <trkpt lat="42.349569" lon="-7.999276">
        <ele>100.211</ele>
        <time>1970-01-11T02:00:13Z</time>
      </trkpt>
      <trkpt lat="42.349531" lon="-7.998969">
        <ele>101.408</ele>
        <time>1970-01-11T02:00:13Z</time>
      </trkpt>
      <trkpt lat="42.349502" lon="-7.998713">
        <ele>102.647</ele>
        <time>1970-01-11T02:00:13Z</time>
      </trkpt>
      <trkpt lat="42.349471" lon="-7.998362">
        <ele>103.614</ele>
        <time>1970-01-11T02:00:13Z</time>
      </trkpt>
      <trkpt lat="42.349454" lon="-7.998191">
        <ele>104.090</ele>
        <time>1970-01-11T02:00:13Z</time>
      </trkpt>
      <trkpt lat="42.349432" lon="-7.997959">
        <ele>104.838</ele>
        <time>1970-01-11T02:00:13Z</time>
      </trkpt>
      <trkpt lat="42.349387" lon="-7.997596">
        <ele>105.657</ele>
        <time>1970-01-11T02:00:13Z</time>
      </trkpt>
      <trkpt lat="42.349379" lon="-7.997532">
        <ele>105.832</ele>
        <time>1970-01-11T02:00:13Z</time>
      </trkpt>
      <trkpt lat="42.349319" lon="-7.997085">
        <ele>106.810</ele>
        <time>1970-01-11T02:00:13Z</time>
      </trkpt>
      <trkpt lat="42.349306" lon="-7.997019">
        <ele>106.819</ele>
        <time>1970-01-11T02:00:13Z</time>
      </trkpt>
      <trkpt lat="42.349201" lon="-7.996491">
        <ele>107.673</ele>
        <time>1970-01-11T02:00:13Z</time>
      </trkpt>
      <trkpt lat="42.349156" lon="-7.996286">
        <ele>107.885</ele>
        <time>1970-01-11T02:00:13Z</time>
      </trkpt>
      <trkpt lat="42.349035" lon="-7.995862">
        <ele>108.013</ele>
        <time>1970-01-11T02:00:13Z</time>
      </trkpt>
      <trkpt lat="42.348817" lon="-7.995152">
        <ele>108.408</ele>
        <time>1970-01-11T02:00:13Z</time>
      </trkpt>
      <trkpt lat="42.348724" lon="-7.994879">
        <ele>109.068</ele>
        <time>1970-01-11T02:00:13Z</time>
      </trkpt>
      <trkpt lat="42.348608" lon="-7.994543">
        <ele>109.845</ele>
        <time>1970-01-11T02:00:13Z</time>
      </trkpt>
      <trkpt lat="42.348583" lon="-7.994475">
        <ele>110.061</ele>
        <time>1970-01-11T02:00:13Z</time>
      </trkpt>
      <trkpt lat="42.348449" lon="-7.994055">
        <ele>110.839</ele>
        <time>1970-01-11T02:00:13Z</time>
      </trkpt>
      <trkpt lat="42.348426" lon="-7.993984">
        <ele>111.038</ele>
        <time>1970-01-11T02:00:13Z</time>
      </trkpt>
      <trkpt lat="42.348281" lon="-7.993549">
        <ele>111.813</ele>
        <time>1970-01-11T02:00:13Z</time>
      </trkpt>
      <trkpt lat="42.348183" lon="-7.993248">
        <ele>112.051</ele>
        <time>1970-01-11T02:00:13Z</time>
      </trkpt>
      <trkpt lat="42.348084" lon="-7.992916">
        <ele>112.020</ele>
        <time>1970-01-11T02:00:13Z</time>
      </trkpt>
      <trkpt lat="42.347879" lon="-7.992204">
        <ele>111.656</ele>
        <time>1970-01-11T02:00:13Z</time>
      </trkpt>
      <trkpt lat="42.347682" lon="-7.991510">
        <ele>111.459</ele>
        <time>1970-01-11T02:00:13Z</time>
      </trkpt>
      <trkpt lat="42.347637" lon="-7.991344">
        <ele>111.414</ele>
        <time>1970-01-11T02:00:13Z</time>
      </trkpt>
      <trkpt lat="42.347429" lon="-7.990579">
        <ele>112.208</ele>
        <time>1970-01-11T02:00:13Z</time>
      </trkpt>
      <trkpt lat="42.347385" lon="-7.990415">
        <ele>112.426</ele>
        <time>1970-01-11T02:00:13Z</time>
      </trkpt>
      <trkpt lat="42.347274" lon="-7.990030">
        <ele>113.253</ele>
        <time>1970-01-11T02:00:13Z</time>
      </trkpt>
      <trkpt lat="42.347207" lon="-7.989799">
        <ele>113.619</ele>
        <time>1970-01-11T02:00:13Z</time>
      </trkpt>
      <trkpt lat="42.347007" lon="-7.989092">
        <ele>114.267</ele>
        <time>1970-01-11T02:00:13Z</time>
      </trkpt>
      <trkpt lat="42.346984" lon="-7.989016">
        <ele>114.266</ele>
        <time>1970-01-11T02:00:13Z</time>
      </trkpt>
      <trkpt lat="42.346917" lon="-7.988773">
        <ele>114.651</ele>
        <time>1970-01-11T02:00:13Z</time>
      </trkpt>
      <trkpt lat="42.346726" lon="-7.988105">
        <ele>114.629</ele>
        <time>1970-01-11T02:00:13Z</time>
      </trkpt>
      <trkpt lat="42.346534" lon="-7.987418">
        <ele>113.828</ele>
        <time>1970-01-11T02:00:13Z</time>
      </trkpt>
      <trkpt lat="42.346489" lon="-7.987249">
        <ele>113.817</ele>
        <time>1970-01-11T02:00:13Z</time>
      </trkpt>
      <trkpt lat="42.346332" lon="-7.986553">
        <ele>113.687</ele>
        <time>1970-01-11T02:00:13Z</time>
      </trkpt>
      <trkpt lat="42.346305" lon="-7.986377">
        <ele>113.615</ele>
        <time>1970-01-11T02:00:13Z</time>
      </trkpt>
      <trkpt lat="42.346240" lon="-7.985594">
        <ele>113.608</ele>
        <time>1970-01-11T02:00:13Z</time>
      </trkpt>
      <trkpt lat="42.346196" lon="-7.984942">
        <ele>113.842</ele>
        <time>1970-01-11T02:00:13Z</time>
      </trkpt>
      <trkpt lat="42.346180" lon="-7.984601">
        <ele>114.249</ele>
        <time>1970-01-11T02:00:13Z</time>
      </trkpt>
      <trkpt lat="42.346160" lon="-7.984360">
        <ele>114.875</ele>
        <time>1970-01-11T02:00:13Z</time>
      </trkpt>
      <trkpt lat="42.346140" lon="-7.984120">
        <ele>115.483</ele>
        <time>1970-01-11T02:00:13Z</time>
      </trkpt>
      <trkpt lat="42.346098" lon="-7.983714">
        <ele>116.662</ele>
        <time>1970-01-11T02:00:13Z</time>
      </trkpt>
      <trkpt lat="42.346088" lon="-7.983634">
        <ele>116.887</ele>
        <time>1970-01-11T02:00:13Z</time>
      </trkpt>
      <trkpt lat="42.346036" lon="-7.983326">
        <ele>117.855</ele>
        <time>1970-01-11T02:00:13Z</time>
      </trkpt>
      <trkpt lat="42.345990" lon="-7.983109">
        <ele>118.494</ele>
        <time>1970-01-11T02:00:13Z</time>
      </trkpt>
      <trkpt lat="42.345971" lon="-7.983043">
        <ele>118.815</ele>
        <time>1970-01-11T02:00:13Z</time>
      </trkpt>
      <trkpt lat="42.345953" lon="-7.982978">
        <ele>119.065</ele>
        <time>1970-01-11T02:00:13Z</time>
      </trkpt>
      <trkpt lat="42.345826" lon="-7.982657">
        <ele>120.011</ele>
        <time>1970-01-11T02:00:13Z</time>
      </trkpt>
      <trkpt lat="42.345710" lon="-7.982454">
        <ele>121.408</ele>
        <time>1970-01-11T02:00:13Z</time>
      </trkpt>
      <trkpt lat="42.345656" lon="-7.982367">
        <ele>121.882</ele>
        <time>1970-01-11T02:00:13Z</time>
      </trkpt>
      <trkpt lat="42.345560" lon="-7.982262">
        <ele>122.419</ele>
        <time>1970-01-11T02:00:13Z</time>
      </trkpt>
      <trkpt lat="42.345468" lon="-7.982166">
        <ele>123.055</ele>
        <time>1970-01-11T02:00:13Z</time>
      </trkpt>
      <trkpt lat="42.345368" lon="-7.982082">
        <ele>123.633</ele>
        <time>1970-01-11T02:00:13Z</time>
      </trkpt>
      <trkpt lat="42.345213" lon="-7.981967">
        <ele>124.482</ele>
        <time>1970-01-11T02:00:13Z</time>
      </trkpt>
      <trkpt lat="42.345137" lon="-7.981916">
        <ele>124.837</ele>
        <time>1970-01-11T02:00:13Z</time>
      </trkpt>
      <trkpt lat="42.344988" lon="-7.981844">
        <ele>125.835</ele>
        <time>1970-01-11T02:00:13Z</time>
      </trkpt>
      <trkpt lat="42.344951" lon="-7.981828">
        <ele>126.024</ele>
        <time>1970-01-11T02:00:13Z</time>
      </trkpt>
      <trkpt lat="42.344839" lon="-7.981788">
        <ele>127.021</ele>
        <time>1970-01-11T02:00:13Z</time>
      </trkpt>
      <trkpt lat="42.344647" lon="-7.981732">
        <ele>128.041</ele>
        <time>1970-01-11T02:00:13Z</time>
      </trkpt>
      <trkpt lat="42.344608" lon="-7.981721">
        <ele>128.205</ele>
        <time>1970-01-11T02:00:13Z</time>
      </trkpt>
      <trkpt lat="42.344414" lon="-7.981657">
        <ele>129.008</ele>
        <time>1970-01-11T02:00:13Z</time>
      </trkpt>
      <trkpt lat="42.344334" lon="-7.981638">
        <ele>129.453</ele>
        <time>1970-01-11T02:00:13Z</time>
      </trkpt>
      <trkpt lat="42.344222" lon="-7.981592">
        <ele>129.870</ele>
        <time>1970-01-11T02:00:13Z</time>
      </trkpt>
      <trkpt lat="42.344085" lon="-7.981557">
        <ele>130.296</ele>
        <time>1970-01-11T02:00:13Z</time>
      </trkpt>
      <trkpt lat="42.343973" lon="-7.981515">
        <ele>130.444</ele>
        <time>1970-01-11T02:00:13Z</time>
      </trkpt>
      <trkpt lat="42.343847" lon="-7.981463">
        <ele>130.453</ele>
        <time>1970-01-11T02:00:13Z</time>
      </trkpt>
      <trkpt lat="42.343800" lon="-7.981451">
        <ele>130.498</ele>
        <time>1970-01-11T02:00:13Z</time>
      </trkpt>
      <trkpt lat="42.343708" lon="-7.981413">
        <ele>130.426</ele>
        <time>1970-01-11T02:00:13Z</time>
      </trkpt>
      <trkpt lat="42.343611" lon="-7.981365">
        <ele>130.225</ele>
        <time>1970-01-11T02:00:13Z</time>
      </trkpt>
      <trkpt lat="42.343463" lon="-7.981243">
        <ele>130.273</ele>
        <time>1970-01-11T02:00:13Z</time>
      </trkpt>
      <trkpt lat="42.343361" lon="-7.981135">
        <ele>130.085</ele>
        <time>1970-01-11T02:00:13Z</time>
      </trkpt>
      <trkpt lat="42.343225" lon="-7.980928">
        <ele>129.613</ele>
        <time>1970-01-11T02:00:13Z</time>
      </trkpt>
      <trkpt lat="42.343148" lon="-7.980761">
        <ele>129.208</ele>
        <time>1970-01-11T02:00:13Z</time>
      </trkpt>
      <trkpt lat="42.343063" lon="-7.980463">
        <ele>128.468</ele>
        <time>1970-01-11T02:00:13Z</time>
      </trkpt>
      <trkpt lat="42.343040" lon="-7.980355">
        <ele>128.045</ele>
        <time>1970-01-11T02:00:13Z</time>
      </trkpt>
      <trkpt lat="42.343025" lon="-7.980244">
        <ele>127.681</ele>
        <time>1970-01-11T02:00:13Z</time>
      </trkpt>
      <trkpt lat="42.343015" lon="-7.980126">
        <ele>127.059</ele>
        <time>1970-01-11T02:00:13Z</time>
      </trkpt>
      <trkpt lat="42.343008" lon="-7.980015">
        <ele>126.628</ele>
        <time>1970-01-11T02:00:13Z</time>
      </trkpt>
      <trkpt lat="42.343016" lon="-7.979778">
        <ele>125.813</ele>
        <time>1970-01-11T02:00:13Z</time>
      </trkpt>
      <trkpt lat="42.343063" lon="-7.979530">
        <ele>125.081</ele>
        <time>1970-01-11T02:00:13Z</time>
      </trkpt>
      <trkpt lat="42.343093" lon="-7.979407">
        <ele>124.830</ele>
        <time>1970-01-11T02:00:13Z</time>
      </trkpt>
      <trkpt lat="42.343202" lon="-7.979010">
        <ele>123.278</ele>
        <time>1970-01-11T02:00:13Z</time>
      </trkpt>
      <trkpt lat="42.343240" lon="-7.978869">
        <ele>122.433</ele>
        <time>1970-01-11T02:00:13Z</time>
      </trkpt>
      <trkpt lat="42.343275" lon="-7.978725">
        <ele>122.026</ele>
        <time>1970-01-11T02:00:13Z</time>
      </trkpt>
      <trkpt lat="42.343299" lon="-7.978578">
        <ele>121.408</ele>
        <time>1970-01-11T02:00:13Z</time>
      </trkpt>
      <trkpt lat="42.343312" lon="-7.978271">
        <ele>120.618</ele>
        <time>1970-01-11T02:00:13Z</time>
      </trkpt>
      <trkpt lat="42.343284" lon="-7.977965">
        <ele>119.675</ele>
        <time>1970-01-11T02:00:13Z</time>
      </trkpt>
      <trkpt lat="42.343253" lon="-7.977819">
        <ele>119.211</ele>
        <time>1970-01-11T02:00:13Z</time>
      </trkpt>
      <trkpt lat="42.343169" lon="-7.977548">
        <ele>118.479</ele>
        <time>1970-01-11T02:00:13Z</time>
      </trkpt>
      <trkpt lat="42.343054" lon="-7.977305">
        <ele>117.848</ele>
        <time>1970-01-11T02:00:13Z</time>
      </trkpt>
      <trkpt lat="42.342837" lon="-7.977017">
        <ele>117.283</ele>
        <time>1970-01-11T02:00:13Z</time>
      </trkpt>
      <trkpt lat="42.342761" lon="-7.976935">
        <ele>117.231</ele>
        <time>1970-01-11T02:00:13Z</time>
      </trkpt>
      <trkpt lat="42.342398" lon="-7.976633">
        <ele>118.250</ele>
        <time>1970-01-11T02:00:13Z</time>
      </trkpt>
      <trkpt lat="42.342193" lon="-7.976528">
        <ele>119.215</ele>
        <time>1970-01-11T02:00:13Z</time>
      </trkpt>
      <trkpt lat="42.342132" lon="-7.976482">
        <ele>119.465</ele>
        <time>1970-01-11T02:00:13Z</time>
      </trkpt>
      <trkpt lat="42.341977" lon="-7.976337">
        <ele>120.011</ele>
        <time>1970-01-11T02:00:13Z</time>
      </trkpt>
      <trkpt lat="42.341925" lon="-7.976295">
        <ele>120.408</ele>
        <time>1970-01-11T02:00:13Z</time>
      </trkpt>
      <trkpt lat="42.341874" lon="-7.976258">
        <ele>120.852</ele>
        <time>1970-01-11T02:00:13Z</time>
      </trkpt>
      <trkpt lat="42.341774" lon="-7.976199">
        <ele>121.439</ele>
        <time>1970-01-11T02:00:13Z</time>
      </trkpt>
      <trkpt lat="42.341585" lon="-7.976114">
        <ele>122.625</ele>
        <time>1970-01-11T02:00:13Z</time>
      </trkpt>
      <trkpt lat="42.341466" lon="-7.976040">
        <ele>123.653</ele>
        <time>1970-01-11T02:00:13Z</time>
      </trkpt>
      <trkpt lat="42.341366" lon="-7.975966">
        <ele>124.042</ele>
        <time>1970-01-11T02:00:13Z</time>
      </trkpt>
      <trkpt lat="42.341143" lon="-7.975751">
        <ele>123.827</ele>
        <time>1970-01-11T02:00:13Z</time>
      </trkpt>
      <trkpt lat="42.341100" lon="-7.975731">
        <ele>123.835</ele>
        <time>1970-01-11T02:00:13Z</time>
      </trkpt>
      <trkpt lat="42.341000" lon="-7.975762">
        <ele>123.664</ele>
        <time>1970-01-11T02:00:13Z</time>
      </trkpt>
      <trkpt lat="42.340899" lon="-7.975861">
        <ele>123.417</ele>
        <time>1970-01-11T02:00:13Z</time>
      </trkpt>
      <trkpt lat="42.340841" lon="-7.975913">
        <ele>123.487</ele>
        <time>1970-01-11T02:00:13Z</time>
      </trkpt>
      <trkpt lat="42.340693" lon="-7.976012">
        <ele>122.815</ele>
        <time>1970-01-11T02:00:13Z</time>
      </trkpt>
      <trkpt lat="42.340607" lon="-7.976038">
        <ele>122.408</ele>
        <time>1970-01-11T02:00:13Z</time>
      </trkpt>
      <trkpt lat="42.340412" lon="-7.976046">
        <ele>121.242</ele>
        <time>1970-01-11T02:00:13Z</time>
      </trkpt>
      <trkpt lat="42.340306" lon="-7.976038">
        <ele>120.679</ele>
        <time>1970-01-11T02:00:13Z</time>
      </trkpt>
      <trkpt lat="42.340200" lon="-7.976006">
        <ele>120.095</ele>
        <time>1970-01-11T02:00:13Z</time>
      </trkpt>
      <trkpt lat="42.340113" lon="-7.975940">
        <ele>118.863</ele>
        <time>1970-01-11T02:00:13Z</time>
      </trkpt>
      <trkpt lat="42.340045" lon="-7.975852">
        <ele>118.032</ele>
        <time>1970-01-11T02:00:13Z</time>
      </trkpt>
      <trkpt lat="42.340008" lon="-7.975747">
        <ele>117.457</ele>
        <time>1970-01-11T02:00:13Z</time>
      </trkpt>
      <trkpt lat="42.339993" lon="-7.975638">
        <ele>116.855</ele>
        <time>1970-01-11T02:00:13Z</time>
      </trkpt>
      <trkpt lat="42.339988" lon="-7.975412">
        <ele>116.034</ele>
        <time>1970-01-11T02:00:13Z</time>
      </trkpt>
      <trkpt lat="42.339990" lon="-7.975293">
        <ele>115.673</ele>
        <time>1970-01-11T02:00:13Z</time>
      </trkpt>
      <trkpt lat="42.339992" lon="-7.975173">
        <ele>115.485</ele>
        <time>1970-01-11T02:00:13Z</time>
      </trkpt>
      <trkpt lat="42.339989" lon="-7.974917">
        <ele>114.613</ele>
        <time>1970-01-11T02:00:13Z</time>
      </trkpt>
      <trkpt lat="42.339974" lon="-7.974788">
        <ele>114.008</ele>
        <time>1970-01-11T02:00:13Z</time>
      </trkpt>
      <trkpt lat="42.339932" lon="-7.974668">
        <ele>113.488</ele>
        <time>1970-01-11T02:00:13Z</time>
      </trkpt>
      <trkpt lat="42.339737" lon="-7.974488">
        <ele>112.245</ele>
        <time>1970-01-11T02:00:13Z</time>
      </trkpt>
      <trkpt lat="42.339612" lon="-7.974448">
        <ele>112.031</ele>
        <time>1970-01-11T02:00:13Z</time>
      </trkpt>
      <trkpt lat="42.339561" lon="-7.974415">
        <ele>112.059</ele>
        <time>1970-01-11T02:00:13Z</time>
      </trkpt>
      <trkpt lat="42.339518" lon="-7.974368">
        <ele>112.088</ele>
        <time>1970-01-11T02:00:13Z</time>
      </trkpt>
      <trkpt lat="42.339425" lon="-7.974151">
        <ele>112.633</ele>
        <time>1970-01-11T02:00:13Z</time>
      </trkpt>
      <trkpt lat="42.339402" lon="-7.974051">
        <ele>113.681</ele>
        <time>1970-01-11T02:00:13Z</time>
      </trkpt>
      <trkpt lat="42.339396" lon="-7.973855">
        <ele>114.630</ele>
        <time>1970-01-11T02:00:13Z</time>
      </trkpt>
      <trkpt lat="42.339508" lon="-7.973613">
        <ele>115.659</ele>
        <time>1970-01-11T02:00:13Z</time>
      </trkpt>
      <trkpt lat="42.339540" lon="-7.973582">
        <ele>115.803</ele>
        <time>1970-01-11T02:00:13Z</time>
      </trkpt>
      <trkpt lat="42.339708" lon="-7.973414">
        <ele>116.223</ele>
        <time>1970-01-11T02:00:13Z</time>
      </trkpt>
      <trkpt lat="42.339731" lon="-7.973368">
        <ele>116.208</ele>
        <time>1970-01-11T02:00:13Z</time>
      </trkpt>
      <trkpt lat="42.339742" lon="-7.973206">
        <ele>116.256</ele>
        <time>1970-01-11T02:00:13Z</time>
      </trkpt>
      <trkpt lat="42.339663" lon="-7.973129">
        <ele>116.213</ele>
        <time>1970-01-11T02:00:13Z</time>
      </trkpt>
      <trkpt lat="42.339613" lon="-7.973089">
        <ele>116.249</ele>
        <time>1970-01-11T02:00:13Z</time>
      </trkpt>
      <trkpt lat="42.339397" lon="-7.972927">
        <ele>114.817</ele>
        <time>1970-01-11T02:00:13Z</time>
      </trkpt>
      <trkpt lat="42.339352" lon="-7.972889">
        <ele>114.416</ele>
        <time>1970-01-11T02:00:13Z</time>
      </trkpt>
      <trkpt lat="42.339264" lon="-7.972828">
        <ele>113.611</ele>
        <time>1970-01-11T02:00:13Z</time>
      </trkpt>
      <trkpt lat="42.339162" lon="-7.972839">
        <ele>112.479</ele>
        <time>1970-01-11T02:00:13Z</time>
      </trkpt>
      <trkpt lat="42.339053" lon="-7.972851">
        <ele>111.048</ele>
        <time>1970-01-11T02:00:13Z</time>
      </trkpt>
      <trkpt lat="42.338959" lon="-7.972823">
        <ele>109.257</ele>
        <time>1970-01-11T02:00:13Z</time>
      </trkpt>
      <trkpt lat="42.338867" lon="-7.972766">
        <ele>107.400</ele>
        <time>1970-01-11T02:00:13Z</time>
      </trkpt>
      <trkpt lat="42.338807" lon="-7.972728">
        <ele>106.420</ele>
        <time>1970-01-11T02:00:13Z</time>
      </trkpt>
      <trkpt lat="42.338757" lon="-7.972674">
        <ele>105.408</ele>
        <time>1970-01-11T02:00:13Z</time>
      </trkpt>
      <trkpt lat="42.338736" lon="-7.972598">
        <ele>104.466</ele>
        <time>1970-01-11T02:00:13Z</time>
      </trkpt>
      <trkpt lat="42.338733" lon="-7.972511">
        <ele>103.283</ele>
        <time>1970-01-11T02:00:13Z</time>
      </trkpt>
      <trkpt lat="42.338732" lon="-7.972429">
        <ele>102.089</ele>
        <time>1970-01-11T02:00:13Z</time>
      </trkpt>
      <trkpt lat="42.338725" lon="-7.972354">
        <ele>100.857</ele>
        <time>1970-01-11T02:00:13Z</time>
      </trkpt>
      <trkpt lat="42.338719" lon="-7.972291">
        <ele>100.086</ele>
        <time>1970-01-11T02:00:13Z</time>
      </trkpt>
      <trkpt lat="42.338712" lon="-7.972232">
        <ele>99.471</ele>
        <time>1970-01-11T02:00:13Z</time>
      </trkpt>
      <trkpt lat="42.338706" lon="-7.972182">
        <ele>99.099</ele>
        <time>1970-01-11T02:00:13Z</time>
      </trkpt>
      <trkpt lat="42.338676" lon="-7.972055">
        <ele>98.638</ele>
        <time>1970-01-11T02:00:13Z</time>
      </trkpt>
      <trkpt lat="42.338673" lon="-7.972050">
        <ele>98.886</ele>
        <time>1970-01-11T02:00:13Z</time>
      </trkpt>
      <trkpt lat="42.338658" lon="-7.972043">
        <ele>99.060</ele>
        <time>1970-01-11T02:00:13Z</time>
      </trkpt>
      <trkpt lat="42.338639" lon="-7.972006">
        <ele>99.026</ele>
        <time>1970-01-11T02:00:13Z</time>
      </trkpt>
      <trkpt lat="42.338617" lon="-7.971984">
        <ele>99.008</ele>
        <time>1970-01-11T02:00:13Z</time>
      </trkpt>
      <trkpt lat="42.338588" lon="-7.972042">
        <ele>98.659</ele>
        <time>1970-01-11T02:00:13Z</time>
      </trkpt>
      <trkpt lat="42.338597" lon="-7.972087">
        <ele>98.276</ele>
        <time>1970-01-11T02:00:13Z</time>
      </trkpt>
      <trkpt lat="42.338583" lon="-7.972131">
        <ele>97.422</ele>
        <time>1970-01-11T02:00:13Z</time>
      </trkpt>
      <trkpt lat="42.338567" lon="-7.972126">
        <ele>97.010</ele>
        <time>1970-01-11T02:00:13Z</time>
      </trkpt>
      <trkpt lat="42.338558" lon="-7.972084">
        <ele>96.079</ele>
        <time>1970-01-11T02:00:13Z</time>
      </trkpt>
      <trkpt lat="42.338552" lon="-7.972067">
        <ele>95.894</ele>
        <time>1970-01-11T02:00:13Z</time>
      </trkpt>
      <trkpt lat="42.338529" lon="-7.971939">
        <ele>95.642</ele>
        <time>1970-01-11T02:00:13Z</time>
      </trkpt>
      <trkpt lat="42.338468" lon="-7.971716">
        <ele>95.061</ele>
        <time>1970-01-11T02:00:13Z</time>
      </trkpt>
      <trkpt lat="42.338445" lon="-7.971650">
        <ele>94.454</ele>
        <time>1970-01-11T02:00:13Z</time>
      </trkpt>
      <trkpt lat="42.338385" lon="-7.971497">
        <ele>92.656</ele>
        <time>1970-01-11T02:00:13Z</time>
      </trkpt>
      <trkpt lat="42.338341" lon="-7.971416">
        <ele>91.411</ele>
        <time>1970-01-11T02:00:13Z</time>
      </trkpt>
      <trkpt lat="42.338301" lon="-7.971317">
        <ele>90.208</ele>
        <time>1970-01-11T02:00:13Z</time>
      </trkpt>
      <trkpt lat="42.338271" lon="-7.971213">
        <ele>88.826</ele>
        <time>1970-01-11T02:00:13Z</time>
      </trkpt>
      <trkpt lat="42.338252" lon="-7.971107">
        <ele>87.423</ele>
        <time>1970-01-11T02:00:13Z</time>
      </trkpt>
      <trkpt lat="42.338223" lon="-7.971010">
        <ele>86.229</ele>
        <time>1970-01-11T02:00:13Z</time>
      </trkpt>
      <trkpt lat="42.338186" lon="-7.970915">
        <ele>85.067</ele>
        <time>1970-01-11T02:00:13Z</time>
      </trkpt>
      <trkpt lat="42.338106" lon="-7.970737">
        <ele>83.216</ele>
        <time>1970-01-11T02:00:13Z</time>
      </trkpt>
      <trkpt lat="42.338035" lon="-7.970546">
        <ele>82.011</ele>
        <time>1970-01-11T02:00:13Z</time>
      </trkpt>
      <trkpt lat="42.338018" lon="-7.970452">
        <ele>81.669</ele>
        <time>1970-01-11T02:00:13Z</time>
      </trkpt>
      <trkpt lat="42.338023" lon="-7.970363">
        <ele>81.038</ele>
        <time>1970-01-11T02:00:13Z</time>
      </trkpt>
      <trkpt lat="42.338037" lon="-7.970283">
        <ele>80.618</ele>
        <time>1970-01-11T02:00:13Z</time>
      </trkpt>
      <trkpt lat="42.338070" lon="-7.970067">
        <ele>79.898</ele>
        <time>1970-01-11T02:00:13Z</time>
      </trkpt>
      <trkpt lat="42.338110" lon="-7.969711">
        <ele>81.017</ele>
        <time>1970-01-11T02:00:13Z</time>
      </trkpt>
      <trkpt lat="42.338113" lon="-7.969652">
        <ele>81.408</ele>
        <time>1970-01-11T02:00:13Z</time>
      </trkpt>
      <trkpt lat="42.338115" lon="-7.969593">
        <ele>81.622</ele>
        <time>1970-01-11T02:00:13Z</time>
      </trkpt>
      <trkpt lat="42.338115" lon="-7.969531">
        <ele>82.079</ele>
        <time>1970-01-11T02:00:13Z</time>
      </trkpt>
      <trkpt lat="42.338108" lon="-7.969414">
        <ele>82.815</ele>
        <time>1970-01-11T02:00:13Z</time>
      </trkpt>
      <trkpt lat="42.338109" lon="-7.969355">
        <ele>83.263</ele>
        <time>1970-01-11T02:00:13Z</time>
      </trkpt>
      <trkpt lat="42.338121" lon="-7.969259">
        <ele>83.832</ele>
        <time>1970-01-11T02:00:13Z</time>
      </trkpt>
      <trkpt lat="42.338124" lon="-7.969225">
        <ele>84.077</ele>
        <time>1970-01-11T02:00:13Z</time>
      </trkpt>
      <trkpt lat="42.338132" lon="-7.969156">
        <ele>85.065</ele>
        <time>1970-01-11T02:00:13Z</time>
      </trkpt>
      <trkpt lat="42.338133" lon="-7.969110">
        <ele>85.434</ele>
        <time>1970-01-11T02:00:13Z</time>
      </trkpt>
      <trkpt lat="42.338129" lon="-7.969030">
        <ele>85.822</ele>
        <time>1970-01-11T02:00:13Z</time>
      </trkpt>
      <trkpt lat="42.338134" lon="-7.968687">
        <ele>85.862</ele>
        <time>1970-01-11T02:00:13Z</time>
      </trkpt>
      <trkpt lat="42.338178" lon="-7.968572">
        <ele>85.208</ele>
        <time>1970-01-11T02:00:13Z</time>
      </trkpt>
      <trkpt lat="42.338198" lon="-7.968516">
        <ele>85.408</ele>
        <time>1970-01-11T02:00:13Z</time>
      </trkpt>
      <trkpt lat="42.338203" lon="-7.968464">
        <ele>86.843</ele>
        <time>1970-01-11T02:00:13Z</time>
      </trkpt>
      <trkpt lat="42.338200" lon="-7.968411">
        <ele>87.630</ele>
        <time>1970-01-11T02:00:13Z</time>
      </trkpt>
      <trkpt lat="42.338205" lon="-7.968396">
        <ele>88.076</ele>
        <time>1970-01-11T02:00:13Z</time>
      </trkpt>
      <trkpt lat="42.338212" lon="-7.968350">
        <ele>89.224</ele>
        <time>1970-01-11T02:00:13Z</time>
      </trkpt>
      <trkpt lat="42.338218" lon="-7.968319">
        <ele>89.623</ele>
        <time>1970-01-11T02:00:13Z</time>
      </trkpt>
      <trkpt lat="42.338232" lon="-7.968276">
        <ele>90.248</ele>
        <time>1970-01-11T02:00:13Z</time>
      </trkpt>
      <trkpt lat="42.338268" lon="-7.968199">
        <ele>91.226</ele>
        <time>1970-01-11T02:00:13Z</time>
      </trkpt>
      <trkpt lat="42.338277" lon="-7.968185">
        <ele>91.465</ele>
        <time>1970-01-11T02:00:13Z</time>
      </trkpt>
      <trkpt lat="42.338307" lon="-7.968143">
        <ele>92.437</ele>
        <time>1970-01-11T02:00:13Z</time>
      </trkpt>
      <trkpt lat="42.338335" lon="-7.968111">
        <ele>93.449</ele>
        <time>1970-01-11T02:00:13Z</time>
      </trkpt>
      <trkpt lat="42.338342" lon="-7.968100">
        <ele>93.613</ele>
        <time>1970-01-11T02:00:13Z</time>
      </trkpt>
      <trkpt lat="42.338394" lon="-7.968057">
        <ele>95.008</ele>
        <time>1970-01-11T02:00:13Z</time>
      </trkpt>
      <trkpt lat="42.338410" lon="-7.968039">
        <ele>95.264</ele>
        <time>1970-01-11T02:00:13Z</time>
      </trkpt>
      <trkpt lat="42.338471" lon="-7.967984">
        <ele>96.271</ele>
        <time>1970-01-11T02:00:13Z</time>
      </trkpt>
      <trkpt lat="42.338523" lon="-7.967956">
        <ele>96.667</ele>
        <time>1970-01-11T02:00:13Z</time>
      </trkpt>
      <trkpt lat="42.338703" lon="-7.967858">
        <ele>96.855</ele>
        <time>1970-01-11T02:00:13Z</time>
      </trkpt>
      <trkpt lat="42.338748" lon="-7.967828">
        <ele>96.684</ele>
        <time>1970-01-11T02:00:13Z</time>
      </trkpt>
      <trkpt lat="42.338809" lon="-7.967679">
        <ele>95.249</ele>
        <time>1970-01-11T02:00:13Z</time>
      </trkpt>
      <trkpt lat="42.338807" lon="-7.967608">
        <ele>94.477</ele>
        <time>1970-01-11T02:00:13Z</time>
      </trkpt>
      <trkpt lat="42.338804" lon="-7.967524">
        <ele>93.496</ele>
        <time>1970-01-11T02:00:13Z</time>
      </trkpt>
      <trkpt lat="42.338810" lon="-7.967436">
        <ele>92.211</ele>
        <time>1970-01-11T02:00:13Z</time>
      </trkpt>
      <trkpt lat="42.338826" lon="-7.967345">
        <ele>91.221</ele>
        <time>1970-01-11T02:00:13Z</time>
      </trkpt>
      <trkpt lat="42.338849" lon="-7.967252">
        <ele>90.203</ele>
        <time>1970-01-11T02:00:13Z</time>
      </trkpt>
      <trkpt lat="42.338873" lon="-7.967155">
        <ele>89.008</ele>
        <time>1970-01-11T02:00:13Z</time>
      </trkpt>
      <trkpt lat="42.338918" lon="-7.966995">
        <ele>86.892</ele>
        <time>1970-01-11T02:00:13Z</time>
      </trkpt>
      <trkpt lat="42.338925" lon="-7.966851">
        <ele>86.259</ele>
        <time>1970-01-11T02:00:13Z</time>
      </trkpt>
      <trkpt lat="42.338915" lon="-7.966783">
        <ele>86.085</ele>
        <time>1970-01-11T02:00:13Z</time>
      </trkpt>
      <trkpt lat="42.338906" lon="-7.966591">
        <ele>85.853</ele>
        <time>1970-01-11T02:00:13Z</time>
      </trkpt>
      <trkpt lat="42.338898" lon="-7.966504">
        <ele>85.662</ele>
        <time>1970-01-11T02:00:13Z</time>
      </trkpt>
      <trkpt lat="42.338873" lon="-7.966425">
        <ele>85.297</ele>
        <time>1970-01-11T02:00:13Z</time>
      </trkpt>
      <trkpt lat="42.338858" lon="-7.966338">
        <ele>84.885</ele>
        <time>1970-01-11T02:00:13Z</time>
      </trkpt>
      <trkpt lat="42.338867" lon="-7.966259">
        <ele>84.424</ele>
        <time>1970-01-11T02:00:13Z</time>
      </trkpt>
      <trkpt lat="42.338916" lon="-7.966139">
        <ele>83.661</ele>
        <time>1970-01-11T02:00:13Z</time>
      </trkpt>
      <trkpt lat="42.338934" lon="-7.966083">
        <ele>83.221</ele>
        <time>1970-01-11T02:00:13Z</time>
      </trkpt>
      <trkpt lat="42.338974" lon="-7.965853">
        <ele>82.613</ele>
        <time>1970-01-11T02:00:13Z</time>
      </trkpt>
      <trkpt lat="42.338986" lon="-7.965795">
        <ele>82.608</ele>
        <time>1970-01-11T02:00:13Z</time>
      </trkpt>
      <trkpt lat="42.339051" lon="-7.965619">
        <ele>82.677</ele>
        <time>1970-01-11T02:00:13Z</time>
      </trkpt>
      <trkpt lat="42.339084" lon="-7.965468">
        <ele>84.034</ele>
        <time>1970-01-11T02:00:13Z</time>
      </trkpt>
      <trkpt lat="42.339087" lon="-7.965431">
        <ele>84.410</ele>
        <time>1970-01-11T02:00:13Z</time>
      </trkpt>
      <trkpt lat="42.339096" lon="-7.965294">
        <ele>85.448</ele>
        <time>1970-01-11T02:00:13Z</time>
      </trkpt>
      <trkpt lat="42.339102" lon="-7.965159">
        <ele>86.427</ele>
        <time>1970-01-11T02:00:13Z</time>
      </trkpt>
      <trkpt lat="42.339098" lon="-7.965111">
        <ele>86.882</ele>
        <time>1970-01-11T02:00:13Z</time>
      </trkpt>
      <trkpt lat="42.339086" lon="-7.964971">
        <ele>87.860</ele>
        <time>1970-01-11T02:00:13Z</time>
      </trkpt>
      <trkpt lat="42.339067" lon="-7.964908">
        <ele>88.279</ele>
        <time>1970-01-11T02:00:13Z</time>
      </trkpt>
      <trkpt lat="42.339040" lon="-7.964827">
        <ele>88.298</ele>
        <time>1970-01-11T02:00:13Z</time>
      </trkpt>
      <trkpt lat="42.338979" lon="-7.964556">
        <ele>88.215</ele>
        <time>1970-01-11T02:00:13Z</time>
      </trkpt>
      <trkpt lat="42.338993" lon="-7.964329">
        <ele>87.026</ele>
        <time>1970-01-11T02:00:13Z</time>
      </trkpt>
      <trkpt lat="42.339009" lon="-7.964231">
        <ele>86.008</ele>
        <time>1970-01-11T02:00:13Z</time>
      </trkpt>
      <trkpt lat="42.339000" lon="-7.964153">
        <ele>84.860</ele>
        <time>1970-01-11T02:00:13Z</time>
      </trkpt>
      <trkpt lat="42.338982" lon="-7.964078">
        <ele>83.657</ele>
        <time>1970-01-11T02:00:13Z</time>
      </trkpt>
      <trkpt lat="42.338973" lon="-7.964004">
        <ele>82.023</ele>
        <time>1970-01-11T02:00:13Z</time>
      </trkpt>
      <trkpt lat="42.338958" lon="-7.963846">
        <ele>81.241</ele>
        <time>1970-01-11T02:00:13Z</time>
      </trkpt>
      <trkpt lat="42.338949" lon="-7.963793">
        <ele>81.090</ele>
        <time>1970-01-11T02:00:13Z</time>
      </trkpt>
      <trkpt lat="42.338916" lon="-7.963679">
        <ele>81.045</ele>
        <time>1970-01-11T02:00:13Z</time>
      </trkpt>
      <trkpt lat="42.338895" lon="-7.963620">
        <ele>80.813</ele>
        <time>1970-01-11T02:00:13Z</time>
      </trkpt>
      <trkpt lat="42.338820" lon="-7.963458">
        <ele>80.412</ele>
        <time>1970-01-11T02:00:13Z</time>
      </trkpt>
      <trkpt lat="42.338632" lon="-7.963217">
        <ele>80.284</ele>
        <time>1970-01-11T02:00:13Z</time>
      </trkpt>
      <trkpt lat="42.338508" lon="-7.963049">
        <ele>79.807</ele>
        <time>1970-01-11T02:00:13Z</time>
      </trkpt>
      <trkpt lat="42.338463" lon="-7.963007">
        <ele>79.817</ele>
        <time>1970-01-11T02:00:13Z</time>
      </trkpt>
      <trkpt lat="42.338367" lon="-7.962923">
        <ele>79.608</ele>
        <time>1970-01-11T02:00:13Z</time>
      </trkpt>
      <trkpt lat="42.338331" lon="-7.962866">
        <ele>79.619</ele>
        <time>1970-01-11T02:00:13Z</time>
      </trkpt>
      <trkpt lat="42.338229" lon="-7.962688">
        <ele>79.616</ele>
        <time>1970-01-11T02:00:13Z</time>
      </trkpt>
      <trkpt lat="42.338066" lon="-7.962458">
        <ele>79.472</ele>
        <time>1970-01-11T02:00:13Z</time>
      </trkpt>
      <trkpt lat="42.338036" lon="-7.962393">
        <ele>79.460</ele>
        <time>1970-01-11T02:00:13Z</time>
      </trkpt>
      <trkpt lat="42.337922" lon="-7.962128">
        <ele>79.879</ele>
        <time>1970-01-11T02:00:13Z</time>
      </trkpt>
      <trkpt lat="42.337890" lon="-7.962065">
        <ele>79.864</ele>
        <time>1970-01-11T02:00:13Z</time>
      </trkpt>
      <trkpt lat="42.337753" lon="-7.961794">
        <ele>80.232</ele>
        <time>1970-01-11T02:00:13Z</time>
      </trkpt>
      <trkpt lat="42.337643" lon="-7.961588">
        <ele>80.481</ele>
        <time>1970-01-11T02:00:13Z</time>
      </trkpt>
      <trkpt lat="42.337549" lon="-7.961486">
        <ele>80.264</ele>
        <time>1970-01-11T02:00:13Z</time>
      </trkpt>
      <trkpt lat="42.337392" lon="-7.961340">
        <ele>80.206</ele>
        <time>1970-01-11T02:00:13Z</time>
      </trkpt>
      <trkpt lat="42.337290" lon="-7.961231">
        <ele>79.616</ele>
        <time>1970-01-11T02:00:13Z</time>
      </trkpt>
      <trkpt lat="42.337124" lon="-7.961092">
        <ele>78.808</ele>
        <time>1970-01-11T02:00:13Z</time>
      </trkpt>
      <trkpt lat="42.337039" lon="-7.961061">
        <ele>78.887</ele>
        <time>1970-01-11T02:00:13Z</time>
      </trkpt>
      <trkpt lat="42.336945" lon="-7.960990">
        <ele>78.864</ele>
        <time>1970-01-11T02:00:13Z</time>
      </trkpt>
      <trkpt lat="42.336894" lon="-7.960939">
        <ele>78.880</ele>
        <time>1970-01-11T02:00:13Z</time>
      </trkpt>
      <trkpt lat="42.336789" lon="-7.960768">
        <ele>78.098</ele>
        <time>1970-01-11T02:00:13Z</time>
      </trkpt>
      <trkpt lat="42.336707" lon="-7.960651">
        <ele>78.017</ele>
        <time>1970-01-11T02:00:13Z</time>
      </trkpt>
      <trkpt lat="42.336652" lon="-7.960615">
        <ele>78.662</ele>
        <time>1970-01-11T02:00:14Z</time>
      </trkpt>
      <trkpt lat="42.336543" lon="-7.960542">
        <ele>79.050</ele>
        <time>1970-01-11T02:00:14Z</time>
      </trkpt>
      <trkpt lat="42.336420" lon="-7.960460">
        <ele>79.239</ele>
        <time>1970-01-11T02:00:14Z</time>
      </trkpt>
      <trkpt lat="42.336335" lon="-7.960400">
        <ele>79.214</ele>
        <time>1970-01-11T02:00:14Z</time>
      </trkpt>
      <trkpt lat="42.336198" lon="-7.960273">
        <ele>79.254</ele>
        <time>1970-01-11T02:00:14Z</time>
      </trkpt>
      <trkpt lat="42.336118" lon="-7.960157">
        <ele>79.009</ele>
        <time>1970-01-11T02:00:14Z</time>
      </trkpt>
      <trkpt lat="42.335885" lon="-7.959718">
        <ele>79.008</ele>
        <time>1970-01-11T02:00:14Z</time>
      </trkpt>
      <trkpt lat="42.335851" lon="-7.959659">
        <ele>79.042</ele>
        <time>1970-01-11T02:00:14Z</time>
      </trkpt>
      <trkpt lat="42.335670" lon="-7.959227">
        <ele>79.049</ele>
        <time>1970-01-11T02:00:14Z</time>
      </trkpt>
      <trkpt lat="42.335579" lon="-7.958968">
        <ele>79.065</ele>
        <time>1970-01-11T02:00:14Z</time>
      </trkpt>
      <trkpt lat="42.335538" lon="-7.958791">
        <ele>79.233</ele>
        <time>1970-01-11T02:00:14Z</time>
      </trkpt>
      <trkpt lat="42.335440" lon="-7.958552">
        <ele>79.422</ele>
        <time>1970-01-11T02:00:14Z</time>
      </trkpt>
      <trkpt lat="42.335399" lon="-7.958468">
        <ele>79.447</ele>
        <time>1970-01-11T02:00:14Z</time>
      </trkpt>
      <trkpt lat="42.335241" lon="-7.958111">
        <ele>79.235</ele>
        <time>1970-01-11T02:00:14Z</time>
      </trkpt>
      <trkpt lat="42.335212" lon="-7.958025">
        <ele>79.064</ele>
        <time>1970-01-11T02:00:14Z</time>
      </trkpt>
      <trkpt lat="42.335111" lon="-7.957642">
        <ele>78.656</ele>
        <time>1970-01-11T02:00:14Z</time>
      </trkpt>
      <trkpt lat="42.335085" lon="-7.957391">
        <ele>78.659</ele>
        <time>1970-01-11T02:00:14Z</time>
      </trkpt>
      <trkpt lat="42.335030" lon="-7.957070">
        <ele>78.614</ele>
        <time>1970-01-11T02:00:14Z</time>
      </trkpt>
      <trkpt lat="42.334955" lon="-7.956673">
        <ele>78.408</ele>
        <time>1970-01-11T02:00:14Z</time>
      </trkpt>
      <trkpt lat="42.334858" lon="-7.956282">
        <ele>78.446</ele>
        <time>1970-01-11T02:00:14Z</time>
      </trkpt>
      <trkpt lat="42.334784" lon="-7.955724">
        <ele>78.493</ele>
        <time>1970-01-11T02:00:14Z</time>
      </trkpt>
      <trkpt lat="42.334795" lon="-7.955199">
        <ele>78.629</ele>
        <time>1970-01-11T02:00:14Z</time>
      </trkpt>
      <trkpt lat="42.334869" lon="-7.954540">
        <ele>79.497</ele>
        <time>1970-01-11T02:00:14Z</time>
      </trkpt>
      <trkpt lat="42.334939" lon="-7.954074">
        <ele>79.896</ele>
        <time>1970-01-11T02:00:14Z</time>
      </trkpt>
      <trkpt lat="42.334928" lon="-7.954016">
        <ele>80.081</ele>
        <time>1970-01-11T02:00:14Z</time>
      </trkpt>
      <trkpt lat="42.334897" lon="-7.953842">
        <ele>80.659</ele>
        <time>1970-01-11T02:00:14Z</time>
      </trkpt>
      <trkpt lat="42.334887" lon="-7.953675">
        <ele>80.688</ele>
        <time>1970-01-11T02:00:14Z</time>
      </trkpt>
      <trkpt lat="42.334890" lon="-7.953495">
        <ele>80.252</ele>
        <time>1970-01-11T02:00:14Z</time>
      </trkpt>
      <trkpt lat="42.334934" lon="-7.953227">
        <ele>79.253</ele>
        <time>1970-01-11T02:00:14Z</time>
      </trkpt>
      <trkpt lat="42.335051" lon="-7.953007">
        <ele>79.008</ele>
        <time>1970-01-11T02:00:14Z</time>
      </trkpt>
      <trkpt lat="42.335081" lon="-7.952928">
        <ele>79.008</ele>
        <time>1970-01-11T02:00:14Z</time>
      </trkpt>
      <trkpt lat="42.335171" lon="-7.952610">
        <ele>79.636</ele>
        <time>1970-01-11T02:00:14Z</time>
      </trkpt>
      <trkpt lat="42.335312" lon="-7.951979">
        <ele>80.863</ele>
        <time>1970-01-11T02:00:14Z</time>
      </trkpt>
      <trkpt lat="42.335325" lon="-7.951906">
        <ele>81.069</ele>
        <time>1970-01-11T02:00:14Z</time>
      </trkpt>
      <trkpt lat="42.335412" lon="-7.951553">
        <ele>81.297</ele>
        <time>1970-01-11T02:00:14Z</time>
      </trkpt>
      <trkpt lat="42.335546" lon="-7.951174">
        <ele>81.696</ele>
        <time>1970-01-11T02:00:14Z</time>
      </trkpt>
      <trkpt lat="42.335655" lon="-7.951010">
        <ele>82.081</ele>
        <time>1970-01-11T02:00:14Z</time>
      </trkpt>
      <trkpt lat="42.335742" lon="-7.950879">
        <ele>82.059</ele>
        <time>1970-01-11T02:00:14Z</time>
      </trkpt>
      <trkpt lat="42.335780" lon="-7.950807">
        <ele>81.818</ele>
        <time>1970-01-11T02:00:14Z</time>
      </trkpt>
      <trkpt lat="42.335957" lon="-7.950539">
        <ele>80.855</ele>
        <time>1970-01-11T02:00:14Z</time>
      </trkpt>
      <trkpt lat="42.336136" lon="-7.950475">
        <ele>80.607</ele>
        <time>1970-01-11T02:00:14Z</time>
      </trkpt>
      <trkpt lat="42.336441" lon="-7.950360">
        <ele>81.217</ele>
        <time>1970-01-11T02:00:14Z</time>
      </trkpt>
      <trkpt lat="42.336821" lon="-7.950230">
        <ele>80.008</ele>
        <time>1970-01-11T02:00:14Z</time>
      </trkpt>
      <trkpt lat="42.336880" lon="-7.950196">
        <ele>79.616</ele>
        <time>1970-01-11T02:00:14Z</time>
      </trkpt>
      <trkpt lat="42.337045" lon="-7.950061">
        <ele>79.483</ele>
        <time>1970-01-11T02:00:14Z</time>
      </trkpt>
      <trkpt lat="42.337265" lon="-7.949897">
        <ele>79.489</ele>
        <time>1970-01-11T02:00:14Z</time>
      </trkpt>
      <trkpt lat="42.337308" lon="-7.949851">
        <ele>79.467</ele>
        <time>1970-01-11T02:00:14Z</time>
      </trkpt>
      <trkpt lat="42.337532" lon="-7.949626">
        <ele>79.696</ele>
        <time>1970-01-11T02:00:14Z</time>
      </trkpt>
      <trkpt lat="42.337741" lon="-7.949388">
        <ele>79.811</ele>
        <time>1970-01-11T02:00:14Z</time>
      </trkpt>
      <trkpt lat="42.337806" lon="-7.949258">
        <ele>79.819</ele>
        <time>1970-01-11T02:00:14Z</time>
      </trkpt>
      <trkpt lat="42.337884" lon="-7.949139">
        <ele>79.678</ele>
        <time>1970-01-11T02:00:14Z</time>
      </trkpt>
      <trkpt lat="42.338172" lon="-7.948674">
        <ele>78.817</ele>
        <time>1970-01-11T02:00:14Z</time>
      </trkpt>
      <trkpt lat="42.338305" lon="-7.948450">
        <ele>79.287</ele>
        <time>1970-01-11T02:00:14Z</time>
      </trkpt>
      <trkpt lat="42.338354" lon="-7.948329">
        <ele>79.615</ele>
        <time>1970-01-11T02:00:14Z</time>
      </trkpt>
      <trkpt lat="42.338443" lon="-7.948004">
        <ele>80.208</ele>
        <time>1970-01-11T02:00:14Z</time>
      </trkpt>
      <trkpt lat="42.338533" lon="-7.947565">
        <ele>79.662</ele>
        <time>1970-01-11T02:00:14Z</time>
      </trkpt>
      <trkpt lat="42.338679" lon="-7.946869">
        <ele>79.239</ele>
        <time>1970-01-11T02:00:14Z</time>
      </trkpt>
      <trkpt lat="42.338706" lon="-7.946784">
        <ele>79.285</ele>
        <time>1970-01-11T02:00:14Z</time>
      </trkpt>
      <trkpt lat="42.338790" lon="-7.946445">
        <ele>79.233</ele>
        <time>1970-01-11T02:00:14Z</time>
      </trkpt>
      <trkpt lat="42.338884" lon="-7.945943">
        <ele>80.082</ele>
        <time>1970-01-11T02:00:14Z</time>
      </trkpt>
      <trkpt lat="42.338993" lon="-7.945392">
        <ele>79.887</ele>
        <time>1970-01-11T02:00:14Z</time>
      </trkpt>
      <trkpt lat="42.339120" lon="-7.944730">
        <ele>80.055</ele>
        <time>1970-01-11T02:00:14Z</time>
      </trkpt>
      <trkpt lat="42.339227" lon="-7.944253">
        <ele>80.074</ele>
        <time>1970-01-11T02:00:14Z</time>
      </trkpt>
      <trkpt lat="42.339270" lon="-7.944038">
        <ele>80.645</ele>
        <time>1970-01-11T02:00:14Z</time>
      </trkpt>
      <trkpt lat="42.339277" lon="-7.943963">
        <ele>80.847</ele>
        <time>1970-01-11T02:00:14Z</time>
      </trkpt>
      <trkpt lat="42.339286" lon="-7.943883">
        <ele>81.011</ele>
        <time>1970-01-11T02:00:14Z</time>
      </trkpt>
      <trkpt lat="42.339317" lon="-7.943721">
        <ele>81.208</ele>
        <time>1970-01-11T02:00:14Z</time>
      </trkpt>
      <trkpt lat="42.339380" lon="-7.943485">
        <ele>81.265</ele>
        <time>1970-01-11T02:00:14Z</time>
      </trkpt>
      <trkpt lat="42.339394" lon="-7.943397">
        <ele>81.282</ele>
        <time>1970-01-11T02:00:14Z</time>
      </trkpt>
      <trkpt lat="42.339413" lon="-7.943117">
        <ele>81.098</ele>
        <time>1970-01-11T02:00:14Z</time>
      </trkpt>
      <trkpt lat="42.339412" lon="-7.942667">
        <ele>80.626</ele>
        <time>1970-01-11T02:00:14Z</time>
      </trkpt>
      <trkpt lat="42.339493" lon="-7.942361">
        <ele>80.295</ele>
        <time>1970-01-11T02:00:14Z</time>
      </trkpt>
      <trkpt lat="42.339552" lon="-7.942144">
        <ele>80.680</ele>
        <time>1970-01-11T02:00:14Z</time>
      </trkpt>
      <trkpt lat="42.339599" lon="-7.941850">
        <ele>81.238</ele>
        <time>1970-01-11T02:00:14Z</time>
      </trkpt>
      <trkpt lat="42.339682" lon="-7.941331">
        <ele>80.897</ele>
        <time>1970-01-11T02:00:14Z</time>
      </trkpt>
      <trkpt lat="42.339722" lon="-7.940806">
        <ele>79.885</ele>
        <time>1970-01-11T02:00:14Z</time>
      </trkpt>
      <trkpt lat="42.339770" lon="-7.940348">
        <ele>80.289</ele>
        <time>1970-01-11T02:00:14Z</time>
      </trkpt>
      <trkpt lat="42.339778" lon="-7.940279">
        <ele>80.417</ele>
        <time>1970-01-11T02:00:14Z</time>
      </trkpt>
      <trkpt lat="42.339823" lon="-7.939986">
        <ele>80.808</ele>
        <time>1970-01-11T02:00:14Z</time>
      </trkpt>
      <trkpt lat="42.339849" lon="-7.939833">
        <ele>81.059</ele>
        <time>1970-01-11T02:00:14Z</time>
      </trkpt>
      <trkpt lat="42.339938" lon="-7.939282">
        <ele>81.236</ele>
        <time>1970-01-11T02:00:14Z</time>
      </trkpt>
      <trkpt lat="42.340054" lon="-7.938775">
        <ele>81.692</ele>
        <time>1970-01-11T02:00:14Z</time>
      </trkpt>
      <trkpt lat="42.340165" lon="-7.938263">
        <ele>81.880</ele>
        <time>1970-01-11T02:00:14Z</time>
      </trkpt>
      <trkpt lat="42.340298" lon="-7.937816">
        <ele>81.879</ele>
        <time>1970-01-11T02:00:14Z</time>
      </trkpt>
      <trkpt lat="42.340323" lon="-7.937750">
        <ele>81.894</ele>
        <time>1970-01-11T02:00:14Z</time>
      </trkpt>
      <trkpt lat="42.340504" lon="-7.937263">
        <ele>82.052</ele>
        <time>1970-01-11T02:00:14Z</time>
      </trkpt>
      <trkpt lat="42.340689" lon="-7.936781">
        <ele>82.251</ele>
        <time>1970-01-11T02:00:14Z</time>
      </trkpt>
      <trkpt lat="42.340872" lon="-7.936273">
        <ele>82.628</ele>
        <time>1970-01-11T02:00:14Z</time>
      </trkpt>
      <trkpt lat="42.341090" lon="-7.935810">
        <ele>82.489</ele>
        <time>1970-01-11T02:00:14Z</time>
      </trkpt>
      <trkpt lat="42.341265" lon="-7.935399">
        <ele>82.217</ele>
        <time>1970-01-11T02:00:14Z</time>
      </trkpt>
      <trkpt lat="42.341342" lon="-7.935181">
        <ele>82.208</ele>
        <time>1970-01-11T02:00:14Z</time>
      </trkpt>
      <trkpt lat="42.341401" lon="-7.934938">
        <ele>82.013</ele>
        <time>1970-01-11T02:00:14Z</time>
      </trkpt>
      <trkpt lat="42.341417" lon="-7.934609">
        <ele>81.820</ele>
        <time>1970-01-11T02:00:14Z</time>
      </trkpt>
      <trkpt lat="42.341421" lon="-7.934527">
        <ele>81.896</ele>
        <time>1970-01-11T02:00:14Z</time>
      </trkpt>
      <trkpt lat="42.341435" lon="-7.934443">
        <ele>81.834</ele>
        <time>1970-01-11T02:00:14Z</time>
      </trkpt>
      <trkpt lat="42.341495" lon="-7.934213">
        <ele>81.623</ele>
        <time>1970-01-11T02:00:14Z</time>
      </trkpt>
      <trkpt lat="42.341555" lon="-7.934076">
        <ele>81.258</ele>
        <time>1970-01-11T02:00:14Z</time>
      </trkpt>
      <trkpt lat="42.341656" lon="-7.933869">
        <ele>81.296</ele>
        <time>1970-01-11T02:00:14Z</time>
      </trkpt>
      <trkpt lat="42.341846" lon="-7.933483">
        <ele>81.245</ele>
        <time>1970-01-11T02:00:14Z</time>
      </trkpt>
      <trkpt lat="42.341954" lon="-7.933290">
        <ele>81.088</ele>
        <time>1970-01-11T02:00:14Z</time>
      </trkpt>
      <trkpt lat="42.342029" lon="-7.933161">
        <ele>80.824</ele>
        <time>1970-01-11T02:00:14Z</time>
      </trkpt>
      <trkpt lat="42.342065" lon="-7.933097">
        <ele>80.826</ele>
        <time>1970-01-11T02:00:14Z</time>
      </trkpt>
      <trkpt lat="42.342284" lon="-7.932721">
        <ele>80.808</ele>
        <time>1970-01-11T02:00:14Z</time>
      </trkpt>
      <trkpt lat="42.342486" lon="-7.932492">
        <ele>81.049</ele>
        <time>1970-01-11T02:00:14Z</time>
      </trkpt>
      <trkpt lat="42.342563" lon="-7.932244">
        <ele>81.416</ele>
        <time>1970-01-11T02:00:14Z</time>
      </trkpt>
      <trkpt lat="42.342621" lon="-7.932130">
        <ele>81.442</ele>
        <time>1970-01-11T02:00:14Z</time>
      </trkpt>
      <trkpt lat="42.342719" lon="-7.931941">
        <ele>80.610</ele>
        <time>1970-01-11T02:00:14Z</time>
      </trkpt>
      <trkpt lat="42.342858" lon="-7.931571">
        <ele>80.459</ele>
        <time>1970-01-11T02:00:14Z</time>
      </trkpt>
      <trkpt lat="42.342996" lon="-7.931221">
        <ele>80.414</ele>
        <time>1970-01-11T02:00:14Z</time>
      </trkpt>
      <trkpt lat="42.343192" lon="-7.930849">
        <ele>81.062</ele>
        <time>1970-01-11T02:00:14Z</time>
      </trkpt>
      <trkpt lat="42.343298" lon="-7.930710">
        <ele>82.031</ele>
        <time>1970-01-11T02:00:14Z</time>
      </trkpt>
      <trkpt lat="42.343329" lon="-7.930635">
        <ele>82.221</ele>
        <time>1970-01-11T02:00:14Z</time>
      </trkpt>
      <trkpt lat="42.343533" lon="-7.930199">
        <ele>82.041</ele>
        <time>1970-01-11T02:00:14Z</time>
      </trkpt>
      <trkpt lat="42.343599" lon="-7.930045">
        <ele>82.005</ele>
        <time>1970-01-11T02:00:14Z</time>
      </trkpt>
      <trkpt lat="42.343714" lon="-7.929834">
        <ele>82.008</ele>
        <time>1970-01-11T02:00:14Z</time>
      </trkpt>
      <trkpt lat="42.343858" lon="-7.929626">
        <ele>82.073</ele>
        <time>1970-01-11T02:00:14Z</time>
      </trkpt>
      <trkpt lat="42.343889" lon="-7.929569">
        <ele>82.060</ele>
        <time>1970-01-11T02:00:14Z</time>
      </trkpt>
      <trkpt lat="42.344004" lon="-7.929320">
        <ele>82.666</ele>
        <time>1970-01-11T02:00:14Z</time>
      </trkpt>
      <trkpt lat="42.344213" lon="-7.928886">
        <ele>82.864</ele>
        <time>1970-01-11T02:00:14Z</time>
      </trkpt>
      <trkpt lat="42.344267" lon="-7.928770">
        <ele>82.673</ele>
        <time>1970-01-11T02:00:14Z</time>
      </trkpt>
      <trkpt lat="42.344340" lon="-7.928662">
        <ele>82.628</ele>
        <time>1970-01-11T02:00:14Z</time>
      </trkpt>
      <trkpt lat="42.344379" lon="-7.928612">
        <ele>82.636</ele>
        <time>1970-01-11T02:00:14Z</time>
      </trkpt>
      <trkpt lat="42.344610" lon="-7.928334">
        <ele>82.875</ele>
        <time>1970-01-11T02:00:14Z</time>
      </trkpt>
      <trkpt lat="42.344679" lon="-7.928230">
        <ele>82.845</ele>
        <time>1970-01-11T02:00:14Z</time>
      </trkpt>
      <trkpt lat="42.344711" lon="-7.928168">
        <ele>82.847</ele>
        <time>1970-01-11T02:00:14Z</time>
      </trkpt>
      <trkpt lat="42.344765" lon="-7.928013">
        <ele>82.811</ele>
        <time>1970-01-11T02:00:14Z</time>
      </trkpt>
      <trkpt lat="42.344801" lon="-7.927817">
        <ele>82.608</ele>
        <time>1970-01-11T02:00:14Z</time>
      </trkpt>
      <trkpt lat="42.344824" lon="-7.927758">
        <ele>82.815</ele>
        <time>1970-01-11T02:00:14Z</time>
      </trkpt>
      <trkpt lat="42.344854" lon="-7.927709">
        <ele>83.092</ele>
        <time>1970-01-11T02:00:14Z</time>
      </trkpt>
      <trkpt lat="42.344946" lon="-7.927588">
        <ele>83.638</ele>
        <time>1970-01-11T02:00:14Z</time>
      </trkpt>
      <trkpt lat="42.344993" lon="-7.927508">
        <ele>84.066</ele>
        <time>1970-01-11T02:00:14Z</time>
      </trkpt>
      <trkpt lat="42.345050" lon="-7.927355">
        <ele>85.095</ele>
        <time>1970-01-11T02:00:14Z</time>
      </trkpt>
      <trkpt lat="42.345073" lon="-7.927295">
        <ele>85.250</ele>
        <time>1970-01-11T02:00:14Z</time>
      </trkpt>
      <trkpt lat="42.345186" lon="-7.926973">
        <ele>85.448</ele>
        <time>1970-01-11T02:00:14Z</time>
      </trkpt>
      <trkpt lat="42.345373" lon="-7.926598">
        <ele>85.037</ele>
        <time>1970-01-11T02:00:14Z</time>
      </trkpt>
      <trkpt lat="42.345437" lon="-7.926431">
        <ele>84.826</ele>
        <time>1970-01-11T02:00:14Z</time>
      </trkpt>
      <trkpt lat="42.345443" lon="-7.926360">
        <ele>84.847</ele>
        <time>1970-01-11T02:00:14Z</time>
      </trkpt>
      <trkpt lat="42.345473" lon="-7.926221">
        <ele>84.811</ele>
        <time>1970-01-11T02:00:14Z</time>
      </trkpt>
      <trkpt lat="42.345544" lon="-7.926023">
        <ele>84.808</ele>
        <time>1970-01-11T02:00:14Z</time>
      </trkpt>
      <trkpt lat="42.345621" lon="-7.925748">
        <ele>85.043</ele>
        <time>1970-01-11T02:00:14Z</time>
      </trkpt>
      <trkpt lat="42.345656" lon="-7.925688">
        <ele>85.010</ele>
        <time>1970-01-11T02:00:14Z</time>
      </trkpt>
      <trkpt lat="42.345756" lon="-7.925481">
        <ele>85.036</ele>
        <time>1970-01-11T02:00:14Z</time>
      </trkpt>
      <trkpt lat="42.345833" lon="-7.925379">
        <ele>84.494</ele>
        <time>1970-01-11T02:00:14Z</time>
      </trkpt>
      <trkpt lat="42.345863" lon="-7.925332">
        <ele>84.233</ele>
        <time>1970-01-11T02:00:14Z</time>
      </trkpt>
      <trkpt lat="42.345894" lon="-7.925287">
        <ele>84.068</ele>
        <time>1970-01-11T02:00:14Z</time>
      </trkpt>
      <trkpt lat="42.345921" lon="-7.925227">
        <ele>84.026</ele>
        <time>1970-01-11T02:00:14Z</time>
      </trkpt>
      <trkpt lat="42.345980" lon="-7.925092">
        <ele>83.855</ele>
        <time>1970-01-11T02:00:14Z</time>
      </trkpt>
      <trkpt lat="42.346084" lon="-7.924796">
        <ele>83.271</ele>
        <time>1970-01-11T02:00:14Z</time>
      </trkpt>
      <trkpt lat="42.346104" lon="-7.924719">
        <ele>83.041</ele>
        <time>1970-01-11T02:00:14Z</time>
      </trkpt>
      <trkpt lat="42.346128" lon="-7.924650">
        <ele>82.815</ele>
        <time>1970-01-11T02:00:14Z</time>
      </trkpt>
      <trkpt lat="42.346286" lon="-7.924073">
        <ele>83.008</ele>
        <time>1970-01-11T02:00:14Z</time>
      </trkpt>
      <trkpt lat="42.346322" lon="-7.923939">
        <ele>83.498</ele>
        <time>1970-01-11T02:00:14Z</time>
      </trkpt>
      <trkpt lat="42.346380" lon="-7.923742">
        <ele>83.875</ele>
        <time>1970-01-11T02:00:14Z</time>
      </trkpt>
      <trkpt lat="42.346439" lon="-7.923369">
        <ele>83.411</ele>
        <time>1970-01-11T02:00:14Z</time>
      </trkpt>
      <trkpt lat="42.346478" lon="-7.923096">
        <ele>82.619</ele>
        <time>1970-01-11T02:00:14Z</time>
      </trkpt>
      <trkpt lat="42.346527" lon="-7.922807">
        <ele>83.668</ele>
        <time>1970-01-11T02:00:14Z</time>
      </trkpt>
      <trkpt lat="42.346645" lon="-7.922505">
        <ele>83.463</ele>
        <time>1970-01-11T02:00:14Z</time>
      </trkpt>
      <trkpt lat="42.346807" lon="-7.922150">
        <ele>83.211</ele>
        <time>1970-01-11T02:00:14Z</time>
      </trkpt>
      <trkpt lat="42.346827" lon="-7.922078">
        <ele>83.460</ele>
        <time>1970-01-11T02:00:14Z</time>
      </trkpt>
      <trkpt lat="42.346877" lon="-7.921875">
        <ele>83.611</ele>
        <time>1970-01-11T02:00:14Z</time>
      </trkpt>
      <trkpt lat="42.346940" lon="-7.921573">
        <ele>83.821</ele>
        <time>1970-01-11T02:00:14Z</time>
      </trkpt>
      <trkpt lat="42.346975" lon="-7.921426">
        <ele>84.003</ele>
        <time>1970-01-11T02:00:14Z</time>
      </trkpt>
      <trkpt lat="42.346958" lon="-7.921219">
        <ele>84.408</ele>
        <time>1970-01-11T02:00:14Z</time>
      </trkpt>
      <trkpt lat="42.346967" lon="-7.921138">
        <ele>84.632</ele>
        <time>1970-01-11T02:00:14Z</time>
      </trkpt>
      <trkpt lat="42.346967" lon="-7.921138">
        <ele>84.819</ele>
        <time>1970-01-11T02:00:14Z</time>
      </trkpt>
      <trkpt lat="42.346962" lon="-7.921111">
        <ele>85.065</ele>
        <time>1970-01-11T02:00:14Z</time>
      </trkpt>
      <trkpt lat="42.346955" lon="-7.921086">
        <ele>85.063</ele>
        <time>1970-01-11T02:00:14Z</time>
      </trkpt>
      <trkpt lat="42.346940" lon="-7.921004">
        <ele>86.052</ele>
        <time>1970-01-11T02:00:14Z</time>
      </trkpt>
      <trkpt lat="42.346928" lon="-7.920924">
        <ele>87.067</ele>
        <time>1970-01-11T02:00:14Z</time>
      </trkpt>
      <trkpt lat="42.346925" lon="-7.920912">
        <ele>87.065</ele>
        <time>1970-01-11T02:00:14Z</time>
      </trkpt>
      <trkpt lat="42.346909" lon="-7.920834">
        <ele>88.254</ele>
        <time>1970-01-11T02:00:14Z</time>
      </trkpt>
      <trkpt lat="42.346905" lon="-7.920821">
        <ele>88.858</ele>
        <time>1970-01-11T02:00:14Z</time>
      </trkpt>
      <trkpt lat="42.346895" lon="-7.920793">
        <ele>89.252</ele>
        <time>1970-01-11T02:00:14Z</time>
      </trkpt>
      <trkpt lat="42.346892" lon="-7.920769">
        <ele>89.617</ele>
        <time>1970-01-11T02:00:14Z</time>
      </trkpt>
      <trkpt lat="42.346883" lon="-7.920727">
        <ele>89.608</ele>
        <time>1970-01-11T02:00:14Z</time>
      </trkpt>
      <trkpt lat="42.346867" lon="-7.920612">
        <ele>89.656</ele>
        <time>1970-01-11T02:00:14Z</time>
      </trkpt>
      <trkpt lat="42.346857" lon="-7.920535">
        <ele>89.853</ele>
        <time>1970-01-11T02:00:14Z</time>
      </trkpt>
      <trkpt lat="42.346865" lon="-7.920493">
        <ele>90.419</ele>
        <time>1970-01-11T02:00:14Z</time>
      </trkpt>
      <trkpt lat="42.346878" lon="-7.920431">
        <ele>91.097</ele>
        <time>1970-01-11T02:00:14Z</time>
      </trkpt>
      <trkpt lat="42.346900" lon="-7.920369">
        <ele>91.646</ele>
        <time>1970-01-11T02:00:14Z</time>
      </trkpt>
      <trkpt lat="42.346902" lon="-7.920340">
        <ele>91.831</ele>
        <time>1970-01-11T02:00:14Z</time>
      </trkpt>
      <trkpt lat="42.346908" lon="-7.920221">
        <ele>92.699</ele>
        <time>1970-01-11T02:00:14Z</time>
      </trkpt>
      <trkpt lat="42.346935" lon="-7.920101">
        <ele>93.088</ele>
        <time>1970-01-11T02:00:14Z</time>
      </trkpt>
      <trkpt lat="42.347007" lon="-7.919943">
        <ele>92.843</ele>
        <time>1970-01-11T02:00:14Z</time>
      </trkpt>
      <trkpt lat="42.347039" lon="-7.919761">
        <ele>93.664</ele>
        <time>1970-01-11T02:00:14Z</time>
      </trkpt>
      <trkpt lat="42.346934" lon="-7.919602">
        <ele>94.810</ele>
        <time>1970-01-11T02:00:14Z</time>
      </trkpt>
      <trkpt lat="42.346917" lon="-7.919558">
        <ele>95.008</ele>
        <time>1970-01-11T02:00:14Z</time>
      </trkpt>
      <trkpt lat="42.346871" lon="-7.919378">
        <ele>96.235</ele>
        <time>1970-01-11T02:00:14Z</time>
      </trkpt>
      <trkpt lat="42.346866" lon="-7.919233">
        <ele>96.822</ele>
        <time>1970-01-11T02:00:14Z</time>
      </trkpt>
      <trkpt lat="42.346973" lon="-7.919008">
        <ele>96.858</ele>
        <time>1970-01-11T02:00:14Z</time>
      </trkpt>
      <trkpt lat="42.347152" lon="-7.918702">
        <ele>96.086</ele>
        <time>1970-01-11T02:00:14Z</time>
      </trkpt>
      <trkpt lat="42.347262" lon="-7.918549">
        <ele>95.045</ele>
        <time>1970-01-11T02:00:14Z</time>
      </trkpt>
      <trkpt lat="42.347376" lon="-7.918415">
        <ele>93.810</ele>
        <time>1970-01-11T02:00:14Z</time>
      </trkpt>
      <trkpt lat="42.347428" lon="-7.918350">
        <ele>93.418</ele>
        <time>1970-01-11T02:00:14Z</time>
      </trkpt>
      <trkpt lat="42.347572" lon="-7.918145">
        <ele>92.867</ele>
        <time>1970-01-11T02:00:14Z</time>
      </trkpt>
      <trkpt lat="42.347566" lon="-7.918114">
        <ele>92.628</ele>
        <time>1970-01-11T02:00:14Z</time>
      </trkpt>
      <trkpt lat="42.347494" lon="-7.918051">
        <ele>92.689</ele>
        <time>1970-01-11T02:00:14Z</time>
      </trkpt>
      <trkpt lat="42.347438" lon="-7.917983">
        <ele>92.617</ele>
        <time>1970-01-11T02:00:14Z</time>
      </trkpt>
      <trkpt lat="42.347375" lon="-7.917934">
        <ele>92.608</ele>
        <time>1970-01-11T02:00:14Z</time>
      </trkpt>
      <trkpt lat="42.347248" lon="-7.917789">
        <ele>92.823</ele>
        <time>1970-01-11T02:00:14Z</time>
      </trkpt>
      <trkpt lat="42.347144" lon="-7.917667">
        <ele>92.640</ele>
        <time>1970-01-11T02:00:14Z</time>
      </trkpt>
      <trkpt lat="42.346804" lon="-7.917273">
        <ele>92.486</ele>
        <time>1970-01-11T02:00:14Z</time>
      </trkpt>
      <trkpt lat="42.346531" lon="-7.916935">
        <ele>92.664</ele>
        <time>1970-01-11T02:00:14Z</time>
      </trkpt>
      <trkpt lat="42.346372" lon="-7.916730">
        <ele>92.823</ele>
        <time>1970-01-11T02:00:14Z</time>
      </trkpt>
      <trkpt lat="42.346289" lon="-7.916645">
        <ele>92.898</ele>
        <time>1970-01-11T02:00:14Z</time>
      </trkpt>
      <trkpt lat="42.346233" lon="-7.916534">
        <ele>92.866</ele>
        <time>1970-01-11T02:00:14Z</time>
      </trkpt>
      <trkpt lat="42.346294" lon="-7.916360">
        <ele>92.645</ele>
        <time>1970-01-11T02:00:14Z</time>
      </trkpt>
      <trkpt lat="42.346360" lon="-7.916236">
        <ele>92.668</ele>
        <time>1970-01-11T02:00:14Z</time>
      </trkpt>
      <trkpt lat="42.346474" lon="-7.916020">
        <ele>92.642</ele>
        <time>1970-01-11T02:00:14Z</time>
      </trkpt>
      <trkpt lat="42.346615" lon="-7.915800">
        <ele>92.426</ele>
        <time>1970-01-11T02:00:14Z</time>
      </trkpt>
      <trkpt lat="42.346728" lon="-7.915664">
        <ele>91.808</ele>
        <time>1970-01-11T02:00:14Z</time>
      </trkpt>
      <trkpt lat="42.346788" lon="-7.915601">
        <ele>91.457</ele>
        <time>1970-01-11T02:00:14Z</time>
      </trkpt>
      <trkpt lat="42.347000" lon="-7.915408">
        <ele>90.074</ele>
        <time>1970-01-11T02:00:14Z</time>
      </trkpt>
      <trkpt lat="42.347147" lon="-7.915130">
        <ele>88.680</ele>
        <time>1970-01-11T02:00:14Z</time>
      </trkpt>
      <trkpt lat="42.347257" lon="-7.914970">
        <ele>87.678</ele>
        <time>1970-01-11T02:00:14Z</time>
      </trkpt>
      <trkpt lat="42.347312" lon="-7.914892">
        <ele>87.247</ele>
        <time>1970-01-11T02:00:14Z</time>
      </trkpt>
      <trkpt lat="42.347457" lon="-7.914650">
        <ele>86.232</ele>
        <time>1970-01-11T02:00:14Z</time>
      </trkpt>
      <trkpt lat="42.347591" lon="-7.914318">
        <ele>85.850</ele>
        <time>1970-01-11T02:00:14Z</time>
      </trkpt>
      <trkpt lat="42.347605" lon="-7.914228">
        <ele>85.889</ele>
        <time>1970-01-11T02:00:14Z</time>
      </trkpt>
      <trkpt lat="42.347685" lon="-7.913738">
        <ele>86.899</ele>
        <time>1970-01-11T02:00:14Z</time>
      </trkpt>
      <trkpt lat="42.347740" lon="-7.913598">
        <ele>87.207</ele>
        <time>1970-01-11T02:00:14Z</time>
      </trkpt>
      <trkpt lat="42.347781" lon="-7.913540">
        <ele>87.227</ele>
        <time>1970-01-11T02:00:14Z</time>
      </trkpt>
      <trkpt lat="42.347824" lon="-7.913478">
        <ele>87.408</ele>
        <time>1970-01-11T02:00:14Z</time>
      </trkpt>
      <trkpt lat="42.347917" lon="-7.913349">
        <ele>87.880</ele>
        <time>1970-01-11T02:00:14Z</time>
      </trkpt>
      <trkpt lat="42.348027" lon="-7.913224">
        <ele>88.077</ele>
        <time>1970-01-11T02:00:14Z</time>
      </trkpt>
      <trkpt lat="42.348140" lon="-7.913098">
        <ele>88.443</ele>
        <time>1970-01-11T02:00:14Z</time>
      </trkpt>
      <trkpt lat="42.348330" lon="-7.912832">
        <ele>88.891</ele>
        <time>1970-01-11T02:00:14Z</time>
      </trkpt>
      <trkpt lat="42.348397" lon="-7.912683">
        <ele>88.850</ele>
        <time>1970-01-11T02:00:14Z</time>
      </trkpt>
      <trkpt lat="42.348579" lon="-7.912369">
        <ele>89.275</ele>
        <time>1970-01-11T02:00:14Z</time>
      </trkpt>
      <trkpt lat="42.348662" lon="-7.912245">
        <ele>89.683</ele>
        <time>1970-01-11T02:00:14Z</time>
      </trkpt>
      <trkpt lat="42.348732" lon="-7.912130">
        <ele>89.842</ele>
        <time>1970-01-11T02:00:14Z</time>
      </trkpt>
      <trkpt lat="42.348793" lon="-7.911994">
        <ele>90.099</ele>
        <time>1970-01-11T02:00:14Z</time>
      </trkpt>
      <trkpt lat="42.348817" lon="-7.911916">
        <ele>90.007</ele>
        <time>1970-01-11T02:00:14Z</time>
      </trkpt>
      <trkpt lat="42.348841" lon="-7.911678">
        <ele>89.627</ele>
        <time>1970-01-11T02:00:14Z</time>
      </trkpt>
      <trkpt lat="42.348785" lon="-7.911398">
        <ele>89.008</ele>
        <time>1970-01-11T02:00:14Z</time>
      </trkpt>
      <trkpt lat="42.348763" lon="-7.911265">
        <ele>89.070</ele>
        <time>1970-01-11T02:00:14Z</time>
      </trkpt>
      <trkpt lat="42.348767" lon="-7.910971">
        <ele>88.857</ele>
        <time>1970-01-11T02:00:14Z</time>
      </trkpt>
      <trkpt lat="42.348789" lon="-7.910795">
        <ele>88.473</ele>
        <time>1970-01-11T02:00:14Z</time>
      </trkpt>
      <trkpt lat="42.348813" lon="-7.910594">
        <ele>88.011</ele>
        <time>1970-01-11T02:00:14Z</time>
      </trkpt>
      <trkpt lat="42.348829" lon="-7.910383">
        <ele>87.470</ele>
        <time>1970-01-11T02:00:14Z</time>
      </trkpt>
      <trkpt lat="42.348837" lon="-7.910058">
        <ele>86.035</ele>
        <time>1970-01-11T02:00:14Z</time>
      </trkpt>
      <trkpt lat="42.348835" lon="-7.909943">
        <ele>85.673</ele>
        <time>1970-01-11T02:00:14Z</time>
      </trkpt>
      <trkpt lat="42.348821" lon="-7.909833">
        <ele>85.092</ele>
        <time>1970-01-11T02:00:14Z</time>
      </trkpt>
      <trkpt lat="42.348805" lon="-7.909728">
        <ele>84.615</ele>
        <time>1970-01-11T02:00:14Z</time>
      </trkpt>
      <trkpt lat="42.348769" lon="-7.909527">
        <ele>83.865</ele>
        <time>1970-01-11T02:00:14Z</time>
      </trkpt>
      <trkpt lat="42.348710" lon="-7.909024">
        <ele>82.811</ele>
        <time>1970-01-11T02:00:14Z</time>
      </trkpt>
      <trkpt lat="42.348697" lon="-7.908827">
        <ele>82.808</ele>
        <time>1970-01-11T02:00:14Z</time>
      </trkpt>
      <trkpt lat="42.348681" lon="-7.908296">
        <ele>83.262</ele>
        <time>1970-01-11T02:00:14Z</time>
      </trkpt>
      <trkpt lat="42.348704" lon="-7.907876">
        <ele>83.249</ele>
        <time>1970-01-11T02:00:14Z</time>
      </trkpt>
      <trkpt lat="42.348663" lon="-7.907065">
        <ele>82.855</ele>
        <time>1970-01-11T02:00:14Z</time>
      </trkpt>
      <trkpt lat="42.348676" lon="-7.906885">
        <ele>82.843</ele>
        <time>1970-01-11T02:00:14Z</time>
      </trkpt>
      <trkpt lat="42.348722" lon="-7.906724">
        <ele>82.892</ele>
        <time>1970-01-11T02:00:14Z</time>
      </trkpt>
      <trkpt lat="42.348874" lon="-7.906512">
        <ele>82.617</ele>
        <time>1970-01-11T02:00:14Z</time>
      </trkpt>
      <trkpt lat="42.349237" lon="-7.906030">
        <ele>82.675</ele>
        <time>1970-01-11T02:00:14Z</time>
      </trkpt>
      <trkpt lat="42.349576" lon="-7.905641">
        <ele>82.834</ele>
        <time>1970-01-11T02:00:14Z</time>
      </trkpt>
      <trkpt lat="42.349802" lon="-7.905388">
        <ele>83.048</ele>
        <time>1970-01-11T02:00:14Z</time>
      </trkpt>
      <trkpt lat="42.349859" lon="-7.905215">
        <ele>83.061</ele>
        <time>1970-01-11T02:00:14Z</time>
      </trkpt>
      <trkpt lat="42.349919" lon="-7.904964">
        <ele>83.417</ele>
        <time>1970-01-11T02:00:14Z</time>
      </trkpt>
      <trkpt lat="42.349947" lon="-7.904823">
        <ele>83.808</ele>
        <time>1970-01-11T02:00:14Z</time>
      </trkpt>
      <trkpt lat="42.349999" lon="-7.904610">
        <ele>85.065</ele>
        <time>1970-01-11T02:00:14Z</time>
      </trkpt>
      <trkpt lat="42.350068" lon="-7.904425">
        <ele>86.092</ele>
        <time>1970-01-11T02:00:14Z</time>
      </trkpt>
      <trkpt lat="42.350174" lon="-7.904098">
        <ele>87.018</ele>
        <time>1970-01-11T02:00:14Z</time>
      </trkpt>
      <trkpt lat="42.350189" lon="-7.904026">
        <ele>87.216</ele>
        <time>1970-01-11T02:00:14Z</time>
      </trkpt>
      <trkpt lat="42.350314" lon="-7.903609">
        <ele>87.425</ele>
        <time>1970-01-11T02:00:14Z</time>
      </trkpt>
      <trkpt lat="42.350467" lon="-7.903252">
        <ele>87.420</ele>
        <time>1970-01-11T02:00:14Z</time>
      </trkpt>
      <trkpt lat="42.350494" lon="-7.903175">
        <ele>87.258</ele>
        <time>1970-01-11T02:00:14Z</time>
      </trkpt>
      <trkpt lat="42.350741" lon="-7.902661">
        <ele>86.697</ele>
        <time>1970-01-11T02:00:14Z</time>
      </trkpt>
      <trkpt lat="42.350943" lon="-7.902306">
        <ele>86.066</ele>
        <time>1970-01-11T02:00:14Z</time>
      </trkpt>
      <trkpt lat="42.351020" lon="-7.902163">
        <ele>85.829</ele>
        <time>1970-01-11T02:00:14Z</time>
      </trkpt>
      <trkpt lat="42.351278" lon="-7.901693">
        <ele>85.621</ele>
        <time>1970-01-11T02:00:14Z</time>
      </trkpt>
      <trkpt lat="42.351313" lon="-7.901626">
        <ele>85.608</ele>
        <time>1970-01-11T02:00:14Z</time>
      </trkpt>
      <trkpt lat="42.351392" lon="-7.901412">
        <ele>85.637</ele>
        <time>1970-01-11T02:00:14Z</time>
      </trkpt>
      <trkpt lat="42.351424" lon="-7.901255">
        <ele>85.624</ele>
        <time>1970-01-11T02:00:14Z</time>
      </trkpt>
      <trkpt lat="42.351438" lon="-7.901101">
        <ele>85.830</ele>
        <time>1970-01-11T02:00:14Z</time>
      </trkpt>
      <trkpt lat="42.351415" lon="-7.900938">
        <ele>86.028</ele>
        <time>1970-01-11T02:00:14Z</time>
      </trkpt>
      <trkpt lat="42.351399" lon="-7.900527">
        <ele>86.067</ele>
        <time>1970-01-11T02:00:14Z</time>
      </trkpt>
      <trkpt lat="42.351433" lon="-7.900457">
        <ele>86.072</ele>
        <time>1970-01-11T02:00:14Z</time>
      </trkpt>
      <trkpt lat="42.351543" lon="-7.900259">
        <ele>86.040</ele>
        <time>1970-01-11T02:00:14Z</time>
      </trkpt>
      <trkpt lat="42.351656" lon="-7.900054">
        <ele>86.069</ele>
        <time>1970-01-11T02:00:14Z</time>
      </trkpt>
      <trkpt lat="42.351867" lon="-7.899547">
        <ele>86.078</ele>
        <time>1970-01-11T02:00:14Z</time>
      </trkpt>
      <trkpt lat="42.352069" lon="-7.898931">
        <ele>86.233</ele>
        <time>1970-01-11T02:00:14Z</time>
      </trkpt>
      <trkpt lat="42.352245" lon="-7.898408">
        <ele>86.426</ele>
        <time>1970-01-11T02:00:14Z</time>
      </trkpt>
      <trkpt lat="42.352377" lon="-7.897930">
        <ele>86.408</ele>
        <time>1970-01-11T02:00:14Z</time>
      </trkpt>
      <trkpt lat="42.352499" lon="-7.897386">
        <ele>86.048</ele>
        <time>1970-01-11T02:00:14Z</time>
      </trkpt>
      <trkpt lat="42.352535" lon="-7.897255">
        <ele>86.255</ele>
        <time>1970-01-11T02:00:14Z</time>
      </trkpt>
      <trkpt lat="42.352652" lon="-7.896911">
        <ele>86.671</ele>
        <time>1970-01-11T02:00:14Z</time>
      </trkpt>
      <trkpt lat="42.352743" lon="-7.896445">
        <ele>86.699</ele>
        <time>1970-01-11T02:00:14Z</time>
      </trkpt>
      <trkpt lat="42.352816" lon="-7.895921">
        <ele>86.488</ele>
        <time>1970-01-11T02:00:15Z</time>
      </trkpt>
      <trkpt lat="42.352830" lon="-7.895151">
        <ele>86.663</ele>
        <time>1970-01-11T02:00:15Z</time>
      </trkpt>
      <trkpt lat="42.352819" lon="-7.894454">
        <ele>86.881</ele>
        <time>1970-01-11T02:00:15Z</time>
      </trkpt>
      <trkpt lat="42.352824" lon="-7.894133">
        <ele>87.020</ele>
        <time>1970-01-11T02:00:15Z</time>
      </trkpt>
      <trkpt lat="42.352831" lon="-7.893736">
        <ele>87.224</ele>
        <time>1970-01-11T02:00:15Z</time>
      </trkpt>
      <trkpt lat="42.352824" lon="-7.893118">
        <ele>87.404</ele>
        <time>1970-01-11T02:00:15Z</time>
      </trkpt>
      <trkpt lat="42.352804" lon="-7.892488">
        <ele>87.814</ele>
        <time>1970-01-11T02:00:15Z</time>
      </trkpt>
      <trkpt lat="42.352778" lon="-7.891943">
        <ele>87.808</ele>
        <time>1970-01-11T02:00:15Z</time>
      </trkpt>
      <trkpt lat="42.352792" lon="-7.891333">
        <ele>88.063</ele>
        <time>1970-01-11T02:00:15Z</time>
      </trkpt>
      <trkpt lat="42.352795" lon="-7.891256">
        <ele>88.040</ele>
        <time>1970-01-11T02:00:15Z</time>
      </trkpt>
      <trkpt lat="42.352816" lon="-7.890609">
        <ele>87.876</ele>
        <time>1970-01-11T02:00:15Z</time>
      </trkpt>
      <trkpt lat="42.352779" lon="-7.890034">
        <ele>87.814</ele>
        <time>1970-01-11T02:00:15Z</time>
      </trkpt>
      <trkpt lat="42.352735" lon="-7.889554">
        <ele>88.083</ele>
        <time>1970-01-11T02:00:15Z</time>
      </trkpt>
      <trkpt lat="42.352640" lon="-7.889010">
        <ele>87.898</ele>
        <time>1970-01-11T02:00:15Z</time>
      </trkpt>
      <trkpt lat="42.352515" lon="-7.888391">
        <ele>88.076</ele>
        <time>1970-01-11T02:00:15Z</time>
      </trkpt>
      <trkpt lat="42.352414" lon="-7.887765">
        <ele>88.095</ele>
        <time>1970-01-11T02:00:15Z</time>
      </trkpt>
      <trkpt lat="42.352333" lon="-7.887300">
        <ele>87.862</ele>
        <time>1970-01-11T02:00:15Z</time>
      </trkpt>
      <trkpt lat="42.352118" lon="-7.886645">
        <ele>87.883</ele>
        <time>1970-01-11T02:00:15Z</time>
      </trkpt>
      <trkpt lat="42.351926" lon="-7.886134">
        <ele>87.011</ele>
        <time>1970-01-11T02:00:15Z</time>
      </trkpt>
      <trkpt lat="42.351893" lon="-7.886050">
        <ele>86.608</ele>
        <time>1970-01-11T02:00:15Z</time>
      </trkpt>
      <trkpt lat="42.351728" lon="-7.885655">
        <ele>85.847</ele>
        <time>1970-01-11T02:00:15Z</time>
      </trkpt>
      <trkpt lat="42.351652" lon="-7.885510">
        <ele>85.844</ele>
        <time>1970-01-11T02:00:15Z</time>
      </trkpt>
      <trkpt lat="42.351384" lon="-7.885028">
        <ele>85.460</ele>
        <time>1970-01-11T02:00:15Z</time>
      </trkpt>
      <trkpt lat="42.351057" lon="-7.884485">
        <ele>85.068</ele>
        <time>1970-01-11T02:00:15Z</time>
      </trkpt>
      <trkpt lat="42.350794" lon="-7.884113">
        <ele>84.837</ele>
        <time>1970-01-11T02:00:15Z</time>
      </trkpt>
      <trkpt lat="42.350747" lon="-7.884052">
        <ele>84.842</ele>
        <time>1970-01-11T02:00:15Z</time>
      </trkpt>
      <trkpt lat="42.350419" lon="-7.883647">
        <ele>84.610</ele>
        <time>1970-01-11T02:00:15Z</time>
      </trkpt>
      <trkpt lat="42.350160" lon="-7.883355">
        <ele>84.639</ele>
        <time>1970-01-11T02:00:15Z</time>
      </trkpt>
      <trkpt lat="42.350027" lon="-7.883257">
        <ele>84.827</ele>
        <time>1970-01-11T02:00:15Z</time>
      </trkpt>
      <trkpt lat="42.349951" lon="-7.883233">
        <ele>85.468</ele>
        <time>1970-01-11T02:00:15Z</time>
      </trkpt>
      <trkpt lat="42.349880" lon="-7.883200">
        <ele>86.214</ele>
        <time>1970-01-11T02:00:15Z</time>
      </trkpt>
      <trkpt lat="42.349748" lon="-7.883132">
        <ele>87.408</ele>
        <time>1970-01-11T02:00:15Z</time>
      </trkpt>
      <trkpt lat="42.349611" lon="-7.883011">
        <ele>88.033</ele>
        <time>1970-01-11T02:00:15Z</time>
      </trkpt>
      <trkpt lat="42.349520" lon="-7.882905">
        <ele>88.030</ele>
        <time>1970-01-11T02:00:15Z</time>
      </trkpt>
      <trkpt lat="42.349223" lon="-7.882518">
        <ele>87.086</ele>
        <time>1970-01-11T02:00:15Z</time>
      </trkpt>
      <trkpt lat="42.349066" lon="-7.882343">
        <ele>86.444</ele>
        <time>1970-01-11T02:00:15Z</time>
      </trkpt>
      <trkpt lat="42.348911" lon="-7.882215">
        <ele>86.093</ele>
        <time>1970-01-11T02:00:15Z</time>
      </trkpt>
      <trkpt lat="42.348645" lon="-7.881971">
        <ele>85.828</ele>
        <time>1970-01-11T02:00:15Z</time>
      </trkpt>
      <trkpt lat="42.348446" lon="-7.881760">
        <ele>85.296</ele>
        <time>1970-01-11T02:00:15Z</time>
      </trkpt>
      <trkpt lat="42.348305" lon="-7.881636">
        <ele>85.295</ele>
        <time>1970-01-11T02:00:15Z</time>
      </trkpt>
      <trkpt lat="42.348067" lon="-7.881376">
        <ele>86.052</ele>
        <time>1970-01-11T02:00:15Z</time>
      </trkpt>
      <trkpt lat="42.347993" lon="-7.881300">
        <ele>86.453</ele>
        <time>1970-01-11T02:00:15Z</time>
      </trkpt>
      <trkpt lat="42.347811" lon="-7.881181">
        <ele>87.408</ele>
        <time>1970-01-11T02:00:15Z</time>
      </trkpt>
      <trkpt lat="42.347762" lon="-7.881150">
        <ele>87.608</ele>
        <time>1970-01-11T02:00:15Z</time>
      </trkpt>
      <trkpt lat="42.347456" lon="-7.880977">
        <ele>88.246</ele>
        <time>1970-01-11T02:00:15Z</time>
      </trkpt>
      <trkpt lat="42.347047" lon="-7.880775">
        <ele>88.243</ele>
        <time>1970-01-11T02:00:15Z</time>
      </trkpt>
      <trkpt lat="42.346681" lon="-7.880527">
        <ele>88.649</ele>
        <time>1970-01-11T02:00:15Z</time>
      </trkpt>
      <trkpt lat="42.346644" lon="-7.880480">
        <ele>88.637</ele>
        <time>1970-01-11T02:00:15Z</time>
      </trkpt>
      <trkpt lat="42.346608" lon="-7.880440">
        <ele>88.666</ele>
        <time>1970-01-11T02:00:15Z</time>
      </trkpt>
      <trkpt lat="42.346548" lon="-7.880371">
        <ele>88.651</ele>
        <time>1970-01-11T02:00:15Z</time>
      </trkpt>
      <trkpt lat="42.346516" lon="-7.880334">
        <ele>88.639</ele>
        <time>1970-01-11T02:00:15Z</time>
      </trkpt>
      <trkpt lat="42.346307" lon="-7.880181">
        <ele>89.248</ele>
        <time>1970-01-11T02:00:15Z</time>
      </trkpt>
      <trkpt lat="42.346149" lon="-7.880115">
        <ele>89.431</ele>
        <time>1970-01-11T02:00:15Z</time>
      </trkpt>
      <trkpt lat="42.346061" lon="-7.880050">
        <ele>89.461</ele>
        <time>1970-01-11T02:00:15Z</time>
      </trkpt>
      <trkpt lat="42.345808" lon="-7.879796">
        <ele>89.607</ele>
        <time>1970-01-11T02:00:15Z</time>
      </trkpt>
      <trkpt lat="42.345669" lon="-7.879616">
        <ele>89.808</ele>
        <time>1970-01-11T02:00:15Z</time>
      </trkpt>
      <trkpt lat="42.345570" lon="-7.879473">
        <ele>89.894</ele>
        <time>1970-01-11T02:00:15Z</time>
      </trkpt>
      <trkpt lat="42.345543" lon="-7.879419">
        <ele>89.891</ele>
        <time>1970-01-11T02:00:15Z</time>
      </trkpt>
      <trkpt lat="42.345465" lon="-7.879248">
        <ele>89.837</ele>
        <time>1970-01-11T02:00:15Z</time>
      </trkpt>
      <trkpt lat="42.345383" lon="-7.879082">
        <ele>89.825</ele>
        <time>1970-01-11T02:00:15Z</time>
      </trkpt>
      <trkpt lat="42.345303" lon="-7.878995">
        <ele>89.634</ele>
        <time>1970-01-11T02:00:15Z</time>
      </trkpt>
      <trkpt lat="42.345118" lon="-7.878879">
        <ele>89.869</ele>
        <time>1970-01-11T02:00:15Z</time>
      </trkpt>
      <trkpt lat="42.345054" lon="-7.878770">
        <ele>90.837</ele>
        <time>1970-01-11T02:00:15Z</time>
      </trkpt>
      <trkpt lat="42.345040" lon="-7.878752">
        <ele>91.096</ele>
        <time>1970-01-11T02:00:15Z</time>
      </trkpt>
      <trkpt lat="42.344996" lon="-7.878712">
        <ele>91.632</ele>
        <time>1970-01-11T02:00:15Z</time>
      </trkpt>
      <trkpt lat="42.344980" lon="-7.878715">
        <ele>92.092</ele>
        <time>1970-01-11T02:00:15Z</time>
      </trkpt>
      <trkpt lat="42.344926" lon="-7.878756">
        <ele>93.411</ele>
        <time>1970-01-11T02:00:15Z</time>
      </trkpt>
      <trkpt lat="42.344901" lon="-7.878810">
        <ele>93.808</ele>
        <time>1970-01-11T02:00:15Z</time>
      </trkpt>
      <trkpt lat="42.344875" lon="-7.878869">
        <ele>94.444</ele>
        <time>1970-01-11T02:00:15Z</time>
      </trkpt>
      <trkpt lat="42.344855" lon="-7.879019">
        <ele>94.821</ele>
        <time>1970-01-11T02:00:15Z</time>
      </trkpt>
      <trkpt lat="42.344879" lon="-7.879168">
        <ele>95.447</ele>
        <time>1970-01-11T02:00:15Z</time>
      </trkpt>
      <trkpt lat="42.344901" lon="-7.879278">
        <ele>96.065</ele>
        <time>1970-01-11T02:00:15Z</time>
      </trkpt>
      <trkpt lat="42.344911" lon="-7.879354">
        <ele>96.464</ele>
        <time>1970-01-11T02:00:15Z</time>
      </trkpt>
      <trkpt lat="42.344937" lon="-7.879509">
        <ele>97.689</ele>
        <time>1970-01-11T02:00:15Z</time>
      </trkpt>
      <trkpt lat="42.344951" lon="-7.879578">
        <ele>98.277</ele>
        <time>1970-01-11T02:00:15Z</time>
      </trkpt>
      <trkpt lat="42.344957" lon="-7.879610">
        <ele>98.626</ele>
        <time>1970-01-11T02:00:15Z</time>
      </trkpt>
      <trkpt lat="42.345029" lon="-7.879748">
        <ele>99.857</ele>
        <time>1970-01-11T02:00:15Z</time>
      </trkpt>
      <trkpt lat="42.345122" lon="-7.879906">
        <ele>100.800</ele>
        <time>1970-01-11T02:00:15Z</time>
      </trkpt>
      <trkpt lat="42.345145" lon="-7.879944">
        <ele>101.020</ele>
        <time>1970-01-11T02:00:15Z</time>
      </trkpt>
      <trkpt lat="42.345164" lon="-7.879974">
        <ele>100.808</ele>
        <time>1970-01-11T02:00:15Z</time>
      </trkpt>
      <trkpt lat="42.345163" lon="-7.879973">
        <ele>100.646</ele>
        <time>1970-01-11T02:00:15Z</time>
      </trkpt>
      <trkpt lat="42.345161" lon="-7.879966">
        <ele>100.823</ele>
        <time>1970-01-11T02:00:15Z</time>
      </trkpt>
    </trkseg>
  </trk>
</gpx>
